<?xml version="1.0" encoding="UTF-8" standalone="no" ?>
<gpx xmlns="http://www.topografix.com/GPX/1/1" xmlns:xsi="http://www.w3.org/2001/XMLSchema-instance" xsi:schemaLocation="http://www.topografix.com/GPX/1/1 http://www.topografix.com/GPX/1/1/gpx.xsd" version="1.1" creator="VisuGPX - https://www.visugpx.com">
  <metadata>
    <name>20220527_St Étienne du Valdonnez Quezac</name>
    <desc><![CDATA[Festival des Randonnées 2022 - une vraie merveille !]]></desc>
  </metadata>
  <trk>
    <name><![CDATA[20220527_St Étienne du Vez Quezac.gpx]]></name>
    <trkseg>
      <trkpt lat="44.45539" lon="3.56161">
        <ele>924</ele>
        <time>2022-05-27T07:07:42Z</time>
      </trkpt>
      <trkpt lat="44.45538" lon="3.56161">
        <ele>918</ele>
        <time>2022-05-27T07:07:44Z</time>
      </trkpt>
      <trkpt lat="44.45538" lon="3.5616">
        <ele>913</ele>
        <time>2022-05-27T07:07:46Z</time>
      </trkpt>
      <trkpt lat="44.45538" lon="3.5616">
        <ele>914</ele>
        <time>2022-05-27T07:07:47Z</time>
      </trkpt>
      <trkpt lat="44.45539" lon="3.5616">
        <ele>916</ele>
        <time>2022-05-27T07:07:48Z</time>
      </trkpt>
      <trkpt lat="44.45538" lon="3.5616">
        <ele>916</ele>
        <time>2022-05-27T07:07:49Z</time>
      </trkpt>
      <trkpt lat="44.45538" lon="3.5616">
        <ele>918</ele>
        <time>2022-05-27T07:07:50Z</time>
      </trkpt>
      <trkpt lat="44.45538" lon="3.5616">
        <ele>919</ele>
        <time>2022-05-27T07:07:51Z</time>
      </trkpt>
      <trkpt lat="44.45538" lon="3.5616">
        <ele>919</ele>
        <time>2022-05-27T07:07:52Z</time>
      </trkpt>
      <trkpt lat="44.45538" lon="3.5616">
        <ele>919</ele>
        <time>2022-05-27T07:07:53Z</time>
      </trkpt>
      <trkpt lat="44.45538" lon="3.5616">
        <ele>919</ele>
        <time>2022-05-27T07:07:53Z</time>
      </trkpt>
      <trkpt lat="44.45538" lon="3.5616">
        <ele>919</ele>
        <time>2022-05-27T07:07:53Z</time>
      </trkpt>
      <trkpt lat="44.45538" lon="3.5616">
        <ele>919</ele>
        <time>2022-05-27T07:07:53Z</time>
      </trkpt>
      <trkpt lat="44.45539" lon="3.56162">
        <ele>919</ele>
        <time>2022-05-27T07:09:11Z</time>
      </trkpt>
      <trkpt lat="44.45539" lon="3.56162">
        <ele>919</ele>
        <time>2022-05-27T07:09:11Z</time>
      </trkpt>
      <trkpt lat="44.45539" lon="3.56163">
        <ele>920</ele>
        <time>2022-05-27T07:09:13Z</time>
      </trkpt>
      <trkpt lat="44.45539" lon="3.56163">
        <ele>920</ele>
        <time>2022-05-27T07:09:13Z</time>
      </trkpt>
      <trkpt lat="44.45539" lon="3.56163">
        <ele>921</ele>
        <time>2022-05-27T07:09:14Z</time>
      </trkpt>
      <trkpt lat="44.4554" lon="3.56165">
        <ele>921</ele>
        <time>2022-05-27T07:09:16Z</time>
      </trkpt>
      <trkpt lat="44.45541" lon="3.56169">
        <ele>920</ele>
        <time>2022-05-27T07:09:19Z</time>
      </trkpt>
      <trkpt lat="44.45541" lon="3.5617">
        <ele>919</ele>
        <time>2022-05-27T07:09:21Z</time>
      </trkpt>
      <trkpt lat="44.45541" lon="3.5617">
        <ele>919</ele>
        <time>2022-05-27T07:09:21Z</time>
      </trkpt>
      <trkpt lat="44.45542" lon="3.56171">
        <ele>919</ele>
        <time>2022-05-27T07:09:23Z</time>
      </trkpt>
      <trkpt lat="44.45542" lon="3.56171">
        <ele>919</ele>
        <time>2022-05-27T07:09:23Z</time>
      </trkpt>
      <trkpt lat="44.45542" lon="3.56171">
        <ele>918</ele>
        <time>2022-05-27T07:09:24Z</time>
      </trkpt>
      <trkpt lat="44.45542" lon="3.56171">
        <ele>918</ele>
        <time>2022-05-27T07:09:24Z</time>
      </trkpt>
      <trkpt lat="44.45542" lon="3.56171">
        <ele>918</ele>
        <time>2022-05-27T07:09:24Z</time>
      </trkpt>
      <trkpt lat="44.45545" lon="3.5617">
        <ele>918</ele>
        <time>2022-05-27T07:09:32Z</time>
      </trkpt>
      <trkpt lat="44.45547" lon="3.56169">
        <ele>918</ele>
        <time>2022-05-27T07:09:33Z</time>
      </trkpt>
      <trkpt lat="44.45551" lon="3.56169">
        <ele>918</ele>
        <time>2022-05-27T07:09:35Z</time>
      </trkpt>
      <trkpt lat="44.45554" lon="3.5617">
        <ele>919</ele>
        <time>2022-05-27T07:09:37Z</time>
      </trkpt>
      <trkpt lat="44.45555" lon="3.56171">
        <ele>919</ele>
        <time>2022-05-27T07:09:38Z</time>
      </trkpt>
      <trkpt lat="44.45556" lon="3.56172">
        <ele>920</ele>
        <time>2022-05-27T07:09:39Z</time>
      </trkpt>
      <trkpt lat="44.45556" lon="3.56172">
        <ele>920</ele>
        <time>2022-05-27T07:09:40Z</time>
      </trkpt>
      <trkpt lat="44.45557" lon="3.56173">
        <ele>921</ele>
        <time>2022-05-27T07:09:41Z</time>
      </trkpt>
      <trkpt lat="44.45558" lon="3.56174">
        <ele>920</ele>
        <time>2022-05-27T07:09:42Z</time>
      </trkpt>
      <trkpt lat="44.45559" lon="3.56174">
        <ele>920</ele>
        <time>2022-05-27T07:09:43Z</time>
      </trkpt>
      <trkpt lat="44.45559" lon="3.56175">
        <ele>921</ele>
        <time>2022-05-27T07:09:44Z</time>
      </trkpt>
      <trkpt lat="44.4556" lon="3.56175">
        <ele>922</ele>
        <time>2022-05-27T07:09:45Z</time>
      </trkpt>
      <trkpt lat="44.4556" lon="3.56176">
        <ele>922</ele>
        <time>2022-05-27T07:09:46Z</time>
      </trkpt>
      <trkpt lat="44.4556" lon="3.56176">
        <ele>921</ele>
        <time>2022-05-27T07:09:47Z</time>
      </trkpt>
      <trkpt lat="44.4556" lon="3.56176">
        <ele>921</ele>
        <time>2022-05-27T07:09:48Z</time>
      </trkpt>
      <trkpt lat="44.4556" lon="3.56177">
        <ele>921</ele>
        <time>2022-05-27T07:09:49Z</time>
      </trkpt>
      <trkpt lat="44.45559" lon="3.56177">
        <ele>921</ele>
        <time>2022-05-27T07:09:50Z</time>
      </trkpt>
      <trkpt lat="44.45559" lon="3.56178">
        <ele>921</ele>
        <time>2022-05-27T07:09:51Z</time>
      </trkpt>
      <trkpt lat="44.45558" lon="3.56177">
        <ele>921</ele>
        <time>2022-05-27T07:09:52Z</time>
      </trkpt>
      <trkpt lat="44.45559" lon="3.56177">
        <ele>921</ele>
        <time>2022-05-27T07:09:53Z</time>
      </trkpt>
      <trkpt lat="44.45559" lon="3.56177">
        <ele>921</ele>
        <time>2022-05-27T07:09:54Z</time>
      </trkpt>
      <trkpt lat="44.45559" lon="3.56177">
        <ele>921</ele>
        <time>2022-05-27T07:09:54Z</time>
      </trkpt>
      <trkpt lat="44.45559" lon="3.56184">
        <ele>924</ele>
        <time>2022-05-27T07:11:06Z</time>
      </trkpt>
      <trkpt lat="44.45558" lon="3.56184">
        <ele>925</ele>
        <time>2022-05-27T07:11:07Z</time>
      </trkpt>
      <trkpt lat="44.45558" lon="3.56184">
        <ele>925</ele>
        <time>2022-05-27T07:11:08Z</time>
      </trkpt>
      <trkpt lat="44.45558" lon="3.56184">
        <ele>925</ele>
        <time>2022-05-27T07:11:09Z</time>
      </trkpt>
      <trkpt lat="44.45558" lon="3.56183">
        <ele>925</ele>
        <time>2022-05-27T07:11:10Z</time>
      </trkpt>
      <trkpt lat="44.45558" lon="3.56181">
        <ele>925</ele>
        <time>2022-05-27T07:11:11Z</time>
      </trkpt>
      <trkpt lat="44.45558" lon="3.56181">
        <ele>925</ele>
        <time>2022-05-27T07:11:12Z</time>
      </trkpt>
      <trkpt lat="44.45558" lon="3.56181">
        <ele>925</ele>
        <time>2022-05-27T07:11:13Z</time>
      </trkpt>
      <trkpt lat="44.45558" lon="3.56181">
        <ele>925</ele>
        <time>2022-05-27T07:11:13Z</time>
      </trkpt>
      <trkpt lat="44.45558" lon="3.56181">
        <ele>925</ele>
        <time>2022-05-27T07:11:13Z</time>
      </trkpt>
      <trkpt lat="44.45561" lon="3.56182">
        <ele>920</ele>
        <time>2022-05-27T07:12:34Z</time>
      </trkpt>
      <trkpt lat="44.45562" lon="3.56183">
        <ele>920</ele>
        <time>2022-05-27T07:12:35Z</time>
      </trkpt>
      <trkpt lat="44.45562" lon="3.56184">
        <ele>921</ele>
        <time>2022-05-27T07:12:36Z</time>
      </trkpt>
      <trkpt lat="44.45562" lon="3.56185">
        <ele>921</ele>
        <time>2022-05-27T07:12:37Z</time>
      </trkpt>
      <trkpt lat="44.45562" lon="3.56186">
        <ele>920</ele>
        <time>2022-05-27T07:12:38Z</time>
      </trkpt>
      <trkpt lat="44.45562" lon="3.56187">
        <ele>920</ele>
        <time>2022-05-27T07:12:39Z</time>
      </trkpt>
      <trkpt lat="44.45561" lon="3.56188">
        <ele>920</ele>
        <time>2022-05-27T07:12:40Z</time>
      </trkpt>
      <trkpt lat="44.45562" lon="3.56188">
        <ele>921</ele>
        <time>2022-05-27T07:12:41Z</time>
      </trkpt>
      <trkpt lat="44.45562" lon="3.56188">
        <ele>922</ele>
        <time>2022-05-27T07:12:42Z</time>
      </trkpt>
      <trkpt lat="44.45562" lon="3.5619">
        <ele>922</ele>
        <time>2022-05-27T07:12:43Z</time>
      </trkpt>
      <trkpt lat="44.45563" lon="3.56191">
        <ele>921</ele>
        <time>2022-05-27T07:12:44Z</time>
      </trkpt>
      <trkpt lat="44.45563" lon="3.56192">
        <ele>921</ele>
        <time>2022-05-27T07:12:45Z</time>
      </trkpt>
      <trkpt lat="44.45563" lon="3.56192">
        <ele>921</ele>
        <time>2022-05-27T07:12:46Z</time>
      </trkpt>
      <trkpt lat="44.45563" lon="3.56193">
        <ele>921</ele>
        <time>2022-05-27T07:12:47Z</time>
      </trkpt>
      <trkpt lat="44.45563" lon="3.56192">
        <ele>921</ele>
        <time>2022-05-27T07:12:48Z</time>
      </trkpt>
      <trkpt lat="44.45563" lon="3.56193">
        <ele>920</ele>
        <time>2022-05-27T07:12:49Z</time>
      </trkpt>
      <trkpt lat="44.45563" lon="3.56194">
        <ele>919</ele>
        <time>2022-05-27T07:12:50Z</time>
      </trkpt>
      <trkpt lat="44.45563" lon="3.56194">
        <ele>919</ele>
        <time>2022-05-27T07:12:50Z</time>
      </trkpt>
      <trkpt lat="44.45563" lon="3.56194">
        <ele>919</ele>
        <time>2022-05-27T07:12:50Z</time>
      </trkpt>
      <trkpt lat="44.45565" lon="3.56202">
        <ele>916</ele>
        <time>2022-05-27T07:13:10Z</time>
      </trkpt>
      <trkpt lat="44.45565" lon="3.56204">
        <ele>916</ele>
        <time>2022-05-27T07:13:11Z</time>
      </trkpt>
      <trkpt lat="44.45566" lon="3.56205">
        <ele>917</ele>
        <time>2022-05-27T07:13:12Z</time>
      </trkpt>
      <trkpt lat="44.45565" lon="3.56206">
        <ele>919</ele>
        <time>2022-05-27T07:13:13Z</time>
      </trkpt>
      <trkpt lat="44.45565" lon="3.56207">
        <ele>919</ele>
        <time>2022-05-27T07:13:14Z</time>
      </trkpt>
      <trkpt lat="44.45565" lon="3.56209">
        <ele>920</ele>
        <time>2022-05-27T07:13:15Z</time>
      </trkpt>
      <trkpt lat="44.45567" lon="3.5621">
        <ele>920</ele>
        <time>2022-05-27T07:13:16Z</time>
      </trkpt>
      <trkpt lat="44.45567" lon="3.56212">
        <ele>920</ele>
        <time>2022-05-27T07:13:17Z</time>
      </trkpt>
      <trkpt lat="44.45568" lon="3.56212">
        <ele>921</ele>
        <time>2022-05-27T07:13:18Z</time>
      </trkpt>
      <trkpt lat="44.45569" lon="3.56213">
        <ele>921</ele>
        <time>2022-05-27T07:13:19Z</time>
      </trkpt>
      <trkpt lat="44.4557" lon="3.56214">
        <ele>921</ele>
        <time>2022-05-27T07:13:20Z</time>
      </trkpt>
      <trkpt lat="44.4557" lon="3.56215">
        <ele>921</ele>
        <time>2022-05-27T07:13:21Z</time>
      </trkpt>
      <trkpt lat="44.45571" lon="3.56217">
        <ele>921</ele>
        <time>2022-05-27T07:13:22Z</time>
      </trkpt>
      <trkpt lat="44.45572" lon="3.56218">
        <ele>921</ele>
        <time>2022-05-27T07:13:23Z</time>
      </trkpt>
      <trkpt lat="44.45572" lon="3.56219">
        <ele>921</ele>
        <time>2022-05-27T07:13:24Z</time>
      </trkpt>
      <trkpt lat="44.45573" lon="3.56219">
        <ele>922</ele>
        <time>2022-05-27T07:13:25Z</time>
      </trkpt>
      <trkpt lat="44.45573" lon="3.56221">
        <ele>922</ele>
        <time>2022-05-27T07:13:26Z</time>
      </trkpt>
      <trkpt lat="44.45574" lon="3.56222">
        <ele>921</ele>
        <time>2022-05-27T07:13:27Z</time>
      </trkpt>
      <trkpt lat="44.45574" lon="3.56223">
        <ele>921</ele>
        <time>2022-05-27T07:13:28Z</time>
      </trkpt>
      <trkpt lat="44.45575" lon="3.56225">
        <ele>921</ele>
        <time>2022-05-27T07:13:29Z</time>
      </trkpt>
      <trkpt lat="44.45576" lon="3.56226">
        <ele>921</ele>
        <time>2022-05-27T07:13:30Z</time>
      </trkpt>
      <trkpt lat="44.45577" lon="3.56226">
        <ele>921</ele>
        <time>2022-05-27T07:13:31Z</time>
      </trkpt>
      <trkpt lat="44.45577" lon="3.56228">
        <ele>921</ele>
        <time>2022-05-27T07:13:32Z</time>
      </trkpt>
      <trkpt lat="44.45577" lon="3.5623">
        <ele>921</ele>
        <time>2022-05-27T07:13:33Z</time>
      </trkpt>
      <trkpt lat="44.45577" lon="3.56232">
        <ele>921</ele>
        <time>2022-05-27T07:13:34Z</time>
      </trkpt>
      <trkpt lat="44.45577" lon="3.56234">
        <ele>921</ele>
        <time>2022-05-27T07:13:35Z</time>
      </trkpt>
      <trkpt lat="44.45577" lon="3.56236">
        <ele>922</ele>
        <time>2022-05-27T07:13:36Z</time>
      </trkpt>
      <trkpt lat="44.45578" lon="3.56236">
        <ele>922</ele>
        <time>2022-05-27T07:13:37Z</time>
      </trkpt>
      <trkpt lat="44.45578" lon="3.56238">
        <ele>923</ele>
        <time>2022-05-27T07:13:38Z</time>
      </trkpt>
      <trkpt lat="44.45578" lon="3.56239">
        <ele>923</ele>
        <time>2022-05-27T07:13:39Z</time>
      </trkpt>
      <trkpt lat="44.45578" lon="3.5624">
        <ele>923</ele>
        <time>2022-05-27T07:13:40Z</time>
      </trkpt>
      <trkpt lat="44.45578" lon="3.56242">
        <ele>923</ele>
        <time>2022-05-27T07:13:41Z</time>
      </trkpt>
      <trkpt lat="44.45578" lon="3.56243">
        <ele>924</ele>
        <time>2022-05-27T07:13:42Z</time>
      </trkpt>
      <trkpt lat="44.45578" lon="3.56243">
        <ele>924</ele>
        <time>2022-05-27T07:13:43Z</time>
      </trkpt>
      <trkpt lat="44.45578" lon="3.56245">
        <ele>925</ele>
        <time>2022-05-27T07:13:44Z</time>
      </trkpt>
      <trkpt lat="44.45578" lon="3.56247">
        <ele>924</ele>
        <time>2022-05-27T07:13:45Z</time>
      </trkpt>
      <trkpt lat="44.45578" lon="3.56248">
        <ele>924</ele>
        <time>2022-05-27T07:13:46Z</time>
      </trkpt>
      <trkpt lat="44.45578" lon="3.56249">
        <ele>924</ele>
        <time>2022-05-27T07:13:47Z</time>
      </trkpt>
      <trkpt lat="44.45578" lon="3.5625">
        <ele>924</ele>
        <time>2022-05-27T07:13:48Z</time>
      </trkpt>
      <trkpt lat="44.45578" lon="3.56251">
        <ele>925</ele>
        <time>2022-05-27T07:13:49Z</time>
      </trkpt>
      <trkpt lat="44.45577" lon="3.56252">
        <ele>927</ele>
        <time>2022-05-27T07:13:50Z</time>
      </trkpt>
      <trkpt lat="44.45577" lon="3.56253">
        <ele>927</ele>
        <time>2022-05-27T07:13:51Z</time>
      </trkpt>
      <trkpt lat="44.45577" lon="3.56253">
        <ele>927</ele>
        <time>2022-05-27T07:13:52Z</time>
      </trkpt>
      <trkpt lat="44.45578" lon="3.56253">
        <ele>926</ele>
        <time>2022-05-27T07:13:53Z</time>
      </trkpt>
      <trkpt lat="44.45577" lon="3.56253">
        <ele>927</ele>
        <time>2022-05-27T07:13:55Z</time>
      </trkpt>
      <trkpt lat="44.45577" lon="3.56253">
        <ele>927</ele>
        <time>2022-05-27T07:13:55Z</time>
      </trkpt>
      <trkpt lat="44.45577" lon="3.56253">
        <ele>929</ele>
        <time>2022-05-27T07:13:56Z</time>
      </trkpt>
      <trkpt lat="44.45577" lon="3.56254">
        <ele>929</ele>
        <time>2022-05-27T07:13:57Z</time>
      </trkpt>
      <trkpt lat="44.45577" lon="3.56255">
        <ele>930</ele>
        <time>2022-05-27T07:13:58Z</time>
      </trkpt>
      <trkpt lat="44.45576" lon="3.56255">
        <ele>930</ele>
        <time>2022-05-27T07:13:59Z</time>
      </trkpt>
      <trkpt lat="44.45575" lon="3.56256">
        <ele>930</ele>
        <time>2022-05-27T07:14:00Z</time>
      </trkpt>
      <trkpt lat="44.45575" lon="3.56257">
        <ele>930</ele>
        <time>2022-05-27T07:14:01Z</time>
      </trkpt>
      <trkpt lat="44.45574" lon="3.56259">
        <ele>930</ele>
        <time>2022-05-27T07:14:02Z</time>
      </trkpt>
      <trkpt lat="44.45574" lon="3.56261">
        <ele>930</ele>
        <time>2022-05-27T07:14:03Z</time>
      </trkpt>
      <trkpt lat="44.45573" lon="3.56264">
        <ele>929</ele>
        <time>2022-05-27T07:14:05Z</time>
      </trkpt>
      <trkpt lat="44.45573" lon="3.56266">
        <ele>929</ele>
        <time>2022-05-27T07:14:06Z</time>
      </trkpt>
      <trkpt lat="44.45573" lon="3.56267">
        <ele>929</ele>
        <time>2022-05-27T07:14:07Z</time>
      </trkpt>
      <trkpt lat="44.45573" lon="3.56267">
        <ele>929</ele>
        <time>2022-05-27T07:14:07Z</time>
      </trkpt>
      <trkpt lat="44.45573" lon="3.56268">
        <ele>929</ele>
        <time>2022-05-27T07:14:09Z</time>
      </trkpt>
      <trkpt lat="44.45572" lon="3.56269">
        <ele>929</ele>
        <time>2022-05-27T07:14:10Z</time>
      </trkpt>
      <trkpt lat="44.4557" lon="3.5627">
        <ele>929</ele>
        <time>2022-05-27T07:14:11Z</time>
      </trkpt>
      <trkpt lat="44.45569" lon="3.5627">
        <ele>929</ele>
        <time>2022-05-27T07:14:12Z</time>
      </trkpt>
      <trkpt lat="44.45569" lon="3.5627">
        <ele>929</ele>
        <time>2022-05-27T07:14:13Z</time>
      </trkpt>
      <trkpt lat="44.45568" lon="3.5627">
        <ele>930</ele>
        <time>2022-05-27T07:14:14Z</time>
      </trkpt>
      <trkpt lat="44.45568" lon="3.56271">
        <ele>930</ele>
        <time>2022-05-27T07:14:15Z</time>
      </trkpt>
      <trkpt lat="44.45567" lon="3.56274">
        <ele>929</ele>
        <time>2022-05-27T07:14:16Z</time>
      </trkpt>
      <trkpt lat="44.45566" lon="3.56275">
        <ele>929</ele>
        <time>2022-05-27T07:14:17Z</time>
      </trkpt>
      <trkpt lat="44.45565" lon="3.56276">
        <ele>930</ele>
        <time>2022-05-27T07:14:18Z</time>
      </trkpt>
      <trkpt lat="44.45564" lon="3.56276">
        <ele>930</ele>
        <time>2022-05-27T07:14:19Z</time>
      </trkpt>
      <trkpt lat="44.45564" lon="3.56276">
        <ele>931</ele>
        <time>2022-05-27T07:14:20Z</time>
      </trkpt>
      <trkpt lat="44.45563" lon="3.56277">
        <ele>931</ele>
        <time>2022-05-27T07:14:21Z</time>
      </trkpt>
      <trkpt lat="44.45562" lon="3.56278">
        <ele>931</ele>
        <time>2022-05-27T07:14:22Z</time>
      </trkpt>
      <trkpt lat="44.45561" lon="3.56279">
        <ele>931</ele>
        <time>2022-05-27T07:14:23Z</time>
      </trkpt>
      <trkpt lat="44.4556" lon="3.56279">
        <ele>931</ele>
        <time>2022-05-27T07:14:24Z</time>
      </trkpt>
      <trkpt lat="44.4556" lon="3.56279">
        <ele>931</ele>
        <time>2022-05-27T07:14:24Z</time>
      </trkpt>
      <trkpt lat="44.45558" lon="3.56282">
        <ele>931</ele>
        <time>2022-05-27T07:14:26Z</time>
      </trkpt>
      <trkpt lat="44.45558" lon="3.56283">
        <ele>931</ele>
        <time>2022-05-27T07:14:27Z</time>
      </trkpt>
      <trkpt lat="44.45557" lon="3.56285">
        <ele>932</ele>
        <time>2022-05-27T07:14:28Z</time>
      </trkpt>
      <trkpt lat="44.45557" lon="3.56287">
        <ele>932</ele>
        <time>2022-05-27T07:14:29Z</time>
      </trkpt>
      <trkpt lat="44.45556" lon="3.56289">
        <ele>932</ele>
        <time>2022-05-27T07:14:30Z</time>
      </trkpt>
      <trkpt lat="44.45557" lon="3.56292">
        <ele>932</ele>
        <time>2022-05-27T07:14:31Z</time>
      </trkpt>
      <trkpt lat="44.45557" lon="3.56295">
        <ele>933</ele>
        <time>2022-05-27T07:14:32Z</time>
      </trkpt>
      <trkpt lat="44.45557" lon="3.56297">
        <ele>933</ele>
        <time>2022-05-27T07:14:33Z</time>
      </trkpt>
      <trkpt lat="44.45556" lon="3.56298">
        <ele>933</ele>
        <time>2022-05-27T07:14:34Z</time>
      </trkpt>
      <trkpt lat="44.45555" lon="3.563">
        <ele>932</ele>
        <time>2022-05-27T07:14:35Z</time>
      </trkpt>
      <trkpt lat="44.45554" lon="3.56301">
        <ele>931</ele>
        <time>2022-05-27T07:14:36Z</time>
      </trkpt>
      <trkpt lat="44.45553" lon="3.56303">
        <ele>931</ele>
        <time>2022-05-27T07:14:37Z</time>
      </trkpt>
      <trkpt lat="44.45552" lon="3.56304">
        <ele>932</ele>
        <time>2022-05-27T07:14:38Z</time>
      </trkpt>
      <trkpt lat="44.45551" lon="3.56304">
        <ele>933</ele>
        <time>2022-05-27T07:14:39Z</time>
      </trkpt>
      <trkpt lat="44.45549" lon="3.56304">
        <ele>933</ele>
        <time>2022-05-27T07:14:40Z</time>
      </trkpt>
      <trkpt lat="44.45549" lon="3.56304">
        <ele>933</ele>
        <time>2022-05-27T07:14:41Z</time>
      </trkpt>
      <trkpt lat="44.45548" lon="3.56304">
        <ele>933</ele>
        <time>2022-05-27T07:14:42Z</time>
      </trkpt>
      <trkpt lat="44.45548" lon="3.56305">
        <ele>933</ele>
        <time>2022-05-27T07:14:43Z</time>
      </trkpt>
      <trkpt lat="44.45548" lon="3.56306">
        <ele>933</ele>
        <time>2022-05-27T07:14:44Z</time>
      </trkpt>
      <trkpt lat="44.45548" lon="3.56307">
        <ele>934</ele>
        <time>2022-05-27T07:14:45Z</time>
      </trkpt>
      <trkpt lat="44.45548" lon="3.56307">
        <ele>934</ele>
        <time>2022-05-27T07:14:46Z</time>
      </trkpt>
      <trkpt lat="44.45547" lon="3.56306">
        <ele>933</ele>
        <time>2022-05-27T07:14:47Z</time>
      </trkpt>
      <trkpt lat="44.45546" lon="3.56307">
        <ele>933</ele>
        <time>2022-05-27T07:14:48Z</time>
      </trkpt>
      <trkpt lat="44.45546" lon="3.56307">
        <ele>933</ele>
        <time>2022-05-27T07:14:49Z</time>
      </trkpt>
      <trkpt lat="44.45545" lon="3.56307">
        <ele>933</ele>
        <time>2022-05-27T07:14:50Z</time>
      </trkpt>
      <trkpt lat="44.45545" lon="3.56308">
        <ele>933</ele>
        <time>2022-05-27T07:14:51Z</time>
      </trkpt>
      <trkpt lat="44.45544" lon="3.56308">
        <ele>932</ele>
        <time>2022-05-27T07:14:52Z</time>
      </trkpt>
      <trkpt lat="44.45543" lon="3.56307">
        <ele>932</ele>
        <time>2022-05-27T07:14:53Z</time>
      </trkpt>
      <trkpt lat="44.45541" lon="3.56307">
        <ele>931</ele>
        <time>2022-05-27T07:14:54Z</time>
      </trkpt>
      <trkpt lat="44.45538" lon="3.56308">
        <ele>930</ele>
        <time>2022-05-27T07:14:55Z</time>
      </trkpt>
      <trkpt lat="44.45536" lon="3.56308">
        <ele>931</ele>
        <time>2022-05-27T07:14:56Z</time>
      </trkpt>
      <trkpt lat="44.45536" lon="3.56308">
        <ele>931</ele>
        <time>2022-05-27T07:14:57Z</time>
      </trkpt>
      <trkpt lat="44.45535" lon="3.56309">
        <ele>931</ele>
        <time>2022-05-27T07:14:58Z</time>
      </trkpt>
      <trkpt lat="44.45534" lon="3.56309">
        <ele>930</ele>
        <time>2022-05-27T07:14:59Z</time>
      </trkpt>
      <trkpt lat="44.45533" lon="3.5631">
        <ele>929</ele>
        <time>2022-05-27T07:15:00Z</time>
      </trkpt>
      <trkpt lat="44.45532" lon="3.5631">
        <ele>929</ele>
        <time>2022-05-27T07:15:01Z</time>
      </trkpt>
      <trkpt lat="44.45531" lon="3.56311">
        <ele>929</ele>
        <time>2022-05-27T07:15:02Z</time>
      </trkpt>
      <trkpt lat="44.45532" lon="3.56312">
        <ele>929</ele>
        <time>2022-05-27T07:15:03Z</time>
      </trkpt>
      <trkpt lat="44.45531" lon="3.56312">
        <ele>929</ele>
        <time>2022-05-27T07:15:04Z</time>
      </trkpt>
      <trkpt lat="44.4553" lon="3.56313">
        <ele>928</ele>
        <time>2022-05-27T07:15:05Z</time>
      </trkpt>
      <trkpt lat="44.45528" lon="3.56313">
        <ele>928</ele>
        <time>2022-05-27T07:15:06Z</time>
      </trkpt>
      <trkpt lat="44.45527" lon="3.56313">
        <ele>928</ele>
        <time>2022-05-27T07:15:07Z</time>
      </trkpt>
      <trkpt lat="44.45525" lon="3.56313">
        <ele>928</ele>
        <time>2022-05-27T07:15:08Z</time>
      </trkpt>
      <trkpt lat="44.45524" lon="3.56313">
        <ele>929</ele>
        <time>2022-05-27T07:15:09Z</time>
      </trkpt>
      <trkpt lat="44.45523" lon="3.56314">
        <ele>929</ele>
        <time>2022-05-27T07:15:10Z</time>
      </trkpt>
      <trkpt lat="44.45521" lon="3.56314">
        <ele>929</ele>
        <time>2022-05-27T07:15:11Z</time>
      </trkpt>
      <trkpt lat="44.4552" lon="3.56315">
        <ele>929</ele>
        <time>2022-05-27T07:15:12Z</time>
      </trkpt>
      <trkpt lat="44.45519" lon="3.56315">
        <ele>928</ele>
        <time>2022-05-27T07:15:13Z</time>
      </trkpt>
      <trkpt lat="44.45517" lon="3.56315">
        <ele>928</ele>
        <time>2022-05-27T07:15:14Z</time>
      </trkpt>
      <trkpt lat="44.45517" lon="3.56315">
        <ele>928</ele>
        <time>2022-05-27T07:15:14Z</time>
      </trkpt>
      <trkpt lat="44.45516" lon="3.56316">
        <ele>930</ele>
        <time>2022-05-27T07:15:16Z</time>
      </trkpt>
      <trkpt lat="44.45514" lon="3.56317">
        <ele>930</ele>
        <time>2022-05-27T07:15:17Z</time>
      </trkpt>
      <trkpt lat="44.45514" lon="3.56318">
        <ele>930</ele>
        <time>2022-05-27T07:15:18Z</time>
      </trkpt>
      <trkpt lat="44.45513" lon="3.56319">
        <ele>930</ele>
        <time>2022-05-27T07:15:19Z</time>
      </trkpt>
      <trkpt lat="44.45512" lon="3.56319">
        <ele>930</ele>
        <time>2022-05-27T07:15:20Z</time>
      </trkpt>
      <trkpt lat="44.45512" lon="3.56319">
        <ele>931</ele>
        <time>2022-05-27T07:15:21Z</time>
      </trkpt>
      <trkpt lat="44.45512" lon="3.5632">
        <ele>931</ele>
        <time>2022-05-27T07:15:22Z</time>
      </trkpt>
      <trkpt lat="44.4551" lon="3.5632">
        <ele>931</ele>
        <time>2022-05-27T07:15:23Z</time>
      </trkpt>
      <trkpt lat="44.45509" lon="3.56321">
        <ele>930</ele>
        <time>2022-05-27T07:15:24Z</time>
      </trkpt>
      <trkpt lat="44.45508" lon="3.56322">
        <ele>931</ele>
        <time>2022-05-27T07:15:25Z</time>
      </trkpt>
      <trkpt lat="44.45507" lon="3.56322">
        <ele>930</ele>
        <time>2022-05-27T07:15:26Z</time>
      </trkpt>
      <trkpt lat="44.45506" lon="3.56323">
        <ele>930</ele>
        <time>2022-05-27T07:15:27Z</time>
      </trkpt>
      <trkpt lat="44.45506" lon="3.56324">
        <ele>929</ele>
        <time>2022-05-27T07:15:28Z</time>
      </trkpt>
      <trkpt lat="44.45506" lon="3.56324">
        <ele>929</ele>
        <time>2022-05-27T07:15:29Z</time>
      </trkpt>
      <trkpt lat="44.45505" lon="3.56325">
        <ele>928</ele>
        <time>2022-05-27T07:15:30Z</time>
      </trkpt>
      <trkpt lat="44.45504" lon="3.56324">
        <ele>928</ele>
        <time>2022-05-27T07:15:31Z</time>
      </trkpt>
      <trkpt lat="44.45503" lon="3.56325">
        <ele>928</ele>
        <time>2022-05-27T07:15:32Z</time>
      </trkpt>
      <trkpt lat="44.45502" lon="3.56326">
        <ele>928</ele>
        <time>2022-05-27T07:15:33Z</time>
      </trkpt>
      <trkpt lat="44.45501" lon="3.56325">
        <ele>928</ele>
        <time>2022-05-27T07:15:34Z</time>
      </trkpt>
      <trkpt lat="44.45499" lon="3.56326">
        <ele>928</ele>
        <time>2022-05-27T07:15:35Z</time>
      </trkpt>
      <trkpt lat="44.45498" lon="3.56326">
        <ele>927</ele>
        <time>2022-05-27T07:15:36Z</time>
      </trkpt>
      <trkpt lat="44.45496" lon="3.56327">
        <ele>928</ele>
        <time>2022-05-27T07:15:37Z</time>
      </trkpt>
      <trkpt lat="44.45495" lon="3.56327">
        <ele>928</ele>
        <time>2022-05-27T07:15:38Z</time>
      </trkpt>
      <trkpt lat="44.45495" lon="3.56327">
        <ele>928</ele>
        <time>2022-05-27T07:15:39Z</time>
      </trkpt>
      <trkpt lat="44.45495" lon="3.56328">
        <ele>929</ele>
        <time>2022-05-27T07:15:40Z</time>
      </trkpt>
      <trkpt lat="44.45494" lon="3.5633">
        <ele>930</ele>
        <time>2022-05-27T07:15:41Z</time>
      </trkpt>
      <trkpt lat="44.45493" lon="3.56331">
        <ele>929</ele>
        <time>2022-05-27T07:15:42Z</time>
      </trkpt>
      <trkpt lat="44.45492" lon="3.56331">
        <ele>929</ele>
        <time>2022-05-27T07:15:43Z</time>
      </trkpt>
      <trkpt lat="44.4549" lon="3.56332">
        <ele>930</ele>
        <time>2022-05-27T07:15:44Z</time>
      </trkpt>
      <trkpt lat="44.4549" lon="3.56332">
        <ele>930</ele>
        <time>2022-05-27T07:15:45Z</time>
      </trkpt>
      <trkpt lat="44.45489" lon="3.56332">
        <ele>931</ele>
        <time>2022-05-27T07:15:46Z</time>
      </trkpt>
      <trkpt lat="44.45488" lon="3.56332">
        <ele>932</ele>
        <time>2022-05-27T07:15:47Z</time>
      </trkpt>
      <trkpt lat="44.45487" lon="3.56333">
        <ele>931</ele>
        <time>2022-05-27T07:15:48Z</time>
      </trkpt>
      <trkpt lat="44.45485" lon="3.56333">
        <ele>931</ele>
        <time>2022-05-27T07:15:49Z</time>
      </trkpt>
      <trkpt lat="44.45484" lon="3.56334">
        <ele>931</ele>
        <time>2022-05-27T07:15:50Z</time>
      </trkpt>
      <trkpt lat="44.45483" lon="3.56334">
        <ele>931</ele>
        <time>2022-05-27T07:15:51Z</time>
      </trkpt>
      <trkpt lat="44.45483" lon="3.56334">
        <ele>932</ele>
        <time>2022-05-27T07:15:52Z</time>
      </trkpt>
      <trkpt lat="44.45482" lon="3.56334">
        <ele>934</ele>
        <time>2022-05-27T07:15:53Z</time>
      </trkpt>
      <trkpt lat="44.4548" lon="3.56335">
        <ele>934</ele>
        <time>2022-05-27T07:15:54Z</time>
      </trkpt>
      <trkpt lat="44.45475" lon="3.56337">
        <ele>934</ele>
        <time>2022-05-27T07:15:56Z</time>
      </trkpt>
      <trkpt lat="44.45473" lon="3.56338">
        <ele>934</ele>
        <time>2022-05-27T07:15:58Z</time>
      </trkpt>
      <trkpt lat="44.45472" lon="3.56339">
        <ele>935</ele>
        <time>2022-05-27T07:15:59Z</time>
      </trkpt>
      <trkpt lat="44.45471" lon="3.56339">
        <ele>935</ele>
        <time>2022-05-27T07:16:00Z</time>
      </trkpt>
      <trkpt lat="44.4547" lon="3.5634">
        <ele>935</ele>
        <time>2022-05-27T07:16:01Z</time>
      </trkpt>
      <trkpt lat="44.45469" lon="3.5634">
        <ele>935</ele>
        <time>2022-05-27T07:16:02Z</time>
      </trkpt>
      <trkpt lat="44.45468" lon="3.5634">
        <ele>935</ele>
        <time>2022-05-27T07:16:03Z</time>
      </trkpt>
      <trkpt lat="44.45467" lon="3.5634">
        <ele>935</ele>
        <time>2022-05-27T07:16:04Z</time>
      </trkpt>
      <trkpt lat="44.45466" lon="3.56341">
        <ele>935</ele>
        <time>2022-05-27T07:16:05Z</time>
      </trkpt>
      <trkpt lat="44.45466" lon="3.56342">
        <ele>935</ele>
        <time>2022-05-27T07:16:06Z</time>
      </trkpt>
      <trkpt lat="44.45465" lon="3.56342">
        <ele>935</ele>
        <time>2022-05-27T07:16:07Z</time>
      </trkpt>
      <trkpt lat="44.45465" lon="3.56343">
        <ele>936</ele>
        <time>2022-05-27T07:16:08Z</time>
      </trkpt>
      <trkpt lat="44.45465" lon="3.56342">
        <ele>936</ele>
        <time>2022-05-27T07:16:09Z</time>
      </trkpt>
      <trkpt lat="44.45464" lon="3.56342">
        <ele>936</ele>
        <time>2022-05-27T07:16:10Z</time>
      </trkpt>
      <trkpt lat="44.45463" lon="3.56343">
        <ele>936</ele>
        <time>2022-05-27T07:16:11Z</time>
      </trkpt>
      <trkpt lat="44.45462" lon="3.56344">
        <ele>936</ele>
        <time>2022-05-27T07:16:12Z</time>
      </trkpt>
      <trkpt lat="44.45462" lon="3.56345">
        <ele>935</ele>
        <time>2022-05-27T07:16:13Z</time>
      </trkpt>
      <trkpt lat="44.45461" lon="3.56346">
        <ele>935</ele>
        <time>2022-05-27T07:16:14Z</time>
      </trkpt>
      <trkpt lat="44.4546" lon="3.56346">
        <ele>935</ele>
        <time>2022-05-27T07:16:15Z</time>
      </trkpt>
      <trkpt lat="44.45459" lon="3.56347">
        <ele>935</ele>
        <time>2022-05-27T07:16:16Z</time>
      </trkpt>
      <trkpt lat="44.45458" lon="3.56347">
        <ele>935</ele>
        <time>2022-05-27T07:16:17Z</time>
      </trkpt>
      <trkpt lat="44.45457" lon="3.56347">
        <ele>935</ele>
        <time>2022-05-27T07:16:18Z</time>
      </trkpt>
      <trkpt lat="44.45456" lon="3.56348">
        <ele>935</ele>
        <time>2022-05-27T07:16:19Z</time>
      </trkpt>
      <trkpt lat="44.45454" lon="3.56349">
        <ele>935</ele>
        <time>2022-05-27T07:16:20Z</time>
      </trkpt>
      <trkpt lat="44.45453" lon="3.56349">
        <ele>936</ele>
        <time>2022-05-27T07:16:21Z</time>
      </trkpt>
      <trkpt lat="44.45453" lon="3.5635">
        <ele>935</ele>
        <time>2022-05-27T07:16:22Z</time>
      </trkpt>
      <trkpt lat="44.45452" lon="3.56351">
        <ele>936</ele>
        <time>2022-05-27T07:16:23Z</time>
      </trkpt>
      <trkpt lat="44.4545" lon="3.56351">
        <ele>935</ele>
        <time>2022-05-27T07:16:24Z</time>
      </trkpt>
      <trkpt lat="44.45449" lon="3.56351">
        <ele>935</ele>
        <time>2022-05-27T07:16:25Z</time>
      </trkpt>
      <trkpt lat="44.45448" lon="3.56352">
        <ele>935</ele>
        <time>2022-05-27T07:16:26Z</time>
      </trkpt>
      <trkpt lat="44.45448" lon="3.56352">
        <ele>935</ele>
        <time>2022-05-27T07:16:27Z</time>
      </trkpt>
      <trkpt lat="44.45447" lon="3.56352">
        <ele>935</ele>
        <time>2022-05-27T07:16:28Z</time>
      </trkpt>
      <trkpt lat="44.45446" lon="3.56353">
        <ele>935</ele>
        <time>2022-05-27T07:16:29Z</time>
      </trkpt>
      <trkpt lat="44.45445" lon="3.56353">
        <ele>936</ele>
        <time>2022-05-27T07:16:30Z</time>
      </trkpt>
      <trkpt lat="44.45443" lon="3.56354">
        <ele>935</ele>
        <time>2022-05-27T07:16:31Z</time>
      </trkpt>
      <trkpt lat="44.45443" lon="3.56354">
        <ele>935</ele>
        <time>2022-05-27T07:16:32Z</time>
      </trkpt>
      <trkpt lat="44.45442" lon="3.56355">
        <ele>935</ele>
        <time>2022-05-27T07:16:33Z</time>
      </trkpt>
      <trkpt lat="44.45441" lon="3.56356">
        <ele>935</ele>
        <time>2022-05-27T07:16:34Z</time>
      </trkpt>
      <trkpt lat="44.4544" lon="3.56358">
        <ele>934</ele>
        <time>2022-05-27T07:16:35Z</time>
      </trkpt>
      <trkpt lat="44.4544" lon="3.56359">
        <ele>934</ele>
        <time>2022-05-27T07:16:36Z</time>
      </trkpt>
      <trkpt lat="44.45439" lon="3.5636">
        <ele>934</ele>
        <time>2022-05-27T07:16:37Z</time>
      </trkpt>
      <trkpt lat="44.45438" lon="3.56361">
        <ele>933</ele>
        <time>2022-05-27T07:16:38Z</time>
      </trkpt>
      <trkpt lat="44.45437" lon="3.56361">
        <ele>933</ele>
        <time>2022-05-27T07:16:39Z</time>
      </trkpt>
      <trkpt lat="44.45437" lon="3.56362">
        <ele>933</ele>
        <time>2022-05-27T07:16:40Z</time>
      </trkpt>
      <trkpt lat="44.45435" lon="3.56363">
        <ele>933</ele>
        <time>2022-05-27T07:16:41Z</time>
      </trkpt>
      <trkpt lat="44.45435" lon="3.56364">
        <ele>933</ele>
        <time>2022-05-27T07:16:42Z</time>
      </trkpt>
      <trkpt lat="44.45434" lon="3.56365">
        <ele>933</ele>
        <time>2022-05-27T07:16:43Z</time>
      </trkpt>
      <trkpt lat="44.45433" lon="3.56366">
        <ele>933</ele>
        <time>2022-05-27T07:16:44Z</time>
      </trkpt>
      <trkpt lat="44.45432" lon="3.56366">
        <ele>933</ele>
        <time>2022-05-27T07:16:45Z</time>
      </trkpt>
      <trkpt lat="44.45431" lon="3.56367">
        <ele>933</ele>
        <time>2022-05-27T07:16:46Z</time>
      </trkpt>
      <trkpt lat="44.4543" lon="3.56368">
        <ele>933</ele>
        <time>2022-05-27T07:16:47Z</time>
      </trkpt>
      <trkpt lat="44.4543" lon="3.56369">
        <ele>933</ele>
        <time>2022-05-27T07:16:48Z</time>
      </trkpt>
      <trkpt lat="44.45429" lon="3.5637">
        <ele>933</ele>
        <time>2022-05-27T07:16:49Z</time>
      </trkpt>
      <trkpt lat="44.45428" lon="3.5637">
        <ele>934</ele>
        <time>2022-05-27T07:16:50Z</time>
      </trkpt>
      <trkpt lat="44.45427" lon="3.56371">
        <ele>934</ele>
        <time>2022-05-27T07:16:51Z</time>
      </trkpt>
      <trkpt lat="44.45427" lon="3.56372">
        <ele>934</ele>
        <time>2022-05-27T07:16:52Z</time>
      </trkpt>
      <trkpt lat="44.45426" lon="3.56373">
        <ele>934</ele>
        <time>2022-05-27T07:16:53Z</time>
      </trkpt>
      <trkpt lat="44.45425" lon="3.56374">
        <ele>935</ele>
        <time>2022-05-27T07:16:54Z</time>
      </trkpt>
      <trkpt lat="44.45424" lon="3.56375">
        <ele>936</ele>
        <time>2022-05-27T07:16:55Z</time>
      </trkpt>
      <trkpt lat="44.45424" lon="3.56376">
        <ele>936</ele>
        <time>2022-05-27T07:16:56Z</time>
      </trkpt>
      <trkpt lat="44.45423" lon="3.56377">
        <ele>936</ele>
        <time>2022-05-27T07:16:57Z</time>
      </trkpt>
      <trkpt lat="44.45422" lon="3.56378">
        <ele>937</ele>
        <time>2022-05-27T07:16:58Z</time>
      </trkpt>
      <trkpt lat="44.45422" lon="3.56379">
        <ele>937</ele>
        <time>2022-05-27T07:16:59Z</time>
      </trkpt>
      <trkpt lat="44.45421" lon="3.5638">
        <ele>937</ele>
        <time>2022-05-27T07:17:00Z</time>
      </trkpt>
      <trkpt lat="44.45421" lon="3.56381">
        <ele>937</ele>
        <time>2022-05-27T07:17:01Z</time>
      </trkpt>
      <trkpt lat="44.4542" lon="3.56382">
        <ele>937</ele>
        <time>2022-05-27T07:17:02Z</time>
      </trkpt>
      <trkpt lat="44.45419" lon="3.56384">
        <ele>938</ele>
        <time>2022-05-27T07:17:03Z</time>
      </trkpt>
      <trkpt lat="44.45418" lon="3.56385">
        <ele>937</ele>
        <time>2022-05-27T07:17:04Z</time>
      </trkpt>
      <trkpt lat="44.45417" lon="3.56385">
        <ele>937</ele>
        <time>2022-05-27T07:17:05Z</time>
      </trkpt>
      <trkpt lat="44.45416" lon="3.56386">
        <ele>938</ele>
        <time>2022-05-27T07:17:06Z</time>
      </trkpt>
      <trkpt lat="44.45416" lon="3.56387">
        <ele>938</ele>
        <time>2022-05-27T07:17:07Z</time>
      </trkpt>
      <trkpt lat="44.45415" lon="3.56388">
        <ele>938</ele>
        <time>2022-05-27T07:17:08Z</time>
      </trkpt>
      <trkpt lat="44.45415" lon="3.56389">
        <ele>938</ele>
        <time>2022-05-27T07:17:09Z</time>
      </trkpt>
      <trkpt lat="44.45414" lon="3.5639">
        <ele>938</ele>
        <time>2022-05-27T07:17:10Z</time>
      </trkpt>
      <trkpt lat="44.45414" lon="3.56391">
        <ele>938</ele>
        <time>2022-05-27T07:17:11Z</time>
      </trkpt>
      <trkpt lat="44.45413" lon="3.56392">
        <ele>938</ele>
        <time>2022-05-27T07:17:12Z</time>
      </trkpt>
      <trkpt lat="44.45412" lon="3.56393">
        <ele>938</ele>
        <time>2022-05-27T07:17:13Z</time>
      </trkpt>
      <trkpt lat="44.45412" lon="3.56394">
        <ele>938</ele>
        <time>2022-05-27T07:17:14Z</time>
      </trkpt>
      <trkpt lat="44.45411" lon="3.56395">
        <ele>938</ele>
        <time>2022-05-27T07:17:15Z</time>
      </trkpt>
      <trkpt lat="44.4541" lon="3.56396">
        <ele>937</ele>
        <time>2022-05-27T07:17:16Z</time>
      </trkpt>
      <trkpt lat="44.45409" lon="3.56398">
        <ele>937</ele>
        <time>2022-05-27T07:17:17Z</time>
      </trkpt>
      <trkpt lat="44.45408" lon="3.56399">
        <ele>937</ele>
        <time>2022-05-27T07:17:18Z</time>
      </trkpt>
      <trkpt lat="44.45408" lon="3.564">
        <ele>937</ele>
        <time>2022-05-27T07:17:19Z</time>
      </trkpt>
      <trkpt lat="44.45407" lon="3.56401">
        <ele>937</ele>
        <time>2022-05-27T07:17:20Z</time>
      </trkpt>
      <trkpt lat="44.45406" lon="3.56402">
        <ele>937</ele>
        <time>2022-05-27T07:17:21Z</time>
      </trkpt>
      <trkpt lat="44.45406" lon="3.56403">
        <ele>937</ele>
        <time>2022-05-27T07:17:22Z</time>
      </trkpt>
      <trkpt lat="44.45405" lon="3.56403">
        <ele>937</ele>
        <time>2022-05-27T07:17:23Z</time>
      </trkpt>
      <trkpt lat="44.45404" lon="3.56404">
        <ele>937</ele>
        <time>2022-05-27T07:17:24Z</time>
      </trkpt>
      <trkpt lat="44.45404" lon="3.56405">
        <ele>937</ele>
        <time>2022-05-27T07:17:25Z</time>
      </trkpt>
      <trkpt lat="44.45404" lon="3.56406">
        <ele>937</ele>
        <time>2022-05-27T07:17:26Z</time>
      </trkpt>
      <trkpt lat="44.45404" lon="3.56406">
        <ele>938</ele>
        <time>2022-05-27T07:17:27Z</time>
      </trkpt>
      <trkpt lat="44.45404" lon="3.56407">
        <ele>938</ele>
        <time>2022-05-27T07:17:28Z</time>
      </trkpt>
      <trkpt lat="44.45403" lon="3.56407">
        <ele>938</ele>
        <time>2022-05-27T07:17:29Z</time>
      </trkpt>
      <trkpt lat="44.45403" lon="3.56407">
        <ele>938</ele>
        <time>2022-05-27T07:17:29Z</time>
      </trkpt>
      <trkpt lat="44.45402" lon="3.56409">
        <ele>939</ele>
        <time>2022-05-27T07:17:31Z</time>
      </trkpt>
      <trkpt lat="44.45402" lon="3.5641">
        <ele>939</ele>
        <time>2022-05-27T07:17:32Z</time>
      </trkpt>
      <trkpt lat="44.45401" lon="3.56412">
        <ele>940</ele>
        <time>2022-05-27T07:17:33Z</time>
      </trkpt>
      <trkpt lat="44.454" lon="3.56413">
        <ele>940</ele>
        <time>2022-05-27T07:17:34Z</time>
      </trkpt>
      <trkpt lat="44.45399" lon="3.56414">
        <ele>940</ele>
        <time>2022-05-27T07:17:35Z</time>
      </trkpt>
      <trkpt lat="44.45399" lon="3.56416">
        <ele>941</ele>
        <time>2022-05-27T07:17:36Z</time>
      </trkpt>
      <trkpt lat="44.45398" lon="3.56418">
        <ele>941</ele>
        <time>2022-05-27T07:17:37Z</time>
      </trkpt>
      <trkpt lat="44.45398" lon="3.56418">
        <ele>941</ele>
        <time>2022-05-27T07:17:38Z</time>
      </trkpt>
      <trkpt lat="44.45397" lon="3.5642">
        <ele>941</ele>
        <time>2022-05-27T07:17:39Z</time>
      </trkpt>
      <trkpt lat="44.45396" lon="3.56421">
        <ele>941</ele>
        <time>2022-05-27T07:17:40Z</time>
      </trkpt>
      <trkpt lat="44.45396" lon="3.56421">
        <ele>941</ele>
        <time>2022-05-27T07:17:41Z</time>
      </trkpt>
      <trkpt lat="44.45395" lon="3.56422">
        <ele>942</ele>
        <time>2022-05-27T07:17:42Z</time>
      </trkpt>
      <trkpt lat="44.45395" lon="3.56423">
        <ele>942</ele>
        <time>2022-05-27T07:17:43Z</time>
      </trkpt>
      <trkpt lat="44.45395" lon="3.56425">
        <ele>942</ele>
        <time>2022-05-27T07:17:44Z</time>
      </trkpt>
      <trkpt lat="44.45394" lon="3.56426">
        <ele>942</ele>
        <time>2022-05-27T07:17:45Z</time>
      </trkpt>
      <trkpt lat="44.45393" lon="3.56427">
        <ele>942</ele>
        <time>2022-05-27T07:17:46Z</time>
      </trkpt>
      <trkpt lat="44.45393" lon="3.56428">
        <ele>943</ele>
        <time>2022-05-27T07:17:47Z</time>
      </trkpt>
      <trkpt lat="44.45392" lon="3.56429">
        <ele>943</ele>
        <time>2022-05-27T07:17:48Z</time>
      </trkpt>
      <trkpt lat="44.45392" lon="3.5643">
        <ele>943</ele>
        <time>2022-05-27T07:17:49Z</time>
      </trkpt>
      <trkpt lat="44.45392" lon="3.56431">
        <ele>944</ele>
        <time>2022-05-27T07:17:50Z</time>
      </trkpt>
      <trkpt lat="44.4539" lon="3.56431">
        <ele>943</ele>
        <time>2022-05-27T07:17:51Z</time>
      </trkpt>
      <trkpt lat="44.4539" lon="3.56432">
        <ele>943</ele>
        <time>2022-05-27T07:17:52Z</time>
      </trkpt>
      <trkpt lat="44.45389" lon="3.56433">
        <ele>943</ele>
        <time>2022-05-27T07:17:53Z</time>
      </trkpt>
      <trkpt lat="44.45389" lon="3.56434">
        <ele>943</ele>
        <time>2022-05-27T07:17:54Z</time>
      </trkpt>
      <trkpt lat="44.45388" lon="3.56435">
        <ele>943</ele>
        <time>2022-05-27T07:17:55Z</time>
      </trkpt>
      <trkpt lat="44.45388" lon="3.56436">
        <ele>943</ele>
        <time>2022-05-27T07:17:56Z</time>
      </trkpt>
      <trkpt lat="44.45387" lon="3.56437">
        <ele>943</ele>
        <time>2022-05-27T07:17:57Z</time>
      </trkpt>
      <trkpt lat="44.45387" lon="3.56439">
        <ele>944</ele>
        <time>2022-05-27T07:17:58Z</time>
      </trkpt>
      <trkpt lat="44.45386" lon="3.5644">
        <ele>944</ele>
        <time>2022-05-27T07:17:59Z</time>
      </trkpt>
      <trkpt lat="44.45386" lon="3.56441">
        <ele>945</ele>
        <time>2022-05-27T07:18:00Z</time>
      </trkpt>
      <trkpt lat="44.45385" lon="3.56442">
        <ele>945</ele>
        <time>2022-05-27T07:18:01Z</time>
      </trkpt>
      <trkpt lat="44.45384" lon="3.56443">
        <ele>945</ele>
        <time>2022-05-27T07:18:02Z</time>
      </trkpt>
      <trkpt lat="44.45384" lon="3.56444">
        <ele>946</ele>
        <time>2022-05-27T07:18:03Z</time>
      </trkpt>
      <trkpt lat="44.45384" lon="3.56444">
        <ele>946</ele>
        <time>2022-05-27T07:18:04Z</time>
      </trkpt>
      <trkpt lat="44.45383" lon="3.56446">
        <ele>946</ele>
        <time>2022-05-27T07:18:05Z</time>
      </trkpt>
      <trkpt lat="44.45382" lon="3.56447">
        <ele>947</ele>
        <time>2022-05-27T07:18:06Z</time>
      </trkpt>
      <trkpt lat="44.45382" lon="3.56448">
        <ele>946</ele>
        <time>2022-05-27T07:18:07Z</time>
      </trkpt>
      <trkpt lat="44.45381" lon="3.56449">
        <ele>946</ele>
        <time>2022-05-27T07:18:08Z</time>
      </trkpt>
      <trkpt lat="44.4538" lon="3.56451">
        <ele>947</ele>
        <time>2022-05-27T07:18:09Z</time>
      </trkpt>
      <trkpt lat="44.4538" lon="3.56452">
        <ele>947</ele>
        <time>2022-05-27T07:18:10Z</time>
      </trkpt>
      <trkpt lat="44.45379" lon="3.56453">
        <ele>947</ele>
        <time>2022-05-27T07:18:11Z</time>
      </trkpt>
      <trkpt lat="44.45379" lon="3.56455">
        <ele>947</ele>
        <time>2022-05-27T07:18:12Z</time>
      </trkpt>
      <trkpt lat="44.45379" lon="3.56456">
        <ele>948</ele>
        <time>2022-05-27T07:18:13Z</time>
      </trkpt>
      <trkpt lat="44.45378" lon="3.56457">
        <ele>948</ele>
        <time>2022-05-27T07:18:14Z</time>
      </trkpt>
      <trkpt lat="44.45378" lon="3.56458">
        <ele>948</ele>
        <time>2022-05-27T07:18:15Z</time>
      </trkpt>
      <trkpt lat="44.45377" lon="3.5646">
        <ele>948</ele>
        <time>2022-05-27T07:18:16Z</time>
      </trkpt>
      <trkpt lat="44.45377" lon="3.56461">
        <ele>947</ele>
        <time>2022-05-27T07:18:17Z</time>
      </trkpt>
      <trkpt lat="44.45377" lon="3.56462">
        <ele>948</ele>
        <time>2022-05-27T07:18:18Z</time>
      </trkpt>
      <trkpt lat="44.45377" lon="3.56464">
        <ele>948</ele>
        <time>2022-05-27T07:18:19Z</time>
      </trkpt>
      <trkpt lat="44.45377" lon="3.56465">
        <ele>948</ele>
        <time>2022-05-27T07:18:20Z</time>
      </trkpt>
      <trkpt lat="44.45376" lon="3.56467">
        <ele>948</ele>
        <time>2022-05-27T07:18:21Z</time>
      </trkpt>
      <trkpt lat="44.45376" lon="3.56468">
        <ele>948</ele>
        <time>2022-05-27T07:18:22Z</time>
      </trkpt>
      <trkpt lat="44.45375" lon="3.56469">
        <ele>949</ele>
        <time>2022-05-27T07:18:23Z</time>
      </trkpt>
      <trkpt lat="44.45375" lon="3.5647">
        <ele>950</ele>
        <time>2022-05-27T07:18:24Z</time>
      </trkpt>
      <trkpt lat="44.45374" lon="3.56472">
        <ele>951</ele>
        <time>2022-05-27T07:18:25Z</time>
      </trkpt>
      <trkpt lat="44.45374" lon="3.56473">
        <ele>951</ele>
        <time>2022-05-27T07:18:26Z</time>
      </trkpt>
      <trkpt lat="44.45373" lon="3.56474">
        <ele>952</ele>
        <time>2022-05-27T07:18:27Z</time>
      </trkpt>
      <trkpt lat="44.45373" lon="3.56475">
        <ele>952</ele>
        <time>2022-05-27T07:18:28Z</time>
      </trkpt>
      <trkpt lat="44.45372" lon="3.56476">
        <ele>952</ele>
        <time>2022-05-27T07:18:29Z</time>
      </trkpt>
      <trkpt lat="44.45372" lon="3.56478">
        <ele>953</ele>
        <time>2022-05-27T07:18:30Z</time>
      </trkpt>
      <trkpt lat="44.45372" lon="3.56479">
        <ele>953</ele>
        <time>2022-05-27T07:18:31Z</time>
      </trkpt>
      <trkpt lat="44.45371" lon="3.5648">
        <ele>953</ele>
        <time>2022-05-27T07:18:32Z</time>
      </trkpt>
      <trkpt lat="44.45371" lon="3.56481">
        <ele>954</ele>
        <time>2022-05-27T07:18:33Z</time>
      </trkpt>
      <trkpt lat="44.4537" lon="3.56482">
        <ele>954</ele>
        <time>2022-05-27T07:18:34Z</time>
      </trkpt>
      <trkpt lat="44.45369" lon="3.56484">
        <ele>955</ele>
        <time>2022-05-27T07:18:35Z</time>
      </trkpt>
      <trkpt lat="44.45369" lon="3.56485">
        <ele>955</ele>
        <time>2022-05-27T07:18:36Z</time>
      </trkpt>
      <trkpt lat="44.45369" lon="3.56486">
        <ele>956</ele>
        <time>2022-05-27T07:18:37Z</time>
      </trkpt>
      <trkpt lat="44.45368" lon="3.56488">
        <ele>956</ele>
        <time>2022-05-27T07:18:38Z</time>
      </trkpt>
      <trkpt lat="44.45367" lon="3.56489">
        <ele>956</ele>
        <time>2022-05-27T07:18:39Z</time>
      </trkpt>
      <trkpt lat="44.45367" lon="3.5649">
        <ele>956</ele>
        <time>2022-05-27T07:18:40Z</time>
      </trkpt>
      <trkpt lat="44.45366" lon="3.56491">
        <ele>956</ele>
        <time>2022-05-27T07:18:41Z</time>
      </trkpt>
      <trkpt lat="44.45366" lon="3.56492">
        <ele>956</ele>
        <time>2022-05-27T07:18:42Z</time>
      </trkpt>
      <trkpt lat="44.45366" lon="3.56494">
        <ele>957</ele>
        <time>2022-05-27T07:18:43Z</time>
      </trkpt>
      <trkpt lat="44.45365" lon="3.56495">
        <ele>957</ele>
        <time>2022-05-27T07:18:44Z</time>
      </trkpt>
      <trkpt lat="44.45365" lon="3.56496">
        <ele>957</ele>
        <time>2022-05-27T07:18:45Z</time>
      </trkpt>
      <trkpt lat="44.45364" lon="3.56497">
        <ele>957</ele>
        <time>2022-05-27T07:18:46Z</time>
      </trkpt>
      <trkpt lat="44.45364" lon="3.56498">
        <ele>957</ele>
        <time>2022-05-27T07:18:47Z</time>
      </trkpt>
      <trkpt lat="44.45364" lon="3.56499">
        <ele>957</ele>
        <time>2022-05-27T07:18:48Z</time>
      </trkpt>
      <trkpt lat="44.45364" lon="3.565">
        <ele>958</ele>
        <time>2022-05-27T07:18:49Z</time>
      </trkpt>
      <trkpt lat="44.45363" lon="3.56501">
        <ele>959</ele>
        <time>2022-05-27T07:18:50Z</time>
      </trkpt>
      <trkpt lat="44.45362" lon="3.56503">
        <ele>959</ele>
        <time>2022-05-27T07:18:51Z</time>
      </trkpt>
      <trkpt lat="44.45362" lon="3.56505">
        <ele>960</ele>
        <time>2022-05-27T07:18:52Z</time>
      </trkpt>
      <trkpt lat="44.45361" lon="3.56506">
        <ele>960</ele>
        <time>2022-05-27T07:18:53Z</time>
      </trkpt>
      <trkpt lat="44.45361" lon="3.56507">
        <ele>960</ele>
        <time>2022-05-27T07:18:54Z</time>
      </trkpt>
      <trkpt lat="44.45361" lon="3.56508">
        <ele>961</ele>
        <time>2022-05-27T07:18:55Z</time>
      </trkpt>
      <trkpt lat="44.4536" lon="3.56509">
        <ele>961</ele>
        <time>2022-05-27T07:18:56Z</time>
      </trkpt>
      <trkpt lat="44.4536" lon="3.5651">
        <ele>961</ele>
        <time>2022-05-27T07:18:57Z</time>
      </trkpt>
      <trkpt lat="44.45359" lon="3.56511">
        <ele>962</ele>
        <time>2022-05-27T07:18:58Z</time>
      </trkpt>
      <trkpt lat="44.45359" lon="3.56512">
        <ele>962</ele>
        <time>2022-05-27T07:18:59Z</time>
      </trkpt>
      <trkpt lat="44.45359" lon="3.56513">
        <ele>962</ele>
        <time>2022-05-27T07:19:00Z</time>
      </trkpt>
      <trkpt lat="44.45359" lon="3.56514">
        <ele>962</ele>
        <time>2022-05-27T07:19:01Z</time>
      </trkpt>
      <trkpt lat="44.45358" lon="3.56515">
        <ele>962</ele>
        <time>2022-05-27T07:19:02Z</time>
      </trkpt>
      <trkpt lat="44.45358" lon="3.56516">
        <ele>962</ele>
        <time>2022-05-27T07:19:03Z</time>
      </trkpt>
      <trkpt lat="44.45358" lon="3.56518">
        <ele>962</ele>
        <time>2022-05-27T07:19:04Z</time>
      </trkpt>
      <trkpt lat="44.45358" lon="3.56519">
        <ele>962</ele>
        <time>2022-05-27T07:19:05Z</time>
      </trkpt>
      <trkpt lat="44.45357" lon="3.5652">
        <ele>962</ele>
        <time>2022-05-27T07:19:06Z</time>
      </trkpt>
      <trkpt lat="44.45356" lon="3.56521">
        <ele>962</ele>
        <time>2022-05-27T07:19:07Z</time>
      </trkpt>
      <trkpt lat="44.45356" lon="3.56521">
        <ele>963</ele>
        <time>2022-05-27T07:19:08Z</time>
      </trkpt>
      <trkpt lat="44.45355" lon="3.56523">
        <ele>963</ele>
        <time>2022-05-27T07:19:09Z</time>
      </trkpt>
      <trkpt lat="44.45355" lon="3.56524">
        <ele>963</ele>
        <time>2022-05-27T07:19:10Z</time>
      </trkpt>
      <trkpt lat="44.45354" lon="3.56525">
        <ele>963</ele>
        <time>2022-05-27T07:19:11Z</time>
      </trkpt>
      <trkpt lat="44.45354" lon="3.56526">
        <ele>963</ele>
        <time>2022-05-27T07:19:12Z</time>
      </trkpt>
      <trkpt lat="44.45353" lon="3.56527">
        <ele>963</ele>
        <time>2022-05-27T07:19:13Z</time>
      </trkpt>
      <trkpt lat="44.45353" lon="3.56528">
        <ele>963</ele>
        <time>2022-05-27T07:19:14Z</time>
      </trkpt>
      <trkpt lat="44.45351" lon="3.56529">
        <ele>965</ele>
        <time>2022-05-27T07:19:15Z</time>
      </trkpt>
      <trkpt lat="44.45351" lon="3.5653">
        <ele>965</ele>
        <time>2022-05-27T07:19:16Z</time>
      </trkpt>
      <trkpt lat="44.4535" lon="3.56531">
        <ele>965</ele>
        <time>2022-05-27T07:19:17Z</time>
      </trkpt>
      <trkpt lat="44.4535" lon="3.56532">
        <ele>966</ele>
        <time>2022-05-27T07:19:18Z</time>
      </trkpt>
      <trkpt lat="44.45349" lon="3.56533">
        <ele>966</ele>
        <time>2022-05-27T07:19:19Z</time>
      </trkpt>
      <trkpt lat="44.45348" lon="3.56535">
        <ele>966</ele>
        <time>2022-05-27T07:19:20Z</time>
      </trkpt>
      <trkpt lat="44.45348" lon="3.56536">
        <ele>966</ele>
        <time>2022-05-27T07:19:21Z</time>
      </trkpt>
      <trkpt lat="44.45347" lon="3.56537">
        <ele>967</ele>
        <time>2022-05-27T07:19:22Z</time>
      </trkpt>
      <trkpt lat="44.45346" lon="3.56538">
        <ele>968</ele>
        <time>2022-05-27T07:19:23Z</time>
      </trkpt>
      <trkpt lat="44.45345" lon="3.56539">
        <ele>968</ele>
        <time>2022-05-27T07:19:24Z</time>
      </trkpt>
      <trkpt lat="44.45345" lon="3.5654">
        <ele>968</ele>
        <time>2022-05-27T07:19:25Z</time>
      </trkpt>
      <trkpt lat="44.45344" lon="3.56541">
        <ele>968</ele>
        <time>2022-05-27T07:19:26Z</time>
      </trkpt>
      <trkpt lat="44.45343" lon="3.56541">
        <ele>968</ele>
        <time>2022-05-27T07:19:27Z</time>
      </trkpt>
      <trkpt lat="44.45342" lon="3.56542">
        <ele>969</ele>
        <time>2022-05-27T07:19:28Z</time>
      </trkpt>
      <trkpt lat="44.45342" lon="3.56542">
        <ele>969</ele>
        <time>2022-05-27T07:19:28Z</time>
      </trkpt>
      <trkpt lat="44.45341" lon="3.56545">
        <ele>969</ele>
        <time>2022-05-27T07:19:30Z</time>
      </trkpt>
      <trkpt lat="44.4534" lon="3.56546">
        <ele>969</ele>
        <time>2022-05-27T07:19:31Z</time>
      </trkpt>
      <trkpt lat="44.45339" lon="3.56547">
        <ele>969</ele>
        <time>2022-05-27T07:19:32Z</time>
      </trkpt>
      <trkpt lat="44.45338" lon="3.56547">
        <ele>969</ele>
        <time>2022-05-27T07:19:33Z</time>
      </trkpt>
      <trkpt lat="44.45337" lon="3.56548">
        <ele>969</ele>
        <time>2022-05-27T07:19:34Z</time>
      </trkpt>
      <trkpt lat="44.45337" lon="3.56549">
        <ele>970</ele>
        <time>2022-05-27T07:19:35Z</time>
      </trkpt>
      <trkpt lat="44.45336" lon="3.5655">
        <ele>970</ele>
        <time>2022-05-27T07:19:36Z</time>
      </trkpt>
      <trkpt lat="44.45335" lon="3.56551">
        <ele>970</ele>
        <time>2022-05-27T07:19:37Z</time>
      </trkpt>
      <trkpt lat="44.45334" lon="3.56552">
        <ele>970</ele>
        <time>2022-05-27T07:19:38Z</time>
      </trkpt>
      <trkpt lat="44.45333" lon="3.56553">
        <ele>971</ele>
        <time>2022-05-27T07:19:39Z</time>
      </trkpt>
      <trkpt lat="44.45332" lon="3.56553">
        <ele>971</ele>
        <time>2022-05-27T07:19:40Z</time>
      </trkpt>
      <trkpt lat="44.45331" lon="3.56555">
        <ele>971</ele>
        <time>2022-05-27T07:19:41Z</time>
      </trkpt>
      <trkpt lat="44.4533" lon="3.56556">
        <ele>971</ele>
        <time>2022-05-27T07:19:42Z</time>
      </trkpt>
      <trkpt lat="44.4533" lon="3.56557">
        <ele>971</ele>
        <time>2022-05-27T07:19:43Z</time>
      </trkpt>
      <trkpt lat="44.45329" lon="3.56558">
        <ele>972</ele>
        <time>2022-05-27T07:19:44Z</time>
      </trkpt>
      <trkpt lat="44.45329" lon="3.56559">
        <ele>971</ele>
        <time>2022-05-27T07:19:45Z</time>
      </trkpt>
      <trkpt lat="44.45328" lon="3.5656">
        <ele>972</ele>
        <time>2022-05-27T07:19:46Z</time>
      </trkpt>
      <trkpt lat="44.45327" lon="3.5656">
        <ele>971</ele>
        <time>2022-05-27T07:19:47Z</time>
      </trkpt>
      <trkpt lat="44.45326" lon="3.56561">
        <ele>971</ele>
        <time>2022-05-27T07:19:48Z</time>
      </trkpt>
      <trkpt lat="44.45325" lon="3.56561">
        <ele>970</ele>
        <time>2022-05-27T07:19:49Z</time>
      </trkpt>
      <trkpt lat="44.45324" lon="3.56562">
        <ele>971</ele>
        <time>2022-05-27T07:19:50Z</time>
      </trkpt>
      <trkpt lat="44.45323" lon="3.56563">
        <ele>971</ele>
        <time>2022-05-27T07:19:51Z</time>
      </trkpt>
      <trkpt lat="44.45322" lon="3.56564">
        <ele>972</ele>
        <time>2022-05-27T07:19:52Z</time>
      </trkpt>
      <trkpt lat="44.45321" lon="3.56564">
        <ele>972</ele>
        <time>2022-05-27T07:19:53Z</time>
      </trkpt>
      <trkpt lat="44.45321" lon="3.56565">
        <ele>973</ele>
        <time>2022-05-27T07:19:54Z</time>
      </trkpt>
      <trkpt lat="44.4532" lon="3.56566">
        <ele>973</ele>
        <time>2022-05-27T07:19:55Z</time>
      </trkpt>
      <trkpt lat="44.45319" lon="3.56568">
        <ele>973</ele>
        <time>2022-05-27T07:19:56Z</time>
      </trkpt>
      <trkpt lat="44.45318" lon="3.56568">
        <ele>972</ele>
        <time>2022-05-27T07:19:57Z</time>
      </trkpt>
      <trkpt lat="44.45318" lon="3.56569">
        <ele>972</ele>
        <time>2022-05-27T07:19:58Z</time>
      </trkpt>
      <trkpt lat="44.45317" lon="3.5657">
        <ele>972</ele>
        <time>2022-05-27T07:19:59Z</time>
      </trkpt>
      <trkpt lat="44.45316" lon="3.56571">
        <ele>972</ele>
        <time>2022-05-27T07:20:00Z</time>
      </trkpt>
      <trkpt lat="44.45315" lon="3.56571">
        <ele>972</ele>
        <time>2022-05-27T07:20:01Z</time>
      </trkpt>
      <trkpt lat="44.45314" lon="3.56572">
        <ele>972</ele>
        <time>2022-05-27T07:20:02Z</time>
      </trkpt>
      <trkpt lat="44.45314" lon="3.56572">
        <ele>973</ele>
        <time>2022-05-27T07:20:03Z</time>
      </trkpt>
      <trkpt lat="44.45313" lon="3.56573">
        <ele>973</ele>
        <time>2022-05-27T07:20:04Z</time>
      </trkpt>
      <trkpt lat="44.45312" lon="3.56574">
        <ele>973</ele>
        <time>2022-05-27T07:20:05Z</time>
      </trkpt>
      <trkpt lat="44.45311" lon="3.56574">
        <ele>973</ele>
        <time>2022-05-27T07:20:06Z</time>
      </trkpt>
      <trkpt lat="44.4531" lon="3.56575">
        <ele>973</ele>
        <time>2022-05-27T07:20:07Z</time>
      </trkpt>
      <trkpt lat="44.45309" lon="3.56576">
        <ele>973</ele>
        <time>2022-05-27T07:20:08Z</time>
      </trkpt>
      <trkpt lat="44.45308" lon="3.56576">
        <ele>974</ele>
        <time>2022-05-27T07:20:09Z</time>
      </trkpt>
      <trkpt lat="44.45307" lon="3.56577">
        <ele>974</ele>
        <time>2022-05-27T07:20:10Z</time>
      </trkpt>
      <trkpt lat="44.45306" lon="3.56578">
        <ele>974</ele>
        <time>2022-05-27T07:20:11Z</time>
      </trkpt>
      <trkpt lat="44.45305" lon="3.56579">
        <ele>974</ele>
        <time>2022-05-27T07:20:12Z</time>
      </trkpt>
      <trkpt lat="44.45304" lon="3.5658">
        <ele>974</ele>
        <time>2022-05-27T07:20:13Z</time>
      </trkpt>
      <trkpt lat="44.45303" lon="3.56581">
        <ele>974</ele>
        <time>2022-05-27T07:20:14Z</time>
      </trkpt>
      <trkpt lat="44.45302" lon="3.56581">
        <ele>974</ele>
        <time>2022-05-27T07:20:15Z</time>
      </trkpt>
      <trkpt lat="44.45301" lon="3.56582">
        <ele>974</ele>
        <time>2022-05-27T07:20:16Z</time>
      </trkpt>
      <trkpt lat="44.453" lon="3.56583">
        <ele>974</ele>
        <time>2022-05-27T07:20:17Z</time>
      </trkpt>
      <trkpt lat="44.45299" lon="3.56583">
        <ele>974</ele>
        <time>2022-05-27T07:20:18Z</time>
      </trkpt>
      <trkpt lat="44.45298" lon="3.56584">
        <ele>974</ele>
        <time>2022-05-27T07:20:19Z</time>
      </trkpt>
      <trkpt lat="44.45297" lon="3.56585">
        <ele>974</ele>
        <time>2022-05-27T07:20:20Z</time>
      </trkpt>
      <trkpt lat="44.45297" lon="3.56586">
        <ele>974</ele>
        <time>2022-05-27T07:20:21Z</time>
      </trkpt>
      <trkpt lat="44.45296" lon="3.56586">
        <ele>973</ele>
        <time>2022-05-27T07:20:22Z</time>
      </trkpt>
      <trkpt lat="44.45295" lon="3.56587">
        <ele>973</ele>
        <time>2022-05-27T07:20:23Z</time>
      </trkpt>
      <trkpt lat="44.45294" lon="3.56589">
        <ele>973</ele>
        <time>2022-05-27T07:20:24Z</time>
      </trkpt>
      <trkpt lat="44.45294" lon="3.56589">
        <ele>974</ele>
        <time>2022-05-27T07:20:25Z</time>
      </trkpt>
      <trkpt lat="44.45293" lon="3.5659">
        <ele>974</ele>
        <time>2022-05-27T07:20:26Z</time>
      </trkpt>
      <trkpt lat="44.45292" lon="3.56591">
        <ele>974</ele>
        <time>2022-05-27T07:20:27Z</time>
      </trkpt>
      <trkpt lat="44.45291" lon="3.56592">
        <ele>975</ele>
        <time>2022-05-27T07:20:28Z</time>
      </trkpt>
      <trkpt lat="44.4529" lon="3.56593">
        <ele>974</ele>
        <time>2022-05-27T07:20:29Z</time>
      </trkpt>
      <trkpt lat="44.45289" lon="3.56595">
        <ele>974</ele>
        <time>2022-05-27T07:20:30Z</time>
      </trkpt>
      <trkpt lat="44.45289" lon="3.56595">
        <ele>974</ele>
        <time>2022-05-27T07:20:31Z</time>
      </trkpt>
      <trkpt lat="44.45288" lon="3.56596">
        <ele>973</ele>
        <time>2022-05-27T07:20:32Z</time>
      </trkpt>
      <trkpt lat="44.45287" lon="3.56597">
        <ele>974</ele>
        <time>2022-05-27T07:20:33Z</time>
      </trkpt>
      <trkpt lat="44.45287" lon="3.56597">
        <ele>973</ele>
        <time>2022-05-27T07:20:34Z</time>
      </trkpt>
      <trkpt lat="44.45286" lon="3.56598">
        <ele>973</ele>
        <time>2022-05-27T07:20:35Z</time>
      </trkpt>
      <trkpt lat="44.45285" lon="3.56599">
        <ele>974</ele>
        <time>2022-05-27T07:20:36Z</time>
      </trkpt>
      <trkpt lat="44.45284" lon="3.566">
        <ele>974</ele>
        <time>2022-05-27T07:20:37Z</time>
      </trkpt>
      <trkpt lat="44.45283" lon="3.56601">
        <ele>974</ele>
        <time>2022-05-27T07:20:38Z</time>
      </trkpt>
      <trkpt lat="44.45282" lon="3.56602">
        <ele>974</ele>
        <time>2022-05-27T07:20:39Z</time>
      </trkpt>
      <trkpt lat="44.45281" lon="3.56603">
        <ele>974</ele>
        <time>2022-05-27T07:20:40Z</time>
      </trkpt>
      <trkpt lat="44.4528" lon="3.56604">
        <ele>974</ele>
        <time>2022-05-27T07:20:41Z</time>
      </trkpt>
      <trkpt lat="44.45279" lon="3.56605">
        <ele>974</ele>
        <time>2022-05-27T07:20:42Z</time>
      </trkpt>
      <trkpt lat="44.45278" lon="3.56606">
        <ele>975</ele>
        <time>2022-05-27T07:20:43Z</time>
      </trkpt>
      <trkpt lat="44.45277" lon="3.56607">
        <ele>975</ele>
        <time>2022-05-27T07:20:44Z</time>
      </trkpt>
      <trkpt lat="44.45276" lon="3.56608">
        <ele>976</ele>
        <time>2022-05-27T07:20:45Z</time>
      </trkpt>
      <trkpt lat="44.45276" lon="3.56609">
        <ele>976</ele>
        <time>2022-05-27T07:20:46Z</time>
      </trkpt>
      <trkpt lat="44.45275" lon="3.56611">
        <ele>976</ele>
        <time>2022-05-27T07:20:47Z</time>
      </trkpt>
      <trkpt lat="44.45274" lon="3.56612">
        <ele>977</ele>
        <time>2022-05-27T07:20:48Z</time>
      </trkpt>
      <trkpt lat="44.45272" lon="3.56613">
        <ele>977</ele>
        <time>2022-05-27T07:20:49Z</time>
      </trkpt>
      <trkpt lat="44.45272" lon="3.56614">
        <ele>977</ele>
        <time>2022-05-27T07:20:50Z</time>
      </trkpt>
      <trkpt lat="44.45271" lon="3.56615">
        <ele>977</ele>
        <time>2022-05-27T07:20:51Z</time>
      </trkpt>
      <trkpt lat="44.4527" lon="3.56616">
        <ele>977</ele>
        <time>2022-05-27T07:20:52Z</time>
      </trkpt>
      <trkpt lat="44.4527" lon="3.56617">
        <ele>978</ele>
        <time>2022-05-27T07:20:53Z</time>
      </trkpt>
      <trkpt lat="44.45269" lon="3.56617">
        <ele>978</ele>
        <time>2022-05-27T07:20:54Z</time>
      </trkpt>
      <trkpt lat="44.45268" lon="3.56618">
        <ele>978</ele>
        <time>2022-05-27T07:20:55Z</time>
      </trkpt>
      <trkpt lat="44.45268" lon="3.5662">
        <ele>977</ele>
        <time>2022-05-27T07:20:56Z</time>
      </trkpt>
      <trkpt lat="44.45267" lon="3.5662">
        <ele>977</ele>
        <time>2022-05-27T07:20:57Z</time>
      </trkpt>
      <trkpt lat="44.45267" lon="3.56621">
        <ele>978</ele>
        <time>2022-05-27T07:20:58Z</time>
      </trkpt>
      <trkpt lat="44.45266" lon="3.56623">
        <ele>979</ele>
        <time>2022-05-27T07:20:59Z</time>
      </trkpt>
      <trkpt lat="44.45265" lon="3.56624">
        <ele>979</ele>
        <time>2022-05-27T07:21:00Z</time>
      </trkpt>
      <trkpt lat="44.45264" lon="3.56625">
        <ele>979</ele>
        <time>2022-05-27T07:21:01Z</time>
      </trkpt>
      <trkpt lat="44.45263" lon="3.56626">
        <ele>979</ele>
        <time>2022-05-27T07:21:02Z</time>
      </trkpt>
      <trkpt lat="44.45262" lon="3.56627">
        <ele>979</ele>
        <time>2022-05-27T07:21:03Z</time>
      </trkpt>
      <trkpt lat="44.45262" lon="3.56628">
        <ele>979</ele>
        <time>2022-05-27T07:21:04Z</time>
      </trkpt>
      <trkpt lat="44.45261" lon="3.56629">
        <ele>979</ele>
        <time>2022-05-27T07:21:05Z</time>
      </trkpt>
      <trkpt lat="44.4526" lon="3.5663">
        <ele>980</ele>
        <time>2022-05-27T07:21:06Z</time>
      </trkpt>
      <trkpt lat="44.4526" lon="3.56631">
        <ele>980</ele>
        <time>2022-05-27T07:21:07Z</time>
      </trkpt>
      <trkpt lat="44.45259" lon="3.56632">
        <ele>980</ele>
        <time>2022-05-27T07:21:08Z</time>
      </trkpt>
      <trkpt lat="44.45258" lon="3.56633">
        <ele>980</ele>
        <time>2022-05-27T07:21:09Z</time>
      </trkpt>
      <trkpt lat="44.45258" lon="3.56634">
        <ele>980</ele>
        <time>2022-05-27T07:21:10Z</time>
      </trkpt>
      <trkpt lat="44.45257" lon="3.56635">
        <ele>980</ele>
        <time>2022-05-27T07:21:11Z</time>
      </trkpt>
      <trkpt lat="44.45256" lon="3.56636">
        <ele>980</ele>
        <time>2022-05-27T07:21:12Z</time>
      </trkpt>
      <trkpt lat="44.45256" lon="3.56637">
        <ele>980</ele>
        <time>2022-05-27T07:21:13Z</time>
      </trkpt>
      <trkpt lat="44.45255" lon="3.56638">
        <ele>980</ele>
        <time>2022-05-27T07:21:14Z</time>
      </trkpt>
      <trkpt lat="44.45254" lon="3.5664">
        <ele>980</ele>
        <time>2022-05-27T07:21:15Z</time>
      </trkpt>
      <trkpt lat="44.45253" lon="3.56641">
        <ele>980</ele>
        <time>2022-05-27T07:21:16Z</time>
      </trkpt>
      <trkpt lat="44.45253" lon="3.56642">
        <ele>980</ele>
        <time>2022-05-27T07:21:17Z</time>
      </trkpt>
      <trkpt lat="44.45252" lon="3.56643">
        <ele>980</ele>
        <time>2022-05-27T07:21:18Z</time>
      </trkpt>
      <trkpt lat="44.45252" lon="3.56644">
        <ele>981</ele>
        <time>2022-05-27T07:21:19Z</time>
      </trkpt>
      <trkpt lat="44.4525" lon="3.56645">
        <ele>981</ele>
        <time>2022-05-27T07:21:20Z</time>
      </trkpt>
      <trkpt lat="44.4525" lon="3.56646">
        <ele>981</ele>
        <time>2022-05-27T07:21:21Z</time>
      </trkpt>
      <trkpt lat="44.4525" lon="3.56647">
        <ele>982</ele>
        <time>2022-05-27T07:21:22Z</time>
      </trkpt>
      <trkpt lat="44.45249" lon="3.56648">
        <ele>982</ele>
        <time>2022-05-27T07:21:23Z</time>
      </trkpt>
      <trkpt lat="44.45248" lon="3.56649">
        <ele>982</ele>
        <time>2022-05-27T07:21:24Z</time>
      </trkpt>
      <trkpt lat="44.45247" lon="3.56651">
        <ele>982</ele>
        <time>2022-05-27T07:21:25Z</time>
      </trkpt>
      <trkpt lat="44.45247" lon="3.56652">
        <ele>982</ele>
        <time>2022-05-27T07:21:26Z</time>
      </trkpt>
      <trkpt lat="44.45246" lon="3.56653">
        <ele>982</ele>
        <time>2022-05-27T07:21:27Z</time>
      </trkpt>
      <trkpt lat="44.45246" lon="3.56654">
        <ele>982</ele>
        <time>2022-05-27T07:21:28Z</time>
      </trkpt>
      <trkpt lat="44.45245" lon="3.56655">
        <ele>982</ele>
        <time>2022-05-27T07:21:29Z</time>
      </trkpt>
      <trkpt lat="44.45244" lon="3.56657">
        <ele>982</ele>
        <time>2022-05-27T07:21:30Z</time>
      </trkpt>
      <trkpt lat="44.45244" lon="3.56658">
        <ele>982</ele>
        <time>2022-05-27T07:21:31Z</time>
      </trkpt>
      <trkpt lat="44.45243" lon="3.5666">
        <ele>982</ele>
        <time>2022-05-27T07:21:32Z</time>
      </trkpt>
      <trkpt lat="44.45242" lon="3.56661">
        <ele>982</ele>
        <time>2022-05-27T07:21:33Z</time>
      </trkpt>
      <trkpt lat="44.45241" lon="3.56662">
        <ele>983</ele>
        <time>2022-05-27T07:21:34Z</time>
      </trkpt>
      <trkpt lat="44.4524" lon="3.56663">
        <ele>984</ele>
        <time>2022-05-27T07:21:35Z</time>
      </trkpt>
      <trkpt lat="44.4524" lon="3.56664">
        <ele>984</ele>
        <time>2022-05-27T07:21:36Z</time>
      </trkpt>
      <trkpt lat="44.45239" lon="3.56666">
        <ele>984</ele>
        <time>2022-05-27T07:21:37Z</time>
      </trkpt>
      <trkpt lat="44.45239" lon="3.56667">
        <ele>984</ele>
        <time>2022-05-27T07:21:38Z</time>
      </trkpt>
      <trkpt lat="44.45238" lon="3.56668">
        <ele>984</ele>
        <time>2022-05-27T07:21:39Z</time>
      </trkpt>
      <trkpt lat="44.45237" lon="3.56669">
        <ele>984</ele>
        <time>2022-05-27T07:21:40Z</time>
      </trkpt>
      <trkpt lat="44.45237" lon="3.5667">
        <ele>984</ele>
        <time>2022-05-27T07:21:41Z</time>
      </trkpt>
      <trkpt lat="44.45236" lon="3.56671">
        <ele>985</ele>
        <time>2022-05-27T07:21:42Z</time>
      </trkpt>
      <trkpt lat="44.45235" lon="3.56672">
        <ele>985</ele>
        <time>2022-05-27T07:21:43Z</time>
      </trkpt>
      <trkpt lat="44.45235" lon="3.56673">
        <ele>986</ele>
        <time>2022-05-27T07:21:44Z</time>
      </trkpt>
      <trkpt lat="44.45234" lon="3.56674">
        <ele>986</ele>
        <time>2022-05-27T07:21:45Z</time>
      </trkpt>
      <trkpt lat="44.45234" lon="3.56676">
        <ele>986</ele>
        <time>2022-05-27T07:21:46Z</time>
      </trkpt>
      <trkpt lat="44.45233" lon="3.56677">
        <ele>987</ele>
        <time>2022-05-27T07:21:47Z</time>
      </trkpt>
      <trkpt lat="44.45232" lon="3.56678">
        <ele>987</ele>
        <time>2022-05-27T07:21:48Z</time>
      </trkpt>
      <trkpt lat="44.45231" lon="3.56679">
        <ele>988</ele>
        <time>2022-05-27T07:21:49Z</time>
      </trkpt>
      <trkpt lat="44.45231" lon="3.5668">
        <ele>988</ele>
        <time>2022-05-27T07:21:50Z</time>
      </trkpt>
      <trkpt lat="44.4523" lon="3.56681">
        <ele>988</ele>
        <time>2022-05-27T07:21:51Z</time>
      </trkpt>
      <trkpt lat="44.4523" lon="3.56683">
        <ele>988</ele>
        <time>2022-05-27T07:21:52Z</time>
      </trkpt>
      <trkpt lat="44.45229" lon="3.56684">
        <ele>989</ele>
        <time>2022-05-27T07:21:53Z</time>
      </trkpt>
      <trkpt lat="44.45229" lon="3.56685">
        <ele>989</ele>
        <time>2022-05-27T07:21:54Z</time>
      </trkpt>
      <trkpt lat="44.45228" lon="3.56686">
        <ele>990</ele>
        <time>2022-05-27T07:21:55Z</time>
      </trkpt>
      <trkpt lat="44.45228" lon="3.56687">
        <ele>990</ele>
        <time>2022-05-27T07:21:56Z</time>
      </trkpt>
      <trkpt lat="44.45228" lon="3.56689">
        <ele>990</ele>
        <time>2022-05-27T07:21:57Z</time>
      </trkpt>
      <trkpt lat="44.45228" lon="3.5669">
        <ele>991</ele>
        <time>2022-05-27T07:21:58Z</time>
      </trkpt>
      <trkpt lat="44.45227" lon="3.56691">
        <ele>991</ele>
        <time>2022-05-27T07:21:59Z</time>
      </trkpt>
      <trkpt lat="44.45227" lon="3.56693">
        <ele>991</ele>
        <time>2022-05-27T07:22:00Z</time>
      </trkpt>
      <trkpt lat="44.45227" lon="3.56694">
        <ele>991</ele>
        <time>2022-05-27T07:22:01Z</time>
      </trkpt>
      <trkpt lat="44.45226" lon="3.56696">
        <ele>991</ele>
        <time>2022-05-27T07:22:02Z</time>
      </trkpt>
      <trkpt lat="44.45226" lon="3.56697">
        <ele>991</ele>
        <time>2022-05-27T07:22:03Z</time>
      </trkpt>
      <trkpt lat="44.45226" lon="3.56698">
        <ele>991</ele>
        <time>2022-05-27T07:22:04Z</time>
      </trkpt>
      <trkpt lat="44.45226" lon="3.56699">
        <ele>992</ele>
        <time>2022-05-27T07:22:05Z</time>
      </trkpt>
      <trkpt lat="44.45226" lon="3.56699">
        <ele>992</ele>
        <time>2022-05-27T07:22:06Z</time>
      </trkpt>
      <trkpt lat="44.45226" lon="3.56699">
        <ele>992</ele>
        <time>2022-05-27T07:22:07Z</time>
      </trkpt>
      <trkpt lat="44.45226" lon="3.56702">
        <ele>993</ele>
        <time>2022-05-27T07:22:08Z</time>
      </trkpt>
      <trkpt lat="44.45226" lon="3.56703">
        <ele>993</ele>
        <time>2022-05-27T07:22:09Z</time>
      </trkpt>
      <trkpt lat="44.45226" lon="3.56704">
        <ele>994</ele>
        <time>2022-05-27T07:22:10Z</time>
      </trkpt>
      <trkpt lat="44.45226" lon="3.56705">
        <ele>995</ele>
        <time>2022-05-27T07:22:11Z</time>
      </trkpt>
      <trkpt lat="44.45226" lon="3.56705">
        <ele>995</ele>
        <time>2022-05-27T07:22:12Z</time>
      </trkpt>
      <trkpt lat="44.45226" lon="3.56705">
        <ele>995</ele>
        <time>2022-05-27T07:22:13Z</time>
      </trkpt>
      <trkpt lat="44.45225" lon="3.56708">
        <ele>997</ele>
        <time>2022-05-27T07:22:14Z</time>
      </trkpt>
      <trkpt lat="44.45225" lon="3.5671">
        <ele>998</ele>
        <time>2022-05-27T07:22:15Z</time>
      </trkpt>
      <trkpt lat="44.45224" lon="3.56711">
        <ele>998</ele>
        <time>2022-05-27T07:22:16Z</time>
      </trkpt>
      <trkpt lat="44.45224" lon="3.56712">
        <ele>998</ele>
        <time>2022-05-27T07:22:17Z</time>
      </trkpt>
      <trkpt lat="44.45224" lon="3.56713">
        <ele>998</ele>
        <time>2022-05-27T07:22:18Z</time>
      </trkpt>
      <trkpt lat="44.45224" lon="3.56715">
        <ele>998</ele>
        <time>2022-05-27T07:22:19Z</time>
      </trkpt>
      <trkpt lat="44.45224" lon="3.56716">
        <ele>998</ele>
        <time>2022-05-27T07:22:20Z</time>
      </trkpt>
      <trkpt lat="44.45223" lon="3.56717">
        <ele>998</ele>
        <time>2022-05-27T07:22:21Z</time>
      </trkpt>
      <trkpt lat="44.45222" lon="3.56718">
        <ele>998</ele>
        <time>2022-05-27T07:22:22Z</time>
      </trkpt>
      <trkpt lat="44.45221" lon="3.5672">
        <ele>998</ele>
        <time>2022-05-27T07:22:23Z</time>
      </trkpt>
      <trkpt lat="44.45221" lon="3.56722">
        <ele>998</ele>
        <time>2022-05-27T07:22:24Z</time>
      </trkpt>
      <trkpt lat="44.4522" lon="3.56724">
        <ele>998</ele>
        <time>2022-05-27T07:22:25Z</time>
      </trkpt>
      <trkpt lat="44.4522" lon="3.56725">
        <ele>998</ele>
        <time>2022-05-27T07:22:26Z</time>
      </trkpt>
      <trkpt lat="44.45219" lon="3.56726">
        <ele>998</ele>
        <time>2022-05-27T07:22:27Z</time>
      </trkpt>
      <trkpt lat="44.45219" lon="3.56727">
        <ele>998</ele>
        <time>2022-05-27T07:22:28Z</time>
      </trkpt>
      <trkpt lat="44.45218" lon="3.56728">
        <ele>998</ele>
        <time>2022-05-27T07:22:29Z</time>
      </trkpt>
      <trkpt lat="44.45218" lon="3.56729">
        <ele>998</ele>
        <time>2022-05-27T07:22:30Z</time>
      </trkpt>
      <trkpt lat="44.45217" lon="3.56729">
        <ele>998</ele>
        <time>2022-05-27T07:22:31Z</time>
      </trkpt>
      <trkpt lat="44.45216" lon="3.5673">
        <ele>998</ele>
        <time>2022-05-27T07:22:32Z</time>
      </trkpt>
      <trkpt lat="44.45216" lon="3.5673">
        <ele>997</ele>
        <time>2022-05-27T07:22:33Z</time>
      </trkpt>
      <trkpt lat="44.45216" lon="3.5673">
        <ele>998</ele>
        <time>2022-05-27T07:22:34Z</time>
      </trkpt>
      <trkpt lat="44.45215" lon="3.5673">
        <ele>998</ele>
        <time>2022-05-27T07:22:35Z</time>
      </trkpt>
      <trkpt lat="44.45214" lon="3.5673">
        <ele>998</ele>
        <time>2022-05-27T07:22:36Z</time>
      </trkpt>
      <trkpt lat="44.45213" lon="3.5673">
        <ele>998</ele>
        <time>2022-05-27T07:22:37Z</time>
      </trkpt>
      <trkpt lat="44.45213" lon="3.56729">
        <ele>998</ele>
        <time>2022-05-27T07:22:38Z</time>
      </trkpt>
      <trkpt lat="44.45212" lon="3.5673">
        <ele>998</ele>
        <time>2022-05-27T07:22:39Z</time>
      </trkpt>
      <trkpt lat="44.45212" lon="3.5673">
        <ele>998</ele>
        <time>2022-05-27T07:22:40Z</time>
      </trkpt>
      <trkpt lat="44.45211" lon="3.56729">
        <ele>998</ele>
        <time>2022-05-27T07:22:41Z</time>
      </trkpt>
      <trkpt lat="44.45211" lon="3.56729">
        <ele>997</ele>
        <time>2022-05-27T07:22:42Z</time>
      </trkpt>
      <trkpt lat="44.45211" lon="3.56729">
        <ele>997</ele>
        <time>2022-05-27T07:22:43Z</time>
      </trkpt>
      <trkpt lat="44.4521" lon="3.56729">
        <ele>998</ele>
        <time>2022-05-27T07:22:44Z</time>
      </trkpt>
      <trkpt lat="44.45209" lon="3.56728">
        <ele>998</ele>
        <time>2022-05-27T07:22:45Z</time>
      </trkpt>
      <trkpt lat="44.45209" lon="3.56728">
        <ele>999</ele>
        <time>2022-05-27T07:22:46Z</time>
      </trkpt>
      <trkpt lat="44.45208" lon="3.56727">
        <ele>999</ele>
        <time>2022-05-27T07:22:47Z</time>
      </trkpt>
      <trkpt lat="44.45208" lon="3.56726">
        <ele>999</ele>
        <time>2022-05-27T07:22:48Z</time>
      </trkpt>
      <trkpt lat="44.45207" lon="3.56725">
        <ele>999</ele>
        <time>2022-05-27T07:22:49Z</time>
      </trkpt>
      <trkpt lat="44.45206" lon="3.56724">
        <ele>1000</ele>
        <time>2022-05-27T07:22:50Z</time>
      </trkpt>
      <trkpt lat="44.45206" lon="3.56723">
        <ele>1000</ele>
        <time>2022-05-27T07:22:51Z</time>
      </trkpt>
      <trkpt lat="44.45205" lon="3.56722">
        <ele>1000</ele>
        <time>2022-05-27T07:22:52Z</time>
      </trkpt>
      <trkpt lat="44.45205" lon="3.56722">
        <ele>1000</ele>
        <time>2022-05-27T07:22:53Z</time>
      </trkpt>
      <trkpt lat="44.45204" lon="3.56721">
        <ele>1001</ele>
        <time>2022-05-27T07:22:54Z</time>
      </trkpt>
      <trkpt lat="44.45204" lon="3.5672">
        <ele>1001</ele>
        <time>2022-05-27T07:22:55Z</time>
      </trkpt>
      <trkpt lat="44.45203" lon="3.56719">
        <ele>1001</ele>
        <time>2022-05-27T07:22:56Z</time>
      </trkpt>
      <trkpt lat="44.45202" lon="3.56719">
        <ele>1002</ele>
        <time>2022-05-27T07:22:57Z</time>
      </trkpt>
      <trkpt lat="44.45202" lon="3.56718">
        <ele>1002</ele>
        <time>2022-05-27T07:22:58Z</time>
      </trkpt>
      <trkpt lat="44.45202" lon="3.56717">
        <ele>1003</ele>
        <time>2022-05-27T07:22:59Z</time>
      </trkpt>
      <trkpt lat="44.45202" lon="3.56717">
        <ele>1003</ele>
        <time>2022-05-27T07:23:00Z</time>
      </trkpt>
      <trkpt lat="44.45202" lon="3.56717">
        <ele>1003</ele>
        <time>2022-05-27T07:23:01Z</time>
      </trkpt>
      <trkpt lat="44.45199" lon="3.56715">
        <ele>1003</ele>
        <time>2022-05-27T07:23:02Z</time>
      </trkpt>
      <trkpt lat="44.45199" lon="3.56714">
        <ele>1003</ele>
        <time>2022-05-27T07:23:03Z</time>
      </trkpt>
      <trkpt lat="44.45198" lon="3.56713">
        <ele>1003</ele>
        <time>2022-05-27T07:23:04Z</time>
      </trkpt>
      <trkpt lat="44.45197" lon="3.56712">
        <ele>1004</ele>
        <time>2022-05-27T07:23:05Z</time>
      </trkpt>
      <trkpt lat="44.45197" lon="3.56712">
        <ele>1004</ele>
        <time>2022-05-27T07:23:06Z</time>
      </trkpt>
      <trkpt lat="44.45197" lon="3.56712">
        <ele>1004</ele>
        <time>2022-05-27T07:23:07Z</time>
      </trkpt>
      <trkpt lat="44.45196" lon="3.5671">
        <ele>1004</ele>
        <time>2022-05-27T07:23:08Z</time>
      </trkpt>
      <trkpt lat="44.45195" lon="3.5671">
        <ele>1005</ele>
        <time>2022-05-27T07:23:09Z</time>
      </trkpt>
      <trkpt lat="44.45195" lon="3.56709">
        <ele>1005</ele>
        <time>2022-05-27T07:23:10Z</time>
      </trkpt>
      <trkpt lat="44.45194" lon="3.56709">
        <ele>1005</ele>
        <time>2022-05-27T07:23:11Z</time>
      </trkpt>
      <trkpt lat="44.45194" lon="3.56709">
        <ele>1005</ele>
        <time>2022-05-27T07:23:12Z</time>
      </trkpt>
      <trkpt lat="44.45194" lon="3.56709">
        <ele>1005</ele>
        <time>2022-05-27T07:23:13Z</time>
      </trkpt>
      <trkpt lat="44.45192" lon="3.56706">
        <ele>1005</ele>
        <time>2022-05-27T07:23:14Z</time>
      </trkpt>
      <trkpt lat="44.45192" lon="3.56705">
        <ele>1006</ele>
        <time>2022-05-27T07:23:15Z</time>
      </trkpt>
      <trkpt lat="44.4519" lon="3.56704">
        <ele>1006</ele>
        <time>2022-05-27T07:23:16Z</time>
      </trkpt>
      <trkpt lat="44.45189" lon="3.56703">
        <ele>1006</ele>
        <time>2022-05-27T07:23:17Z</time>
      </trkpt>
      <trkpt lat="44.45189" lon="3.56703">
        <ele>1006</ele>
        <time>2022-05-27T07:23:18Z</time>
      </trkpt>
      <trkpt lat="44.45189" lon="3.56703">
        <ele>1006</ele>
        <time>2022-05-27T07:23:19Z</time>
      </trkpt>
      <trkpt lat="44.45186" lon="3.56701">
        <ele>1007</ele>
        <time>2022-05-27T07:23:20Z</time>
      </trkpt>
      <trkpt lat="44.45186" lon="3.56699">
        <ele>1007</ele>
        <time>2022-05-27T07:23:21Z</time>
      </trkpt>
      <trkpt lat="44.45185" lon="3.56698">
        <ele>1007</ele>
        <time>2022-05-27T07:23:22Z</time>
      </trkpt>
      <trkpt lat="44.45184" lon="3.56697">
        <ele>1007</ele>
        <time>2022-05-27T07:23:23Z</time>
      </trkpt>
      <trkpt lat="44.45183" lon="3.56696">
        <ele>1008</ele>
        <time>2022-05-27T07:23:24Z</time>
      </trkpt>
      <trkpt lat="44.45182" lon="3.56695">
        <ele>1008</ele>
        <time>2022-05-27T07:23:25Z</time>
      </trkpt>
      <trkpt lat="44.45181" lon="3.56694">
        <ele>1009</ele>
        <time>2022-05-27T07:23:26Z</time>
      </trkpt>
      <trkpt lat="44.45181" lon="3.56694">
        <ele>1009</ele>
        <time>2022-05-27T07:23:27Z</time>
      </trkpt>
      <trkpt lat="44.45181" lon="3.56694">
        <ele>1009</ele>
        <time>2022-05-27T07:23:28Z</time>
      </trkpt>
      <trkpt lat="44.45178" lon="3.56691">
        <ele>1009</ele>
        <time>2022-05-27T07:23:29Z</time>
      </trkpt>
      <trkpt lat="44.45176" lon="3.5669">
        <ele>1010</ele>
        <time>2022-05-27T07:23:30Z</time>
      </trkpt>
      <trkpt lat="44.45175" lon="3.56688">
        <ele>1011</ele>
        <time>2022-05-27T07:23:31Z</time>
      </trkpt>
      <trkpt lat="44.45174" lon="3.56687">
        <ele>1011</ele>
        <time>2022-05-27T07:23:32Z</time>
      </trkpt>
      <trkpt lat="44.45173" lon="3.56685">
        <ele>1011</ele>
        <time>2022-05-27T07:23:33Z</time>
      </trkpt>
      <trkpt lat="44.45172" lon="3.56684">
        <ele>1011</ele>
        <time>2022-05-27T07:23:34Z</time>
      </trkpt>
      <trkpt lat="44.45171" lon="3.56683">
        <ele>1011</ele>
        <time>2022-05-27T07:23:35Z</time>
      </trkpt>
      <trkpt lat="44.4517" lon="3.56682">
        <ele>1012</ele>
        <time>2022-05-27T07:23:36Z</time>
      </trkpt>
      <trkpt lat="44.45169" lon="3.56682">
        <ele>1012</ele>
        <time>2022-05-27T07:23:37Z</time>
      </trkpt>
      <trkpt lat="44.45168" lon="3.56681">
        <ele>1012</ele>
        <time>2022-05-27T07:23:38Z</time>
      </trkpt>
      <trkpt lat="44.45168" lon="3.5668">
        <ele>1013</ele>
        <time>2022-05-27T07:23:39Z</time>
      </trkpt>
      <trkpt lat="44.45167" lon="3.56679">
        <ele>1014</ele>
        <time>2022-05-27T07:23:40Z</time>
      </trkpt>
      <trkpt lat="44.45167" lon="3.56679">
        <ele>1014</ele>
        <time>2022-05-27T07:23:40Z</time>
      </trkpt>
      <trkpt lat="44.45165" lon="3.56677">
        <ele>1014</ele>
        <time>2022-05-27T07:23:42Z</time>
      </trkpt>
      <trkpt lat="44.45165" lon="3.56675">
        <ele>1014</ele>
        <time>2022-05-27T07:23:43Z</time>
      </trkpt>
      <trkpt lat="44.45164" lon="3.56674">
        <ele>1015</ele>
        <time>2022-05-27T07:23:44Z</time>
      </trkpt>
      <trkpt lat="44.45163" lon="3.56673">
        <ele>1015</ele>
        <time>2022-05-27T07:23:45Z</time>
      </trkpt>
      <trkpt lat="44.45162" lon="3.56673">
        <ele>1015</ele>
        <time>2022-05-27T07:23:46Z</time>
      </trkpt>
      <trkpt lat="44.4516" lon="3.56672">
        <ele>1016</ele>
        <time>2022-05-27T07:23:47Z</time>
      </trkpt>
      <trkpt lat="44.4516" lon="3.56672">
        <ele>1016</ele>
        <time>2022-05-27T07:23:48Z</time>
      </trkpt>
      <trkpt lat="44.45158" lon="3.56672">
        <ele>1016</ele>
        <time>2022-05-27T07:23:49Z</time>
      </trkpt>
      <trkpt lat="44.45157" lon="3.56671">
        <ele>1016</ele>
        <time>2022-05-27T07:23:50Z</time>
      </trkpt>
      <trkpt lat="44.45155" lon="3.56671">
        <ele>1015</ele>
        <time>2022-05-27T07:23:51Z</time>
      </trkpt>
      <trkpt lat="44.45154" lon="3.5667">
        <ele>1015</ele>
        <time>2022-05-27T07:23:52Z</time>
      </trkpt>
      <trkpt lat="44.45152" lon="3.56669">
        <ele>1015</ele>
        <time>2022-05-27T07:23:53Z</time>
      </trkpt>
      <trkpt lat="44.45152" lon="3.56669">
        <ele>1014</ele>
        <time>2022-05-27T07:23:54Z</time>
      </trkpt>
      <trkpt lat="44.4515" lon="3.56669">
        <ele>1014</ele>
        <time>2022-05-27T07:23:55Z</time>
      </trkpt>
      <trkpt lat="44.45149" lon="3.5667">
        <ele>1014</ele>
        <time>2022-05-27T07:23:56Z</time>
      </trkpt>
      <trkpt lat="44.45149" lon="3.5667">
        <ele>1014</ele>
        <time>2022-05-27T07:23:57Z</time>
      </trkpt>
      <trkpt lat="44.45147" lon="3.5667">
        <ele>1013</ele>
        <time>2022-05-27T07:23:58Z</time>
      </trkpt>
      <trkpt lat="44.45145" lon="3.5667">
        <ele>1013</ele>
        <time>2022-05-27T07:23:59Z</time>
      </trkpt>
      <trkpt lat="44.45144" lon="3.5667">
        <ele>1013</ele>
        <time>2022-05-27T07:24:00Z</time>
      </trkpt>
      <trkpt lat="44.45144" lon="3.56671">
        <ele>1013</ele>
        <time>2022-05-27T07:24:01Z</time>
      </trkpt>
      <trkpt lat="44.45143" lon="3.56671">
        <ele>1013</ele>
        <time>2022-05-27T07:24:02Z</time>
      </trkpt>
      <trkpt lat="44.45141" lon="3.56671">
        <ele>1014</ele>
        <time>2022-05-27T07:24:03Z</time>
      </trkpt>
      <trkpt lat="44.4514" lon="3.56671">
        <ele>1014</ele>
        <time>2022-05-27T07:24:04Z</time>
      </trkpt>
      <trkpt lat="44.45139" lon="3.56672">
        <ele>1014</ele>
        <time>2022-05-27T07:24:05Z</time>
      </trkpt>
      <trkpt lat="44.45138" lon="3.56672">
        <ele>1014</ele>
        <time>2022-05-27T07:24:06Z</time>
      </trkpt>
      <trkpt lat="44.45137" lon="3.56673">
        <ele>1014</ele>
        <time>2022-05-27T07:24:07Z</time>
      </trkpt>
      <trkpt lat="44.45136" lon="3.56673">
        <ele>1014</ele>
        <time>2022-05-27T07:24:08Z</time>
      </trkpt>
      <trkpt lat="44.45135" lon="3.56674">
        <ele>1014</ele>
        <time>2022-05-27T07:24:09Z</time>
      </trkpt>
      <trkpt lat="44.45134" lon="3.56675">
        <ele>1013</ele>
        <time>2022-05-27T07:24:10Z</time>
      </trkpt>
      <trkpt lat="44.45133" lon="3.56676">
        <ele>1012</ele>
        <time>2022-05-27T07:24:11Z</time>
      </trkpt>
      <trkpt lat="44.45132" lon="3.56677">
        <ele>1012</ele>
        <time>2022-05-27T07:24:12Z</time>
      </trkpt>
      <trkpt lat="44.45131" lon="3.56677">
        <ele>1012</ele>
        <time>2022-05-27T07:24:13Z</time>
      </trkpt>
      <trkpt lat="44.4513" lon="3.56678">
        <ele>1012</ele>
        <time>2022-05-27T07:24:14Z</time>
      </trkpt>
      <trkpt lat="44.45129" lon="3.56679">
        <ele>1011</ele>
        <time>2022-05-27T07:24:15Z</time>
      </trkpt>
      <trkpt lat="44.45128" lon="3.5668">
        <ele>1011</ele>
        <time>2022-05-27T07:24:16Z</time>
      </trkpt>
      <trkpt lat="44.45128" lon="3.56681">
        <ele>1010</ele>
        <time>2022-05-27T07:24:17Z</time>
      </trkpt>
      <trkpt lat="44.45127" lon="3.56681">
        <ele>1011</ele>
        <time>2022-05-27T07:24:18Z</time>
      </trkpt>
      <trkpt lat="44.45126" lon="3.56682">
        <ele>1011</ele>
        <time>2022-05-27T07:24:19Z</time>
      </trkpt>
      <trkpt lat="44.45125" lon="3.56683">
        <ele>1010</ele>
        <time>2022-05-27T07:24:20Z</time>
      </trkpt>
      <trkpt lat="44.45124" lon="3.56683">
        <ele>1009</ele>
        <time>2022-05-27T07:24:21Z</time>
      </trkpt>
      <trkpt lat="44.45123" lon="3.56683">
        <ele>1010</ele>
        <time>2022-05-27T07:24:22Z</time>
      </trkpt>
      <trkpt lat="44.45121" lon="3.56684">
        <ele>1009</ele>
        <time>2022-05-27T07:24:23Z</time>
      </trkpt>
      <trkpt lat="44.4512" lon="3.56685">
        <ele>1009</ele>
        <time>2022-05-27T07:24:24Z</time>
      </trkpt>
      <trkpt lat="44.45118" lon="3.56686">
        <ele>1009</ele>
        <time>2022-05-27T07:24:25Z</time>
      </trkpt>
      <trkpt lat="44.45118" lon="3.56686">
        <ele>1009</ele>
        <time>2022-05-27T07:24:26Z</time>
      </trkpt>
      <trkpt lat="44.45116" lon="3.56687">
        <ele>1009</ele>
        <time>2022-05-27T07:24:27Z</time>
      </trkpt>
      <trkpt lat="44.45115" lon="3.56688">
        <ele>1009</ele>
        <time>2022-05-27T07:24:28Z</time>
      </trkpt>
      <trkpt lat="44.45114" lon="3.56688">
        <ele>1009</ele>
        <time>2022-05-27T07:24:29Z</time>
      </trkpt>
      <trkpt lat="44.45113" lon="3.56689">
        <ele>1008</ele>
        <time>2022-05-27T07:24:30Z</time>
      </trkpt>
      <trkpt lat="44.45112" lon="3.5669">
        <ele>1009</ele>
        <time>2022-05-27T07:24:31Z</time>
      </trkpt>
      <trkpt lat="44.45111" lon="3.5669">
        <ele>1008</ele>
        <time>2022-05-27T07:24:32Z</time>
      </trkpt>
      <trkpt lat="44.4511" lon="3.56691">
        <ele>1007</ele>
        <time>2022-05-27T07:24:33Z</time>
      </trkpt>
      <trkpt lat="44.45109" lon="3.56691">
        <ele>1007</ele>
        <time>2022-05-27T07:24:34Z</time>
      </trkpt>
      <trkpt lat="44.45108" lon="3.56691">
        <ele>1008</ele>
        <time>2022-05-27T07:24:35Z</time>
      </trkpt>
      <trkpt lat="44.45107" lon="3.56692">
        <ele>1008</ele>
        <time>2022-05-27T07:24:36Z</time>
      </trkpt>
      <trkpt lat="44.45106" lon="3.56692">
        <ele>1009</ele>
        <time>2022-05-27T07:24:37Z</time>
      </trkpt>
      <trkpt lat="44.45105" lon="3.56693">
        <ele>1009</ele>
        <time>2022-05-27T07:24:38Z</time>
      </trkpt>
      <trkpt lat="44.45104" lon="3.56693">
        <ele>1009</ele>
        <time>2022-05-27T07:24:39Z</time>
      </trkpt>
      <trkpt lat="44.45103" lon="3.56694">
        <ele>1009</ele>
        <time>2022-05-27T07:24:40Z</time>
      </trkpt>
      <trkpt lat="44.45102" lon="3.56694">
        <ele>1008</ele>
        <time>2022-05-27T07:24:41Z</time>
      </trkpt>
      <trkpt lat="44.45101" lon="3.56695">
        <ele>1008</ele>
        <time>2022-05-27T07:24:42Z</time>
      </trkpt>
      <trkpt lat="44.451" lon="3.56696">
        <ele>1007</ele>
        <time>2022-05-27T07:24:43Z</time>
      </trkpt>
      <trkpt lat="44.45099" lon="3.56696">
        <ele>1007</ele>
        <time>2022-05-27T07:24:44Z</time>
      </trkpt>
      <trkpt lat="44.45099" lon="3.56697">
        <ele>1006</ele>
        <time>2022-05-27T07:24:45Z</time>
      </trkpt>
      <trkpt lat="44.45098" lon="3.56698">
        <ele>1006</ele>
        <time>2022-05-27T07:24:46Z</time>
      </trkpt>
      <trkpt lat="44.45097" lon="3.56698">
        <ele>1007</ele>
        <time>2022-05-27T07:24:47Z</time>
      </trkpt>
      <trkpt lat="44.45097" lon="3.56699">
        <ele>1007</ele>
        <time>2022-05-27T07:24:48Z</time>
      </trkpt>
      <trkpt lat="44.45096" lon="3.56699">
        <ele>1007</ele>
        <time>2022-05-27T07:24:49Z</time>
      </trkpt>
      <trkpt lat="44.45095" lon="3.567">
        <ele>1006</ele>
        <time>2022-05-27T07:24:50Z</time>
      </trkpt>
      <trkpt lat="44.45095" lon="3.56701">
        <ele>1006</ele>
        <time>2022-05-27T07:24:51Z</time>
      </trkpt>
      <trkpt lat="44.45094" lon="3.56702">
        <ele>1006</ele>
        <time>2022-05-27T07:24:52Z</time>
      </trkpt>
      <trkpt lat="44.45094" lon="3.56703">
        <ele>1006</ele>
        <time>2022-05-27T07:24:53Z</time>
      </trkpt>
      <trkpt lat="44.45092" lon="3.56703">
        <ele>1006</ele>
        <time>2022-05-27T07:24:54Z</time>
      </trkpt>
      <trkpt lat="44.45092" lon="3.56704">
        <ele>1006</ele>
        <time>2022-05-27T07:24:55Z</time>
      </trkpt>
      <trkpt lat="44.45091" lon="3.56705">
        <ele>1006</ele>
        <time>2022-05-27T07:24:56Z</time>
      </trkpt>
      <trkpt lat="44.45091" lon="3.56705">
        <ele>1007</ele>
        <time>2022-05-27T07:24:57Z</time>
      </trkpt>
      <trkpt lat="44.45089" lon="3.56706">
        <ele>1007</ele>
        <time>2022-05-27T07:24:58Z</time>
      </trkpt>
      <trkpt lat="44.45089" lon="3.56707">
        <ele>1006</ele>
        <time>2022-05-27T07:24:59Z</time>
      </trkpt>
      <trkpt lat="44.45088" lon="3.56708">
        <ele>1006</ele>
        <time>2022-05-27T07:25:00Z</time>
      </trkpt>
      <trkpt lat="44.45087" lon="3.56709">
        <ele>1006</ele>
        <time>2022-05-27T07:25:01Z</time>
      </trkpt>
      <trkpt lat="44.45087" lon="3.5671">
        <ele>1007</ele>
        <time>2022-05-27T07:25:02Z</time>
      </trkpt>
      <trkpt lat="44.45086" lon="3.56711">
        <ele>1007</ele>
        <time>2022-05-27T07:25:03Z</time>
      </trkpt>
      <trkpt lat="44.45086" lon="3.56711">
        <ele>1008</ele>
        <time>2022-05-27T07:25:04Z</time>
      </trkpt>
      <trkpt lat="44.45085" lon="3.56712">
        <ele>1008</ele>
        <time>2022-05-27T07:25:05Z</time>
      </trkpt>
      <trkpt lat="44.45084" lon="3.56713">
        <ele>1009</ele>
        <time>2022-05-27T07:25:06Z</time>
      </trkpt>
      <trkpt lat="44.45083" lon="3.56714">
        <ele>1010</ele>
        <time>2022-05-27T07:25:07Z</time>
      </trkpt>
      <trkpt lat="44.45083" lon="3.56715">
        <ele>1010</ele>
        <time>2022-05-27T07:25:08Z</time>
      </trkpt>
      <trkpt lat="44.45082" lon="3.56716">
        <ele>1010</ele>
        <time>2022-05-27T07:25:09Z</time>
      </trkpt>
      <trkpt lat="44.45081" lon="3.56717">
        <ele>1011</ele>
        <time>2022-05-27T07:25:10Z</time>
      </trkpt>
      <trkpt lat="44.45081" lon="3.56718">
        <ele>1011</ele>
        <time>2022-05-27T07:25:11Z</time>
      </trkpt>
      <trkpt lat="44.4508" lon="3.56719">
        <ele>1011</ele>
        <time>2022-05-27T07:25:12Z</time>
      </trkpt>
      <trkpt lat="44.45078" lon="3.56719">
        <ele>1011</ele>
        <time>2022-05-27T07:25:13Z</time>
      </trkpt>
      <trkpt lat="44.45077" lon="3.56721">
        <ele>1011</ele>
        <time>2022-05-27T07:25:14Z</time>
      </trkpt>
      <trkpt lat="44.45076" lon="3.56721">
        <ele>1012</ele>
        <time>2022-05-27T07:25:15Z</time>
      </trkpt>
      <trkpt lat="44.45076" lon="3.56721">
        <ele>1013</ele>
        <time>2022-05-27T07:25:16Z</time>
      </trkpt>
      <trkpt lat="44.45075" lon="3.56722">
        <ele>1012</ele>
        <time>2022-05-27T07:25:17Z</time>
      </trkpt>
      <trkpt lat="44.45074" lon="3.56723">
        <ele>1013</ele>
        <time>2022-05-27T07:25:18Z</time>
      </trkpt>
      <trkpt lat="44.45073" lon="3.56724">
        <ele>1013</ele>
        <time>2022-05-27T07:25:19Z</time>
      </trkpt>
      <trkpt lat="44.45072" lon="3.56724">
        <ele>1013</ele>
        <time>2022-05-27T07:25:20Z</time>
      </trkpt>
      <trkpt lat="44.45071" lon="3.56724">
        <ele>1014</ele>
        <time>2022-05-27T07:25:21Z</time>
      </trkpt>
      <trkpt lat="44.45071" lon="3.56724">
        <ele>1014</ele>
        <time>2022-05-27T07:25:22Z</time>
      </trkpt>
      <trkpt lat="44.4507" lon="3.56724">
        <ele>1014</ele>
        <time>2022-05-27T07:25:23Z</time>
      </trkpt>
      <trkpt lat="44.45069" lon="3.56724">
        <ele>1015</ele>
        <time>2022-05-27T07:25:24Z</time>
      </trkpt>
      <trkpt lat="44.45068" lon="3.56723">
        <ele>1015</ele>
        <time>2022-05-27T07:25:25Z</time>
      </trkpt>
      <trkpt lat="44.45067" lon="3.56723">
        <ele>1015</ele>
        <time>2022-05-27T07:25:26Z</time>
      </trkpt>
      <trkpt lat="44.45067" lon="3.56723">
        <ele>1015</ele>
        <time>2022-05-27T07:25:27Z</time>
      </trkpt>
      <trkpt lat="44.45066" lon="3.56722">
        <ele>1015</ele>
        <time>2022-05-27T07:25:28Z</time>
      </trkpt>
      <trkpt lat="44.45065" lon="3.56722">
        <ele>1015</ele>
        <time>2022-05-27T07:25:29Z</time>
      </trkpt>
      <trkpt lat="44.45065" lon="3.56721">
        <ele>1015</ele>
        <time>2022-05-27T07:25:30Z</time>
      </trkpt>
      <trkpt lat="44.45063" lon="3.56721">
        <ele>1015</ele>
        <time>2022-05-27T07:25:31Z</time>
      </trkpt>
      <trkpt lat="44.45063" lon="3.56721">
        <ele>1016</ele>
        <time>2022-05-27T07:25:32Z</time>
      </trkpt>
      <trkpt lat="44.45062" lon="3.56721">
        <ele>1016</ele>
        <time>2022-05-27T07:25:33Z</time>
      </trkpt>
      <trkpt lat="44.45061" lon="3.56721">
        <ele>1016</ele>
        <time>2022-05-27T07:25:34Z</time>
      </trkpt>
      <trkpt lat="44.4506" lon="3.56721">
        <ele>1017</ele>
        <time>2022-05-27T07:25:35Z</time>
      </trkpt>
      <trkpt lat="44.45059" lon="3.56721">
        <ele>1017</ele>
        <time>2022-05-27T07:25:36Z</time>
      </trkpt>
      <trkpt lat="44.45058" lon="3.56721">
        <ele>1018</ele>
        <time>2022-05-27T07:25:37Z</time>
      </trkpt>
      <trkpt lat="44.45057" lon="3.56721">
        <ele>1019</ele>
        <time>2022-05-27T07:25:38Z</time>
      </trkpt>
      <trkpt lat="44.45056" lon="3.5672">
        <ele>1019</ele>
        <time>2022-05-27T07:25:39Z</time>
      </trkpt>
      <trkpt lat="44.45055" lon="3.5672">
        <ele>1020</ele>
        <time>2022-05-27T07:25:40Z</time>
      </trkpt>
      <trkpt lat="44.45055" lon="3.5672">
        <ele>1020</ele>
        <time>2022-05-27T07:25:41Z</time>
      </trkpt>
      <trkpt lat="44.45054" lon="3.56719">
        <ele>1021</ele>
        <time>2022-05-27T07:25:42Z</time>
      </trkpt>
      <trkpt lat="44.45053" lon="3.56719">
        <ele>1021</ele>
        <time>2022-05-27T07:25:43Z</time>
      </trkpt>
      <trkpt lat="44.45053" lon="3.56719">
        <ele>1021</ele>
        <time>2022-05-27T07:25:44Z</time>
      </trkpt>
      <trkpt lat="44.45053" lon="3.56719">
        <ele>1021</ele>
        <time>2022-05-27T07:25:45Z</time>
      </trkpt>
      <trkpt lat="44.45052" lon="3.56719">
        <ele>1021</ele>
        <time>2022-05-27T07:25:46Z</time>
      </trkpt>
      <trkpt lat="44.45051" lon="3.56719">
        <ele>1022</ele>
        <time>2022-05-27T07:25:47Z</time>
      </trkpt>
      <trkpt lat="44.4505" lon="3.56719">
        <ele>1022</ele>
        <time>2022-05-27T07:25:48Z</time>
      </trkpt>
      <trkpt lat="44.4505" lon="3.56718">
        <ele>1023</ele>
        <time>2022-05-27T07:25:49Z</time>
      </trkpt>
      <trkpt lat="44.45049" lon="3.56718">
        <ele>1023</ele>
        <time>2022-05-27T07:25:50Z</time>
      </trkpt>
      <trkpt lat="44.45049" lon="3.56717">
        <ele>1024</ele>
        <time>2022-05-27T07:25:51Z</time>
      </trkpt>
      <trkpt lat="44.45049" lon="3.56717">
        <ele>1024</ele>
        <time>2022-05-27T07:25:52Z</time>
      </trkpt>
      <trkpt lat="44.45049" lon="3.56717">
        <ele>1024</ele>
        <time>2022-05-27T07:25:53Z</time>
      </trkpt>
      <trkpt lat="44.45046" lon="3.56718">
        <ele>1024</ele>
        <time>2022-05-27T07:25:54Z</time>
      </trkpt>
      <trkpt lat="44.45046" lon="3.56718">
        <ele>1024</ele>
        <time>2022-05-27T07:25:55Z</time>
      </trkpt>
      <trkpt lat="44.45044" lon="3.56718">
        <ele>1025</ele>
        <time>2022-05-27T07:25:56Z</time>
      </trkpt>
      <trkpt lat="44.45043" lon="3.56717">
        <ele>1024</ele>
        <time>2022-05-27T07:25:57Z</time>
      </trkpt>
      <trkpt lat="44.45042" lon="3.56717">
        <ele>1024</ele>
        <time>2022-05-27T07:25:58Z</time>
      </trkpt>
      <trkpt lat="44.45041" lon="3.56717">
        <ele>1025</ele>
        <time>2022-05-27T07:25:59Z</time>
      </trkpt>
      <trkpt lat="44.45041" lon="3.56717">
        <ele>1025</ele>
        <time>2022-05-27T07:26:00Z</time>
      </trkpt>
      <trkpt lat="44.4504" lon="3.56717">
        <ele>1025</ele>
        <time>2022-05-27T07:26:01Z</time>
      </trkpt>
      <trkpt lat="44.45039" lon="3.56717">
        <ele>1025</ele>
        <time>2022-05-27T07:26:02Z</time>
      </trkpt>
      <trkpt lat="44.45038" lon="3.56717">
        <ele>1025</ele>
        <time>2022-05-27T07:26:03Z</time>
      </trkpt>
      <trkpt lat="44.45036" lon="3.56717">
        <ele>1025</ele>
        <time>2022-05-27T07:26:04Z</time>
      </trkpt>
      <trkpt lat="44.45035" lon="3.56717">
        <ele>1026</ele>
        <time>2022-05-27T07:26:05Z</time>
      </trkpt>
      <trkpt lat="44.45034" lon="3.56718">
        <ele>1026</ele>
        <time>2022-05-27T07:26:06Z</time>
      </trkpt>
      <trkpt lat="44.45033" lon="3.56718">
        <ele>1026</ele>
        <time>2022-05-27T07:26:07Z</time>
      </trkpt>
      <trkpt lat="44.45032" lon="3.56718">
        <ele>1026</ele>
        <time>2022-05-27T07:26:08Z</time>
      </trkpt>
      <trkpt lat="44.45031" lon="3.56719">
        <ele>1026</ele>
        <time>2022-05-27T07:26:09Z</time>
      </trkpt>
      <trkpt lat="44.4503" lon="3.56719">
        <ele>1026</ele>
        <time>2022-05-27T07:26:10Z</time>
      </trkpt>
      <trkpt lat="44.45029" lon="3.56719">
        <ele>1026</ele>
        <time>2022-05-27T07:26:11Z</time>
      </trkpt>
      <trkpt lat="44.45028" lon="3.5672">
        <ele>1027</ele>
        <time>2022-05-27T07:26:12Z</time>
      </trkpt>
      <trkpt lat="44.45027" lon="3.56719">
        <ele>1027</ele>
        <time>2022-05-27T07:26:13Z</time>
      </trkpt>
      <trkpt lat="44.45026" lon="3.56719">
        <ele>1027</ele>
        <time>2022-05-27T07:26:14Z</time>
      </trkpt>
      <trkpt lat="44.45025" lon="3.56719">
        <ele>1027</ele>
        <time>2022-05-27T07:26:15Z</time>
      </trkpt>
      <trkpt lat="44.45024" lon="3.56719">
        <ele>1027</ele>
        <time>2022-05-27T07:26:16Z</time>
      </trkpt>
      <trkpt lat="44.45023" lon="3.5672">
        <ele>1027</ele>
        <time>2022-05-27T07:26:17Z</time>
      </trkpt>
      <trkpt lat="44.45023" lon="3.5672">
        <ele>1027</ele>
        <time>2022-05-27T07:26:18Z</time>
      </trkpt>
      <trkpt lat="44.45022" lon="3.5672">
        <ele>1027</ele>
        <time>2022-05-27T07:26:19Z</time>
      </trkpt>
      <trkpt lat="44.45021" lon="3.5672">
        <ele>1028</ele>
        <time>2022-05-27T07:26:20Z</time>
      </trkpt>
      <trkpt lat="44.4502" lon="3.5672">
        <ele>1028</ele>
        <time>2022-05-27T07:26:21Z</time>
      </trkpt>
      <trkpt lat="44.45019" lon="3.5672">
        <ele>1029</ele>
        <time>2022-05-27T07:26:22Z</time>
      </trkpt>
      <trkpt lat="44.45018" lon="3.56721">
        <ele>1029</ele>
        <time>2022-05-27T07:26:23Z</time>
      </trkpt>
      <trkpt lat="44.45017" lon="3.56721">
        <ele>1029</ele>
        <time>2022-05-27T07:26:24Z</time>
      </trkpt>
      <trkpt lat="44.45016" lon="3.56721">
        <ele>1029</ele>
        <time>2022-05-27T07:26:25Z</time>
      </trkpt>
      <trkpt lat="44.45015" lon="3.56721">
        <ele>1029</ele>
        <time>2022-05-27T07:26:26Z</time>
      </trkpt>
      <trkpt lat="44.45014" lon="3.56721">
        <ele>1030</ele>
        <time>2022-05-27T07:26:27Z</time>
      </trkpt>
      <trkpt lat="44.45013" lon="3.56721">
        <ele>1030</ele>
        <time>2022-05-27T07:26:28Z</time>
      </trkpt>
      <trkpt lat="44.45013" lon="3.56722">
        <ele>1030</ele>
        <time>2022-05-27T07:26:29Z</time>
      </trkpt>
      <trkpt lat="44.45012" lon="3.56721">
        <ele>1031</ele>
        <time>2022-05-27T07:26:30Z</time>
      </trkpt>
      <trkpt lat="44.45011" lon="3.56721">
        <ele>1032</ele>
        <time>2022-05-27T07:26:31Z</time>
      </trkpt>
      <trkpt lat="44.45011" lon="3.56721">
        <ele>1032</ele>
        <time>2022-05-27T07:26:32Z</time>
      </trkpt>
      <trkpt lat="44.4501" lon="3.56721">
        <ele>1032</ele>
        <time>2022-05-27T07:26:33Z</time>
      </trkpt>
      <trkpt lat="44.45009" lon="3.5672">
        <ele>1033</ele>
        <time>2022-05-27T07:26:34Z</time>
      </trkpt>
      <trkpt lat="44.45009" lon="3.5672">
        <ele>1033</ele>
        <time>2022-05-27T07:26:35Z</time>
      </trkpt>
      <trkpt lat="44.45009" lon="3.5672">
        <ele>1033</ele>
        <time>2022-05-27T07:26:36Z</time>
      </trkpt>
      <trkpt lat="44.45008" lon="3.5672">
        <ele>1033</ele>
        <time>2022-05-27T07:26:37Z</time>
      </trkpt>
      <trkpt lat="44.45007" lon="3.5672">
        <ele>1033</ele>
        <time>2022-05-27T07:26:38Z</time>
      </trkpt>
      <trkpt lat="44.45007" lon="3.5672">
        <ele>1033</ele>
        <time>2022-05-27T07:26:39Z</time>
      </trkpt>
      <trkpt lat="44.45005" lon="3.56719">
        <ele>1033</ele>
        <time>2022-05-27T07:26:40Z</time>
      </trkpt>
      <trkpt lat="44.45005" lon="3.56718">
        <ele>1033</ele>
        <time>2022-05-27T07:26:41Z</time>
      </trkpt>
      <trkpt lat="44.45004" lon="3.56718">
        <ele>1033</ele>
        <time>2022-05-27T07:26:42Z</time>
      </trkpt>
      <trkpt lat="44.45002" lon="3.56718">
        <ele>1033</ele>
        <time>2022-05-27T07:26:43Z</time>
      </trkpt>
      <trkpt lat="44.45002" lon="3.56717">
        <ele>1033</ele>
        <time>2022-05-27T07:26:44Z</time>
      </trkpt>
      <trkpt lat="44.45001" lon="3.56717">
        <ele>1033</ele>
        <time>2022-05-27T07:26:45Z</time>
      </trkpt>
      <trkpt lat="44.45" lon="3.56716">
        <ele>1033</ele>
        <time>2022-05-27T07:26:46Z</time>
      </trkpt>
      <trkpt lat="44.44999" lon="3.56716">
        <ele>1033</ele>
        <time>2022-05-27T07:26:47Z</time>
      </trkpt>
      <trkpt lat="44.44997" lon="3.56716">
        <ele>1034</ele>
        <time>2022-05-27T07:26:48Z</time>
      </trkpt>
      <trkpt lat="44.44997" lon="3.56716">
        <ele>1034</ele>
        <time>2022-05-27T07:26:49Z</time>
      </trkpt>
      <trkpt lat="44.44997" lon="3.56716">
        <ele>1034</ele>
        <time>2022-05-27T07:26:50Z</time>
      </trkpt>
      <trkpt lat="44.44997" lon="3.56716">
        <ele>1034</ele>
        <time>2022-05-27T07:26:51Z</time>
      </trkpt>
      <trkpt lat="44.44994" lon="3.56717">
        <ele>1033</ele>
        <time>2022-05-27T07:26:52Z</time>
      </trkpt>
      <trkpt lat="44.44994" lon="3.56718">
        <ele>1033</ele>
        <time>2022-05-27T07:26:53Z</time>
      </trkpt>
      <trkpt lat="44.44992" lon="3.56717">
        <ele>1034</ele>
        <time>2022-05-27T07:26:54Z</time>
      </trkpt>
      <trkpt lat="44.44992" lon="3.56717">
        <ele>1035</ele>
        <time>2022-05-27T07:26:55Z</time>
      </trkpt>
      <trkpt lat="44.44991" lon="3.56717">
        <ele>1035</ele>
        <time>2022-05-27T07:26:56Z</time>
      </trkpt>
      <trkpt lat="44.44991" lon="3.56718">
        <ele>1035</ele>
        <time>2022-05-27T07:26:57Z</time>
      </trkpt>
      <trkpt lat="44.4499" lon="3.56718">
        <ele>1035</ele>
        <time>2022-05-27T07:26:58Z</time>
      </trkpt>
      <trkpt lat="44.4499" lon="3.56718">
        <ele>1035</ele>
        <time>2022-05-27T07:26:59Z</time>
      </trkpt>
      <trkpt lat="44.44989" lon="3.56718">
        <ele>1035</ele>
        <time>2022-05-27T07:27:00Z</time>
      </trkpt>
      <trkpt lat="44.44988" lon="3.56718">
        <ele>1035</ele>
        <time>2022-05-27T07:27:01Z</time>
      </trkpt>
      <trkpt lat="44.44986" lon="3.56718">
        <ele>1036</ele>
        <time>2022-05-27T07:27:02Z</time>
      </trkpt>
      <trkpt lat="44.44984" lon="3.56717">
        <ele>1036</ele>
        <time>2022-05-27T07:27:03Z</time>
      </trkpt>
      <trkpt lat="44.44983" lon="3.56717">
        <ele>1038</ele>
        <time>2022-05-27T07:27:04Z</time>
      </trkpt>
      <trkpt lat="44.44982" lon="3.56716">
        <ele>1038</ele>
        <time>2022-05-27T07:27:05Z</time>
      </trkpt>
      <trkpt lat="44.44981" lon="3.56716">
        <ele>1038</ele>
        <time>2022-05-27T07:27:06Z</time>
      </trkpt>
      <trkpt lat="44.4498" lon="3.56717">
        <ele>1038</ele>
        <time>2022-05-27T07:27:07Z</time>
      </trkpt>
      <trkpt lat="44.44979" lon="3.56717">
        <ele>1039</ele>
        <time>2022-05-27T07:27:08Z</time>
      </trkpt>
      <trkpt lat="44.44978" lon="3.56716">
        <ele>1038</ele>
        <time>2022-05-27T07:27:09Z</time>
      </trkpt>
      <trkpt lat="44.44976" lon="3.56716">
        <ele>1038</ele>
        <time>2022-05-27T07:27:10Z</time>
      </trkpt>
      <trkpt lat="44.44975" lon="3.56716">
        <ele>1039</ele>
        <time>2022-05-27T07:27:11Z</time>
      </trkpt>
      <trkpt lat="44.44974" lon="3.56715">
        <ele>1039</ele>
        <time>2022-05-27T07:27:12Z</time>
      </trkpt>
      <trkpt lat="44.44973" lon="3.56715">
        <ele>1038</ele>
        <time>2022-05-27T07:27:13Z</time>
      </trkpt>
      <trkpt lat="44.44972" lon="3.56714">
        <ele>1038</ele>
        <time>2022-05-27T07:27:14Z</time>
      </trkpt>
      <trkpt lat="44.44971" lon="3.56714">
        <ele>1038</ele>
        <time>2022-05-27T07:27:15Z</time>
      </trkpt>
      <trkpt lat="44.4497" lon="3.56714">
        <ele>1039</ele>
        <time>2022-05-27T07:27:16Z</time>
      </trkpt>
      <trkpt lat="44.44969" lon="3.56714">
        <ele>1039</ele>
        <time>2022-05-27T07:27:17Z</time>
      </trkpt>
      <trkpt lat="44.44968" lon="3.56714">
        <ele>1039</ele>
        <time>2022-05-27T07:27:18Z</time>
      </trkpt>
      <trkpt lat="44.44967" lon="3.56714">
        <ele>1038</ele>
        <time>2022-05-27T07:27:19Z</time>
      </trkpt>
      <trkpt lat="44.44965" lon="3.56714">
        <ele>1039</ele>
        <time>2022-05-27T07:27:20Z</time>
      </trkpt>
      <trkpt lat="44.44964" lon="3.56715">
        <ele>1039</ele>
        <time>2022-05-27T07:27:21Z</time>
      </trkpt>
      <trkpt lat="44.44964" lon="3.56715">
        <ele>1039</ele>
        <time>2022-05-27T07:27:22Z</time>
      </trkpt>
      <trkpt lat="44.44962" lon="3.56715">
        <ele>1039</ele>
        <time>2022-05-27T07:27:23Z</time>
      </trkpt>
      <trkpt lat="44.44961" lon="3.56715">
        <ele>1039</ele>
        <time>2022-05-27T07:27:24Z</time>
      </trkpt>
      <trkpt lat="44.4496" lon="3.56715">
        <ele>1038</ele>
        <time>2022-05-27T07:27:25Z</time>
      </trkpt>
      <trkpt lat="44.4496" lon="3.56714">
        <ele>1038</ele>
        <time>2022-05-27T07:27:26Z</time>
      </trkpt>
      <trkpt lat="44.44959" lon="3.56714">
        <ele>1039</ele>
        <time>2022-05-27T07:27:27Z</time>
      </trkpt>
      <trkpt lat="44.44958" lon="3.56714">
        <ele>1039</ele>
        <time>2022-05-27T07:27:28Z</time>
      </trkpt>
      <trkpt lat="44.44957" lon="3.56714">
        <ele>1039</ele>
        <time>2022-05-27T07:27:29Z</time>
      </trkpt>
      <trkpt lat="44.44956" lon="3.56714">
        <ele>1039</ele>
        <time>2022-05-27T07:27:30Z</time>
      </trkpt>
      <trkpt lat="44.44955" lon="3.56714">
        <ele>1039</ele>
        <time>2022-05-27T07:27:31Z</time>
      </trkpt>
      <trkpt lat="44.44954" lon="3.56714">
        <ele>1039</ele>
        <time>2022-05-27T07:27:32Z</time>
      </trkpt>
      <trkpt lat="44.44954" lon="3.56713">
        <ele>1039</ele>
        <time>2022-05-27T07:27:33Z</time>
      </trkpt>
      <trkpt lat="44.44952" lon="3.56712">
        <ele>1040</ele>
        <time>2022-05-27T07:27:34Z</time>
      </trkpt>
      <trkpt lat="44.44952" lon="3.56713">
        <ele>1040</ele>
        <time>2022-05-27T07:27:35Z</time>
      </trkpt>
      <trkpt lat="44.44951" lon="3.56713">
        <ele>1040</ele>
        <time>2022-05-27T07:27:36Z</time>
      </trkpt>
      <trkpt lat="44.4495" lon="3.56712">
        <ele>1039</ele>
        <time>2022-05-27T07:27:37Z</time>
      </trkpt>
      <trkpt lat="44.44949" lon="3.56712">
        <ele>1039</ele>
        <time>2022-05-27T07:27:38Z</time>
      </trkpt>
      <trkpt lat="44.44948" lon="3.56712">
        <ele>1039</ele>
        <time>2022-05-27T07:27:39Z</time>
      </trkpt>
      <trkpt lat="44.44947" lon="3.56713">
        <ele>1039</ele>
        <time>2022-05-27T07:27:40Z</time>
      </trkpt>
      <trkpt lat="44.44947" lon="3.56713">
        <ele>1039</ele>
        <time>2022-05-27T07:27:41Z</time>
      </trkpt>
      <trkpt lat="44.44946" lon="3.56713">
        <ele>1039</ele>
        <time>2022-05-27T07:27:42Z</time>
      </trkpt>
      <trkpt lat="44.44945" lon="3.56713">
        <ele>1040</ele>
        <time>2022-05-27T07:27:43Z</time>
      </trkpt>
      <trkpt lat="44.44944" lon="3.56713">
        <ele>1040</ele>
        <time>2022-05-27T07:27:44Z</time>
      </trkpt>
      <trkpt lat="44.44944" lon="3.56713">
        <ele>1041</ele>
        <time>2022-05-27T07:27:45Z</time>
      </trkpt>
      <trkpt lat="44.44943" lon="3.56712">
        <ele>1042</ele>
        <time>2022-05-27T07:27:46Z</time>
      </trkpt>
      <trkpt lat="44.44942" lon="3.56712">
        <ele>1042</ele>
        <time>2022-05-27T07:27:47Z</time>
      </trkpt>
      <trkpt lat="44.44942" lon="3.56712">
        <ele>1042</ele>
        <time>2022-05-27T07:27:48Z</time>
      </trkpt>
      <trkpt lat="44.44942" lon="3.56712">
        <ele>1042</ele>
        <time>2022-05-27T07:27:49Z</time>
      </trkpt>
      <trkpt lat="44.4494" lon="3.56712">
        <ele>1043</ele>
        <time>2022-05-27T07:27:50Z</time>
      </trkpt>
      <trkpt lat="44.44939" lon="3.56711">
        <ele>1043</ele>
        <time>2022-05-27T07:27:51Z</time>
      </trkpt>
      <trkpt lat="44.44938" lon="3.56711">
        <ele>1044</ele>
        <time>2022-05-27T07:27:52Z</time>
      </trkpt>
      <trkpt lat="44.44936" lon="3.56711">
        <ele>1045</ele>
        <time>2022-05-27T07:27:53Z</time>
      </trkpt>
      <trkpt lat="44.44936" lon="3.56712">
        <ele>1045</ele>
        <time>2022-05-27T07:27:54Z</time>
      </trkpt>
      <trkpt lat="44.44935" lon="3.56712">
        <ele>1046</ele>
        <time>2022-05-27T07:27:55Z</time>
      </trkpt>
      <trkpt lat="44.44934" lon="3.56712">
        <ele>1046</ele>
        <time>2022-05-27T07:27:56Z</time>
      </trkpt>
      <trkpt lat="44.44933" lon="3.56712">
        <ele>1046</ele>
        <time>2022-05-27T07:27:57Z</time>
      </trkpt>
      <trkpt lat="44.44933" lon="3.56712">
        <ele>1047</ele>
        <time>2022-05-27T07:27:58Z</time>
      </trkpt>
      <trkpt lat="44.44931" lon="3.56712">
        <ele>1048</ele>
        <time>2022-05-27T07:27:59Z</time>
      </trkpt>
      <trkpt lat="44.4493" lon="3.56712">
        <ele>1048</ele>
        <time>2022-05-27T07:28:00Z</time>
      </trkpt>
      <trkpt lat="44.44929" lon="3.56712">
        <ele>1048</ele>
        <time>2022-05-27T07:28:01Z</time>
      </trkpt>
      <trkpt lat="44.44928" lon="3.56712">
        <ele>1049</ele>
        <time>2022-05-27T07:28:02Z</time>
      </trkpt>
      <trkpt lat="44.44926" lon="3.56713">
        <ele>1049</ele>
        <time>2022-05-27T07:28:03Z</time>
      </trkpt>
      <trkpt lat="44.44925" lon="3.56713">
        <ele>1049</ele>
        <time>2022-05-27T07:28:04Z</time>
      </trkpt>
      <trkpt lat="44.44925" lon="3.56713">
        <ele>1048</ele>
        <time>2022-05-27T07:28:05Z</time>
      </trkpt>
      <trkpt lat="44.44924" lon="3.56714">
        <ele>1048</ele>
        <time>2022-05-27T07:28:06Z</time>
      </trkpt>
      <trkpt lat="44.44923" lon="3.56714">
        <ele>1048</ele>
        <time>2022-05-27T07:28:07Z</time>
      </trkpt>
      <trkpt lat="44.44921" lon="3.56714">
        <ele>1048</ele>
        <time>2022-05-27T07:28:08Z</time>
      </trkpt>
      <trkpt lat="44.4492" lon="3.56714">
        <ele>1047</ele>
        <time>2022-05-27T07:28:09Z</time>
      </trkpt>
      <trkpt lat="44.44919" lon="3.56714">
        <ele>1047</ele>
        <time>2022-05-27T07:28:10Z</time>
      </trkpt>
      <trkpt lat="44.44918" lon="3.56714">
        <ele>1048</ele>
        <time>2022-05-27T07:28:11Z</time>
      </trkpt>
      <trkpt lat="44.44917" lon="3.56715">
        <ele>1048</ele>
        <time>2022-05-27T07:28:12Z</time>
      </trkpt>
      <trkpt lat="44.44916" lon="3.56715">
        <ele>1048</ele>
        <time>2022-05-27T07:28:13Z</time>
      </trkpt>
      <trkpt lat="44.44915" lon="3.56715">
        <ele>1048</ele>
        <time>2022-05-27T07:28:14Z</time>
      </trkpt>
      <trkpt lat="44.44914" lon="3.56715">
        <ele>1048</ele>
        <time>2022-05-27T07:28:15Z</time>
      </trkpt>
      <trkpt lat="44.44912" lon="3.56716">
        <ele>1048</ele>
        <time>2022-05-27T07:28:16Z</time>
      </trkpt>
      <trkpt lat="44.44911" lon="3.56716">
        <ele>1049</ele>
        <time>2022-05-27T07:28:17Z</time>
      </trkpt>
      <trkpt lat="44.4491" lon="3.56717">
        <ele>1050</ele>
        <time>2022-05-27T07:28:18Z</time>
      </trkpt>
      <trkpt lat="44.44909" lon="3.56717">
        <ele>1049</ele>
        <time>2022-05-27T07:28:19Z</time>
      </trkpt>
      <trkpt lat="44.44908" lon="3.56717">
        <ele>1050</ele>
        <time>2022-05-27T07:28:20Z</time>
      </trkpt>
      <trkpt lat="44.44907" lon="3.56718">
        <ele>1051</ele>
        <time>2022-05-27T07:28:21Z</time>
      </trkpt>
      <trkpt lat="44.44906" lon="3.56718">
        <ele>1051</ele>
        <time>2022-05-27T07:28:22Z</time>
      </trkpt>
      <trkpt lat="44.44906" lon="3.56719">
        <ele>1051</ele>
        <time>2022-05-27T07:28:23Z</time>
      </trkpt>
      <trkpt lat="44.44905" lon="3.56719">
        <ele>1051</ele>
        <time>2022-05-27T07:28:24Z</time>
      </trkpt>
      <trkpt lat="44.44904" lon="3.56719">
        <ele>1051</ele>
        <time>2022-05-27T07:28:25Z</time>
      </trkpt>
      <trkpt lat="44.44903" lon="3.5672">
        <ele>1051</ele>
        <time>2022-05-27T07:28:26Z</time>
      </trkpt>
      <trkpt lat="44.44902" lon="3.5672">
        <ele>1051</ele>
        <time>2022-05-27T07:28:27Z</time>
      </trkpt>
      <trkpt lat="44.44901" lon="3.56721">
        <ele>1051</ele>
        <time>2022-05-27T07:28:28Z</time>
      </trkpt>
      <trkpt lat="44.449" lon="3.56721">
        <ele>1052</ele>
        <time>2022-05-27T07:28:29Z</time>
      </trkpt>
      <trkpt lat="44.44899" lon="3.56721">
        <ele>1052</ele>
        <time>2022-05-27T07:28:30Z</time>
      </trkpt>
      <trkpt lat="44.44898" lon="3.56722">
        <ele>1051</ele>
        <time>2022-05-27T07:28:31Z</time>
      </trkpt>
      <trkpt lat="44.44896" lon="3.56722">
        <ele>1051</ele>
        <time>2022-05-27T07:28:32Z</time>
      </trkpt>
      <trkpt lat="44.44895" lon="3.56723">
        <ele>1051</ele>
        <time>2022-05-27T07:28:33Z</time>
      </trkpt>
      <trkpt lat="44.44894" lon="3.56723">
        <ele>1051</ele>
        <time>2022-05-27T07:28:34Z</time>
      </trkpt>
      <trkpt lat="44.44893" lon="3.56723">
        <ele>1051</ele>
        <time>2022-05-27T07:28:35Z</time>
      </trkpt>
      <trkpt lat="44.44893" lon="3.56724">
        <ele>1050</ele>
        <time>2022-05-27T07:28:36Z</time>
      </trkpt>
      <trkpt lat="44.44891" lon="3.56724">
        <ele>1050</ele>
        <time>2022-05-27T07:28:37Z</time>
      </trkpt>
      <trkpt lat="44.4489" lon="3.56724">
        <ele>1050</ele>
        <time>2022-05-27T07:28:38Z</time>
      </trkpt>
      <trkpt lat="44.44889" lon="3.56724">
        <ele>1051</ele>
        <time>2022-05-27T07:28:39Z</time>
      </trkpt>
      <trkpt lat="44.44888" lon="3.56725">
        <ele>1051</ele>
        <time>2022-05-27T07:28:40Z</time>
      </trkpt>
      <trkpt lat="44.44888" lon="3.56725">
        <ele>1051</ele>
        <time>2022-05-27T07:28:41Z</time>
      </trkpt>
      <trkpt lat="44.44887" lon="3.56725">
        <ele>1051</ele>
        <time>2022-05-27T07:28:42Z</time>
      </trkpt>
      <trkpt lat="44.44886" lon="3.56725">
        <ele>1051</ele>
        <time>2022-05-27T07:28:43Z</time>
      </trkpt>
      <trkpt lat="44.44885" lon="3.56726">
        <ele>1051</ele>
        <time>2022-05-27T07:28:44Z</time>
      </trkpt>
      <trkpt lat="44.44884" lon="3.56725">
        <ele>1051</ele>
        <time>2022-05-27T07:28:45Z</time>
      </trkpt>
      <trkpt lat="44.44883" lon="3.56727">
        <ele>1051</ele>
        <time>2022-05-27T07:28:46Z</time>
      </trkpt>
      <trkpt lat="44.44883" lon="3.56728">
        <ele>1051</ele>
        <time>2022-05-27T07:28:47Z</time>
      </trkpt>
      <trkpt lat="44.44881" lon="3.56728">
        <ele>1051</ele>
        <time>2022-05-27T07:28:48Z</time>
      </trkpt>
      <trkpt lat="44.44881" lon="3.56728">
        <ele>1051</ele>
        <time>2022-05-27T07:28:49Z</time>
      </trkpt>
      <trkpt lat="44.4488" lon="3.56729">
        <ele>1052</ele>
        <time>2022-05-27T07:28:50Z</time>
      </trkpt>
      <trkpt lat="44.44879" lon="3.56729">
        <ele>1052</ele>
        <time>2022-05-27T07:28:51Z</time>
      </trkpt>
      <trkpt lat="44.44878" lon="3.56729">
        <ele>1052</ele>
        <time>2022-05-27T07:28:52Z</time>
      </trkpt>
      <trkpt lat="44.44877" lon="3.5673">
        <ele>1052</ele>
        <time>2022-05-27T07:28:53Z</time>
      </trkpt>
      <trkpt lat="44.44875" lon="3.5673">
        <ele>1053</ele>
        <time>2022-05-27T07:28:54Z</time>
      </trkpt>
      <trkpt lat="44.44874" lon="3.56731">
        <ele>1054</ele>
        <time>2022-05-27T07:28:55Z</time>
      </trkpt>
      <trkpt lat="44.44873" lon="3.56731">
        <ele>1054</ele>
        <time>2022-05-27T07:28:56Z</time>
      </trkpt>
      <trkpt lat="44.44872" lon="3.56731">
        <ele>1054</ele>
        <time>2022-05-27T07:28:57Z</time>
      </trkpt>
      <trkpt lat="44.4487" lon="3.56732">
        <ele>1055</ele>
        <time>2022-05-27T07:28:58Z</time>
      </trkpt>
      <trkpt lat="44.44869" lon="3.56732">
        <ele>1056</ele>
        <time>2022-05-27T07:28:59Z</time>
      </trkpt>
      <trkpt lat="44.44869" lon="3.56733">
        <ele>1056</ele>
        <time>2022-05-27T07:29:00Z</time>
      </trkpt>
      <trkpt lat="44.44867" lon="3.56733">
        <ele>1056</ele>
        <time>2022-05-27T07:29:01Z</time>
      </trkpt>
      <trkpt lat="44.44867" lon="3.56733">
        <ele>1057</ele>
        <time>2022-05-27T07:29:02Z</time>
      </trkpt>
      <trkpt lat="44.44866" lon="3.56734">
        <ele>1057</ele>
        <time>2022-05-27T07:29:03Z</time>
      </trkpt>
      <trkpt lat="44.44865" lon="3.56735">
        <ele>1057</ele>
        <time>2022-05-27T07:29:04Z</time>
      </trkpt>
      <trkpt lat="44.44864" lon="3.56735">
        <ele>1058</ele>
        <time>2022-05-27T07:29:05Z</time>
      </trkpt>
      <trkpt lat="44.44863" lon="3.56736">
        <ele>1057</ele>
        <time>2022-05-27T07:29:06Z</time>
      </trkpt>
      <trkpt lat="44.44862" lon="3.56737">
        <ele>1057</ele>
        <time>2022-05-27T07:29:07Z</time>
      </trkpt>
      <trkpt lat="44.44862" lon="3.56738">
        <ele>1058</ele>
        <time>2022-05-27T07:29:08Z</time>
      </trkpt>
      <trkpt lat="44.44861" lon="3.56739">
        <ele>1057</ele>
        <time>2022-05-27T07:29:09Z</time>
      </trkpt>
      <trkpt lat="44.44859" lon="3.5674">
        <ele>1057</ele>
        <time>2022-05-27T07:29:10Z</time>
      </trkpt>
      <trkpt lat="44.44859" lon="3.5674">
        <ele>1057</ele>
        <time>2022-05-27T07:29:11Z</time>
      </trkpt>
      <trkpt lat="44.44857" lon="3.56741">
        <ele>1057</ele>
        <time>2022-05-27T07:29:12Z</time>
      </trkpt>
      <trkpt lat="44.44857" lon="3.56742">
        <ele>1057</ele>
        <time>2022-05-27T07:29:13Z</time>
      </trkpt>
      <trkpt lat="44.44856" lon="3.56743">
        <ele>1057</ele>
        <time>2022-05-27T07:29:14Z</time>
      </trkpt>
      <trkpt lat="44.44855" lon="3.56744">
        <ele>1057</ele>
        <time>2022-05-27T07:29:15Z</time>
      </trkpt>
      <trkpt lat="44.44854" lon="3.56744">
        <ele>1057</ele>
        <time>2022-05-27T07:29:16Z</time>
      </trkpt>
      <trkpt lat="44.44854" lon="3.56745">
        <ele>1057</ele>
        <time>2022-05-27T07:29:17Z</time>
      </trkpt>
      <trkpt lat="44.44853" lon="3.56746">
        <ele>1057</ele>
        <time>2022-05-27T07:29:18Z</time>
      </trkpt>
      <trkpt lat="44.44852" lon="3.56746">
        <ele>1057</ele>
        <time>2022-05-27T07:29:19Z</time>
      </trkpt>
      <trkpt lat="44.44851" lon="3.56747">
        <ele>1057</ele>
        <time>2022-05-27T07:29:20Z</time>
      </trkpt>
      <trkpt lat="44.4485" lon="3.56748">
        <ele>1057</ele>
        <time>2022-05-27T07:29:21Z</time>
      </trkpt>
      <trkpt lat="44.4485" lon="3.56749">
        <ele>1057</ele>
        <time>2022-05-27T07:29:22Z</time>
      </trkpt>
      <trkpt lat="44.44849" lon="3.56749">
        <ele>1057</ele>
        <time>2022-05-27T07:29:23Z</time>
      </trkpt>
      <trkpt lat="44.44848" lon="3.5675">
        <ele>1057</ele>
        <time>2022-05-27T07:29:24Z</time>
      </trkpt>
      <trkpt lat="44.44847" lon="3.56751">
        <ele>1057</ele>
        <time>2022-05-27T07:29:25Z</time>
      </trkpt>
      <trkpt lat="44.44846" lon="3.56752">
        <ele>1057</ele>
        <time>2022-05-27T07:29:26Z</time>
      </trkpt>
      <trkpt lat="44.44845" lon="3.56753">
        <ele>1057</ele>
        <time>2022-05-27T07:29:27Z</time>
      </trkpt>
      <trkpt lat="44.44844" lon="3.56754">
        <ele>1056</ele>
        <time>2022-05-27T07:29:28Z</time>
      </trkpt>
      <trkpt lat="44.44843" lon="3.56755">
        <ele>1056</ele>
        <time>2022-05-27T07:29:29Z</time>
      </trkpt>
      <trkpt lat="44.44842" lon="3.56756">
        <ele>1055</ele>
        <time>2022-05-27T07:29:30Z</time>
      </trkpt>
      <trkpt lat="44.44841" lon="3.56757">
        <ele>1056</ele>
        <time>2022-05-27T07:29:31Z</time>
      </trkpt>
      <trkpt lat="44.4484" lon="3.56758">
        <ele>1055</ele>
        <time>2022-05-27T07:29:32Z</time>
      </trkpt>
      <trkpt lat="44.44839" lon="3.56759">
        <ele>1056</ele>
        <time>2022-05-27T07:29:33Z</time>
      </trkpt>
      <trkpt lat="44.44838" lon="3.56759">
        <ele>1057</ele>
        <time>2022-05-27T07:29:34Z</time>
      </trkpt>
      <trkpt lat="44.44837" lon="3.56759">
        <ele>1057</ele>
        <time>2022-05-27T07:29:35Z</time>
      </trkpt>
      <trkpt lat="44.44836" lon="3.5676">
        <ele>1057</ele>
        <time>2022-05-27T07:29:36Z</time>
      </trkpt>
      <trkpt lat="44.44836" lon="3.56761">
        <ele>1057</ele>
        <time>2022-05-27T07:29:37Z</time>
      </trkpt>
      <trkpt lat="44.44835" lon="3.56762">
        <ele>1057</ele>
        <time>2022-05-27T07:29:38Z</time>
      </trkpt>
      <trkpt lat="44.44835" lon="3.56763">
        <ele>1058</ele>
        <time>2022-05-27T07:29:39Z</time>
      </trkpt>
      <trkpt lat="44.44834" lon="3.56764">
        <ele>1058</ele>
        <time>2022-05-27T07:29:40Z</time>
      </trkpt>
      <trkpt lat="44.44833" lon="3.56765">
        <ele>1058</ele>
        <time>2022-05-27T07:29:41Z</time>
      </trkpt>
      <trkpt lat="44.44833" lon="3.56765">
        <ele>1057</ele>
        <time>2022-05-27T07:29:42Z</time>
      </trkpt>
      <trkpt lat="44.44832" lon="3.56766">
        <ele>1057</ele>
        <time>2022-05-27T07:29:43Z</time>
      </trkpt>
      <trkpt lat="44.44831" lon="3.56767">
        <ele>1057</ele>
        <time>2022-05-27T07:29:44Z</time>
      </trkpt>
      <trkpt lat="44.4483" lon="3.56768">
        <ele>1057</ele>
        <time>2022-05-27T07:29:45Z</time>
      </trkpt>
      <trkpt lat="44.4483" lon="3.56769">
        <ele>1058</ele>
        <time>2022-05-27T07:29:46Z</time>
      </trkpt>
      <trkpt lat="44.4483" lon="3.56769">
        <ele>1058</ele>
        <time>2022-05-27T07:29:47Z</time>
      </trkpt>
      <trkpt lat="44.44829" lon="3.5677">
        <ele>1057</ele>
        <time>2022-05-27T07:29:48Z</time>
      </trkpt>
      <trkpt lat="44.44829" lon="3.5677">
        <ele>1058</ele>
        <time>2022-05-27T07:29:49Z</time>
      </trkpt>
      <trkpt lat="44.44828" lon="3.56771">
        <ele>1057</ele>
        <time>2022-05-27T07:29:50Z</time>
      </trkpt>
      <trkpt lat="44.44828" lon="3.56771">
        <ele>1057</ele>
        <time>2022-05-27T07:29:51Z</time>
      </trkpt>
      <trkpt lat="44.44828" lon="3.56772">
        <ele>1058</ele>
        <time>2022-05-27T07:29:52Z</time>
      </trkpt>
      <trkpt lat="44.44827" lon="3.56773">
        <ele>1058</ele>
        <time>2022-05-27T07:29:53Z</time>
      </trkpt>
      <trkpt lat="44.44827" lon="3.56773">
        <ele>1059</ele>
        <time>2022-05-27T07:29:54Z</time>
      </trkpt>
      <trkpt lat="44.44826" lon="3.56774">
        <ele>1059</ele>
        <time>2022-05-27T07:29:55Z</time>
      </trkpt>
      <trkpt lat="44.44826" lon="3.56775">
        <ele>1059</ele>
        <time>2022-05-27T07:29:56Z</time>
      </trkpt>
      <trkpt lat="44.44825" lon="3.56776">
        <ele>1059</ele>
        <time>2022-05-27T07:29:57Z</time>
      </trkpt>
      <trkpt lat="44.44825" lon="3.56776">
        <ele>1059</ele>
        <time>2022-05-27T07:29:58Z</time>
      </trkpt>
      <trkpt lat="44.44825" lon="3.56775">
        <ele>1059</ele>
        <time>2022-05-27T07:29:59Z</time>
      </trkpt>
      <trkpt lat="44.44825" lon="3.56775">
        <ele>1059</ele>
        <time>2022-05-27T07:30:00Z</time>
      </trkpt>
      <trkpt lat="44.44825" lon="3.56775">
        <ele>1059</ele>
        <time>2022-05-27T07:30:01Z</time>
      </trkpt>
      <trkpt lat="44.44825" lon="3.56775">
        <ele>1059</ele>
        <time>2022-05-27T07:30:01Z</time>
      </trkpt>
      <trkpt lat="44.44825" lon="3.56775">
        <ele>1059</ele>
        <time>2022-05-27T07:30:01Z</time>
      </trkpt>
      <trkpt lat="44.44825" lon="3.56775">
        <ele>1059</ele>
        <time>2022-05-27T07:30:01Z</time>
      </trkpt>
      <trkpt lat="44.44824" lon="3.5678">
        <ele>1061</ele>
        <time>2022-05-27T07:30:12Z</time>
      </trkpt>
      <trkpt lat="44.44824" lon="3.56781">
        <ele>1061</ele>
        <time>2022-05-27T07:30:13Z</time>
      </trkpt>
      <trkpt lat="44.44823" lon="3.56783">
        <ele>1061</ele>
        <time>2022-05-27T07:30:14Z</time>
      </trkpt>
      <trkpt lat="44.44822" lon="3.56784">
        <ele>1061</ele>
        <time>2022-05-27T07:30:15Z</time>
      </trkpt>
      <trkpt lat="44.44822" lon="3.56785">
        <ele>1060</ele>
        <time>2022-05-27T07:30:16Z</time>
      </trkpt>
      <trkpt lat="44.44821" lon="3.56786">
        <ele>1061</ele>
        <time>2022-05-27T07:30:17Z</time>
      </trkpt>
      <trkpt lat="44.4482" lon="3.56786">
        <ele>1062</ele>
        <time>2022-05-27T07:30:18Z</time>
      </trkpt>
      <trkpt lat="44.44819" lon="3.56787">
        <ele>1062</ele>
        <time>2022-05-27T07:30:19Z</time>
      </trkpt>
      <trkpt lat="44.44819" lon="3.56788">
        <ele>1062</ele>
        <time>2022-05-27T07:30:20Z</time>
      </trkpt>
      <trkpt lat="44.44818" lon="3.56788">
        <ele>1063</ele>
        <time>2022-05-27T07:30:21Z</time>
      </trkpt>
      <trkpt lat="44.44817" lon="3.56789">
        <ele>1063</ele>
        <time>2022-05-27T07:30:22Z</time>
      </trkpt>
      <trkpt lat="44.44817" lon="3.56789">
        <ele>1063</ele>
        <time>2022-05-27T07:30:23Z</time>
      </trkpt>
      <trkpt lat="44.44816" lon="3.5679">
        <ele>1064</ele>
        <time>2022-05-27T07:30:24Z</time>
      </trkpt>
      <trkpt lat="44.44816" lon="3.56791">
        <ele>1064</ele>
        <time>2022-05-27T07:30:25Z</time>
      </trkpt>
      <trkpt lat="44.44816" lon="3.56792">
        <ele>1064</ele>
        <time>2022-05-27T07:30:26Z</time>
      </trkpt>
      <trkpt lat="44.44815" lon="3.56793">
        <ele>1064</ele>
        <time>2022-05-27T07:30:27Z</time>
      </trkpt>
      <trkpt lat="44.44814" lon="3.56794">
        <ele>1064</ele>
        <time>2022-05-27T07:30:28Z</time>
      </trkpt>
      <trkpt lat="44.44813" lon="3.56795">
        <ele>1064</ele>
        <time>2022-05-27T07:30:29Z</time>
      </trkpt>
      <trkpt lat="44.44812" lon="3.56796">
        <ele>1065</ele>
        <time>2022-05-27T07:30:30Z</time>
      </trkpt>
      <trkpt lat="44.44812" lon="3.56797">
        <ele>1064</ele>
        <time>2022-05-27T07:30:31Z</time>
      </trkpt>
      <trkpt lat="44.44811" lon="3.56798">
        <ele>1065</ele>
        <time>2022-05-27T07:30:32Z</time>
      </trkpt>
      <trkpt lat="44.4481" lon="3.56799">
        <ele>1064</ele>
        <time>2022-05-27T07:30:33Z</time>
      </trkpt>
      <trkpt lat="44.44809" lon="3.568">
        <ele>1064</ele>
        <time>2022-05-27T07:30:34Z</time>
      </trkpt>
      <trkpt lat="44.44809" lon="3.56801">
        <ele>1064</ele>
        <time>2022-05-27T07:30:35Z</time>
      </trkpt>
      <trkpt lat="44.44808" lon="3.56802">
        <ele>1064</ele>
        <time>2022-05-27T07:30:36Z</time>
      </trkpt>
      <trkpt lat="44.44807" lon="3.56804">
        <ele>1063</ele>
        <time>2022-05-27T07:30:37Z</time>
      </trkpt>
      <trkpt lat="44.44807" lon="3.56805">
        <ele>1063</ele>
        <time>2022-05-27T07:30:38Z</time>
      </trkpt>
      <trkpt lat="44.44806" lon="3.56806">
        <ele>1063</ele>
        <time>2022-05-27T07:30:39Z</time>
      </trkpt>
      <trkpt lat="44.44805" lon="3.56807">
        <ele>1064</ele>
        <time>2022-05-27T07:30:40Z</time>
      </trkpt>
      <trkpt lat="44.44805" lon="3.56809">
        <ele>1064</ele>
        <time>2022-05-27T07:30:41Z</time>
      </trkpt>
      <trkpt lat="44.44804" lon="3.56811">
        <ele>1065</ele>
        <time>2022-05-27T07:30:42Z</time>
      </trkpt>
      <trkpt lat="44.44804" lon="3.56813">
        <ele>1066</ele>
        <time>2022-05-27T07:30:43Z</time>
      </trkpt>
      <trkpt lat="44.44803" lon="3.56814">
        <ele>1066</ele>
        <time>2022-05-27T07:30:44Z</time>
      </trkpt>
      <trkpt lat="44.44803" lon="3.56816">
        <ele>1066</ele>
        <time>2022-05-27T07:30:45Z</time>
      </trkpt>
      <trkpt lat="44.44803" lon="3.56818">
        <ele>1066</ele>
        <time>2022-05-27T07:30:46Z</time>
      </trkpt>
      <trkpt lat="44.44802" lon="3.56819">
        <ele>1066</ele>
        <time>2022-05-27T07:30:47Z</time>
      </trkpt>
      <trkpt lat="44.44801" lon="3.56821">
        <ele>1066</ele>
        <time>2022-05-27T07:30:48Z</time>
      </trkpt>
      <trkpt lat="44.448" lon="3.56823">
        <ele>1065</ele>
        <time>2022-05-27T07:30:49Z</time>
      </trkpt>
      <trkpt lat="44.44799" lon="3.56825">
        <ele>1065</ele>
        <time>2022-05-27T07:30:50Z</time>
      </trkpt>
      <trkpt lat="44.44799" lon="3.56826">
        <ele>1065</ele>
        <time>2022-05-27T07:30:51Z</time>
      </trkpt>
      <trkpt lat="44.44798" lon="3.56828">
        <ele>1064</ele>
        <time>2022-05-27T07:30:52Z</time>
      </trkpt>
      <trkpt lat="44.44798" lon="3.56829">
        <ele>1064</ele>
        <time>2022-05-27T07:30:53Z</time>
      </trkpt>
      <trkpt lat="44.44797" lon="3.56831">
        <ele>1064</ele>
        <time>2022-05-27T07:30:54Z</time>
      </trkpt>
      <trkpt lat="44.44796" lon="3.56832">
        <ele>1064</ele>
        <time>2022-05-27T07:30:55Z</time>
      </trkpt>
      <trkpt lat="44.44796" lon="3.56834">
        <ele>1063</ele>
        <time>2022-05-27T07:30:56Z</time>
      </trkpt>
      <trkpt lat="44.44796" lon="3.56835">
        <ele>1063</ele>
        <time>2022-05-27T07:30:57Z</time>
      </trkpt>
      <trkpt lat="44.44795" lon="3.56837">
        <ele>1063</ele>
        <time>2022-05-27T07:30:58Z</time>
      </trkpt>
      <trkpt lat="44.44794" lon="3.56838">
        <ele>1064</ele>
        <time>2022-05-27T07:30:59Z</time>
      </trkpt>
      <trkpt lat="44.44794" lon="3.56839">
        <ele>1063</ele>
        <time>2022-05-27T07:31:00Z</time>
      </trkpt>
      <trkpt lat="44.44793" lon="3.5684">
        <ele>1063</ele>
        <time>2022-05-27T07:31:01Z</time>
      </trkpt>
      <trkpt lat="44.44792" lon="3.56841">
        <ele>1063</ele>
        <time>2022-05-27T07:31:02Z</time>
      </trkpt>
      <trkpt lat="44.44791" lon="3.56842">
        <ele>1062</ele>
        <time>2022-05-27T07:31:03Z</time>
      </trkpt>
      <trkpt lat="44.44791" lon="3.56843">
        <ele>1062</ele>
        <time>2022-05-27T07:31:04Z</time>
      </trkpt>
      <trkpt lat="44.4479" lon="3.56844">
        <ele>1063</ele>
        <time>2022-05-27T07:31:05Z</time>
      </trkpt>
      <trkpt lat="44.4479" lon="3.56845">
        <ele>1064</ele>
        <time>2022-05-27T07:31:06Z</time>
      </trkpt>
      <trkpt lat="44.44789" lon="3.56846">
        <ele>1064</ele>
        <time>2022-05-27T07:31:07Z</time>
      </trkpt>
      <trkpt lat="44.44789" lon="3.56847">
        <ele>1064</ele>
        <time>2022-05-27T07:31:08Z</time>
      </trkpt>
      <trkpt lat="44.44788" lon="3.56848">
        <ele>1064</ele>
        <time>2022-05-27T07:31:09Z</time>
      </trkpt>
      <trkpt lat="44.44787" lon="3.56849">
        <ele>1063</ele>
        <time>2022-05-27T07:31:10Z</time>
      </trkpt>
      <trkpt lat="44.44787" lon="3.5685">
        <ele>1064</ele>
        <time>2022-05-27T07:31:11Z</time>
      </trkpt>
      <trkpt lat="44.44787" lon="3.56851">
        <ele>1064</ele>
        <time>2022-05-27T07:31:12Z</time>
      </trkpt>
      <trkpt lat="44.44786" lon="3.56853">
        <ele>1064</ele>
        <time>2022-05-27T07:31:13Z</time>
      </trkpt>
      <trkpt lat="44.44786" lon="3.56854">
        <ele>1065</ele>
        <time>2022-05-27T07:31:14Z</time>
      </trkpt>
      <trkpt lat="44.44785" lon="3.56856">
        <ele>1065</ele>
        <time>2022-05-27T07:31:15Z</time>
      </trkpt>
      <trkpt lat="44.44785" lon="3.56857">
        <ele>1065</ele>
        <time>2022-05-27T07:31:16Z</time>
      </trkpt>
      <trkpt lat="44.44784" lon="3.56858">
        <ele>1064</ele>
        <time>2022-05-27T07:31:17Z</time>
      </trkpt>
      <trkpt lat="44.44783" lon="3.5686">
        <ele>1064</ele>
        <time>2022-05-27T07:31:18Z</time>
      </trkpt>
      <trkpt lat="44.44782" lon="3.56861">
        <ele>1064</ele>
        <time>2022-05-27T07:31:19Z</time>
      </trkpt>
      <trkpt lat="44.44782" lon="3.56863">
        <ele>1064</ele>
        <time>2022-05-27T07:31:20Z</time>
      </trkpt>
      <trkpt lat="44.44781" lon="3.56864">
        <ele>1064</ele>
        <time>2022-05-27T07:31:21Z</time>
      </trkpt>
      <trkpt lat="44.44781" lon="3.56865">
        <ele>1064</ele>
        <time>2022-05-27T07:31:22Z</time>
      </trkpt>
      <trkpt lat="44.4478" lon="3.56867">
        <ele>1063</ele>
        <time>2022-05-27T07:31:23Z</time>
      </trkpt>
      <trkpt lat="44.4478" lon="3.56868">
        <ele>1063</ele>
        <time>2022-05-27T07:31:24Z</time>
      </trkpt>
      <trkpt lat="44.4478" lon="3.56869">
        <ele>1063</ele>
        <time>2022-05-27T07:31:25Z</time>
      </trkpt>
      <trkpt lat="44.4478" lon="3.5687">
        <ele>1064</ele>
        <time>2022-05-27T07:31:26Z</time>
      </trkpt>
      <trkpt lat="44.44779" lon="3.56871">
        <ele>1064</ele>
        <time>2022-05-27T07:31:27Z</time>
      </trkpt>
      <trkpt lat="44.44779" lon="3.56873">
        <ele>1065</ele>
        <time>2022-05-27T07:31:28Z</time>
      </trkpt>
      <trkpt lat="44.44778" lon="3.56874">
        <ele>1064</ele>
        <time>2022-05-27T07:31:29Z</time>
      </trkpt>
      <trkpt lat="44.44778" lon="3.56875">
        <ele>1064</ele>
        <time>2022-05-27T07:31:30Z</time>
      </trkpt>
      <trkpt lat="44.44777" lon="3.56876">
        <ele>1065</ele>
        <time>2022-05-27T07:31:31Z</time>
      </trkpt>
      <trkpt lat="44.44776" lon="3.56877">
        <ele>1066</ele>
        <time>2022-05-27T07:31:32Z</time>
      </trkpt>
      <trkpt lat="44.44775" lon="3.56878">
        <ele>1066</ele>
        <time>2022-05-27T07:31:33Z</time>
      </trkpt>
      <trkpt lat="44.44775" lon="3.56878">
        <ele>1066</ele>
        <time>2022-05-27T07:31:34Z</time>
      </trkpt>
      <trkpt lat="44.44774" lon="3.5688">
        <ele>1066</ele>
        <time>2022-05-27T07:31:35Z</time>
      </trkpt>
      <trkpt lat="44.44774" lon="3.56881">
        <ele>1066</ele>
        <time>2022-05-27T07:31:36Z</time>
      </trkpt>
      <trkpt lat="44.44774" lon="3.56883">
        <ele>1067</ele>
        <time>2022-05-27T07:31:37Z</time>
      </trkpt>
      <trkpt lat="44.44773" lon="3.56883">
        <ele>1067</ele>
        <time>2022-05-27T07:31:38Z</time>
      </trkpt>
      <trkpt lat="44.44772" lon="3.56885">
        <ele>1067</ele>
        <time>2022-05-27T07:31:39Z</time>
      </trkpt>
      <trkpt lat="44.44772" lon="3.56886">
        <ele>1067</ele>
        <time>2022-05-27T07:31:40Z</time>
      </trkpt>
      <trkpt lat="44.44772" lon="3.56887">
        <ele>1067</ele>
        <time>2022-05-27T07:31:41Z</time>
      </trkpt>
      <trkpt lat="44.44772" lon="3.56888">
        <ele>1067</ele>
        <time>2022-05-27T07:31:42Z</time>
      </trkpt>
      <trkpt lat="44.44771" lon="3.56889">
        <ele>1067</ele>
        <time>2022-05-27T07:31:43Z</time>
      </trkpt>
      <trkpt lat="44.4477" lon="3.5689">
        <ele>1067</ele>
        <time>2022-05-27T07:31:44Z</time>
      </trkpt>
      <trkpt lat="44.4477" lon="3.56891">
        <ele>1067</ele>
        <time>2022-05-27T07:31:45Z</time>
      </trkpt>
      <trkpt lat="44.44769" lon="3.56892">
        <ele>1068</ele>
        <time>2022-05-27T07:31:46Z</time>
      </trkpt>
      <trkpt lat="44.44769" lon="3.56892">
        <ele>1069</ele>
        <time>2022-05-27T07:31:47Z</time>
      </trkpt>
      <trkpt lat="44.44769" lon="3.56893">
        <ele>1070</ele>
        <time>2022-05-27T07:31:48Z</time>
      </trkpt>
      <trkpt lat="44.44769" lon="3.56894">
        <ele>1070</ele>
        <time>2022-05-27T07:31:49Z</time>
      </trkpt>
      <trkpt lat="44.44768" lon="3.56896">
        <ele>1070</ele>
        <time>2022-05-27T07:31:50Z</time>
      </trkpt>
      <trkpt lat="44.44767" lon="3.56897">
        <ele>1070</ele>
        <time>2022-05-27T07:31:51Z</time>
      </trkpt>
      <trkpt lat="44.44767" lon="3.56897">
        <ele>1071</ele>
        <time>2022-05-27T07:31:52Z</time>
      </trkpt>
      <trkpt lat="44.44767" lon="3.56899">
        <ele>1071</ele>
        <time>2022-05-27T07:31:53Z</time>
      </trkpt>
      <trkpt lat="44.44766" lon="3.569">
        <ele>1072</ele>
        <time>2022-05-27T07:31:54Z</time>
      </trkpt>
      <trkpt lat="44.44766" lon="3.56902">
        <ele>1072</ele>
        <time>2022-05-27T07:31:55Z</time>
      </trkpt>
      <trkpt lat="44.44765" lon="3.56903">
        <ele>1072</ele>
        <time>2022-05-27T07:31:56Z</time>
      </trkpt>
      <trkpt lat="44.44764" lon="3.56903">
        <ele>1071</ele>
        <time>2022-05-27T07:31:57Z</time>
      </trkpt>
      <trkpt lat="44.44764" lon="3.56904">
        <ele>1071</ele>
        <time>2022-05-27T07:31:58Z</time>
      </trkpt>
      <trkpt lat="44.44763" lon="3.56906">
        <ele>1071</ele>
        <time>2022-05-27T07:31:59Z</time>
      </trkpt>
      <trkpt lat="44.44762" lon="3.56906">
        <ele>1071</ele>
        <time>2022-05-27T07:32:00Z</time>
      </trkpt>
      <trkpt lat="44.44762" lon="3.56907">
        <ele>1071</ele>
        <time>2022-05-27T07:32:01Z</time>
      </trkpt>
      <trkpt lat="44.44761" lon="3.56908">
        <ele>1072</ele>
        <time>2022-05-27T07:32:02Z</time>
      </trkpt>
      <trkpt lat="44.4476" lon="3.56909">
        <ele>1072</ele>
        <time>2022-05-27T07:32:03Z</time>
      </trkpt>
      <trkpt lat="44.44759" lon="3.56909">
        <ele>1072</ele>
        <time>2022-05-27T07:32:04Z</time>
      </trkpt>
      <trkpt lat="44.44758" lon="3.5691">
        <ele>1073</ele>
        <time>2022-05-27T07:32:05Z</time>
      </trkpt>
      <trkpt lat="44.44758" lon="3.56911">
        <ele>1073</ele>
        <time>2022-05-27T07:32:06Z</time>
      </trkpt>
      <trkpt lat="44.44757" lon="3.56912">
        <ele>1073</ele>
        <time>2022-05-27T07:32:07Z</time>
      </trkpt>
      <trkpt lat="44.44756" lon="3.56913">
        <ele>1074</ele>
        <time>2022-05-27T07:32:08Z</time>
      </trkpt>
      <trkpt lat="44.44756" lon="3.56914">
        <ele>1073</ele>
        <time>2022-05-27T07:32:09Z</time>
      </trkpt>
      <trkpt lat="44.44756" lon="3.56914">
        <ele>1074</ele>
        <time>2022-05-27T07:32:10Z</time>
      </trkpt>
      <trkpt lat="44.44755" lon="3.56915">
        <ele>1074</ele>
        <time>2022-05-27T07:32:11Z</time>
      </trkpt>
      <trkpt lat="44.44755" lon="3.56915">
        <ele>1074</ele>
        <time>2022-05-27T07:32:12Z</time>
      </trkpt>
      <trkpt lat="44.44755" lon="3.56915">
        <ele>1074</ele>
        <time>2022-05-27T07:32:13Z</time>
      </trkpt>
      <trkpt lat="44.44755" lon="3.56917">
        <ele>1077</ele>
        <time>2022-05-27T07:32:14Z</time>
      </trkpt>
      <trkpt lat="44.44754" lon="3.56917">
        <ele>1078</ele>
        <time>2022-05-27T07:32:15Z</time>
      </trkpt>
      <trkpt lat="44.44754" lon="3.56918">
        <ele>1078</ele>
        <time>2022-05-27T07:32:16Z</time>
      </trkpt>
      <trkpt lat="44.44753" lon="3.56919">
        <ele>1079</ele>
        <time>2022-05-27T07:32:17Z</time>
      </trkpt>
      <trkpt lat="44.44752" lon="3.56919">
        <ele>1080</ele>
        <time>2022-05-27T07:32:18Z</time>
      </trkpt>
      <trkpt lat="44.44752" lon="3.5692">
        <ele>1081</ele>
        <time>2022-05-27T07:32:19Z</time>
      </trkpt>
      <trkpt lat="44.44751" lon="3.56921">
        <ele>1081</ele>
        <time>2022-05-27T07:32:20Z</time>
      </trkpt>
      <trkpt lat="44.4475" lon="3.56922">
        <ele>1082</ele>
        <time>2022-05-27T07:32:21Z</time>
      </trkpt>
      <trkpt lat="44.4475" lon="3.56922">
        <ele>1082</ele>
        <time>2022-05-27T07:32:22Z</time>
      </trkpt>
      <trkpt lat="44.44749" lon="3.56922">
        <ele>1082</ele>
        <time>2022-05-27T07:32:23Z</time>
      </trkpt>
      <trkpt lat="44.44749" lon="3.56922">
        <ele>1083</ele>
        <time>2022-05-27T07:32:24Z</time>
      </trkpt>
      <trkpt lat="44.44748" lon="3.56922">
        <ele>1084</ele>
        <time>2022-05-27T07:32:25Z</time>
      </trkpt>
      <trkpt lat="44.44747" lon="3.56922">
        <ele>1085</ele>
        <time>2022-05-27T07:32:26Z</time>
      </trkpt>
      <trkpt lat="44.44746" lon="3.56923">
        <ele>1086</ele>
        <time>2022-05-27T07:32:27Z</time>
      </trkpt>
      <trkpt lat="44.44746" lon="3.56923">
        <ele>1086</ele>
        <time>2022-05-27T07:32:28Z</time>
      </trkpt>
      <trkpt lat="44.44745" lon="3.56923">
        <ele>1087</ele>
        <time>2022-05-27T07:32:29Z</time>
      </trkpt>
      <trkpt lat="44.44745" lon="3.56923">
        <ele>1087</ele>
        <time>2022-05-27T07:32:30Z</time>
      </trkpt>
      <trkpt lat="44.44743" lon="3.56922">
        <ele>1088</ele>
        <time>2022-05-27T07:32:31Z</time>
      </trkpt>
      <trkpt lat="44.44743" lon="3.56922">
        <ele>1088</ele>
        <time>2022-05-27T07:32:32Z</time>
      </trkpt>
      <trkpt lat="44.44741" lon="3.56922">
        <ele>1088</ele>
        <time>2022-05-27T07:32:33Z</time>
      </trkpt>
      <trkpt lat="44.4474" lon="3.56922">
        <ele>1089</ele>
        <time>2022-05-27T07:32:34Z</time>
      </trkpt>
      <trkpt lat="44.44739" lon="3.56922">
        <ele>1089</ele>
        <time>2022-05-27T07:32:35Z</time>
      </trkpt>
      <trkpt lat="44.44738" lon="3.56922">
        <ele>1090</ele>
        <time>2022-05-27T07:32:36Z</time>
      </trkpt>
      <trkpt lat="44.44737" lon="3.56922">
        <ele>1090</ele>
        <time>2022-05-27T07:32:37Z</time>
      </trkpt>
      <trkpt lat="44.44737" lon="3.56922">
        <ele>1090</ele>
        <time>2022-05-27T07:32:38Z</time>
      </trkpt>
      <trkpt lat="44.44736" lon="3.56921">
        <ele>1091</ele>
        <time>2022-05-27T07:32:39Z</time>
      </trkpt>
      <trkpt lat="44.44735" lon="3.56921">
        <ele>1091</ele>
        <time>2022-05-27T07:32:40Z</time>
      </trkpt>
      <trkpt lat="44.44734" lon="3.56921">
        <ele>1092</ele>
        <time>2022-05-27T07:32:41Z</time>
      </trkpt>
      <trkpt lat="44.44733" lon="3.56921">
        <ele>1092</ele>
        <time>2022-05-27T07:32:42Z</time>
      </trkpt>
      <trkpt lat="44.44732" lon="3.56921">
        <ele>1093</ele>
        <time>2022-05-27T07:32:43Z</time>
      </trkpt>
      <trkpt lat="44.44731" lon="3.56922">
        <ele>1094</ele>
        <time>2022-05-27T07:32:44Z</time>
      </trkpt>
      <trkpt lat="44.4473" lon="3.56922">
        <ele>1094</ele>
        <time>2022-05-27T07:32:45Z</time>
      </trkpt>
      <trkpt lat="44.44729" lon="3.56923">
        <ele>1095</ele>
        <time>2022-05-27T07:32:46Z</time>
      </trkpt>
      <trkpt lat="44.44728" lon="3.56923">
        <ele>1095</ele>
        <time>2022-05-27T07:32:47Z</time>
      </trkpt>
      <trkpt lat="44.44727" lon="3.56923">
        <ele>1096</ele>
        <time>2022-05-27T07:32:48Z</time>
      </trkpt>
      <trkpt lat="44.44726" lon="3.56923">
        <ele>1097</ele>
        <time>2022-05-27T07:32:49Z</time>
      </trkpt>
      <trkpt lat="44.44725" lon="3.56923">
        <ele>1097</ele>
        <time>2022-05-27T07:32:50Z</time>
      </trkpt>
      <trkpt lat="44.44724" lon="3.56924">
        <ele>1098</ele>
        <time>2022-05-27T07:32:51Z</time>
      </trkpt>
      <trkpt lat="44.44723" lon="3.56924">
        <ele>1099</ele>
        <time>2022-05-27T07:32:52Z</time>
      </trkpt>
      <trkpt lat="44.44722" lon="3.56924">
        <ele>1099</ele>
        <time>2022-05-27T07:32:53Z</time>
      </trkpt>
      <trkpt lat="44.44721" lon="3.56925">
        <ele>1099</ele>
        <time>2022-05-27T07:32:54Z</time>
      </trkpt>
      <trkpt lat="44.4472" lon="3.56925">
        <ele>1099</ele>
        <time>2022-05-27T07:32:55Z</time>
      </trkpt>
      <trkpt lat="44.4472" lon="3.56925">
        <ele>1099</ele>
        <time>2022-05-27T07:32:56Z</time>
      </trkpt>
      <trkpt lat="44.44719" lon="3.56926">
        <ele>1099</ele>
        <time>2022-05-27T07:32:57Z</time>
      </trkpt>
      <trkpt lat="44.44718" lon="3.56926">
        <ele>1100</ele>
        <time>2022-05-27T07:32:58Z</time>
      </trkpt>
      <trkpt lat="44.44717" lon="3.56927">
        <ele>1100</ele>
        <time>2022-05-27T07:32:59Z</time>
      </trkpt>
      <trkpt lat="44.44717" lon="3.56927">
        <ele>1100</ele>
        <time>2022-05-27T07:33:00Z</time>
      </trkpt>
      <trkpt lat="44.44716" lon="3.56928">
        <ele>1100</ele>
        <time>2022-05-27T07:33:01Z</time>
      </trkpt>
      <trkpt lat="44.44715" lon="3.56928">
        <ele>1100</ele>
        <time>2022-05-27T07:33:02Z</time>
      </trkpt>
      <trkpt lat="44.44714" lon="3.56928">
        <ele>1100</ele>
        <time>2022-05-27T07:33:03Z</time>
      </trkpt>
      <trkpt lat="44.44714" lon="3.56929">
        <ele>1100</ele>
        <time>2022-05-27T07:33:04Z</time>
      </trkpt>
      <trkpt lat="44.44713" lon="3.5693">
        <ele>1101</ele>
        <time>2022-05-27T07:33:05Z</time>
      </trkpt>
      <trkpt lat="44.44712" lon="3.5693">
        <ele>1102</ele>
        <time>2022-05-27T07:33:06Z</time>
      </trkpt>
      <trkpt lat="44.44711" lon="3.56931">
        <ele>1102</ele>
        <time>2022-05-27T07:33:07Z</time>
      </trkpt>
      <trkpt lat="44.44711" lon="3.56931">
        <ele>1102</ele>
        <time>2022-05-27T07:33:08Z</time>
      </trkpt>
      <trkpt lat="44.4471" lon="3.56932">
        <ele>1102</ele>
        <time>2022-05-27T07:33:09Z</time>
      </trkpt>
      <trkpt lat="44.44709" lon="3.56933">
        <ele>1102</ele>
        <time>2022-05-27T07:33:10Z</time>
      </trkpt>
      <trkpt lat="44.44709" lon="3.56934">
        <ele>1102</ele>
        <time>2022-05-27T07:33:11Z</time>
      </trkpt>
      <trkpt lat="44.44708" lon="3.56935">
        <ele>1102</ele>
        <time>2022-05-27T07:33:12Z</time>
      </trkpt>
      <trkpt lat="44.44708" lon="3.56935">
        <ele>1103</ele>
        <time>2022-05-27T07:33:13Z</time>
      </trkpt>
      <trkpt lat="44.44707" lon="3.56936">
        <ele>1103</ele>
        <time>2022-05-27T07:33:14Z</time>
      </trkpt>
      <trkpt lat="44.44706" lon="3.56937">
        <ele>1103</ele>
        <time>2022-05-27T07:33:15Z</time>
      </trkpt>
      <trkpt lat="44.44706" lon="3.56937">
        <ele>1103</ele>
        <time>2022-05-27T07:33:16Z</time>
      </trkpt>
      <trkpt lat="44.44705" lon="3.56937">
        <ele>1103</ele>
        <time>2022-05-27T07:33:17Z</time>
      </trkpt>
      <trkpt lat="44.44705" lon="3.56938">
        <ele>1104</ele>
        <time>2022-05-27T07:33:18Z</time>
      </trkpt>
      <trkpt lat="44.44704" lon="3.56938">
        <ele>1104</ele>
        <time>2022-05-27T07:33:19Z</time>
      </trkpt>
      <trkpt lat="44.44704" lon="3.56939">
        <ele>1104</ele>
        <time>2022-05-27T07:33:20Z</time>
      </trkpt>
      <trkpt lat="44.44703" lon="3.5694">
        <ele>1104</ele>
        <time>2022-05-27T07:33:21Z</time>
      </trkpt>
      <trkpt lat="44.44702" lon="3.56941">
        <ele>1104</ele>
        <time>2022-05-27T07:33:22Z</time>
      </trkpt>
      <trkpt lat="44.44702" lon="3.56942">
        <ele>1104</ele>
        <time>2022-05-27T07:33:23Z</time>
      </trkpt>
      <trkpt lat="44.44701" lon="3.56944">
        <ele>1104</ele>
        <time>2022-05-27T07:33:24Z</time>
      </trkpt>
      <trkpt lat="44.447" lon="3.56944">
        <ele>1104</ele>
        <time>2022-05-27T07:33:25Z</time>
      </trkpt>
      <trkpt lat="44.447" lon="3.56945">
        <ele>1104</ele>
        <time>2022-05-27T07:33:26Z</time>
      </trkpt>
      <trkpt lat="44.44699" lon="3.56946">
        <ele>1104</ele>
        <time>2022-05-27T07:33:27Z</time>
      </trkpt>
      <trkpt lat="44.44698" lon="3.56947">
        <ele>1103</ele>
        <time>2022-05-27T07:33:28Z</time>
      </trkpt>
      <trkpt lat="44.44697" lon="3.56947">
        <ele>1104</ele>
        <time>2022-05-27T07:33:29Z</time>
      </trkpt>
      <trkpt lat="44.44696" lon="3.56948">
        <ele>1104</ele>
        <time>2022-05-27T07:33:30Z</time>
      </trkpt>
      <trkpt lat="44.44696" lon="3.56949">
        <ele>1104</ele>
        <time>2022-05-27T07:33:31Z</time>
      </trkpt>
      <trkpt lat="44.44695" lon="3.5695">
        <ele>1104</ele>
        <time>2022-05-27T07:33:32Z</time>
      </trkpt>
      <trkpt lat="44.44694" lon="3.56952">
        <ele>1104</ele>
        <time>2022-05-27T07:33:33Z</time>
      </trkpt>
      <trkpt lat="44.44694" lon="3.56953">
        <ele>1105</ele>
        <time>2022-05-27T07:33:34Z</time>
      </trkpt>
      <trkpt lat="44.44693" lon="3.56954">
        <ele>1105</ele>
        <time>2022-05-27T07:33:35Z</time>
      </trkpt>
      <trkpt lat="44.44693" lon="3.56955">
        <ele>1104</ele>
        <time>2022-05-27T07:33:36Z</time>
      </trkpt>
      <trkpt lat="44.44692" lon="3.56956">
        <ele>1105</ele>
        <time>2022-05-27T07:33:37Z</time>
      </trkpt>
      <trkpt lat="44.44692" lon="3.56957">
        <ele>1105</ele>
        <time>2022-05-27T07:33:38Z</time>
      </trkpt>
      <trkpt lat="44.44691" lon="3.56958">
        <ele>1105</ele>
        <time>2022-05-27T07:33:39Z</time>
      </trkpt>
      <trkpt lat="44.4469" lon="3.56959">
        <ele>1105</ele>
        <time>2022-05-27T07:33:40Z</time>
      </trkpt>
      <trkpt lat="44.44689" lon="3.5696">
        <ele>1105</ele>
        <time>2022-05-27T07:33:41Z</time>
      </trkpt>
      <trkpt lat="44.44689" lon="3.56961">
        <ele>1105</ele>
        <time>2022-05-27T07:33:42Z</time>
      </trkpt>
      <trkpt lat="44.44688" lon="3.56962">
        <ele>1105</ele>
        <time>2022-05-27T07:33:43Z</time>
      </trkpt>
      <trkpt lat="44.44688" lon="3.56964">
        <ele>1105</ele>
        <time>2022-05-27T07:33:44Z</time>
      </trkpt>
      <trkpt lat="44.44687" lon="3.56965">
        <ele>1105</ele>
        <time>2022-05-27T07:33:45Z</time>
      </trkpt>
      <trkpt lat="44.44687" lon="3.56965">
        <ele>1105</ele>
        <time>2022-05-27T07:33:46Z</time>
      </trkpt>
      <trkpt lat="44.44686" lon="3.56966">
        <ele>1105</ele>
        <time>2022-05-27T07:33:47Z</time>
      </trkpt>
      <trkpt lat="44.44686" lon="3.56968">
        <ele>1106</ele>
        <time>2022-05-27T07:33:48Z</time>
      </trkpt>
      <trkpt lat="44.44685" lon="3.56969">
        <ele>1106</ele>
        <time>2022-05-27T07:33:49Z</time>
      </trkpt>
      <trkpt lat="44.44685" lon="3.5697">
        <ele>1106</ele>
        <time>2022-05-27T07:33:50Z</time>
      </trkpt>
      <trkpt lat="44.44684" lon="3.56971">
        <ele>1106</ele>
        <time>2022-05-27T07:33:51Z</time>
      </trkpt>
      <trkpt lat="44.44684" lon="3.56971">
        <ele>1106</ele>
        <time>2022-05-27T07:33:52Z</time>
      </trkpt>
      <trkpt lat="44.44684" lon="3.56971">
        <ele>1106</ele>
        <time>2022-05-27T07:33:53Z</time>
      </trkpt>
      <trkpt lat="44.44684" lon="3.56972">
        <ele>1107</ele>
        <time>2022-05-27T07:33:54Z</time>
      </trkpt>
      <trkpt lat="44.44683" lon="3.56973">
        <ele>1107</ele>
        <time>2022-05-27T07:33:55Z</time>
      </trkpt>
      <trkpt lat="44.44682" lon="3.56974">
        <ele>1107</ele>
        <time>2022-05-27T07:33:56Z</time>
      </trkpt>
      <trkpt lat="44.44682" lon="3.56975">
        <ele>1107</ele>
        <time>2022-05-27T07:33:57Z</time>
      </trkpt>
      <trkpt lat="44.44681" lon="3.56976">
        <ele>1108</ele>
        <time>2022-05-27T07:33:58Z</time>
      </trkpt>
      <trkpt lat="44.4468" lon="3.56977">
        <ele>1108</ele>
        <time>2022-05-27T07:33:59Z</time>
      </trkpt>
      <trkpt lat="44.4468" lon="3.56978">
        <ele>1108</ele>
        <time>2022-05-27T07:34:00Z</time>
      </trkpt>
      <trkpt lat="44.44679" lon="3.56979">
        <ele>1109</ele>
        <time>2022-05-27T07:34:01Z</time>
      </trkpt>
      <trkpt lat="44.44679" lon="3.5698">
        <ele>1109</ele>
        <time>2022-05-27T07:34:02Z</time>
      </trkpt>
      <trkpt lat="44.44678" lon="3.56981">
        <ele>1110</ele>
        <time>2022-05-27T07:34:03Z</time>
      </trkpt>
      <trkpt lat="44.44678" lon="3.56982">
        <ele>1110</ele>
        <time>2022-05-27T07:34:04Z</time>
      </trkpt>
      <trkpt lat="44.44677" lon="3.56983">
        <ele>1110</ele>
        <time>2022-05-27T07:34:05Z</time>
      </trkpt>
      <trkpt lat="44.44676" lon="3.56984">
        <ele>1110</ele>
        <time>2022-05-27T07:34:06Z</time>
      </trkpt>
      <trkpt lat="44.44675" lon="3.56985">
        <ele>1111</ele>
        <time>2022-05-27T07:34:07Z</time>
      </trkpt>
      <trkpt lat="44.44675" lon="3.56986">
        <ele>1111</ele>
        <time>2022-05-27T07:34:08Z</time>
      </trkpt>
      <trkpt lat="44.44674" lon="3.56987">
        <ele>1111</ele>
        <time>2022-05-27T07:34:09Z</time>
      </trkpt>
      <trkpt lat="44.44673" lon="3.56987">
        <ele>1111</ele>
        <time>2022-05-27T07:34:10Z</time>
      </trkpt>
      <trkpt lat="44.44672" lon="3.56988">
        <ele>1111</ele>
        <time>2022-05-27T07:34:11Z</time>
      </trkpt>
      <trkpt lat="44.44672" lon="3.56988">
        <ele>1110</ele>
        <time>2022-05-27T07:34:12Z</time>
      </trkpt>
      <trkpt lat="44.44671" lon="3.56989">
        <ele>1110</ele>
        <time>2022-05-27T07:34:13Z</time>
      </trkpt>
      <trkpt lat="44.4467" lon="3.56991">
        <ele>1110</ele>
        <time>2022-05-27T07:34:14Z</time>
      </trkpt>
      <trkpt lat="44.44669" lon="3.56992">
        <ele>1111</ele>
        <time>2022-05-27T07:34:15Z</time>
      </trkpt>
      <trkpt lat="44.44668" lon="3.56993">
        <ele>1112</ele>
        <time>2022-05-27T07:34:16Z</time>
      </trkpt>
      <trkpt lat="44.44667" lon="3.56993">
        <ele>1112</ele>
        <time>2022-05-27T07:34:17Z</time>
      </trkpt>
      <trkpt lat="44.44667" lon="3.56994">
        <ele>1112</ele>
        <time>2022-05-27T07:34:18Z</time>
      </trkpt>
      <trkpt lat="44.44666" lon="3.56995">
        <ele>1112</ele>
        <time>2022-05-27T07:34:19Z</time>
      </trkpt>
      <trkpt lat="44.44665" lon="3.56996">
        <ele>1112</ele>
        <time>2022-05-27T07:34:20Z</time>
      </trkpt>
      <trkpt lat="44.44664" lon="3.56997">
        <ele>1112</ele>
        <time>2022-05-27T07:34:21Z</time>
      </trkpt>
      <trkpt lat="44.44663" lon="3.56998">
        <ele>1112</ele>
        <time>2022-05-27T07:34:22Z</time>
      </trkpt>
      <trkpt lat="44.44663" lon="3.56999">
        <ele>1112</ele>
        <time>2022-05-27T07:34:23Z</time>
      </trkpt>
      <trkpt lat="44.44662" lon="3.57">
        <ele>1113</ele>
        <time>2022-05-27T07:34:24Z</time>
      </trkpt>
      <trkpt lat="44.44661" lon="3.57001">
        <ele>1113</ele>
        <time>2022-05-27T07:34:25Z</time>
      </trkpt>
      <trkpt lat="44.44661" lon="3.57002">
        <ele>1113</ele>
        <time>2022-05-27T07:34:26Z</time>
      </trkpt>
      <trkpt lat="44.44659" lon="3.57003">
        <ele>1114</ele>
        <time>2022-05-27T07:34:27Z</time>
      </trkpt>
      <trkpt lat="44.44659" lon="3.57004">
        <ele>1114</ele>
        <time>2022-05-27T07:34:28Z</time>
      </trkpt>
      <trkpt lat="44.44658" lon="3.57006">
        <ele>1115</ele>
        <time>2022-05-27T07:34:29Z</time>
      </trkpt>
      <trkpt lat="44.44658" lon="3.57007">
        <ele>1115</ele>
        <time>2022-05-27T07:34:30Z</time>
      </trkpt>
      <trkpt lat="44.44657" lon="3.57008">
        <ele>1115</ele>
        <time>2022-05-27T07:34:31Z</time>
      </trkpt>
      <trkpt lat="44.44656" lon="3.57009">
        <ele>1115</ele>
        <time>2022-05-27T07:34:32Z</time>
      </trkpt>
      <trkpt lat="44.44656" lon="3.5701">
        <ele>1115</ele>
        <time>2022-05-27T07:34:33Z</time>
      </trkpt>
      <trkpt lat="44.44655" lon="3.57011">
        <ele>1115</ele>
        <time>2022-05-27T07:34:34Z</time>
      </trkpt>
      <trkpt lat="44.44655" lon="3.57011">
        <ele>1116</ele>
        <time>2022-05-27T07:34:35Z</time>
      </trkpt>
      <trkpt lat="44.44654" lon="3.57012">
        <ele>1116</ele>
        <time>2022-05-27T07:34:36Z</time>
      </trkpt>
      <trkpt lat="44.44653" lon="3.57013">
        <ele>1116</ele>
        <time>2022-05-27T07:34:37Z</time>
      </trkpt>
      <trkpt lat="44.44653" lon="3.57014">
        <ele>1116</ele>
        <time>2022-05-27T07:34:38Z</time>
      </trkpt>
      <trkpt lat="44.44652" lon="3.57015">
        <ele>1116</ele>
        <time>2022-05-27T07:34:39Z</time>
      </trkpt>
      <trkpt lat="44.44652" lon="3.57016">
        <ele>1116</ele>
        <time>2022-05-27T07:34:40Z</time>
      </trkpt>
      <trkpt lat="44.44651" lon="3.57017">
        <ele>1116</ele>
        <time>2022-05-27T07:34:41Z</time>
      </trkpt>
      <trkpt lat="44.4465" lon="3.57018">
        <ele>1116</ele>
        <time>2022-05-27T07:34:42Z</time>
      </trkpt>
      <trkpt lat="44.4465" lon="3.57019">
        <ele>1116</ele>
        <time>2022-05-27T07:34:43Z</time>
      </trkpt>
      <trkpt lat="44.44649" lon="3.5702">
        <ele>1117</ele>
        <time>2022-05-27T07:34:44Z</time>
      </trkpt>
      <trkpt lat="44.44648" lon="3.57021">
        <ele>1117</ele>
        <time>2022-05-27T07:34:45Z</time>
      </trkpt>
      <trkpt lat="44.44648" lon="3.57022">
        <ele>1117</ele>
        <time>2022-05-27T07:34:46Z</time>
      </trkpt>
      <trkpt lat="44.44647" lon="3.57023">
        <ele>1117</ele>
        <time>2022-05-27T07:34:47Z</time>
      </trkpt>
      <trkpt lat="44.44647" lon="3.57025">
        <ele>1117</ele>
        <time>2022-05-27T07:34:48Z</time>
      </trkpt>
      <trkpt lat="44.44646" lon="3.57025">
        <ele>1118</ele>
        <time>2022-05-27T07:34:49Z</time>
      </trkpt>
      <trkpt lat="44.44645" lon="3.57027">
        <ele>1118</ele>
        <time>2022-05-27T07:34:50Z</time>
      </trkpt>
      <trkpt lat="44.44645" lon="3.57028">
        <ele>1118</ele>
        <time>2022-05-27T07:34:51Z</time>
      </trkpt>
      <trkpt lat="44.44644" lon="3.57028">
        <ele>1118</ele>
        <time>2022-05-27T07:34:52Z</time>
      </trkpt>
      <trkpt lat="44.44644" lon="3.5703">
        <ele>1119</ele>
        <time>2022-05-27T07:34:53Z</time>
      </trkpt>
      <trkpt lat="44.44643" lon="3.57031">
        <ele>1119</ele>
        <time>2022-05-27T07:34:54Z</time>
      </trkpt>
      <trkpt lat="44.44642" lon="3.57033">
        <ele>1119</ele>
        <time>2022-05-27T07:34:55Z</time>
      </trkpt>
      <trkpt lat="44.44642" lon="3.57034">
        <ele>1119</ele>
        <time>2022-05-27T07:34:56Z</time>
      </trkpt>
      <trkpt lat="44.44642" lon="3.57035">
        <ele>1120</ele>
        <time>2022-05-27T07:34:57Z</time>
      </trkpt>
      <trkpt lat="44.44641" lon="3.57037">
        <ele>1120</ele>
        <time>2022-05-27T07:34:58Z</time>
      </trkpt>
      <trkpt lat="44.44641" lon="3.57038">
        <ele>1119</ele>
        <time>2022-05-27T07:34:59Z</time>
      </trkpt>
      <trkpt lat="44.44641" lon="3.57038">
        <ele>1119</ele>
        <time>2022-05-27T07:34:59Z</time>
      </trkpt>
      <trkpt lat="44.4464" lon="3.57041">
        <ele>1119</ele>
        <time>2022-05-27T07:35:01Z</time>
      </trkpt>
      <trkpt lat="44.4464" lon="3.57043">
        <ele>1118</ele>
        <time>2022-05-27T07:35:02Z</time>
      </trkpt>
      <trkpt lat="44.4464" lon="3.57045">
        <ele>1117</ele>
        <time>2022-05-27T07:35:03Z</time>
      </trkpt>
      <trkpt lat="44.4464" lon="3.57047">
        <ele>1117</ele>
        <time>2022-05-27T07:35:04Z</time>
      </trkpt>
      <trkpt lat="44.4464" lon="3.57048">
        <ele>1117</ele>
        <time>2022-05-27T07:35:05Z</time>
      </trkpt>
      <trkpt lat="44.4464" lon="3.5705">
        <ele>1117</ele>
        <time>2022-05-27T07:35:06Z</time>
      </trkpt>
      <trkpt lat="44.4464" lon="3.57051">
        <ele>1117</ele>
        <time>2022-05-27T07:35:07Z</time>
      </trkpt>
      <trkpt lat="44.4464" lon="3.57052">
        <ele>1117</ele>
        <time>2022-05-27T07:35:08Z</time>
      </trkpt>
      <trkpt lat="44.44641" lon="3.57054">
        <ele>1117</ele>
        <time>2022-05-27T07:35:09Z</time>
      </trkpt>
      <trkpt lat="44.44641" lon="3.57055">
        <ele>1118</ele>
        <time>2022-05-27T07:35:10Z</time>
      </trkpt>
      <trkpt lat="44.44641" lon="3.57056">
        <ele>1118</ele>
        <time>2022-05-27T07:35:11Z</time>
      </trkpt>
      <trkpt lat="44.44641" lon="3.57057">
        <ele>1118</ele>
        <time>2022-05-27T07:35:12Z</time>
      </trkpt>
      <trkpt lat="44.44641" lon="3.57057">
        <ele>1118</ele>
        <time>2022-05-27T07:35:13Z</time>
      </trkpt>
      <trkpt lat="44.44641" lon="3.57059">
        <ele>1118</ele>
        <time>2022-05-27T07:35:14Z</time>
      </trkpt>
      <trkpt lat="44.44641" lon="3.5706">
        <ele>1117</ele>
        <time>2022-05-27T07:35:15Z</time>
      </trkpt>
      <trkpt lat="44.44642" lon="3.57061">
        <ele>1117</ele>
        <time>2022-05-27T07:35:16Z</time>
      </trkpt>
      <trkpt lat="44.44642" lon="3.57062">
        <ele>1117</ele>
        <time>2022-05-27T07:35:17Z</time>
      </trkpt>
      <trkpt lat="44.44642" lon="3.57064">
        <ele>1117</ele>
        <time>2022-05-27T07:35:18Z</time>
      </trkpt>
      <trkpt lat="44.44643" lon="3.57065">
        <ele>1117</ele>
        <time>2022-05-27T07:35:19Z</time>
      </trkpt>
      <trkpt lat="44.44644" lon="3.57067">
        <ele>1117</ele>
        <time>2022-05-27T07:35:20Z</time>
      </trkpt>
      <trkpt lat="44.44645" lon="3.57068">
        <ele>1117</ele>
        <time>2022-05-27T07:35:21Z</time>
      </trkpt>
      <trkpt lat="44.44646" lon="3.5707">
        <ele>1116</ele>
        <time>2022-05-27T07:35:22Z</time>
      </trkpt>
      <trkpt lat="44.44647" lon="3.57071">
        <ele>1116</ele>
        <time>2022-05-27T07:35:23Z</time>
      </trkpt>
      <trkpt lat="44.44648" lon="3.57073">
        <ele>1115</ele>
        <time>2022-05-27T07:35:24Z</time>
      </trkpt>
      <trkpt lat="44.44648" lon="3.57075">
        <ele>1115</ele>
        <time>2022-05-27T07:35:25Z</time>
      </trkpt>
      <trkpt lat="44.4465" lon="3.57076">
        <ele>1114</ele>
        <time>2022-05-27T07:35:26Z</time>
      </trkpt>
      <trkpt lat="44.44651" lon="3.57077">
        <ele>1114</ele>
        <time>2022-05-27T07:35:27Z</time>
      </trkpt>
      <trkpt lat="44.44652" lon="3.57079">
        <ele>1113</ele>
        <time>2022-05-27T07:35:28Z</time>
      </trkpt>
      <trkpt lat="44.44653" lon="3.5708">
        <ele>1113</ele>
        <time>2022-05-27T07:35:29Z</time>
      </trkpt>
      <trkpt lat="44.44654" lon="3.57082">
        <ele>1112</ele>
        <time>2022-05-27T07:35:30Z</time>
      </trkpt>
      <trkpt lat="44.44655" lon="3.57083">
        <ele>1112</ele>
        <time>2022-05-27T07:35:31Z</time>
      </trkpt>
      <trkpt lat="44.44656" lon="3.57082">
        <ele>1111</ele>
        <time>2022-05-27T07:35:32Z</time>
      </trkpt>
      <trkpt lat="44.44656" lon="3.57082">
        <ele>1112</ele>
        <time>2022-05-27T07:35:33Z</time>
      </trkpt>
      <trkpt lat="44.44656" lon="3.57082">
        <ele>1112</ele>
        <time>2022-05-27T07:35:34Z</time>
      </trkpt>
      <trkpt lat="44.44656" lon="3.57082">
        <ele>1112</ele>
        <time>2022-05-27T07:35:35Z</time>
      </trkpt>
      <trkpt lat="44.44656" lon="3.57082">
        <ele>1112</ele>
        <time>2022-05-27T07:35:36Z</time>
      </trkpt>
      <trkpt lat="44.44656" lon="3.57082">
        <ele>1112</ele>
        <time>2022-05-27T07:35:36Z</time>
      </trkpt>
      <trkpt lat="44.44656" lon="3.57082">
        <ele>1112</ele>
        <time>2022-05-27T07:35:36Z</time>
      </trkpt>
      <trkpt lat="44.44656" lon="3.57082">
        <ele>1112</ele>
        <time>2022-05-27T07:35:36Z</time>
      </trkpt>
      <trkpt lat="44.44659" lon="3.5709">
        <ele>1111</ele>
        <time>2022-05-27T07:35:59Z</time>
      </trkpt>
      <trkpt lat="44.44659" lon="3.57091">
        <ele>1111</ele>
        <time>2022-05-27T07:36:00Z</time>
      </trkpt>
      <trkpt lat="44.44659" lon="3.57091">
        <ele>1112</ele>
        <time>2022-05-27T07:36:01Z</time>
      </trkpt>
      <trkpt lat="44.4466" lon="3.57092">
        <ele>1113</ele>
        <time>2022-05-27T07:36:02Z</time>
      </trkpt>
      <trkpt lat="44.4466" lon="3.57093">
        <ele>1113</ele>
        <time>2022-05-27T07:36:03Z</time>
      </trkpt>
      <trkpt lat="44.4466" lon="3.57094">
        <ele>1114</ele>
        <time>2022-05-27T07:36:04Z</time>
      </trkpt>
      <trkpt lat="44.4466" lon="3.57095">
        <ele>1114</ele>
        <time>2022-05-27T07:36:05Z</time>
      </trkpt>
      <trkpt lat="44.4466" lon="3.57097">
        <ele>1114</ele>
        <time>2022-05-27T07:36:06Z</time>
      </trkpt>
      <trkpt lat="44.44661" lon="3.57097">
        <ele>1114</ele>
        <time>2022-05-27T07:36:07Z</time>
      </trkpt>
      <trkpt lat="44.44662" lon="3.57098">
        <ele>1115</ele>
        <time>2022-05-27T07:36:08Z</time>
      </trkpt>
      <trkpt lat="44.44662" lon="3.57099">
        <ele>1115</ele>
        <time>2022-05-27T07:36:09Z</time>
      </trkpt>
      <trkpt lat="44.44663" lon="3.571">
        <ele>1115</ele>
        <time>2022-05-27T07:36:10Z</time>
      </trkpt>
      <trkpt lat="44.44663" lon="3.57101">
        <ele>1116</ele>
        <time>2022-05-27T07:36:11Z</time>
      </trkpt>
      <trkpt lat="44.44663" lon="3.57102">
        <ele>1116</ele>
        <time>2022-05-27T07:36:12Z</time>
      </trkpt>
      <trkpt lat="44.44664" lon="3.57103">
        <ele>1117</ele>
        <time>2022-05-27T07:36:13Z</time>
      </trkpt>
      <trkpt lat="44.44664" lon="3.57104">
        <ele>1117</ele>
        <time>2022-05-27T07:36:14Z</time>
      </trkpt>
      <trkpt lat="44.44665" lon="3.57105">
        <ele>1117</ele>
        <time>2022-05-27T07:36:15Z</time>
      </trkpt>
      <trkpt lat="44.44666" lon="3.57106">
        <ele>1118</ele>
        <time>2022-05-27T07:36:16Z</time>
      </trkpt>
      <trkpt lat="44.44666" lon="3.57107">
        <ele>1118</ele>
        <time>2022-05-27T07:36:17Z</time>
      </trkpt>
      <trkpt lat="44.44667" lon="3.57108">
        <ele>1119</ele>
        <time>2022-05-27T07:36:18Z</time>
      </trkpt>
      <trkpt lat="44.44667" lon="3.57109">
        <ele>1119</ele>
        <time>2022-05-27T07:36:19Z</time>
      </trkpt>
      <trkpt lat="44.44668" lon="3.5711">
        <ele>1119</ele>
        <time>2022-05-27T07:36:20Z</time>
      </trkpt>
      <trkpt lat="44.44669" lon="3.57112">
        <ele>1118</ele>
        <time>2022-05-27T07:36:21Z</time>
      </trkpt>
      <trkpt lat="44.4467" lon="3.57113">
        <ele>1119</ele>
        <time>2022-05-27T07:36:22Z</time>
      </trkpt>
      <trkpt lat="44.44671" lon="3.57114">
        <ele>1119</ele>
        <time>2022-05-27T07:36:23Z</time>
      </trkpt>
      <trkpt lat="44.44671" lon="3.57115">
        <ele>1119</ele>
        <time>2022-05-27T07:36:24Z</time>
      </trkpt>
      <trkpt lat="44.44672" lon="3.57115">
        <ele>1119</ele>
        <time>2022-05-27T07:36:25Z</time>
      </trkpt>
      <trkpt lat="44.44673" lon="3.57116">
        <ele>1118</ele>
        <time>2022-05-27T07:36:26Z</time>
      </trkpt>
      <trkpt lat="44.44674" lon="3.57117">
        <ele>1119</ele>
        <time>2022-05-27T07:36:27Z</time>
      </trkpt>
      <trkpt lat="44.44675" lon="3.57118">
        <ele>1120</ele>
        <time>2022-05-27T07:36:28Z</time>
      </trkpt>
      <trkpt lat="44.44675" lon="3.57119">
        <ele>1121</ele>
        <time>2022-05-27T07:36:29Z</time>
      </trkpt>
      <trkpt lat="44.44676" lon="3.5712">
        <ele>1122</ele>
        <time>2022-05-27T07:36:30Z</time>
      </trkpt>
      <trkpt lat="44.44676" lon="3.57122">
        <ele>1122</ele>
        <time>2022-05-27T07:36:31Z</time>
      </trkpt>
      <trkpt lat="44.44677" lon="3.57123">
        <ele>1122</ele>
        <time>2022-05-27T07:36:32Z</time>
      </trkpt>
      <trkpt lat="44.44677" lon="3.57125">
        <ele>1122</ele>
        <time>2022-05-27T07:36:33Z</time>
      </trkpt>
      <trkpt lat="44.44678" lon="3.57126">
        <ele>1122</ele>
        <time>2022-05-27T07:36:34Z</time>
      </trkpt>
      <trkpt lat="44.44679" lon="3.57127">
        <ele>1122</ele>
        <time>2022-05-27T07:36:35Z</time>
      </trkpt>
      <trkpt lat="44.4468" lon="3.57128">
        <ele>1122</ele>
        <time>2022-05-27T07:36:36Z</time>
      </trkpt>
      <trkpt lat="44.44681" lon="3.5713">
        <ele>1123</ele>
        <time>2022-05-27T07:36:37Z</time>
      </trkpt>
      <trkpt lat="44.44682" lon="3.57131">
        <ele>1124</ele>
        <time>2022-05-27T07:36:38Z</time>
      </trkpt>
      <trkpt lat="44.44683" lon="3.57132">
        <ele>1124</ele>
        <time>2022-05-27T07:36:39Z</time>
      </trkpt>
      <trkpt lat="44.44684" lon="3.57133">
        <ele>1125</ele>
        <time>2022-05-27T07:36:40Z</time>
      </trkpt>
      <trkpt lat="44.44684" lon="3.57134">
        <ele>1125</ele>
        <time>2022-05-27T07:36:41Z</time>
      </trkpt>
      <trkpt lat="44.44684" lon="3.57134">
        <ele>1125</ele>
        <time>2022-05-27T07:36:42Z</time>
      </trkpt>
      <trkpt lat="44.44685" lon="3.57136">
        <ele>1125</ele>
        <time>2022-05-27T07:36:43Z</time>
      </trkpt>
      <trkpt lat="44.44685" lon="3.57136">
        <ele>1125</ele>
        <time>2022-05-27T07:36:44Z</time>
      </trkpt>
      <trkpt lat="44.44685" lon="3.57136">
        <ele>1125</ele>
        <time>2022-05-27T07:36:45Z</time>
      </trkpt>
      <trkpt lat="44.44686" lon="3.57137">
        <ele>1124</ele>
        <time>2022-05-27T07:36:46Z</time>
      </trkpt>
      <trkpt lat="44.44686" lon="3.57137">
        <ele>1124</ele>
        <time>2022-05-27T07:36:47Z</time>
      </trkpt>
      <trkpt lat="44.44686" lon="3.57137">
        <ele>1124</ele>
        <time>2022-05-27T07:36:48Z</time>
      </trkpt>
      <trkpt lat="44.44687" lon="3.57139">
        <ele>1126</ele>
        <time>2022-05-27T07:36:49Z</time>
      </trkpt>
      <trkpt lat="44.44687" lon="3.5714">
        <ele>1127</ele>
        <time>2022-05-27T07:36:50Z</time>
      </trkpt>
      <trkpt lat="44.44687" lon="3.57141">
        <ele>1128</ele>
        <time>2022-05-27T07:36:51Z</time>
      </trkpt>
      <trkpt lat="44.44688" lon="3.57142">
        <ele>1130</ele>
        <time>2022-05-27T07:36:52Z</time>
      </trkpt>
      <trkpt lat="44.44688" lon="3.57143">
        <ele>1131</ele>
        <time>2022-05-27T07:36:53Z</time>
      </trkpt>
      <trkpt lat="44.44688" lon="3.57144">
        <ele>1132</ele>
        <time>2022-05-27T07:36:54Z</time>
      </trkpt>
      <trkpt lat="44.44688" lon="3.57145">
        <ele>1132</ele>
        <time>2022-05-27T07:36:55Z</time>
      </trkpt>
      <trkpt lat="44.44689" lon="3.57147">
        <ele>1132</ele>
        <time>2022-05-27T07:36:56Z</time>
      </trkpt>
      <trkpt lat="44.4469" lon="3.57148">
        <ele>1132</ele>
        <time>2022-05-27T07:36:57Z</time>
      </trkpt>
      <trkpt lat="44.4469" lon="3.5715">
        <ele>1133</ele>
        <time>2022-05-27T07:36:58Z</time>
      </trkpt>
      <trkpt lat="44.44691" lon="3.57151">
        <ele>1133</ele>
        <time>2022-05-27T07:36:59Z</time>
      </trkpt>
      <trkpt lat="44.44691" lon="3.57152">
        <ele>1133</ele>
        <time>2022-05-27T07:37:00Z</time>
      </trkpt>
      <trkpt lat="44.44692" lon="3.57154">
        <ele>1133</ele>
        <time>2022-05-27T07:37:01Z</time>
      </trkpt>
      <trkpt lat="44.44692" lon="3.57155">
        <ele>1133</ele>
        <time>2022-05-27T07:37:02Z</time>
      </trkpt>
      <trkpt lat="44.44692" lon="3.57155">
        <ele>1133</ele>
        <time>2022-05-27T07:37:03Z</time>
      </trkpt>
      <trkpt lat="44.44692" lon="3.57155">
        <ele>1133</ele>
        <time>2022-05-27T07:37:04Z</time>
      </trkpt>
      <trkpt lat="44.44693" lon="3.57157">
        <ele>1134</ele>
        <time>2022-05-27T07:37:05Z</time>
      </trkpt>
      <trkpt lat="44.44694" lon="3.57158">
        <ele>1135</ele>
        <time>2022-05-27T07:37:06Z</time>
      </trkpt>
      <trkpt lat="44.44694" lon="3.5716">
        <ele>1135</ele>
        <time>2022-05-27T07:37:07Z</time>
      </trkpt>
      <trkpt lat="44.44695" lon="3.57161">
        <ele>1136</ele>
        <time>2022-05-27T07:37:08Z</time>
      </trkpt>
      <trkpt lat="44.44695" lon="3.57161">
        <ele>1136</ele>
        <time>2022-05-27T07:37:09Z</time>
      </trkpt>
      <trkpt lat="44.44695" lon="3.57163">
        <ele>1136</ele>
        <time>2022-05-27T07:37:10Z</time>
      </trkpt>
      <trkpt lat="44.44695" lon="3.57165">
        <ele>1136</ele>
        <time>2022-05-27T07:37:11Z</time>
      </trkpt>
      <trkpt lat="44.44695" lon="3.57166">
        <ele>1136</ele>
        <time>2022-05-27T07:37:12Z</time>
      </trkpt>
      <trkpt lat="44.44696" lon="3.57167">
        <ele>1136</ele>
        <time>2022-05-27T07:37:13Z</time>
      </trkpt>
      <trkpt lat="44.44696" lon="3.57169">
        <ele>1136</ele>
        <time>2022-05-27T07:37:14Z</time>
      </trkpt>
      <trkpt lat="44.44696" lon="3.57171">
        <ele>1136</ele>
        <time>2022-05-27T07:37:15Z</time>
      </trkpt>
      <trkpt lat="44.44697" lon="3.57172">
        <ele>1136</ele>
        <time>2022-05-27T07:37:16Z</time>
      </trkpt>
      <trkpt lat="44.44697" lon="3.57173">
        <ele>1136</ele>
        <time>2022-05-27T07:37:17Z</time>
      </trkpt>
      <trkpt lat="44.44698" lon="3.57174">
        <ele>1136</ele>
        <time>2022-05-27T07:37:18Z</time>
      </trkpt>
      <trkpt lat="44.44698" lon="3.57176">
        <ele>1136</ele>
        <time>2022-05-27T07:37:19Z</time>
      </trkpt>
      <trkpt lat="44.44698" lon="3.57177">
        <ele>1137</ele>
        <time>2022-05-27T07:37:20Z</time>
      </trkpt>
      <trkpt lat="44.44698" lon="3.57177">
        <ele>1137</ele>
        <time>2022-05-27T07:37:21Z</time>
      </trkpt>
      <trkpt lat="44.44699" lon="3.57179">
        <ele>1137</ele>
        <time>2022-05-27T07:37:22Z</time>
      </trkpt>
      <trkpt lat="44.44699" lon="3.5718">
        <ele>1137</ele>
        <time>2022-05-27T07:37:23Z</time>
      </trkpt>
      <trkpt lat="44.447" lon="3.57181">
        <ele>1138</ele>
        <time>2022-05-27T07:37:24Z</time>
      </trkpt>
      <trkpt lat="44.447" lon="3.57183">
        <ele>1138</ele>
        <time>2022-05-27T07:37:25Z</time>
      </trkpt>
      <trkpt lat="44.447" lon="3.57184">
        <ele>1138</ele>
        <time>2022-05-27T07:37:26Z</time>
      </trkpt>
      <trkpt lat="44.447" lon="3.57185">
        <ele>1139</ele>
        <time>2022-05-27T07:37:27Z</time>
      </trkpt>
      <trkpt lat="44.44701" lon="3.57186">
        <ele>1139</ele>
        <time>2022-05-27T07:37:28Z</time>
      </trkpt>
      <trkpt lat="44.44701" lon="3.57188">
        <ele>1139</ele>
        <time>2022-05-27T07:37:29Z</time>
      </trkpt>
      <trkpt lat="44.447" lon="3.57189">
        <ele>1140</ele>
        <time>2022-05-27T07:37:30Z</time>
      </trkpt>
      <trkpt lat="44.447" lon="3.5719">
        <ele>1140</ele>
        <time>2022-05-27T07:37:31Z</time>
      </trkpt>
      <trkpt lat="44.44701" lon="3.57191">
        <ele>1140</ele>
        <time>2022-05-27T07:37:32Z</time>
      </trkpt>
      <trkpt lat="44.44701" lon="3.57192">
        <ele>1140</ele>
        <time>2022-05-27T07:37:33Z</time>
      </trkpt>
      <trkpt lat="44.44701" lon="3.57194">
        <ele>1140</ele>
        <time>2022-05-27T07:37:34Z</time>
      </trkpt>
      <trkpt lat="44.44701" lon="3.57195">
        <ele>1140</ele>
        <time>2022-05-27T07:37:35Z</time>
      </trkpt>
      <trkpt lat="44.44702" lon="3.57197">
        <ele>1140</ele>
        <time>2022-05-27T07:37:36Z</time>
      </trkpt>
      <trkpt lat="44.44702" lon="3.57198">
        <ele>1141</ele>
        <time>2022-05-27T07:37:37Z</time>
      </trkpt>
      <trkpt lat="44.44702" lon="3.57199">
        <ele>1141</ele>
        <time>2022-05-27T07:37:38Z</time>
      </trkpt>
      <trkpt lat="44.44703" lon="3.572">
        <ele>1141</ele>
        <time>2022-05-27T07:37:39Z</time>
      </trkpt>
      <trkpt lat="44.44703" lon="3.57202">
        <ele>1141</ele>
        <time>2022-05-27T07:37:40Z</time>
      </trkpt>
      <trkpt lat="44.44704" lon="3.57203">
        <ele>1141</ele>
        <time>2022-05-27T07:37:41Z</time>
      </trkpt>
      <trkpt lat="44.44704" lon="3.57205">
        <ele>1141</ele>
        <time>2022-05-27T07:37:42Z</time>
      </trkpt>
      <trkpt lat="44.44704" lon="3.57206">
        <ele>1142</ele>
        <time>2022-05-27T07:37:43Z</time>
      </trkpt>
      <trkpt lat="44.44704" lon="3.57207">
        <ele>1142</ele>
        <time>2022-05-27T07:37:44Z</time>
      </trkpt>
      <trkpt lat="44.44704" lon="3.57207">
        <ele>1142</ele>
        <time>2022-05-27T07:37:45Z</time>
      </trkpt>
      <trkpt lat="44.44703" lon="3.57208">
        <ele>1142</ele>
        <time>2022-05-27T07:37:46Z</time>
      </trkpt>
      <trkpt lat="44.44704" lon="3.57209">
        <ele>1143</ele>
        <time>2022-05-27T07:37:47Z</time>
      </trkpt>
      <trkpt lat="44.44704" lon="3.5721">
        <ele>1144</ele>
        <time>2022-05-27T07:37:48Z</time>
      </trkpt>
      <trkpt lat="44.44704" lon="3.57212">
        <ele>1144</ele>
        <time>2022-05-27T07:37:49Z</time>
      </trkpt>
      <trkpt lat="44.44705" lon="3.57213">
        <ele>1144</ele>
        <time>2022-05-27T07:37:50Z</time>
      </trkpt>
      <trkpt lat="44.44705" lon="3.57214">
        <ele>1144</ele>
        <time>2022-05-27T07:37:51Z</time>
      </trkpt>
      <trkpt lat="44.44705" lon="3.57215">
        <ele>1144</ele>
        <time>2022-05-27T07:37:52Z</time>
      </trkpt>
      <trkpt lat="44.44705" lon="3.57216">
        <ele>1144</ele>
        <time>2022-05-27T07:37:53Z</time>
      </trkpt>
      <trkpt lat="44.44705" lon="3.57216">
        <ele>1144</ele>
        <time>2022-05-27T07:37:54Z</time>
      </trkpt>
      <trkpt lat="44.44705" lon="3.57216">
        <ele>1144</ele>
        <time>2022-05-27T07:37:55Z</time>
      </trkpt>
      <trkpt lat="44.44705" lon="3.57218">
        <ele>1145</ele>
        <time>2022-05-27T07:37:56Z</time>
      </trkpt>
      <trkpt lat="44.44706" lon="3.57219">
        <ele>1145</ele>
        <time>2022-05-27T07:37:57Z</time>
      </trkpt>
      <trkpt lat="44.44706" lon="3.5722">
        <ele>1145</ele>
        <time>2022-05-27T07:37:58Z</time>
      </trkpt>
      <trkpt lat="44.44706" lon="3.57221">
        <ele>1145</ele>
        <time>2022-05-27T07:37:59Z</time>
      </trkpt>
      <trkpt lat="44.44706" lon="3.57222">
        <ele>1145</ele>
        <time>2022-05-27T07:38:00Z</time>
      </trkpt>
      <trkpt lat="44.44706" lon="3.57223">
        <ele>1145</ele>
        <time>2022-05-27T07:38:01Z</time>
      </trkpt>
      <trkpt lat="44.44706" lon="3.57225">
        <ele>1145</ele>
        <time>2022-05-27T07:38:02Z</time>
      </trkpt>
      <trkpt lat="44.44706" lon="3.57225">
        <ele>1146</ele>
        <time>2022-05-27T07:38:03Z</time>
      </trkpt>
      <trkpt lat="44.44706" lon="3.57226">
        <ele>1147</ele>
        <time>2022-05-27T07:38:04Z</time>
      </trkpt>
      <trkpt lat="44.44706" lon="3.57227">
        <ele>1147</ele>
        <time>2022-05-27T07:38:05Z</time>
      </trkpt>
      <trkpt lat="44.44706" lon="3.57228">
        <ele>1148</ele>
        <time>2022-05-27T07:38:06Z</time>
      </trkpt>
      <trkpt lat="44.44706" lon="3.57229">
        <ele>1148</ele>
        <time>2022-05-27T07:38:07Z</time>
      </trkpt>
      <trkpt lat="44.44706" lon="3.57231">
        <ele>1148</ele>
        <time>2022-05-27T07:38:08Z</time>
      </trkpt>
      <trkpt lat="44.44706" lon="3.57232">
        <ele>1147</ele>
        <time>2022-05-27T07:38:09Z</time>
      </trkpt>
      <trkpt lat="44.44707" lon="3.57233">
        <ele>1147</ele>
        <time>2022-05-27T07:38:10Z</time>
      </trkpt>
      <trkpt lat="44.44707" lon="3.57235">
        <ele>1147</ele>
        <time>2022-05-27T07:38:11Z</time>
      </trkpt>
      <trkpt lat="44.44707" lon="3.57236">
        <ele>1147</ele>
        <time>2022-05-27T07:38:12Z</time>
      </trkpt>
      <trkpt lat="44.44707" lon="3.57237">
        <ele>1147</ele>
        <time>2022-05-27T07:38:13Z</time>
      </trkpt>
      <trkpt lat="44.44707" lon="3.57238">
        <ele>1147</ele>
        <time>2022-05-27T07:38:14Z</time>
      </trkpt>
      <trkpt lat="44.44707" lon="3.57239">
        <ele>1147</ele>
        <time>2022-05-27T07:38:15Z</time>
      </trkpt>
      <trkpt lat="44.44707" lon="3.5724">
        <ele>1147</ele>
        <time>2022-05-27T07:38:16Z</time>
      </trkpt>
      <trkpt lat="44.44707" lon="3.57241">
        <ele>1147</ele>
        <time>2022-05-27T07:38:17Z</time>
      </trkpt>
      <trkpt lat="44.44707" lon="3.57242">
        <ele>1147</ele>
        <time>2022-05-27T07:38:18Z</time>
      </trkpt>
      <trkpt lat="44.44708" lon="3.57243">
        <ele>1147</ele>
        <time>2022-05-27T07:38:19Z</time>
      </trkpt>
      <trkpt lat="44.44707" lon="3.57245">
        <ele>1147</ele>
        <time>2022-05-27T07:38:20Z</time>
      </trkpt>
      <trkpt lat="44.44707" lon="3.57246">
        <ele>1147</ele>
        <time>2022-05-27T07:38:21Z</time>
      </trkpt>
      <trkpt lat="44.44708" lon="3.57247">
        <ele>1148</ele>
        <time>2022-05-27T07:38:22Z</time>
      </trkpt>
      <trkpt lat="44.44708" lon="3.57248">
        <ele>1148</ele>
        <time>2022-05-27T07:38:23Z</time>
      </trkpt>
      <trkpt lat="44.44708" lon="3.57249">
        <ele>1149</ele>
        <time>2022-05-27T07:38:24Z</time>
      </trkpt>
      <trkpt lat="44.44708" lon="3.57251">
        <ele>1149</ele>
        <time>2022-05-27T07:38:25Z</time>
      </trkpt>
      <trkpt lat="44.44708" lon="3.57252">
        <ele>1149</ele>
        <time>2022-05-27T07:38:26Z</time>
      </trkpt>
      <trkpt lat="44.44707" lon="3.57253">
        <ele>1149</ele>
        <time>2022-05-27T07:38:27Z</time>
      </trkpt>
      <trkpt lat="44.44707" lon="3.57254">
        <ele>1149</ele>
        <time>2022-05-27T07:38:28Z</time>
      </trkpt>
      <trkpt lat="44.44707" lon="3.57255">
        <ele>1149</ele>
        <time>2022-05-27T07:38:29Z</time>
      </trkpt>
      <trkpt lat="44.44707" lon="3.57257">
        <ele>1149</ele>
        <time>2022-05-27T07:38:30Z</time>
      </trkpt>
      <trkpt lat="44.44707" lon="3.57257">
        <ele>1148</ele>
        <time>2022-05-27T07:38:31Z</time>
      </trkpt>
      <trkpt lat="44.44707" lon="3.57258">
        <ele>1148</ele>
        <time>2022-05-27T07:38:32Z</time>
      </trkpt>
      <trkpt lat="44.44707" lon="3.57259">
        <ele>1148</ele>
        <time>2022-05-27T07:38:33Z</time>
      </trkpt>
      <trkpt lat="44.44707" lon="3.5726">
        <ele>1149</ele>
        <time>2022-05-27T07:38:34Z</time>
      </trkpt>
      <trkpt lat="44.44707" lon="3.5726">
        <ele>1149</ele>
        <time>2022-05-27T07:38:35Z</time>
      </trkpt>
      <trkpt lat="44.44707" lon="3.57261">
        <ele>1150</ele>
        <time>2022-05-27T07:38:36Z</time>
      </trkpt>
      <trkpt lat="44.44707" lon="3.57263">
        <ele>1150</ele>
        <time>2022-05-27T07:38:37Z</time>
      </trkpt>
      <trkpt lat="44.44707" lon="3.57264">
        <ele>1149</ele>
        <time>2022-05-27T07:38:38Z</time>
      </trkpt>
      <trkpt lat="44.44707" lon="3.57265">
        <ele>1149</ele>
        <time>2022-05-27T07:38:39Z</time>
      </trkpt>
      <trkpt lat="44.44707" lon="3.57266">
        <ele>1149</ele>
        <time>2022-05-27T07:38:40Z</time>
      </trkpt>
      <trkpt lat="44.44706" lon="3.57267">
        <ele>1149</ele>
        <time>2022-05-27T07:38:41Z</time>
      </trkpt>
      <trkpt lat="44.44706" lon="3.57269">
        <ele>1149</ele>
        <time>2022-05-27T07:38:42Z</time>
      </trkpt>
      <trkpt lat="44.44706" lon="3.5727">
        <ele>1149</ele>
        <time>2022-05-27T07:38:43Z</time>
      </trkpt>
      <trkpt lat="44.44705" lon="3.57271">
        <ele>1149</ele>
        <time>2022-05-27T07:38:44Z</time>
      </trkpt>
      <trkpt lat="44.44704" lon="3.57272">
        <ele>1149</ele>
        <time>2022-05-27T07:38:45Z</time>
      </trkpt>
      <trkpt lat="44.44704" lon="3.57273">
        <ele>1149</ele>
        <time>2022-05-27T07:38:46Z</time>
      </trkpt>
      <trkpt lat="44.44704" lon="3.57274">
        <ele>1149</ele>
        <time>2022-05-27T07:38:47Z</time>
      </trkpt>
      <trkpt lat="44.44704" lon="3.57275">
        <ele>1150</ele>
        <time>2022-05-27T07:38:48Z</time>
      </trkpt>
      <trkpt lat="44.44704" lon="3.57276">
        <ele>1149</ele>
        <time>2022-05-27T07:38:49Z</time>
      </trkpt>
      <trkpt lat="44.44704" lon="3.57277">
        <ele>1150</ele>
        <time>2022-05-27T07:38:50Z</time>
      </trkpt>
      <trkpt lat="44.44704" lon="3.57279">
        <ele>1150</ele>
        <time>2022-05-27T07:38:51Z</time>
      </trkpt>
      <trkpt lat="44.44703" lon="3.5728">
        <ele>1150</ele>
        <time>2022-05-27T07:38:52Z</time>
      </trkpt>
      <trkpt lat="44.44703" lon="3.57281">
        <ele>1150</ele>
        <time>2022-05-27T07:38:53Z</time>
      </trkpt>
      <trkpt lat="44.44702" lon="3.57282">
        <ele>1150</ele>
        <time>2022-05-27T07:38:54Z</time>
      </trkpt>
      <trkpt lat="44.44702" lon="3.57283">
        <ele>1150</ele>
        <time>2022-05-27T07:38:55Z</time>
      </trkpt>
      <trkpt lat="44.44701" lon="3.57284">
        <ele>1150</ele>
        <time>2022-05-27T07:38:56Z</time>
      </trkpt>
      <trkpt lat="44.44701" lon="3.57286">
        <ele>1150</ele>
        <time>2022-05-27T07:38:57Z</time>
      </trkpt>
      <trkpt lat="44.44701" lon="3.57287">
        <ele>1150</ele>
        <time>2022-05-27T07:38:58Z</time>
      </trkpt>
      <trkpt lat="44.44701" lon="3.57287">
        <ele>1150</ele>
        <time>2022-05-27T07:38:59Z</time>
      </trkpt>
      <trkpt lat="44.447" lon="3.57289">
        <ele>1149</ele>
        <time>2022-05-27T07:39:00Z</time>
      </trkpt>
      <trkpt lat="44.447" lon="3.57291">
        <ele>1149</ele>
        <time>2022-05-27T07:39:01Z</time>
      </trkpt>
      <trkpt lat="44.447" lon="3.57292">
        <ele>1149</ele>
        <time>2022-05-27T07:39:02Z</time>
      </trkpt>
      <trkpt lat="44.447" lon="3.57294">
        <ele>1148</ele>
        <time>2022-05-27T07:39:03Z</time>
      </trkpt>
      <trkpt lat="44.44699" lon="3.57295">
        <ele>1147</ele>
        <time>2022-05-27T07:39:04Z</time>
      </trkpt>
      <trkpt lat="44.44699" lon="3.57296">
        <ele>1147</ele>
        <time>2022-05-27T07:39:05Z</time>
      </trkpt>
      <trkpt lat="44.44698" lon="3.57298">
        <ele>1146</ele>
        <time>2022-05-27T07:39:06Z</time>
      </trkpt>
      <trkpt lat="44.44698" lon="3.57299">
        <ele>1145</ele>
        <time>2022-05-27T07:39:07Z</time>
      </trkpt>
      <trkpt lat="44.44697" lon="3.57301">
        <ele>1145</ele>
        <time>2022-05-27T07:39:08Z</time>
      </trkpt>
      <trkpt lat="44.44697" lon="3.57302">
        <ele>1145</ele>
        <time>2022-05-27T07:39:09Z</time>
      </trkpt>
      <trkpt lat="44.44696" lon="3.57304">
        <ele>1144</ele>
        <time>2022-05-27T07:39:10Z</time>
      </trkpt>
      <trkpt lat="44.44696" lon="3.57306">
        <ele>1144</ele>
        <time>2022-05-27T07:39:11Z</time>
      </trkpt>
      <trkpt lat="44.44696" lon="3.57307">
        <ele>1144</ele>
        <time>2022-05-27T07:39:12Z</time>
      </trkpt>
      <trkpt lat="44.44696" lon="3.57308">
        <ele>1144</ele>
        <time>2022-05-27T07:39:13Z</time>
      </trkpt>
      <trkpt lat="44.44696" lon="3.57308">
        <ele>1144</ele>
        <time>2022-05-27T07:39:14Z</time>
      </trkpt>
      <trkpt lat="44.44696" lon="3.57308">
        <ele>1144</ele>
        <time>2022-05-27T07:39:15Z</time>
      </trkpt>
      <trkpt lat="44.44696" lon="3.57308">
        <ele>1144</ele>
        <time>2022-05-27T07:39:16Z</time>
      </trkpt>
      <trkpt lat="44.44696" lon="3.57308">
        <ele>1144</ele>
        <time>2022-05-27T07:39:17Z</time>
      </trkpt>
      <trkpt lat="44.44696" lon="3.57309">
        <ele>1146</ele>
        <time>2022-05-27T07:39:18Z</time>
      </trkpt>
      <trkpt lat="44.44695" lon="3.57311">
        <ele>1146</ele>
        <time>2022-05-27T07:39:19Z</time>
      </trkpt>
      <trkpt lat="44.44694" lon="3.57311">
        <ele>1146</ele>
        <time>2022-05-27T07:39:20Z</time>
      </trkpt>
      <trkpt lat="44.44693" lon="3.57313">
        <ele>1147</ele>
        <time>2022-05-27T07:39:21Z</time>
      </trkpt>
      <trkpt lat="44.44693" lon="3.57314">
        <ele>1147</ele>
        <time>2022-05-27T07:39:22Z</time>
      </trkpt>
      <trkpt lat="44.44693" lon="3.57314">
        <ele>1147</ele>
        <time>2022-05-27T07:39:23Z</time>
      </trkpt>
      <trkpt lat="44.44693" lon="3.57315">
        <ele>1148</ele>
        <time>2022-05-27T07:39:24Z</time>
      </trkpt>
      <trkpt lat="44.44693" lon="3.57315">
        <ele>1147</ele>
        <time>2022-05-27T07:39:25Z</time>
      </trkpt>
      <trkpt lat="44.44693" lon="3.57316">
        <ele>1147</ele>
        <time>2022-05-27T07:39:26Z</time>
      </trkpt>
      <trkpt lat="44.44693" lon="3.57317">
        <ele>1146</ele>
        <time>2022-05-27T07:39:27Z</time>
      </trkpt>
      <trkpt lat="44.44693" lon="3.57318">
        <ele>1147</ele>
        <time>2022-05-27T07:39:28Z</time>
      </trkpt>
      <trkpt lat="44.44692" lon="3.57319">
        <ele>1147</ele>
        <time>2022-05-27T07:39:29Z</time>
      </trkpt>
      <trkpt lat="44.44691" lon="3.5732">
        <ele>1146</ele>
        <time>2022-05-27T07:39:30Z</time>
      </trkpt>
      <trkpt lat="44.4469" lon="3.57322">
        <ele>1146</ele>
        <time>2022-05-27T07:39:31Z</time>
      </trkpt>
      <trkpt lat="44.44689" lon="3.57323">
        <ele>1146</ele>
        <time>2022-05-27T07:39:32Z</time>
      </trkpt>
      <trkpt lat="44.44689" lon="3.57324">
        <ele>1145</ele>
        <time>2022-05-27T07:39:33Z</time>
      </trkpt>
      <trkpt lat="44.44688" lon="3.57325">
        <ele>1144</ele>
        <time>2022-05-27T07:39:34Z</time>
      </trkpt>
      <trkpt lat="44.44688" lon="3.57326">
        <ele>1144</ele>
        <time>2022-05-27T07:39:35Z</time>
      </trkpt>
      <trkpt lat="44.44688" lon="3.57328">
        <ele>1144</ele>
        <time>2022-05-27T07:39:36Z</time>
      </trkpt>
      <trkpt lat="44.44688" lon="3.5733">
        <ele>1143</ele>
        <time>2022-05-27T07:39:37Z</time>
      </trkpt>
      <trkpt lat="44.44688" lon="3.57331">
        <ele>1143</ele>
        <time>2022-05-27T07:39:38Z</time>
      </trkpt>
      <trkpt lat="44.44688" lon="3.57333">
        <ele>1143</ele>
        <time>2022-05-27T07:39:39Z</time>
      </trkpt>
      <trkpt lat="44.44688" lon="3.57334">
        <ele>1143</ele>
        <time>2022-05-27T07:39:40Z</time>
      </trkpt>
      <trkpt lat="44.44688" lon="3.57336">
        <ele>1143</ele>
        <time>2022-05-27T07:39:41Z</time>
      </trkpt>
      <trkpt lat="44.44687" lon="3.57337">
        <ele>1143</ele>
        <time>2022-05-27T07:39:42Z</time>
      </trkpt>
      <trkpt lat="44.44687" lon="3.57339">
        <ele>1142</ele>
        <time>2022-05-27T07:39:43Z</time>
      </trkpt>
      <trkpt lat="44.44686" lon="3.57339">
        <ele>1142</ele>
        <time>2022-05-27T07:39:44Z</time>
      </trkpt>
      <trkpt lat="44.44685" lon="3.57339">
        <ele>1142</ele>
        <time>2022-05-27T07:39:45Z</time>
      </trkpt>
      <trkpt lat="44.44685" lon="3.57341">
        <ele>1142</ele>
        <time>2022-05-27T07:39:46Z</time>
      </trkpt>
      <trkpt lat="44.44684" lon="3.57342">
        <ele>1141</ele>
        <time>2022-05-27T07:39:47Z</time>
      </trkpt>
      <trkpt lat="44.44684" lon="3.57343">
        <ele>1142</ele>
        <time>2022-05-27T07:39:48Z</time>
      </trkpt>
      <trkpt lat="44.44684" lon="3.57345">
        <ele>1141</ele>
        <time>2022-05-27T07:39:49Z</time>
      </trkpt>
      <trkpt lat="44.44684" lon="3.57346">
        <ele>1141</ele>
        <time>2022-05-27T07:39:50Z</time>
      </trkpt>
      <trkpt lat="44.44683" lon="3.57348">
        <ele>1141</ele>
        <time>2022-05-27T07:39:51Z</time>
      </trkpt>
      <trkpt lat="44.44682" lon="3.57349">
        <ele>1140</ele>
        <time>2022-05-27T07:39:52Z</time>
      </trkpt>
      <trkpt lat="44.44682" lon="3.5735">
        <ele>1140</ele>
        <time>2022-05-27T07:39:53Z</time>
      </trkpt>
      <trkpt lat="44.44682" lon="3.57351">
        <ele>1140</ele>
        <time>2022-05-27T07:39:54Z</time>
      </trkpt>
      <trkpt lat="44.44682" lon="3.57352">
        <ele>1140</ele>
        <time>2022-05-27T07:39:55Z</time>
      </trkpt>
      <trkpt lat="44.44681" lon="3.57354">
        <ele>1141</ele>
        <time>2022-05-27T07:39:56Z</time>
      </trkpt>
      <trkpt lat="44.44681" lon="3.57355">
        <ele>1141</ele>
        <time>2022-05-27T07:39:57Z</time>
      </trkpt>
      <trkpt lat="44.4468" lon="3.57355">
        <ele>1141</ele>
        <time>2022-05-27T07:39:58Z</time>
      </trkpt>
      <trkpt lat="44.4468" lon="3.57357">
        <ele>1141</ele>
        <time>2022-05-27T07:39:59Z</time>
      </trkpt>
      <trkpt lat="44.4468" lon="3.57359">
        <ele>1141</ele>
        <time>2022-05-27T07:40:00Z</time>
      </trkpt>
      <trkpt lat="44.4468" lon="3.5736">
        <ele>1141</ele>
        <time>2022-05-27T07:40:01Z</time>
      </trkpt>
      <trkpt lat="44.4468" lon="3.57361">
        <ele>1141</ele>
        <time>2022-05-27T07:40:02Z</time>
      </trkpt>
      <trkpt lat="44.44679" lon="3.57362">
        <ele>1141</ele>
        <time>2022-05-27T07:40:03Z</time>
      </trkpt>
      <trkpt lat="44.44679" lon="3.57362">
        <ele>1141</ele>
        <time>2022-05-27T07:40:04Z</time>
      </trkpt>
      <trkpt lat="44.44678" lon="3.57363">
        <ele>1142</ele>
        <time>2022-05-27T07:40:05Z</time>
      </trkpt>
      <trkpt lat="44.44678" lon="3.57364">
        <ele>1141</ele>
        <time>2022-05-27T07:40:06Z</time>
      </trkpt>
      <trkpt lat="44.44677" lon="3.57366">
        <ele>1141</ele>
        <time>2022-05-27T07:40:07Z</time>
      </trkpt>
      <trkpt lat="44.44677" lon="3.57367">
        <ele>1141</ele>
        <time>2022-05-27T07:40:08Z</time>
      </trkpt>
      <trkpt lat="44.44677" lon="3.57368">
        <ele>1141</ele>
        <time>2022-05-27T07:40:09Z</time>
      </trkpt>
      <trkpt lat="44.44676" lon="3.5737">
        <ele>1141</ele>
        <time>2022-05-27T07:40:10Z</time>
      </trkpt>
      <trkpt lat="44.44676" lon="3.57371">
        <ele>1141</ele>
        <time>2022-05-27T07:40:11Z</time>
      </trkpt>
      <trkpt lat="44.44676" lon="3.57373">
        <ele>1141</ele>
        <time>2022-05-27T07:40:12Z</time>
      </trkpt>
      <trkpt lat="44.44675" lon="3.57375">
        <ele>1141</ele>
        <time>2022-05-27T07:40:13Z</time>
      </trkpt>
      <trkpt lat="44.44675" lon="3.57376">
        <ele>1141</ele>
        <time>2022-05-27T07:40:14Z</time>
      </trkpt>
      <trkpt lat="44.44675" lon="3.57377">
        <ele>1140</ele>
        <time>2022-05-27T07:40:15Z</time>
      </trkpt>
      <trkpt lat="44.44674" lon="3.57378">
        <ele>1140</ele>
        <time>2022-05-27T07:40:16Z</time>
      </trkpt>
      <trkpt lat="44.44674" lon="3.5738">
        <ele>1140</ele>
        <time>2022-05-27T07:40:17Z</time>
      </trkpt>
      <trkpt lat="44.44674" lon="3.57381">
        <ele>1140</ele>
        <time>2022-05-27T07:40:18Z</time>
      </trkpt>
      <trkpt lat="44.44674" lon="3.57383">
        <ele>1140</ele>
        <time>2022-05-27T07:40:19Z</time>
      </trkpt>
      <trkpt lat="44.44673" lon="3.57384">
        <ele>1140</ele>
        <time>2022-05-27T07:40:20Z</time>
      </trkpt>
      <trkpt lat="44.44673" lon="3.57385">
        <ele>1140</ele>
        <time>2022-05-27T07:40:21Z</time>
      </trkpt>
      <trkpt lat="44.44673" lon="3.57386">
        <ele>1140</ele>
        <time>2022-05-27T07:40:22Z</time>
      </trkpt>
      <trkpt lat="44.44673" lon="3.57388">
        <ele>1139</ele>
        <time>2022-05-27T07:40:23Z</time>
      </trkpt>
      <trkpt lat="44.44672" lon="3.57389">
        <ele>1139</ele>
        <time>2022-05-27T07:40:24Z</time>
      </trkpt>
      <trkpt lat="44.44672" lon="3.5739">
        <ele>1139</ele>
        <time>2022-05-27T07:40:25Z</time>
      </trkpt>
      <trkpt lat="44.44672" lon="3.57392">
        <ele>1139</ele>
        <time>2022-05-27T07:40:26Z</time>
      </trkpt>
      <trkpt lat="44.44672" lon="3.57393">
        <ele>1139</ele>
        <time>2022-05-27T07:40:27Z</time>
      </trkpt>
      <trkpt lat="44.44671" lon="3.57394">
        <ele>1139</ele>
        <time>2022-05-27T07:40:28Z</time>
      </trkpt>
      <trkpt lat="44.44671" lon="3.57395">
        <ele>1139</ele>
        <time>2022-05-27T07:40:29Z</time>
      </trkpt>
      <trkpt lat="44.44671" lon="3.57396">
        <ele>1139</ele>
        <time>2022-05-27T07:40:30Z</time>
      </trkpt>
      <trkpt lat="44.44671" lon="3.57398">
        <ele>1138</ele>
        <time>2022-05-27T07:40:31Z</time>
      </trkpt>
      <trkpt lat="44.4467" lon="3.57399">
        <ele>1138</ele>
        <time>2022-05-27T07:40:32Z</time>
      </trkpt>
      <trkpt lat="44.4467" lon="3.574">
        <ele>1138</ele>
        <time>2022-05-27T07:40:33Z</time>
      </trkpt>
      <trkpt lat="44.44669" lon="3.57401">
        <ele>1138</ele>
        <time>2022-05-27T07:40:34Z</time>
      </trkpt>
      <trkpt lat="44.44669" lon="3.57403">
        <ele>1138</ele>
        <time>2022-05-27T07:40:35Z</time>
      </trkpt>
      <trkpt lat="44.44668" lon="3.57404">
        <ele>1138</ele>
        <time>2022-05-27T07:40:36Z</time>
      </trkpt>
      <trkpt lat="44.44668" lon="3.57405">
        <ele>1138</ele>
        <time>2022-05-27T07:40:37Z</time>
      </trkpt>
      <trkpt lat="44.44667" lon="3.57406">
        <ele>1138</ele>
        <time>2022-05-27T07:40:38Z</time>
      </trkpt>
      <trkpt lat="44.44667" lon="3.57408">
        <ele>1138</ele>
        <time>2022-05-27T07:40:39Z</time>
      </trkpt>
      <trkpt lat="44.44667" lon="3.57409">
        <ele>1138</ele>
        <time>2022-05-27T07:40:40Z</time>
      </trkpt>
      <trkpt lat="44.44666" lon="3.57411">
        <ele>1138</ele>
        <time>2022-05-27T07:40:41Z</time>
      </trkpt>
      <trkpt lat="44.44666" lon="3.57411">
        <ele>1138</ele>
        <time>2022-05-27T07:40:42Z</time>
      </trkpt>
      <trkpt lat="44.44666" lon="3.57412">
        <ele>1138</ele>
        <time>2022-05-27T07:40:43Z</time>
      </trkpt>
      <trkpt lat="44.44665" lon="3.57414">
        <ele>1138</ele>
        <time>2022-05-27T07:40:44Z</time>
      </trkpt>
      <trkpt lat="44.44664" lon="3.57415">
        <ele>1138</ele>
        <time>2022-05-27T07:40:45Z</time>
      </trkpt>
      <trkpt lat="44.44664" lon="3.57417">
        <ele>1138</ele>
        <time>2022-05-27T07:40:46Z</time>
      </trkpt>
      <trkpt lat="44.44664" lon="3.57419">
        <ele>1139</ele>
        <time>2022-05-27T07:40:47Z</time>
      </trkpt>
      <trkpt lat="44.44664" lon="3.5742">
        <ele>1139</ele>
        <time>2022-05-27T07:40:48Z</time>
      </trkpt>
      <trkpt lat="44.44664" lon="3.57421">
        <ele>1139</ele>
        <time>2022-05-27T07:40:49Z</time>
      </trkpt>
      <trkpt lat="44.44663" lon="3.57423">
        <ele>1139</ele>
        <time>2022-05-27T07:40:50Z</time>
      </trkpt>
      <trkpt lat="44.44663" lon="3.57424">
        <ele>1139</ele>
        <time>2022-05-27T07:40:51Z</time>
      </trkpt>
      <trkpt lat="44.44663" lon="3.57426">
        <ele>1140</ele>
        <time>2022-05-27T07:40:52Z</time>
      </trkpt>
      <trkpt lat="44.44663" lon="3.57427">
        <ele>1139</ele>
        <time>2022-05-27T07:40:53Z</time>
      </trkpt>
      <trkpt lat="44.44664" lon="3.57429">
        <ele>1140</ele>
        <time>2022-05-27T07:40:54Z</time>
      </trkpt>
      <trkpt lat="44.44663" lon="3.5743">
        <ele>1141</ele>
        <time>2022-05-27T07:40:55Z</time>
      </trkpt>
      <trkpt lat="44.44664" lon="3.57432">
        <ele>1142</ele>
        <time>2022-05-27T07:40:56Z</time>
      </trkpt>
      <trkpt lat="44.44663" lon="3.57434">
        <ele>1142</ele>
        <time>2022-05-27T07:40:57Z</time>
      </trkpt>
      <trkpt lat="44.44663" lon="3.57436">
        <ele>1142</ele>
        <time>2022-05-27T07:40:58Z</time>
      </trkpt>
      <trkpt lat="44.44663" lon="3.57437">
        <ele>1142</ele>
        <time>2022-05-27T07:40:59Z</time>
      </trkpt>
      <trkpt lat="44.44663" lon="3.57438">
        <ele>1142</ele>
        <time>2022-05-27T07:41:00Z</time>
      </trkpt>
      <trkpt lat="44.44663" lon="3.5744">
        <ele>1142</ele>
        <time>2022-05-27T07:41:01Z</time>
      </trkpt>
      <trkpt lat="44.44663" lon="3.5744">
        <ele>1142</ele>
        <time>2022-05-27T07:41:02Z</time>
      </trkpt>
      <trkpt lat="44.44664" lon="3.57441">
        <ele>1142</ele>
        <time>2022-05-27T07:41:03Z</time>
      </trkpt>
      <trkpt lat="44.44664" lon="3.57441">
        <ele>1143</ele>
        <time>2022-05-27T07:41:04Z</time>
      </trkpt>
      <trkpt lat="44.44664" lon="3.57441">
        <ele>1143</ele>
        <time>2022-05-27T07:41:05Z</time>
      </trkpt>
      <trkpt lat="44.44664" lon="3.57441">
        <ele>1143</ele>
        <time>2022-05-27T07:41:06Z</time>
      </trkpt>
      <trkpt lat="44.44664" lon="3.57441">
        <ele>1143</ele>
        <time>2022-05-27T07:41:07Z</time>
      </trkpt>
      <trkpt lat="44.44664" lon="3.57441">
        <ele>1143</ele>
        <time>2022-05-27T07:41:07Z</time>
      </trkpt>
      <trkpt lat="44.44664" lon="3.57441">
        <ele>1143</ele>
        <time>2022-05-27T07:41:07Z</time>
      </trkpt>
      <trkpt lat="44.44664" lon="3.57446">
        <ele>1154</ele>
        <time>2022-05-27T07:45:32Z</time>
      </trkpt>
      <trkpt lat="44.44664" lon="3.57446">
        <ele>1154</ele>
        <time>2022-05-27T07:45:33Z</time>
      </trkpt>
      <trkpt lat="44.44663" lon="3.57446">
        <ele>1155</ele>
        <time>2022-05-27T07:45:34Z</time>
      </trkpt>
      <trkpt lat="44.44662" lon="3.57446">
        <ele>1155</ele>
        <time>2022-05-27T07:45:35Z</time>
      </trkpt>
      <trkpt lat="44.44661" lon="3.57447">
        <ele>1155</ele>
        <time>2022-05-27T07:45:36Z</time>
      </trkpt>
      <trkpt lat="44.44661" lon="3.57447">
        <ele>1155</ele>
        <time>2022-05-27T07:45:37Z</time>
      </trkpt>
      <trkpt lat="44.4466" lon="3.57447">
        <ele>1156</ele>
        <time>2022-05-27T07:45:38Z</time>
      </trkpt>
      <trkpt lat="44.44659" lon="3.57446">
        <ele>1157</ele>
        <time>2022-05-27T07:45:39Z</time>
      </trkpt>
      <trkpt lat="44.44659" lon="3.57446">
        <ele>1157</ele>
        <time>2022-05-27T07:45:40Z</time>
      </trkpt>
      <trkpt lat="44.44659" lon="3.57446">
        <ele>1157</ele>
        <time>2022-05-27T07:45:41Z</time>
      </trkpt>
      <trkpt lat="44.44658" lon="3.57445">
        <ele>1158</ele>
        <time>2022-05-27T07:45:42Z</time>
      </trkpt>
      <trkpt lat="44.44657" lon="3.57445">
        <ele>1158</ele>
        <time>2022-05-27T07:45:43Z</time>
      </trkpt>
      <trkpt lat="44.44656" lon="3.57444">
        <ele>1159</ele>
        <time>2022-05-27T07:45:44Z</time>
      </trkpt>
      <trkpt lat="44.44655" lon="3.57444">
        <ele>1159</ele>
        <time>2022-05-27T07:45:45Z</time>
      </trkpt>
      <trkpt lat="44.44655" lon="3.57444">
        <ele>1159</ele>
        <time>2022-05-27T07:45:46Z</time>
      </trkpt>
      <trkpt lat="44.44654" lon="3.57445">
        <ele>1158</ele>
        <time>2022-05-27T07:45:47Z</time>
      </trkpt>
      <trkpt lat="44.44653" lon="3.57446">
        <ele>1158</ele>
        <time>2022-05-27T07:45:48Z</time>
      </trkpt>
      <trkpt lat="44.44652" lon="3.57447">
        <ele>1156</ele>
        <time>2022-05-27T07:45:49Z</time>
      </trkpt>
      <trkpt lat="44.44651" lon="3.57447">
        <ele>1157</ele>
        <time>2022-05-27T07:45:50Z</time>
      </trkpt>
      <trkpt lat="44.4465" lon="3.57447">
        <ele>1156</ele>
        <time>2022-05-27T07:45:51Z</time>
      </trkpt>
      <trkpt lat="44.4465" lon="3.57447">
        <ele>1156</ele>
        <time>2022-05-27T07:45:52Z</time>
      </trkpt>
      <trkpt lat="44.44649" lon="3.57448">
        <ele>1156</ele>
        <time>2022-05-27T07:45:53Z</time>
      </trkpt>
      <trkpt lat="44.44648" lon="3.57448">
        <ele>1156</ele>
        <time>2022-05-27T07:45:54Z</time>
      </trkpt>
      <trkpt lat="44.44648" lon="3.57449">
        <ele>1156</ele>
        <time>2022-05-27T07:45:55Z</time>
      </trkpt>
      <trkpt lat="44.44646" lon="3.5745">
        <ele>1156</ele>
        <time>2022-05-27T07:45:56Z</time>
      </trkpt>
      <trkpt lat="44.44645" lon="3.5745">
        <ele>1157</ele>
        <time>2022-05-27T07:45:57Z</time>
      </trkpt>
      <trkpt lat="44.44644" lon="3.5745">
        <ele>1157</ele>
        <time>2022-05-27T07:45:58Z</time>
      </trkpt>
      <trkpt lat="44.44643" lon="3.5745">
        <ele>1157</ele>
        <time>2022-05-27T07:45:59Z</time>
      </trkpt>
      <trkpt lat="44.44642" lon="3.5745">
        <ele>1158</ele>
        <time>2022-05-27T07:46:00Z</time>
      </trkpt>
      <trkpt lat="44.44641" lon="3.5745">
        <ele>1157</ele>
        <time>2022-05-27T07:46:01Z</time>
      </trkpt>
      <trkpt lat="44.44641" lon="3.5745">
        <ele>1157</ele>
        <time>2022-05-27T07:46:02Z</time>
      </trkpt>
      <trkpt lat="44.44641" lon="3.5745">
        <ele>1157</ele>
        <time>2022-05-27T07:46:03Z</time>
      </trkpt>
      <trkpt lat="44.44639" lon="3.57451">
        <ele>1159</ele>
        <time>2022-05-27T07:46:04Z</time>
      </trkpt>
      <trkpt lat="44.44638" lon="3.57451">
        <ele>1160</ele>
        <time>2022-05-27T07:46:05Z</time>
      </trkpt>
      <trkpt lat="44.44637" lon="3.57452">
        <ele>1160</ele>
        <time>2022-05-27T07:46:06Z</time>
      </trkpt>
      <trkpt lat="44.44635" lon="3.57452">
        <ele>1161</ele>
        <time>2022-05-27T07:46:07Z</time>
      </trkpt>
      <trkpt lat="44.44634" lon="3.57453">
        <ele>1161</ele>
        <time>2022-05-27T07:46:08Z</time>
      </trkpt>
      <trkpt lat="44.44634" lon="3.57453">
        <ele>1161</ele>
        <time>2022-05-27T07:46:09Z</time>
      </trkpt>
      <trkpt lat="44.44633" lon="3.57454">
        <ele>1162</ele>
        <time>2022-05-27T07:46:10Z</time>
      </trkpt>
      <trkpt lat="44.44632" lon="3.57455">
        <ele>1162</ele>
        <time>2022-05-27T07:46:11Z</time>
      </trkpt>
      <trkpt lat="44.44632" lon="3.57455">
        <ele>1162</ele>
        <time>2022-05-27T07:46:12Z</time>
      </trkpt>
      <trkpt lat="44.4463" lon="3.57456">
        <ele>1162</ele>
        <time>2022-05-27T07:46:13Z</time>
      </trkpt>
      <trkpt lat="44.4463" lon="3.57457">
        <ele>1163</ele>
        <time>2022-05-27T07:46:14Z</time>
      </trkpt>
      <trkpt lat="44.44629" lon="3.57458">
        <ele>1163</ele>
        <time>2022-05-27T07:46:15Z</time>
      </trkpt>
      <trkpt lat="44.44628" lon="3.57458">
        <ele>1163</ele>
        <time>2022-05-27T07:46:16Z</time>
      </trkpt>
      <trkpt lat="44.44627" lon="3.57459">
        <ele>1164</ele>
        <time>2022-05-27T07:46:17Z</time>
      </trkpt>
      <trkpt lat="44.44626" lon="3.57459">
        <ele>1164</ele>
        <time>2022-05-27T07:46:18Z</time>
      </trkpt>
      <trkpt lat="44.44626" lon="3.57459">
        <ele>1164</ele>
        <time>2022-05-27T07:46:19Z</time>
      </trkpt>
      <trkpt lat="44.44626" lon="3.57459">
        <ele>1164</ele>
        <time>2022-05-27T07:46:20Z</time>
      </trkpt>
      <trkpt lat="44.44624" lon="3.5746">
        <ele>1167</ele>
        <time>2022-05-27T07:46:21Z</time>
      </trkpt>
      <trkpt lat="44.44624" lon="3.5746">
        <ele>1167</ele>
        <time>2022-05-27T07:46:22Z</time>
      </trkpt>
      <trkpt lat="44.44623" lon="3.5746">
        <ele>1168</ele>
        <time>2022-05-27T07:46:23Z</time>
      </trkpt>
      <trkpt lat="44.44622" lon="3.5746">
        <ele>1168</ele>
        <time>2022-05-27T07:46:24Z</time>
      </trkpt>
      <trkpt lat="44.44622" lon="3.5746">
        <ele>1168</ele>
        <time>2022-05-27T07:46:25Z</time>
      </trkpt>
      <trkpt lat="44.44621" lon="3.5746">
        <ele>1169</ele>
        <time>2022-05-27T07:46:26Z</time>
      </trkpt>
      <trkpt lat="44.4462" lon="3.57459">
        <ele>1169</ele>
        <time>2022-05-27T07:46:27Z</time>
      </trkpt>
      <trkpt lat="44.4462" lon="3.57459">
        <ele>1170</ele>
        <time>2022-05-27T07:46:28Z</time>
      </trkpt>
      <trkpt lat="44.4462" lon="3.57459">
        <ele>1170</ele>
        <time>2022-05-27T07:46:29Z</time>
      </trkpt>
      <trkpt lat="44.4462" lon="3.57459">
        <ele>1170</ele>
        <time>2022-05-27T07:46:30Z</time>
      </trkpt>
      <trkpt lat="44.44619" lon="3.57459">
        <ele>1170</ele>
        <time>2022-05-27T07:46:31Z</time>
      </trkpt>
      <trkpt lat="44.44618" lon="3.57459">
        <ele>1171</ele>
        <time>2022-05-27T07:46:32Z</time>
      </trkpt>
      <trkpt lat="44.44618" lon="3.57458">
        <ele>1171</ele>
        <time>2022-05-27T07:46:33Z</time>
      </trkpt>
      <trkpt lat="44.44617" lon="3.57458">
        <ele>1171</ele>
        <time>2022-05-27T07:46:34Z</time>
      </trkpt>
      <trkpt lat="44.44617" lon="3.57458">
        <ele>1171</ele>
        <time>2022-05-27T07:46:35Z</time>
      </trkpt>
      <trkpt lat="44.44617" lon="3.57458">
        <ele>1171</ele>
        <time>2022-05-27T07:46:36Z</time>
      </trkpt>
      <trkpt lat="44.44614" lon="3.57458">
        <ele>1172</ele>
        <time>2022-05-27T07:46:37Z</time>
      </trkpt>
      <trkpt lat="44.44613" lon="3.57457">
        <ele>1172</ele>
        <time>2022-05-27T07:46:38Z</time>
      </trkpt>
      <trkpt lat="44.44612" lon="3.57456">
        <ele>1172</ele>
        <time>2022-05-27T07:46:39Z</time>
      </trkpt>
      <trkpt lat="44.44611" lon="3.57455">
        <ele>1172</ele>
        <time>2022-05-27T07:46:40Z</time>
      </trkpt>
      <trkpt lat="44.44609" lon="3.57454">
        <ele>1172</ele>
        <time>2022-05-27T07:46:41Z</time>
      </trkpt>
      <trkpt lat="44.44608" lon="3.57454">
        <ele>1173</ele>
        <time>2022-05-27T07:46:42Z</time>
      </trkpt>
      <trkpt lat="44.44606" lon="3.57454">
        <ele>1174</ele>
        <time>2022-05-27T07:46:43Z</time>
      </trkpt>
      <trkpt lat="44.44605" lon="3.57453">
        <ele>1175</ele>
        <time>2022-05-27T07:46:44Z</time>
      </trkpt>
      <trkpt lat="44.44604" lon="3.57453">
        <ele>1175</ele>
        <time>2022-05-27T07:46:45Z</time>
      </trkpt>
      <trkpt lat="44.44602" lon="3.57452">
        <ele>1174</ele>
        <time>2022-05-27T07:46:46Z</time>
      </trkpt>
      <trkpt lat="44.44601" lon="3.57452">
        <ele>1174</ele>
        <time>2022-05-27T07:46:47Z</time>
      </trkpt>
      <trkpt lat="44.446" lon="3.57452">
        <ele>1174</ele>
        <time>2022-05-27T07:46:48Z</time>
      </trkpt>
      <trkpt lat="44.44599" lon="3.57452">
        <ele>1175</ele>
        <time>2022-05-27T07:46:49Z</time>
      </trkpt>
      <trkpt lat="44.44598" lon="3.57451">
        <ele>1175</ele>
        <time>2022-05-27T07:46:50Z</time>
      </trkpt>
      <trkpt lat="44.44597" lon="3.57451">
        <ele>1175</ele>
        <time>2022-05-27T07:46:51Z</time>
      </trkpt>
      <trkpt lat="44.44597" lon="3.57451">
        <ele>1175</ele>
        <time>2022-05-27T07:46:52Z</time>
      </trkpt>
      <trkpt lat="44.44595" lon="3.57451">
        <ele>1175</ele>
        <time>2022-05-27T07:46:53Z</time>
      </trkpt>
      <trkpt lat="44.44594" lon="3.57451">
        <ele>1175</ele>
        <time>2022-05-27T07:46:54Z</time>
      </trkpt>
      <trkpt lat="44.44593" lon="3.5745">
        <ele>1175</ele>
        <time>2022-05-27T07:46:55Z</time>
      </trkpt>
      <trkpt lat="44.44592" lon="3.5745">
        <ele>1175</ele>
        <time>2022-05-27T07:46:56Z</time>
      </trkpt>
      <trkpt lat="44.44591" lon="3.57449">
        <ele>1175</ele>
        <time>2022-05-27T07:46:57Z</time>
      </trkpt>
      <trkpt lat="44.4459" lon="3.5745">
        <ele>1174</ele>
        <time>2022-05-27T07:46:58Z</time>
      </trkpt>
      <trkpt lat="44.44589" lon="3.5745">
        <ele>1174</ele>
        <time>2022-05-27T07:46:59Z</time>
      </trkpt>
      <trkpt lat="44.44589" lon="3.5745">
        <ele>1174</ele>
        <time>2022-05-27T07:47:00Z</time>
      </trkpt>
      <trkpt lat="44.44589" lon="3.5745">
        <ele>1174</ele>
        <time>2022-05-27T07:47:01Z</time>
      </trkpt>
      <trkpt lat="44.44587" lon="3.5745">
        <ele>1175</ele>
        <time>2022-05-27T07:47:02Z</time>
      </trkpt>
      <trkpt lat="44.44585" lon="3.57451">
        <ele>1175</ele>
        <time>2022-05-27T07:47:03Z</time>
      </trkpt>
      <trkpt lat="44.44584" lon="3.57451">
        <ele>1175</ele>
        <time>2022-05-27T07:47:04Z</time>
      </trkpt>
      <trkpt lat="44.44583" lon="3.57452">
        <ele>1175</ele>
        <time>2022-05-27T07:47:05Z</time>
      </trkpt>
      <trkpt lat="44.44582" lon="3.57452">
        <ele>1175</ele>
        <time>2022-05-27T07:47:06Z</time>
      </trkpt>
      <trkpt lat="44.44581" lon="3.57452">
        <ele>1174</ele>
        <time>2022-05-27T07:47:07Z</time>
      </trkpt>
      <trkpt lat="44.4458" lon="3.57453">
        <ele>1175</ele>
        <time>2022-05-27T07:47:08Z</time>
      </trkpt>
      <trkpt lat="44.44579" lon="3.57453">
        <ele>1175</ele>
        <time>2022-05-27T07:47:09Z</time>
      </trkpt>
      <trkpt lat="44.44578" lon="3.57454">
        <ele>1174</ele>
        <time>2022-05-27T07:47:10Z</time>
      </trkpt>
      <trkpt lat="44.44577" lon="3.57455">
        <ele>1174</ele>
        <time>2022-05-27T07:47:11Z</time>
      </trkpt>
      <trkpt lat="44.44575" lon="3.57456">
        <ele>1174</ele>
        <time>2022-05-27T07:47:12Z</time>
      </trkpt>
      <trkpt lat="44.44574" lon="3.57457">
        <ele>1175</ele>
        <time>2022-05-27T07:47:13Z</time>
      </trkpt>
      <trkpt lat="44.44572" lon="3.57458">
        <ele>1175</ele>
        <time>2022-05-27T07:47:14Z</time>
      </trkpt>
      <trkpt lat="44.44571" lon="3.57458">
        <ele>1175</ele>
        <time>2022-05-27T07:47:15Z</time>
      </trkpt>
      <trkpt lat="44.4457" lon="3.57459">
        <ele>1175</ele>
        <time>2022-05-27T07:47:16Z</time>
      </trkpt>
      <trkpt lat="44.44569" lon="3.5746">
        <ele>1175</ele>
        <time>2022-05-27T07:47:17Z</time>
      </trkpt>
      <trkpt lat="44.44568" lon="3.5746">
        <ele>1175</ele>
        <time>2022-05-27T07:47:18Z</time>
      </trkpt>
      <trkpt lat="44.44567" lon="3.57461">
        <ele>1175</ele>
        <time>2022-05-27T07:47:19Z</time>
      </trkpt>
      <trkpt lat="44.44566" lon="3.57462">
        <ele>1174</ele>
        <time>2022-05-27T07:47:20Z</time>
      </trkpt>
      <trkpt lat="44.44564" lon="3.57463">
        <ele>1174</ele>
        <time>2022-05-27T07:47:21Z</time>
      </trkpt>
      <trkpt lat="44.44563" lon="3.57463">
        <ele>1173</ele>
        <time>2022-05-27T07:47:22Z</time>
      </trkpt>
      <trkpt lat="44.44562" lon="3.57464">
        <ele>1174</ele>
        <time>2022-05-27T07:47:23Z</time>
      </trkpt>
      <trkpt lat="44.44561" lon="3.57465">
        <ele>1174</ele>
        <time>2022-05-27T07:47:24Z</time>
      </trkpt>
      <trkpt lat="44.4456" lon="3.57466">
        <ele>1175</ele>
        <time>2022-05-27T07:47:25Z</time>
      </trkpt>
      <trkpt lat="44.44559" lon="3.57467">
        <ele>1175</ele>
        <time>2022-05-27T07:47:26Z</time>
      </trkpt>
      <trkpt lat="44.44559" lon="3.57467">
        <ele>1176</ele>
        <time>2022-05-27T07:47:27Z</time>
      </trkpt>
      <trkpt lat="44.44558" lon="3.57468">
        <ele>1176</ele>
        <time>2022-05-27T07:47:28Z</time>
      </trkpt>
      <trkpt lat="44.44557" lon="3.57469">
        <ele>1177</ele>
        <time>2022-05-27T07:47:29Z</time>
      </trkpt>
      <trkpt lat="44.44557" lon="3.57469">
        <ele>1177</ele>
        <time>2022-05-27T07:47:30Z</time>
      </trkpt>
      <trkpt lat="44.44557" lon="3.57469">
        <ele>1177</ele>
        <time>2022-05-27T07:47:31Z</time>
      </trkpt>
      <trkpt lat="44.44555" lon="3.57471">
        <ele>1178</ele>
        <time>2022-05-27T07:47:32Z</time>
      </trkpt>
      <trkpt lat="44.44555" lon="3.57472">
        <ele>1178</ele>
        <time>2022-05-27T07:47:33Z</time>
      </trkpt>
      <trkpt lat="44.44554" lon="3.57474">
        <ele>1178</ele>
        <time>2022-05-27T07:47:34Z</time>
      </trkpt>
      <trkpt lat="44.44554" lon="3.57475">
        <ele>1178</ele>
        <time>2022-05-27T07:47:35Z</time>
      </trkpt>
      <trkpt lat="44.44553" lon="3.57476">
        <ele>1178</ele>
        <time>2022-05-27T07:47:36Z</time>
      </trkpt>
      <trkpt lat="44.44552" lon="3.57477">
        <ele>1179</ele>
        <time>2022-05-27T07:47:37Z</time>
      </trkpt>
      <trkpt lat="44.44552" lon="3.57478">
        <ele>1179</ele>
        <time>2022-05-27T07:47:38Z</time>
      </trkpt>
      <trkpt lat="44.44551" lon="3.57479">
        <ele>1180</ele>
        <time>2022-05-27T07:47:39Z</time>
      </trkpt>
      <trkpt lat="44.4455" lon="3.5748">
        <ele>1180</ele>
        <time>2022-05-27T07:47:40Z</time>
      </trkpt>
      <trkpt lat="44.4455" lon="3.57481">
        <ele>1180</ele>
        <time>2022-05-27T07:47:41Z</time>
      </trkpt>
      <trkpt lat="44.44548" lon="3.57482">
        <ele>1180</ele>
        <time>2022-05-27T07:47:42Z</time>
      </trkpt>
      <trkpt lat="44.44548" lon="3.57483">
        <ele>1181</ele>
        <time>2022-05-27T07:47:43Z</time>
      </trkpt>
      <trkpt lat="44.44547" lon="3.57485">
        <ele>1181</ele>
        <time>2022-05-27T07:47:44Z</time>
      </trkpt>
      <trkpt lat="44.44547" lon="3.57486">
        <ele>1181</ele>
        <time>2022-05-27T07:47:45Z</time>
      </trkpt>
      <trkpt lat="44.44545" lon="3.57487">
        <ele>1181</ele>
        <time>2022-05-27T07:47:46Z</time>
      </trkpt>
      <trkpt lat="44.44545" lon="3.57487">
        <ele>1181</ele>
        <time>2022-05-27T07:47:47Z</time>
      </trkpt>
      <trkpt lat="44.44544" lon="3.57489">
        <ele>1182</ele>
        <time>2022-05-27T07:47:48Z</time>
      </trkpt>
      <trkpt lat="44.44543" lon="3.57491">
        <ele>1183</ele>
        <time>2022-05-27T07:47:49Z</time>
      </trkpt>
      <trkpt lat="44.44542" lon="3.57492">
        <ele>1182</ele>
        <time>2022-05-27T07:47:50Z</time>
      </trkpt>
      <trkpt lat="44.44542" lon="3.57492">
        <ele>1182</ele>
        <time>2022-05-27T07:47:51Z</time>
      </trkpt>
      <trkpt lat="44.44541" lon="3.57492">
        <ele>1181</ele>
        <time>2022-05-27T07:47:52Z</time>
      </trkpt>
      <trkpt lat="44.44541" lon="3.57493">
        <ele>1181</ele>
        <time>2022-05-27T07:47:53Z</time>
      </trkpt>
      <trkpt lat="44.4454" lon="3.57494">
        <ele>1181</ele>
        <time>2022-05-27T07:47:54Z</time>
      </trkpt>
      <trkpt lat="44.4454" lon="3.57494">
        <ele>1180</ele>
        <time>2022-05-27T07:47:55Z</time>
      </trkpt>
      <trkpt lat="44.44539" lon="3.57495">
        <ele>1180</ele>
        <time>2022-05-27T07:47:56Z</time>
      </trkpt>
      <trkpt lat="44.44538" lon="3.57495">
        <ele>1180</ele>
        <time>2022-05-27T07:47:57Z</time>
      </trkpt>
      <trkpt lat="44.44537" lon="3.57495">
        <ele>1180</ele>
        <time>2022-05-27T07:47:58Z</time>
      </trkpt>
      <trkpt lat="44.44537" lon="3.57496">
        <ele>1180</ele>
        <time>2022-05-27T07:47:59Z</time>
      </trkpt>
      <trkpt lat="44.44535" lon="3.57497">
        <ele>1180</ele>
        <time>2022-05-27T07:48:00Z</time>
      </trkpt>
      <trkpt lat="44.44535" lon="3.57499">
        <ele>1180</ele>
        <time>2022-05-27T07:48:01Z</time>
      </trkpt>
      <trkpt lat="44.44533" lon="3.575">
        <ele>1180</ele>
        <time>2022-05-27T07:48:02Z</time>
      </trkpt>
      <trkpt lat="44.44532" lon="3.575">
        <ele>1180</ele>
        <time>2022-05-27T07:48:03Z</time>
      </trkpt>
      <trkpt lat="44.44531" lon="3.57502">
        <ele>1180</ele>
        <time>2022-05-27T07:48:04Z</time>
      </trkpt>
      <trkpt lat="44.44531" lon="3.57502">
        <ele>1180</ele>
        <time>2022-05-27T07:48:05Z</time>
      </trkpt>
      <trkpt lat="44.44529" lon="3.57503">
        <ele>1180</ele>
        <time>2022-05-27T07:48:06Z</time>
      </trkpt>
      <trkpt lat="44.44529" lon="3.57503">
        <ele>1180</ele>
        <time>2022-05-27T07:48:07Z</time>
      </trkpt>
      <trkpt lat="44.44527" lon="3.57503">
        <ele>1181</ele>
        <time>2022-05-27T07:48:08Z</time>
      </trkpt>
      <trkpt lat="44.44527" lon="3.57503">
        <ele>1181</ele>
        <time>2022-05-27T07:48:09Z</time>
      </trkpt>
      <trkpt lat="44.44527" lon="3.57503">
        <ele>1182</ele>
        <time>2022-05-27T07:48:10Z</time>
      </trkpt>
      <trkpt lat="44.44526" lon="3.57502">
        <ele>1182</ele>
        <time>2022-05-27T07:48:11Z</time>
      </trkpt>
      <trkpt lat="44.44525" lon="3.57503">
        <ele>1183</ele>
        <time>2022-05-27T07:48:12Z</time>
      </trkpt>
      <trkpt lat="44.44524" lon="3.57503">
        <ele>1183</ele>
        <time>2022-05-27T07:48:13Z</time>
      </trkpt>
      <trkpt lat="44.44524" lon="3.57502">
        <ele>1183</ele>
        <time>2022-05-27T07:48:14Z</time>
      </trkpt>
      <trkpt lat="44.44523" lon="3.57502">
        <ele>1184</ele>
        <time>2022-05-27T07:48:15Z</time>
      </trkpt>
      <trkpt lat="44.44522" lon="3.57502">
        <ele>1185</ele>
        <time>2022-05-27T07:48:16Z</time>
      </trkpt>
      <trkpt lat="44.44521" lon="3.57502">
        <ele>1184</ele>
        <time>2022-05-27T07:48:17Z</time>
      </trkpt>
      <trkpt lat="44.4452" lon="3.57502">
        <ele>1184</ele>
        <time>2022-05-27T07:48:18Z</time>
      </trkpt>
      <trkpt lat="44.44519" lon="3.57501">
        <ele>1185</ele>
        <time>2022-05-27T07:48:19Z</time>
      </trkpt>
      <trkpt lat="44.44518" lon="3.575">
        <ele>1185</ele>
        <time>2022-05-27T07:48:20Z</time>
      </trkpt>
      <trkpt lat="44.44517" lon="3.575">
        <ele>1186</ele>
        <time>2022-05-27T07:48:21Z</time>
      </trkpt>
      <trkpt lat="44.44517" lon="3.57499">
        <ele>1186</ele>
        <time>2022-05-27T07:48:22Z</time>
      </trkpt>
      <trkpt lat="44.44517" lon="3.57499">
        <ele>1186</ele>
        <time>2022-05-27T07:48:23Z</time>
      </trkpt>
      <trkpt lat="44.44516" lon="3.57499">
        <ele>1186</ele>
        <time>2022-05-27T07:48:24Z</time>
      </trkpt>
      <trkpt lat="44.44514" lon="3.57499">
        <ele>1186</ele>
        <time>2022-05-27T07:48:25Z</time>
      </trkpt>
      <trkpt lat="44.44513" lon="3.57499">
        <ele>1187</ele>
        <time>2022-05-27T07:48:26Z</time>
      </trkpt>
      <trkpt lat="44.44512" lon="3.575">
        <ele>1187</ele>
        <time>2022-05-27T07:48:27Z</time>
      </trkpt>
      <trkpt lat="44.44511" lon="3.575">
        <ele>1187</ele>
        <time>2022-05-27T07:48:28Z</time>
      </trkpt>
      <trkpt lat="44.4451" lon="3.575">
        <ele>1187</ele>
        <time>2022-05-27T07:48:29Z</time>
      </trkpt>
      <trkpt lat="44.4451" lon="3.575">
        <ele>1187</ele>
        <time>2022-05-27T07:48:30Z</time>
      </trkpt>
      <trkpt lat="44.4451" lon="3.575">
        <ele>1187</ele>
        <time>2022-05-27T07:48:31Z</time>
      </trkpt>
      <trkpt lat="44.44508" lon="3.575">
        <ele>1188</ele>
        <time>2022-05-27T07:48:32Z</time>
      </trkpt>
      <trkpt lat="44.44507" lon="3.575">
        <ele>1188</ele>
        <time>2022-05-27T07:48:33Z</time>
      </trkpt>
      <trkpt lat="44.44506" lon="3.57501">
        <ele>1189</ele>
        <time>2022-05-27T07:48:34Z</time>
      </trkpt>
      <trkpt lat="44.44505" lon="3.57501">
        <ele>1189</ele>
        <time>2022-05-27T07:48:35Z</time>
      </trkpt>
      <trkpt lat="44.44503" lon="3.57501">
        <ele>1190</ele>
        <time>2022-05-27T07:48:36Z</time>
      </trkpt>
      <trkpt lat="44.44502" lon="3.57502">
        <ele>1190</ele>
        <time>2022-05-27T07:48:37Z</time>
      </trkpt>
      <trkpt lat="44.44501" lon="3.57503">
        <ele>1191</ele>
        <time>2022-05-27T07:48:38Z</time>
      </trkpt>
      <trkpt lat="44.445" lon="3.57503">
        <ele>1191</ele>
        <time>2022-05-27T07:48:39Z</time>
      </trkpt>
      <trkpt lat="44.44498" lon="3.57503">
        <ele>1191</ele>
        <time>2022-05-27T07:48:40Z</time>
      </trkpt>
      <trkpt lat="44.44498" lon="3.57503">
        <ele>1192</ele>
        <time>2022-05-27T07:48:41Z</time>
      </trkpt>
      <trkpt lat="44.44497" lon="3.57504">
        <ele>1193</ele>
        <time>2022-05-27T07:48:42Z</time>
      </trkpt>
      <trkpt lat="44.44495" lon="3.57504">
        <ele>1193</ele>
        <time>2022-05-27T07:48:43Z</time>
      </trkpt>
      <trkpt lat="44.44494" lon="3.57505">
        <ele>1193</ele>
        <time>2022-05-27T07:48:44Z</time>
      </trkpt>
      <trkpt lat="44.44493" lon="3.57505">
        <ele>1193</ele>
        <time>2022-05-27T07:48:45Z</time>
      </trkpt>
      <trkpt lat="44.44492" lon="3.57505">
        <ele>1194</ele>
        <time>2022-05-27T07:48:46Z</time>
      </trkpt>
      <trkpt lat="44.44491" lon="3.57505">
        <ele>1194</ele>
        <time>2022-05-27T07:48:47Z</time>
      </trkpt>
      <trkpt lat="44.4449" lon="3.57506">
        <ele>1195</ele>
        <time>2022-05-27T07:48:48Z</time>
      </trkpt>
      <trkpt lat="44.44488" lon="3.57507">
        <ele>1195</ele>
        <time>2022-05-27T07:48:49Z</time>
      </trkpt>
      <trkpt lat="44.44487" lon="3.57507">
        <ele>1195</ele>
        <time>2022-05-27T07:48:50Z</time>
      </trkpt>
      <trkpt lat="44.44486" lon="3.57508">
        <ele>1195</ele>
        <time>2022-05-27T07:48:51Z</time>
      </trkpt>
      <trkpt lat="44.44486" lon="3.57509">
        <ele>1195</ele>
        <time>2022-05-27T07:48:52Z</time>
      </trkpt>
      <trkpt lat="44.44484" lon="3.5751">
        <ele>1195</ele>
        <time>2022-05-27T07:48:53Z</time>
      </trkpt>
      <trkpt lat="44.44484" lon="3.57511">
        <ele>1195</ele>
        <time>2022-05-27T07:48:54Z</time>
      </trkpt>
      <trkpt lat="44.44483" lon="3.57511">
        <ele>1195</ele>
        <time>2022-05-27T07:48:55Z</time>
      </trkpt>
      <trkpt lat="44.44482" lon="3.57512">
        <ele>1195</ele>
        <time>2022-05-27T07:48:56Z</time>
      </trkpt>
      <trkpt lat="44.44482" lon="3.57513">
        <ele>1195</ele>
        <time>2022-05-27T07:48:57Z</time>
      </trkpt>
      <trkpt lat="44.44481" lon="3.57514">
        <ele>1195</ele>
        <time>2022-05-27T07:48:58Z</time>
      </trkpt>
      <trkpt lat="44.44481" lon="3.57514">
        <ele>1195</ele>
        <time>2022-05-27T07:48:59Z</time>
      </trkpt>
      <trkpt lat="44.44481" lon="3.57516">
        <ele>1196</ele>
        <time>2022-05-27T07:49:00Z</time>
      </trkpt>
      <trkpt lat="44.44479" lon="3.57516">
        <ele>1196</ele>
        <time>2022-05-27T07:49:01Z</time>
      </trkpt>
      <trkpt lat="44.44479" lon="3.57517">
        <ele>1197</ele>
        <time>2022-05-27T07:49:02Z</time>
      </trkpt>
      <trkpt lat="44.44478" lon="3.57518">
        <ele>1196</ele>
        <time>2022-05-27T07:49:03Z</time>
      </trkpt>
      <trkpt lat="44.44476" lon="3.57519">
        <ele>1196</ele>
        <time>2022-05-27T07:49:04Z</time>
      </trkpt>
      <trkpt lat="44.44476" lon="3.5752">
        <ele>1196</ele>
        <time>2022-05-27T07:49:05Z</time>
      </trkpt>
      <trkpt lat="44.44475" lon="3.5752">
        <ele>1196</ele>
        <time>2022-05-27T07:49:06Z</time>
      </trkpt>
      <trkpt lat="44.44474" lon="3.57521">
        <ele>1195</ele>
        <time>2022-05-27T07:49:07Z</time>
      </trkpt>
      <trkpt lat="44.44473" lon="3.57522">
        <ele>1195</ele>
        <time>2022-05-27T07:49:08Z</time>
      </trkpt>
      <trkpt lat="44.44473" lon="3.57523">
        <ele>1195</ele>
        <time>2022-05-27T07:49:09Z</time>
      </trkpt>
      <trkpt lat="44.44472" lon="3.57524">
        <ele>1195</ele>
        <time>2022-05-27T07:49:10Z</time>
      </trkpt>
      <trkpt lat="44.44471" lon="3.57525">
        <ele>1195</ele>
        <time>2022-05-27T07:49:11Z</time>
      </trkpt>
      <trkpt lat="44.4447" lon="3.57526">
        <ele>1195</ele>
        <time>2022-05-27T07:49:12Z</time>
      </trkpt>
      <trkpt lat="44.4447" lon="3.57527">
        <ele>1195</ele>
        <time>2022-05-27T07:49:13Z</time>
      </trkpt>
      <trkpt lat="44.4447" lon="3.57527">
        <ele>1195</ele>
        <time>2022-05-27T07:49:14Z</time>
      </trkpt>
      <trkpt lat="44.44469" lon="3.57528">
        <ele>1195</ele>
        <time>2022-05-27T07:49:15Z</time>
      </trkpt>
      <trkpt lat="44.44468" lon="3.57529">
        <ele>1195</ele>
        <time>2022-05-27T07:49:16Z</time>
      </trkpt>
      <trkpt lat="44.44467" lon="3.5753">
        <ele>1194</ele>
        <time>2022-05-27T07:49:17Z</time>
      </trkpt>
      <trkpt lat="44.44466" lon="3.57532">
        <ele>1194</ele>
        <time>2022-05-27T07:49:18Z</time>
      </trkpt>
      <trkpt lat="44.44465" lon="3.57534">
        <ele>1193</ele>
        <time>2022-05-27T07:49:19Z</time>
      </trkpt>
      <trkpt lat="44.44464" lon="3.57536">
        <ele>1193</ele>
        <time>2022-05-27T07:49:20Z</time>
      </trkpt>
      <trkpt lat="44.44463" lon="3.57537">
        <ele>1193</ele>
        <time>2022-05-27T07:49:21Z</time>
      </trkpt>
      <trkpt lat="44.44462" lon="3.57537">
        <ele>1193</ele>
        <time>2022-05-27T07:49:22Z</time>
      </trkpt>
      <trkpt lat="44.44461" lon="3.57538">
        <ele>1194</ele>
        <time>2022-05-27T07:49:23Z</time>
      </trkpt>
      <trkpt lat="44.4446" lon="3.57538">
        <ele>1195</ele>
        <time>2022-05-27T07:49:24Z</time>
      </trkpt>
      <trkpt lat="44.44459" lon="3.57539">
        <ele>1195</ele>
        <time>2022-05-27T07:49:25Z</time>
      </trkpt>
      <trkpt lat="44.44459" lon="3.57539">
        <ele>1196</ele>
        <time>2022-05-27T07:49:26Z</time>
      </trkpt>
      <trkpt lat="44.44458" lon="3.5754">
        <ele>1196</ele>
        <time>2022-05-27T07:49:27Z</time>
      </trkpt>
      <trkpt lat="44.44457" lon="3.5754">
        <ele>1196</ele>
        <time>2022-05-27T07:49:28Z</time>
      </trkpt>
      <trkpt lat="44.44456" lon="3.57541">
        <ele>1196</ele>
        <time>2022-05-27T07:49:29Z</time>
      </trkpt>
      <trkpt lat="44.44455" lon="3.57542">
        <ele>1196</ele>
        <time>2022-05-27T07:49:30Z</time>
      </trkpt>
      <trkpt lat="44.44454" lon="3.57543">
        <ele>1196</ele>
        <time>2022-05-27T07:49:31Z</time>
      </trkpt>
      <trkpt lat="44.44454" lon="3.57544">
        <ele>1196</ele>
        <time>2022-05-27T07:49:32Z</time>
      </trkpt>
      <trkpt lat="44.44453" lon="3.57545">
        <ele>1197</ele>
        <time>2022-05-27T07:49:33Z</time>
      </trkpt>
      <trkpt lat="44.44452" lon="3.57546">
        <ele>1197</ele>
        <time>2022-05-27T07:49:34Z</time>
      </trkpt>
      <trkpt lat="44.44452" lon="3.57547">
        <ele>1197</ele>
        <time>2022-05-27T07:49:35Z</time>
      </trkpt>
      <trkpt lat="44.44451" lon="3.57547">
        <ele>1197</ele>
        <time>2022-05-27T07:49:36Z</time>
      </trkpt>
      <trkpt lat="44.4445" lon="3.57548">
        <ele>1197</ele>
        <time>2022-05-27T07:49:37Z</time>
      </trkpt>
      <trkpt lat="44.44449" lon="3.57549">
        <ele>1196</ele>
        <time>2022-05-27T07:49:38Z</time>
      </trkpt>
      <trkpt lat="44.44448" lon="3.5755">
        <ele>1196</ele>
        <time>2022-05-27T07:49:39Z</time>
      </trkpt>
      <trkpt lat="44.44447" lon="3.57551">
        <ele>1196</ele>
        <time>2022-05-27T07:49:40Z</time>
      </trkpt>
      <trkpt lat="44.44446" lon="3.57552">
        <ele>1197</ele>
        <time>2022-05-27T07:49:41Z</time>
      </trkpt>
      <trkpt lat="44.44445" lon="3.57552">
        <ele>1198</ele>
        <time>2022-05-27T07:49:42Z</time>
      </trkpt>
      <trkpt lat="44.44445" lon="3.57554">
        <ele>1198</ele>
        <time>2022-05-27T07:49:43Z</time>
      </trkpt>
      <trkpt lat="44.44444" lon="3.57555">
        <ele>1198</ele>
        <time>2022-05-27T07:49:44Z</time>
      </trkpt>
      <trkpt lat="44.44443" lon="3.57556">
        <ele>1199</ele>
        <time>2022-05-27T07:49:45Z</time>
      </trkpt>
      <trkpt lat="44.44442" lon="3.57556">
        <ele>1199</ele>
        <time>2022-05-27T07:49:46Z</time>
      </trkpt>
      <trkpt lat="44.44441" lon="3.57558">
        <ele>1199</ele>
        <time>2022-05-27T07:49:47Z</time>
      </trkpt>
      <trkpt lat="44.4444" lon="3.57559">
        <ele>1200</ele>
        <time>2022-05-27T07:49:48Z</time>
      </trkpt>
      <trkpt lat="44.4444" lon="3.5756">
        <ele>1200</ele>
        <time>2022-05-27T07:49:49Z</time>
      </trkpt>
      <trkpt lat="44.44439" lon="3.57562">
        <ele>1200</ele>
        <time>2022-05-27T07:49:50Z</time>
      </trkpt>
      <trkpt lat="44.44439" lon="3.57563">
        <ele>1200</ele>
        <time>2022-05-27T07:49:51Z</time>
      </trkpt>
      <trkpt lat="44.44438" lon="3.57565">
        <ele>1200</ele>
        <time>2022-05-27T07:49:52Z</time>
      </trkpt>
      <trkpt lat="44.44438" lon="3.57566">
        <ele>1200</ele>
        <time>2022-05-27T07:49:53Z</time>
      </trkpt>
      <trkpt lat="44.44437" lon="3.57566">
        <ele>1200</ele>
        <time>2022-05-27T07:49:54Z</time>
      </trkpt>
      <trkpt lat="44.44436" lon="3.57567">
        <ele>1201</ele>
        <time>2022-05-27T07:49:55Z</time>
      </trkpt>
      <trkpt lat="44.44436" lon="3.57567">
        <ele>1201</ele>
        <time>2022-05-27T07:49:56Z</time>
      </trkpt>
      <trkpt lat="44.44435" lon="3.57569">
        <ele>1201</ele>
        <time>2022-05-27T07:49:57Z</time>
      </trkpt>
      <trkpt lat="44.44435" lon="3.5757">
        <ele>1201</ele>
        <time>2022-05-27T07:49:58Z</time>
      </trkpt>
      <trkpt lat="44.44434" lon="3.57571">
        <ele>1201</ele>
        <time>2022-05-27T07:49:59Z</time>
      </trkpt>
      <trkpt lat="44.44434" lon="3.57572">
        <ele>1201</ele>
        <time>2022-05-27T07:50:00Z</time>
      </trkpt>
      <trkpt lat="44.44433" lon="3.57573">
        <ele>1201</ele>
        <time>2022-05-27T07:50:01Z</time>
      </trkpt>
      <trkpt lat="44.44433" lon="3.57574">
        <ele>1202</ele>
        <time>2022-05-27T07:50:02Z</time>
      </trkpt>
      <trkpt lat="44.44432" lon="3.57576">
        <ele>1202</ele>
        <time>2022-05-27T07:50:03Z</time>
      </trkpt>
      <trkpt lat="44.44431" lon="3.57577">
        <ele>1202</ele>
        <time>2022-05-27T07:50:04Z</time>
      </trkpt>
      <trkpt lat="44.44431" lon="3.57578">
        <ele>1202</ele>
        <time>2022-05-27T07:50:05Z</time>
      </trkpt>
      <trkpt lat="44.4443" lon="3.57579">
        <ele>1202</ele>
        <time>2022-05-27T07:50:06Z</time>
      </trkpt>
      <trkpt lat="44.44429" lon="3.5758">
        <ele>1203</ele>
        <time>2022-05-27T07:50:07Z</time>
      </trkpt>
      <trkpt lat="44.44429" lon="3.57581">
        <ele>1203</ele>
        <time>2022-05-27T07:50:08Z</time>
      </trkpt>
      <trkpt lat="44.44428" lon="3.57582">
        <ele>1204</ele>
        <time>2022-05-27T07:50:09Z</time>
      </trkpt>
      <trkpt lat="44.44426" lon="3.57583">
        <ele>1204</ele>
        <time>2022-05-27T07:50:10Z</time>
      </trkpt>
      <trkpt lat="44.44425" lon="3.57584">
        <ele>1204</ele>
        <time>2022-05-27T07:50:11Z</time>
      </trkpt>
      <trkpt lat="44.44424" lon="3.57585">
        <ele>1205</ele>
        <time>2022-05-27T07:50:12Z</time>
      </trkpt>
      <trkpt lat="44.44424" lon="3.57586">
        <ele>1205</ele>
        <time>2022-05-27T07:50:13Z</time>
      </trkpt>
      <trkpt lat="44.44423" lon="3.57587">
        <ele>1206</ele>
        <time>2022-05-27T07:50:14Z</time>
      </trkpt>
      <trkpt lat="44.44422" lon="3.57587">
        <ele>1206</ele>
        <time>2022-05-27T07:50:15Z</time>
      </trkpt>
      <trkpt lat="44.44421" lon="3.57588">
        <ele>1206</ele>
        <time>2022-05-27T07:50:16Z</time>
      </trkpt>
      <trkpt lat="44.4442" lon="3.57589">
        <ele>1205</ele>
        <time>2022-05-27T07:50:17Z</time>
      </trkpt>
      <trkpt lat="44.4442" lon="3.5759">
        <ele>1205</ele>
        <time>2022-05-27T07:50:18Z</time>
      </trkpt>
      <trkpt lat="44.44418" lon="3.57591">
        <ele>1204</ele>
        <time>2022-05-27T07:50:19Z</time>
      </trkpt>
      <trkpt lat="44.44418" lon="3.57592">
        <ele>1203</ele>
        <time>2022-05-27T07:50:20Z</time>
      </trkpt>
      <trkpt lat="44.44416" lon="3.57592">
        <ele>1203</ele>
        <time>2022-05-27T07:50:21Z</time>
      </trkpt>
      <trkpt lat="44.44416" lon="3.57592">
        <ele>1203</ele>
        <time>2022-05-27T07:50:22Z</time>
      </trkpt>
      <trkpt lat="44.44415" lon="3.57594">
        <ele>1203</ele>
        <time>2022-05-27T07:50:23Z</time>
      </trkpt>
      <trkpt lat="44.44413" lon="3.57595">
        <ele>1202</ele>
        <time>2022-05-27T07:50:24Z</time>
      </trkpt>
      <trkpt lat="44.44412" lon="3.57595">
        <ele>1203</ele>
        <time>2022-05-27T07:50:25Z</time>
      </trkpt>
      <trkpt lat="44.44412" lon="3.57597">
        <ele>1202</ele>
        <time>2022-05-27T07:50:26Z</time>
      </trkpt>
      <trkpt lat="44.44412" lon="3.57597">
        <ele>1202</ele>
        <time>2022-05-27T07:50:27Z</time>
      </trkpt>
      <trkpt lat="44.44411" lon="3.57599">
        <ele>1201</ele>
        <time>2022-05-27T07:50:28Z</time>
      </trkpt>
      <trkpt lat="44.4441" lon="3.576">
        <ele>1201</ele>
        <time>2022-05-27T07:50:29Z</time>
      </trkpt>
      <trkpt lat="44.4441" lon="3.57601">
        <ele>1201</ele>
        <time>2022-05-27T07:50:30Z</time>
      </trkpt>
      <trkpt lat="44.44409" lon="3.57602">
        <ele>1201</ele>
        <time>2022-05-27T07:50:31Z</time>
      </trkpt>
      <trkpt lat="44.44408" lon="3.57603">
        <ele>1201</ele>
        <time>2022-05-27T07:50:32Z</time>
      </trkpt>
      <trkpt lat="44.44407" lon="3.57604">
        <ele>1201</ele>
        <time>2022-05-27T07:50:33Z</time>
      </trkpt>
      <trkpt lat="44.44406" lon="3.57604">
        <ele>1201</ele>
        <time>2022-05-27T07:50:34Z</time>
      </trkpt>
      <trkpt lat="44.44405" lon="3.57605">
        <ele>1201</ele>
        <time>2022-05-27T07:50:35Z</time>
      </trkpt>
      <trkpt lat="44.44404" lon="3.57604">
        <ele>1202</ele>
        <time>2022-05-27T07:50:36Z</time>
      </trkpt>
      <trkpt lat="44.44403" lon="3.57604">
        <ele>1202</ele>
        <time>2022-05-27T07:50:37Z</time>
      </trkpt>
      <trkpt lat="44.44402" lon="3.57604">
        <ele>1202</ele>
        <time>2022-05-27T07:50:38Z</time>
      </trkpt>
      <trkpt lat="44.44401" lon="3.57605">
        <ele>1201</ele>
        <time>2022-05-27T07:50:39Z</time>
      </trkpt>
      <trkpt lat="44.444" lon="3.57605">
        <ele>1202</ele>
        <time>2022-05-27T07:50:40Z</time>
      </trkpt>
      <trkpt lat="44.44399" lon="3.57605">
        <ele>1202</ele>
        <time>2022-05-27T07:50:41Z</time>
      </trkpt>
      <trkpt lat="44.44398" lon="3.57606">
        <ele>1202</ele>
        <time>2022-05-27T07:50:42Z</time>
      </trkpt>
      <trkpt lat="44.44396" lon="3.57606">
        <ele>1203</ele>
        <time>2022-05-27T07:50:43Z</time>
      </trkpt>
      <trkpt lat="44.44395" lon="3.57606">
        <ele>1203</ele>
        <time>2022-05-27T07:50:44Z</time>
      </trkpt>
      <trkpt lat="44.44394" lon="3.57607">
        <ele>1203</ele>
        <time>2022-05-27T07:50:45Z</time>
      </trkpt>
      <trkpt lat="44.44393" lon="3.57607">
        <ele>1204</ele>
        <time>2022-05-27T07:50:46Z</time>
      </trkpt>
      <trkpt lat="44.44392" lon="3.57606">
        <ele>1205</ele>
        <time>2022-05-27T07:50:47Z</time>
      </trkpt>
      <trkpt lat="44.44391" lon="3.57606">
        <ele>1205</ele>
        <time>2022-05-27T07:50:48Z</time>
      </trkpt>
      <trkpt lat="44.44389" lon="3.57607">
        <ele>1206</ele>
        <time>2022-05-27T07:50:49Z</time>
      </trkpt>
      <trkpt lat="44.44388" lon="3.57606">
        <ele>1206</ele>
        <time>2022-05-27T07:50:50Z</time>
      </trkpt>
      <trkpt lat="44.44387" lon="3.57606">
        <ele>1206</ele>
        <time>2022-05-27T07:50:51Z</time>
      </trkpt>
      <trkpt lat="44.44386" lon="3.57606">
        <ele>1206</ele>
        <time>2022-05-27T07:50:52Z</time>
      </trkpt>
      <trkpt lat="44.44385" lon="3.57606">
        <ele>1206</ele>
        <time>2022-05-27T07:50:53Z</time>
      </trkpt>
      <trkpt lat="44.44384" lon="3.57606">
        <ele>1205</ele>
        <time>2022-05-27T07:50:54Z</time>
      </trkpt>
      <trkpt lat="44.44383" lon="3.57607">
        <ele>1205</ele>
        <time>2022-05-27T07:50:55Z</time>
      </trkpt>
      <trkpt lat="44.44383" lon="3.57607">
        <ele>1204</ele>
        <time>2022-05-27T07:50:56Z</time>
      </trkpt>
      <trkpt lat="44.44381" lon="3.57607">
        <ele>1205</ele>
        <time>2022-05-27T07:50:57Z</time>
      </trkpt>
      <trkpt lat="44.44381" lon="3.57608">
        <ele>1205</ele>
        <time>2022-05-27T07:50:58Z</time>
      </trkpt>
      <trkpt lat="44.4438" lon="3.57608">
        <ele>1206</ele>
        <time>2022-05-27T07:50:59Z</time>
      </trkpt>
      <trkpt lat="44.44379" lon="3.57608">
        <ele>1206</ele>
        <time>2022-05-27T07:51:00Z</time>
      </trkpt>
      <trkpt lat="44.44378" lon="3.57608">
        <ele>1207</ele>
        <time>2022-05-27T07:51:01Z</time>
      </trkpt>
      <trkpt lat="44.44378" lon="3.57608">
        <ele>1207</ele>
        <time>2022-05-27T07:51:02Z</time>
      </trkpt>
      <trkpt lat="44.44376" lon="3.57608">
        <ele>1207</ele>
        <time>2022-05-27T07:51:03Z</time>
      </trkpt>
      <trkpt lat="44.44376" lon="3.57608">
        <ele>1207</ele>
        <time>2022-05-27T07:51:04Z</time>
      </trkpt>
      <trkpt lat="44.44375" lon="3.57607">
        <ele>1207</ele>
        <time>2022-05-27T07:51:05Z</time>
      </trkpt>
      <trkpt lat="44.44374" lon="3.57607">
        <ele>1208</ele>
        <time>2022-05-27T07:51:06Z</time>
      </trkpt>
      <trkpt lat="44.44373" lon="3.57606">
        <ele>1209</ele>
        <time>2022-05-27T07:51:07Z</time>
      </trkpt>
      <trkpt lat="44.44372" lon="3.57606">
        <ele>1210</ele>
        <time>2022-05-27T07:51:08Z</time>
      </trkpt>
      <trkpt lat="44.44372" lon="3.57606">
        <ele>1210</ele>
        <time>2022-05-27T07:51:09Z</time>
      </trkpt>
      <trkpt lat="44.44372" lon="3.57606">
        <ele>1210</ele>
        <time>2022-05-27T07:51:10Z</time>
      </trkpt>
      <trkpt lat="44.44372" lon="3.57607">
        <ele>1210</ele>
        <time>2022-05-27T07:51:11Z</time>
      </trkpt>
      <trkpt lat="44.44371" lon="3.57608">
        <ele>1209</ele>
        <time>2022-05-27T07:51:12Z</time>
      </trkpt>
      <trkpt lat="44.44371" lon="3.57609">
        <ele>1210</ele>
        <time>2022-05-27T07:51:13Z</time>
      </trkpt>
      <trkpt lat="44.4437" lon="3.57608">
        <ele>1210</ele>
        <time>2022-05-27T07:51:14Z</time>
      </trkpt>
      <trkpt lat="44.4437" lon="3.57609">
        <ele>1210</ele>
        <time>2022-05-27T07:51:15Z</time>
      </trkpt>
      <trkpt lat="44.4437" lon="3.57609">
        <ele>1210</ele>
        <time>2022-05-27T07:51:16Z</time>
      </trkpt>
      <trkpt lat="44.44369" lon="3.57609">
        <ele>1210</ele>
        <time>2022-05-27T07:51:17Z</time>
      </trkpt>
      <trkpt lat="44.44369" lon="3.57609">
        <ele>1210</ele>
        <time>2022-05-27T07:51:18Z</time>
      </trkpt>
      <trkpt lat="44.44369" lon="3.57609">
        <ele>1210</ele>
        <time>2022-05-27T07:51:18Z</time>
      </trkpt>
      <trkpt lat="44.44367" lon="3.57608">
        <ele>1210</ele>
        <time>2022-05-27T07:52:13Z</time>
      </trkpt>
      <trkpt lat="44.44367" lon="3.57608">
        <ele>1210</ele>
        <time>2022-05-27T07:52:14Z</time>
      </trkpt>
      <trkpt lat="44.44367" lon="3.57608">
        <ele>1210</ele>
        <time>2022-05-27T07:52:15Z</time>
      </trkpt>
      <trkpt lat="44.44367" lon="3.57608">
        <ele>1210</ele>
        <time>2022-05-27T07:52:16Z</time>
      </trkpt>
      <trkpt lat="44.44365" lon="3.57608">
        <ele>1210</ele>
        <time>2022-05-27T07:52:17Z</time>
      </trkpt>
      <trkpt lat="44.44365" lon="3.57607">
        <ele>1210</ele>
        <time>2022-05-27T07:52:18Z</time>
      </trkpt>
      <trkpt lat="44.44364" lon="3.57607">
        <ele>1210</ele>
        <time>2022-05-27T07:52:19Z</time>
      </trkpt>
      <trkpt lat="44.44363" lon="3.57607">
        <ele>1211</ele>
        <time>2022-05-27T07:52:20Z</time>
      </trkpt>
      <trkpt lat="44.44362" lon="3.57607">
        <ele>1212</ele>
        <time>2022-05-27T07:52:21Z</time>
      </trkpt>
      <trkpt lat="44.44362" lon="3.57606">
        <ele>1212</ele>
        <time>2022-05-27T07:52:22Z</time>
      </trkpt>
      <trkpt lat="44.44361" lon="3.57606">
        <ele>1212</ele>
        <time>2022-05-27T07:52:23Z</time>
      </trkpt>
      <trkpt lat="44.4436" lon="3.57606">
        <ele>1213</ele>
        <time>2022-05-27T07:52:24Z</time>
      </trkpt>
      <trkpt lat="44.44359" lon="3.57605">
        <ele>1213</ele>
        <time>2022-05-27T07:52:25Z</time>
      </trkpt>
      <trkpt lat="44.44358" lon="3.57605">
        <ele>1213</ele>
        <time>2022-05-27T07:52:26Z</time>
      </trkpt>
      <trkpt lat="44.44358" lon="3.57605">
        <ele>1213</ele>
        <time>2022-05-27T07:52:27Z</time>
      </trkpt>
      <trkpt lat="44.44358" lon="3.57604">
        <ele>1213</ele>
        <time>2022-05-27T07:52:28Z</time>
      </trkpt>
      <trkpt lat="44.44357" lon="3.57605">
        <ele>1213</ele>
        <time>2022-05-27T07:52:29Z</time>
      </trkpt>
      <trkpt lat="44.44356" lon="3.57605">
        <ele>1213</ele>
        <time>2022-05-27T07:52:30Z</time>
      </trkpt>
      <trkpt lat="44.44355" lon="3.57604">
        <ele>1213</ele>
        <time>2022-05-27T07:52:31Z</time>
      </trkpt>
      <trkpt lat="44.44355" lon="3.57604">
        <ele>1213</ele>
        <time>2022-05-27T07:52:32Z</time>
      </trkpt>
      <trkpt lat="44.44355" lon="3.57604">
        <ele>1213</ele>
        <time>2022-05-27T07:52:33Z</time>
      </trkpt>
      <trkpt lat="44.44355" lon="3.57604">
        <ele>1215</ele>
        <time>2022-05-27T07:52:34Z</time>
      </trkpt>
      <trkpt lat="44.44354" lon="3.57604">
        <ele>1215</ele>
        <time>2022-05-27T07:52:35Z</time>
      </trkpt>
      <trkpt lat="44.44354" lon="3.57605">
        <ele>1216</ele>
        <time>2022-05-27T07:52:36Z</time>
      </trkpt>
      <trkpt lat="44.44354" lon="3.57605">
        <ele>1217</ele>
        <time>2022-05-27T07:52:37Z</time>
      </trkpt>
      <trkpt lat="44.44353" lon="3.57605">
        <ele>1217</ele>
        <time>2022-05-27T07:52:38Z</time>
      </trkpt>
      <trkpt lat="44.44353" lon="3.57605">
        <ele>1217</ele>
        <time>2022-05-27T07:52:39Z</time>
      </trkpt>
      <trkpt lat="44.44352" lon="3.57605">
        <ele>1217</ele>
        <time>2022-05-27T07:52:40Z</time>
      </trkpt>
      <trkpt lat="44.44352" lon="3.57606">
        <ele>1218</ele>
        <time>2022-05-27T07:52:41Z</time>
      </trkpt>
      <trkpt lat="44.44352" lon="3.57606">
        <ele>1218</ele>
        <time>2022-05-27T07:52:42Z</time>
      </trkpt>
      <trkpt lat="44.44352" lon="3.57606">
        <ele>1218</ele>
        <time>2022-05-27T07:52:43Z</time>
      </trkpt>
      <trkpt lat="44.44351" lon="3.57607">
        <ele>1219</ele>
        <time>2022-05-27T07:52:44Z</time>
      </trkpt>
      <trkpt lat="44.4435" lon="3.57607">
        <ele>1219</ele>
        <time>2022-05-27T07:52:45Z</time>
      </trkpt>
      <trkpt lat="44.44349" lon="3.57607">
        <ele>1219</ele>
        <time>2022-05-27T07:52:46Z</time>
      </trkpt>
      <trkpt lat="44.44349" lon="3.57607">
        <ele>1219</ele>
        <time>2022-05-27T07:52:47Z</time>
      </trkpt>
      <trkpt lat="44.44349" lon="3.57607">
        <ele>1219</ele>
        <time>2022-05-27T07:52:48Z</time>
      </trkpt>
      <trkpt lat="44.44349" lon="3.57607">
        <ele>1220</ele>
        <time>2022-05-27T07:52:49Z</time>
      </trkpt>
      <trkpt lat="44.44349" lon="3.57607">
        <ele>1220</ele>
        <time>2022-05-27T07:52:50Z</time>
      </trkpt>
      <trkpt lat="44.44349" lon="3.57607">
        <ele>1220</ele>
        <time>2022-05-27T07:52:51Z</time>
      </trkpt>
      <trkpt lat="44.44347" lon="3.57606">
        <ele>1221</ele>
        <time>2022-05-27T07:52:52Z</time>
      </trkpt>
      <trkpt lat="44.44347" lon="3.57606">
        <ele>1220</ele>
        <time>2022-05-27T07:52:53Z</time>
      </trkpt>
      <trkpt lat="44.44347" lon="3.57606">
        <ele>1221</ele>
        <time>2022-05-27T07:52:54Z</time>
      </trkpt>
      <trkpt lat="44.44346" lon="3.57605">
        <ele>1221</ele>
        <time>2022-05-27T07:52:55Z</time>
      </trkpt>
      <trkpt lat="44.44345" lon="3.57605">
        <ele>1221</ele>
        <time>2022-05-27T07:52:56Z</time>
      </trkpt>
      <trkpt lat="44.44345" lon="3.57605">
        <ele>1221</ele>
        <time>2022-05-27T07:52:57Z</time>
      </trkpt>
      <trkpt lat="44.44344" lon="3.57604">
        <ele>1221</ele>
        <time>2022-05-27T07:52:58Z</time>
      </trkpt>
      <trkpt lat="44.44342" lon="3.57604">
        <ele>1221</ele>
        <time>2022-05-27T07:52:59Z</time>
      </trkpt>
      <trkpt lat="44.44342" lon="3.57604">
        <ele>1222</ele>
        <time>2022-05-27T07:53:00Z</time>
      </trkpt>
      <trkpt lat="44.44341" lon="3.57604">
        <ele>1222</ele>
        <time>2022-05-27T07:53:01Z</time>
      </trkpt>
      <trkpt lat="44.4434" lon="3.57605">
        <ele>1222</ele>
        <time>2022-05-27T07:53:02Z</time>
      </trkpt>
      <trkpt lat="44.44341" lon="3.57605">
        <ele>1222</ele>
        <time>2022-05-27T07:53:03Z</time>
      </trkpt>
      <trkpt lat="44.44341" lon="3.57606">
        <ele>1223</ele>
        <time>2022-05-27T07:53:04Z</time>
      </trkpt>
      <trkpt lat="44.44342" lon="3.57607">
        <ele>1223</ele>
        <time>2022-05-27T07:53:05Z</time>
      </trkpt>
      <trkpt lat="44.44342" lon="3.57607">
        <ele>1223</ele>
        <time>2022-05-27T07:53:06Z</time>
      </trkpt>
      <trkpt lat="44.44342" lon="3.57607">
        <ele>1223</ele>
        <time>2022-05-27T07:53:07Z</time>
      </trkpt>
      <trkpt lat="44.44342" lon="3.57608">
        <ele>1223</ele>
        <time>2022-05-27T07:53:08Z</time>
      </trkpt>
      <trkpt lat="44.44342" lon="3.57609">
        <ele>1223</ele>
        <time>2022-05-27T07:53:09Z</time>
      </trkpt>
      <trkpt lat="44.44343" lon="3.5761">
        <ele>1223</ele>
        <time>2022-05-27T07:53:10Z</time>
      </trkpt>
      <trkpt lat="44.44344" lon="3.5761">
        <ele>1223</ele>
        <time>2022-05-27T07:53:11Z</time>
      </trkpt>
      <trkpt lat="44.44344" lon="3.5761">
        <ele>1223</ele>
        <time>2022-05-27T07:53:12Z</time>
      </trkpt>
      <trkpt lat="44.44344" lon="3.5761">
        <ele>1223</ele>
        <time>2022-05-27T07:53:13Z</time>
      </trkpt>
      <trkpt lat="44.44344" lon="3.5761">
        <ele>1223</ele>
        <time>2022-05-27T07:53:14Z</time>
      </trkpt>
      <trkpt lat="44.44344" lon="3.57611">
        <ele>1223</ele>
        <time>2022-05-27T07:53:15Z</time>
      </trkpt>
      <trkpt lat="44.44344" lon="3.57611">
        <ele>1223</ele>
        <time>2022-05-27T07:53:16Z</time>
      </trkpt>
      <trkpt lat="44.44344" lon="3.57611">
        <ele>1223</ele>
        <time>2022-05-27T07:53:16Z</time>
      </trkpt>
      <trkpt lat="44.44344" lon="3.57611">
        <ele>1223</ele>
        <time>2022-05-27T07:53:16Z</time>
      </trkpt>
      <trkpt lat="44.4434" lon="3.5761">
        <ele>1220</ele>
        <time>2022-05-27T07:57:05Z</time>
      </trkpt>
      <trkpt lat="44.4434" lon="3.57611">
        <ele>1219</ele>
        <time>2022-05-27T07:57:06Z</time>
      </trkpt>
      <trkpt lat="44.4434" lon="3.57612">
        <ele>1220</ele>
        <time>2022-05-27T07:57:07Z</time>
      </trkpt>
      <trkpt lat="44.4434" lon="3.57612">
        <ele>1220</ele>
        <time>2022-05-27T07:57:07Z</time>
      </trkpt>
      <trkpt lat="44.44339" lon="3.57613">
        <ele>1220</ele>
        <time>2022-05-27T07:57:09Z</time>
      </trkpt>
      <trkpt lat="44.44339" lon="3.57613">
        <ele>1220</ele>
        <time>2022-05-27T07:57:10Z</time>
      </trkpt>
      <trkpt lat="44.44338" lon="3.57614">
        <ele>1219</ele>
        <time>2022-05-27T07:57:11Z</time>
      </trkpt>
      <trkpt lat="44.44338" lon="3.57614">
        <ele>1219</ele>
        <time>2022-05-27T07:57:12Z</time>
      </trkpt>
      <trkpt lat="44.44337" lon="3.57614">
        <ele>1219</ele>
        <time>2022-05-27T07:57:13Z</time>
      </trkpt>
      <trkpt lat="44.44336" lon="3.57614">
        <ele>1220</ele>
        <time>2022-05-27T07:57:14Z</time>
      </trkpt>
      <trkpt lat="44.44336" lon="3.57614">
        <ele>1221</ele>
        <time>2022-05-27T07:57:15Z</time>
      </trkpt>
      <trkpt lat="44.44334" lon="3.57614">
        <ele>1220</ele>
        <time>2022-05-27T07:57:16Z</time>
      </trkpt>
      <trkpt lat="44.44334" lon="3.57614">
        <ele>1220</ele>
        <time>2022-05-27T07:57:17Z</time>
      </trkpt>
      <trkpt lat="44.44333" lon="3.57613">
        <ele>1221</ele>
        <time>2022-05-27T07:57:18Z</time>
      </trkpt>
      <trkpt lat="44.44332" lon="3.57612">
        <ele>1221</ele>
        <time>2022-05-27T07:57:19Z</time>
      </trkpt>
      <trkpt lat="44.44332" lon="3.57612">
        <ele>1222</ele>
        <time>2022-05-27T07:57:20Z</time>
      </trkpt>
      <trkpt lat="44.44332" lon="3.57612">
        <ele>1222</ele>
        <time>2022-05-27T07:57:21Z</time>
      </trkpt>
      <trkpt lat="44.44332" lon="3.57612">
        <ele>1222</ele>
        <time>2022-05-27T07:57:22Z</time>
      </trkpt>
      <trkpt lat="44.44331" lon="3.57612">
        <ele>1223</ele>
        <time>2022-05-27T07:57:23Z</time>
      </trkpt>
      <trkpt lat="44.44331" lon="3.57612">
        <ele>1223</ele>
        <time>2022-05-27T07:57:24Z</time>
      </trkpt>
      <trkpt lat="44.44331" lon="3.57612">
        <ele>1223</ele>
        <time>2022-05-27T07:57:24Z</time>
      </trkpt>
      <trkpt lat="44.44331" lon="3.57612">
        <ele>1223</ele>
        <time>2022-05-27T07:57:24Z</time>
      </trkpt>
      <trkpt lat="44.44335" lon="3.57616">
        <ele>1218</ele>
        <time>2022-05-27T07:57:54Z</time>
      </trkpt>
      <trkpt lat="44.44335" lon="3.57615">
        <ele>1218</ele>
        <time>2022-05-27T07:57:55Z</time>
      </trkpt>
      <trkpt lat="44.44335" lon="3.57615">
        <ele>1219</ele>
        <time>2022-05-27T07:57:56Z</time>
      </trkpt>
      <trkpt lat="44.44334" lon="3.57615">
        <ele>1219</ele>
        <time>2022-05-27T07:57:57Z</time>
      </trkpt>
      <trkpt lat="44.44334" lon="3.57614">
        <ele>1219</ele>
        <time>2022-05-27T07:57:58Z</time>
      </trkpt>
      <trkpt lat="44.44334" lon="3.57613">
        <ele>1219</ele>
        <time>2022-05-27T07:57:59Z</time>
      </trkpt>
      <trkpt lat="44.44334" lon="3.57613">
        <ele>1220</ele>
        <time>2022-05-27T07:58:00Z</time>
      </trkpt>
      <trkpt lat="44.44333" lon="3.57612">
        <ele>1220</ele>
        <time>2022-05-27T07:58:01Z</time>
      </trkpt>
      <trkpt lat="44.44334" lon="3.57612">
        <ele>1221</ele>
        <time>2022-05-27T07:58:02Z</time>
      </trkpt>
      <trkpt lat="44.44336" lon="3.57613">
        <ele>1222</ele>
        <time>2022-05-27T07:58:03Z</time>
      </trkpt>
      <trkpt lat="44.44337" lon="3.57613">
        <ele>1221</ele>
        <time>2022-05-27T07:58:04Z</time>
      </trkpt>
      <trkpt lat="44.44338" lon="3.57614">
        <ele>1220</ele>
        <time>2022-05-27T07:58:05Z</time>
      </trkpt>
      <trkpt lat="44.4434" lon="3.57614">
        <ele>1220</ele>
        <time>2022-05-27T07:58:06Z</time>
      </trkpt>
      <trkpt lat="44.4434" lon="3.57615">
        <ele>1220</ele>
        <time>2022-05-27T07:58:07Z</time>
      </trkpt>
      <trkpt lat="44.44339" lon="3.57614">
        <ele>1220</ele>
        <time>2022-05-27T07:58:08Z</time>
      </trkpt>
      <trkpt lat="44.4434" lon="3.57615">
        <ele>1221</ele>
        <time>2022-05-27T07:58:09Z</time>
      </trkpt>
      <trkpt lat="44.44341" lon="3.57615">
        <ele>1220</ele>
        <time>2022-05-27T07:58:10Z</time>
      </trkpt>
      <trkpt lat="44.44342" lon="3.57616">
        <ele>1220</ele>
        <time>2022-05-27T07:58:11Z</time>
      </trkpt>
      <trkpt lat="44.44342" lon="3.57617">
        <ele>1219</ele>
        <time>2022-05-27T07:58:12Z</time>
      </trkpt>
      <trkpt lat="44.44343" lon="3.57618">
        <ele>1219</ele>
        <time>2022-05-27T07:58:13Z</time>
      </trkpt>
      <trkpt lat="44.44342" lon="3.57618">
        <ele>1219</ele>
        <time>2022-05-27T07:58:14Z</time>
      </trkpt>
      <trkpt lat="44.44342" lon="3.57619">
        <ele>1220</ele>
        <time>2022-05-27T07:58:15Z</time>
      </trkpt>
      <trkpt lat="44.44342" lon="3.5762">
        <ele>1219</ele>
        <time>2022-05-27T07:58:16Z</time>
      </trkpt>
      <trkpt lat="44.44342" lon="3.57621">
        <ele>1219</ele>
        <time>2022-05-27T07:58:17Z</time>
      </trkpt>
      <trkpt lat="44.44342" lon="3.57621">
        <ele>1219</ele>
        <time>2022-05-27T07:58:18Z</time>
      </trkpt>
      <trkpt lat="44.44342" lon="3.57621">
        <ele>1219</ele>
        <time>2022-05-27T07:58:19Z</time>
      </trkpt>
      <trkpt lat="44.44341" lon="3.57622">
        <ele>1219</ele>
        <time>2022-05-27T07:58:20Z</time>
      </trkpt>
      <trkpt lat="44.44341" lon="3.57624">
        <ele>1219</ele>
        <time>2022-05-27T07:58:21Z</time>
      </trkpt>
      <trkpt lat="44.44341" lon="3.57624">
        <ele>1218</ele>
        <time>2022-05-27T07:58:22Z</time>
      </trkpt>
      <trkpt lat="44.44341" lon="3.57624">
        <ele>1218</ele>
        <time>2022-05-27T07:58:23Z</time>
      </trkpt>
      <trkpt lat="44.44342" lon="3.57624">
        <ele>1218</ele>
        <time>2022-05-27T07:58:24Z</time>
      </trkpt>
      <trkpt lat="44.44342" lon="3.57624">
        <ele>1218</ele>
        <time>2022-05-27T07:58:25Z</time>
      </trkpt>
      <trkpt lat="44.44341" lon="3.57626">
        <ele>1217</ele>
        <time>2022-05-27T07:58:26Z</time>
      </trkpt>
      <trkpt lat="44.44341" lon="3.57627">
        <ele>1217</ele>
        <time>2022-05-27T07:58:27Z</time>
      </trkpt>
      <trkpt lat="44.44341" lon="3.57627">
        <ele>1217</ele>
        <time>2022-05-27T07:58:28Z</time>
      </trkpt>
      <trkpt lat="44.44341" lon="3.57627">
        <ele>1218</ele>
        <time>2022-05-27T07:58:29Z</time>
      </trkpt>
      <trkpt lat="44.44341" lon="3.57627">
        <ele>1217</ele>
        <time>2022-05-27T07:58:30Z</time>
      </trkpt>
      <trkpt lat="44.44341" lon="3.57627">
        <ele>1217</ele>
        <time>2022-05-27T07:58:30Z</time>
      </trkpt>
      <trkpt lat="44.44341" lon="3.57627">
        <ele>1217</ele>
        <time>2022-05-27T07:58:30Z</time>
      </trkpt>
      <trkpt lat="44.44345" lon="3.57622">
        <ele>1219</ele>
        <time>2022-05-27T07:58:50Z</time>
      </trkpt>
      <trkpt lat="44.44346" lon="3.57623">
        <ele>1220</ele>
        <time>2022-05-27T07:58:51Z</time>
      </trkpt>
      <trkpt lat="44.44346" lon="3.57622">
        <ele>1220</ele>
        <time>2022-05-27T07:58:52Z</time>
      </trkpt>
      <trkpt lat="44.44347" lon="3.57621">
        <ele>1220</ele>
        <time>2022-05-27T07:58:53Z</time>
      </trkpt>
      <trkpt lat="44.44347" lon="3.5762">
        <ele>1220</ele>
        <time>2022-05-27T07:58:54Z</time>
      </trkpt>
      <trkpt lat="44.44348" lon="3.57619">
        <ele>1221</ele>
        <time>2022-05-27T07:58:55Z</time>
      </trkpt>
      <trkpt lat="44.44348" lon="3.57618">
        <ele>1220</ele>
        <time>2022-05-27T07:58:56Z</time>
      </trkpt>
      <trkpt lat="44.44348" lon="3.57618">
        <ele>1221</ele>
        <time>2022-05-27T07:58:57Z</time>
      </trkpt>
      <trkpt lat="44.44348" lon="3.57617">
        <ele>1221</ele>
        <time>2022-05-27T07:58:58Z</time>
      </trkpt>
      <trkpt lat="44.44348" lon="3.57616">
        <ele>1221</ele>
        <time>2022-05-27T07:58:59Z</time>
      </trkpt>
      <trkpt lat="44.44349" lon="3.57615">
        <ele>1221</ele>
        <time>2022-05-27T07:59:00Z</time>
      </trkpt>
      <trkpt lat="44.4435" lon="3.57615">
        <ele>1221</ele>
        <time>2022-05-27T07:59:01Z</time>
      </trkpt>
      <trkpt lat="44.44349" lon="3.57614">
        <ele>1221</ele>
        <time>2022-05-27T07:59:02Z</time>
      </trkpt>
      <trkpt lat="44.4435" lon="3.57614">
        <ele>1222</ele>
        <time>2022-05-27T07:59:03Z</time>
      </trkpt>
      <trkpt lat="44.4435" lon="3.57614">
        <ele>1222</ele>
        <time>2022-05-27T07:59:04Z</time>
      </trkpt>
      <trkpt lat="44.4435" lon="3.57613">
        <ele>1222</ele>
        <time>2022-05-27T07:59:05Z</time>
      </trkpt>
      <trkpt lat="44.44351" lon="3.57612">
        <ele>1221</ele>
        <time>2022-05-27T07:59:06Z</time>
      </trkpt>
      <trkpt lat="44.44352" lon="3.57611">
        <ele>1221</ele>
        <time>2022-05-27T07:59:07Z</time>
      </trkpt>
      <trkpt lat="44.44353" lon="3.5761">
        <ele>1221</ele>
        <time>2022-05-27T07:59:08Z</time>
      </trkpt>
      <trkpt lat="44.44354" lon="3.5761">
        <ele>1221</ele>
        <time>2022-05-27T07:59:09Z</time>
      </trkpt>
      <trkpt lat="44.44354" lon="3.5761">
        <ele>1222</ele>
        <time>2022-05-27T07:59:10Z</time>
      </trkpt>
      <trkpt lat="44.44354" lon="3.5761">
        <ele>1221</ele>
        <time>2022-05-27T07:59:11Z</time>
      </trkpt>
      <trkpt lat="44.44354" lon="3.57609">
        <ele>1221</ele>
        <time>2022-05-27T07:59:12Z</time>
      </trkpt>
      <trkpt lat="44.44354" lon="3.57609">
        <ele>1221</ele>
        <time>2022-05-27T07:59:13Z</time>
      </trkpt>
      <trkpt lat="44.44354" lon="3.57609">
        <ele>1221</ele>
        <time>2022-05-27T07:59:14Z</time>
      </trkpt>
      <trkpt lat="44.44354" lon="3.57608">
        <ele>1220</ele>
        <time>2022-05-27T07:59:15Z</time>
      </trkpt>
      <trkpt lat="44.44354" lon="3.57608">
        <ele>1219</ele>
        <time>2022-05-27T07:59:16Z</time>
      </trkpt>
      <trkpt lat="44.44355" lon="3.57608">
        <ele>1218</ele>
        <time>2022-05-27T07:59:17Z</time>
      </trkpt>
      <trkpt lat="44.44355" lon="3.57607">
        <ele>1216</ele>
        <time>2022-05-27T07:59:18Z</time>
      </trkpt>
      <trkpt lat="44.44356" lon="3.57606">
        <ele>1216</ele>
        <time>2022-05-27T07:59:19Z</time>
      </trkpt>
      <trkpt lat="44.44356" lon="3.57606">
        <ele>1216</ele>
        <time>2022-05-27T07:59:20Z</time>
      </trkpt>
      <trkpt lat="44.44356" lon="3.57606">
        <ele>1216</ele>
        <time>2022-05-27T07:59:21Z</time>
      </trkpt>
      <trkpt lat="44.44357" lon="3.57607">
        <ele>1216</ele>
        <time>2022-05-27T07:59:22Z</time>
      </trkpt>
      <trkpt lat="44.44357" lon="3.57608">
        <ele>1216</ele>
        <time>2022-05-27T07:59:23Z</time>
      </trkpt>
      <trkpt lat="44.44357" lon="3.57608">
        <ele>1216</ele>
        <time>2022-05-27T07:59:24Z</time>
      </trkpt>
      <trkpt lat="44.44358" lon="3.57607">
        <ele>1215</ele>
        <time>2022-05-27T07:59:25Z</time>
      </trkpt>
      <trkpt lat="44.44359" lon="3.57606">
        <ele>1215</ele>
        <time>2022-05-27T07:59:26Z</time>
      </trkpt>
      <trkpt lat="44.4436" lon="3.57607">
        <ele>1214</ele>
        <time>2022-05-27T07:59:27Z</time>
      </trkpt>
      <trkpt lat="44.4436" lon="3.57606">
        <ele>1216</ele>
        <time>2022-05-27T07:59:28Z</time>
      </trkpt>
      <trkpt lat="44.44362" lon="3.57607">
        <ele>1217</ele>
        <time>2022-05-27T07:59:29Z</time>
      </trkpt>
      <trkpt lat="44.44362" lon="3.57608">
        <ele>1216</ele>
        <time>2022-05-27T07:59:30Z</time>
      </trkpt>
      <trkpt lat="44.44363" lon="3.57608">
        <ele>1215</ele>
        <time>2022-05-27T07:59:31Z</time>
      </trkpt>
      <trkpt lat="44.44364" lon="3.57608">
        <ele>1214</ele>
        <time>2022-05-27T07:59:32Z</time>
      </trkpt>
      <trkpt lat="44.44365" lon="3.57608">
        <ele>1214</ele>
        <time>2022-05-27T07:59:33Z</time>
      </trkpt>
      <trkpt lat="44.44365" lon="3.57609">
        <ele>1213</ele>
        <time>2022-05-27T07:59:34Z</time>
      </trkpt>
      <trkpt lat="44.44367" lon="3.57609">
        <ele>1214</ele>
        <time>2022-05-27T07:59:35Z</time>
      </trkpt>
      <trkpt lat="44.44368" lon="3.57608">
        <ele>1213</ele>
        <time>2022-05-27T07:59:36Z</time>
      </trkpt>
      <trkpt lat="44.44368" lon="3.57608">
        <ele>1211</ele>
        <time>2022-05-27T07:59:37Z</time>
      </trkpt>
      <trkpt lat="44.44369" lon="3.57609">
        <ele>1211</ele>
        <time>2022-05-27T07:59:38Z</time>
      </trkpt>
      <trkpt lat="44.44369" lon="3.57609">
        <ele>1210</ele>
        <time>2022-05-27T07:59:39Z</time>
      </trkpt>
      <trkpt lat="44.4437" lon="3.5761">
        <ele>1210</ele>
        <time>2022-05-27T07:59:40Z</time>
      </trkpt>
      <trkpt lat="44.4437" lon="3.5761">
        <ele>1210</ele>
        <time>2022-05-27T07:59:41Z</time>
      </trkpt>
      <trkpt lat="44.4437" lon="3.5761">
        <ele>1210</ele>
        <time>2022-05-27T07:59:42Z</time>
      </trkpt>
      <trkpt lat="44.4437" lon="3.5761">
        <ele>1210</ele>
        <time>2022-05-27T07:59:43Z</time>
      </trkpt>
      <trkpt lat="44.44371" lon="3.5761">
        <ele>1210</ele>
        <time>2022-05-27T07:59:44Z</time>
      </trkpt>
      <trkpt lat="44.4437" lon="3.57609">
        <ele>1211</ele>
        <time>2022-05-27T07:59:45Z</time>
      </trkpt>
      <trkpt lat="44.4437" lon="3.57609">
        <ele>1211</ele>
        <time>2022-05-27T07:59:46Z</time>
      </trkpt>
      <trkpt lat="44.44371" lon="3.5761">
        <ele>1210</ele>
        <time>2022-05-27T07:59:47Z</time>
      </trkpt>
      <trkpt lat="44.44371" lon="3.57609">
        <ele>1210</ele>
        <time>2022-05-27T07:59:48Z</time>
      </trkpt>
      <trkpt lat="44.44371" lon="3.57608">
        <ele>1210</ele>
        <time>2022-05-27T07:59:49Z</time>
      </trkpt>
      <trkpt lat="44.44371" lon="3.57609">
        <ele>1210</ele>
        <time>2022-05-27T07:59:50Z</time>
      </trkpt>
      <trkpt lat="44.44371" lon="3.5761">
        <ele>1209</ele>
        <time>2022-05-27T07:59:51Z</time>
      </trkpt>
      <trkpt lat="44.4437" lon="3.57611">
        <ele>1210</ele>
        <time>2022-05-27T07:59:52Z</time>
      </trkpt>
      <trkpt lat="44.44369" lon="3.57612">
        <ele>1210</ele>
        <time>2022-05-27T07:59:53Z</time>
      </trkpt>
      <trkpt lat="44.44367" lon="3.57614">
        <ele>1210</ele>
        <time>2022-05-27T07:59:54Z</time>
      </trkpt>
      <trkpt lat="44.44367" lon="3.57615">
        <ele>1210</ele>
        <time>2022-05-27T07:59:55Z</time>
      </trkpt>
      <trkpt lat="44.44367" lon="3.57615">
        <ele>1210</ele>
        <time>2022-05-27T07:59:56Z</time>
      </trkpt>
      <trkpt lat="44.44367" lon="3.57616">
        <ele>1211</ele>
        <time>2022-05-27T07:59:57Z</time>
      </trkpt>
      <trkpt lat="44.44366" lon="3.57616">
        <ele>1210</ele>
        <time>2022-05-27T07:59:58Z</time>
      </trkpt>
      <trkpt lat="44.44365" lon="3.57617">
        <ele>1211</ele>
        <time>2022-05-27T07:59:59Z</time>
      </trkpt>
      <trkpt lat="44.44365" lon="3.57618">
        <ele>1212</ele>
        <time>2022-05-27T08:00:00Z</time>
      </trkpt>
      <trkpt lat="44.44365" lon="3.57619">
        <ele>1212</ele>
        <time>2022-05-27T08:00:01Z</time>
      </trkpt>
      <trkpt lat="44.44364" lon="3.5762">
        <ele>1213</ele>
        <time>2022-05-27T08:00:02Z</time>
      </trkpt>
      <trkpt lat="44.44363" lon="3.5762">
        <ele>1213</ele>
        <time>2022-05-27T08:00:03Z</time>
      </trkpt>
      <trkpt lat="44.44363" lon="3.57621">
        <ele>1214</ele>
        <time>2022-05-27T08:00:04Z</time>
      </trkpt>
      <trkpt lat="44.44362" lon="3.57622">
        <ele>1215</ele>
        <time>2022-05-27T08:00:05Z</time>
      </trkpt>
      <trkpt lat="44.44362" lon="3.57622">
        <ele>1215</ele>
        <time>2022-05-27T08:00:06Z</time>
      </trkpt>
      <trkpt lat="44.44361" lon="3.57624">
        <ele>1215</ele>
        <time>2022-05-27T08:00:07Z</time>
      </trkpt>
      <trkpt lat="44.4436" lon="3.57625">
        <ele>1216</ele>
        <time>2022-05-27T08:00:08Z</time>
      </trkpt>
      <trkpt lat="44.44359" lon="3.57626">
        <ele>1216</ele>
        <time>2022-05-27T08:00:09Z</time>
      </trkpt>
      <trkpt lat="44.44358" lon="3.57626">
        <ele>1217</ele>
        <time>2022-05-27T08:00:10Z</time>
      </trkpt>
      <trkpt lat="44.44358" lon="3.57626">
        <ele>1218</ele>
        <time>2022-05-27T08:00:11Z</time>
      </trkpt>
      <trkpt lat="44.44358" lon="3.57627">
        <ele>1219</ele>
        <time>2022-05-27T08:00:12Z</time>
      </trkpt>
      <trkpt lat="44.44357" lon="3.57628">
        <ele>1219</ele>
        <time>2022-05-27T08:00:13Z</time>
      </trkpt>
      <trkpt lat="44.44357" lon="3.57629">
        <ele>1219</ele>
        <time>2022-05-27T08:00:14Z</time>
      </trkpt>
      <trkpt lat="44.44356" lon="3.5763">
        <ele>1220</ele>
        <time>2022-05-27T08:00:15Z</time>
      </trkpt>
      <trkpt lat="44.44355" lon="3.57631">
        <ele>1220</ele>
        <time>2022-05-27T08:00:16Z</time>
      </trkpt>
      <trkpt lat="44.44355" lon="3.57632">
        <ele>1221</ele>
        <time>2022-05-27T08:00:17Z</time>
      </trkpt>
      <trkpt lat="44.44355" lon="3.57634">
        <ele>1221</ele>
        <time>2022-05-27T08:00:18Z</time>
      </trkpt>
      <trkpt lat="44.44355" lon="3.57635">
        <ele>1221</ele>
        <time>2022-05-27T08:00:19Z</time>
      </trkpt>
      <trkpt lat="44.44354" lon="3.57636">
        <ele>1221</ele>
        <time>2022-05-27T08:00:20Z</time>
      </trkpt>
      <trkpt lat="44.44354" lon="3.57638">
        <ele>1221</ele>
        <time>2022-05-27T08:00:21Z</time>
      </trkpt>
      <trkpt lat="44.44354" lon="3.57639">
        <ele>1220</ele>
        <time>2022-05-27T08:00:22Z</time>
      </trkpt>
      <trkpt lat="44.44354" lon="3.5764">
        <ele>1220</ele>
        <time>2022-05-27T08:00:23Z</time>
      </trkpt>
      <trkpt lat="44.44354" lon="3.57641">
        <ele>1220</ele>
        <time>2022-05-27T08:00:24Z</time>
      </trkpt>
      <trkpt lat="44.44354" lon="3.57641">
        <ele>1219</ele>
        <time>2022-05-27T08:00:25Z</time>
      </trkpt>
      <trkpt lat="44.44354" lon="3.57643">
        <ele>1218</ele>
        <time>2022-05-27T08:00:26Z</time>
      </trkpt>
      <trkpt lat="44.44354" lon="3.57643">
        <ele>1219</ele>
        <time>2022-05-27T08:00:27Z</time>
      </trkpt>
      <trkpt lat="44.44354" lon="3.57644">
        <ele>1219</ele>
        <time>2022-05-27T08:00:28Z</time>
      </trkpt>
      <trkpt lat="44.44354" lon="3.57644">
        <ele>1219</ele>
        <time>2022-05-27T08:00:29Z</time>
      </trkpt>
      <trkpt lat="44.44353" lon="3.57645">
        <ele>1219</ele>
        <time>2022-05-27T08:00:30Z</time>
      </trkpt>
      <trkpt lat="44.44353" lon="3.57646">
        <ele>1218</ele>
        <time>2022-05-27T08:00:31Z</time>
      </trkpt>
      <trkpt lat="44.44353" lon="3.57648">
        <ele>1217</ele>
        <time>2022-05-27T08:00:32Z</time>
      </trkpt>
      <trkpt lat="44.44354" lon="3.57648">
        <ele>1217</ele>
        <time>2022-05-27T08:00:33Z</time>
      </trkpt>
      <trkpt lat="44.44354" lon="3.57649">
        <ele>1217</ele>
        <time>2022-05-27T08:00:34Z</time>
      </trkpt>
      <trkpt lat="44.44354" lon="3.5765">
        <ele>1218</ele>
        <time>2022-05-27T08:00:35Z</time>
      </trkpt>
      <trkpt lat="44.44354" lon="3.57651">
        <ele>1218</ele>
        <time>2022-05-27T08:00:36Z</time>
      </trkpt>
      <trkpt lat="44.44354" lon="3.57651">
        <ele>1218</ele>
        <time>2022-05-27T08:00:37Z</time>
      </trkpt>
      <trkpt lat="44.44354" lon="3.57651">
        <ele>1217</ele>
        <time>2022-05-27T08:00:38Z</time>
      </trkpt>
      <trkpt lat="44.44354" lon="3.57651">
        <ele>1217</ele>
        <time>2022-05-27T08:00:39Z</time>
      </trkpt>
      <trkpt lat="44.44354" lon="3.57651">
        <ele>1217</ele>
        <time>2022-05-27T08:00:40Z</time>
      </trkpt>
      <trkpt lat="44.44354" lon="3.57651">
        <ele>1217</ele>
        <time>2022-05-27T08:00:40Z</time>
      </trkpt>
      <trkpt lat="44.44354" lon="3.57651">
        <ele>1217</ele>
        <time>2022-05-27T08:00:40Z</time>
      </trkpt>
      <trkpt lat="44.44362" lon="3.57661">
        <ele>1212</ele>
        <time>2022-05-27T08:01:17Z</time>
      </trkpt>
      <trkpt lat="44.44362" lon="3.57662">
        <ele>1212</ele>
        <time>2022-05-27T08:01:18Z</time>
      </trkpt>
      <trkpt lat="44.44362" lon="3.57662">
        <ele>1213</ele>
        <time>2022-05-27T08:01:19Z</time>
      </trkpt>
      <trkpt lat="44.44363" lon="3.57662">
        <ele>1213</ele>
        <time>2022-05-27T08:01:20Z</time>
      </trkpt>
      <trkpt lat="44.44363" lon="3.57662">
        <ele>1213</ele>
        <time>2022-05-27T08:01:21Z</time>
      </trkpt>
      <trkpt lat="44.44364" lon="3.57662">
        <ele>1213</ele>
        <time>2022-05-27T08:01:22Z</time>
      </trkpt>
      <trkpt lat="44.44365" lon="3.57662">
        <ele>1213</ele>
        <time>2022-05-27T08:01:23Z</time>
      </trkpt>
      <trkpt lat="44.44365" lon="3.57663">
        <ele>1213</ele>
        <time>2022-05-27T08:01:24Z</time>
      </trkpt>
      <trkpt lat="44.44366" lon="3.57664">
        <ele>1213</ele>
        <time>2022-05-27T08:01:25Z</time>
      </trkpt>
      <trkpt lat="44.44367" lon="3.57664">
        <ele>1212</ele>
        <time>2022-05-27T08:01:26Z</time>
      </trkpt>
      <trkpt lat="44.44368" lon="3.57664">
        <ele>1212</ele>
        <time>2022-05-27T08:01:27Z</time>
      </trkpt>
      <trkpt lat="44.44369" lon="3.57664">
        <ele>1213</ele>
        <time>2022-05-27T08:01:28Z</time>
      </trkpt>
      <trkpt lat="44.4437" lon="3.57664">
        <ele>1213</ele>
        <time>2022-05-27T08:01:29Z</time>
      </trkpt>
      <trkpt lat="44.44371" lon="3.57665">
        <ele>1212</ele>
        <time>2022-05-27T08:01:30Z</time>
      </trkpt>
      <trkpt lat="44.44371" lon="3.57665">
        <ele>1213</ele>
        <time>2022-05-27T08:01:31Z</time>
      </trkpt>
      <trkpt lat="44.44372" lon="3.57666">
        <ele>1213</ele>
        <time>2022-05-27T08:01:32Z</time>
      </trkpt>
      <trkpt lat="44.44374" lon="3.57666">
        <ele>1213</ele>
        <time>2022-05-27T08:01:33Z</time>
      </trkpt>
      <trkpt lat="44.44375" lon="3.57667">
        <ele>1213</ele>
        <time>2022-05-27T08:01:34Z</time>
      </trkpt>
      <trkpt lat="44.44376" lon="3.57667">
        <ele>1213</ele>
        <time>2022-05-27T08:01:35Z</time>
      </trkpt>
      <trkpt lat="44.44378" lon="3.57667">
        <ele>1214</ele>
        <time>2022-05-27T08:01:36Z</time>
      </trkpt>
      <trkpt lat="44.44378" lon="3.57668">
        <ele>1214</ele>
        <time>2022-05-27T08:01:37Z</time>
      </trkpt>
      <trkpt lat="44.44378" lon="3.57668">
        <ele>1215</ele>
        <time>2022-05-27T08:01:38Z</time>
      </trkpt>
      <trkpt lat="44.44379" lon="3.57668">
        <ele>1215</ele>
        <time>2022-05-27T08:01:39Z</time>
      </trkpt>
      <trkpt lat="44.44379" lon="3.57669">
        <ele>1215</ele>
        <time>2022-05-27T08:01:40Z</time>
      </trkpt>
      <trkpt lat="44.4438" lon="3.5767">
        <ele>1215</ele>
        <time>2022-05-27T08:01:41Z</time>
      </trkpt>
      <trkpt lat="44.44381" lon="3.57671">
        <ele>1214</ele>
        <time>2022-05-27T08:01:42Z</time>
      </trkpt>
      <trkpt lat="44.4438" lon="3.57671">
        <ele>1215</ele>
        <time>2022-05-27T08:01:43Z</time>
      </trkpt>
      <trkpt lat="44.44381" lon="3.57672">
        <ele>1215</ele>
        <time>2022-05-27T08:01:44Z</time>
      </trkpt>
      <trkpt lat="44.44382" lon="3.57673">
        <ele>1215</ele>
        <time>2022-05-27T08:01:45Z</time>
      </trkpt>
      <trkpt lat="44.44383" lon="3.57674">
        <ele>1214</ele>
        <time>2022-05-27T08:01:46Z</time>
      </trkpt>
      <trkpt lat="44.44383" lon="3.57675">
        <ele>1213</ele>
        <time>2022-05-27T08:01:47Z</time>
      </trkpt>
      <trkpt lat="44.44383" lon="3.57675">
        <ele>1212</ele>
        <time>2022-05-27T08:01:48Z</time>
      </trkpt>
      <trkpt lat="44.44383" lon="3.57677">
        <ele>1213</ele>
        <time>2022-05-27T08:01:49Z</time>
      </trkpt>
      <trkpt lat="44.44383" lon="3.57678">
        <ele>1214</ele>
        <time>2022-05-27T08:01:50Z</time>
      </trkpt>
      <trkpt lat="44.44384" lon="3.57679">
        <ele>1214</ele>
        <time>2022-05-27T08:01:51Z</time>
      </trkpt>
      <trkpt lat="44.44385" lon="3.57681">
        <ele>1214</ele>
        <time>2022-05-27T08:01:52Z</time>
      </trkpt>
      <trkpt lat="44.44386" lon="3.57682">
        <ele>1213</ele>
        <time>2022-05-27T08:01:53Z</time>
      </trkpt>
      <trkpt lat="44.44386" lon="3.57683">
        <ele>1212</ele>
        <time>2022-05-27T08:01:54Z</time>
      </trkpt>
      <trkpt lat="44.44387" lon="3.57684">
        <ele>1213</ele>
        <time>2022-05-27T08:01:55Z</time>
      </trkpt>
      <trkpt lat="44.44387" lon="3.57686">
        <ele>1214</ele>
        <time>2022-05-27T08:01:56Z</time>
      </trkpt>
      <trkpt lat="44.44387" lon="3.57687">
        <ele>1215</ele>
        <time>2022-05-27T08:01:57Z</time>
      </trkpt>
      <trkpt lat="44.44388" lon="3.57688">
        <ele>1215</ele>
        <time>2022-05-27T08:01:58Z</time>
      </trkpt>
      <trkpt lat="44.44388" lon="3.57689">
        <ele>1215</ele>
        <time>2022-05-27T08:01:59Z</time>
      </trkpt>
      <trkpt lat="44.44389" lon="3.5769">
        <ele>1216</ele>
        <time>2022-05-27T08:02:00Z</time>
      </trkpt>
      <trkpt lat="44.44389" lon="3.57691">
        <ele>1217</ele>
        <time>2022-05-27T08:02:01Z</time>
      </trkpt>
      <trkpt lat="44.44389" lon="3.57692">
        <ele>1218</ele>
        <time>2022-05-27T08:02:02Z</time>
      </trkpt>
      <trkpt lat="44.44389" lon="3.57693">
        <ele>1218</ele>
        <time>2022-05-27T08:02:03Z</time>
      </trkpt>
      <trkpt lat="44.44389" lon="3.57694">
        <ele>1219</ele>
        <time>2022-05-27T08:02:04Z</time>
      </trkpt>
      <trkpt lat="44.44389" lon="3.57695">
        <ele>1219</ele>
        <time>2022-05-27T08:02:05Z</time>
      </trkpt>
      <trkpt lat="44.44389" lon="3.57696">
        <ele>1220</ele>
        <time>2022-05-27T08:02:06Z</time>
      </trkpt>
      <trkpt lat="44.44389" lon="3.57697">
        <ele>1220</ele>
        <time>2022-05-27T08:02:07Z</time>
      </trkpt>
      <trkpt lat="44.4439" lon="3.57698">
        <ele>1221</ele>
        <time>2022-05-27T08:02:08Z</time>
      </trkpt>
      <trkpt lat="44.44389" lon="3.57699">
        <ele>1222</ele>
        <time>2022-05-27T08:02:09Z</time>
      </trkpt>
      <trkpt lat="44.44389" lon="3.577">
        <ele>1223</ele>
        <time>2022-05-27T08:02:10Z</time>
      </trkpt>
      <trkpt lat="44.44389" lon="3.577">
        <ele>1224</ele>
        <time>2022-05-27T08:02:11Z</time>
      </trkpt>
      <trkpt lat="44.44389" lon="3.577">
        <ele>1224</ele>
        <time>2022-05-27T08:02:12Z</time>
      </trkpt>
      <trkpt lat="44.4439" lon="3.57702">
        <ele>1226</ele>
        <time>2022-05-27T08:02:13Z</time>
      </trkpt>
      <trkpt lat="44.4439" lon="3.57703">
        <ele>1226</ele>
        <time>2022-05-27T08:02:14Z</time>
      </trkpt>
      <trkpt lat="44.4439" lon="3.57705">
        <ele>1227</ele>
        <time>2022-05-27T08:02:15Z</time>
      </trkpt>
      <trkpt lat="44.4439" lon="3.57706">
        <ele>1227</ele>
        <time>2022-05-27T08:02:16Z</time>
      </trkpt>
      <trkpt lat="44.4439" lon="3.57707">
        <ele>1228</ele>
        <time>2022-05-27T08:02:17Z</time>
      </trkpt>
      <trkpt lat="44.44389" lon="3.57708">
        <ele>1228</ele>
        <time>2022-05-27T08:02:18Z</time>
      </trkpt>
      <trkpt lat="44.44389" lon="3.57709">
        <ele>1228</ele>
        <time>2022-05-27T08:02:19Z</time>
      </trkpt>
      <trkpt lat="44.44389" lon="3.5771">
        <ele>1228</ele>
        <time>2022-05-27T08:02:20Z</time>
      </trkpt>
      <trkpt lat="44.44389" lon="3.57711">
        <ele>1228</ele>
        <time>2022-05-27T08:02:21Z</time>
      </trkpt>
      <trkpt lat="44.44388" lon="3.57712">
        <ele>1228</ele>
        <time>2022-05-27T08:02:22Z</time>
      </trkpt>
      <trkpt lat="44.44388" lon="3.57713">
        <ele>1228</ele>
        <time>2022-05-27T08:02:23Z</time>
      </trkpt>
      <trkpt lat="44.44388" lon="3.57714">
        <ele>1229</ele>
        <time>2022-05-27T08:02:24Z</time>
      </trkpt>
      <trkpt lat="44.44387" lon="3.57715">
        <ele>1229</ele>
        <time>2022-05-27T08:02:25Z</time>
      </trkpt>
      <trkpt lat="44.44387" lon="3.57716">
        <ele>1230</ele>
        <time>2022-05-27T08:02:26Z</time>
      </trkpt>
      <trkpt lat="44.44386" lon="3.57717">
        <ele>1230</ele>
        <time>2022-05-27T08:02:27Z</time>
      </trkpt>
      <trkpt lat="44.44386" lon="3.57718">
        <ele>1229</ele>
        <time>2022-05-27T08:02:28Z</time>
      </trkpt>
      <trkpt lat="44.44386" lon="3.57719">
        <ele>1229</ele>
        <time>2022-05-27T08:02:29Z</time>
      </trkpt>
      <trkpt lat="44.44385" lon="3.5772">
        <ele>1230</ele>
        <time>2022-05-27T08:02:30Z</time>
      </trkpt>
      <trkpt lat="44.44384" lon="3.57722">
        <ele>1230</ele>
        <time>2022-05-27T08:02:31Z</time>
      </trkpt>
      <trkpt lat="44.44384" lon="3.57723">
        <ele>1230</ele>
        <time>2022-05-27T08:02:32Z</time>
      </trkpt>
      <trkpt lat="44.44383" lon="3.57724">
        <ele>1230</ele>
        <time>2022-05-27T08:02:33Z</time>
      </trkpt>
      <trkpt lat="44.44383" lon="3.57725">
        <ele>1230</ele>
        <time>2022-05-27T08:02:34Z</time>
      </trkpt>
      <trkpt lat="44.44382" lon="3.57727">
        <ele>1230</ele>
        <time>2022-05-27T08:02:35Z</time>
      </trkpt>
      <trkpt lat="44.44381" lon="3.57728">
        <ele>1230</ele>
        <time>2022-05-27T08:02:36Z</time>
      </trkpt>
      <trkpt lat="44.44381" lon="3.57729">
        <ele>1230</ele>
        <time>2022-05-27T08:02:37Z</time>
      </trkpt>
      <trkpt lat="44.4438" lon="3.57731">
        <ele>1230</ele>
        <time>2022-05-27T08:02:38Z</time>
      </trkpt>
      <trkpt lat="44.4438" lon="3.57732">
        <ele>1230</ele>
        <time>2022-05-27T08:02:39Z</time>
      </trkpt>
      <trkpt lat="44.44379" lon="3.57733">
        <ele>1230</ele>
        <time>2022-05-27T08:02:40Z</time>
      </trkpt>
      <trkpt lat="44.44379" lon="3.57735">
        <ele>1230</ele>
        <time>2022-05-27T08:02:41Z</time>
      </trkpt>
      <trkpt lat="44.44378" lon="3.57737">
        <ele>1229</ele>
        <time>2022-05-27T08:02:42Z</time>
      </trkpt>
      <trkpt lat="44.44378" lon="3.57739">
        <ele>1230</ele>
        <time>2022-05-27T08:02:43Z</time>
      </trkpt>
      <trkpt lat="44.44377" lon="3.5774">
        <ele>1230</ele>
        <time>2022-05-27T08:02:44Z</time>
      </trkpt>
      <trkpt lat="44.44376" lon="3.57742">
        <ele>1230</ele>
        <time>2022-05-27T08:02:45Z</time>
      </trkpt>
      <trkpt lat="44.44375" lon="3.57743">
        <ele>1230</ele>
        <time>2022-05-27T08:02:46Z</time>
      </trkpt>
      <trkpt lat="44.44375" lon="3.57745">
        <ele>1231</ele>
        <time>2022-05-27T08:02:47Z</time>
      </trkpt>
      <trkpt lat="44.44374" lon="3.57746">
        <ele>1231</ele>
        <time>2022-05-27T08:02:48Z</time>
      </trkpt>
      <trkpt lat="44.44373" lon="3.57748">
        <ele>1231</ele>
        <time>2022-05-27T08:02:49Z</time>
      </trkpt>
      <trkpt lat="44.44373" lon="3.5775">
        <ele>1231</ele>
        <time>2022-05-27T08:02:50Z</time>
      </trkpt>
      <trkpt lat="44.44372" lon="3.57752">
        <ele>1231</ele>
        <time>2022-05-27T08:02:51Z</time>
      </trkpt>
      <trkpt lat="44.44371" lon="3.57753">
        <ele>1232</ele>
        <time>2022-05-27T08:02:52Z</time>
      </trkpt>
      <trkpt lat="44.44371" lon="3.57755">
        <ele>1232</ele>
        <time>2022-05-27T08:02:53Z</time>
      </trkpt>
      <trkpt lat="44.4437" lon="3.57756">
        <ele>1232</ele>
        <time>2022-05-27T08:02:54Z</time>
      </trkpt>
      <trkpt lat="44.4437" lon="3.57757">
        <ele>1232</ele>
        <time>2022-05-27T08:02:55Z</time>
      </trkpt>
      <trkpt lat="44.44369" lon="3.57758">
        <ele>1233</ele>
        <time>2022-05-27T08:02:56Z</time>
      </trkpt>
      <trkpt lat="44.44368" lon="3.57759">
        <ele>1233</ele>
        <time>2022-05-27T08:02:57Z</time>
      </trkpt>
      <trkpt lat="44.44368" lon="3.5776">
        <ele>1233</ele>
        <time>2022-05-27T08:02:58Z</time>
      </trkpt>
      <trkpt lat="44.44367" lon="3.57762">
        <ele>1234</ele>
        <time>2022-05-27T08:02:59Z</time>
      </trkpt>
      <trkpt lat="44.44367" lon="3.57763">
        <ele>1234</ele>
        <time>2022-05-27T08:03:00Z</time>
      </trkpt>
      <trkpt lat="44.44367" lon="3.57764">
        <ele>1234</ele>
        <time>2022-05-27T08:03:01Z</time>
      </trkpt>
      <trkpt lat="44.44366" lon="3.57765">
        <ele>1234</ele>
        <time>2022-05-27T08:03:02Z</time>
      </trkpt>
      <trkpt lat="44.44365" lon="3.57767">
        <ele>1235</ele>
        <time>2022-05-27T08:03:03Z</time>
      </trkpt>
      <trkpt lat="44.44365" lon="3.57767">
        <ele>1235</ele>
        <time>2022-05-27T08:03:04Z</time>
      </trkpt>
      <trkpt lat="44.44364" lon="3.57768">
        <ele>1236</ele>
        <time>2022-05-27T08:03:05Z</time>
      </trkpt>
      <trkpt lat="44.44363" lon="3.57769">
        <ele>1236</ele>
        <time>2022-05-27T08:03:06Z</time>
      </trkpt>
      <trkpt lat="44.44363" lon="3.5777">
        <ele>1237</ele>
        <time>2022-05-27T08:03:07Z</time>
      </trkpt>
      <trkpt lat="44.44362" lon="3.57772">
        <ele>1237</ele>
        <time>2022-05-27T08:03:08Z</time>
      </trkpt>
      <trkpt lat="44.44361" lon="3.57773">
        <ele>1238</ele>
        <time>2022-05-27T08:03:09Z</time>
      </trkpt>
      <trkpt lat="44.44361" lon="3.57775">
        <ele>1237</ele>
        <time>2022-05-27T08:03:10Z</time>
      </trkpt>
      <trkpt lat="44.4436" lon="3.57776">
        <ele>1238</ele>
        <time>2022-05-27T08:03:11Z</time>
      </trkpt>
      <trkpt lat="44.4436" lon="3.57778">
        <ele>1238</ele>
        <time>2022-05-27T08:03:12Z</time>
      </trkpt>
      <trkpt lat="44.44359" lon="3.57779">
        <ele>1238</ele>
        <time>2022-05-27T08:03:13Z</time>
      </trkpt>
      <trkpt lat="44.44358" lon="3.5778">
        <ele>1238</ele>
        <time>2022-05-27T08:03:14Z</time>
      </trkpt>
      <trkpt lat="44.44358" lon="3.57782">
        <ele>1238</ele>
        <time>2022-05-27T08:03:15Z</time>
      </trkpt>
      <trkpt lat="44.44357" lon="3.57783">
        <ele>1238</ele>
        <time>2022-05-27T08:03:16Z</time>
      </trkpt>
      <trkpt lat="44.44357" lon="3.57785">
        <ele>1238</ele>
        <time>2022-05-27T08:03:17Z</time>
      </trkpt>
      <trkpt lat="44.44356" lon="3.57786">
        <ele>1238</ele>
        <time>2022-05-27T08:03:18Z</time>
      </trkpt>
      <trkpt lat="44.44356" lon="3.57787">
        <ele>1239</ele>
        <time>2022-05-27T08:03:19Z</time>
      </trkpt>
      <trkpt lat="44.44355" lon="3.57788">
        <ele>1239</ele>
        <time>2022-05-27T08:03:20Z</time>
      </trkpt>
      <trkpt lat="44.44355" lon="3.5779">
        <ele>1239</ele>
        <time>2022-05-27T08:03:21Z</time>
      </trkpt>
      <trkpt lat="44.44354" lon="3.57791">
        <ele>1239</ele>
        <time>2022-05-27T08:03:22Z</time>
      </trkpt>
      <trkpt lat="44.44354" lon="3.57793">
        <ele>1239</ele>
        <time>2022-05-27T08:03:23Z</time>
      </trkpt>
      <trkpt lat="44.44354" lon="3.57794">
        <ele>1240</ele>
        <time>2022-05-27T08:03:24Z</time>
      </trkpt>
      <trkpt lat="44.44353" lon="3.57795">
        <ele>1240</ele>
        <time>2022-05-27T08:03:25Z</time>
      </trkpt>
      <trkpt lat="44.44352" lon="3.57796">
        <ele>1240</ele>
        <time>2022-05-27T08:03:26Z</time>
      </trkpt>
      <trkpt lat="44.44352" lon="3.57797">
        <ele>1240</ele>
        <time>2022-05-27T08:03:27Z</time>
      </trkpt>
      <trkpt lat="44.44352" lon="3.57799">
        <ele>1240</ele>
        <time>2022-05-27T08:03:28Z</time>
      </trkpt>
      <trkpt lat="44.44351" lon="3.578">
        <ele>1240</ele>
        <time>2022-05-27T08:03:29Z</time>
      </trkpt>
      <trkpt lat="44.4435" lon="3.57802">
        <ele>1240</ele>
        <time>2022-05-27T08:03:30Z</time>
      </trkpt>
      <trkpt lat="44.4435" lon="3.57803">
        <ele>1241</ele>
        <time>2022-05-27T08:03:31Z</time>
      </trkpt>
      <trkpt lat="44.44349" lon="3.57804">
        <ele>1241</ele>
        <time>2022-05-27T08:03:32Z</time>
      </trkpt>
      <trkpt lat="44.44349" lon="3.57805">
        <ele>1241</ele>
        <time>2022-05-27T08:03:33Z</time>
      </trkpt>
      <trkpt lat="44.44348" lon="3.57806">
        <ele>1242</ele>
        <time>2022-05-27T08:03:34Z</time>
      </trkpt>
      <trkpt lat="44.44348" lon="3.57808">
        <ele>1242</ele>
        <time>2022-05-27T08:03:35Z</time>
      </trkpt>
      <trkpt lat="44.44348" lon="3.57809">
        <ele>1242</ele>
        <time>2022-05-27T08:03:36Z</time>
      </trkpt>
      <trkpt lat="44.44347" lon="3.5781">
        <ele>1242</ele>
        <time>2022-05-27T08:03:37Z</time>
      </trkpt>
      <trkpt lat="44.44347" lon="3.57811">
        <ele>1242</ele>
        <time>2022-05-27T08:03:38Z</time>
      </trkpt>
      <trkpt lat="44.44346" lon="3.57813">
        <ele>1242</ele>
        <time>2022-05-27T08:03:39Z</time>
      </trkpt>
      <trkpt lat="44.44345" lon="3.57814">
        <ele>1243</ele>
        <time>2022-05-27T08:03:40Z</time>
      </trkpt>
      <trkpt lat="44.44345" lon="3.57815">
        <ele>1243</ele>
        <time>2022-05-27T08:03:41Z</time>
      </trkpt>
      <trkpt lat="44.44344" lon="3.57816">
        <ele>1243</ele>
        <time>2022-05-27T08:03:42Z</time>
      </trkpt>
      <trkpt lat="44.44344" lon="3.57818">
        <ele>1243</ele>
        <time>2022-05-27T08:03:43Z</time>
      </trkpt>
      <trkpt lat="44.44343" lon="3.57819">
        <ele>1243</ele>
        <time>2022-05-27T08:03:44Z</time>
      </trkpt>
      <trkpt lat="44.44343" lon="3.5782">
        <ele>1244</ele>
        <time>2022-05-27T08:03:45Z</time>
      </trkpt>
      <trkpt lat="44.44342" lon="3.57821">
        <ele>1244</ele>
        <time>2022-05-27T08:03:46Z</time>
      </trkpt>
      <trkpt lat="44.44342" lon="3.57822">
        <ele>1244</ele>
        <time>2022-05-27T08:03:47Z</time>
      </trkpt>
      <trkpt lat="44.44341" lon="3.57823">
        <ele>1244</ele>
        <time>2022-05-27T08:03:48Z</time>
      </trkpt>
      <trkpt lat="44.44341" lon="3.57824">
        <ele>1244</ele>
        <time>2022-05-27T08:03:49Z</time>
      </trkpt>
      <trkpt lat="44.44341" lon="3.57825">
        <ele>1245</ele>
        <time>2022-05-27T08:03:50Z</time>
      </trkpt>
      <trkpt lat="44.4434" lon="3.57826">
        <ele>1245</ele>
        <time>2022-05-27T08:03:51Z</time>
      </trkpt>
      <trkpt lat="44.4434" lon="3.57827">
        <ele>1246</ele>
        <time>2022-05-27T08:03:52Z</time>
      </trkpt>
      <trkpt lat="44.44339" lon="3.57828">
        <ele>1246</ele>
        <time>2022-05-27T08:03:53Z</time>
      </trkpt>
      <trkpt lat="44.44339" lon="3.57829">
        <ele>1247</ele>
        <time>2022-05-27T08:03:54Z</time>
      </trkpt>
      <trkpt lat="44.44338" lon="3.57831">
        <ele>1247</ele>
        <time>2022-05-27T08:03:55Z</time>
      </trkpt>
      <trkpt lat="44.44338" lon="3.57832">
        <ele>1248</ele>
        <time>2022-05-27T08:03:56Z</time>
      </trkpt>
      <trkpt lat="44.44338" lon="3.57833">
        <ele>1248</ele>
        <time>2022-05-27T08:03:57Z</time>
      </trkpt>
      <trkpt lat="44.44337" lon="3.57834">
        <ele>1248</ele>
        <time>2022-05-27T08:03:58Z</time>
      </trkpt>
      <trkpt lat="44.44337" lon="3.57835">
        <ele>1249</ele>
        <time>2022-05-27T08:03:59Z</time>
      </trkpt>
      <trkpt lat="44.44336" lon="3.57837">
        <ele>1249</ele>
        <time>2022-05-27T08:04:00Z</time>
      </trkpt>
      <trkpt lat="44.44336" lon="3.57839">
        <ele>1248</ele>
        <time>2022-05-27T08:04:01Z</time>
      </trkpt>
      <trkpt lat="44.44336" lon="3.57841">
        <ele>1247</ele>
        <time>2022-05-27T08:04:02Z</time>
      </trkpt>
      <trkpt lat="44.44336" lon="3.57844">
        <ele>1246</ele>
        <time>2022-05-27T08:04:03Z</time>
      </trkpt>
      <trkpt lat="44.44336" lon="3.57847">
        <ele>1245</ele>
        <time>2022-05-27T08:04:04Z</time>
      </trkpt>
      <trkpt lat="44.44335" lon="3.57849">
        <ele>1244</ele>
        <time>2022-05-27T08:04:05Z</time>
      </trkpt>
      <trkpt lat="44.44335" lon="3.57851">
        <ele>1243</ele>
        <time>2022-05-27T08:04:06Z</time>
      </trkpt>
      <trkpt lat="44.44335" lon="3.57853">
        <ele>1243</ele>
        <time>2022-05-27T08:04:07Z</time>
      </trkpt>
      <trkpt lat="44.44335" lon="3.57855">
        <ele>1243</ele>
        <time>2022-05-27T08:04:08Z</time>
      </trkpt>
      <trkpt lat="44.44335" lon="3.57857">
        <ele>1243</ele>
        <time>2022-05-27T08:04:09Z</time>
      </trkpt>
      <trkpt lat="44.44335" lon="3.57858">
        <ele>1243</ele>
        <time>2022-05-27T08:04:10Z</time>
      </trkpt>
      <trkpt lat="44.44335" lon="3.5786">
        <ele>1242</ele>
        <time>2022-05-27T08:04:11Z</time>
      </trkpt>
      <trkpt lat="44.44335" lon="3.57861">
        <ele>1242</ele>
        <time>2022-05-27T08:04:12Z</time>
      </trkpt>
      <trkpt lat="44.44335" lon="3.57863">
        <ele>1242</ele>
        <time>2022-05-27T08:04:13Z</time>
      </trkpt>
      <trkpt lat="44.44335" lon="3.57864">
        <ele>1242</ele>
        <time>2022-05-27T08:04:14Z</time>
      </trkpt>
      <trkpt lat="44.44334" lon="3.57866">
        <ele>1242</ele>
        <time>2022-05-27T08:04:15Z</time>
      </trkpt>
      <trkpt lat="44.44334" lon="3.57867">
        <ele>1242</ele>
        <time>2022-05-27T08:04:16Z</time>
      </trkpt>
      <trkpt lat="44.44334" lon="3.57869">
        <ele>1242</ele>
        <time>2022-05-27T08:04:17Z</time>
      </trkpt>
      <trkpt lat="44.44334" lon="3.5787">
        <ele>1242</ele>
        <time>2022-05-27T08:04:18Z</time>
      </trkpt>
      <trkpt lat="44.44334" lon="3.57871">
        <ele>1242</ele>
        <time>2022-05-27T08:04:19Z</time>
      </trkpt>
      <trkpt lat="44.44334" lon="3.57872">
        <ele>1242</ele>
        <time>2022-05-27T08:04:20Z</time>
      </trkpt>
      <trkpt lat="44.44334" lon="3.57874">
        <ele>1242</ele>
        <time>2022-05-27T08:04:21Z</time>
      </trkpt>
      <trkpt lat="44.44334" lon="3.57875">
        <ele>1242</ele>
        <time>2022-05-27T08:04:22Z</time>
      </trkpt>
      <trkpt lat="44.44335" lon="3.57877">
        <ele>1242</ele>
        <time>2022-05-27T08:04:23Z</time>
      </trkpt>
      <trkpt lat="44.44335" lon="3.57878">
        <ele>1242</ele>
        <time>2022-05-27T08:04:24Z</time>
      </trkpt>
      <trkpt lat="44.44335" lon="3.5788">
        <ele>1242</ele>
        <time>2022-05-27T08:04:25Z</time>
      </trkpt>
      <trkpt lat="44.44336" lon="3.57881">
        <ele>1242</ele>
        <time>2022-05-27T08:04:26Z</time>
      </trkpt>
      <trkpt lat="44.44336" lon="3.57882">
        <ele>1243</ele>
        <time>2022-05-27T08:04:27Z</time>
      </trkpt>
      <trkpt lat="44.44336" lon="3.57883">
        <ele>1243</ele>
        <time>2022-05-27T08:04:28Z</time>
      </trkpt>
      <trkpt lat="44.44336" lon="3.57885">
        <ele>1244</ele>
        <time>2022-05-27T08:04:29Z</time>
      </trkpt>
      <trkpt lat="44.44337" lon="3.57886">
        <ele>1244</ele>
        <time>2022-05-27T08:04:30Z</time>
      </trkpt>
      <trkpt lat="44.44337" lon="3.57888">
        <ele>1244</ele>
        <time>2022-05-27T08:04:31Z</time>
      </trkpt>
      <trkpt lat="44.44337" lon="3.57889">
        <ele>1244</ele>
        <time>2022-05-27T08:04:32Z</time>
      </trkpt>
      <trkpt lat="44.44337" lon="3.57891">
        <ele>1245</ele>
        <time>2022-05-27T08:04:33Z</time>
      </trkpt>
      <trkpt lat="44.44337" lon="3.57892">
        <ele>1245</ele>
        <time>2022-05-27T08:04:34Z</time>
      </trkpt>
      <trkpt lat="44.44338" lon="3.57893">
        <ele>1245</ele>
        <time>2022-05-27T08:04:35Z</time>
      </trkpt>
      <trkpt lat="44.44338" lon="3.57894">
        <ele>1245</ele>
        <time>2022-05-27T08:04:36Z</time>
      </trkpt>
      <trkpt lat="44.44338" lon="3.57895">
        <ele>1245</ele>
        <time>2022-05-27T08:04:37Z</time>
      </trkpt>
      <trkpt lat="44.44338" lon="3.57896">
        <ele>1245</ele>
        <time>2022-05-27T08:04:38Z</time>
      </trkpt>
      <trkpt lat="44.44338" lon="3.57898">
        <ele>1245</ele>
        <time>2022-05-27T08:04:39Z</time>
      </trkpt>
      <trkpt lat="44.44338" lon="3.57899">
        <ele>1245</ele>
        <time>2022-05-27T08:04:40Z</time>
      </trkpt>
      <trkpt lat="44.44338" lon="3.57901">
        <ele>1246</ele>
        <time>2022-05-27T08:04:41Z</time>
      </trkpt>
      <trkpt lat="44.44338" lon="3.57902">
        <ele>1247</ele>
        <time>2022-05-27T08:04:42Z</time>
      </trkpt>
      <trkpt lat="44.44338" lon="3.57903">
        <ele>1247</ele>
        <time>2022-05-27T08:04:43Z</time>
      </trkpt>
      <trkpt lat="44.44338" lon="3.57904">
        <ele>1247</ele>
        <time>2022-05-27T08:04:44Z</time>
      </trkpt>
      <trkpt lat="44.44338" lon="3.57906">
        <ele>1247</ele>
        <time>2022-05-27T08:04:45Z</time>
      </trkpt>
      <trkpt lat="44.44338" lon="3.57907">
        <ele>1248</ele>
        <time>2022-05-27T08:04:46Z</time>
      </trkpt>
      <trkpt lat="44.44338" lon="3.57908">
        <ele>1248</ele>
        <time>2022-05-27T08:04:47Z</time>
      </trkpt>
      <trkpt lat="44.44337" lon="3.5791">
        <ele>1248</ele>
        <time>2022-05-27T08:04:48Z</time>
      </trkpt>
      <trkpt lat="44.44336" lon="3.57911">
        <ele>1248</ele>
        <time>2022-05-27T08:04:49Z</time>
      </trkpt>
      <trkpt lat="44.44336" lon="3.57913">
        <ele>1248</ele>
        <time>2022-05-27T08:04:50Z</time>
      </trkpt>
      <trkpt lat="44.44336" lon="3.57913">
        <ele>1248</ele>
        <time>2022-05-27T08:04:51Z</time>
      </trkpt>
      <trkpt lat="44.44336" lon="3.57914">
        <ele>1249</ele>
        <time>2022-05-27T08:04:52Z</time>
      </trkpt>
      <trkpt lat="44.44336" lon="3.57915">
        <ele>1249</ele>
        <time>2022-05-27T08:04:53Z</time>
      </trkpt>
      <trkpt lat="44.44336" lon="3.57915">
        <ele>1249</ele>
        <time>2022-05-27T08:04:54Z</time>
      </trkpt>
      <trkpt lat="44.44336" lon="3.57915">
        <ele>1249</ele>
        <time>2022-05-27T08:04:55Z</time>
      </trkpt>
      <trkpt lat="44.44336" lon="3.57915">
        <ele>1249</ele>
        <time>2022-05-27T08:04:56Z</time>
      </trkpt>
      <trkpt lat="44.44336" lon="3.57915">
        <ele>1249</ele>
        <time>2022-05-27T08:04:57Z</time>
      </trkpt>
      <trkpt lat="44.44336" lon="3.57915">
        <ele>1249</ele>
        <time>2022-05-27T08:04:57Z</time>
      </trkpt>
      <trkpt lat="44.44336" lon="3.57915">
        <ele>1249</ele>
        <time>2022-05-27T08:04:57Z</time>
      </trkpt>
      <trkpt lat="44.44338" lon="3.57924">
        <ele>1248</ele>
        <time>2022-05-27T08:05:10Z</time>
      </trkpt>
      <trkpt lat="44.44338" lon="3.57925">
        <ele>1248</ele>
        <time>2022-05-27T08:05:11Z</time>
      </trkpt>
      <trkpt lat="44.44338" lon="3.57927">
        <ele>1248</ele>
        <time>2022-05-27T08:05:12Z</time>
      </trkpt>
      <trkpt lat="44.44338" lon="3.57929">
        <ele>1249</ele>
        <time>2022-05-27T08:05:13Z</time>
      </trkpt>
      <trkpt lat="44.44338" lon="3.5793">
        <ele>1249</ele>
        <time>2022-05-27T08:05:14Z</time>
      </trkpt>
      <trkpt lat="44.44338" lon="3.57932">
        <ele>1250</ele>
        <time>2022-05-27T08:05:15Z</time>
      </trkpt>
      <trkpt lat="44.44338" lon="3.57933">
        <ele>1250</ele>
        <time>2022-05-27T08:05:16Z</time>
      </trkpt>
      <trkpt lat="44.44338" lon="3.57934">
        <ele>1250</ele>
        <time>2022-05-27T08:05:17Z</time>
      </trkpt>
      <trkpt lat="44.44338" lon="3.57936">
        <ele>1250</ele>
        <time>2022-05-27T08:05:18Z</time>
      </trkpt>
      <trkpt lat="44.44338" lon="3.57937">
        <ele>1251</ele>
        <time>2022-05-27T08:05:19Z</time>
      </trkpt>
      <trkpt lat="44.44337" lon="3.57938">
        <ele>1251</ele>
        <time>2022-05-27T08:05:20Z</time>
      </trkpt>
      <trkpt lat="44.44337" lon="3.57938">
        <ele>1251</ele>
        <time>2022-05-27T08:05:21Z</time>
      </trkpt>
      <trkpt lat="44.44337" lon="3.5794">
        <ele>1252</ele>
        <time>2022-05-27T08:05:22Z</time>
      </trkpt>
      <trkpt lat="44.44336" lon="3.57941">
        <ele>1252</ele>
        <time>2022-05-27T08:05:23Z</time>
      </trkpt>
      <trkpt lat="44.44335" lon="3.57941">
        <ele>1253</ele>
        <time>2022-05-27T08:05:24Z</time>
      </trkpt>
      <trkpt lat="44.44334" lon="3.57943">
        <ele>1253</ele>
        <time>2022-05-27T08:05:25Z</time>
      </trkpt>
      <trkpt lat="44.44334" lon="3.57944">
        <ele>1253</ele>
        <time>2022-05-27T08:05:26Z</time>
      </trkpt>
      <trkpt lat="44.44334" lon="3.57945">
        <ele>1253</ele>
        <time>2022-05-27T08:05:27Z</time>
      </trkpt>
      <trkpt lat="44.44334" lon="3.57946">
        <ele>1254</ele>
        <time>2022-05-27T08:05:28Z</time>
      </trkpt>
      <trkpt lat="44.44333" lon="3.57947">
        <ele>1254</ele>
        <time>2022-05-27T08:05:29Z</time>
      </trkpt>
      <trkpt lat="44.44333" lon="3.57948">
        <ele>1255</ele>
        <time>2022-05-27T08:05:30Z</time>
      </trkpt>
      <trkpt lat="44.44332" lon="3.5795">
        <ele>1255</ele>
        <time>2022-05-27T08:05:31Z</time>
      </trkpt>
      <trkpt lat="44.44331" lon="3.57951">
        <ele>1256</ele>
        <time>2022-05-27T08:05:32Z</time>
      </trkpt>
      <trkpt lat="44.44331" lon="3.57952">
        <ele>1256</ele>
        <time>2022-05-27T08:05:33Z</time>
      </trkpt>
      <trkpt lat="44.4433" lon="3.57954">
        <ele>1256</ele>
        <time>2022-05-27T08:05:34Z</time>
      </trkpt>
      <trkpt lat="44.4433" lon="3.57955">
        <ele>1256</ele>
        <time>2022-05-27T08:05:35Z</time>
      </trkpt>
      <trkpt lat="44.44329" lon="3.57957">
        <ele>1256</ele>
        <time>2022-05-27T08:05:36Z</time>
      </trkpt>
      <trkpt lat="44.44328" lon="3.57958">
        <ele>1256</ele>
        <time>2022-05-27T08:05:37Z</time>
      </trkpt>
      <trkpt lat="44.44328" lon="3.5796">
        <ele>1256</ele>
        <time>2022-05-27T08:05:38Z</time>
      </trkpt>
      <trkpt lat="44.44327" lon="3.57961">
        <ele>1256</ele>
        <time>2022-05-27T08:05:39Z</time>
      </trkpt>
      <trkpt lat="44.44327" lon="3.57963">
        <ele>1256</ele>
        <time>2022-05-27T08:05:40Z</time>
      </trkpt>
      <trkpt lat="44.44326" lon="3.57964">
        <ele>1256</ele>
        <time>2022-05-27T08:05:41Z</time>
      </trkpt>
      <trkpt lat="44.44326" lon="3.57966">
        <ele>1256</ele>
        <time>2022-05-27T08:05:42Z</time>
      </trkpt>
      <trkpt lat="44.44325" lon="3.57967">
        <ele>1256</ele>
        <time>2022-05-27T08:05:43Z</time>
      </trkpt>
      <trkpt lat="44.44325" lon="3.57969">
        <ele>1257</ele>
        <time>2022-05-27T08:05:44Z</time>
      </trkpt>
      <trkpt lat="44.44324" lon="3.5797">
        <ele>1257</ele>
        <time>2022-05-27T08:05:45Z</time>
      </trkpt>
      <trkpt lat="44.44324" lon="3.57972">
        <ele>1257</ele>
        <time>2022-05-27T08:05:46Z</time>
      </trkpt>
      <trkpt lat="44.44323" lon="3.57973">
        <ele>1257</ele>
        <time>2022-05-27T08:05:47Z</time>
      </trkpt>
      <trkpt lat="44.44323" lon="3.57975">
        <ele>1257</ele>
        <time>2022-05-27T08:05:48Z</time>
      </trkpt>
      <trkpt lat="44.44323" lon="3.57977">
        <ele>1257</ele>
        <time>2022-05-27T08:05:49Z</time>
      </trkpt>
      <trkpt lat="44.44322" lon="3.57978">
        <ele>1257</ele>
        <time>2022-05-27T08:05:50Z</time>
      </trkpt>
      <trkpt lat="44.44322" lon="3.57979">
        <ele>1258</ele>
        <time>2022-05-27T08:05:51Z</time>
      </trkpt>
      <trkpt lat="44.44321" lon="3.57981">
        <ele>1258</ele>
        <time>2022-05-27T08:05:52Z</time>
      </trkpt>
      <trkpt lat="44.44321" lon="3.57982">
        <ele>1258</ele>
        <time>2022-05-27T08:05:53Z</time>
      </trkpt>
      <trkpt lat="44.4432" lon="3.57983">
        <ele>1258</ele>
        <time>2022-05-27T08:05:54Z</time>
      </trkpt>
      <trkpt lat="44.44319" lon="3.57985">
        <ele>1259</ele>
        <time>2022-05-27T08:05:55Z</time>
      </trkpt>
      <trkpt lat="44.44318" lon="3.57986">
        <ele>1259</ele>
        <time>2022-05-27T08:05:56Z</time>
      </trkpt>
      <trkpt lat="44.44318" lon="3.57988">
        <ele>1259</ele>
        <time>2022-05-27T08:05:57Z</time>
      </trkpt>
      <trkpt lat="44.44317" lon="3.57989">
        <ele>1259</ele>
        <time>2022-05-27T08:05:58Z</time>
      </trkpt>
      <trkpt lat="44.44316" lon="3.5799">
        <ele>1258</ele>
        <time>2022-05-27T08:05:59Z</time>
      </trkpt>
      <trkpt lat="44.44315" lon="3.57991">
        <ele>1259</ele>
        <time>2022-05-27T08:06:00Z</time>
      </trkpt>
      <trkpt lat="44.44315" lon="3.57992">
        <ele>1258</ele>
        <time>2022-05-27T08:06:01Z</time>
      </trkpt>
      <trkpt lat="44.44314" lon="3.57993">
        <ele>1258</ele>
        <time>2022-05-27T08:06:02Z</time>
      </trkpt>
      <trkpt lat="44.44313" lon="3.57994">
        <ele>1258</ele>
        <time>2022-05-27T08:06:03Z</time>
      </trkpt>
      <trkpt lat="44.44313" lon="3.57996">
        <ele>1258</ele>
        <time>2022-05-27T08:06:04Z</time>
      </trkpt>
      <trkpt lat="44.44312" lon="3.57997">
        <ele>1258</ele>
        <time>2022-05-27T08:06:05Z</time>
      </trkpt>
      <trkpt lat="44.44311" lon="3.57998">
        <ele>1258</ele>
        <time>2022-05-27T08:06:06Z</time>
      </trkpt>
      <trkpt lat="44.4431" lon="3.57999">
        <ele>1258</ele>
        <time>2022-05-27T08:06:07Z</time>
      </trkpt>
      <trkpt lat="44.44309" lon="3.58">
        <ele>1257</ele>
        <time>2022-05-27T08:06:08Z</time>
      </trkpt>
      <trkpt lat="44.44309" lon="3.58001">
        <ele>1257</ele>
        <time>2022-05-27T08:06:09Z</time>
      </trkpt>
      <trkpt lat="44.44308" lon="3.58002">
        <ele>1257</ele>
        <time>2022-05-27T08:06:10Z</time>
      </trkpt>
      <trkpt lat="44.44307" lon="3.58003">
        <ele>1257</ele>
        <time>2022-05-27T08:06:11Z</time>
      </trkpt>
      <trkpt lat="44.44306" lon="3.58004">
        <ele>1256</ele>
        <time>2022-05-27T08:06:12Z</time>
      </trkpt>
      <trkpt lat="44.44305" lon="3.58006">
        <ele>1256</ele>
        <time>2022-05-27T08:06:13Z</time>
      </trkpt>
      <trkpt lat="44.44305" lon="3.58007">
        <ele>1256</ele>
        <time>2022-05-27T08:06:14Z</time>
      </trkpt>
      <trkpt lat="44.44304" lon="3.58009">
        <ele>1255</ele>
        <time>2022-05-27T08:06:15Z</time>
      </trkpt>
      <trkpt lat="44.44304" lon="3.5801">
        <ele>1254</ele>
        <time>2022-05-27T08:06:16Z</time>
      </trkpt>
      <trkpt lat="44.44303" lon="3.58012">
        <ele>1254</ele>
        <time>2022-05-27T08:06:17Z</time>
      </trkpt>
      <trkpt lat="44.44302" lon="3.58013">
        <ele>1254</ele>
        <time>2022-05-27T08:06:18Z</time>
      </trkpt>
      <trkpt lat="44.44301" lon="3.58014">
        <ele>1254</ele>
        <time>2022-05-27T08:06:19Z</time>
      </trkpt>
      <trkpt lat="44.44301" lon="3.58015">
        <ele>1254</ele>
        <time>2022-05-27T08:06:20Z</time>
      </trkpt>
      <trkpt lat="44.44299" lon="3.58016">
        <ele>1253</ele>
        <time>2022-05-27T08:06:21Z</time>
      </trkpt>
      <trkpt lat="44.44298" lon="3.58018">
        <ele>1253</ele>
        <time>2022-05-27T08:06:22Z</time>
      </trkpt>
      <trkpt lat="44.44297" lon="3.58019">
        <ele>1253</ele>
        <time>2022-05-27T08:06:23Z</time>
      </trkpt>
      <trkpt lat="44.44297" lon="3.5802">
        <ele>1253</ele>
        <time>2022-05-27T08:06:24Z</time>
      </trkpt>
      <trkpt lat="44.44296" lon="3.58021">
        <ele>1253</ele>
        <time>2022-05-27T08:06:25Z</time>
      </trkpt>
      <trkpt lat="44.44296" lon="3.58022">
        <ele>1253</ele>
        <time>2022-05-27T08:06:26Z</time>
      </trkpt>
      <trkpt lat="44.44295" lon="3.58023">
        <ele>1253</ele>
        <time>2022-05-27T08:06:27Z</time>
      </trkpt>
      <trkpt lat="44.44294" lon="3.58024">
        <ele>1253</ele>
        <time>2022-05-27T08:06:28Z</time>
      </trkpt>
      <trkpt lat="44.44293" lon="3.58026">
        <ele>1253</ele>
        <time>2022-05-27T08:06:29Z</time>
      </trkpt>
      <trkpt lat="44.44292" lon="3.58026">
        <ele>1253</ele>
        <time>2022-05-27T08:06:30Z</time>
      </trkpt>
      <trkpt lat="44.44292" lon="3.58027">
        <ele>1252</ele>
        <time>2022-05-27T08:06:31Z</time>
      </trkpt>
      <trkpt lat="44.44291" lon="3.58029">
        <ele>1252</ele>
        <time>2022-05-27T08:06:32Z</time>
      </trkpt>
      <trkpt lat="44.4429" lon="3.5803">
        <ele>1252</ele>
        <time>2022-05-27T08:06:33Z</time>
      </trkpt>
      <trkpt lat="44.44289" lon="3.58031">
        <ele>1252</ele>
        <time>2022-05-27T08:06:34Z</time>
      </trkpt>
      <trkpt lat="44.44288" lon="3.58032">
        <ele>1252</ele>
        <time>2022-05-27T08:06:35Z</time>
      </trkpt>
      <trkpt lat="44.44287" lon="3.58033">
        <ele>1251</ele>
        <time>2022-05-27T08:06:36Z</time>
      </trkpt>
      <trkpt lat="44.44287" lon="3.58034">
        <ele>1251</ele>
        <time>2022-05-27T08:06:37Z</time>
      </trkpt>
      <trkpt lat="44.44286" lon="3.58035">
        <ele>1251</ele>
        <time>2022-05-27T08:06:38Z</time>
      </trkpt>
      <trkpt lat="44.44285" lon="3.58037">
        <ele>1251</ele>
        <time>2022-05-27T08:06:39Z</time>
      </trkpt>
      <trkpt lat="44.44284" lon="3.58037">
        <ele>1251</ele>
        <time>2022-05-27T08:06:40Z</time>
      </trkpt>
      <trkpt lat="44.44283" lon="3.58039">
        <ele>1251</ele>
        <time>2022-05-27T08:06:41Z</time>
      </trkpt>
      <trkpt lat="44.44283" lon="3.5804">
        <ele>1251</ele>
        <time>2022-05-27T08:06:42Z</time>
      </trkpt>
      <trkpt lat="44.44281" lon="3.58041">
        <ele>1250</ele>
        <time>2022-05-27T08:06:43Z</time>
      </trkpt>
      <trkpt lat="44.44281" lon="3.58041">
        <ele>1250</ele>
        <time>2022-05-27T08:06:44Z</time>
      </trkpt>
      <trkpt lat="44.4428" lon="3.58042">
        <ele>1250</ele>
        <time>2022-05-27T08:06:45Z</time>
      </trkpt>
      <trkpt lat="44.4428" lon="3.58044">
        <ele>1251</ele>
        <time>2022-05-27T08:06:46Z</time>
      </trkpt>
      <trkpt lat="44.44279" lon="3.58045">
        <ele>1251</ele>
        <time>2022-05-27T08:06:47Z</time>
      </trkpt>
      <trkpt lat="44.44278" lon="3.58046">
        <ele>1251</ele>
        <time>2022-05-27T08:06:48Z</time>
      </trkpt>
      <trkpt lat="44.44277" lon="3.58047">
        <ele>1251</ele>
        <time>2022-05-27T08:06:49Z</time>
      </trkpt>
      <trkpt lat="44.44276" lon="3.58049">
        <ele>1251</ele>
        <time>2022-05-27T08:06:50Z</time>
      </trkpt>
      <trkpt lat="44.44275" lon="3.5805">
        <ele>1251</ele>
        <time>2022-05-27T08:06:51Z</time>
      </trkpt>
      <trkpt lat="44.44275" lon="3.58051">
        <ele>1250</ele>
        <time>2022-05-27T08:06:52Z</time>
      </trkpt>
      <trkpt lat="44.44274" lon="3.58052">
        <ele>1250</ele>
        <time>2022-05-27T08:06:53Z</time>
      </trkpt>
      <trkpt lat="44.44273" lon="3.58054">
        <ele>1250</ele>
        <time>2022-05-27T08:06:54Z</time>
      </trkpt>
      <trkpt lat="44.44273" lon="3.58055">
        <ele>1251</ele>
        <time>2022-05-27T08:06:55Z</time>
      </trkpt>
      <trkpt lat="44.44272" lon="3.58056">
        <ele>1251</ele>
        <time>2022-05-27T08:06:56Z</time>
      </trkpt>
      <trkpt lat="44.44271" lon="3.58058">
        <ele>1250</ele>
        <time>2022-05-27T08:06:57Z</time>
      </trkpt>
      <trkpt lat="44.4427" lon="3.58059">
        <ele>1250</ele>
        <time>2022-05-27T08:06:58Z</time>
      </trkpt>
      <trkpt lat="44.4427" lon="3.58061">
        <ele>1250</ele>
        <time>2022-05-27T08:06:59Z</time>
      </trkpt>
      <trkpt lat="44.4427" lon="3.58062">
        <ele>1249</ele>
        <time>2022-05-27T08:07:00Z</time>
      </trkpt>
      <trkpt lat="44.4427" lon="3.58063">
        <ele>1249</ele>
        <time>2022-05-27T08:07:01Z</time>
      </trkpt>
      <trkpt lat="44.4427" lon="3.58065">
        <ele>1249</ele>
        <time>2022-05-27T08:07:02Z</time>
      </trkpt>
      <trkpt lat="44.4427" lon="3.58066">
        <ele>1249</ele>
        <time>2022-05-27T08:07:03Z</time>
      </trkpt>
      <trkpt lat="44.44269" lon="3.58067">
        <ele>1249</ele>
        <time>2022-05-27T08:07:04Z</time>
      </trkpt>
      <trkpt lat="44.44268" lon="3.58069">
        <ele>1249</ele>
        <time>2022-05-27T08:07:05Z</time>
      </trkpt>
      <trkpt lat="44.44268" lon="3.5807">
        <ele>1249</ele>
        <time>2022-05-27T08:07:06Z</time>
      </trkpt>
      <trkpt lat="44.44268" lon="3.58073">
        <ele>1249</ele>
        <time>2022-05-27T08:07:07Z</time>
      </trkpt>
      <trkpt lat="44.44268" lon="3.58074">
        <ele>1250</ele>
        <time>2022-05-27T08:07:08Z</time>
      </trkpt>
      <trkpt lat="44.44268" lon="3.58075">
        <ele>1250</ele>
        <time>2022-05-27T08:07:09Z</time>
      </trkpt>
      <trkpt lat="44.44267" lon="3.58076">
        <ele>1250</ele>
        <time>2022-05-27T08:07:10Z</time>
      </trkpt>
      <trkpt lat="44.44267" lon="3.58077">
        <ele>1250</ele>
        <time>2022-05-27T08:07:11Z</time>
      </trkpt>
      <trkpt lat="44.44267" lon="3.58079">
        <ele>1250</ele>
        <time>2022-05-27T08:07:12Z</time>
      </trkpt>
      <trkpt lat="44.44267" lon="3.5808">
        <ele>1250</ele>
        <time>2022-05-27T08:07:13Z</time>
      </trkpt>
      <trkpt lat="44.44266" lon="3.58081">
        <ele>1250</ele>
        <time>2022-05-27T08:07:14Z</time>
      </trkpt>
      <trkpt lat="44.44266" lon="3.58082">
        <ele>1250</ele>
        <time>2022-05-27T08:07:15Z</time>
      </trkpt>
      <trkpt lat="44.44266" lon="3.58082">
        <ele>1250</ele>
        <time>2022-05-27T08:07:16Z</time>
      </trkpt>
      <trkpt lat="44.44266" lon="3.58082">
        <ele>1250</ele>
        <time>2022-05-27T08:07:17Z</time>
      </trkpt>
      <trkpt lat="44.44266" lon="3.58082">
        <ele>1249</ele>
        <time>2022-05-27T08:07:18Z</time>
      </trkpt>
      <trkpt lat="44.44265" lon="3.58083">
        <ele>1248</ele>
        <time>2022-05-27T08:07:19Z</time>
      </trkpt>
      <trkpt lat="44.44265" lon="3.58085">
        <ele>1248</ele>
        <time>2022-05-27T08:07:20Z</time>
      </trkpt>
      <trkpt lat="44.44265" lon="3.58086">
        <ele>1248</ele>
        <time>2022-05-27T08:07:21Z</time>
      </trkpt>
      <trkpt lat="44.44265" lon="3.58088">
        <ele>1248</ele>
        <time>2022-05-27T08:07:22Z</time>
      </trkpt>
      <trkpt lat="44.44264" lon="3.58089">
        <ele>1249</ele>
        <time>2022-05-27T08:07:23Z</time>
      </trkpt>
      <trkpt lat="44.44264" lon="3.5809">
        <ele>1249</ele>
        <time>2022-05-27T08:07:24Z</time>
      </trkpt>
      <trkpt lat="44.44263" lon="3.58092">
        <ele>1249</ele>
        <time>2022-05-27T08:07:25Z</time>
      </trkpt>
      <trkpt lat="44.44262" lon="3.58092">
        <ele>1249</ele>
        <time>2022-05-27T08:07:26Z</time>
      </trkpt>
      <trkpt lat="44.44262" lon="3.58093">
        <ele>1250</ele>
        <time>2022-05-27T08:07:27Z</time>
      </trkpt>
      <trkpt lat="44.44262" lon="3.58095">
        <ele>1251</ele>
        <time>2022-05-27T08:07:28Z</time>
      </trkpt>
      <trkpt lat="44.44261" lon="3.58096">
        <ele>1251</ele>
        <time>2022-05-27T08:07:29Z</time>
      </trkpt>
      <trkpt lat="44.44261" lon="3.58097">
        <ele>1251</ele>
        <time>2022-05-27T08:07:30Z</time>
      </trkpt>
      <trkpt lat="44.4426" lon="3.58099">
        <ele>1252</ele>
        <time>2022-05-27T08:07:31Z</time>
      </trkpt>
      <trkpt lat="44.4426" lon="3.581">
        <ele>1252</ele>
        <time>2022-05-27T08:07:32Z</time>
      </trkpt>
      <trkpt lat="44.4426" lon="3.58102">
        <ele>1252</ele>
        <time>2022-05-27T08:07:33Z</time>
      </trkpt>
      <trkpt lat="44.44259" lon="3.58104">
        <ele>1253</ele>
        <time>2022-05-27T08:07:34Z</time>
      </trkpt>
      <trkpt lat="44.44259" lon="3.58105">
        <ele>1253</ele>
        <time>2022-05-27T08:07:35Z</time>
      </trkpt>
      <trkpt lat="44.44259" lon="3.58107">
        <ele>1253</ele>
        <time>2022-05-27T08:07:36Z</time>
      </trkpt>
      <trkpt lat="44.44259" lon="3.58109">
        <ele>1253</ele>
        <time>2022-05-27T08:07:37Z</time>
      </trkpt>
      <trkpt lat="44.44258" lon="3.58111">
        <ele>1253</ele>
        <time>2022-05-27T08:07:38Z</time>
      </trkpt>
      <trkpt lat="44.44258" lon="3.58113">
        <ele>1253</ele>
        <time>2022-05-27T08:07:39Z</time>
      </trkpt>
      <trkpt lat="44.44258" lon="3.58115">
        <ele>1253</ele>
        <time>2022-05-27T08:07:40Z</time>
      </trkpt>
      <trkpt lat="44.44257" lon="3.58117">
        <ele>1252</ele>
        <time>2022-05-27T08:07:41Z</time>
      </trkpt>
      <trkpt lat="44.44257" lon="3.58118">
        <ele>1252</ele>
        <time>2022-05-27T08:07:42Z</time>
      </trkpt>
      <trkpt lat="44.44257" lon="3.5812">
        <ele>1252</ele>
        <time>2022-05-27T08:07:43Z</time>
      </trkpt>
      <trkpt lat="44.44257" lon="3.58122">
        <ele>1253</ele>
        <time>2022-05-27T08:07:44Z</time>
      </trkpt>
      <trkpt lat="44.44257" lon="3.58124">
        <ele>1253</ele>
        <time>2022-05-27T08:07:45Z</time>
      </trkpt>
      <trkpt lat="44.44258" lon="3.58126">
        <ele>1253</ele>
        <time>2022-05-27T08:07:46Z</time>
      </trkpt>
      <trkpt lat="44.44257" lon="3.58128">
        <ele>1252</ele>
        <time>2022-05-27T08:07:47Z</time>
      </trkpt>
      <trkpt lat="44.44258" lon="3.5813">
        <ele>1252</ele>
        <time>2022-05-27T08:07:48Z</time>
      </trkpt>
      <trkpt lat="44.44258" lon="3.58131">
        <ele>1252</ele>
        <time>2022-05-27T08:07:49Z</time>
      </trkpt>
      <trkpt lat="44.44257" lon="3.58132">
        <ele>1253</ele>
        <time>2022-05-27T08:07:50Z</time>
      </trkpt>
      <trkpt lat="44.44257" lon="3.58134">
        <ele>1253</ele>
        <time>2022-05-27T08:07:51Z</time>
      </trkpt>
      <trkpt lat="44.44257" lon="3.58135">
        <ele>1254</ele>
        <time>2022-05-27T08:07:52Z</time>
      </trkpt>
      <trkpt lat="44.44256" lon="3.58136">
        <ele>1254</ele>
        <time>2022-05-27T08:07:53Z</time>
      </trkpt>
      <trkpt lat="44.44256" lon="3.58138">
        <ele>1254</ele>
        <time>2022-05-27T08:07:54Z</time>
      </trkpt>
      <trkpt lat="44.44256" lon="3.58141">
        <ele>1254</ele>
        <time>2022-05-27T08:07:55Z</time>
      </trkpt>
      <trkpt lat="44.44256" lon="3.58143">
        <ele>1254</ele>
        <time>2022-05-27T08:07:56Z</time>
      </trkpt>
      <trkpt lat="44.44256" lon="3.58144">
        <ele>1253</ele>
        <time>2022-05-27T08:07:57Z</time>
      </trkpt>
      <trkpt lat="44.44257" lon="3.58147">
        <ele>1253</ele>
        <time>2022-05-27T08:07:58Z</time>
      </trkpt>
      <trkpt lat="44.44257" lon="3.58149">
        <ele>1253</ele>
        <time>2022-05-27T08:07:59Z</time>
      </trkpt>
      <trkpt lat="44.44256" lon="3.5815">
        <ele>1254</ele>
        <time>2022-05-27T08:08:00Z</time>
      </trkpt>
      <trkpt lat="44.44256" lon="3.58152">
        <ele>1254</ele>
        <time>2022-05-27T08:08:01Z</time>
      </trkpt>
      <trkpt lat="44.44256" lon="3.58154">
        <ele>1254</ele>
        <time>2022-05-27T08:08:02Z</time>
      </trkpt>
      <trkpt lat="44.44256" lon="3.58155">
        <ele>1254</ele>
        <time>2022-05-27T08:08:03Z</time>
      </trkpt>
      <trkpt lat="44.44256" lon="3.58157">
        <ele>1255</ele>
        <time>2022-05-27T08:08:04Z</time>
      </trkpt>
      <trkpt lat="44.44256" lon="3.58158">
        <ele>1254</ele>
        <time>2022-05-27T08:08:05Z</time>
      </trkpt>
      <trkpt lat="44.44255" lon="3.5816">
        <ele>1254</ele>
        <time>2022-05-27T08:08:06Z</time>
      </trkpt>
      <trkpt lat="44.44255" lon="3.58161">
        <ele>1254</ele>
        <time>2022-05-27T08:08:07Z</time>
      </trkpt>
      <trkpt lat="44.44255" lon="3.58162">
        <ele>1254</ele>
        <time>2022-05-27T08:08:08Z</time>
      </trkpt>
      <trkpt lat="44.44255" lon="3.58164">
        <ele>1254</ele>
        <time>2022-05-27T08:08:09Z</time>
      </trkpt>
      <trkpt lat="44.44255" lon="3.58165">
        <ele>1254</ele>
        <time>2022-05-27T08:08:10Z</time>
      </trkpt>
      <trkpt lat="44.44255" lon="3.58167">
        <ele>1254</ele>
        <time>2022-05-27T08:08:11Z</time>
      </trkpt>
      <trkpt lat="44.44255" lon="3.58167">
        <ele>1254</ele>
        <time>2022-05-27T08:08:12Z</time>
      </trkpt>
      <trkpt lat="44.44255" lon="3.58169">
        <ele>1254</ele>
        <time>2022-05-27T08:08:13Z</time>
      </trkpt>
      <trkpt lat="44.44255" lon="3.58171">
        <ele>1253</ele>
        <time>2022-05-27T08:08:14Z</time>
      </trkpt>
      <trkpt lat="44.44255" lon="3.58173">
        <ele>1253</ele>
        <time>2022-05-27T08:08:15Z</time>
      </trkpt>
      <trkpt lat="44.44255" lon="3.58174">
        <ele>1253</ele>
        <time>2022-05-27T08:08:16Z</time>
      </trkpt>
      <trkpt lat="44.44255" lon="3.58175">
        <ele>1253</ele>
        <time>2022-05-27T08:08:17Z</time>
      </trkpt>
      <trkpt lat="44.44254" lon="3.58176">
        <ele>1252</ele>
        <time>2022-05-27T08:08:18Z</time>
      </trkpt>
      <trkpt lat="44.44254" lon="3.58178">
        <ele>1251</ele>
        <time>2022-05-27T08:08:19Z</time>
      </trkpt>
      <trkpt lat="44.44254" lon="3.58179">
        <ele>1251</ele>
        <time>2022-05-27T08:08:20Z</time>
      </trkpt>
      <trkpt lat="44.44254" lon="3.58181">
        <ele>1251</ele>
        <time>2022-05-27T08:08:21Z</time>
      </trkpt>
      <trkpt lat="44.44254" lon="3.58182">
        <ele>1251</ele>
        <time>2022-05-27T08:08:22Z</time>
      </trkpt>
      <trkpt lat="44.44253" lon="3.58184">
        <ele>1251</ele>
        <time>2022-05-27T08:08:23Z</time>
      </trkpt>
      <trkpt lat="44.44254" lon="3.58186">
        <ele>1250</ele>
        <time>2022-05-27T08:08:24Z</time>
      </trkpt>
      <trkpt lat="44.44253" lon="3.58187">
        <ele>1251</ele>
        <time>2022-05-27T08:08:25Z</time>
      </trkpt>
      <trkpt lat="44.44253" lon="3.58188">
        <ele>1251</ele>
        <time>2022-05-27T08:08:26Z</time>
      </trkpt>
      <trkpt lat="44.44253" lon="3.58189">
        <ele>1251</ele>
        <time>2022-05-27T08:08:27Z</time>
      </trkpt>
      <trkpt lat="44.44252" lon="3.5819">
        <ele>1251</ele>
        <time>2022-05-27T08:08:28Z</time>
      </trkpt>
      <trkpt lat="44.44252" lon="3.58192">
        <ele>1251</ele>
        <time>2022-05-27T08:08:29Z</time>
      </trkpt>
      <trkpt lat="44.44251" lon="3.58193">
        <ele>1250</ele>
        <time>2022-05-27T08:08:30Z</time>
      </trkpt>
      <trkpt lat="44.44251" lon="3.58195">
        <ele>1250</ele>
        <time>2022-05-27T08:08:31Z</time>
      </trkpt>
      <trkpt lat="44.4425" lon="3.58196">
        <ele>1250</ele>
        <time>2022-05-27T08:08:32Z</time>
      </trkpt>
      <trkpt lat="44.4425" lon="3.58197">
        <ele>1250</ele>
        <time>2022-05-27T08:08:33Z</time>
      </trkpt>
      <trkpt lat="44.4425" lon="3.58198">
        <ele>1249</ele>
        <time>2022-05-27T08:08:34Z</time>
      </trkpt>
      <trkpt lat="44.4425" lon="3.58199">
        <ele>1248</ele>
        <time>2022-05-27T08:08:35Z</time>
      </trkpt>
      <trkpt lat="44.4425" lon="3.58201">
        <ele>1248</ele>
        <time>2022-05-27T08:08:36Z</time>
      </trkpt>
      <trkpt lat="44.44249" lon="3.58202">
        <ele>1248</ele>
        <time>2022-05-27T08:08:37Z</time>
      </trkpt>
      <trkpt lat="44.44248" lon="3.58203">
        <ele>1247</ele>
        <time>2022-05-27T08:08:38Z</time>
      </trkpt>
      <trkpt lat="44.44248" lon="3.58204">
        <ele>1247</ele>
        <time>2022-05-27T08:08:39Z</time>
      </trkpt>
      <trkpt lat="44.44247" lon="3.58205">
        <ele>1247</ele>
        <time>2022-05-27T08:08:40Z</time>
      </trkpt>
      <trkpt lat="44.44246" lon="3.58206">
        <ele>1247</ele>
        <time>2022-05-27T08:08:41Z</time>
      </trkpt>
      <trkpt lat="44.44245" lon="3.58206">
        <ele>1246</ele>
        <time>2022-05-27T08:08:42Z</time>
      </trkpt>
      <trkpt lat="44.44244" lon="3.58207">
        <ele>1246</ele>
        <time>2022-05-27T08:08:43Z</time>
      </trkpt>
      <trkpt lat="44.44243" lon="3.58208">
        <ele>1247</ele>
        <time>2022-05-27T08:08:44Z</time>
      </trkpt>
      <trkpt lat="44.44242" lon="3.5821">
        <ele>1247</ele>
        <time>2022-05-27T08:08:45Z</time>
      </trkpt>
      <trkpt lat="44.44241" lon="3.58211">
        <ele>1247</ele>
        <time>2022-05-27T08:08:46Z</time>
      </trkpt>
      <trkpt lat="44.44241" lon="3.58212">
        <ele>1246</ele>
        <time>2022-05-27T08:08:47Z</time>
      </trkpt>
      <trkpt lat="44.4424" lon="3.58212">
        <ele>1246</ele>
        <time>2022-05-27T08:08:48Z</time>
      </trkpt>
      <trkpt lat="44.44239" lon="3.58213">
        <ele>1245</ele>
        <time>2022-05-27T08:08:49Z</time>
      </trkpt>
      <trkpt lat="44.44238" lon="3.58214">
        <ele>1245</ele>
        <time>2022-05-27T08:08:50Z</time>
      </trkpt>
      <trkpt lat="44.44237" lon="3.58215">
        <ele>1246</ele>
        <time>2022-05-27T08:08:51Z</time>
      </trkpt>
      <trkpt lat="44.44236" lon="3.58216">
        <ele>1246</ele>
        <time>2022-05-27T08:08:52Z</time>
      </trkpt>
      <trkpt lat="44.44235" lon="3.58217">
        <ele>1246</ele>
        <time>2022-05-27T08:08:53Z</time>
      </trkpt>
      <trkpt lat="44.44235" lon="3.58218">
        <ele>1246</ele>
        <time>2022-05-27T08:08:54Z</time>
      </trkpt>
      <trkpt lat="44.44234" lon="3.58219">
        <ele>1246</ele>
        <time>2022-05-27T08:08:55Z</time>
      </trkpt>
      <trkpt lat="44.44233" lon="3.5822">
        <ele>1247</ele>
        <time>2022-05-27T08:08:56Z</time>
      </trkpt>
      <trkpt lat="44.44232" lon="3.58222">
        <ele>1247</ele>
        <time>2022-05-27T08:08:57Z</time>
      </trkpt>
      <trkpt lat="44.44231" lon="3.58223">
        <ele>1247</ele>
        <time>2022-05-27T08:08:58Z</time>
      </trkpt>
      <trkpt lat="44.4423" lon="3.58224">
        <ele>1247</ele>
        <time>2022-05-27T08:08:59Z</time>
      </trkpt>
      <trkpt lat="44.44229" lon="3.58225">
        <ele>1247</ele>
        <time>2022-05-27T08:09:00Z</time>
      </trkpt>
      <trkpt lat="44.44228" lon="3.58226">
        <ele>1248</ele>
        <time>2022-05-27T08:09:01Z</time>
      </trkpt>
      <trkpt lat="44.44227" lon="3.58227">
        <ele>1248</ele>
        <time>2022-05-27T08:09:02Z</time>
      </trkpt>
      <trkpt lat="44.44226" lon="3.58228">
        <ele>1248</ele>
        <time>2022-05-27T08:09:03Z</time>
      </trkpt>
      <trkpt lat="44.44225" lon="3.58229">
        <ele>1248</ele>
        <time>2022-05-27T08:09:04Z</time>
      </trkpt>
      <trkpt lat="44.44224" lon="3.58229">
        <ele>1248</ele>
        <time>2022-05-27T08:09:05Z</time>
      </trkpt>
      <trkpt lat="44.44223" lon="3.5823">
        <ele>1248</ele>
        <time>2022-05-27T08:09:06Z</time>
      </trkpt>
      <trkpt lat="44.44222" lon="3.58231">
        <ele>1247</ele>
        <time>2022-05-27T08:09:07Z</time>
      </trkpt>
      <trkpt lat="44.44222" lon="3.58232">
        <ele>1247</ele>
        <time>2022-05-27T08:09:08Z</time>
      </trkpt>
      <trkpt lat="44.44221" lon="3.58233">
        <ele>1248</ele>
        <time>2022-05-27T08:09:09Z</time>
      </trkpt>
      <trkpt lat="44.4422" lon="3.58234">
        <ele>1248</ele>
        <time>2022-05-27T08:09:10Z</time>
      </trkpt>
      <trkpt lat="44.44219" lon="3.58234">
        <ele>1248</ele>
        <time>2022-05-27T08:09:11Z</time>
      </trkpt>
      <trkpt lat="44.44218" lon="3.58235">
        <ele>1248</ele>
        <time>2022-05-27T08:09:12Z</time>
      </trkpt>
      <trkpt lat="44.44217" lon="3.58237">
        <ele>1249</ele>
        <time>2022-05-27T08:09:13Z</time>
      </trkpt>
      <trkpt lat="44.44216" lon="3.58237">
        <ele>1249</ele>
        <time>2022-05-27T08:09:14Z</time>
      </trkpt>
      <trkpt lat="44.44215" lon="3.58238">
        <ele>1250</ele>
        <time>2022-05-27T08:09:15Z</time>
      </trkpt>
      <trkpt lat="44.44214" lon="3.58239">
        <ele>1250</ele>
        <time>2022-05-27T08:09:16Z</time>
      </trkpt>
      <trkpt lat="44.44213" lon="3.5824">
        <ele>1250</ele>
        <time>2022-05-27T08:09:17Z</time>
      </trkpt>
      <trkpt lat="44.44212" lon="3.58241">
        <ele>1250</ele>
        <time>2022-05-27T08:09:18Z</time>
      </trkpt>
      <trkpt lat="44.4421" lon="3.58241">
        <ele>1250</ele>
        <time>2022-05-27T08:09:19Z</time>
      </trkpt>
      <trkpt lat="44.44209" lon="3.58242">
        <ele>1250</ele>
        <time>2022-05-27T08:09:20Z</time>
      </trkpt>
      <trkpt lat="44.44208" lon="3.58243">
        <ele>1250</ele>
        <time>2022-05-27T08:09:21Z</time>
      </trkpt>
      <trkpt lat="44.44207" lon="3.58244">
        <ele>1250</ele>
        <time>2022-05-27T08:09:22Z</time>
      </trkpt>
      <trkpt lat="44.44207" lon="3.58244">
        <ele>1251</ele>
        <time>2022-05-27T08:09:23Z</time>
      </trkpt>
      <trkpt lat="44.44206" lon="3.58245">
        <ele>1251</ele>
        <time>2022-05-27T08:09:24Z</time>
      </trkpt>
      <trkpt lat="44.44205" lon="3.58245">
        <ele>1251</ele>
        <time>2022-05-27T08:09:25Z</time>
      </trkpt>
      <trkpt lat="44.44204" lon="3.58246">
        <ele>1251</ele>
        <time>2022-05-27T08:09:26Z</time>
      </trkpt>
      <trkpt lat="44.44203" lon="3.58246">
        <ele>1251</ele>
        <time>2022-05-27T08:09:27Z</time>
      </trkpt>
      <trkpt lat="44.44202" lon="3.58247">
        <ele>1251</ele>
        <time>2022-05-27T08:09:28Z</time>
      </trkpt>
      <trkpt lat="44.44201" lon="3.58247">
        <ele>1251</ele>
        <time>2022-05-27T08:09:29Z</time>
      </trkpt>
      <trkpt lat="44.44199" lon="3.58248">
        <ele>1251</ele>
        <time>2022-05-27T08:09:30Z</time>
      </trkpt>
      <trkpt lat="44.44198" lon="3.58249">
        <ele>1251</ele>
        <time>2022-05-27T08:09:31Z</time>
      </trkpt>
      <trkpt lat="44.44197" lon="3.5825">
        <ele>1251</ele>
        <time>2022-05-27T08:09:32Z</time>
      </trkpt>
      <trkpt lat="44.44196" lon="3.5825">
        <ele>1251</ele>
        <time>2022-05-27T08:09:33Z</time>
      </trkpt>
      <trkpt lat="44.44195" lon="3.58251">
        <ele>1251</ele>
        <time>2022-05-27T08:09:34Z</time>
      </trkpt>
      <trkpt lat="44.44194" lon="3.58252">
        <ele>1251</ele>
        <time>2022-05-27T08:09:35Z</time>
      </trkpt>
      <trkpt lat="44.44192" lon="3.58253">
        <ele>1251</ele>
        <time>2022-05-27T08:09:36Z</time>
      </trkpt>
      <trkpt lat="44.44191" lon="3.58253">
        <ele>1251</ele>
        <time>2022-05-27T08:09:37Z</time>
      </trkpt>
      <trkpt lat="44.4419" lon="3.58254">
        <ele>1251</ele>
        <time>2022-05-27T08:09:38Z</time>
      </trkpt>
      <trkpt lat="44.4419" lon="3.58256">
        <ele>1251</ele>
        <time>2022-05-27T08:09:39Z</time>
      </trkpt>
      <trkpt lat="44.44188" lon="3.58257">
        <ele>1251</ele>
        <time>2022-05-27T08:09:40Z</time>
      </trkpt>
      <trkpt lat="44.44188" lon="3.58258">
        <ele>1250</ele>
        <time>2022-05-27T08:09:41Z</time>
      </trkpt>
      <trkpt lat="44.44186" lon="3.58259">
        <ele>1250</ele>
        <time>2022-05-27T08:09:42Z</time>
      </trkpt>
      <trkpt lat="44.44186" lon="3.5826">
        <ele>1250</ele>
        <time>2022-05-27T08:09:43Z</time>
      </trkpt>
      <trkpt lat="44.44185" lon="3.5826">
        <ele>1250</ele>
        <time>2022-05-27T08:09:44Z</time>
      </trkpt>
      <trkpt lat="44.44184" lon="3.58262">
        <ele>1250</ele>
        <time>2022-05-27T08:09:45Z</time>
      </trkpt>
      <trkpt lat="44.44183" lon="3.58262">
        <ele>1250</ele>
        <time>2022-05-27T08:09:46Z</time>
      </trkpt>
      <trkpt lat="44.44182" lon="3.58263">
        <ele>1250</ele>
        <time>2022-05-27T08:09:47Z</time>
      </trkpt>
      <trkpt lat="44.44181" lon="3.58264">
        <ele>1250</ele>
        <time>2022-05-27T08:09:48Z</time>
      </trkpt>
      <trkpt lat="44.4418" lon="3.58265">
        <ele>1250</ele>
        <time>2022-05-27T08:09:49Z</time>
      </trkpt>
      <trkpt lat="44.44179" lon="3.58266">
        <ele>1250</ele>
        <time>2022-05-27T08:09:50Z</time>
      </trkpt>
      <trkpt lat="44.44178" lon="3.58266">
        <ele>1249</ele>
        <time>2022-05-27T08:09:51Z</time>
      </trkpt>
      <trkpt lat="44.44177" lon="3.58267">
        <ele>1248</ele>
        <time>2022-05-27T08:09:52Z</time>
      </trkpt>
      <trkpt lat="44.44176" lon="3.58269">
        <ele>1248</ele>
        <time>2022-05-27T08:09:53Z</time>
      </trkpt>
      <trkpt lat="44.44175" lon="3.5827">
        <ele>1248</ele>
        <time>2022-05-27T08:09:54Z</time>
      </trkpt>
      <trkpt lat="44.44174" lon="3.5827">
        <ele>1248</ele>
        <time>2022-05-27T08:09:55Z</time>
      </trkpt>
      <trkpt lat="44.44173" lon="3.58271">
        <ele>1247</ele>
        <time>2022-05-27T08:09:56Z</time>
      </trkpt>
      <trkpt lat="44.44172" lon="3.58272">
        <ele>1247</ele>
        <time>2022-05-27T08:09:57Z</time>
      </trkpt>
      <trkpt lat="44.44172" lon="3.58273">
        <ele>1247</ele>
        <time>2022-05-27T08:09:58Z</time>
      </trkpt>
      <trkpt lat="44.44172" lon="3.58274">
        <ele>1247</ele>
        <time>2022-05-27T08:09:59Z</time>
      </trkpt>
      <trkpt lat="44.44171" lon="3.58275">
        <ele>1247</ele>
        <time>2022-05-27T08:10:00Z</time>
      </trkpt>
      <trkpt lat="44.4417" lon="3.58276">
        <ele>1247</ele>
        <time>2022-05-27T08:10:01Z</time>
      </trkpt>
      <trkpt lat="44.44169" lon="3.58276">
        <ele>1247</ele>
        <time>2022-05-27T08:10:02Z</time>
      </trkpt>
      <trkpt lat="44.44168" lon="3.58277">
        <ele>1247</ele>
        <time>2022-05-27T08:10:03Z</time>
      </trkpt>
      <trkpt lat="44.44167" lon="3.58278">
        <ele>1247</ele>
        <time>2022-05-27T08:10:04Z</time>
      </trkpt>
      <trkpt lat="44.44166" lon="3.58278">
        <ele>1246</ele>
        <time>2022-05-27T08:10:05Z</time>
      </trkpt>
      <trkpt lat="44.44165" lon="3.58279">
        <ele>1247</ele>
        <time>2022-05-27T08:10:06Z</time>
      </trkpt>
      <trkpt lat="44.44164" lon="3.5828">
        <ele>1246</ele>
        <time>2022-05-27T08:10:07Z</time>
      </trkpt>
      <trkpt lat="44.44164" lon="3.58281">
        <ele>1246</ele>
        <time>2022-05-27T08:10:08Z</time>
      </trkpt>
      <trkpt lat="44.44163" lon="3.58281">
        <ele>1246</ele>
        <time>2022-05-27T08:10:09Z</time>
      </trkpt>
      <trkpt lat="44.44162" lon="3.58282">
        <ele>1246</ele>
        <time>2022-05-27T08:10:10Z</time>
      </trkpt>
      <trkpt lat="44.44161" lon="3.58283">
        <ele>1246</ele>
        <time>2022-05-27T08:10:11Z</time>
      </trkpt>
      <trkpt lat="44.4416" lon="3.58284">
        <ele>1246</ele>
        <time>2022-05-27T08:10:12Z</time>
      </trkpt>
      <trkpt lat="44.44159" lon="3.58285">
        <ele>1246</ele>
        <time>2022-05-27T08:10:13Z</time>
      </trkpt>
      <trkpt lat="44.44158" lon="3.58285">
        <ele>1246</ele>
        <time>2022-05-27T08:10:14Z</time>
      </trkpt>
      <trkpt lat="44.44157" lon="3.58286">
        <ele>1247</ele>
        <time>2022-05-27T08:10:15Z</time>
      </trkpt>
      <trkpt lat="44.44156" lon="3.58287">
        <ele>1247</ele>
        <time>2022-05-27T08:10:16Z</time>
      </trkpt>
      <trkpt lat="44.44155" lon="3.58288">
        <ele>1247</ele>
        <time>2022-05-27T08:10:17Z</time>
      </trkpt>
      <trkpt lat="44.44154" lon="3.58289">
        <ele>1247</ele>
        <time>2022-05-27T08:10:18Z</time>
      </trkpt>
      <trkpt lat="44.44153" lon="3.5829">
        <ele>1247</ele>
        <time>2022-05-27T08:10:19Z</time>
      </trkpt>
      <trkpt lat="44.44152" lon="3.5829">
        <ele>1247</ele>
        <time>2022-05-27T08:10:20Z</time>
      </trkpt>
      <trkpt lat="44.44151" lon="3.58291">
        <ele>1246</ele>
        <time>2022-05-27T08:10:21Z</time>
      </trkpt>
      <trkpt lat="44.44149" lon="3.58292">
        <ele>1246</ele>
        <time>2022-05-27T08:10:22Z</time>
      </trkpt>
      <trkpt lat="44.44148" lon="3.58293">
        <ele>1246</ele>
        <time>2022-05-27T08:10:23Z</time>
      </trkpt>
      <trkpt lat="44.44147" lon="3.58294">
        <ele>1245</ele>
        <time>2022-05-27T08:10:24Z</time>
      </trkpt>
      <trkpt lat="44.44146" lon="3.58295">
        <ele>1245</ele>
        <time>2022-05-27T08:10:25Z</time>
      </trkpt>
      <trkpt lat="44.44146" lon="3.58296">
        <ele>1245</ele>
        <time>2022-05-27T08:10:26Z</time>
      </trkpt>
      <trkpt lat="44.44145" lon="3.58297">
        <ele>1245</ele>
        <time>2022-05-27T08:10:27Z</time>
      </trkpt>
      <trkpt lat="44.44144" lon="3.58298">
        <ele>1245</ele>
        <time>2022-05-27T08:10:28Z</time>
      </trkpt>
      <trkpt lat="44.44144" lon="3.58299">
        <ele>1245</ele>
        <time>2022-05-27T08:10:29Z</time>
      </trkpt>
      <trkpt lat="44.44143" lon="3.58299">
        <ele>1246</ele>
        <time>2022-05-27T08:10:30Z</time>
      </trkpt>
      <trkpt lat="44.44142" lon="3.583">
        <ele>1246</ele>
        <time>2022-05-27T08:10:31Z</time>
      </trkpt>
      <trkpt lat="44.44141" lon="3.58301">
        <ele>1246</ele>
        <time>2022-05-27T08:10:32Z</time>
      </trkpt>
      <trkpt lat="44.4414" lon="3.58302">
        <ele>1247</ele>
        <time>2022-05-27T08:10:33Z</time>
      </trkpt>
      <trkpt lat="44.4414" lon="3.58303">
        <ele>1247</ele>
        <time>2022-05-27T08:10:34Z</time>
      </trkpt>
      <trkpt lat="44.44139" lon="3.58303">
        <ele>1247</ele>
        <time>2022-05-27T08:10:35Z</time>
      </trkpt>
      <trkpt lat="44.44138" lon="3.58304">
        <ele>1247</ele>
        <time>2022-05-27T08:10:36Z</time>
      </trkpt>
      <trkpt lat="44.44136" lon="3.58305">
        <ele>1248</ele>
        <time>2022-05-27T08:10:37Z</time>
      </trkpt>
      <trkpt lat="44.44135" lon="3.58305">
        <ele>1248</ele>
        <time>2022-05-27T08:10:38Z</time>
      </trkpt>
      <trkpt lat="44.44134" lon="3.58306">
        <ele>1249</ele>
        <time>2022-05-27T08:10:39Z</time>
      </trkpt>
      <trkpt lat="44.44132" lon="3.58307">
        <ele>1249</ele>
        <time>2022-05-27T08:10:40Z</time>
      </trkpt>
      <trkpt lat="44.44131" lon="3.58308">
        <ele>1249</ele>
        <time>2022-05-27T08:10:41Z</time>
      </trkpt>
      <trkpt lat="44.44131" lon="3.58309">
        <ele>1249</ele>
        <time>2022-05-27T08:10:42Z</time>
      </trkpt>
      <trkpt lat="44.4413" lon="3.58311">
        <ele>1249</ele>
        <time>2022-05-27T08:10:43Z</time>
      </trkpt>
      <trkpt lat="44.44129" lon="3.58312">
        <ele>1248</ele>
        <time>2022-05-27T08:10:44Z</time>
      </trkpt>
      <trkpt lat="44.44128" lon="3.58314">
        <ele>1248</ele>
        <time>2022-05-27T08:10:45Z</time>
      </trkpt>
      <trkpt lat="44.44127" lon="3.58315">
        <ele>1248</ele>
        <time>2022-05-27T08:10:46Z</time>
      </trkpt>
      <trkpt lat="44.44126" lon="3.58316">
        <ele>1248</ele>
        <time>2022-05-27T08:10:47Z</time>
      </trkpt>
      <trkpt lat="44.44125" lon="3.58318">
        <ele>1248</ele>
        <time>2022-05-27T08:10:48Z</time>
      </trkpt>
      <trkpt lat="44.44124" lon="3.58319">
        <ele>1248</ele>
        <time>2022-05-27T08:10:49Z</time>
      </trkpt>
      <trkpt lat="44.44123" lon="3.5832">
        <ele>1248</ele>
        <time>2022-05-27T08:10:50Z</time>
      </trkpt>
      <trkpt lat="44.44122" lon="3.58322">
        <ele>1248</ele>
        <time>2022-05-27T08:10:51Z</time>
      </trkpt>
      <trkpt lat="44.44121" lon="3.58323">
        <ele>1248</ele>
        <time>2022-05-27T08:10:52Z</time>
      </trkpt>
      <trkpt lat="44.4412" lon="3.58324">
        <ele>1248</ele>
        <time>2022-05-27T08:10:53Z</time>
      </trkpt>
      <trkpt lat="44.44119" lon="3.58325">
        <ele>1248</ele>
        <time>2022-05-27T08:10:54Z</time>
      </trkpt>
      <trkpt lat="44.44118" lon="3.58327">
        <ele>1248</ele>
        <time>2022-05-27T08:10:55Z</time>
      </trkpt>
      <trkpt lat="44.44117" lon="3.58328">
        <ele>1248</ele>
        <time>2022-05-27T08:10:56Z</time>
      </trkpt>
      <trkpt lat="44.44116" lon="3.58329">
        <ele>1248</ele>
        <time>2022-05-27T08:10:57Z</time>
      </trkpt>
      <trkpt lat="44.44115" lon="3.58331">
        <ele>1248</ele>
        <time>2022-05-27T08:10:58Z</time>
      </trkpt>
      <trkpt lat="44.44114" lon="3.58332">
        <ele>1248</ele>
        <time>2022-05-27T08:10:59Z</time>
      </trkpt>
      <trkpt lat="44.44114" lon="3.58333">
        <ele>1248</ele>
        <time>2022-05-27T08:11:00Z</time>
      </trkpt>
      <trkpt lat="44.44112" lon="3.58334">
        <ele>1247</ele>
        <time>2022-05-27T08:11:01Z</time>
      </trkpt>
      <trkpt lat="44.44112" lon="3.58335">
        <ele>1247</ele>
        <time>2022-05-27T08:11:02Z</time>
      </trkpt>
      <trkpt lat="44.44111" lon="3.58337">
        <ele>1247</ele>
        <time>2022-05-27T08:11:03Z</time>
      </trkpt>
      <trkpt lat="44.4411" lon="3.58338">
        <ele>1247</ele>
        <time>2022-05-27T08:11:04Z</time>
      </trkpt>
      <trkpt lat="44.44109" lon="3.58339">
        <ele>1247</ele>
        <time>2022-05-27T08:11:05Z</time>
      </trkpt>
      <trkpt lat="44.44107" lon="3.58341">
        <ele>1247</ele>
        <time>2022-05-27T08:11:06Z</time>
      </trkpt>
      <trkpt lat="44.44106" lon="3.58342">
        <ele>1247</ele>
        <time>2022-05-27T08:11:07Z</time>
      </trkpt>
      <trkpt lat="44.44106" lon="3.58343">
        <ele>1246</ele>
        <time>2022-05-27T08:11:08Z</time>
      </trkpt>
      <trkpt lat="44.44104" lon="3.58345">
        <ele>1246</ele>
        <time>2022-05-27T08:11:09Z</time>
      </trkpt>
      <trkpt lat="44.44103" lon="3.58346">
        <ele>1246</ele>
        <time>2022-05-27T08:11:10Z</time>
      </trkpt>
      <trkpt lat="44.44103" lon="3.58347">
        <ele>1246</ele>
        <time>2022-05-27T08:11:11Z</time>
      </trkpt>
      <trkpt lat="44.44101" lon="3.58348">
        <ele>1246</ele>
        <time>2022-05-27T08:11:12Z</time>
      </trkpt>
      <trkpt lat="44.441" lon="3.58349">
        <ele>1247</ele>
        <time>2022-05-27T08:11:13Z</time>
      </trkpt>
      <trkpt lat="44.44099" lon="3.5835">
        <ele>1247</ele>
        <time>2022-05-27T08:11:14Z</time>
      </trkpt>
      <trkpt lat="44.44098" lon="3.58351">
        <ele>1248</ele>
        <time>2022-05-27T08:11:15Z</time>
      </trkpt>
      <trkpt lat="44.44098" lon="3.58352">
        <ele>1248</ele>
        <time>2022-05-27T08:11:16Z</time>
      </trkpt>
      <trkpt lat="44.44096" lon="3.58352">
        <ele>1249</ele>
        <time>2022-05-27T08:11:17Z</time>
      </trkpt>
      <trkpt lat="44.44096" lon="3.58353">
        <ele>1249</ele>
        <time>2022-05-27T08:11:18Z</time>
      </trkpt>
      <trkpt lat="44.44095" lon="3.58355">
        <ele>1250</ele>
        <time>2022-05-27T08:11:19Z</time>
      </trkpt>
      <trkpt lat="44.44094" lon="3.58356">
        <ele>1250</ele>
        <time>2022-05-27T08:11:20Z</time>
      </trkpt>
      <trkpt lat="44.44093" lon="3.58356">
        <ele>1250</ele>
        <time>2022-05-27T08:11:21Z</time>
      </trkpt>
      <trkpt lat="44.44092" lon="3.58357">
        <ele>1251</ele>
        <time>2022-05-27T08:11:22Z</time>
      </trkpt>
      <trkpt lat="44.44091" lon="3.58358">
        <ele>1251</ele>
        <time>2022-05-27T08:11:23Z</time>
      </trkpt>
      <trkpt lat="44.4409" lon="3.5836">
        <ele>1251</ele>
        <time>2022-05-27T08:11:24Z</time>
      </trkpt>
      <trkpt lat="44.44089" lon="3.58361">
        <ele>1251</ele>
        <time>2022-05-27T08:11:25Z</time>
      </trkpt>
      <trkpt lat="44.44088" lon="3.58361">
        <ele>1251</ele>
        <time>2022-05-27T08:11:26Z</time>
      </trkpt>
      <trkpt lat="44.44087" lon="3.58363">
        <ele>1251</ele>
        <time>2022-05-27T08:11:27Z</time>
      </trkpt>
      <trkpt lat="44.44086" lon="3.58364">
        <ele>1252</ele>
        <time>2022-05-27T08:11:28Z</time>
      </trkpt>
      <trkpt lat="44.44085" lon="3.58365">
        <ele>1252</ele>
        <time>2022-05-27T08:11:29Z</time>
      </trkpt>
      <trkpt lat="44.44084" lon="3.58366">
        <ele>1252</ele>
        <time>2022-05-27T08:11:30Z</time>
      </trkpt>
      <trkpt lat="44.44083" lon="3.58368">
        <ele>1252</ele>
        <time>2022-05-27T08:11:31Z</time>
      </trkpt>
      <trkpt lat="44.44082" lon="3.58369">
        <ele>1252</ele>
        <time>2022-05-27T08:11:32Z</time>
      </trkpt>
      <trkpt lat="44.44082" lon="3.58371">
        <ele>1252</ele>
        <time>2022-05-27T08:11:33Z</time>
      </trkpt>
      <trkpt lat="44.4408" lon="3.58372">
        <ele>1252</ele>
        <time>2022-05-27T08:11:34Z</time>
      </trkpt>
      <trkpt lat="44.44079" lon="3.58373">
        <ele>1252</ele>
        <time>2022-05-27T08:11:35Z</time>
      </trkpt>
      <trkpt lat="44.44078" lon="3.58374">
        <ele>1252</ele>
        <time>2022-05-27T08:11:36Z</time>
      </trkpt>
      <trkpt lat="44.44077" lon="3.58375">
        <ele>1252</ele>
        <time>2022-05-27T08:11:37Z</time>
      </trkpt>
      <trkpt lat="44.44077" lon="3.58377">
        <ele>1252</ele>
        <time>2022-05-27T08:11:38Z</time>
      </trkpt>
      <trkpt lat="44.44076" lon="3.58378">
        <ele>1252</ele>
        <time>2022-05-27T08:11:39Z</time>
      </trkpt>
      <trkpt lat="44.44074" lon="3.58379">
        <ele>1251</ele>
        <time>2022-05-27T08:11:40Z</time>
      </trkpt>
      <trkpt lat="44.44074" lon="3.5838">
        <ele>1251</ele>
        <time>2022-05-27T08:11:41Z</time>
      </trkpt>
      <trkpt lat="44.44073" lon="3.58382">
        <ele>1251</ele>
        <time>2022-05-27T08:11:42Z</time>
      </trkpt>
      <trkpt lat="44.44072" lon="3.58383">
        <ele>1251</ele>
        <time>2022-05-27T08:11:43Z</time>
      </trkpt>
      <trkpt lat="44.4407" lon="3.58384">
        <ele>1251</ele>
        <time>2022-05-27T08:11:44Z</time>
      </trkpt>
      <trkpt lat="44.4407" lon="3.58385">
        <ele>1251</ele>
        <time>2022-05-27T08:11:45Z</time>
      </trkpt>
      <trkpt lat="44.44069" lon="3.58386">
        <ele>1251</ele>
        <time>2022-05-27T08:11:46Z</time>
      </trkpt>
      <trkpt lat="44.44068" lon="3.58388">
        <ele>1251</ele>
        <time>2022-05-27T08:11:47Z</time>
      </trkpt>
      <trkpt lat="44.44067" lon="3.58389">
        <ele>1251</ele>
        <time>2022-05-27T08:11:48Z</time>
      </trkpt>
      <trkpt lat="44.44066" lon="3.5839">
        <ele>1252</ele>
        <time>2022-05-27T08:11:49Z</time>
      </trkpt>
      <trkpt lat="44.44066" lon="3.58391">
        <ele>1252</ele>
        <time>2022-05-27T08:11:50Z</time>
      </trkpt>
      <trkpt lat="44.44064" lon="3.58393">
        <ele>1252</ele>
        <time>2022-05-27T08:11:51Z</time>
      </trkpt>
      <trkpt lat="44.44063" lon="3.58393">
        <ele>1253</ele>
        <time>2022-05-27T08:11:52Z</time>
      </trkpt>
      <trkpt lat="44.44062" lon="3.58394">
        <ele>1253</ele>
        <time>2022-05-27T08:11:53Z</time>
      </trkpt>
      <trkpt lat="44.44061" lon="3.58395">
        <ele>1253</ele>
        <time>2022-05-27T08:11:54Z</time>
      </trkpt>
      <trkpt lat="44.4406" lon="3.58397">
        <ele>1253</ele>
        <time>2022-05-27T08:11:55Z</time>
      </trkpt>
      <trkpt lat="44.44059" lon="3.58398">
        <ele>1253</ele>
        <time>2022-05-27T08:11:56Z</time>
      </trkpt>
      <trkpt lat="44.44058" lon="3.58399">
        <ele>1253</ele>
        <time>2022-05-27T08:11:57Z</time>
      </trkpt>
      <trkpt lat="44.44057" lon="3.584">
        <ele>1253</ele>
        <time>2022-05-27T08:11:58Z</time>
      </trkpt>
      <trkpt lat="44.44056" lon="3.58401">
        <ele>1253</ele>
        <time>2022-05-27T08:11:59Z</time>
      </trkpt>
      <trkpt lat="44.44054" lon="3.58402">
        <ele>1253</ele>
        <time>2022-05-27T08:12:00Z</time>
      </trkpt>
      <trkpt lat="44.44054" lon="3.58403">
        <ele>1253</ele>
        <time>2022-05-27T08:12:01Z</time>
      </trkpt>
      <trkpt lat="44.44053" lon="3.58404">
        <ele>1253</ele>
        <time>2022-05-27T08:12:02Z</time>
      </trkpt>
      <trkpt lat="44.44052" lon="3.58406">
        <ele>1253</ele>
        <time>2022-05-27T08:12:03Z</time>
      </trkpt>
      <trkpt lat="44.44051" lon="3.58407">
        <ele>1253</ele>
        <time>2022-05-27T08:12:04Z</time>
      </trkpt>
      <trkpt lat="44.44051" lon="3.58409">
        <ele>1252</ele>
        <time>2022-05-27T08:12:05Z</time>
      </trkpt>
      <trkpt lat="44.4405" lon="3.58411">
        <ele>1252</ele>
        <time>2022-05-27T08:12:06Z</time>
      </trkpt>
      <trkpt lat="44.4405" lon="3.58412">
        <ele>1252</ele>
        <time>2022-05-27T08:12:07Z</time>
      </trkpt>
      <trkpt lat="44.44049" lon="3.58413">
        <ele>1252</ele>
        <time>2022-05-27T08:12:08Z</time>
      </trkpt>
      <trkpt lat="44.44048" lon="3.58415">
        <ele>1252</ele>
        <time>2022-05-27T08:12:09Z</time>
      </trkpt>
      <trkpt lat="44.44048" lon="3.58417">
        <ele>1252</ele>
        <time>2022-05-27T08:12:10Z</time>
      </trkpt>
      <trkpt lat="44.44047" lon="3.58419">
        <ele>1252</ele>
        <time>2022-05-27T08:12:11Z</time>
      </trkpt>
      <trkpt lat="44.44046" lon="3.5842">
        <ele>1252</ele>
        <time>2022-05-27T08:12:12Z</time>
      </trkpt>
      <trkpt lat="44.44045" lon="3.58421">
        <ele>1252</ele>
        <time>2022-05-27T08:12:13Z</time>
      </trkpt>
      <trkpt lat="44.44045" lon="3.58423">
        <ele>1252</ele>
        <time>2022-05-27T08:12:14Z</time>
      </trkpt>
      <trkpt lat="44.44044" lon="3.58424">
        <ele>1252</ele>
        <time>2022-05-27T08:12:15Z</time>
      </trkpt>
      <trkpt lat="44.44043" lon="3.58426">
        <ele>1252</ele>
        <time>2022-05-27T08:12:16Z</time>
      </trkpt>
      <trkpt lat="44.44042" lon="3.58427">
        <ele>1253</ele>
        <time>2022-05-27T08:12:17Z</time>
      </trkpt>
      <trkpt lat="44.44041" lon="3.58429">
        <ele>1253</ele>
        <time>2022-05-27T08:12:18Z</time>
      </trkpt>
      <trkpt lat="44.44041" lon="3.5843">
        <ele>1253</ele>
        <time>2022-05-27T08:12:19Z</time>
      </trkpt>
      <trkpt lat="44.44041" lon="3.58432">
        <ele>1252</ele>
        <time>2022-05-27T08:12:20Z</time>
      </trkpt>
      <trkpt lat="44.44041" lon="3.58433">
        <ele>1253</ele>
        <time>2022-05-27T08:12:21Z</time>
      </trkpt>
      <trkpt lat="44.44041" lon="3.58435">
        <ele>1253</ele>
        <time>2022-05-27T08:12:22Z</time>
      </trkpt>
      <trkpt lat="44.4404" lon="3.58436">
        <ele>1253</ele>
        <time>2022-05-27T08:12:23Z</time>
      </trkpt>
      <trkpt lat="44.44039" lon="3.58438">
        <ele>1254</ele>
        <time>2022-05-27T08:12:24Z</time>
      </trkpt>
      <trkpt lat="44.44038" lon="3.58439">
        <ele>1254</ele>
        <time>2022-05-27T08:12:25Z</time>
      </trkpt>
      <trkpt lat="44.44038" lon="3.5844">
        <ele>1255</ele>
        <time>2022-05-27T08:12:26Z</time>
      </trkpt>
      <trkpt lat="44.44037" lon="3.58441">
        <ele>1255</ele>
        <time>2022-05-27T08:12:27Z</time>
      </trkpt>
      <trkpt lat="44.44037" lon="3.58443">
        <ele>1255</ele>
        <time>2022-05-27T08:12:28Z</time>
      </trkpt>
      <trkpt lat="44.44036" lon="3.58444">
        <ele>1254</ele>
        <time>2022-05-27T08:12:29Z</time>
      </trkpt>
      <trkpt lat="44.44036" lon="3.58446">
        <ele>1254</ele>
        <time>2022-05-27T08:12:30Z</time>
      </trkpt>
      <trkpt lat="44.44035" lon="3.58447">
        <ele>1254</ele>
        <time>2022-05-27T08:12:31Z</time>
      </trkpt>
      <trkpt lat="44.44035" lon="3.58448">
        <ele>1255</ele>
        <time>2022-05-27T08:12:32Z</time>
      </trkpt>
      <trkpt lat="44.44035" lon="3.58449">
        <ele>1255</ele>
        <time>2022-05-27T08:12:33Z</time>
      </trkpt>
      <trkpt lat="44.44034" lon="3.58451">
        <ele>1255</ele>
        <time>2022-05-27T08:12:34Z</time>
      </trkpt>
      <trkpt lat="44.44034" lon="3.58452">
        <ele>1255</ele>
        <time>2022-05-27T08:12:35Z</time>
      </trkpt>
      <trkpt lat="44.44033" lon="3.58453">
        <ele>1255</ele>
        <time>2022-05-27T08:12:36Z</time>
      </trkpt>
      <trkpt lat="44.44033" lon="3.58454">
        <ele>1256</ele>
        <time>2022-05-27T08:12:37Z</time>
      </trkpt>
      <trkpt lat="44.44033" lon="3.58455">
        <ele>1256</ele>
        <time>2022-05-27T08:12:38Z</time>
      </trkpt>
      <trkpt lat="44.44032" lon="3.58457">
        <ele>1257</ele>
        <time>2022-05-27T08:12:39Z</time>
      </trkpt>
      <trkpt lat="44.44032" lon="3.58458">
        <ele>1257</ele>
        <time>2022-05-27T08:12:40Z</time>
      </trkpt>
      <trkpt lat="44.44032" lon="3.58459">
        <ele>1258</ele>
        <time>2022-05-27T08:12:41Z</time>
      </trkpt>
      <trkpt lat="44.44032" lon="3.58461">
        <ele>1257</ele>
        <time>2022-05-27T08:12:42Z</time>
      </trkpt>
      <trkpt lat="44.44031" lon="3.58463">
        <ele>1257</ele>
        <time>2022-05-27T08:12:43Z</time>
      </trkpt>
      <trkpt lat="44.44031" lon="3.58465">
        <ele>1257</ele>
        <time>2022-05-27T08:12:44Z</time>
      </trkpt>
      <trkpt lat="44.44031" lon="3.58467">
        <ele>1257</ele>
        <time>2022-05-27T08:12:45Z</time>
      </trkpt>
      <trkpt lat="44.4403" lon="3.58469">
        <ele>1257</ele>
        <time>2022-05-27T08:12:46Z</time>
      </trkpt>
      <trkpt lat="44.4403" lon="3.5847">
        <ele>1257</ele>
        <time>2022-05-27T08:12:47Z</time>
      </trkpt>
      <trkpt lat="44.4403" lon="3.58471">
        <ele>1257</ele>
        <time>2022-05-27T08:12:48Z</time>
      </trkpt>
      <trkpt lat="44.44029" lon="3.58473">
        <ele>1256</ele>
        <time>2022-05-27T08:12:49Z</time>
      </trkpt>
      <trkpt lat="44.44029" lon="3.58473">
        <ele>1257</ele>
        <time>2022-05-27T08:12:50Z</time>
      </trkpt>
      <trkpt lat="44.44029" lon="3.58474">
        <ele>1257</ele>
        <time>2022-05-27T08:12:51Z</time>
      </trkpt>
      <trkpt lat="44.44029" lon="3.58474">
        <ele>1257</ele>
        <time>2022-05-27T08:12:52Z</time>
      </trkpt>
      <trkpt lat="44.44029" lon="3.58474">
        <ele>1257</ele>
        <time>2022-05-27T08:12:53Z</time>
      </trkpt>
      <trkpt lat="44.44029" lon="3.58476">
        <ele>1257</ele>
        <time>2022-05-27T08:12:54Z</time>
      </trkpt>
      <trkpt lat="44.44029" lon="3.58477">
        <ele>1258</ele>
        <time>2022-05-27T08:12:55Z</time>
      </trkpt>
      <trkpt lat="44.44029" lon="3.58478">
        <ele>1257</ele>
        <time>2022-05-27T08:12:56Z</time>
      </trkpt>
      <trkpt lat="44.44028" lon="3.58478">
        <ele>1258</ele>
        <time>2022-05-27T08:12:57Z</time>
      </trkpt>
      <trkpt lat="44.44028" lon="3.58478">
        <ele>1258</ele>
        <time>2022-05-27T08:12:58Z</time>
      </trkpt>
      <trkpt lat="44.44028" lon="3.58478">
        <ele>1258</ele>
        <time>2022-05-27T08:12:59Z</time>
      </trkpt>
      <trkpt lat="44.44028" lon="3.58478">
        <ele>1258</ele>
        <time>2022-05-27T08:13:00Z</time>
      </trkpt>
      <trkpt lat="44.44028" lon="3.58478">
        <ele>1258</ele>
        <time>2022-05-27T08:13:01Z</time>
      </trkpt>
      <trkpt lat="44.44028" lon="3.58478">
        <ele>1258</ele>
        <time>2022-05-27T08:13:02Z</time>
      </trkpt>
      <trkpt lat="44.44028" lon="3.58478">
        <ele>1258</ele>
        <time>2022-05-27T08:13:03Z</time>
      </trkpt>
      <trkpt lat="44.44026" lon="3.58481">
        <ele>1259</ele>
        <time>2022-05-27T08:13:04Z</time>
      </trkpt>
      <trkpt lat="44.44025" lon="3.58481">
        <ele>1259</ele>
        <time>2022-05-27T08:13:05Z</time>
      </trkpt>
      <trkpt lat="44.44024" lon="3.58481">
        <ele>1260</ele>
        <time>2022-05-27T08:13:06Z</time>
      </trkpt>
      <trkpt lat="44.44023" lon="3.58482">
        <ele>1260</ele>
        <time>2022-05-27T08:13:07Z</time>
      </trkpt>
      <trkpt lat="44.44023" lon="3.58482">
        <ele>1260</ele>
        <time>2022-05-27T08:13:08Z</time>
      </trkpt>
      <trkpt lat="44.44023" lon="3.58482">
        <ele>1260</ele>
        <time>2022-05-27T08:13:09Z</time>
      </trkpt>
      <trkpt lat="44.4402" lon="3.58484">
        <ele>1260</ele>
        <time>2022-05-27T08:13:10Z</time>
      </trkpt>
      <trkpt lat="44.44018" lon="3.58484">
        <ele>1260</ele>
        <time>2022-05-27T08:13:11Z</time>
      </trkpt>
      <trkpt lat="44.44017" lon="3.58485">
        <ele>1260</ele>
        <time>2022-05-27T08:13:12Z</time>
      </trkpt>
      <trkpt lat="44.44016" lon="3.58485">
        <ele>1260</ele>
        <time>2022-05-27T08:13:13Z</time>
      </trkpt>
      <trkpt lat="44.44015" lon="3.58485">
        <ele>1260</ele>
        <time>2022-05-27T08:13:14Z</time>
      </trkpt>
      <trkpt lat="44.44014" lon="3.58486">
        <ele>1260</ele>
        <time>2022-05-27T08:13:15Z</time>
      </trkpt>
      <trkpt lat="44.44014" lon="3.58486">
        <ele>1260</ele>
        <time>2022-05-27T08:13:16Z</time>
      </trkpt>
      <trkpt lat="44.44014" lon="3.58486">
        <ele>1260</ele>
        <time>2022-05-27T08:13:17Z</time>
      </trkpt>
      <trkpt lat="44.44011" lon="3.58488">
        <ele>1261</ele>
        <time>2022-05-27T08:13:18Z</time>
      </trkpt>
      <trkpt lat="44.44009" lon="3.58489">
        <ele>1261</ele>
        <time>2022-05-27T08:13:19Z</time>
      </trkpt>
      <trkpt lat="44.44008" lon="3.5849">
        <ele>1261</ele>
        <time>2022-05-27T08:13:20Z</time>
      </trkpt>
      <trkpt lat="44.44007" lon="3.5849">
        <ele>1260</ele>
        <time>2022-05-27T08:13:21Z</time>
      </trkpt>
      <trkpt lat="44.44007" lon="3.5849">
        <ele>1260</ele>
        <time>2022-05-27T08:13:22Z</time>
      </trkpt>
      <trkpt lat="44.44007" lon="3.5849">
        <ele>1260</ele>
        <time>2022-05-27T08:13:23Z</time>
      </trkpt>
      <trkpt lat="44.44004" lon="3.58491">
        <ele>1260</ele>
        <time>2022-05-27T08:13:24Z</time>
      </trkpt>
      <trkpt lat="44.44003" lon="3.58491">
        <ele>1260</ele>
        <time>2022-05-27T08:13:25Z</time>
      </trkpt>
      <trkpt lat="44.44002" lon="3.58492">
        <ele>1260</ele>
        <time>2022-05-27T08:13:26Z</time>
      </trkpt>
      <trkpt lat="44.44001" lon="3.58492">
        <ele>1260</ele>
        <time>2022-05-27T08:13:27Z</time>
      </trkpt>
      <trkpt lat="44.44001" lon="3.58492">
        <ele>1260</ele>
        <time>2022-05-27T08:13:28Z</time>
      </trkpt>
      <trkpt lat="44.44" lon="3.58493">
        <ele>1260</ele>
        <time>2022-05-27T08:13:29Z</time>
      </trkpt>
      <trkpt lat="44.43999" lon="3.58494">
        <ele>1260</ele>
        <time>2022-05-27T08:13:30Z</time>
      </trkpt>
      <trkpt lat="44.43998" lon="3.58494">
        <ele>1259</ele>
        <time>2022-05-27T08:13:31Z</time>
      </trkpt>
      <trkpt lat="44.43998" lon="3.58494">
        <ele>1259</ele>
        <time>2022-05-27T08:13:32Z</time>
      </trkpt>
      <trkpt lat="44.43998" lon="3.58494">
        <ele>1259</ele>
        <time>2022-05-27T08:13:33Z</time>
      </trkpt>
      <trkpt lat="44.43994" lon="3.58496">
        <ele>1258</ele>
        <time>2022-05-27T08:13:34Z</time>
      </trkpt>
      <trkpt lat="44.43993" lon="3.58498">
        <ele>1257</ele>
        <time>2022-05-27T08:13:35Z</time>
      </trkpt>
      <trkpt lat="44.43991" lon="3.58498">
        <ele>1257</ele>
        <time>2022-05-27T08:13:36Z</time>
      </trkpt>
      <trkpt lat="44.4399" lon="3.58499">
        <ele>1256</ele>
        <time>2022-05-27T08:13:37Z</time>
      </trkpt>
      <trkpt lat="44.43988" lon="3.58499">
        <ele>1257</ele>
        <time>2022-05-27T08:13:38Z</time>
      </trkpt>
      <trkpt lat="44.43987" lon="3.58499">
        <ele>1256</ele>
        <time>2022-05-27T08:13:39Z</time>
      </trkpt>
      <trkpt lat="44.43985" lon="3.58499">
        <ele>1257</ele>
        <time>2022-05-27T08:13:40Z</time>
      </trkpt>
      <trkpt lat="44.43984" lon="3.58499">
        <ele>1257</ele>
        <time>2022-05-27T08:13:41Z</time>
      </trkpt>
      <trkpt lat="44.43982" lon="3.58499">
        <ele>1257</ele>
        <time>2022-05-27T08:13:42Z</time>
      </trkpt>
      <trkpt lat="44.43981" lon="3.585">
        <ele>1257</ele>
        <time>2022-05-27T08:13:43Z</time>
      </trkpt>
      <trkpt lat="44.43981" lon="3.585">
        <ele>1257</ele>
        <time>2022-05-27T08:13:44Z</time>
      </trkpt>
      <trkpt lat="44.43977" lon="3.585">
        <ele>1256</ele>
        <time>2022-05-27T08:13:45Z</time>
      </trkpt>
      <trkpt lat="44.43976" lon="3.58501">
        <ele>1256</ele>
        <time>2022-05-27T08:13:46Z</time>
      </trkpt>
      <trkpt lat="44.43974" lon="3.58501">
        <ele>1256</ele>
        <time>2022-05-27T08:13:47Z</time>
      </trkpt>
      <trkpt lat="44.43973" lon="3.58501">
        <ele>1256</ele>
        <time>2022-05-27T08:13:48Z</time>
      </trkpt>
      <trkpt lat="44.43972" lon="3.58502">
        <ele>1256</ele>
        <time>2022-05-27T08:13:49Z</time>
      </trkpt>
      <trkpt lat="44.43971" lon="3.58502">
        <ele>1257</ele>
        <time>2022-05-27T08:13:50Z</time>
      </trkpt>
      <trkpt lat="44.43971" lon="3.58502">
        <ele>1257</ele>
        <time>2022-05-27T08:13:51Z</time>
      </trkpt>
      <trkpt lat="44.43971" lon="3.58502">
        <ele>1257</ele>
        <time>2022-05-27T08:13:52Z</time>
      </trkpt>
      <trkpt lat="44.43967" lon="3.58501">
        <ele>1258</ele>
        <time>2022-05-27T08:13:53Z</time>
      </trkpt>
      <trkpt lat="44.43966" lon="3.58501">
        <ele>1258</ele>
        <time>2022-05-27T08:13:54Z</time>
      </trkpt>
      <trkpt lat="44.43965" lon="3.58501">
        <ele>1258</ele>
        <time>2022-05-27T08:13:55Z</time>
      </trkpt>
      <trkpt lat="44.43964" lon="3.58502">
        <ele>1259</ele>
        <time>2022-05-27T08:13:56Z</time>
      </trkpt>
      <trkpt lat="44.43964" lon="3.58502">
        <ele>1259</ele>
        <time>2022-05-27T08:13:57Z</time>
      </trkpt>
      <trkpt lat="44.43964" lon="3.58502">
        <ele>1259</ele>
        <time>2022-05-27T08:13:58Z</time>
      </trkpt>
      <trkpt lat="44.43964" lon="3.58502">
        <ele>1259</ele>
        <time>2022-05-27T08:13:59Z</time>
      </trkpt>
      <trkpt lat="44.43964" lon="3.58502">
        <ele>1259</ele>
        <time>2022-05-27T08:14:00Z</time>
      </trkpt>
      <trkpt lat="44.43964" lon="3.58502">
        <ele>1259</ele>
        <time>2022-05-27T08:14:01Z</time>
      </trkpt>
      <trkpt lat="44.43962" lon="3.58502">
        <ele>1260</ele>
        <time>2022-05-27T08:14:02Z</time>
      </trkpt>
      <trkpt lat="44.4396" lon="3.58502">
        <ele>1260</ele>
        <time>2022-05-27T08:14:03Z</time>
      </trkpt>
      <trkpt lat="44.43959" lon="3.58502">
        <ele>1260</ele>
        <time>2022-05-27T08:14:04Z</time>
      </trkpt>
      <trkpt lat="44.43958" lon="3.58502">
        <ele>1259</ele>
        <time>2022-05-27T08:14:05Z</time>
      </trkpt>
      <trkpt lat="44.43956" lon="3.58503">
        <ele>1259</ele>
        <time>2022-05-27T08:14:06Z</time>
      </trkpt>
      <trkpt lat="44.43955" lon="3.58503">
        <ele>1258</ele>
        <time>2022-05-27T08:14:07Z</time>
      </trkpt>
      <trkpt lat="44.43953" lon="3.58504">
        <ele>1258</ele>
        <time>2022-05-27T08:14:08Z</time>
      </trkpt>
      <trkpt lat="44.43952" lon="3.58505">
        <ele>1258</ele>
        <time>2022-05-27T08:14:09Z</time>
      </trkpt>
      <trkpt lat="44.4395" lon="3.58506">
        <ele>1258</ele>
        <time>2022-05-27T08:14:10Z</time>
      </trkpt>
      <trkpt lat="44.43948" lon="3.58507">
        <ele>1258</ele>
        <time>2022-05-27T08:14:11Z</time>
      </trkpt>
      <trkpt lat="44.43947" lon="3.58508">
        <ele>1258</ele>
        <time>2022-05-27T08:14:12Z</time>
      </trkpt>
      <trkpt lat="44.43946" lon="3.58509">
        <ele>1258</ele>
        <time>2022-05-27T08:14:13Z</time>
      </trkpt>
      <trkpt lat="44.43944" lon="3.5851">
        <ele>1258</ele>
        <time>2022-05-27T08:14:14Z</time>
      </trkpt>
      <trkpt lat="44.43943" lon="3.58511">
        <ele>1258</ele>
        <time>2022-05-27T08:14:15Z</time>
      </trkpt>
      <trkpt lat="44.43942" lon="3.58511">
        <ele>1258</ele>
        <time>2022-05-27T08:14:16Z</time>
      </trkpt>
      <trkpt lat="44.4394" lon="3.58512">
        <ele>1258</ele>
        <time>2022-05-27T08:14:17Z</time>
      </trkpt>
      <trkpt lat="44.43939" lon="3.58513">
        <ele>1258</ele>
        <time>2022-05-27T08:14:18Z</time>
      </trkpt>
      <trkpt lat="44.43938" lon="3.58514">
        <ele>1258</ele>
        <time>2022-05-27T08:14:19Z</time>
      </trkpt>
      <trkpt lat="44.43937" lon="3.58515">
        <ele>1258</ele>
        <time>2022-05-27T08:14:20Z</time>
      </trkpt>
      <trkpt lat="44.43935" lon="3.58515">
        <ele>1258</ele>
        <time>2022-05-27T08:14:21Z</time>
      </trkpt>
      <trkpt lat="44.43934" lon="3.58516">
        <ele>1258</ele>
        <time>2022-05-27T08:14:22Z</time>
      </trkpt>
      <trkpt lat="44.43933" lon="3.58517">
        <ele>1258</ele>
        <time>2022-05-27T08:14:23Z</time>
      </trkpt>
      <trkpt lat="44.43931" lon="3.58517">
        <ele>1258</ele>
        <time>2022-05-27T08:14:24Z</time>
      </trkpt>
      <trkpt lat="44.4393" lon="3.58518">
        <ele>1258</ele>
        <time>2022-05-27T08:14:25Z</time>
      </trkpt>
      <trkpt lat="44.43929" lon="3.58519">
        <ele>1258</ele>
        <time>2022-05-27T08:14:26Z</time>
      </trkpt>
      <trkpt lat="44.43928" lon="3.5852">
        <ele>1258</ele>
        <time>2022-05-27T08:14:27Z</time>
      </trkpt>
      <trkpt lat="44.43926" lon="3.58521">
        <ele>1258</ele>
        <time>2022-05-27T08:14:28Z</time>
      </trkpt>
      <trkpt lat="44.43926" lon="3.58522">
        <ele>1258</ele>
        <time>2022-05-27T08:14:29Z</time>
      </trkpt>
      <trkpt lat="44.43925" lon="3.58522">
        <ele>1258</ele>
        <time>2022-05-27T08:14:30Z</time>
      </trkpt>
      <trkpt lat="44.43924" lon="3.58523">
        <ele>1258</ele>
        <time>2022-05-27T08:14:31Z</time>
      </trkpt>
      <trkpt lat="44.43923" lon="3.58524">
        <ele>1258</ele>
        <time>2022-05-27T08:14:32Z</time>
      </trkpt>
      <trkpt lat="44.43922" lon="3.58525">
        <ele>1258</ele>
        <time>2022-05-27T08:14:33Z</time>
      </trkpt>
      <trkpt lat="44.43921" lon="3.58525">
        <ele>1258</ele>
        <time>2022-05-27T08:14:34Z</time>
      </trkpt>
      <trkpt lat="44.43921" lon="3.58525">
        <ele>1258</ele>
        <time>2022-05-27T08:14:35Z</time>
      </trkpt>
      <trkpt lat="44.43919" lon="3.58525">
        <ele>1258</ele>
        <time>2022-05-27T08:14:36Z</time>
      </trkpt>
      <trkpt lat="44.43918" lon="3.58525">
        <ele>1258</ele>
        <time>2022-05-27T08:14:37Z</time>
      </trkpt>
      <trkpt lat="44.43917" lon="3.58525">
        <ele>1258</ele>
        <time>2022-05-27T08:14:38Z</time>
      </trkpt>
      <trkpt lat="44.43916" lon="3.58525">
        <ele>1257</ele>
        <time>2022-05-27T08:14:39Z</time>
      </trkpt>
      <trkpt lat="44.43914" lon="3.58526">
        <ele>1257</ele>
        <time>2022-05-27T08:14:40Z</time>
      </trkpt>
      <trkpt lat="44.43913" lon="3.58526">
        <ele>1257</ele>
        <time>2022-05-27T08:14:41Z</time>
      </trkpt>
      <trkpt lat="44.43912" lon="3.58527">
        <ele>1258</ele>
        <time>2022-05-27T08:14:42Z</time>
      </trkpt>
      <trkpt lat="44.4391" lon="3.58527">
        <ele>1258</ele>
        <time>2022-05-27T08:14:43Z</time>
      </trkpt>
      <trkpt lat="44.4391" lon="3.58527">
        <ele>1258</ele>
        <time>2022-05-27T08:14:44Z</time>
      </trkpt>
      <trkpt lat="44.43908" lon="3.58528">
        <ele>1258</ele>
        <time>2022-05-27T08:14:45Z</time>
      </trkpt>
      <trkpt lat="44.43907" lon="3.58528">
        <ele>1258</ele>
        <time>2022-05-27T08:14:46Z</time>
      </trkpt>
      <trkpt lat="44.43906" lon="3.58528">
        <ele>1259</ele>
        <time>2022-05-27T08:14:47Z</time>
      </trkpt>
      <trkpt lat="44.43905" lon="3.58528">
        <ele>1259</ele>
        <time>2022-05-27T08:14:48Z</time>
      </trkpt>
      <trkpt lat="44.43904" lon="3.58528">
        <ele>1261</ele>
        <time>2022-05-27T08:14:49Z</time>
      </trkpt>
      <trkpt lat="44.43903" lon="3.58529">
        <ele>1261</ele>
        <time>2022-05-27T08:14:50Z</time>
      </trkpt>
      <trkpt lat="44.43901" lon="3.58529">
        <ele>1261</ele>
        <time>2022-05-27T08:14:51Z</time>
      </trkpt>
      <trkpt lat="44.439" lon="3.58529">
        <ele>1261</ele>
        <time>2022-05-27T08:14:52Z</time>
      </trkpt>
      <trkpt lat="44.43898" lon="3.5853">
        <ele>1261</ele>
        <time>2022-05-27T08:14:53Z</time>
      </trkpt>
      <trkpt lat="44.43897" lon="3.5853">
        <ele>1260</ele>
        <time>2022-05-27T08:14:54Z</time>
      </trkpt>
      <trkpt lat="44.43896" lon="3.58531">
        <ele>1260</ele>
        <time>2022-05-27T08:14:55Z</time>
      </trkpt>
      <trkpt lat="44.43895" lon="3.58532">
        <ele>1260</ele>
        <time>2022-05-27T08:14:56Z</time>
      </trkpt>
      <trkpt lat="44.43894" lon="3.58533">
        <ele>1260</ele>
        <time>2022-05-27T08:14:57Z</time>
      </trkpt>
      <trkpt lat="44.43893" lon="3.58534">
        <ele>1260</ele>
        <time>2022-05-27T08:14:58Z</time>
      </trkpt>
      <trkpt lat="44.43891" lon="3.58534">
        <ele>1260</ele>
        <time>2022-05-27T08:14:59Z</time>
      </trkpt>
      <trkpt lat="44.4389" lon="3.58535">
        <ele>1260</ele>
        <time>2022-05-27T08:15:00Z</time>
      </trkpt>
      <trkpt lat="44.43888" lon="3.58536">
        <ele>1260</ele>
        <time>2022-05-27T08:15:01Z</time>
      </trkpt>
      <trkpt lat="44.43887" lon="3.58537">
        <ele>1259</ele>
        <time>2022-05-27T08:15:02Z</time>
      </trkpt>
      <trkpt lat="44.43886" lon="3.58538">
        <ele>1260</ele>
        <time>2022-05-27T08:15:03Z</time>
      </trkpt>
      <trkpt lat="44.43885" lon="3.58539">
        <ele>1259</ele>
        <time>2022-05-27T08:15:04Z</time>
      </trkpt>
      <trkpt lat="44.43884" lon="3.58539">
        <ele>1259</ele>
        <time>2022-05-27T08:15:05Z</time>
      </trkpt>
      <trkpt lat="44.43883" lon="3.5854">
        <ele>1259</ele>
        <time>2022-05-27T08:15:06Z</time>
      </trkpt>
      <trkpt lat="44.43882" lon="3.5854">
        <ele>1260</ele>
        <time>2022-05-27T08:15:07Z</time>
      </trkpt>
      <trkpt lat="44.43882" lon="3.58541">
        <ele>1260</ele>
        <time>2022-05-27T08:15:08Z</time>
      </trkpt>
      <trkpt lat="44.43881" lon="3.58542">
        <ele>1260</ele>
        <time>2022-05-27T08:15:09Z</time>
      </trkpt>
      <trkpt lat="44.4388" lon="3.58542">
        <ele>1260</ele>
        <time>2022-05-27T08:15:10Z</time>
      </trkpt>
      <trkpt lat="44.43879" lon="3.58542">
        <ele>1260</ele>
        <time>2022-05-27T08:15:11Z</time>
      </trkpt>
      <trkpt lat="44.43877" lon="3.58543">
        <ele>1260</ele>
        <time>2022-05-27T08:15:12Z</time>
      </trkpt>
      <trkpt lat="44.43876" lon="3.58544">
        <ele>1260</ele>
        <time>2022-05-27T08:15:13Z</time>
      </trkpt>
      <trkpt lat="44.43875" lon="3.58545">
        <ele>1260</ele>
        <time>2022-05-27T08:15:14Z</time>
      </trkpt>
      <trkpt lat="44.43874" lon="3.58545">
        <ele>1260</ele>
        <time>2022-05-27T08:15:15Z</time>
      </trkpt>
      <trkpt lat="44.43873" lon="3.58546">
        <ele>1260</ele>
        <time>2022-05-27T08:15:16Z</time>
      </trkpt>
      <trkpt lat="44.43873" lon="3.58547">
        <ele>1260</ele>
        <time>2022-05-27T08:15:17Z</time>
      </trkpt>
      <trkpt lat="44.43872" lon="3.58548">
        <ele>1260</ele>
        <time>2022-05-27T08:15:18Z</time>
      </trkpt>
      <trkpt lat="44.43871" lon="3.58549">
        <ele>1260</ele>
        <time>2022-05-27T08:15:19Z</time>
      </trkpt>
      <trkpt lat="44.4387" lon="3.5855">
        <ele>1260</ele>
        <time>2022-05-27T08:15:20Z</time>
      </trkpt>
      <trkpt lat="44.43869" lon="3.5855">
        <ele>1260</ele>
        <time>2022-05-27T08:15:21Z</time>
      </trkpt>
      <trkpt lat="44.43868" lon="3.58551">
        <ele>1259</ele>
        <time>2022-05-27T08:15:22Z</time>
      </trkpt>
      <trkpt lat="44.43866" lon="3.58552">
        <ele>1259</ele>
        <time>2022-05-27T08:15:23Z</time>
      </trkpt>
      <trkpt lat="44.43865" lon="3.58554">
        <ele>1258</ele>
        <time>2022-05-27T08:15:24Z</time>
      </trkpt>
      <trkpt lat="44.43864" lon="3.58555">
        <ele>1258</ele>
        <time>2022-05-27T08:15:25Z</time>
      </trkpt>
      <trkpt lat="44.43863" lon="3.58556">
        <ele>1258</ele>
        <time>2022-05-27T08:15:26Z</time>
      </trkpt>
      <trkpt lat="44.43861" lon="3.58557">
        <ele>1258</ele>
        <time>2022-05-27T08:15:27Z</time>
      </trkpt>
      <trkpt lat="44.4386" lon="3.58558">
        <ele>1257</ele>
        <time>2022-05-27T08:15:28Z</time>
      </trkpt>
      <trkpt lat="44.4386" lon="3.58558">
        <ele>1257</ele>
        <time>2022-05-27T08:15:29Z</time>
      </trkpt>
      <trkpt lat="44.43859" lon="3.58559">
        <ele>1257</ele>
        <time>2022-05-27T08:15:30Z</time>
      </trkpt>
      <trkpt lat="44.43857" lon="3.5856">
        <ele>1257</ele>
        <time>2022-05-27T08:15:31Z</time>
      </trkpt>
      <trkpt lat="44.43856" lon="3.58561">
        <ele>1258</ele>
        <time>2022-05-27T08:15:32Z</time>
      </trkpt>
      <trkpt lat="44.43855" lon="3.58562">
        <ele>1258</ele>
        <time>2022-05-27T08:15:33Z</time>
      </trkpt>
      <trkpt lat="44.43855" lon="3.58562">
        <ele>1259</ele>
        <time>2022-05-27T08:15:34Z</time>
      </trkpt>
      <trkpt lat="44.43855" lon="3.58562">
        <ele>1260</ele>
        <time>2022-05-27T08:15:35Z</time>
      </trkpt>
      <trkpt lat="44.43854" lon="3.58562">
        <ele>1261</ele>
        <time>2022-05-27T08:15:36Z</time>
      </trkpt>
      <trkpt lat="44.43853" lon="3.58564">
        <ele>1261</ele>
        <time>2022-05-27T08:15:37Z</time>
      </trkpt>
      <trkpt lat="44.43852" lon="3.58565">
        <ele>1261</ele>
        <time>2022-05-27T08:15:38Z</time>
      </trkpt>
      <trkpt lat="44.4385" lon="3.58566">
        <ele>1261</ele>
        <time>2022-05-27T08:15:39Z</time>
      </trkpt>
      <trkpt lat="44.4385" lon="3.58567">
        <ele>1260</ele>
        <time>2022-05-27T08:15:40Z</time>
      </trkpt>
      <trkpt lat="44.43848" lon="3.58569">
        <ele>1259</ele>
        <time>2022-05-27T08:15:41Z</time>
      </trkpt>
      <trkpt lat="44.43847" lon="3.5857">
        <ele>1259</ele>
        <time>2022-05-27T08:15:42Z</time>
      </trkpt>
      <trkpt lat="44.43845" lon="3.58572">
        <ele>1259</ele>
        <time>2022-05-27T08:15:43Z</time>
      </trkpt>
      <trkpt lat="44.43844" lon="3.58573">
        <ele>1260</ele>
        <time>2022-05-27T08:15:44Z</time>
      </trkpt>
      <trkpt lat="44.43842" lon="3.58574">
        <ele>1260</ele>
        <time>2022-05-27T08:15:45Z</time>
      </trkpt>
      <trkpt lat="44.43841" lon="3.58575">
        <ele>1260</ele>
        <time>2022-05-27T08:15:46Z</time>
      </trkpt>
      <trkpt lat="44.4384" lon="3.58576">
        <ele>1259</ele>
        <time>2022-05-27T08:15:47Z</time>
      </trkpt>
      <trkpt lat="44.43839" lon="3.58577">
        <ele>1260</ele>
        <time>2022-05-27T08:15:48Z</time>
      </trkpt>
      <trkpt lat="44.43839" lon="3.58578">
        <ele>1260</ele>
        <time>2022-05-27T08:15:49Z</time>
      </trkpt>
      <trkpt lat="44.43837" lon="3.58579">
        <ele>1260</ele>
        <time>2022-05-27T08:15:50Z</time>
      </trkpt>
      <trkpt lat="44.43836" lon="3.5858">
        <ele>1259</ele>
        <time>2022-05-27T08:15:51Z</time>
      </trkpt>
      <trkpt lat="44.43835" lon="3.58581">
        <ele>1259</ele>
        <time>2022-05-27T08:15:52Z</time>
      </trkpt>
      <trkpt lat="44.43834" lon="3.58582">
        <ele>1259</ele>
        <time>2022-05-27T08:15:53Z</time>
      </trkpt>
      <trkpt lat="44.43832" lon="3.58583">
        <ele>1259</ele>
        <time>2022-05-27T08:15:54Z</time>
      </trkpt>
      <trkpt lat="44.43832" lon="3.58583">
        <ele>1259</ele>
        <time>2022-05-27T08:15:55Z</time>
      </trkpt>
      <trkpt lat="44.43831" lon="3.58584">
        <ele>1260</ele>
        <time>2022-05-27T08:15:56Z</time>
      </trkpt>
      <trkpt lat="44.4383" lon="3.58585">
        <ele>1260</ele>
        <time>2022-05-27T08:15:57Z</time>
      </trkpt>
      <trkpt lat="44.43829" lon="3.58586">
        <ele>1260</ele>
        <time>2022-05-27T08:15:58Z</time>
      </trkpt>
      <trkpt lat="44.43828" lon="3.58586">
        <ele>1259</ele>
        <time>2022-05-27T08:15:59Z</time>
      </trkpt>
      <trkpt lat="44.43827" lon="3.58587">
        <ele>1259</ele>
        <time>2022-05-27T08:16:00Z</time>
      </trkpt>
      <trkpt lat="44.43826" lon="3.58588">
        <ele>1259</ele>
        <time>2022-05-27T08:16:01Z</time>
      </trkpt>
      <trkpt lat="44.43825" lon="3.58589">
        <ele>1259</ele>
        <time>2022-05-27T08:16:02Z</time>
      </trkpt>
      <trkpt lat="44.43824" lon="3.5859">
        <ele>1260</ele>
        <time>2022-05-27T08:16:03Z</time>
      </trkpt>
      <trkpt lat="44.43823" lon="3.58591">
        <ele>1260</ele>
        <time>2022-05-27T08:16:04Z</time>
      </trkpt>
      <trkpt lat="44.43823" lon="3.58591">
        <ele>1260</ele>
        <time>2022-05-27T08:16:05Z</time>
      </trkpt>
      <trkpt lat="44.43822" lon="3.58592">
        <ele>1261</ele>
        <time>2022-05-27T08:16:06Z</time>
      </trkpt>
      <trkpt lat="44.43821" lon="3.58593">
        <ele>1260</ele>
        <time>2022-05-27T08:16:07Z</time>
      </trkpt>
      <trkpt lat="44.43821" lon="3.58595">
        <ele>1260</ele>
        <time>2022-05-27T08:16:08Z</time>
      </trkpt>
      <trkpt lat="44.4382" lon="3.58595">
        <ele>1260</ele>
        <time>2022-05-27T08:16:09Z</time>
      </trkpt>
      <trkpt lat="44.43819" lon="3.58596">
        <ele>1260</ele>
        <time>2022-05-27T08:16:10Z</time>
      </trkpt>
      <trkpt lat="44.43818" lon="3.58597">
        <ele>1260</ele>
        <time>2022-05-27T08:16:11Z</time>
      </trkpt>
      <trkpt lat="44.43816" lon="3.58599">
        <ele>1260</ele>
        <time>2022-05-27T08:16:12Z</time>
      </trkpt>
      <trkpt lat="44.43816" lon="3.586">
        <ele>1261</ele>
        <time>2022-05-27T08:16:13Z</time>
      </trkpt>
      <trkpt lat="44.43815" lon="3.58601">
        <ele>1261</ele>
        <time>2022-05-27T08:16:14Z</time>
      </trkpt>
      <trkpt lat="44.43814" lon="3.58602">
        <ele>1262</ele>
        <time>2022-05-27T08:16:15Z</time>
      </trkpt>
      <trkpt lat="44.43813" lon="3.58603">
        <ele>1262</ele>
        <time>2022-05-27T08:16:16Z</time>
      </trkpt>
      <trkpt lat="44.43812" lon="3.58604">
        <ele>1263</ele>
        <time>2022-05-27T08:16:17Z</time>
      </trkpt>
      <trkpt lat="44.4381" lon="3.58605">
        <ele>1263</ele>
        <time>2022-05-27T08:16:18Z</time>
      </trkpt>
      <trkpt lat="44.4381" lon="3.58605">
        <ele>1263</ele>
        <time>2022-05-27T08:16:19Z</time>
      </trkpt>
      <trkpt lat="44.43808" lon="3.58606">
        <ele>1263</ele>
        <time>2022-05-27T08:16:20Z</time>
      </trkpt>
      <trkpt lat="44.43807" lon="3.58607">
        <ele>1262</ele>
        <time>2022-05-27T08:16:21Z</time>
      </trkpt>
      <trkpt lat="44.43806" lon="3.58608">
        <ele>1262</ele>
        <time>2022-05-27T08:16:22Z</time>
      </trkpt>
      <trkpt lat="44.43805" lon="3.58608">
        <ele>1262</ele>
        <time>2022-05-27T08:16:23Z</time>
      </trkpt>
      <trkpt lat="44.43805" lon="3.5861">
        <ele>1262</ele>
        <time>2022-05-27T08:16:24Z</time>
      </trkpt>
      <trkpt lat="44.43804" lon="3.58611">
        <ele>1262</ele>
        <time>2022-05-27T08:16:25Z</time>
      </trkpt>
      <trkpt lat="44.43803" lon="3.58612">
        <ele>1262</ele>
        <time>2022-05-27T08:16:26Z</time>
      </trkpt>
      <trkpt lat="44.43803" lon="3.58613">
        <ele>1262</ele>
        <time>2022-05-27T08:16:27Z</time>
      </trkpt>
      <trkpt lat="44.43801" lon="3.58615">
        <ele>1263</ele>
        <time>2022-05-27T08:16:28Z</time>
      </trkpt>
      <trkpt lat="44.438" lon="3.58616">
        <ele>1263</ele>
        <time>2022-05-27T08:16:29Z</time>
      </trkpt>
      <trkpt lat="44.43798" lon="3.58617">
        <ele>1264</ele>
        <time>2022-05-27T08:16:30Z</time>
      </trkpt>
      <trkpt lat="44.43797" lon="3.58618">
        <ele>1264</ele>
        <time>2022-05-27T08:16:31Z</time>
      </trkpt>
      <trkpt lat="44.43797" lon="3.58619">
        <ele>1265</ele>
        <time>2022-05-27T08:16:32Z</time>
      </trkpt>
      <trkpt lat="44.43796" lon="3.5862">
        <ele>1265</ele>
        <time>2022-05-27T08:16:33Z</time>
      </trkpt>
      <trkpt lat="44.43795" lon="3.58622">
        <ele>1265</ele>
        <time>2022-05-27T08:16:34Z</time>
      </trkpt>
      <trkpt lat="44.43795" lon="3.58623">
        <ele>1265</ele>
        <time>2022-05-27T08:16:35Z</time>
      </trkpt>
      <trkpt lat="44.43794" lon="3.58624">
        <ele>1265</ele>
        <time>2022-05-27T08:16:36Z</time>
      </trkpt>
      <trkpt lat="44.43794" lon="3.58625">
        <ele>1265</ele>
        <time>2022-05-27T08:16:37Z</time>
      </trkpt>
      <trkpt lat="44.43793" lon="3.58627">
        <ele>1265</ele>
        <time>2022-05-27T08:16:38Z</time>
      </trkpt>
      <trkpt lat="44.43792" lon="3.58628">
        <ele>1266</ele>
        <time>2022-05-27T08:16:39Z</time>
      </trkpt>
      <trkpt lat="44.43791" lon="3.58629">
        <ele>1266</ele>
        <time>2022-05-27T08:16:40Z</time>
      </trkpt>
      <trkpt lat="44.4379" lon="3.5863">
        <ele>1266</ele>
        <time>2022-05-27T08:16:41Z</time>
      </trkpt>
      <trkpt lat="44.43789" lon="3.58631">
        <ele>1266</ele>
        <time>2022-05-27T08:16:42Z</time>
      </trkpt>
      <trkpt lat="44.43789" lon="3.58631">
        <ele>1266</ele>
        <time>2022-05-27T08:16:43Z</time>
      </trkpt>
      <trkpt lat="44.43788" lon="3.58632">
        <ele>1266</ele>
        <time>2022-05-27T08:16:44Z</time>
      </trkpt>
      <trkpt lat="44.43787" lon="3.58633">
        <ele>1266</ele>
        <time>2022-05-27T08:16:45Z</time>
      </trkpt>
      <trkpt lat="44.43786" lon="3.58634">
        <ele>1266</ele>
        <time>2022-05-27T08:16:46Z</time>
      </trkpt>
      <trkpt lat="44.43785" lon="3.58635">
        <ele>1266</ele>
        <time>2022-05-27T08:16:47Z</time>
      </trkpt>
      <trkpt lat="44.43784" lon="3.58636">
        <ele>1266</ele>
        <time>2022-05-27T08:16:48Z</time>
      </trkpt>
      <trkpt lat="44.43784" lon="3.58637">
        <ele>1266</ele>
        <time>2022-05-27T08:16:49Z</time>
      </trkpt>
      <trkpt lat="44.43782" lon="3.58638">
        <ele>1266</ele>
        <time>2022-05-27T08:16:50Z</time>
      </trkpt>
      <trkpt lat="44.43781" lon="3.58638">
        <ele>1266</ele>
        <time>2022-05-27T08:16:51Z</time>
      </trkpt>
      <trkpt lat="44.4378" lon="3.58639">
        <ele>1266</ele>
        <time>2022-05-27T08:16:52Z</time>
      </trkpt>
      <trkpt lat="44.43779" lon="3.5864">
        <ele>1266</ele>
        <time>2022-05-27T08:16:53Z</time>
      </trkpt>
      <trkpt lat="44.43778" lon="3.58641">
        <ele>1266</ele>
        <time>2022-05-27T08:16:54Z</time>
      </trkpt>
      <trkpt lat="44.43777" lon="3.58642">
        <ele>1267</ele>
        <time>2022-05-27T08:16:55Z</time>
      </trkpt>
      <trkpt lat="44.43776" lon="3.58644">
        <ele>1267</ele>
        <time>2022-05-27T08:16:56Z</time>
      </trkpt>
      <trkpt lat="44.43775" lon="3.58645">
        <ele>1267</ele>
        <time>2022-05-27T08:16:57Z</time>
      </trkpt>
      <trkpt lat="44.43774" lon="3.58646">
        <ele>1267</ele>
        <time>2022-05-27T08:16:58Z</time>
      </trkpt>
      <trkpt lat="44.43773" lon="3.58647">
        <ele>1267</ele>
        <time>2022-05-27T08:16:59Z</time>
      </trkpt>
      <trkpt lat="44.43772" lon="3.58648">
        <ele>1267</ele>
        <time>2022-05-27T08:17:00Z</time>
      </trkpt>
      <trkpt lat="44.43771" lon="3.58649">
        <ele>1267</ele>
        <time>2022-05-27T08:17:01Z</time>
      </trkpt>
      <trkpt lat="44.4377" lon="3.5865">
        <ele>1267</ele>
        <time>2022-05-27T08:17:02Z</time>
      </trkpt>
      <trkpt lat="44.43769" lon="3.5865">
        <ele>1267</ele>
        <time>2022-05-27T08:17:03Z</time>
      </trkpt>
      <trkpt lat="44.43768" lon="3.58651">
        <ele>1267</ele>
        <time>2022-05-27T08:17:04Z</time>
      </trkpt>
      <trkpt lat="44.43767" lon="3.58652">
        <ele>1267</ele>
        <time>2022-05-27T08:17:05Z</time>
      </trkpt>
      <trkpt lat="44.43766" lon="3.58653">
        <ele>1267</ele>
        <time>2022-05-27T08:17:06Z</time>
      </trkpt>
      <trkpt lat="44.43765" lon="3.58654">
        <ele>1267</ele>
        <time>2022-05-27T08:17:07Z</time>
      </trkpt>
      <trkpt lat="44.43764" lon="3.58655">
        <ele>1267</ele>
        <time>2022-05-27T08:17:08Z</time>
      </trkpt>
      <trkpt lat="44.43763" lon="3.58656">
        <ele>1268</ele>
        <time>2022-05-27T08:17:09Z</time>
      </trkpt>
      <trkpt lat="44.43762" lon="3.58657">
        <ele>1267</ele>
        <time>2022-05-27T08:17:10Z</time>
      </trkpt>
      <trkpt lat="44.43761" lon="3.58659">
        <ele>1267</ele>
        <time>2022-05-27T08:17:11Z</time>
      </trkpt>
      <trkpt lat="44.4376" lon="3.5866">
        <ele>1268</ele>
        <time>2022-05-27T08:17:12Z</time>
      </trkpt>
      <trkpt lat="44.43759" lon="3.58661">
        <ele>1267</ele>
        <time>2022-05-27T08:17:13Z</time>
      </trkpt>
      <trkpt lat="44.43758" lon="3.58662">
        <ele>1267</ele>
        <time>2022-05-27T08:17:14Z</time>
      </trkpt>
      <trkpt lat="44.43757" lon="3.58663">
        <ele>1267</ele>
        <time>2022-05-27T08:17:15Z</time>
      </trkpt>
      <trkpt lat="44.43756" lon="3.58664">
        <ele>1267</ele>
        <time>2022-05-27T08:17:16Z</time>
      </trkpt>
      <trkpt lat="44.43755" lon="3.58665">
        <ele>1267</ele>
        <time>2022-05-27T08:17:17Z</time>
      </trkpt>
      <trkpt lat="44.43754" lon="3.58665">
        <ele>1267</ele>
        <time>2022-05-27T08:17:18Z</time>
      </trkpt>
      <trkpt lat="44.43752" lon="3.58666">
        <ele>1267</ele>
        <time>2022-05-27T08:17:19Z</time>
      </trkpt>
      <trkpt lat="44.43752" lon="3.58667">
        <ele>1267</ele>
        <time>2022-05-27T08:17:20Z</time>
      </trkpt>
      <trkpt lat="44.4375" lon="3.58667">
        <ele>1267</ele>
        <time>2022-05-27T08:17:21Z</time>
      </trkpt>
      <trkpt lat="44.4375" lon="3.58668">
        <ele>1267</ele>
        <time>2022-05-27T08:17:22Z</time>
      </trkpt>
      <trkpt lat="44.43749" lon="3.58669">
        <ele>1268</ele>
        <time>2022-05-27T08:17:23Z</time>
      </trkpt>
      <trkpt lat="44.43747" lon="3.5867">
        <ele>1268</ele>
        <time>2022-05-27T08:17:24Z</time>
      </trkpt>
      <trkpt lat="44.43746" lon="3.58672">
        <ele>1268</ele>
        <time>2022-05-27T08:17:25Z</time>
      </trkpt>
      <trkpt lat="44.43745" lon="3.58672">
        <ele>1268</ele>
        <time>2022-05-27T08:17:26Z</time>
      </trkpt>
      <trkpt lat="44.43744" lon="3.58673">
        <ele>1268</ele>
        <time>2022-05-27T08:17:27Z</time>
      </trkpt>
      <trkpt lat="44.43743" lon="3.58673">
        <ele>1268</ele>
        <time>2022-05-27T08:17:28Z</time>
      </trkpt>
      <trkpt lat="44.43741" lon="3.58675">
        <ele>1268</ele>
        <time>2022-05-27T08:17:29Z</time>
      </trkpt>
      <trkpt lat="44.43741" lon="3.58676">
        <ele>1268</ele>
        <time>2022-05-27T08:17:30Z</time>
      </trkpt>
      <trkpt lat="44.43739" lon="3.58677">
        <ele>1268</ele>
        <time>2022-05-27T08:17:31Z</time>
      </trkpt>
      <trkpt lat="44.43738" lon="3.58678">
        <ele>1268</ele>
        <time>2022-05-27T08:17:32Z</time>
      </trkpt>
      <trkpt lat="44.43737" lon="3.58679">
        <ele>1267</ele>
        <time>2022-05-27T08:17:33Z</time>
      </trkpt>
      <trkpt lat="44.43736" lon="3.58679">
        <ele>1267</ele>
        <time>2022-05-27T08:17:34Z</time>
      </trkpt>
      <trkpt lat="44.43734" lon="3.58681">
        <ele>1267</ele>
        <time>2022-05-27T08:17:35Z</time>
      </trkpt>
      <trkpt lat="44.43733" lon="3.58682">
        <ele>1267</ele>
        <time>2022-05-27T08:17:36Z</time>
      </trkpt>
      <trkpt lat="44.43732" lon="3.58682">
        <ele>1267</ele>
        <time>2022-05-27T08:17:37Z</time>
      </trkpt>
      <trkpt lat="44.43731" lon="3.58683">
        <ele>1267</ele>
        <time>2022-05-27T08:17:38Z</time>
      </trkpt>
      <trkpt lat="44.43729" lon="3.58684">
        <ele>1267</ele>
        <time>2022-05-27T08:17:39Z</time>
      </trkpt>
      <trkpt lat="44.43728" lon="3.58685">
        <ele>1267</ele>
        <time>2022-05-27T08:17:40Z</time>
      </trkpt>
      <trkpt lat="44.43727" lon="3.58686">
        <ele>1267</ele>
        <time>2022-05-27T08:17:41Z</time>
      </trkpt>
      <trkpt lat="44.43726" lon="3.58687">
        <ele>1267</ele>
        <time>2022-05-27T08:17:42Z</time>
      </trkpt>
      <trkpt lat="44.43724" lon="3.58687">
        <ele>1268</ele>
        <time>2022-05-27T08:17:43Z</time>
      </trkpt>
      <trkpt lat="44.43723" lon="3.58688">
        <ele>1267</ele>
        <time>2022-05-27T08:17:44Z</time>
      </trkpt>
      <trkpt lat="44.43722" lon="3.58689">
        <ele>1267</ele>
        <time>2022-05-27T08:17:45Z</time>
      </trkpt>
      <trkpt lat="44.43721" lon="3.58689">
        <ele>1267</ele>
        <time>2022-05-27T08:17:46Z</time>
      </trkpt>
      <trkpt lat="44.4372" lon="3.5869">
        <ele>1267</ele>
        <time>2022-05-27T08:17:47Z</time>
      </trkpt>
      <trkpt lat="44.43719" lon="3.58691">
        <ele>1268</ele>
        <time>2022-05-27T08:17:48Z</time>
      </trkpt>
      <trkpt lat="44.43718" lon="3.58692">
        <ele>1267</ele>
        <time>2022-05-27T08:17:49Z</time>
      </trkpt>
      <trkpt lat="44.43716" lon="3.58692">
        <ele>1268</ele>
        <time>2022-05-27T08:17:50Z</time>
      </trkpt>
      <trkpt lat="44.43715" lon="3.58693">
        <ele>1268</ele>
        <time>2022-05-27T08:17:51Z</time>
      </trkpt>
      <trkpt lat="44.43714" lon="3.58694">
        <ele>1268</ele>
        <time>2022-05-27T08:17:52Z</time>
      </trkpt>
      <trkpt lat="44.43713" lon="3.58694">
        <ele>1268</ele>
        <time>2022-05-27T08:17:53Z</time>
      </trkpt>
      <trkpt lat="44.43711" lon="3.58696">
        <ele>1268</ele>
        <time>2022-05-27T08:17:54Z</time>
      </trkpt>
      <trkpt lat="44.4371" lon="3.58697">
        <ele>1268</ele>
        <time>2022-05-27T08:17:55Z</time>
      </trkpt>
      <trkpt lat="44.43709" lon="3.58697">
        <ele>1268</ele>
        <time>2022-05-27T08:17:56Z</time>
      </trkpt>
      <trkpt lat="44.43708" lon="3.58698">
        <ele>1268</ele>
        <time>2022-05-27T08:17:57Z</time>
      </trkpt>
      <trkpt lat="44.43707" lon="3.58699">
        <ele>1268</ele>
        <time>2022-05-27T08:17:58Z</time>
      </trkpt>
      <trkpt lat="44.43705" lon="3.587">
        <ele>1268</ele>
        <time>2022-05-27T08:17:59Z</time>
      </trkpt>
      <trkpt lat="44.43704" lon="3.587">
        <ele>1268</ele>
        <time>2022-05-27T08:18:00Z</time>
      </trkpt>
      <trkpt lat="44.43702" lon="3.58701">
        <ele>1268</ele>
        <time>2022-05-27T08:18:01Z</time>
      </trkpt>
      <trkpt lat="44.43701" lon="3.58702">
        <ele>1268</ele>
        <time>2022-05-27T08:18:02Z</time>
      </trkpt>
      <trkpt lat="44.437" lon="3.58703">
        <ele>1268</ele>
        <time>2022-05-27T08:18:03Z</time>
      </trkpt>
      <trkpt lat="44.43699" lon="3.58704">
        <ele>1268</ele>
        <time>2022-05-27T08:18:04Z</time>
      </trkpt>
      <trkpt lat="44.43697" lon="3.58704">
        <ele>1268</ele>
        <time>2022-05-27T08:18:05Z</time>
      </trkpt>
      <trkpt lat="44.43697" lon="3.58705">
        <ele>1268</ele>
        <time>2022-05-27T08:18:06Z</time>
      </trkpt>
      <trkpt lat="44.43695" lon="3.58706">
        <ele>1269</ele>
        <time>2022-05-27T08:18:07Z</time>
      </trkpt>
      <trkpt lat="44.43694" lon="3.58707">
        <ele>1269</ele>
        <time>2022-05-27T08:18:08Z</time>
      </trkpt>
      <trkpt lat="44.43693" lon="3.58708">
        <ele>1268</ele>
        <time>2022-05-27T08:18:09Z</time>
      </trkpt>
      <trkpt lat="44.43691" lon="3.58709">
        <ele>1268</ele>
        <time>2022-05-27T08:18:10Z</time>
      </trkpt>
      <trkpt lat="44.43691" lon="3.5871">
        <ele>1268</ele>
        <time>2022-05-27T08:18:11Z</time>
      </trkpt>
      <trkpt lat="44.43689" lon="3.58711">
        <ele>1268</ele>
        <time>2022-05-27T08:18:12Z</time>
      </trkpt>
      <trkpt lat="44.43688" lon="3.58712">
        <ele>1268</ele>
        <time>2022-05-27T08:18:13Z</time>
      </trkpt>
      <trkpt lat="44.43687" lon="3.58713">
        <ele>1268</ele>
        <time>2022-05-27T08:18:14Z</time>
      </trkpt>
      <trkpt lat="44.43686" lon="3.58714">
        <ele>1268</ele>
        <time>2022-05-27T08:18:15Z</time>
      </trkpt>
      <trkpt lat="44.43685" lon="3.58715">
        <ele>1268</ele>
        <time>2022-05-27T08:18:16Z</time>
      </trkpt>
      <trkpt lat="44.43684" lon="3.58715">
        <ele>1268</ele>
        <time>2022-05-27T08:18:17Z</time>
      </trkpt>
      <trkpt lat="44.43683" lon="3.58716">
        <ele>1268</ele>
        <time>2022-05-27T08:18:18Z</time>
      </trkpt>
      <trkpt lat="44.43681" lon="3.58718">
        <ele>1268</ele>
        <time>2022-05-27T08:18:19Z</time>
      </trkpt>
      <trkpt lat="44.4368" lon="3.58719">
        <ele>1268</ele>
        <time>2022-05-27T08:18:20Z</time>
      </trkpt>
      <trkpt lat="44.43679" lon="3.5872">
        <ele>1267</ele>
        <time>2022-05-27T08:18:21Z</time>
      </trkpt>
      <trkpt lat="44.43678" lon="3.5872">
        <ele>1267</ele>
        <time>2022-05-27T08:18:22Z</time>
      </trkpt>
      <trkpt lat="44.43676" lon="3.58721">
        <ele>1267</ele>
        <time>2022-05-27T08:18:23Z</time>
      </trkpt>
      <trkpt lat="44.43675" lon="3.58722">
        <ele>1266</ele>
        <time>2022-05-27T08:18:24Z</time>
      </trkpt>
      <trkpt lat="44.43674" lon="3.58724">
        <ele>1266</ele>
        <time>2022-05-27T08:18:25Z</time>
      </trkpt>
      <trkpt lat="44.43673" lon="3.58725">
        <ele>1267</ele>
        <time>2022-05-27T08:18:26Z</time>
      </trkpt>
      <trkpt lat="44.43672" lon="3.58726">
        <ele>1266</ele>
        <time>2022-05-27T08:18:27Z</time>
      </trkpt>
      <trkpt lat="44.4367" lon="3.58727">
        <ele>1265</ele>
        <time>2022-05-27T08:18:28Z</time>
      </trkpt>
      <trkpt lat="44.43669" lon="3.58729">
        <ele>1266</ele>
        <time>2022-05-27T08:18:29Z</time>
      </trkpt>
      <trkpt lat="44.43668" lon="3.5873">
        <ele>1265</ele>
        <time>2022-05-27T08:18:30Z</time>
      </trkpt>
      <trkpt lat="44.43667" lon="3.58731">
        <ele>1265</ele>
        <time>2022-05-27T08:18:31Z</time>
      </trkpt>
      <trkpt lat="44.43666" lon="3.58732">
        <ele>1265</ele>
        <time>2022-05-27T08:18:32Z</time>
      </trkpt>
      <trkpt lat="44.43665" lon="3.58734">
        <ele>1265</ele>
        <time>2022-05-27T08:18:33Z</time>
      </trkpt>
      <trkpt lat="44.43663" lon="3.58735">
        <ele>1265</ele>
        <time>2022-05-27T08:18:34Z</time>
      </trkpt>
      <trkpt lat="44.43662" lon="3.58736">
        <ele>1265</ele>
        <time>2022-05-27T08:18:35Z</time>
      </trkpt>
      <trkpt lat="44.43661" lon="3.58737">
        <ele>1266</ele>
        <time>2022-05-27T08:18:36Z</time>
      </trkpt>
      <trkpt lat="44.4366" lon="3.58739">
        <ele>1266</ele>
        <time>2022-05-27T08:18:37Z</time>
      </trkpt>
      <trkpt lat="44.43659" lon="3.5874">
        <ele>1266</ele>
        <time>2022-05-27T08:18:38Z</time>
      </trkpt>
      <trkpt lat="44.43658" lon="3.58741">
        <ele>1266</ele>
        <time>2022-05-27T08:18:39Z</time>
      </trkpt>
      <trkpt lat="44.43657" lon="3.58742">
        <ele>1266</ele>
        <time>2022-05-27T08:18:40Z</time>
      </trkpt>
      <trkpt lat="44.43656" lon="3.58743">
        <ele>1266</ele>
        <time>2022-05-27T08:18:41Z</time>
      </trkpt>
      <trkpt lat="44.43655" lon="3.58744">
        <ele>1266</ele>
        <time>2022-05-27T08:18:42Z</time>
      </trkpt>
      <trkpt lat="44.43654" lon="3.58746">
        <ele>1266</ele>
        <time>2022-05-27T08:18:43Z</time>
      </trkpt>
      <trkpt lat="44.43653" lon="3.58747">
        <ele>1266</ele>
        <time>2022-05-27T08:18:44Z</time>
      </trkpt>
      <trkpt lat="44.43652" lon="3.58748">
        <ele>1265</ele>
        <time>2022-05-27T08:18:45Z</time>
      </trkpt>
      <trkpt lat="44.4365" lon="3.58749">
        <ele>1265</ele>
        <time>2022-05-27T08:18:46Z</time>
      </trkpt>
      <trkpt lat="44.43649" lon="3.58751">
        <ele>1265</ele>
        <time>2022-05-27T08:18:47Z</time>
      </trkpt>
      <trkpt lat="44.43648" lon="3.58752">
        <ele>1264</ele>
        <time>2022-05-27T08:18:48Z</time>
      </trkpt>
      <trkpt lat="44.43647" lon="3.58753">
        <ele>1264</ele>
        <time>2022-05-27T08:18:49Z</time>
      </trkpt>
      <trkpt lat="44.43646" lon="3.58755">
        <ele>1264</ele>
        <time>2022-05-27T08:18:50Z</time>
      </trkpt>
      <trkpt lat="44.43644" lon="3.58756">
        <ele>1264</ele>
        <time>2022-05-27T08:18:51Z</time>
      </trkpt>
      <trkpt lat="44.43644" lon="3.58758">
        <ele>1264</ele>
        <time>2022-05-27T08:18:52Z</time>
      </trkpt>
      <trkpt lat="44.43642" lon="3.58759">
        <ele>1264</ele>
        <time>2022-05-27T08:18:53Z</time>
      </trkpt>
      <trkpt lat="44.43642" lon="3.5876">
        <ele>1264</ele>
        <time>2022-05-27T08:18:54Z</time>
      </trkpt>
      <trkpt lat="44.43641" lon="3.58762">
        <ele>1264</ele>
        <time>2022-05-27T08:18:55Z</time>
      </trkpt>
      <trkpt lat="44.4364" lon="3.58763">
        <ele>1264</ele>
        <time>2022-05-27T08:18:56Z</time>
      </trkpt>
      <trkpt lat="44.43639" lon="3.58765">
        <ele>1264</ele>
        <time>2022-05-27T08:18:57Z</time>
      </trkpt>
      <trkpt lat="44.43638" lon="3.58766">
        <ele>1265</ele>
        <time>2022-05-27T08:18:58Z</time>
      </trkpt>
      <trkpt lat="44.43637" lon="3.58768">
        <ele>1265</ele>
        <time>2022-05-27T08:18:59Z</time>
      </trkpt>
      <trkpt lat="44.43636" lon="3.58769">
        <ele>1265</ele>
        <time>2022-05-27T08:19:00Z</time>
      </trkpt>
      <trkpt lat="44.43635" lon="3.58771">
        <ele>1264</ele>
        <time>2022-05-27T08:19:01Z</time>
      </trkpt>
      <trkpt lat="44.43634" lon="3.58773">
        <ele>1265</ele>
        <time>2022-05-27T08:19:02Z</time>
      </trkpt>
      <trkpt lat="44.43633" lon="3.58774">
        <ele>1265</ele>
        <time>2022-05-27T08:19:03Z</time>
      </trkpt>
      <trkpt lat="44.43632" lon="3.58776">
        <ele>1265</ele>
        <time>2022-05-27T08:19:04Z</time>
      </trkpt>
      <trkpt lat="44.43631" lon="3.58777">
        <ele>1265</ele>
        <time>2022-05-27T08:19:05Z</time>
      </trkpt>
      <trkpt lat="44.43631" lon="3.58778">
        <ele>1265</ele>
        <time>2022-05-27T08:19:06Z</time>
      </trkpt>
      <trkpt lat="44.4363" lon="3.58779">
        <ele>1265</ele>
        <time>2022-05-27T08:19:07Z</time>
      </trkpt>
      <trkpt lat="44.43629" lon="3.58781">
        <ele>1266</ele>
        <time>2022-05-27T08:19:08Z</time>
      </trkpt>
      <trkpt lat="44.43628" lon="3.58782">
        <ele>1266</ele>
        <time>2022-05-27T08:19:09Z</time>
      </trkpt>
      <trkpt lat="44.43627" lon="3.58783">
        <ele>1266</ele>
        <time>2022-05-27T08:19:10Z</time>
      </trkpt>
      <trkpt lat="44.43626" lon="3.58785">
        <ele>1266</ele>
        <time>2022-05-27T08:19:11Z</time>
      </trkpt>
      <trkpt lat="44.43625" lon="3.58786">
        <ele>1265</ele>
        <time>2022-05-27T08:19:12Z</time>
      </trkpt>
      <trkpt lat="44.43624" lon="3.58788">
        <ele>1265</ele>
        <time>2022-05-27T08:19:13Z</time>
      </trkpt>
      <trkpt lat="44.43623" lon="3.58789">
        <ele>1264</ele>
        <time>2022-05-27T08:19:14Z</time>
      </trkpt>
      <trkpt lat="44.43622" lon="3.5879">
        <ele>1264</ele>
        <time>2022-05-27T08:19:15Z</time>
      </trkpt>
      <trkpt lat="44.43621" lon="3.58792">
        <ele>1263</ele>
        <time>2022-05-27T08:19:16Z</time>
      </trkpt>
      <trkpt lat="44.4362" lon="3.58793">
        <ele>1264</ele>
        <time>2022-05-27T08:19:17Z</time>
      </trkpt>
      <trkpt lat="44.43619" lon="3.58795">
        <ele>1264</ele>
        <time>2022-05-27T08:19:18Z</time>
      </trkpt>
      <trkpt lat="44.43618" lon="3.58797">
        <ele>1264</ele>
        <time>2022-05-27T08:19:19Z</time>
      </trkpt>
      <trkpt lat="44.43617" lon="3.58799">
        <ele>1263</ele>
        <time>2022-05-27T08:19:20Z</time>
      </trkpt>
      <trkpt lat="44.43616" lon="3.588">
        <ele>1263</ele>
        <time>2022-05-27T08:19:21Z</time>
      </trkpt>
      <trkpt lat="44.43615" lon="3.58801">
        <ele>1263</ele>
        <time>2022-05-27T08:19:22Z</time>
      </trkpt>
      <trkpt lat="44.43615" lon="3.58802">
        <ele>1263</ele>
        <time>2022-05-27T08:19:23Z</time>
      </trkpt>
      <trkpt lat="44.43614" lon="3.58804">
        <ele>1263</ele>
        <time>2022-05-27T08:19:24Z</time>
      </trkpt>
      <trkpt lat="44.43613" lon="3.58804">
        <ele>1263</ele>
        <time>2022-05-27T08:19:25Z</time>
      </trkpt>
      <trkpt lat="44.43612" lon="3.58805">
        <ele>1263</ele>
        <time>2022-05-27T08:19:26Z</time>
      </trkpt>
      <trkpt lat="44.43611" lon="3.58806">
        <ele>1263</ele>
        <time>2022-05-27T08:19:27Z</time>
      </trkpt>
      <trkpt lat="44.4361" lon="3.58807">
        <ele>1263</ele>
        <time>2022-05-27T08:19:28Z</time>
      </trkpt>
      <trkpt lat="44.43609" lon="3.58808">
        <ele>1262</ele>
        <time>2022-05-27T08:19:29Z</time>
      </trkpt>
      <trkpt lat="44.43608" lon="3.5881">
        <ele>1262</ele>
        <time>2022-05-27T08:19:30Z</time>
      </trkpt>
      <trkpt lat="44.43607" lon="3.5881">
        <ele>1262</ele>
        <time>2022-05-27T08:19:31Z</time>
      </trkpt>
      <trkpt lat="44.43606" lon="3.58811">
        <ele>1262</ele>
        <time>2022-05-27T08:19:32Z</time>
      </trkpt>
      <trkpt lat="44.43605" lon="3.58812">
        <ele>1262</ele>
        <time>2022-05-27T08:19:33Z</time>
      </trkpt>
      <trkpt lat="44.43604" lon="3.58813">
        <ele>1262</ele>
        <time>2022-05-27T08:19:34Z</time>
      </trkpt>
      <trkpt lat="44.43603" lon="3.58814">
        <ele>1262</ele>
        <time>2022-05-27T08:19:35Z</time>
      </trkpt>
      <trkpt lat="44.43602" lon="3.58815">
        <ele>1262</ele>
        <time>2022-05-27T08:19:36Z</time>
      </trkpt>
      <trkpt lat="44.43601" lon="3.58816">
        <ele>1262</ele>
        <time>2022-05-27T08:19:37Z</time>
      </trkpt>
      <trkpt lat="44.436" lon="3.58818">
        <ele>1262</ele>
        <time>2022-05-27T08:19:38Z</time>
      </trkpt>
      <trkpt lat="44.43598" lon="3.58819">
        <ele>1261</ele>
        <time>2022-05-27T08:19:39Z</time>
      </trkpt>
      <trkpt lat="44.43597" lon="3.5882">
        <ele>1261</ele>
        <time>2022-05-27T08:19:40Z</time>
      </trkpt>
      <trkpt lat="44.43596" lon="3.58821">
        <ele>1261</ele>
        <time>2022-05-27T08:19:41Z</time>
      </trkpt>
      <trkpt lat="44.43595" lon="3.58823">
        <ele>1261</ele>
        <time>2022-05-27T08:19:42Z</time>
      </trkpt>
      <trkpt lat="44.43594" lon="3.58825">
        <ele>1261</ele>
        <time>2022-05-27T08:19:43Z</time>
      </trkpt>
      <trkpt lat="44.43593" lon="3.58826">
        <ele>1261</ele>
        <time>2022-05-27T08:19:44Z</time>
      </trkpt>
      <trkpt lat="44.43592" lon="3.58828">
        <ele>1261</ele>
        <time>2022-05-27T08:19:45Z</time>
      </trkpt>
      <trkpt lat="44.43591" lon="3.58829">
        <ele>1262</ele>
        <time>2022-05-27T08:19:46Z</time>
      </trkpt>
      <trkpt lat="44.4359" lon="3.58831">
        <ele>1262</ele>
        <time>2022-05-27T08:19:47Z</time>
      </trkpt>
      <trkpt lat="44.43589" lon="3.58833">
        <ele>1262</ele>
        <time>2022-05-27T08:19:48Z</time>
      </trkpt>
      <trkpt lat="44.43588" lon="3.58834">
        <ele>1263</ele>
        <time>2022-05-27T08:19:49Z</time>
      </trkpt>
      <trkpt lat="44.43588" lon="3.58835">
        <ele>1263</ele>
        <time>2022-05-27T08:19:50Z</time>
      </trkpt>
      <trkpt lat="44.43587" lon="3.58837">
        <ele>1262</ele>
        <time>2022-05-27T08:19:51Z</time>
      </trkpt>
      <trkpt lat="44.43586" lon="3.58839">
        <ele>1262</ele>
        <time>2022-05-27T08:19:52Z</time>
      </trkpt>
      <trkpt lat="44.43585" lon="3.58841">
        <ele>1262</ele>
        <time>2022-05-27T08:19:53Z</time>
      </trkpt>
      <trkpt lat="44.43584" lon="3.58844">
        <ele>1261</ele>
        <time>2022-05-27T08:19:54Z</time>
      </trkpt>
      <trkpt lat="44.43584" lon="3.58846">
        <ele>1261</ele>
        <time>2022-05-27T08:19:55Z</time>
      </trkpt>
      <trkpt lat="44.43583" lon="3.58847">
        <ele>1261</ele>
        <time>2022-05-27T08:19:56Z</time>
      </trkpt>
      <trkpt lat="44.43582" lon="3.58848">
        <ele>1261</ele>
        <time>2022-05-27T08:19:57Z</time>
      </trkpt>
      <trkpt lat="44.43581" lon="3.5885">
        <ele>1261</ele>
        <time>2022-05-27T08:19:58Z</time>
      </trkpt>
      <trkpt lat="44.43581" lon="3.58852">
        <ele>1261</ele>
        <time>2022-05-27T08:19:59Z</time>
      </trkpt>
      <trkpt lat="44.4358" lon="3.58853">
        <ele>1261</ele>
        <time>2022-05-27T08:20:00Z</time>
      </trkpt>
      <trkpt lat="44.43579" lon="3.58855">
        <ele>1261</ele>
        <time>2022-05-27T08:20:01Z</time>
      </trkpt>
      <trkpt lat="44.43578" lon="3.58856">
        <ele>1261</ele>
        <time>2022-05-27T08:20:02Z</time>
      </trkpt>
      <trkpt lat="44.43578" lon="3.58858">
        <ele>1261</ele>
        <time>2022-05-27T08:20:03Z</time>
      </trkpt>
      <trkpt lat="44.43577" lon="3.58859">
        <ele>1261</ele>
        <time>2022-05-27T08:20:04Z</time>
      </trkpt>
      <trkpt lat="44.43577" lon="3.5886">
        <ele>1261</ele>
        <time>2022-05-27T08:20:05Z</time>
      </trkpt>
      <trkpt lat="44.43576" lon="3.58862">
        <ele>1261</ele>
        <time>2022-05-27T08:20:06Z</time>
      </trkpt>
      <trkpt lat="44.43575" lon="3.58863">
        <ele>1261</ele>
        <time>2022-05-27T08:20:07Z</time>
      </trkpt>
      <trkpt lat="44.43574" lon="3.58865">
        <ele>1261</ele>
        <time>2022-05-27T08:20:08Z</time>
      </trkpt>
      <trkpt lat="44.43573" lon="3.58866">
        <ele>1262</ele>
        <time>2022-05-27T08:20:09Z</time>
      </trkpt>
      <trkpt lat="44.43572" lon="3.58867">
        <ele>1261</ele>
        <time>2022-05-27T08:20:10Z</time>
      </trkpt>
      <trkpt lat="44.43571" lon="3.58869">
        <ele>1261</ele>
        <time>2022-05-27T08:20:11Z</time>
      </trkpt>
      <trkpt lat="44.4357" lon="3.5887">
        <ele>1262</ele>
        <time>2022-05-27T08:20:12Z</time>
      </trkpt>
      <trkpt lat="44.43569" lon="3.58872">
        <ele>1262</ele>
        <time>2022-05-27T08:20:13Z</time>
      </trkpt>
      <trkpt lat="44.43568" lon="3.58874">
        <ele>1263</ele>
        <time>2022-05-27T08:20:14Z</time>
      </trkpt>
      <trkpt lat="44.43568" lon="3.58875">
        <ele>1263</ele>
        <time>2022-05-27T08:20:15Z</time>
      </trkpt>
      <trkpt lat="44.43568" lon="3.58877">
        <ele>1263</ele>
        <time>2022-05-27T08:20:16Z</time>
      </trkpt>
      <trkpt lat="44.43567" lon="3.58878">
        <ele>1263</ele>
        <time>2022-05-27T08:20:17Z</time>
      </trkpt>
      <trkpt lat="44.43567" lon="3.5888">
        <ele>1263</ele>
        <time>2022-05-27T08:20:18Z</time>
      </trkpt>
      <trkpt lat="44.43565" lon="3.58882">
        <ele>1263</ele>
        <time>2022-05-27T08:20:19Z</time>
      </trkpt>
      <trkpt lat="44.43565" lon="3.58883">
        <ele>1263</ele>
        <time>2022-05-27T08:20:20Z</time>
      </trkpt>
      <trkpt lat="44.43564" lon="3.58885">
        <ele>1263</ele>
        <time>2022-05-27T08:20:21Z</time>
      </trkpt>
      <trkpt lat="44.43563" lon="3.58887">
        <ele>1263</ele>
        <time>2022-05-27T08:20:22Z</time>
      </trkpt>
      <trkpt lat="44.43562" lon="3.58888">
        <ele>1262</ele>
        <time>2022-05-27T08:20:23Z</time>
      </trkpt>
      <trkpt lat="44.43562" lon="3.58891">
        <ele>1262</ele>
        <time>2022-05-27T08:20:24Z</time>
      </trkpt>
      <trkpt lat="44.43561" lon="3.58893">
        <ele>1261</ele>
        <time>2022-05-27T08:20:25Z</time>
      </trkpt>
      <trkpt lat="44.43561" lon="3.58894">
        <ele>1261</ele>
        <time>2022-05-27T08:20:26Z</time>
      </trkpt>
      <trkpt lat="44.4356" lon="3.58896">
        <ele>1262</ele>
        <time>2022-05-27T08:20:27Z</time>
      </trkpt>
      <trkpt lat="44.43559" lon="3.58898">
        <ele>1261</ele>
        <time>2022-05-27T08:20:28Z</time>
      </trkpt>
      <trkpt lat="44.43559" lon="3.589">
        <ele>1261</ele>
        <time>2022-05-27T08:20:29Z</time>
      </trkpt>
      <trkpt lat="44.43558" lon="3.58902">
        <ele>1262</ele>
        <time>2022-05-27T08:20:30Z</time>
      </trkpt>
      <trkpt lat="44.43557" lon="3.58903">
        <ele>1261</ele>
        <time>2022-05-27T08:20:31Z</time>
      </trkpt>
      <trkpt lat="44.43557" lon="3.58905">
        <ele>1261</ele>
        <time>2022-05-27T08:20:32Z</time>
      </trkpt>
      <trkpt lat="44.43556" lon="3.58907">
        <ele>1261</ele>
        <time>2022-05-27T08:20:33Z</time>
      </trkpt>
      <trkpt lat="44.43556" lon="3.58909">
        <ele>1261</ele>
        <time>2022-05-27T08:20:34Z</time>
      </trkpt>
      <trkpt lat="44.43555" lon="3.58911">
        <ele>1261</ele>
        <time>2022-05-27T08:20:35Z</time>
      </trkpt>
      <trkpt lat="44.43554" lon="3.58912">
        <ele>1261</ele>
        <time>2022-05-27T08:20:36Z</time>
      </trkpt>
      <trkpt lat="44.43554" lon="3.58914">
        <ele>1262</ele>
        <time>2022-05-27T08:20:37Z</time>
      </trkpt>
      <trkpt lat="44.43553" lon="3.58915">
        <ele>1261</ele>
        <time>2022-05-27T08:20:38Z</time>
      </trkpt>
      <trkpt lat="44.43552" lon="3.58917">
        <ele>1261</ele>
        <time>2022-05-27T08:20:39Z</time>
      </trkpt>
      <trkpt lat="44.43552" lon="3.58918">
        <ele>1261</ele>
        <time>2022-05-27T08:20:40Z</time>
      </trkpt>
      <trkpt lat="44.43551" lon="3.5892">
        <ele>1261</ele>
        <time>2022-05-27T08:20:41Z</time>
      </trkpt>
      <trkpt lat="44.43551" lon="3.58922">
        <ele>1261</ele>
        <time>2022-05-27T08:20:42Z</time>
      </trkpt>
      <trkpt lat="44.4355" lon="3.58923">
        <ele>1262</ele>
        <time>2022-05-27T08:20:43Z</time>
      </trkpt>
      <trkpt lat="44.43549" lon="3.58925">
        <ele>1262</ele>
        <time>2022-05-27T08:20:44Z</time>
      </trkpt>
      <trkpt lat="44.43549" lon="3.58926">
        <ele>1263</ele>
        <time>2022-05-27T08:20:45Z</time>
      </trkpt>
      <trkpt lat="44.43548" lon="3.58928">
        <ele>1263</ele>
        <time>2022-05-27T08:20:46Z</time>
      </trkpt>
      <trkpt lat="44.43547" lon="3.58929">
        <ele>1264</ele>
        <time>2022-05-27T08:20:47Z</time>
      </trkpt>
      <trkpt lat="44.43547" lon="3.5893">
        <ele>1264</ele>
        <time>2022-05-27T08:20:48Z</time>
      </trkpt>
      <trkpt lat="44.43547" lon="3.58932">
        <ele>1264</ele>
        <time>2022-05-27T08:20:49Z</time>
      </trkpt>
      <trkpt lat="44.43546" lon="3.58934">
        <ele>1264</ele>
        <time>2022-05-27T08:20:50Z</time>
      </trkpt>
      <trkpt lat="44.43546" lon="3.58935">
        <ele>1265</ele>
        <time>2022-05-27T08:20:51Z</time>
      </trkpt>
      <trkpt lat="44.43545" lon="3.58937">
        <ele>1265</ele>
        <time>2022-05-27T08:20:52Z</time>
      </trkpt>
      <trkpt lat="44.43544" lon="3.58939">
        <ele>1265</ele>
        <time>2022-05-27T08:20:53Z</time>
      </trkpt>
      <trkpt lat="44.43544" lon="3.58941">
        <ele>1266</ele>
        <time>2022-05-27T08:20:54Z</time>
      </trkpt>
      <trkpt lat="44.43543" lon="3.58942">
        <ele>1266</ele>
        <time>2022-05-27T08:20:55Z</time>
      </trkpt>
      <trkpt lat="44.43543" lon="3.58944">
        <ele>1266</ele>
        <time>2022-05-27T08:20:56Z</time>
      </trkpt>
      <trkpt lat="44.43542" lon="3.58946">
        <ele>1266</ele>
        <time>2022-05-27T08:20:57Z</time>
      </trkpt>
      <trkpt lat="44.43542" lon="3.58948">
        <ele>1266</ele>
        <time>2022-05-27T08:20:58Z</time>
      </trkpt>
      <trkpt lat="44.43541" lon="3.58949">
        <ele>1266</ele>
        <time>2022-05-27T08:20:59Z</time>
      </trkpt>
      <trkpt lat="44.43541" lon="3.58951">
        <ele>1266</ele>
        <time>2022-05-27T08:21:00Z</time>
      </trkpt>
      <trkpt lat="44.4354" lon="3.58953">
        <ele>1266</ele>
        <time>2022-05-27T08:21:01Z</time>
      </trkpt>
      <trkpt lat="44.43539" lon="3.58954">
        <ele>1266</ele>
        <time>2022-05-27T08:21:02Z</time>
      </trkpt>
      <trkpt lat="44.43539" lon="3.58956">
        <ele>1266</ele>
        <time>2022-05-27T08:21:03Z</time>
      </trkpt>
      <trkpt lat="44.43538" lon="3.58958">
        <ele>1266</ele>
        <time>2022-05-27T08:21:04Z</time>
      </trkpt>
      <trkpt lat="44.43538" lon="3.58959">
        <ele>1266</ele>
        <time>2022-05-27T08:21:05Z</time>
      </trkpt>
      <trkpt lat="44.43538" lon="3.58961">
        <ele>1266</ele>
        <time>2022-05-27T08:21:06Z</time>
      </trkpt>
      <trkpt lat="44.43538" lon="3.58964">
        <ele>1266</ele>
        <time>2022-05-27T08:21:07Z</time>
      </trkpt>
      <trkpt lat="44.43537" lon="3.58966">
        <ele>1266</ele>
        <time>2022-05-27T08:21:08Z</time>
      </trkpt>
      <trkpt lat="44.43537" lon="3.58967">
        <ele>1265</ele>
        <time>2022-05-27T08:21:09Z</time>
      </trkpt>
      <trkpt lat="44.43536" lon="3.58969">
        <ele>1265</ele>
        <time>2022-05-27T08:21:10Z</time>
      </trkpt>
      <trkpt lat="44.43536" lon="3.58972">
        <ele>1266</ele>
        <time>2022-05-27T08:21:11Z</time>
      </trkpt>
      <trkpt lat="44.43535" lon="3.58973">
        <ele>1266</ele>
        <time>2022-05-27T08:21:12Z</time>
      </trkpt>
      <trkpt lat="44.43535" lon="3.58975">
        <ele>1266</ele>
        <time>2022-05-27T08:21:13Z</time>
      </trkpt>
      <trkpt lat="44.43535" lon="3.58977">
        <ele>1266</ele>
        <time>2022-05-27T08:21:14Z</time>
      </trkpt>
      <trkpt lat="44.43534" lon="3.58979">
        <ele>1266</ele>
        <time>2022-05-27T08:21:15Z</time>
      </trkpt>
      <trkpt lat="44.43533" lon="3.5898">
        <ele>1266</ele>
        <time>2022-05-27T08:21:16Z</time>
      </trkpt>
      <trkpt lat="44.43532" lon="3.58982">
        <ele>1266</ele>
        <time>2022-05-27T08:21:17Z</time>
      </trkpt>
      <trkpt lat="44.43531" lon="3.58984">
        <ele>1266</ele>
        <time>2022-05-27T08:21:18Z</time>
      </trkpt>
      <trkpt lat="44.43531" lon="3.58985">
        <ele>1266</ele>
        <time>2022-05-27T08:21:19Z</time>
      </trkpt>
      <trkpt lat="44.4353" lon="3.58986">
        <ele>1266</ele>
        <time>2022-05-27T08:21:20Z</time>
      </trkpt>
      <trkpt lat="44.4353" lon="3.58988">
        <ele>1266</ele>
        <time>2022-05-27T08:21:21Z</time>
      </trkpt>
      <trkpt lat="44.43528" lon="3.58989">
        <ele>1266</ele>
        <time>2022-05-27T08:21:22Z</time>
      </trkpt>
      <trkpt lat="44.43528" lon="3.58991">
        <ele>1266</ele>
        <time>2022-05-27T08:21:23Z</time>
      </trkpt>
      <trkpt lat="44.43528" lon="3.58993">
        <ele>1266</ele>
        <time>2022-05-27T08:21:24Z</time>
      </trkpt>
      <trkpt lat="44.43527" lon="3.58994">
        <ele>1265</ele>
        <time>2022-05-27T08:21:25Z</time>
      </trkpt>
      <trkpt lat="44.43526" lon="3.58996">
        <ele>1266</ele>
        <time>2022-05-27T08:21:26Z</time>
      </trkpt>
      <trkpt lat="44.43525" lon="3.58998">
        <ele>1266</ele>
        <time>2022-05-27T08:21:27Z</time>
      </trkpt>
      <trkpt lat="44.43524" lon="3.58999">
        <ele>1266</ele>
        <time>2022-05-27T08:21:28Z</time>
      </trkpt>
      <trkpt lat="44.43523" lon="3.59001">
        <ele>1266</ele>
        <time>2022-05-27T08:21:29Z</time>
      </trkpt>
      <trkpt lat="44.43523" lon="3.59003">
        <ele>1266</ele>
        <time>2022-05-27T08:21:30Z</time>
      </trkpt>
      <trkpt lat="44.43523" lon="3.59005">
        <ele>1266</ele>
        <time>2022-05-27T08:21:31Z</time>
      </trkpt>
      <trkpt lat="44.43522" lon="3.59007">
        <ele>1265</ele>
        <time>2022-05-27T08:21:32Z</time>
      </trkpt>
      <trkpt lat="44.43521" lon="3.59009">
        <ele>1265</ele>
        <time>2022-05-27T08:21:33Z</time>
      </trkpt>
      <trkpt lat="44.43521" lon="3.5901">
        <ele>1265</ele>
        <time>2022-05-27T08:21:34Z</time>
      </trkpt>
      <trkpt lat="44.4352" lon="3.59012">
        <ele>1266</ele>
        <time>2022-05-27T08:21:35Z</time>
      </trkpt>
      <trkpt lat="44.43519" lon="3.59014">
        <ele>1265</ele>
        <time>2022-05-27T08:21:36Z</time>
      </trkpt>
      <trkpt lat="44.43519" lon="3.59016">
        <ele>1265</ele>
        <time>2022-05-27T08:21:37Z</time>
      </trkpt>
      <trkpt lat="44.43518" lon="3.59018">
        <ele>1265</ele>
        <time>2022-05-27T08:21:38Z</time>
      </trkpt>
      <trkpt lat="44.43518" lon="3.5902">
        <ele>1265</ele>
        <time>2022-05-27T08:21:39Z</time>
      </trkpt>
      <trkpt lat="44.43517" lon="3.59022">
        <ele>1265</ele>
        <time>2022-05-27T08:21:40Z</time>
      </trkpt>
      <trkpt lat="44.43517" lon="3.59024">
        <ele>1265</ele>
        <time>2022-05-27T08:21:41Z</time>
      </trkpt>
      <trkpt lat="44.43517" lon="3.59026">
        <ele>1265</ele>
        <time>2022-05-27T08:21:42Z</time>
      </trkpt>
      <trkpt lat="44.43517" lon="3.59028">
        <ele>1265</ele>
        <time>2022-05-27T08:21:43Z</time>
      </trkpt>
      <trkpt lat="44.43516" lon="3.5903">
        <ele>1265</ele>
        <time>2022-05-27T08:21:44Z</time>
      </trkpt>
      <trkpt lat="44.43515" lon="3.59031">
        <ele>1266</ele>
        <time>2022-05-27T08:21:45Z</time>
      </trkpt>
      <trkpt lat="44.43515" lon="3.59033">
        <ele>1266</ele>
        <time>2022-05-27T08:21:46Z</time>
      </trkpt>
      <trkpt lat="44.43515" lon="3.59035">
        <ele>1265</ele>
        <time>2022-05-27T08:21:47Z</time>
      </trkpt>
      <trkpt lat="44.43514" lon="3.59036">
        <ele>1265</ele>
        <time>2022-05-27T08:21:48Z</time>
      </trkpt>
      <trkpt lat="44.43514" lon="3.59038">
        <ele>1265</ele>
        <time>2022-05-27T08:21:49Z</time>
      </trkpt>
      <trkpt lat="44.43514" lon="3.5904">
        <ele>1265</ele>
        <time>2022-05-27T08:21:50Z</time>
      </trkpt>
      <trkpt lat="44.43514" lon="3.59042">
        <ele>1265</ele>
        <time>2022-05-27T08:21:51Z</time>
      </trkpt>
      <trkpt lat="44.43513" lon="3.59044">
        <ele>1265</ele>
        <time>2022-05-27T08:21:52Z</time>
      </trkpt>
      <trkpt lat="44.43512" lon="3.59046">
        <ele>1265</ele>
        <time>2022-05-27T08:21:53Z</time>
      </trkpt>
      <trkpt lat="44.43512" lon="3.59047">
        <ele>1265</ele>
        <time>2022-05-27T08:21:54Z</time>
      </trkpt>
      <trkpt lat="44.43512" lon="3.59049">
        <ele>1265</ele>
        <time>2022-05-27T08:21:55Z</time>
      </trkpt>
      <trkpt lat="44.43511" lon="3.59051">
        <ele>1265</ele>
        <time>2022-05-27T08:21:56Z</time>
      </trkpt>
      <trkpt lat="44.43511" lon="3.59053">
        <ele>1265</ele>
        <time>2022-05-27T08:21:57Z</time>
      </trkpt>
      <trkpt lat="44.43511" lon="3.59054">
        <ele>1265</ele>
        <time>2022-05-27T08:21:58Z</time>
      </trkpt>
      <trkpt lat="44.4351" lon="3.59057">
        <ele>1265</ele>
        <time>2022-05-27T08:21:59Z</time>
      </trkpt>
      <trkpt lat="44.4351" lon="3.59059">
        <ele>1265</ele>
        <time>2022-05-27T08:22:00Z</time>
      </trkpt>
      <trkpt lat="44.4351" lon="3.59061">
        <ele>1265</ele>
        <time>2022-05-27T08:22:01Z</time>
      </trkpt>
      <trkpt lat="44.43509" lon="3.59063">
        <ele>1264</ele>
        <time>2022-05-27T08:22:02Z</time>
      </trkpt>
      <trkpt lat="44.43509" lon="3.59065">
        <ele>1264</ele>
        <time>2022-05-27T08:22:03Z</time>
      </trkpt>
      <trkpt lat="44.43508" lon="3.59067">
        <ele>1264</ele>
        <time>2022-05-27T08:22:04Z</time>
      </trkpt>
      <trkpt lat="44.43508" lon="3.59069">
        <ele>1263</ele>
        <time>2022-05-27T08:22:05Z</time>
      </trkpt>
      <trkpt lat="44.43508" lon="3.59071">
        <ele>1263</ele>
        <time>2022-05-27T08:22:06Z</time>
      </trkpt>
      <trkpt lat="44.43507" lon="3.59072">
        <ele>1263</ele>
        <time>2022-05-27T08:22:07Z</time>
      </trkpt>
      <trkpt lat="44.43507" lon="3.59074">
        <ele>1263</ele>
        <time>2022-05-27T08:22:08Z</time>
      </trkpt>
      <trkpt lat="44.43507" lon="3.59076">
        <ele>1263</ele>
        <time>2022-05-27T08:22:09Z</time>
      </trkpt>
      <trkpt lat="44.43507" lon="3.59078">
        <ele>1263</ele>
        <time>2022-05-27T08:22:10Z</time>
      </trkpt>
      <trkpt lat="44.43506" lon="3.5908">
        <ele>1264</ele>
        <time>2022-05-27T08:22:11Z</time>
      </trkpt>
      <trkpt lat="44.43506" lon="3.59082">
        <ele>1264</ele>
        <time>2022-05-27T08:22:12Z</time>
      </trkpt>
      <trkpt lat="44.43506" lon="3.59084">
        <ele>1264</ele>
        <time>2022-05-27T08:22:13Z</time>
      </trkpt>
      <trkpt lat="44.43506" lon="3.59085">
        <ele>1264</ele>
        <time>2022-05-27T08:22:14Z</time>
      </trkpt>
      <trkpt lat="44.43505" lon="3.59087">
        <ele>1264</ele>
        <time>2022-05-27T08:22:15Z</time>
      </trkpt>
      <trkpt lat="44.43505" lon="3.59089">
        <ele>1264</ele>
        <time>2022-05-27T08:22:16Z</time>
      </trkpt>
      <trkpt lat="44.43504" lon="3.59091">
        <ele>1264</ele>
        <time>2022-05-27T08:22:17Z</time>
      </trkpt>
      <trkpt lat="44.43504" lon="3.59094">
        <ele>1264</ele>
        <time>2022-05-27T08:22:18Z</time>
      </trkpt>
      <trkpt lat="44.43504" lon="3.59096">
        <ele>1263</ele>
        <time>2022-05-27T08:22:19Z</time>
      </trkpt>
      <trkpt lat="44.43504" lon="3.59098">
        <ele>1263</ele>
        <time>2022-05-27T08:22:20Z</time>
      </trkpt>
      <trkpt lat="44.43503" lon="3.59099">
        <ele>1263</ele>
        <time>2022-05-27T08:22:21Z</time>
      </trkpt>
      <trkpt lat="44.43502" lon="3.59101">
        <ele>1262</ele>
        <time>2022-05-27T08:22:22Z</time>
      </trkpt>
      <trkpt lat="44.43502" lon="3.59102">
        <ele>1262</ele>
        <time>2022-05-27T08:22:23Z</time>
      </trkpt>
      <trkpt lat="44.43501" lon="3.59103">
        <ele>1262</ele>
        <time>2022-05-27T08:22:24Z</time>
      </trkpt>
      <trkpt lat="44.43501" lon="3.59105">
        <ele>1262</ele>
        <time>2022-05-27T08:22:25Z</time>
      </trkpt>
      <trkpt lat="44.435" lon="3.59106">
        <ele>1262</ele>
        <time>2022-05-27T08:22:26Z</time>
      </trkpt>
      <trkpt lat="44.43499" lon="3.59108">
        <ele>1262</ele>
        <time>2022-05-27T08:22:27Z</time>
      </trkpt>
      <trkpt lat="44.43499" lon="3.59109">
        <ele>1262</ele>
        <time>2022-05-27T08:22:28Z</time>
      </trkpt>
      <trkpt lat="44.43498" lon="3.59111">
        <ele>1263</ele>
        <time>2022-05-27T08:22:29Z</time>
      </trkpt>
      <trkpt lat="44.43498" lon="3.59113">
        <ele>1262</ele>
        <time>2022-05-27T08:22:30Z</time>
      </trkpt>
      <trkpt lat="44.43497" lon="3.59114">
        <ele>1262</ele>
        <time>2022-05-27T08:22:31Z</time>
      </trkpt>
      <trkpt lat="44.43496" lon="3.59116">
        <ele>1262</ele>
        <time>2022-05-27T08:22:32Z</time>
      </trkpt>
      <trkpt lat="44.43495" lon="3.59117">
        <ele>1263</ele>
        <time>2022-05-27T08:22:33Z</time>
      </trkpt>
      <trkpt lat="44.43495" lon="3.59119">
        <ele>1263</ele>
        <time>2022-05-27T08:22:34Z</time>
      </trkpt>
      <trkpt lat="44.43494" lon="3.5912">
        <ele>1263</ele>
        <time>2022-05-27T08:22:35Z</time>
      </trkpt>
      <trkpt lat="44.43494" lon="3.59121">
        <ele>1263</ele>
        <time>2022-05-27T08:22:36Z</time>
      </trkpt>
      <trkpt lat="44.43493" lon="3.59123">
        <ele>1263</ele>
        <time>2022-05-27T08:22:37Z</time>
      </trkpt>
      <trkpt lat="44.43492" lon="3.59124">
        <ele>1263</ele>
        <time>2022-05-27T08:22:38Z</time>
      </trkpt>
      <trkpt lat="44.43491" lon="3.59125">
        <ele>1263</ele>
        <time>2022-05-27T08:22:39Z</time>
      </trkpt>
      <trkpt lat="44.43491" lon="3.59128">
        <ele>1263</ele>
        <time>2022-05-27T08:22:40Z</time>
      </trkpt>
      <trkpt lat="44.4349" lon="3.59129">
        <ele>1263</ele>
        <time>2022-05-27T08:22:41Z</time>
      </trkpt>
      <trkpt lat="44.43489" lon="3.59131">
        <ele>1263</ele>
        <time>2022-05-27T08:22:42Z</time>
      </trkpt>
      <trkpt lat="44.43488" lon="3.59132">
        <ele>1263</ele>
        <time>2022-05-27T08:22:43Z</time>
      </trkpt>
      <trkpt lat="44.43488" lon="3.59133">
        <ele>1263</ele>
        <time>2022-05-27T08:22:44Z</time>
      </trkpt>
      <trkpt lat="44.43487" lon="3.59134">
        <ele>1263</ele>
        <time>2022-05-27T08:22:45Z</time>
      </trkpt>
      <trkpt lat="44.43486" lon="3.59135">
        <ele>1264</ele>
        <time>2022-05-27T08:22:46Z</time>
      </trkpt>
      <trkpt lat="44.43486" lon="3.59136">
        <ele>1265</ele>
        <time>2022-05-27T08:22:47Z</time>
      </trkpt>
      <trkpt lat="44.43485" lon="3.59138">
        <ele>1265</ele>
        <time>2022-05-27T08:22:48Z</time>
      </trkpt>
      <trkpt lat="44.43485" lon="3.59139">
        <ele>1265</ele>
        <time>2022-05-27T08:22:49Z</time>
      </trkpt>
      <trkpt lat="44.43484" lon="3.59141">
        <ele>1265</ele>
        <time>2022-05-27T08:22:50Z</time>
      </trkpt>
      <trkpt lat="44.43484" lon="3.59142">
        <ele>1266</ele>
        <time>2022-05-27T08:22:51Z</time>
      </trkpt>
      <trkpt lat="44.43483" lon="3.59144">
        <ele>1266</ele>
        <time>2022-05-27T08:22:52Z</time>
      </trkpt>
      <trkpt lat="44.43483" lon="3.59145">
        <ele>1267</ele>
        <time>2022-05-27T08:22:53Z</time>
      </trkpt>
      <trkpt lat="44.43482" lon="3.59147">
        <ele>1266</ele>
        <time>2022-05-27T08:22:54Z</time>
      </trkpt>
      <trkpt lat="44.43481" lon="3.59149">
        <ele>1266</ele>
        <time>2022-05-27T08:22:55Z</time>
      </trkpt>
      <trkpt lat="44.43481" lon="3.59151">
        <ele>1267</ele>
        <time>2022-05-27T08:22:56Z</time>
      </trkpt>
      <trkpt lat="44.4348" lon="3.59153">
        <ele>1267</ele>
        <time>2022-05-27T08:22:57Z</time>
      </trkpt>
      <trkpt lat="44.43479" lon="3.59154">
        <ele>1267</ele>
        <time>2022-05-27T08:22:58Z</time>
      </trkpt>
      <trkpt lat="44.43478" lon="3.59156">
        <ele>1268</ele>
        <time>2022-05-27T08:22:59Z</time>
      </trkpt>
      <trkpt lat="44.43478" lon="3.59158">
        <ele>1268</ele>
        <time>2022-05-27T08:23:00Z</time>
      </trkpt>
      <trkpt lat="44.43478" lon="3.5916">
        <ele>1268</ele>
        <time>2022-05-27T08:23:01Z</time>
      </trkpt>
      <trkpt lat="44.43477" lon="3.59162">
        <ele>1268</ele>
        <time>2022-05-27T08:23:02Z</time>
      </trkpt>
      <trkpt lat="44.43477" lon="3.59164">
        <ele>1268</ele>
        <time>2022-05-27T08:23:03Z</time>
      </trkpt>
      <trkpt lat="44.43476" lon="3.59166">
        <ele>1268</ele>
        <time>2022-05-27T08:23:04Z</time>
      </trkpt>
      <trkpt lat="44.43476" lon="3.59168">
        <ele>1268</ele>
        <time>2022-05-27T08:23:05Z</time>
      </trkpt>
      <trkpt lat="44.43475" lon="3.5917">
        <ele>1268</ele>
        <time>2022-05-27T08:23:06Z</time>
      </trkpt>
      <trkpt lat="44.43475" lon="3.59173">
        <ele>1267</ele>
        <time>2022-05-27T08:23:07Z</time>
      </trkpt>
      <trkpt lat="44.43474" lon="3.59174">
        <ele>1267</ele>
        <time>2022-05-27T08:23:08Z</time>
      </trkpt>
      <trkpt lat="44.43473" lon="3.59176">
        <ele>1266</ele>
        <time>2022-05-27T08:23:09Z</time>
      </trkpt>
      <trkpt lat="44.43473" lon="3.59178">
        <ele>1267</ele>
        <time>2022-05-27T08:23:10Z</time>
      </trkpt>
      <trkpt lat="44.43472" lon="3.59179">
        <ele>1267</ele>
        <time>2022-05-27T08:23:11Z</time>
      </trkpt>
      <trkpt lat="44.43472" lon="3.5918">
        <ele>1267</ele>
        <time>2022-05-27T08:23:12Z</time>
      </trkpt>
      <trkpt lat="44.43472" lon="3.59182">
        <ele>1267</ele>
        <time>2022-05-27T08:23:13Z</time>
      </trkpt>
      <trkpt lat="44.43471" lon="3.59184">
        <ele>1267</ele>
        <time>2022-05-27T08:23:14Z</time>
      </trkpt>
      <trkpt lat="44.4347" lon="3.59186">
        <ele>1267</ele>
        <time>2022-05-27T08:23:15Z</time>
      </trkpt>
      <trkpt lat="44.4347" lon="3.59188">
        <ele>1267</ele>
        <time>2022-05-27T08:23:16Z</time>
      </trkpt>
      <trkpt lat="44.43469" lon="3.5919">
        <ele>1267</ele>
        <time>2022-05-27T08:23:17Z</time>
      </trkpt>
      <trkpt lat="44.43469" lon="3.59192">
        <ele>1267</ele>
        <time>2022-05-27T08:23:18Z</time>
      </trkpt>
      <trkpt lat="44.43469" lon="3.59193">
        <ele>1267</ele>
        <time>2022-05-27T08:23:19Z</time>
      </trkpt>
      <trkpt lat="44.43468" lon="3.59194">
        <ele>1268</ele>
        <time>2022-05-27T08:23:20Z</time>
      </trkpt>
      <trkpt lat="44.43467" lon="3.59195">
        <ele>1267</ele>
        <time>2022-05-27T08:23:21Z</time>
      </trkpt>
      <trkpt lat="44.43467" lon="3.59197">
        <ele>1267</ele>
        <time>2022-05-27T08:23:22Z</time>
      </trkpt>
      <trkpt lat="44.43466" lon="3.59198">
        <ele>1268</ele>
        <time>2022-05-27T08:23:23Z</time>
      </trkpt>
      <trkpt lat="44.43465" lon="3.59199">
        <ele>1268</ele>
        <time>2022-05-27T08:23:24Z</time>
      </trkpt>
      <trkpt lat="44.43464" lon="3.59201">
        <ele>1268</ele>
        <time>2022-05-27T08:23:25Z</time>
      </trkpt>
      <trkpt lat="44.43463" lon="3.59202">
        <ele>1268</ele>
        <time>2022-05-27T08:23:26Z</time>
      </trkpt>
      <trkpt lat="44.43462" lon="3.59203">
        <ele>1268</ele>
        <time>2022-05-27T08:23:27Z</time>
      </trkpt>
      <trkpt lat="44.43462" lon="3.59205">
        <ele>1268</ele>
        <time>2022-05-27T08:23:28Z</time>
      </trkpt>
      <trkpt lat="44.43462" lon="3.59207">
        <ele>1269</ele>
        <time>2022-05-27T08:23:29Z</time>
      </trkpt>
      <trkpt lat="44.43461" lon="3.59209">
        <ele>1269</ele>
        <time>2022-05-27T08:23:30Z</time>
      </trkpt>
      <trkpt lat="44.43461" lon="3.59211">
        <ele>1269</ele>
        <time>2022-05-27T08:23:31Z</time>
      </trkpt>
      <trkpt lat="44.4346" lon="3.59213">
        <ele>1269</ele>
        <time>2022-05-27T08:23:32Z</time>
      </trkpt>
      <trkpt lat="44.43459" lon="3.59214">
        <ele>1269</ele>
        <time>2022-05-27T08:23:33Z</time>
      </trkpt>
      <trkpt lat="44.43459" lon="3.59216">
        <ele>1269</ele>
        <time>2022-05-27T08:23:34Z</time>
      </trkpt>
      <trkpt lat="44.43459" lon="3.59217">
        <ele>1270</ele>
        <time>2022-05-27T08:23:35Z</time>
      </trkpt>
      <trkpt lat="44.43458" lon="3.59218">
        <ele>1270</ele>
        <time>2022-05-27T08:23:36Z</time>
      </trkpt>
      <trkpt lat="44.43457" lon="3.59219">
        <ele>1270</ele>
        <time>2022-05-27T08:23:37Z</time>
      </trkpt>
      <trkpt lat="44.43456" lon="3.59221">
        <ele>1270</ele>
        <time>2022-05-27T08:23:38Z</time>
      </trkpt>
      <trkpt lat="44.43455" lon="3.59222">
        <ele>1271</ele>
        <time>2022-05-27T08:23:39Z</time>
      </trkpt>
      <trkpt lat="44.43454" lon="3.59223">
        <ele>1271</ele>
        <time>2022-05-27T08:23:40Z</time>
      </trkpt>
      <trkpt lat="44.43453" lon="3.59225">
        <ele>1271</ele>
        <time>2022-05-27T08:23:41Z</time>
      </trkpt>
      <trkpt lat="44.43452" lon="3.59226">
        <ele>1271</ele>
        <time>2022-05-27T08:23:42Z</time>
      </trkpt>
      <trkpt lat="44.43451" lon="3.59228">
        <ele>1271</ele>
        <time>2022-05-27T08:23:43Z</time>
      </trkpt>
      <trkpt lat="44.43451" lon="3.59229">
        <ele>1270</ele>
        <time>2022-05-27T08:23:44Z</time>
      </trkpt>
      <trkpt lat="44.4345" lon="3.59231">
        <ele>1270</ele>
        <time>2022-05-27T08:23:45Z</time>
      </trkpt>
      <trkpt lat="44.4345" lon="3.59232">
        <ele>1269</ele>
        <time>2022-05-27T08:23:46Z</time>
      </trkpt>
      <trkpt lat="44.43449" lon="3.59234">
        <ele>1269</ele>
        <time>2022-05-27T08:23:47Z</time>
      </trkpt>
      <trkpt lat="44.43449" lon="3.59236">
        <ele>1269</ele>
        <time>2022-05-27T08:23:48Z</time>
      </trkpt>
      <trkpt lat="44.43448" lon="3.59237">
        <ele>1269</ele>
        <time>2022-05-27T08:23:49Z</time>
      </trkpt>
      <trkpt lat="44.43447" lon="3.59239">
        <ele>1269</ele>
        <time>2022-05-27T08:23:50Z</time>
      </trkpt>
      <trkpt lat="44.43446" lon="3.5924">
        <ele>1269</ele>
        <time>2022-05-27T08:23:51Z</time>
      </trkpt>
      <trkpt lat="44.43445" lon="3.59241">
        <ele>1269</ele>
        <time>2022-05-27T08:23:52Z</time>
      </trkpt>
      <trkpt lat="44.43444" lon="3.59243">
        <ele>1269</ele>
        <time>2022-05-27T08:23:53Z</time>
      </trkpt>
      <trkpt lat="44.43444" lon="3.59245">
        <ele>1269</ele>
        <time>2022-05-27T08:23:54Z</time>
      </trkpt>
      <trkpt lat="44.43443" lon="3.59247">
        <ele>1269</ele>
        <time>2022-05-27T08:23:55Z</time>
      </trkpt>
      <trkpt lat="44.43443" lon="3.59248">
        <ele>1269</ele>
        <time>2022-05-27T08:23:56Z</time>
      </trkpt>
      <trkpt lat="44.43442" lon="3.5925">
        <ele>1268</ele>
        <time>2022-05-27T08:23:57Z</time>
      </trkpt>
      <trkpt lat="44.43441" lon="3.59251">
        <ele>1268</ele>
        <time>2022-05-27T08:23:58Z</time>
      </trkpt>
      <trkpt lat="44.4344" lon="3.59253">
        <ele>1268</ele>
        <time>2022-05-27T08:23:59Z</time>
      </trkpt>
      <trkpt lat="44.43439" lon="3.59254">
        <ele>1268</ele>
        <time>2022-05-27T08:24:00Z</time>
      </trkpt>
      <trkpt lat="44.43438" lon="3.59255">
        <ele>1268</ele>
        <time>2022-05-27T08:24:01Z</time>
      </trkpt>
      <trkpt lat="44.43437" lon="3.59256">
        <ele>1268</ele>
        <time>2022-05-27T08:24:02Z</time>
      </trkpt>
      <trkpt lat="44.43436" lon="3.59257">
        <ele>1268</ele>
        <time>2022-05-27T08:24:03Z</time>
      </trkpt>
      <trkpt lat="44.43435" lon="3.59258">
        <ele>1268</ele>
        <time>2022-05-27T08:24:04Z</time>
      </trkpt>
      <trkpt lat="44.43434" lon="3.59259">
        <ele>1268</ele>
        <time>2022-05-27T08:24:05Z</time>
      </trkpt>
      <trkpt lat="44.43432" lon="3.5926">
        <ele>1268</ele>
        <time>2022-05-27T08:24:06Z</time>
      </trkpt>
      <trkpt lat="44.43432" lon="3.59262">
        <ele>1268</ele>
        <time>2022-05-27T08:24:07Z</time>
      </trkpt>
      <trkpt lat="44.43431" lon="3.59264">
        <ele>1268</ele>
        <time>2022-05-27T08:24:08Z</time>
      </trkpt>
      <trkpt lat="44.43431" lon="3.59266">
        <ele>1267</ele>
        <time>2022-05-27T08:24:09Z</time>
      </trkpt>
      <trkpt lat="44.4343" lon="3.59268">
        <ele>1267</ele>
        <time>2022-05-27T08:24:10Z</time>
      </trkpt>
      <trkpt lat="44.43429" lon="3.59269">
        <ele>1267</ele>
        <time>2022-05-27T08:24:11Z</time>
      </trkpt>
      <trkpt lat="44.43428" lon="3.59271">
        <ele>1266</ele>
        <time>2022-05-27T08:24:12Z</time>
      </trkpt>
      <trkpt lat="44.43427" lon="3.59273">
        <ele>1266</ele>
        <time>2022-05-27T08:24:13Z</time>
      </trkpt>
      <trkpt lat="44.43426" lon="3.59275">
        <ele>1266</ele>
        <time>2022-05-27T08:24:14Z</time>
      </trkpt>
      <trkpt lat="44.43425" lon="3.59276">
        <ele>1267</ele>
        <time>2022-05-27T08:24:15Z</time>
      </trkpt>
      <trkpt lat="44.43424" lon="3.59278">
        <ele>1267</ele>
        <time>2022-05-27T08:24:16Z</time>
      </trkpt>
      <trkpt lat="44.43423" lon="3.59279">
        <ele>1267</ele>
        <time>2022-05-27T08:24:17Z</time>
      </trkpt>
      <trkpt lat="44.43422" lon="3.59281">
        <ele>1267</ele>
        <time>2022-05-27T08:24:18Z</time>
      </trkpt>
      <trkpt lat="44.43421" lon="3.59283">
        <ele>1267</ele>
        <time>2022-05-27T08:24:19Z</time>
      </trkpt>
      <trkpt lat="44.4342" lon="3.59284">
        <ele>1267</ele>
        <time>2022-05-27T08:24:20Z</time>
      </trkpt>
      <trkpt lat="44.4342" lon="3.59286">
        <ele>1267</ele>
        <time>2022-05-27T08:24:21Z</time>
      </trkpt>
      <trkpt lat="44.43419" lon="3.59288">
        <ele>1268</ele>
        <time>2022-05-27T08:24:22Z</time>
      </trkpt>
      <trkpt lat="44.43418" lon="3.5929">
        <ele>1268</ele>
        <time>2022-05-27T08:24:23Z</time>
      </trkpt>
      <trkpt lat="44.43417" lon="3.59292">
        <ele>1268</ele>
        <time>2022-05-27T08:24:24Z</time>
      </trkpt>
      <trkpt lat="44.43416" lon="3.59293">
        <ele>1268</ele>
        <time>2022-05-27T08:24:25Z</time>
      </trkpt>
      <trkpt lat="44.43415" lon="3.59294">
        <ele>1268</ele>
        <time>2022-05-27T08:24:26Z</time>
      </trkpt>
      <trkpt lat="44.43414" lon="3.59295">
        <ele>1268</ele>
        <time>2022-05-27T08:24:27Z</time>
      </trkpt>
      <trkpt lat="44.43413" lon="3.59296">
        <ele>1268</ele>
        <time>2022-05-27T08:24:28Z</time>
      </trkpt>
      <trkpt lat="44.43412" lon="3.59297">
        <ele>1267</ele>
        <time>2022-05-27T08:24:29Z</time>
      </trkpt>
      <trkpt lat="44.43412" lon="3.59299">
        <ele>1268</ele>
        <time>2022-05-27T08:24:30Z</time>
      </trkpt>
      <trkpt lat="44.43411" lon="3.593">
        <ele>1268</ele>
        <time>2022-05-27T08:24:31Z</time>
      </trkpt>
      <trkpt lat="44.43411" lon="3.59302">
        <ele>1267</ele>
        <time>2022-05-27T08:24:32Z</time>
      </trkpt>
      <trkpt lat="44.4341" lon="3.59303">
        <ele>1267</ele>
        <time>2022-05-27T08:24:33Z</time>
      </trkpt>
      <trkpt lat="44.43409" lon="3.59305">
        <ele>1267</ele>
        <time>2022-05-27T08:24:34Z</time>
      </trkpt>
      <trkpt lat="44.43407" lon="3.59306">
        <ele>1267</ele>
        <time>2022-05-27T08:24:35Z</time>
      </trkpt>
      <trkpt lat="44.43406" lon="3.59308">
        <ele>1267</ele>
        <time>2022-05-27T08:24:36Z</time>
      </trkpt>
      <trkpt lat="44.43406" lon="3.59309">
        <ele>1268</ele>
        <time>2022-05-27T08:24:37Z</time>
      </trkpt>
      <trkpt lat="44.43405" lon="3.59311">
        <ele>1267</ele>
        <time>2022-05-27T08:24:38Z</time>
      </trkpt>
      <trkpt lat="44.43404" lon="3.59313">
        <ele>1267</ele>
        <time>2022-05-27T08:24:39Z</time>
      </trkpt>
      <trkpt lat="44.43403" lon="3.59314">
        <ele>1267</ele>
        <time>2022-05-27T08:24:40Z</time>
      </trkpt>
      <trkpt lat="44.43402" lon="3.59316">
        <ele>1268</ele>
        <time>2022-05-27T08:24:41Z</time>
      </trkpt>
      <trkpt lat="44.43402" lon="3.59317">
        <ele>1268</ele>
        <time>2022-05-27T08:24:42Z</time>
      </trkpt>
      <trkpt lat="44.43401" lon="3.59319">
        <ele>1267</ele>
        <time>2022-05-27T08:24:43Z</time>
      </trkpt>
      <trkpt lat="44.43401" lon="3.59321">
        <ele>1267</ele>
        <time>2022-05-27T08:24:44Z</time>
      </trkpt>
      <trkpt lat="44.434" lon="3.59322">
        <ele>1266</ele>
        <time>2022-05-27T08:24:45Z</time>
      </trkpt>
      <trkpt lat="44.43399" lon="3.59324">
        <ele>1266</ele>
        <time>2022-05-27T08:24:46Z</time>
      </trkpt>
      <trkpt lat="44.43398" lon="3.59326">
        <ele>1266</ele>
        <time>2022-05-27T08:24:47Z</time>
      </trkpt>
      <trkpt lat="44.43397" lon="3.59327">
        <ele>1266</ele>
        <time>2022-05-27T08:24:48Z</time>
      </trkpt>
      <trkpt lat="44.43396" lon="3.59329">
        <ele>1266</ele>
        <time>2022-05-27T08:24:49Z</time>
      </trkpt>
      <trkpt lat="44.43395" lon="3.5933">
        <ele>1266</ele>
        <time>2022-05-27T08:24:50Z</time>
      </trkpt>
      <trkpt lat="44.43395" lon="3.59331">
        <ele>1266</ele>
        <time>2022-05-27T08:24:51Z</time>
      </trkpt>
      <trkpt lat="44.43394" lon="3.59332">
        <ele>1266</ele>
        <time>2022-05-27T08:24:52Z</time>
      </trkpt>
      <trkpt lat="44.43393" lon="3.59335">
        <ele>1266</ele>
        <time>2022-05-27T08:24:53Z</time>
      </trkpt>
      <trkpt lat="44.43393" lon="3.59337">
        <ele>1266</ele>
        <time>2022-05-27T08:24:54Z</time>
      </trkpt>
      <trkpt lat="44.43393" lon="3.59339">
        <ele>1266</ele>
        <time>2022-05-27T08:24:55Z</time>
      </trkpt>
      <trkpt lat="44.43392" lon="3.5934">
        <ele>1266</ele>
        <time>2022-05-27T08:24:56Z</time>
      </trkpt>
      <trkpt lat="44.43391" lon="3.59342">
        <ele>1266</ele>
        <time>2022-05-27T08:24:57Z</time>
      </trkpt>
      <trkpt lat="44.43391" lon="3.59343">
        <ele>1267</ele>
        <time>2022-05-27T08:24:58Z</time>
      </trkpt>
      <trkpt lat="44.4339" lon="3.59344">
        <ele>1267</ele>
        <time>2022-05-27T08:24:59Z</time>
      </trkpt>
      <trkpt lat="44.4339" lon="3.59345">
        <ele>1267</ele>
        <time>2022-05-27T08:25:00Z</time>
      </trkpt>
      <trkpt lat="44.43389" lon="3.59346">
        <ele>1267</ele>
        <time>2022-05-27T08:25:01Z</time>
      </trkpt>
      <trkpt lat="44.43388" lon="3.59347">
        <ele>1267</ele>
        <time>2022-05-27T08:25:02Z</time>
      </trkpt>
      <trkpt lat="44.43387" lon="3.59348">
        <ele>1268</ele>
        <time>2022-05-27T08:25:03Z</time>
      </trkpt>
      <trkpt lat="44.43386" lon="3.59349">
        <ele>1268</ele>
        <time>2022-05-27T08:25:04Z</time>
      </trkpt>
      <trkpt lat="44.43385" lon="3.59351">
        <ele>1268</ele>
        <time>2022-05-27T08:25:05Z</time>
      </trkpt>
      <trkpt lat="44.43385" lon="3.59352">
        <ele>1268</ele>
        <time>2022-05-27T08:25:06Z</time>
      </trkpt>
      <trkpt lat="44.43384" lon="3.59353">
        <ele>1268</ele>
        <time>2022-05-27T08:25:07Z</time>
      </trkpt>
      <trkpt lat="44.43383" lon="3.59355">
        <ele>1268</ele>
        <time>2022-05-27T08:25:08Z</time>
      </trkpt>
      <trkpt lat="44.43383" lon="3.59357">
        <ele>1269</ele>
        <time>2022-05-27T08:25:09Z</time>
      </trkpt>
      <trkpt lat="44.43382" lon="3.59358">
        <ele>1269</ele>
        <time>2022-05-27T08:25:10Z</time>
      </trkpt>
      <trkpt lat="44.43381" lon="3.59359">
        <ele>1270</ele>
        <time>2022-05-27T08:25:11Z</time>
      </trkpt>
      <trkpt lat="44.4338" lon="3.59361">
        <ele>1270</ele>
        <time>2022-05-27T08:25:12Z</time>
      </trkpt>
      <trkpt lat="44.4338" lon="3.59362">
        <ele>1271</ele>
        <time>2022-05-27T08:25:13Z</time>
      </trkpt>
      <trkpt lat="44.43379" lon="3.59363">
        <ele>1271</ele>
        <time>2022-05-27T08:25:14Z</time>
      </trkpt>
      <trkpt lat="44.43378" lon="3.59364">
        <ele>1272</ele>
        <time>2022-05-27T08:25:15Z</time>
      </trkpt>
      <trkpt lat="44.43378" lon="3.59365">
        <ele>1272</ele>
        <time>2022-05-27T08:25:16Z</time>
      </trkpt>
      <trkpt lat="44.43377" lon="3.59366">
        <ele>1272</ele>
        <time>2022-05-27T08:25:17Z</time>
      </trkpt>
      <trkpt lat="44.43377" lon="3.59367">
        <ele>1273</ele>
        <time>2022-05-27T08:25:18Z</time>
      </trkpt>
      <trkpt lat="44.43376" lon="3.59368">
        <ele>1273</ele>
        <time>2022-05-27T08:25:19Z</time>
      </trkpt>
      <trkpt lat="44.43376" lon="3.59369">
        <ele>1274</ele>
        <time>2022-05-27T08:25:20Z</time>
      </trkpt>
      <trkpt lat="44.43375" lon="3.59369">
        <ele>1274</ele>
        <time>2022-05-27T08:25:21Z</time>
      </trkpt>
      <trkpt lat="44.43375" lon="3.5937">
        <ele>1273</ele>
        <time>2022-05-27T08:25:22Z</time>
      </trkpt>
      <trkpt lat="44.43375" lon="3.59371">
        <ele>1273</ele>
        <time>2022-05-27T08:25:23Z</time>
      </trkpt>
      <trkpt lat="44.43375" lon="3.59372">
        <ele>1273</ele>
        <time>2022-05-27T08:25:24Z</time>
      </trkpt>
      <trkpt lat="44.43374" lon="3.59372">
        <ele>1273</ele>
        <time>2022-05-27T08:25:25Z</time>
      </trkpt>
      <trkpt lat="44.43374" lon="3.59373">
        <ele>1273</ele>
        <time>2022-05-27T08:25:26Z</time>
      </trkpt>
      <trkpt lat="44.43374" lon="3.59374">
        <ele>1273</ele>
        <time>2022-05-27T08:25:27Z</time>
      </trkpt>
      <trkpt lat="44.43374" lon="3.59374">
        <ele>1273</ele>
        <time>2022-05-27T08:25:28Z</time>
      </trkpt>
      <trkpt lat="44.43374" lon="3.59374">
        <ele>1273</ele>
        <time>2022-05-27T08:25:29Z</time>
      </trkpt>
      <trkpt lat="44.43374" lon="3.59374">
        <ele>1273</ele>
        <time>2022-05-27T08:25:30Z</time>
      </trkpt>
      <trkpt lat="44.43374" lon="3.59374">
        <ele>1273</ele>
        <time>2022-05-27T08:25:31Z</time>
      </trkpt>
      <trkpt lat="44.43374" lon="3.59374">
        <ele>1273</ele>
        <time>2022-05-27T08:25:32Z</time>
      </trkpt>
      <trkpt lat="44.43374" lon="3.59374">
        <ele>1273</ele>
        <time>2022-05-27T08:25:32Z</time>
      </trkpt>
      <trkpt lat="44.43374" lon="3.59374">
        <ele>1273</ele>
        <time>2022-05-27T08:25:32Z</time>
      </trkpt>
      <trkpt lat="44.43372" lon="3.59379">
        <ele>1271</ele>
        <time>2022-05-27T08:25:45Z</time>
      </trkpt>
      <trkpt lat="44.43372" lon="3.59379">
        <ele>1270</ele>
        <time>2022-05-27T08:25:46Z</time>
      </trkpt>
      <trkpt lat="44.43372" lon="3.59379">
        <ele>1270</ele>
        <time>2022-05-27T08:25:47Z</time>
      </trkpt>
      <trkpt lat="44.43372" lon="3.5938">
        <ele>1270</ele>
        <time>2022-05-27T08:25:48Z</time>
      </trkpt>
      <trkpt lat="44.43372" lon="3.5938">
        <ele>1270</ele>
        <time>2022-05-27T08:25:49Z</time>
      </trkpt>
      <trkpt lat="44.43372" lon="3.59381">
        <ele>1270</ele>
        <time>2022-05-27T08:25:50Z</time>
      </trkpt>
      <trkpt lat="44.43372" lon="3.59381">
        <ele>1269</ele>
        <time>2022-05-27T08:25:51Z</time>
      </trkpt>
      <trkpt lat="44.43372" lon="3.59382">
        <ele>1269</ele>
        <time>2022-05-27T08:25:52Z</time>
      </trkpt>
      <trkpt lat="44.43372" lon="3.59383">
        <ele>1269</ele>
        <time>2022-05-27T08:25:53Z</time>
      </trkpt>
      <trkpt lat="44.43372" lon="3.59384">
        <ele>1269</ele>
        <time>2022-05-27T08:25:54Z</time>
      </trkpt>
      <trkpt lat="44.43372" lon="3.59384">
        <ele>1269</ele>
        <time>2022-05-27T08:25:55Z</time>
      </trkpt>
      <trkpt lat="44.43372" lon="3.59384">
        <ele>1269</ele>
        <time>2022-05-27T08:25:56Z</time>
      </trkpt>
      <trkpt lat="44.43372" lon="3.59384">
        <ele>1269</ele>
        <time>2022-05-27T08:25:56Z</time>
      </trkpt>
      <trkpt lat="44.43372" lon="3.59384">
        <ele>1269</ele>
        <time>2022-05-27T08:25:56Z</time>
      </trkpt>
      <trkpt lat="44.43358" lon="3.59425">
        <ele>1265</ele>
        <time>2022-05-27T08:31:19Z</time>
      </trkpt>
      <trkpt lat="44.43358" lon="3.59425">
        <ele>1265</ele>
        <time>2022-05-27T08:31:20Z</time>
      </trkpt>
      <trkpt lat="44.43358" lon="3.59425">
        <ele>1265</ele>
        <time>2022-05-27T08:31:21Z</time>
      </trkpt>
      <trkpt lat="44.43358" lon="3.59425">
        <ele>1265</ele>
        <time>2022-05-27T08:31:21Z</time>
      </trkpt>
      <trkpt lat="44.43358" lon="3.59425">
        <ele>1265</ele>
        <time>2022-05-27T08:31:21Z</time>
      </trkpt>
      <trkpt lat="44.43356" lon="3.59429">
        <ele>1267</ele>
        <time>2022-05-27T08:32:38Z</time>
      </trkpt>
      <trkpt lat="44.43356" lon="3.59431">
        <ele>1268</ele>
        <time>2022-05-27T08:32:39Z</time>
      </trkpt>
      <trkpt lat="44.43356" lon="3.59432">
        <ele>1268</ele>
        <time>2022-05-27T08:32:40Z</time>
      </trkpt>
      <trkpt lat="44.43356" lon="3.59432">
        <ele>1268</ele>
        <time>2022-05-27T08:32:41Z</time>
      </trkpt>
      <trkpt lat="44.43356" lon="3.59432">
        <ele>1268</ele>
        <time>2022-05-27T08:32:42Z</time>
      </trkpt>
      <trkpt lat="44.43356" lon="3.59432">
        <ele>1269</ele>
        <time>2022-05-27T08:32:43Z</time>
      </trkpt>
      <trkpt lat="44.43356" lon="3.59432">
        <ele>1269</ele>
        <time>2022-05-27T08:32:43Z</time>
      </trkpt>
      <trkpt lat="44.43356" lon="3.59432">
        <ele>1269</ele>
        <time>2022-05-27T08:32:43Z</time>
      </trkpt>
      <trkpt lat="44.43354" lon="3.59437">
        <ele>1268</ele>
        <time>2022-05-27T08:32:54Z</time>
      </trkpt>
      <trkpt lat="44.43354" lon="3.59438">
        <ele>1269</ele>
        <time>2022-05-27T08:32:55Z</time>
      </trkpt>
      <trkpt lat="44.43354" lon="3.5944">
        <ele>1269</ele>
        <time>2022-05-27T08:32:56Z</time>
      </trkpt>
      <trkpt lat="44.43353" lon="3.59441">
        <ele>1269</ele>
        <time>2022-05-27T08:32:57Z</time>
      </trkpt>
      <trkpt lat="44.43353" lon="3.59442">
        <ele>1270</ele>
        <time>2022-05-27T08:32:58Z</time>
      </trkpt>
      <trkpt lat="44.43353" lon="3.59443">
        <ele>1270</ele>
        <time>2022-05-27T08:32:59Z</time>
      </trkpt>
      <trkpt lat="44.43353" lon="3.59445">
        <ele>1270</ele>
        <time>2022-05-27T08:33:00Z</time>
      </trkpt>
      <trkpt lat="44.43353" lon="3.59446">
        <ele>1270</ele>
        <time>2022-05-27T08:33:01Z</time>
      </trkpt>
      <trkpt lat="44.43353" lon="3.59447">
        <ele>1270</ele>
        <time>2022-05-27T08:33:02Z</time>
      </trkpt>
      <trkpt lat="44.43352" lon="3.59448">
        <ele>1270</ele>
        <time>2022-05-27T08:33:03Z</time>
      </trkpt>
      <trkpt lat="44.43352" lon="3.59449">
        <ele>1271</ele>
        <time>2022-05-27T08:33:04Z</time>
      </trkpt>
      <trkpt lat="44.43351" lon="3.5945">
        <ele>1271</ele>
        <time>2022-05-27T08:33:05Z</time>
      </trkpt>
      <trkpt lat="44.43351" lon="3.59451">
        <ele>1271</ele>
        <time>2022-05-27T08:33:06Z</time>
      </trkpt>
      <trkpt lat="44.43351" lon="3.59451">
        <ele>1272</ele>
        <time>2022-05-27T08:33:07Z</time>
      </trkpt>
      <trkpt lat="44.4335" lon="3.59452">
        <ele>1272</ele>
        <time>2022-05-27T08:33:08Z</time>
      </trkpt>
      <trkpt lat="44.4335" lon="3.59453">
        <ele>1272</ele>
        <time>2022-05-27T08:33:09Z</time>
      </trkpt>
      <trkpt lat="44.4335" lon="3.59453">
        <ele>1273</ele>
        <time>2022-05-27T08:33:10Z</time>
      </trkpt>
      <trkpt lat="44.4335" lon="3.59454">
        <ele>1273</ele>
        <time>2022-05-27T08:33:11Z</time>
      </trkpt>
      <trkpt lat="44.4335" lon="3.59455">
        <ele>1274</ele>
        <time>2022-05-27T08:33:12Z</time>
      </trkpt>
      <trkpt lat="44.43349" lon="3.59455">
        <ele>1274</ele>
        <time>2022-05-27T08:33:13Z</time>
      </trkpt>
      <trkpt lat="44.43349" lon="3.59456">
        <ele>1274</ele>
        <time>2022-05-27T08:33:14Z</time>
      </trkpt>
      <trkpt lat="44.43349" lon="3.59458">
        <ele>1275</ele>
        <time>2022-05-27T08:33:15Z</time>
      </trkpt>
      <trkpt lat="44.43349" lon="3.59459">
        <ele>1275</ele>
        <time>2022-05-27T08:33:16Z</time>
      </trkpt>
      <trkpt lat="44.43349" lon="3.5946">
        <ele>1275</ele>
        <time>2022-05-27T08:33:17Z</time>
      </trkpt>
      <trkpt lat="44.43348" lon="3.59462">
        <ele>1275</ele>
        <time>2022-05-27T08:33:18Z</time>
      </trkpt>
      <trkpt lat="44.43348" lon="3.59464">
        <ele>1275</ele>
        <time>2022-05-27T08:33:19Z</time>
      </trkpt>
      <trkpt lat="44.43348" lon="3.59465">
        <ele>1275</ele>
        <time>2022-05-27T08:33:20Z</time>
      </trkpt>
      <trkpt lat="44.43348" lon="3.59466">
        <ele>1274</ele>
        <time>2022-05-27T08:33:21Z</time>
      </trkpt>
      <trkpt lat="44.43347" lon="3.59468">
        <ele>1274</ele>
        <time>2022-05-27T08:33:22Z</time>
      </trkpt>
      <trkpt lat="44.43347" lon="3.59469">
        <ele>1274</ele>
        <time>2022-05-27T08:33:23Z</time>
      </trkpt>
      <trkpt lat="44.43347" lon="3.59471">
        <ele>1274</ele>
        <time>2022-05-27T08:33:24Z</time>
      </trkpt>
      <trkpt lat="44.43346" lon="3.59473">
        <ele>1274</ele>
        <time>2022-05-27T08:33:25Z</time>
      </trkpt>
      <trkpt lat="44.43346" lon="3.59474">
        <ele>1274</ele>
        <time>2022-05-27T08:33:26Z</time>
      </trkpt>
      <trkpt lat="44.43346" lon="3.59476">
        <ele>1274</ele>
        <time>2022-05-27T08:33:27Z</time>
      </trkpt>
      <trkpt lat="44.43346" lon="3.59477">
        <ele>1274</ele>
        <time>2022-05-27T08:33:28Z</time>
      </trkpt>
      <trkpt lat="44.43346" lon="3.59479">
        <ele>1274</ele>
        <time>2022-05-27T08:33:29Z</time>
      </trkpt>
      <trkpt lat="44.43346" lon="3.5948">
        <ele>1274</ele>
        <time>2022-05-27T08:33:30Z</time>
      </trkpt>
      <trkpt lat="44.43346" lon="3.59482">
        <ele>1274</ele>
        <time>2022-05-27T08:33:31Z</time>
      </trkpt>
      <trkpt lat="44.43346" lon="3.59483">
        <ele>1274</ele>
        <time>2022-05-27T08:33:32Z</time>
      </trkpt>
      <trkpt lat="44.43346" lon="3.59484">
        <ele>1274</ele>
        <time>2022-05-27T08:33:33Z</time>
      </trkpt>
      <trkpt lat="44.43346" lon="3.59486">
        <ele>1274</ele>
        <time>2022-05-27T08:33:34Z</time>
      </trkpt>
      <trkpt lat="44.43346" lon="3.59487">
        <ele>1273</ele>
        <time>2022-05-27T08:33:35Z</time>
      </trkpt>
      <trkpt lat="44.43346" lon="3.59489">
        <ele>1273</ele>
        <time>2022-05-27T08:33:36Z</time>
      </trkpt>
      <trkpt lat="44.43347" lon="3.59491">
        <ele>1272</ele>
        <time>2022-05-27T08:33:37Z</time>
      </trkpt>
      <trkpt lat="44.43347" lon="3.59492">
        <ele>1272</ele>
        <time>2022-05-27T08:33:38Z</time>
      </trkpt>
      <trkpt lat="44.43347" lon="3.59494">
        <ele>1272</ele>
        <time>2022-05-27T08:33:39Z</time>
      </trkpt>
      <trkpt lat="44.43348" lon="3.59494">
        <ele>1273</ele>
        <time>2022-05-27T08:33:40Z</time>
      </trkpt>
      <trkpt lat="44.43348" lon="3.59496">
        <ele>1273</ele>
        <time>2022-05-27T08:33:41Z</time>
      </trkpt>
      <trkpt lat="44.43347" lon="3.59497">
        <ele>1273</ele>
        <time>2022-05-27T08:33:42Z</time>
      </trkpt>
      <trkpt lat="44.43347" lon="3.59498">
        <ele>1272</ele>
        <time>2022-05-27T08:33:43Z</time>
      </trkpt>
      <trkpt lat="44.43346" lon="3.59499">
        <ele>1272</ele>
        <time>2022-05-27T08:33:44Z</time>
      </trkpt>
      <trkpt lat="44.43346" lon="3.59501">
        <ele>1272</ele>
        <time>2022-05-27T08:33:45Z</time>
      </trkpt>
      <trkpt lat="44.43346" lon="3.59501">
        <ele>1271</ele>
        <time>2022-05-27T08:33:46Z</time>
      </trkpt>
      <trkpt lat="44.43346" lon="3.59502">
        <ele>1270</ele>
        <time>2022-05-27T08:33:47Z</time>
      </trkpt>
      <trkpt lat="44.43346" lon="3.59504">
        <ele>1271</ele>
        <time>2022-05-27T08:33:48Z</time>
      </trkpt>
      <trkpt lat="44.43346" lon="3.59504">
        <ele>1269</ele>
        <time>2022-05-27T08:33:49Z</time>
      </trkpt>
      <trkpt lat="44.43345" lon="3.59504">
        <ele>1268</ele>
        <time>2022-05-27T08:33:50Z</time>
      </trkpt>
      <trkpt lat="44.43345" lon="3.59504">
        <ele>1268</ele>
        <time>2022-05-27T08:33:51Z</time>
      </trkpt>
      <trkpt lat="44.43345" lon="3.59504">
        <ele>1268</ele>
        <time>2022-05-27T08:33:51Z</time>
      </trkpt>
      <trkpt lat="44.43345" lon="3.59504">
        <ele>1268</ele>
        <time>2022-05-27T08:33:51Z</time>
      </trkpt>
      <trkpt lat="44.43345" lon="3.59508">
        <ele>1270</ele>
        <time>2022-05-27T08:33:57Z</time>
      </trkpt>
      <trkpt lat="44.43345" lon="3.59508">
        <ele>1270</ele>
        <time>2022-05-27T08:33:58Z</time>
      </trkpt>
      <trkpt lat="44.43345" lon="3.59508">
        <ele>1270</ele>
        <time>2022-05-27T08:33:59Z</time>
      </trkpt>
      <trkpt lat="44.43345" lon="3.59508">
        <ele>1270</ele>
        <time>2022-05-27T08:34:00Z</time>
      </trkpt>
      <trkpt lat="44.43345" lon="3.59508">
        <ele>1270</ele>
        <time>2022-05-27T08:34:01Z</time>
      </trkpt>
      <trkpt lat="44.43345" lon="3.59508">
        <ele>1270</ele>
        <time>2022-05-27T08:34:02Z</time>
      </trkpt>
      <trkpt lat="44.43345" lon="3.59508">
        <ele>1270</ele>
        <time>2022-05-27T08:34:03Z</time>
      </trkpt>
      <trkpt lat="44.43345" lon="3.59508">
        <ele>1270</ele>
        <time>2022-05-27T08:34:03Z</time>
      </trkpt>
      <trkpt lat="44.43345" lon="3.59508">
        <ele>1270</ele>
        <time>2022-05-27T08:34:03Z</time>
      </trkpt>
      <trkpt lat="44.43345" lon="3.59511">
        <ele>1265</ele>
        <time>2022-05-27T08:36:00Z</time>
      </trkpt>
      <trkpt lat="44.43344" lon="3.59513">
        <ele>1265</ele>
        <time>2022-05-27T08:36:01Z</time>
      </trkpt>
      <trkpt lat="44.43343" lon="3.59514">
        <ele>1264</ele>
        <time>2022-05-27T08:36:02Z</time>
      </trkpt>
      <trkpt lat="44.43343" lon="3.59515">
        <ele>1263</ele>
        <time>2022-05-27T08:36:03Z</time>
      </trkpt>
      <trkpt lat="44.43344" lon="3.59517">
        <ele>1263</ele>
        <time>2022-05-27T08:36:04Z</time>
      </trkpt>
      <trkpt lat="44.43345" lon="3.59518">
        <ele>1263</ele>
        <time>2022-05-27T08:36:05Z</time>
      </trkpt>
      <trkpt lat="44.43345" lon="3.5952">
        <ele>1263</ele>
        <time>2022-05-27T08:36:06Z</time>
      </trkpt>
      <trkpt lat="44.43346" lon="3.5952">
        <ele>1263</ele>
        <time>2022-05-27T08:36:07Z</time>
      </trkpt>
      <trkpt lat="44.43347" lon="3.59521">
        <ele>1263</ele>
        <time>2022-05-27T08:36:08Z</time>
      </trkpt>
      <trkpt lat="44.43347" lon="3.59522">
        <ele>1263</ele>
        <time>2022-05-27T08:36:09Z</time>
      </trkpt>
      <trkpt lat="44.43348" lon="3.59523">
        <ele>1264</ele>
        <time>2022-05-27T08:36:10Z</time>
      </trkpt>
      <trkpt lat="44.43348" lon="3.59524">
        <ele>1264</ele>
        <time>2022-05-27T08:36:11Z</time>
      </trkpt>
      <trkpt lat="44.43348" lon="3.59525">
        <ele>1265</ele>
        <time>2022-05-27T08:36:12Z</time>
      </trkpt>
      <trkpt lat="44.43349" lon="3.59526">
        <ele>1265</ele>
        <time>2022-05-27T08:36:13Z</time>
      </trkpt>
      <trkpt lat="44.43349" lon="3.59526">
        <ele>1266</ele>
        <time>2022-05-27T08:36:14Z</time>
      </trkpt>
      <trkpt lat="44.43349" lon="3.59528">
        <ele>1266</ele>
        <time>2022-05-27T08:36:15Z</time>
      </trkpt>
      <trkpt lat="44.43349" lon="3.59529">
        <ele>1267</ele>
        <time>2022-05-27T08:36:16Z</time>
      </trkpt>
      <trkpt lat="44.43349" lon="3.5953">
        <ele>1268</ele>
        <time>2022-05-27T08:36:17Z</time>
      </trkpt>
      <trkpt lat="44.43348" lon="3.5953">
        <ele>1269</ele>
        <time>2022-05-27T08:36:18Z</time>
      </trkpt>
      <trkpt lat="44.43348" lon="3.5953">
        <ele>1269</ele>
        <time>2022-05-27T08:36:19Z</time>
      </trkpt>
      <trkpt lat="44.43348" lon="3.59529">
        <ele>1270</ele>
        <time>2022-05-27T08:36:20Z</time>
      </trkpt>
      <trkpt lat="44.43348" lon="3.59529">
        <ele>1270</ele>
        <time>2022-05-27T08:36:21Z</time>
      </trkpt>
      <trkpt lat="44.43349" lon="3.59529">
        <ele>1270</ele>
        <time>2022-05-27T08:36:22Z</time>
      </trkpt>
      <trkpt lat="44.43349" lon="3.5953">
        <ele>1270</ele>
        <time>2022-05-27T08:36:23Z</time>
      </trkpt>
      <trkpt lat="44.4335" lon="3.59532">
        <ele>1271</ele>
        <time>2022-05-27T08:36:24Z</time>
      </trkpt>
      <trkpt lat="44.4335" lon="3.59532">
        <ele>1271</ele>
        <time>2022-05-27T08:36:25Z</time>
      </trkpt>
      <trkpt lat="44.4335" lon="3.59533">
        <ele>1271</ele>
        <time>2022-05-27T08:36:26Z</time>
      </trkpt>
      <trkpt lat="44.43351" lon="3.59533">
        <ele>1271</ele>
        <time>2022-05-27T08:36:27Z</time>
      </trkpt>
      <trkpt lat="44.43351" lon="3.59533">
        <ele>1271</ele>
        <time>2022-05-27T08:36:28Z</time>
      </trkpt>
      <trkpt lat="44.43352" lon="3.59534">
        <ele>1271</ele>
        <time>2022-05-27T08:36:29Z</time>
      </trkpt>
      <trkpt lat="44.43353" lon="3.59534">
        <ele>1270</ele>
        <time>2022-05-27T08:36:30Z</time>
      </trkpt>
      <trkpt lat="44.43353" lon="3.59534">
        <ele>1270</ele>
        <time>2022-05-27T08:36:31Z</time>
      </trkpt>
      <trkpt lat="44.43353" lon="3.59534">
        <ele>1270</ele>
        <time>2022-05-27T08:36:32Z</time>
      </trkpt>
      <trkpt lat="44.43353" lon="3.59534">
        <ele>1270</ele>
        <time>2022-05-27T08:36:33Z</time>
      </trkpt>
      <trkpt lat="44.43353" lon="3.59534">
        <ele>1270</ele>
        <time>2022-05-27T08:36:33Z</time>
      </trkpt>
      <trkpt lat="44.43353" lon="3.59534">
        <ele>1270</ele>
        <time>2022-05-27T08:36:33Z</time>
      </trkpt>
      <trkpt lat="44.43353" lon="3.59539">
        <ele>1268</ele>
        <time>2022-05-27T08:36:45Z</time>
      </trkpt>
      <trkpt lat="44.43353" lon="3.59541">
        <ele>1268</ele>
        <time>2022-05-27T08:36:46Z</time>
      </trkpt>
      <trkpt lat="44.43353" lon="3.59542">
        <ele>1268</ele>
        <time>2022-05-27T08:36:47Z</time>
      </trkpt>
      <trkpt lat="44.43354" lon="3.59543">
        <ele>1269</ele>
        <time>2022-05-27T08:36:48Z</time>
      </trkpt>
      <trkpt lat="44.43354" lon="3.59544">
        <ele>1269</ele>
        <time>2022-05-27T08:36:49Z</time>
      </trkpt>
      <trkpt lat="44.43355" lon="3.59546">
        <ele>1268</ele>
        <time>2022-05-27T08:36:50Z</time>
      </trkpt>
      <trkpt lat="44.43355" lon="3.59548">
        <ele>1268</ele>
        <time>2022-05-27T08:36:51Z</time>
      </trkpt>
      <trkpt lat="44.43356" lon="3.59548">
        <ele>1268</ele>
        <time>2022-05-27T08:36:52Z</time>
      </trkpt>
      <trkpt lat="44.43356" lon="3.59549">
        <ele>1268</ele>
        <time>2022-05-27T08:36:53Z</time>
      </trkpt>
      <trkpt lat="44.43357" lon="3.59549">
        <ele>1268</ele>
        <time>2022-05-27T08:36:54Z</time>
      </trkpt>
      <trkpt lat="44.43358" lon="3.5955">
        <ele>1268</ele>
        <time>2022-05-27T08:36:55Z</time>
      </trkpt>
      <trkpt lat="44.43359" lon="3.59551">
        <ele>1268</ele>
        <time>2022-05-27T08:36:56Z</time>
      </trkpt>
      <trkpt lat="44.43359" lon="3.59553">
        <ele>1267</ele>
        <time>2022-05-27T08:36:57Z</time>
      </trkpt>
      <trkpt lat="44.43361" lon="3.59553">
        <ele>1267</ele>
        <time>2022-05-27T08:36:58Z</time>
      </trkpt>
      <trkpt lat="44.43362" lon="3.59554">
        <ele>1267</ele>
        <time>2022-05-27T08:36:59Z</time>
      </trkpt>
      <trkpt lat="44.43362" lon="3.59555">
        <ele>1266</ele>
        <time>2022-05-27T08:37:00Z</time>
      </trkpt>
      <trkpt lat="44.43362" lon="3.59555">
        <ele>1266</ele>
        <time>2022-05-27T08:37:01Z</time>
      </trkpt>
      <trkpt lat="44.43362" lon="3.59555">
        <ele>1266</ele>
        <time>2022-05-27T08:37:02Z</time>
      </trkpt>
      <trkpt lat="44.43362" lon="3.59555">
        <ele>1266</ele>
        <time>2022-05-27T08:37:02Z</time>
      </trkpt>
      <trkpt lat="44.43362" lon="3.59555">
        <ele>1266</ele>
        <time>2022-05-27T08:37:02Z</time>
      </trkpt>
      <trkpt lat="44.43367" lon="3.59556">
        <ele>1266</ele>
        <time>2022-05-27T08:37:17Z</time>
      </trkpt>
      <trkpt lat="44.43368" lon="3.59555">
        <ele>1266</ele>
        <time>2022-05-27T08:37:18Z</time>
      </trkpt>
      <trkpt lat="44.43369" lon="3.59556">
        <ele>1266</ele>
        <time>2022-05-27T08:37:19Z</time>
      </trkpt>
      <trkpt lat="44.4337" lon="3.59556">
        <ele>1266</ele>
        <time>2022-05-27T08:37:20Z</time>
      </trkpt>
      <trkpt lat="44.43371" lon="3.59557">
        <ele>1266</ele>
        <time>2022-05-27T08:37:21Z</time>
      </trkpt>
      <trkpt lat="44.43372" lon="3.59558">
        <ele>1266</ele>
        <time>2022-05-27T08:37:22Z</time>
      </trkpt>
      <trkpt lat="44.43373" lon="3.59558">
        <ele>1266</ele>
        <time>2022-05-27T08:37:23Z</time>
      </trkpt>
      <trkpt lat="44.43374" lon="3.59558">
        <ele>1267</ele>
        <time>2022-05-27T08:37:24Z</time>
      </trkpt>
      <trkpt lat="44.43374" lon="3.59559">
        <ele>1267</ele>
        <time>2022-05-27T08:37:25Z</time>
      </trkpt>
      <trkpt lat="44.43375" lon="3.59559">
        <ele>1268</ele>
        <time>2022-05-27T08:37:26Z</time>
      </trkpt>
      <trkpt lat="44.43376" lon="3.59559">
        <ele>1268</ele>
        <time>2022-05-27T08:37:27Z</time>
      </trkpt>
      <trkpt lat="44.43376" lon="3.59559">
        <ele>1268</ele>
        <time>2022-05-27T08:37:28Z</time>
      </trkpt>
      <trkpt lat="44.43376" lon="3.59559">
        <ele>1268</ele>
        <time>2022-05-27T08:37:29Z</time>
      </trkpt>
      <trkpt lat="44.43378" lon="3.5956">
        <ele>1268</ele>
        <time>2022-05-27T08:37:30Z</time>
      </trkpt>
      <trkpt lat="44.4338" lon="3.5956">
        <ele>1269</ele>
        <time>2022-05-27T08:37:31Z</time>
      </trkpt>
      <trkpt lat="44.4338" lon="3.59559">
        <ele>1268</ele>
        <time>2022-05-27T08:37:32Z</time>
      </trkpt>
      <trkpt lat="44.43381" lon="3.59559">
        <ele>1269</ele>
        <time>2022-05-27T08:37:33Z</time>
      </trkpt>
      <trkpt lat="44.43382" lon="3.59559">
        <ele>1269</ele>
        <time>2022-05-27T08:37:34Z</time>
      </trkpt>
      <trkpt lat="44.43382" lon="3.59559">
        <ele>1269</ele>
        <time>2022-05-27T08:37:35Z</time>
      </trkpt>
      <trkpt lat="44.43383" lon="3.59559">
        <ele>1270</ele>
        <time>2022-05-27T08:37:36Z</time>
      </trkpt>
      <trkpt lat="44.43384" lon="3.59559">
        <ele>1269</ele>
        <time>2022-05-27T08:37:37Z</time>
      </trkpt>
      <trkpt lat="44.43384" lon="3.59558">
        <ele>1269</ele>
        <time>2022-05-27T08:37:38Z</time>
      </trkpt>
      <trkpt lat="44.43385" lon="3.59558">
        <ele>1269</ele>
        <time>2022-05-27T08:37:39Z</time>
      </trkpt>
      <trkpt lat="44.43385" lon="3.59557">
        <ele>1269</ele>
        <time>2022-05-27T08:37:40Z</time>
      </trkpt>
      <trkpt lat="44.43386" lon="3.59556">
        <ele>1270</ele>
        <time>2022-05-27T08:37:41Z</time>
      </trkpt>
      <trkpt lat="44.43386" lon="3.59556">
        <ele>1269</ele>
        <time>2022-05-27T08:37:42Z</time>
      </trkpt>
      <trkpt lat="44.43386" lon="3.59556">
        <ele>1270</ele>
        <time>2022-05-27T08:37:43Z</time>
      </trkpt>
      <trkpt lat="44.43386" lon="3.59556">
        <ele>1270</ele>
        <time>2022-05-27T08:37:44Z</time>
      </trkpt>
      <trkpt lat="44.43387" lon="3.59556">
        <ele>1270</ele>
        <time>2022-05-27T08:37:45Z</time>
      </trkpt>
      <trkpt lat="44.43387" lon="3.59556">
        <ele>1270</ele>
        <time>2022-05-27T08:37:46Z</time>
      </trkpt>
      <trkpt lat="44.43387" lon="3.59556">
        <ele>1270</ele>
        <time>2022-05-27T08:37:46Z</time>
      </trkpt>
      <trkpt lat="44.43387" lon="3.59556">
        <ele>1270</ele>
        <time>2022-05-27T08:37:46Z</time>
      </trkpt>
      <trkpt lat="44.4339" lon="3.59559">
        <ele>1271</ele>
        <time>2022-05-27T08:38:11Z</time>
      </trkpt>
      <trkpt lat="44.4339" lon="3.59559">
        <ele>1271</ele>
        <time>2022-05-27T08:38:12Z</time>
      </trkpt>
      <trkpt lat="44.4339" lon="3.59559">
        <ele>1271</ele>
        <time>2022-05-27T08:38:13Z</time>
      </trkpt>
      <trkpt lat="44.43391" lon="3.5956">
        <ele>1271</ele>
        <time>2022-05-27T08:38:14Z</time>
      </trkpt>
      <trkpt lat="44.43391" lon="3.5956">
        <ele>1271</ele>
        <time>2022-05-27T08:38:15Z</time>
      </trkpt>
      <trkpt lat="44.43391" lon="3.5956">
        <ele>1271</ele>
        <time>2022-05-27T08:38:16Z</time>
      </trkpt>
      <trkpt lat="44.43391" lon="3.5956">
        <ele>1271</ele>
        <time>2022-05-27T08:38:16Z</time>
      </trkpt>
      <trkpt lat="44.43391" lon="3.5956">
        <ele>1271</ele>
        <time>2022-05-27T08:38:16Z</time>
      </trkpt>
      <trkpt lat="44.43389" lon="3.59555">
        <ele>1275</ele>
        <time>2022-05-27T08:38:34Z</time>
      </trkpt>
      <trkpt lat="44.43388" lon="3.59556">
        <ele>1275</ele>
        <time>2022-05-27T08:38:35Z</time>
      </trkpt>
      <trkpt lat="44.43388" lon="3.59556">
        <ele>1275</ele>
        <time>2022-05-27T08:38:36Z</time>
      </trkpt>
      <trkpt lat="44.43388" lon="3.59556">
        <ele>1275</ele>
        <time>2022-05-27T08:38:37Z</time>
      </trkpt>
      <trkpt lat="44.43387" lon="3.59556">
        <ele>1275</ele>
        <time>2022-05-27T08:38:38Z</time>
      </trkpt>
      <trkpt lat="44.43387" lon="3.59557">
        <ele>1275</ele>
        <time>2022-05-27T08:38:39Z</time>
      </trkpt>
      <trkpt lat="44.43386" lon="3.59557">
        <ele>1276</ele>
        <time>2022-05-27T08:38:40Z</time>
      </trkpt>
      <trkpt lat="44.43385" lon="3.59558">
        <ele>1276</ele>
        <time>2022-05-27T08:38:41Z</time>
      </trkpt>
      <trkpt lat="44.43384" lon="3.59559">
        <ele>1276</ele>
        <time>2022-05-27T08:38:42Z</time>
      </trkpt>
      <trkpt lat="44.43383" lon="3.59559">
        <ele>1277</ele>
        <time>2022-05-27T08:38:43Z</time>
      </trkpt>
      <trkpt lat="44.43382" lon="3.59559">
        <ele>1277</ele>
        <time>2022-05-27T08:38:44Z</time>
      </trkpt>
      <trkpt lat="44.43381" lon="3.5956">
        <ele>1277</ele>
        <time>2022-05-27T08:38:45Z</time>
      </trkpt>
      <trkpt lat="44.4338" lon="3.59559">
        <ele>1277</ele>
        <time>2022-05-27T08:38:46Z</time>
      </trkpt>
      <trkpt lat="44.43379" lon="3.59558">
        <ele>1276</ele>
        <time>2022-05-27T08:38:47Z</time>
      </trkpt>
      <trkpt lat="44.43378" lon="3.59557">
        <ele>1276</ele>
        <time>2022-05-27T08:38:48Z</time>
      </trkpt>
      <trkpt lat="44.43377" lon="3.59556">
        <ele>1276</ele>
        <time>2022-05-27T08:38:49Z</time>
      </trkpt>
      <trkpt lat="44.43377" lon="3.59555">
        <ele>1276</ele>
        <time>2022-05-27T08:38:50Z</time>
      </trkpt>
      <trkpt lat="44.43375" lon="3.59555">
        <ele>1277</ele>
        <time>2022-05-27T08:38:51Z</time>
      </trkpt>
      <trkpt lat="44.43374" lon="3.59554">
        <ele>1276</ele>
        <time>2022-05-27T08:38:52Z</time>
      </trkpt>
      <trkpt lat="44.43373" lon="3.59554">
        <ele>1275</ele>
        <time>2022-05-27T08:38:53Z</time>
      </trkpt>
      <trkpt lat="44.43372" lon="3.59554">
        <ele>1276</ele>
        <time>2022-05-27T08:38:54Z</time>
      </trkpt>
      <trkpt lat="44.43372" lon="3.59554">
        <ele>1275</ele>
        <time>2022-05-27T08:38:55Z</time>
      </trkpt>
      <trkpt lat="44.43371" lon="3.59554">
        <ele>1276</ele>
        <time>2022-05-27T08:38:56Z</time>
      </trkpt>
      <trkpt lat="44.4337" lon="3.59554">
        <ele>1276</ele>
        <time>2022-05-27T08:38:57Z</time>
      </trkpt>
      <trkpt lat="44.4337" lon="3.59553">
        <ele>1275</ele>
        <time>2022-05-27T08:38:58Z</time>
      </trkpt>
      <trkpt lat="44.43369" lon="3.59553">
        <ele>1275</ele>
        <time>2022-05-27T08:38:59Z</time>
      </trkpt>
      <trkpt lat="44.43369" lon="3.59553">
        <ele>1274</ele>
        <time>2022-05-27T08:39:00Z</time>
      </trkpt>
      <trkpt lat="44.43368" lon="3.59554">
        <ele>1274</ele>
        <time>2022-05-27T08:39:01Z</time>
      </trkpt>
      <trkpt lat="44.43367" lon="3.59553">
        <ele>1273</ele>
        <time>2022-05-27T08:39:02Z</time>
      </trkpt>
      <trkpt lat="44.43366" lon="3.59552">
        <ele>1274</ele>
        <time>2022-05-27T08:39:03Z</time>
      </trkpt>
      <trkpt lat="44.43365" lon="3.59551">
        <ele>1273</ele>
        <time>2022-05-27T08:39:04Z</time>
      </trkpt>
      <trkpt lat="44.43364" lon="3.5955">
        <ele>1273</ele>
        <time>2022-05-27T08:39:05Z</time>
      </trkpt>
      <trkpt lat="44.43364" lon="3.5955">
        <ele>1273</ele>
        <time>2022-05-27T08:39:06Z</time>
      </trkpt>
      <trkpt lat="44.43363" lon="3.59548">
        <ele>1274</ele>
        <time>2022-05-27T08:39:07Z</time>
      </trkpt>
      <trkpt lat="44.43362" lon="3.59546">
        <ele>1274</ele>
        <time>2022-05-27T08:39:08Z</time>
      </trkpt>
      <trkpt lat="44.43361" lon="3.59545">
        <ele>1274</ele>
        <time>2022-05-27T08:39:09Z</time>
      </trkpt>
      <trkpt lat="44.43361" lon="3.59544">
        <ele>1274</ele>
        <time>2022-05-27T08:39:10Z</time>
      </trkpt>
      <trkpt lat="44.43361" lon="3.59543">
        <ele>1274</ele>
        <time>2022-05-27T08:39:11Z</time>
      </trkpt>
      <trkpt lat="44.4336" lon="3.59542">
        <ele>1274</ele>
        <time>2022-05-27T08:39:12Z</time>
      </trkpt>
      <trkpt lat="44.4336" lon="3.5954">
        <ele>1274</ele>
        <time>2022-05-27T08:39:13Z</time>
      </trkpt>
      <trkpt lat="44.43359" lon="3.59539">
        <ele>1273</ele>
        <time>2022-05-27T08:39:14Z</time>
      </trkpt>
      <trkpt lat="44.43359" lon="3.59539">
        <ele>1273</ele>
        <time>2022-05-27T08:39:15Z</time>
      </trkpt>
      <trkpt lat="44.43359" lon="3.59537">
        <ele>1274</ele>
        <time>2022-05-27T08:39:16Z</time>
      </trkpt>
      <trkpt lat="44.43358" lon="3.59536">
        <ele>1274</ele>
        <time>2022-05-27T08:39:17Z</time>
      </trkpt>
      <trkpt lat="44.43358" lon="3.59535">
        <ele>1274</ele>
        <time>2022-05-27T08:39:18Z</time>
      </trkpt>
      <trkpt lat="44.43357" lon="3.59534">
        <ele>1275</ele>
        <time>2022-05-27T08:39:19Z</time>
      </trkpt>
      <trkpt lat="44.43356" lon="3.59533">
        <ele>1274</ele>
        <time>2022-05-27T08:39:20Z</time>
      </trkpt>
      <trkpt lat="44.43355" lon="3.59532">
        <ele>1274</ele>
        <time>2022-05-27T08:39:21Z</time>
      </trkpt>
      <trkpt lat="44.43354" lon="3.59531">
        <ele>1274</ele>
        <time>2022-05-27T08:39:22Z</time>
      </trkpt>
      <trkpt lat="44.43354" lon="3.59529">
        <ele>1274</ele>
        <time>2022-05-27T08:39:23Z</time>
      </trkpt>
      <trkpt lat="44.43354" lon="3.59528">
        <ele>1274</ele>
        <time>2022-05-27T08:39:24Z</time>
      </trkpt>
      <trkpt lat="44.43353" lon="3.59527">
        <ele>1274</ele>
        <time>2022-05-27T08:39:25Z</time>
      </trkpt>
      <trkpt lat="44.43353" lon="3.59525">
        <ele>1274</ele>
        <time>2022-05-27T08:39:26Z</time>
      </trkpt>
      <trkpt lat="44.43353" lon="3.59525">
        <ele>1275</ele>
        <time>2022-05-27T08:39:27Z</time>
      </trkpt>
      <trkpt lat="44.43353" lon="3.59524">
        <ele>1275</ele>
        <time>2022-05-27T08:39:28Z</time>
      </trkpt>
      <trkpt lat="44.43353" lon="3.59523">
        <ele>1275</ele>
        <time>2022-05-27T08:39:29Z</time>
      </trkpt>
      <trkpt lat="44.43353" lon="3.59523">
        <ele>1275</ele>
        <time>2022-05-27T08:39:30Z</time>
      </trkpt>
      <trkpt lat="44.43353" lon="3.59523">
        <ele>1275</ele>
        <time>2022-05-27T08:39:31Z</time>
      </trkpt>
      <trkpt lat="44.43352" lon="3.59521">
        <ele>1274</ele>
        <time>2022-05-27T08:39:32Z</time>
      </trkpt>
      <trkpt lat="44.43351" lon="3.59521">
        <ele>1274</ele>
        <time>2022-05-27T08:39:33Z</time>
      </trkpt>
      <trkpt lat="44.43351" lon="3.59521">
        <ele>1274</ele>
        <time>2022-05-27T08:39:34Z</time>
      </trkpt>
      <trkpt lat="44.4335" lon="3.59521">
        <ele>1273</ele>
        <time>2022-05-27T08:39:35Z</time>
      </trkpt>
      <trkpt lat="44.43349" lon="3.59521">
        <ele>1272</ele>
        <time>2022-05-27T08:39:36Z</time>
      </trkpt>
      <trkpt lat="44.43348" lon="3.59522">
        <ele>1271</ele>
        <time>2022-05-27T08:39:37Z</time>
      </trkpt>
      <trkpt lat="44.43347" lon="3.59523">
        <ele>1270</ele>
        <time>2022-05-27T08:39:38Z</time>
      </trkpt>
      <trkpt lat="44.43347" lon="3.59524">
        <ele>1270</ele>
        <time>2022-05-27T08:39:39Z</time>
      </trkpt>
      <trkpt lat="44.43347" lon="3.59524">
        <ele>1268</ele>
        <time>2022-05-27T08:39:40Z</time>
      </trkpt>
      <trkpt lat="44.43347" lon="3.59524">
        <ele>1268</ele>
        <time>2022-05-27T08:39:41Z</time>
      </trkpt>
      <trkpt lat="44.43346" lon="3.59525">
        <ele>1267</ele>
        <time>2022-05-27T08:39:42Z</time>
      </trkpt>
      <trkpt lat="44.43346" lon="3.59525">
        <ele>1266</ele>
        <time>2022-05-27T08:39:43Z</time>
      </trkpt>
      <trkpt lat="44.43346" lon="3.59525">
        <ele>1266</ele>
        <time>2022-05-27T08:39:43Z</time>
      </trkpt>
      <trkpt lat="44.43346" lon="3.59525">
        <ele>1266</ele>
        <time>2022-05-27T08:39:43Z</time>
      </trkpt>
      <trkpt lat="44.43343" lon="3.59528">
        <ele>1264</ele>
        <time>2022-05-27T08:40:32Z</time>
      </trkpt>
      <trkpt lat="44.43343" lon="3.59529">
        <ele>1264</ele>
        <time>2022-05-27T08:40:33Z</time>
      </trkpt>
      <trkpt lat="44.43342" lon="3.59529">
        <ele>1264</ele>
        <time>2022-05-27T08:40:34Z</time>
      </trkpt>
      <trkpt lat="44.43341" lon="3.59529">
        <ele>1264</ele>
        <time>2022-05-27T08:40:35Z</time>
      </trkpt>
      <trkpt lat="44.43341" lon="3.59529">
        <ele>1264</ele>
        <time>2022-05-27T08:40:36Z</time>
      </trkpt>
      <trkpt lat="44.43341" lon="3.59529">
        <ele>1264</ele>
        <time>2022-05-27T08:40:37Z</time>
      </trkpt>
      <trkpt lat="44.43341" lon="3.59529">
        <ele>1264</ele>
        <time>2022-05-27T08:40:38Z</time>
      </trkpt>
      <trkpt lat="44.43341" lon="3.59529">
        <ele>1264</ele>
        <time>2022-05-27T08:40:39Z</time>
      </trkpt>
      <trkpt lat="44.43341" lon="3.59529">
        <ele>1264</ele>
        <time>2022-05-27T08:40:39Z</time>
      </trkpt>
      <trkpt lat="44.43341" lon="3.59529">
        <ele>1264</ele>
        <time>2022-05-27T08:40:39Z</time>
      </trkpt>
      <trkpt lat="44.4334" lon="3.59534">
        <ele>1264</ele>
        <time>2022-05-27T08:40:48Z</time>
      </trkpt>
      <trkpt lat="44.43339" lon="3.59535">
        <ele>1265</ele>
        <time>2022-05-27T08:40:49Z</time>
      </trkpt>
      <trkpt lat="44.43339" lon="3.59535">
        <ele>1265</ele>
        <time>2022-05-27T08:40:50Z</time>
      </trkpt>
      <trkpt lat="44.43339" lon="3.59535">
        <ele>1265</ele>
        <time>2022-05-27T08:40:51Z</time>
      </trkpt>
      <trkpt lat="44.43339" lon="3.59535">
        <ele>1265</ele>
        <time>2022-05-27T08:40:51Z</time>
      </trkpt>
      <trkpt lat="44.43339" lon="3.59535">
        <ele>1265</ele>
        <time>2022-05-27T08:40:51Z</time>
      </trkpt>
      <trkpt lat="44.43339" lon="3.59542">
        <ele>1260</ele>
        <time>2022-05-27T08:41:09Z</time>
      </trkpt>
      <trkpt lat="44.43339" lon="3.59542">
        <ele>1260</ele>
        <time>2022-05-27T08:41:10Z</time>
      </trkpt>
      <trkpt lat="44.43339" lon="3.59542">
        <ele>1260</ele>
        <time>2022-05-27T08:41:11Z</time>
      </trkpt>
      <trkpt lat="44.43339" lon="3.59542">
        <ele>1260</ele>
        <time>2022-05-27T08:41:11Z</time>
      </trkpt>
      <trkpt lat="44.43339" lon="3.59538">
        <ele>1268</ele>
        <time>2022-05-27T08:47:56Z</time>
      </trkpt>
      <trkpt lat="44.43339" lon="3.59537">
        <ele>1268</ele>
        <time>2022-05-27T08:47:57Z</time>
      </trkpt>
      <trkpt lat="44.43339" lon="3.59537">
        <ele>1268</ele>
        <time>2022-05-27T08:47:58Z</time>
      </trkpt>
      <trkpt lat="44.43339" lon="3.59537">
        <ele>1268</ele>
        <time>2022-05-27T08:47:59Z</time>
      </trkpt>
      <trkpt lat="44.43339" lon="3.59537">
        <ele>1268</ele>
        <time>2022-05-27T08:47:59Z</time>
      </trkpt>
      <trkpt lat="44.43339" lon="3.59537">
        <ele>1268</ele>
        <time>2022-05-27T08:47:59Z</time>
      </trkpt>
      <trkpt lat="44.43339" lon="3.59545">
        <ele>1268</ele>
        <time>2022-05-27T08:48:47Z</time>
      </trkpt>
      <trkpt lat="44.43339" lon="3.59545">
        <ele>1268</ele>
        <time>2022-05-27T08:48:48Z</time>
      </trkpt>
      <trkpt lat="44.43338" lon="3.59546">
        <ele>1269</ele>
        <time>2022-05-27T08:48:49Z</time>
      </trkpt>
      <trkpt lat="44.43338" lon="3.59548">
        <ele>1269</ele>
        <time>2022-05-27T08:48:50Z</time>
      </trkpt>
      <trkpt lat="44.43338" lon="3.59549">
        <ele>1270</ele>
        <time>2022-05-27T08:48:51Z</time>
      </trkpt>
      <trkpt lat="44.43338" lon="3.59551">
        <ele>1270</ele>
        <time>2022-05-27T08:48:52Z</time>
      </trkpt>
      <trkpt lat="44.43338" lon="3.59552">
        <ele>1270</ele>
        <time>2022-05-27T08:48:53Z</time>
      </trkpt>
      <trkpt lat="44.43338" lon="3.59553">
        <ele>1270</ele>
        <time>2022-05-27T08:48:54Z</time>
      </trkpt>
      <trkpt lat="44.43338" lon="3.59554">
        <ele>1271</ele>
        <time>2022-05-27T08:48:55Z</time>
      </trkpt>
      <trkpt lat="44.43339" lon="3.59556">
        <ele>1272</ele>
        <time>2022-05-27T08:48:56Z</time>
      </trkpt>
      <trkpt lat="44.43339" lon="3.59557">
        <ele>1272</ele>
        <time>2022-05-27T08:48:57Z</time>
      </trkpt>
      <trkpt lat="44.43339" lon="3.59559">
        <ele>1272</ele>
        <time>2022-05-27T08:48:58Z</time>
      </trkpt>
      <trkpt lat="44.4334" lon="3.5956">
        <ele>1272</ele>
        <time>2022-05-27T08:48:59Z</time>
      </trkpt>
      <trkpt lat="44.4334" lon="3.59561">
        <ele>1273</ele>
        <time>2022-05-27T08:49:00Z</time>
      </trkpt>
      <trkpt lat="44.4334" lon="3.59562">
        <ele>1274</ele>
        <time>2022-05-27T08:49:01Z</time>
      </trkpt>
      <trkpt lat="44.4334" lon="3.59563">
        <ele>1274</ele>
        <time>2022-05-27T08:49:02Z</time>
      </trkpt>
      <trkpt lat="44.4334" lon="3.59564">
        <ele>1273</ele>
        <time>2022-05-27T08:49:03Z</time>
      </trkpt>
      <trkpt lat="44.4334" lon="3.59566">
        <ele>1273</ele>
        <time>2022-05-27T08:49:04Z</time>
      </trkpt>
      <trkpt lat="44.43341" lon="3.59568">
        <ele>1274</ele>
        <time>2022-05-27T08:49:05Z</time>
      </trkpt>
      <trkpt lat="44.43341" lon="3.5957">
        <ele>1274</ele>
        <time>2022-05-27T08:49:06Z</time>
      </trkpt>
      <trkpt lat="44.43341" lon="3.59571">
        <ele>1274</ele>
        <time>2022-05-27T08:49:07Z</time>
      </trkpt>
      <trkpt lat="44.43341" lon="3.59573">
        <ele>1274</ele>
        <time>2022-05-27T08:49:08Z</time>
      </trkpt>
      <trkpt lat="44.43341" lon="3.59575">
        <ele>1274</ele>
        <time>2022-05-27T08:49:09Z</time>
      </trkpt>
      <trkpt lat="44.43342" lon="3.59577">
        <ele>1275</ele>
        <time>2022-05-27T08:49:10Z</time>
      </trkpt>
      <trkpt lat="44.43342" lon="3.5958">
        <ele>1275</ele>
        <time>2022-05-27T08:49:11Z</time>
      </trkpt>
      <trkpt lat="44.43343" lon="3.59582">
        <ele>1274</ele>
        <time>2022-05-27T08:49:12Z</time>
      </trkpt>
      <trkpt lat="44.43344" lon="3.59583">
        <ele>1275</ele>
        <time>2022-05-27T08:49:13Z</time>
      </trkpt>
      <trkpt lat="44.43346" lon="3.59583">
        <ele>1275</ele>
        <time>2022-05-27T08:49:14Z</time>
      </trkpt>
      <trkpt lat="44.43347" lon="3.59584">
        <ele>1274</ele>
        <time>2022-05-27T08:49:15Z</time>
      </trkpt>
      <trkpt lat="44.43346" lon="3.59585">
        <ele>1274</ele>
        <time>2022-05-27T08:49:16Z</time>
      </trkpt>
      <trkpt lat="44.43347" lon="3.59586">
        <ele>1275</ele>
        <time>2022-05-27T08:49:17Z</time>
      </trkpt>
      <trkpt lat="44.43347" lon="3.59587">
        <ele>1275</ele>
        <time>2022-05-27T08:49:18Z</time>
      </trkpt>
      <trkpt lat="44.43347" lon="3.59589">
        <ele>1274</ele>
        <time>2022-05-27T08:49:19Z</time>
      </trkpt>
      <trkpt lat="44.43347" lon="3.59591">
        <ele>1274</ele>
        <time>2022-05-27T08:49:20Z</time>
      </trkpt>
      <trkpt lat="44.43347" lon="3.59593">
        <ele>1273</ele>
        <time>2022-05-27T08:49:21Z</time>
      </trkpt>
      <trkpt lat="44.43348" lon="3.59594">
        <ele>1272</ele>
        <time>2022-05-27T08:49:22Z</time>
      </trkpt>
      <trkpt lat="44.43349" lon="3.59595">
        <ele>1273</ele>
        <time>2022-05-27T08:49:23Z</time>
      </trkpt>
      <trkpt lat="44.4335" lon="3.59596">
        <ele>1273</ele>
        <time>2022-05-27T08:49:24Z</time>
      </trkpt>
      <trkpt lat="44.4335" lon="3.59597">
        <ele>1273</ele>
        <time>2022-05-27T08:49:25Z</time>
      </trkpt>
      <trkpt lat="44.43351" lon="3.59598">
        <ele>1273</ele>
        <time>2022-05-27T08:49:26Z</time>
      </trkpt>
      <trkpt lat="44.43352" lon="3.59599">
        <ele>1272</ele>
        <time>2022-05-27T08:49:27Z</time>
      </trkpt>
      <trkpt lat="44.43354" lon="3.59601">
        <ele>1272</ele>
        <time>2022-05-27T08:49:28Z</time>
      </trkpt>
      <trkpt lat="44.43354" lon="3.59602">
        <ele>1272</ele>
        <time>2022-05-27T08:49:29Z</time>
      </trkpt>
      <trkpt lat="44.43355" lon="3.59606">
        <ele>1271</ele>
        <time>2022-05-27T08:49:30Z</time>
      </trkpt>
      <trkpt lat="44.43355" lon="3.59606">
        <ele>1271</ele>
        <time>2022-05-27T08:49:30Z</time>
      </trkpt>
      <trkpt lat="44.43355" lon="3.59607">
        <ele>1272</ele>
        <time>2022-05-27T08:49:32Z</time>
      </trkpt>
      <trkpt lat="44.43356" lon="3.5961">
        <ele>1272</ele>
        <time>2022-05-27T08:49:33Z</time>
      </trkpt>
      <trkpt lat="44.43356" lon="3.5961">
        <ele>1272</ele>
        <time>2022-05-27T08:49:33Z</time>
      </trkpt>
      <trkpt lat="44.43357" lon="3.59611">
        <ele>1273</ele>
        <time>2022-05-27T08:49:35Z</time>
      </trkpt>
      <trkpt lat="44.43358" lon="3.59613">
        <ele>1274</ele>
        <time>2022-05-27T08:49:36Z</time>
      </trkpt>
      <trkpt lat="44.43358" lon="3.59615">
        <ele>1275</ele>
        <time>2022-05-27T08:49:37Z</time>
      </trkpt>
      <trkpt lat="44.43358" lon="3.59616">
        <ele>1276</ele>
        <time>2022-05-27T08:49:38Z</time>
      </trkpt>
      <trkpt lat="44.43358" lon="3.59616">
        <ele>1276</ele>
        <time>2022-05-27T08:49:38Z</time>
      </trkpt>
      <trkpt lat="44.43359" lon="3.5962">
        <ele>1275</ele>
        <time>2022-05-27T08:49:40Z</time>
      </trkpt>
      <trkpt lat="44.43359" lon="3.59623">
        <ele>1275</ele>
        <time>2022-05-27T08:49:41Z</time>
      </trkpt>
      <trkpt lat="44.4336" lon="3.59625">
        <ele>1275</ele>
        <time>2022-05-27T08:49:42Z</time>
      </trkpt>
      <trkpt lat="44.4336" lon="3.59626">
        <ele>1276</ele>
        <time>2022-05-27T08:49:43Z</time>
      </trkpt>
      <trkpt lat="44.4336" lon="3.59628">
        <ele>1277</ele>
        <time>2022-05-27T08:49:44Z</time>
      </trkpt>
      <trkpt lat="44.43361" lon="3.5963">
        <ele>1277</ele>
        <time>2022-05-27T08:49:45Z</time>
      </trkpt>
      <trkpt lat="44.43362" lon="3.59633">
        <ele>1276</ele>
        <time>2022-05-27T08:49:46Z</time>
      </trkpt>
      <trkpt lat="44.43363" lon="3.59635">
        <ele>1276</ele>
        <time>2022-05-27T08:49:47Z</time>
      </trkpt>
      <trkpt lat="44.43364" lon="3.59636">
        <ele>1276</ele>
        <time>2022-05-27T08:49:48Z</time>
      </trkpt>
      <trkpt lat="44.43364" lon="3.59637">
        <ele>1276</ele>
        <time>2022-05-27T08:49:49Z</time>
      </trkpt>
      <trkpt lat="44.43363" lon="3.59636">
        <ele>1275</ele>
        <time>2022-05-27T08:49:50Z</time>
      </trkpt>
      <trkpt lat="44.43363" lon="3.59637">
        <ele>1275</ele>
        <time>2022-05-27T08:49:51Z</time>
      </trkpt>
      <trkpt lat="44.43363" lon="3.59639">
        <ele>1274</ele>
        <time>2022-05-27T08:49:52Z</time>
      </trkpt>
      <trkpt lat="44.43363" lon="3.59641">
        <ele>1274</ele>
        <time>2022-05-27T08:49:53Z</time>
      </trkpt>
      <trkpt lat="44.43364" lon="3.59642">
        <ele>1273</ele>
        <time>2022-05-27T08:49:54Z</time>
      </trkpt>
      <trkpt lat="44.43364" lon="3.59643">
        <ele>1274</ele>
        <time>2022-05-27T08:49:55Z</time>
      </trkpt>
      <trkpt lat="44.43364" lon="3.59644">
        <ele>1274</ele>
        <time>2022-05-27T08:49:56Z</time>
      </trkpt>
      <trkpt lat="44.43365" lon="3.59645">
        <ele>1274</ele>
        <time>2022-05-27T08:49:57Z</time>
      </trkpt>
      <trkpt lat="44.43365" lon="3.59647">
        <ele>1273</ele>
        <time>2022-05-27T08:49:58Z</time>
      </trkpt>
      <trkpt lat="44.43365" lon="3.59649">
        <ele>1272</ele>
        <time>2022-05-27T08:49:59Z</time>
      </trkpt>
      <trkpt lat="44.43366" lon="3.59651">
        <ele>1273</ele>
        <time>2022-05-27T08:50:00Z</time>
      </trkpt>
      <trkpt lat="44.43366" lon="3.59652">
        <ele>1272</ele>
        <time>2022-05-27T08:50:01Z</time>
      </trkpt>
      <trkpt lat="44.43367" lon="3.59653">
        <ele>1272</ele>
        <time>2022-05-27T08:50:02Z</time>
      </trkpt>
      <trkpt lat="44.43368" lon="3.59654">
        <ele>1271</ele>
        <time>2022-05-27T08:50:03Z</time>
      </trkpt>
      <trkpt lat="44.43369" lon="3.59656">
        <ele>1270</ele>
        <time>2022-05-27T08:50:04Z</time>
      </trkpt>
      <trkpt lat="44.4337" lon="3.59657">
        <ele>1270</ele>
        <time>2022-05-27T08:50:05Z</time>
      </trkpt>
      <trkpt lat="44.4337" lon="3.59659">
        <ele>1269</ele>
        <time>2022-05-27T08:50:06Z</time>
      </trkpt>
      <trkpt lat="44.43371" lon="3.59661">
        <ele>1270</ele>
        <time>2022-05-27T08:50:07Z</time>
      </trkpt>
      <trkpt lat="44.43371" lon="3.59663">
        <ele>1271</ele>
        <time>2022-05-27T08:50:08Z</time>
      </trkpt>
      <trkpt lat="44.43371" lon="3.59665">
        <ele>1271</ele>
        <time>2022-05-27T08:50:09Z</time>
      </trkpt>
      <trkpt lat="44.43372" lon="3.59666">
        <ele>1270</ele>
        <time>2022-05-27T08:50:10Z</time>
      </trkpt>
      <trkpt lat="44.43373" lon="3.59668">
        <ele>1270</ele>
        <time>2022-05-27T08:50:11Z</time>
      </trkpt>
      <trkpt lat="44.43374" lon="3.5967">
        <ele>1270</ele>
        <time>2022-05-27T08:50:12Z</time>
      </trkpt>
      <trkpt lat="44.43374" lon="3.59672">
        <ele>1269</ele>
        <time>2022-05-27T08:50:13Z</time>
      </trkpt>
      <trkpt lat="44.43374" lon="3.59674">
        <ele>1270</ele>
        <time>2022-05-27T08:50:14Z</time>
      </trkpt>
      <trkpt lat="44.43374" lon="3.59675">
        <ele>1270</ele>
        <time>2022-05-27T08:50:15Z</time>
      </trkpt>
      <trkpt lat="44.43374" lon="3.59677">
        <ele>1269</ele>
        <time>2022-05-27T08:50:16Z</time>
      </trkpt>
      <trkpt lat="44.43374" lon="3.59679">
        <ele>1268</ele>
        <time>2022-05-27T08:50:17Z</time>
      </trkpt>
      <trkpt lat="44.43374" lon="3.5968">
        <ele>1268</ele>
        <time>2022-05-27T08:50:18Z</time>
      </trkpt>
      <trkpt lat="44.43375" lon="3.59681">
        <ele>1268</ele>
        <time>2022-05-27T08:50:19Z</time>
      </trkpt>
      <trkpt lat="44.43375" lon="3.59683">
        <ele>1269</ele>
        <time>2022-05-27T08:50:20Z</time>
      </trkpt>
      <trkpt lat="44.43375" lon="3.59685">
        <ele>1269</ele>
        <time>2022-05-27T08:50:21Z</time>
      </trkpt>
      <trkpt lat="44.43376" lon="3.59688">
        <ele>1269</ele>
        <time>2022-05-27T08:50:22Z</time>
      </trkpt>
      <trkpt lat="44.43377" lon="3.59689">
        <ele>1268</ele>
        <time>2022-05-27T08:50:23Z</time>
      </trkpt>
      <trkpt lat="44.43378" lon="3.5969">
        <ele>1269</ele>
        <time>2022-05-27T08:50:24Z</time>
      </trkpt>
      <trkpt lat="44.43379" lon="3.59692">
        <ele>1269</ele>
        <time>2022-05-27T08:50:25Z</time>
      </trkpt>
      <trkpt lat="44.43379" lon="3.59693">
        <ele>1270</ele>
        <time>2022-05-27T08:50:26Z</time>
      </trkpt>
      <trkpt lat="44.4338" lon="3.59695">
        <ele>1272</ele>
        <time>2022-05-27T08:50:27Z</time>
      </trkpt>
      <trkpt lat="44.43381" lon="3.59698">
        <ele>1270</ele>
        <time>2022-05-27T08:50:28Z</time>
      </trkpt>
      <trkpt lat="44.43382" lon="3.597">
        <ele>1270</ele>
        <time>2022-05-27T08:50:29Z</time>
      </trkpt>
      <trkpt lat="44.43382" lon="3.59703">
        <ele>1269</ele>
        <time>2022-05-27T08:50:30Z</time>
      </trkpt>
      <trkpt lat="44.43383" lon="3.59705">
        <ele>1269</ele>
        <time>2022-05-27T08:50:31Z</time>
      </trkpt>
      <trkpt lat="44.43383" lon="3.59706">
        <ele>1268</ele>
        <time>2022-05-27T08:50:32Z</time>
      </trkpt>
      <trkpt lat="44.43383" lon="3.59707">
        <ele>1268</ele>
        <time>2022-05-27T08:50:33Z</time>
      </trkpt>
      <trkpt lat="44.43383" lon="3.59708">
        <ele>1267</ele>
        <time>2022-05-27T08:50:34Z</time>
      </trkpt>
      <trkpt lat="44.43384" lon="3.59709">
        <ele>1267</ele>
        <time>2022-05-27T08:50:35Z</time>
      </trkpt>
      <trkpt lat="44.43385" lon="3.5971">
        <ele>1267</ele>
        <time>2022-05-27T08:50:36Z</time>
      </trkpt>
      <trkpt lat="44.43387" lon="3.59713">
        <ele>1266</ele>
        <time>2022-05-27T08:50:37Z</time>
      </trkpt>
      <trkpt lat="44.43387" lon="3.59715">
        <ele>1266</ele>
        <time>2022-05-27T08:50:38Z</time>
      </trkpt>
      <trkpt lat="44.43388" lon="3.59716">
        <ele>1266</ele>
        <time>2022-05-27T08:50:39Z</time>
      </trkpt>
      <trkpt lat="44.43389" lon="3.59716">
        <ele>1266</ele>
        <time>2022-05-27T08:50:40Z</time>
      </trkpt>
      <trkpt lat="44.43391" lon="3.59716">
        <ele>1264</ele>
        <time>2022-05-27T08:50:41Z</time>
      </trkpt>
      <trkpt lat="44.43392" lon="3.59717">
        <ele>1264</ele>
        <time>2022-05-27T08:50:42Z</time>
      </trkpt>
      <trkpt lat="44.43393" lon="3.59718">
        <ele>1265</ele>
        <time>2022-05-27T08:50:43Z</time>
      </trkpt>
      <trkpt lat="44.43394" lon="3.59718">
        <ele>1265</ele>
        <time>2022-05-27T08:50:44Z</time>
      </trkpt>
      <trkpt lat="44.43394" lon="3.59719">
        <ele>1266</ele>
        <time>2022-05-27T08:50:45Z</time>
      </trkpt>
      <trkpt lat="44.43395" lon="3.5972">
        <ele>1266</ele>
        <time>2022-05-27T08:50:46Z</time>
      </trkpt>
      <trkpt lat="44.43397" lon="3.59721">
        <ele>1267</ele>
        <time>2022-05-27T08:50:47Z</time>
      </trkpt>
      <trkpt lat="44.43398" lon="3.59723">
        <ele>1267</ele>
        <time>2022-05-27T08:50:48Z</time>
      </trkpt>
      <trkpt lat="44.43399" lon="3.59725">
        <ele>1267</ele>
        <time>2022-05-27T08:50:49Z</time>
      </trkpt>
      <trkpt lat="44.434" lon="3.59726">
        <ele>1267</ele>
        <time>2022-05-27T08:50:50Z</time>
      </trkpt>
      <trkpt lat="44.43401" lon="3.59727">
        <ele>1268</ele>
        <time>2022-05-27T08:50:51Z</time>
      </trkpt>
      <trkpt lat="44.43403" lon="3.59728">
        <ele>1269</ele>
        <time>2022-05-27T08:50:52Z</time>
      </trkpt>
      <trkpt lat="44.43404" lon="3.59729">
        <ele>1269</ele>
        <time>2022-05-27T08:50:53Z</time>
      </trkpt>
      <trkpt lat="44.43405" lon="3.59731">
        <ele>1269</ele>
        <time>2022-05-27T08:50:54Z</time>
      </trkpt>
      <trkpt lat="44.43406" lon="3.59733">
        <ele>1269</ele>
        <time>2022-05-27T08:50:55Z</time>
      </trkpt>
      <trkpt lat="44.43407" lon="3.59735">
        <ele>1269</ele>
        <time>2022-05-27T08:50:56Z</time>
      </trkpt>
      <trkpt lat="44.43408" lon="3.59737">
        <ele>1270</ele>
        <time>2022-05-27T08:50:57Z</time>
      </trkpt>
      <trkpt lat="44.43409" lon="3.59738">
        <ele>1271</ele>
        <time>2022-05-27T08:50:58Z</time>
      </trkpt>
      <trkpt lat="44.4341" lon="3.59739">
        <ele>1271</ele>
        <time>2022-05-27T08:50:59Z</time>
      </trkpt>
      <trkpt lat="44.43411" lon="3.5974">
        <ele>1271</ele>
        <time>2022-05-27T08:51:00Z</time>
      </trkpt>
      <trkpt lat="44.43412" lon="3.59742">
        <ele>1270</ele>
        <time>2022-05-27T08:51:01Z</time>
      </trkpt>
      <trkpt lat="44.43413" lon="3.59743">
        <ele>1270</ele>
        <time>2022-05-27T08:51:02Z</time>
      </trkpt>
      <trkpt lat="44.43414" lon="3.59745">
        <ele>1270</ele>
        <time>2022-05-27T08:51:03Z</time>
      </trkpt>
      <trkpt lat="44.43415" lon="3.59746">
        <ele>1270</ele>
        <time>2022-05-27T08:51:04Z</time>
      </trkpt>
      <trkpt lat="44.43416" lon="3.59747">
        <ele>1270</ele>
        <time>2022-05-27T08:51:05Z</time>
      </trkpt>
      <trkpt lat="44.43416" lon="3.59748">
        <ele>1270</ele>
        <time>2022-05-27T08:51:06Z</time>
      </trkpt>
      <trkpt lat="44.43417" lon="3.5975">
        <ele>1269</ele>
        <time>2022-05-27T08:51:07Z</time>
      </trkpt>
      <trkpt lat="44.43417" lon="3.59752">
        <ele>1268</ele>
        <time>2022-05-27T08:51:08Z</time>
      </trkpt>
      <trkpt lat="44.43417" lon="3.59753">
        <ele>1268</ele>
        <time>2022-05-27T08:51:09Z</time>
      </trkpt>
      <trkpt lat="44.43418" lon="3.59754">
        <ele>1268</ele>
        <time>2022-05-27T08:51:10Z</time>
      </trkpt>
      <trkpt lat="44.43419" lon="3.59756">
        <ele>1267</ele>
        <time>2022-05-27T08:51:11Z</time>
      </trkpt>
      <trkpt lat="44.43419" lon="3.59758">
        <ele>1267</ele>
        <time>2022-05-27T08:51:12Z</time>
      </trkpt>
      <trkpt lat="44.43419" lon="3.59759">
        <ele>1267</ele>
        <time>2022-05-27T08:51:13Z</time>
      </trkpt>
      <trkpt lat="44.43419" lon="3.5976">
        <ele>1267</ele>
        <time>2022-05-27T08:51:14Z</time>
      </trkpt>
      <trkpt lat="44.43418" lon="3.5976">
        <ele>1267</ele>
        <time>2022-05-27T08:51:15Z</time>
      </trkpt>
      <trkpt lat="44.43418" lon="3.59762">
        <ele>1267</ele>
        <time>2022-05-27T08:51:16Z</time>
      </trkpt>
      <trkpt lat="44.43418" lon="3.59766">
        <ele>1267</ele>
        <time>2022-05-27T08:51:17Z</time>
      </trkpt>
      <trkpt lat="44.43418" lon="3.59768">
        <ele>1266</ele>
        <time>2022-05-27T08:51:18Z</time>
      </trkpt>
      <trkpt lat="44.43418" lon="3.5977">
        <ele>1265</ele>
        <time>2022-05-27T08:51:20Z</time>
      </trkpt>
      <trkpt lat="44.43417" lon="3.5977">
        <ele>1266</ele>
        <time>2022-05-27T08:51:21Z</time>
      </trkpt>
      <trkpt lat="44.43417" lon="3.59771">
        <ele>1266</ele>
        <time>2022-05-27T08:51:22Z</time>
      </trkpt>
      <trkpt lat="44.43417" lon="3.59772">
        <ele>1266</ele>
        <time>2022-05-27T08:51:23Z</time>
      </trkpt>
      <trkpt lat="44.43417" lon="3.59774">
        <ele>1266</ele>
        <time>2022-05-27T08:51:24Z</time>
      </trkpt>
      <trkpt lat="44.43417" lon="3.59775">
        <ele>1266</ele>
        <time>2022-05-27T08:51:25Z</time>
      </trkpt>
      <trkpt lat="44.43416" lon="3.59776">
        <ele>1266</ele>
        <time>2022-05-27T08:51:26Z</time>
      </trkpt>
      <trkpt lat="44.43415" lon="3.59777">
        <ele>1266</ele>
        <time>2022-05-27T08:51:27Z</time>
      </trkpt>
      <trkpt lat="44.43414" lon="3.59778">
        <ele>1266</ele>
        <time>2022-05-27T08:51:28Z</time>
      </trkpt>
      <trkpt lat="44.43413" lon="3.5978">
        <ele>1266</ele>
        <time>2022-05-27T08:51:29Z</time>
      </trkpt>
      <trkpt lat="44.43412" lon="3.59781">
        <ele>1265</ele>
        <time>2022-05-27T08:51:30Z</time>
      </trkpt>
      <trkpt lat="44.43411" lon="3.59783">
        <ele>1265</ele>
        <time>2022-05-27T08:51:31Z</time>
      </trkpt>
      <trkpt lat="44.43411" lon="3.59785">
        <ele>1265</ele>
        <time>2022-05-27T08:51:32Z</time>
      </trkpt>
      <trkpt lat="44.43411" lon="3.59786">
        <ele>1264</ele>
        <time>2022-05-27T08:51:33Z</time>
      </trkpt>
      <trkpt lat="44.43411" lon="3.59786">
        <ele>1264</ele>
        <time>2022-05-27T08:51:34Z</time>
      </trkpt>
      <trkpt lat="44.43409" lon="3.59787">
        <ele>1264</ele>
        <time>2022-05-27T08:51:35Z</time>
      </trkpt>
      <trkpt lat="44.43408" lon="3.59787">
        <ele>1264</ele>
        <time>2022-05-27T08:51:36Z</time>
      </trkpt>
      <trkpt lat="44.43407" lon="3.59788">
        <ele>1263</ele>
        <time>2022-05-27T08:51:37Z</time>
      </trkpt>
      <trkpt lat="44.43406" lon="3.59789">
        <ele>1263</ele>
        <time>2022-05-27T08:51:38Z</time>
      </trkpt>
      <trkpt lat="44.43405" lon="3.59789">
        <ele>1263</ele>
        <time>2022-05-27T08:51:39Z</time>
      </trkpt>
      <trkpt lat="44.43404" lon="3.5979">
        <ele>1264</ele>
        <time>2022-05-27T08:51:40Z</time>
      </trkpt>
      <trkpt lat="44.43404" lon="3.5979">
        <ele>1264</ele>
        <time>2022-05-27T08:51:41Z</time>
      </trkpt>
      <trkpt lat="44.43403" lon="3.59791">
        <ele>1263</ele>
        <time>2022-05-27T08:51:42Z</time>
      </trkpt>
      <trkpt lat="44.43401" lon="3.59791">
        <ele>1264</ele>
        <time>2022-05-27T08:51:43Z</time>
      </trkpt>
      <trkpt lat="44.43401" lon="3.59792">
        <ele>1265</ele>
        <time>2022-05-27T08:51:44Z</time>
      </trkpt>
      <trkpt lat="44.43399" lon="3.59792">
        <ele>1265</ele>
        <time>2022-05-27T08:51:45Z</time>
      </trkpt>
      <trkpt lat="44.43399" lon="3.59791">
        <ele>1266</ele>
        <time>2022-05-27T08:51:46Z</time>
      </trkpt>
      <trkpt lat="44.43398" lon="3.59792">
        <ele>1267</ele>
        <time>2022-05-27T08:51:47Z</time>
      </trkpt>
      <trkpt lat="44.43397" lon="3.59793">
        <ele>1266</ele>
        <time>2022-05-27T08:51:48Z</time>
      </trkpt>
      <trkpt lat="44.43396" lon="3.59792">
        <ele>1266</ele>
        <time>2022-05-27T08:51:49Z</time>
      </trkpt>
      <trkpt lat="44.43395" lon="3.59792">
        <ele>1266</ele>
        <time>2022-05-27T08:51:50Z</time>
      </trkpt>
      <trkpt lat="44.43394" lon="3.59792">
        <ele>1265</ele>
        <time>2022-05-27T08:51:51Z</time>
      </trkpt>
      <trkpt lat="44.43393" lon="3.59792">
        <ele>1266</ele>
        <time>2022-05-27T08:51:52Z</time>
      </trkpt>
      <trkpt lat="44.43393" lon="3.59792">
        <ele>1267</ele>
        <time>2022-05-27T08:51:53Z</time>
      </trkpt>
      <trkpt lat="44.43391" lon="3.59791">
        <ele>1267</ele>
        <time>2022-05-27T08:51:54Z</time>
      </trkpt>
      <trkpt lat="44.4339" lon="3.59791">
        <ele>1266</ele>
        <time>2022-05-27T08:51:55Z</time>
      </trkpt>
      <trkpt lat="44.43389" lon="3.5979">
        <ele>1266</ele>
        <time>2022-05-27T08:51:56Z</time>
      </trkpt>
      <trkpt lat="44.43388" lon="3.59789">
        <ele>1266</ele>
        <time>2022-05-27T08:51:57Z</time>
      </trkpt>
      <trkpt lat="44.43387" lon="3.59789">
        <ele>1267</ele>
        <time>2022-05-27T08:51:58Z</time>
      </trkpt>
      <trkpt lat="44.43386" lon="3.5979">
        <ele>1267</ele>
        <time>2022-05-27T08:51:59Z</time>
      </trkpt>
      <trkpt lat="44.43385" lon="3.59791">
        <ele>1267</ele>
        <time>2022-05-27T08:52:00Z</time>
      </trkpt>
      <trkpt lat="44.43384" lon="3.59791">
        <ele>1267</ele>
        <time>2022-05-27T08:52:01Z</time>
      </trkpt>
      <trkpt lat="44.43383" lon="3.5979">
        <ele>1267</ele>
        <time>2022-05-27T08:52:02Z</time>
      </trkpt>
      <trkpt lat="44.43382" lon="3.59789">
        <ele>1266</ele>
        <time>2022-05-27T08:52:03Z</time>
      </trkpt>
      <trkpt lat="44.43381" lon="3.59788">
        <ele>1266</ele>
        <time>2022-05-27T08:52:04Z</time>
      </trkpt>
      <trkpt lat="44.4338" lon="3.59788">
        <ele>1266</ele>
        <time>2022-05-27T08:52:05Z</time>
      </trkpt>
      <trkpt lat="44.43379" lon="3.59788">
        <ele>1265</ele>
        <time>2022-05-27T08:52:06Z</time>
      </trkpt>
      <trkpt lat="44.43377" lon="3.59788">
        <ele>1264</ele>
        <time>2022-05-27T08:52:07Z</time>
      </trkpt>
      <trkpt lat="44.43376" lon="3.59788">
        <ele>1264</ele>
        <time>2022-05-27T08:52:08Z</time>
      </trkpt>
      <trkpt lat="44.43375" lon="3.59789">
        <ele>1264</ele>
        <time>2022-05-27T08:52:09Z</time>
      </trkpt>
      <trkpt lat="44.43374" lon="3.59789">
        <ele>1264</ele>
        <time>2022-05-27T08:52:10Z</time>
      </trkpt>
      <trkpt lat="44.43373" lon="3.59789">
        <ele>1264</ele>
        <time>2022-05-27T08:52:11Z</time>
      </trkpt>
      <trkpt lat="44.43371" lon="3.5979">
        <ele>1264</ele>
        <time>2022-05-27T08:52:12Z</time>
      </trkpt>
      <trkpt lat="44.4337" lon="3.5979">
        <ele>1264</ele>
        <time>2022-05-27T08:52:13Z</time>
      </trkpt>
      <trkpt lat="44.43368" lon="3.59791">
        <ele>1264</ele>
        <time>2022-05-27T08:52:14Z</time>
      </trkpt>
      <trkpt lat="44.43367" lon="3.59791">
        <ele>1263</ele>
        <time>2022-05-27T08:52:15Z</time>
      </trkpt>
      <trkpt lat="44.43366" lon="3.59792">
        <ele>1263</ele>
        <time>2022-05-27T08:52:16Z</time>
      </trkpt>
      <trkpt lat="44.43365" lon="3.59793">
        <ele>1264</ele>
        <time>2022-05-27T08:52:17Z</time>
      </trkpt>
      <trkpt lat="44.43364" lon="3.59794">
        <ele>1264</ele>
        <time>2022-05-27T08:52:18Z</time>
      </trkpt>
      <trkpt lat="44.43362" lon="3.59795">
        <ele>1263</ele>
        <time>2022-05-27T08:52:19Z</time>
      </trkpt>
      <trkpt lat="44.43361" lon="3.59796">
        <ele>1262</ele>
        <time>2022-05-27T08:52:20Z</time>
      </trkpt>
      <trkpt lat="44.43359" lon="3.59797">
        <ele>1262</ele>
        <time>2022-05-27T08:52:21Z</time>
      </trkpt>
      <trkpt lat="44.43358" lon="3.59798">
        <ele>1261</ele>
        <time>2022-05-27T08:52:22Z</time>
      </trkpt>
      <trkpt lat="44.43357" lon="3.59798">
        <ele>1261</ele>
        <time>2022-05-27T08:52:23Z</time>
      </trkpt>
      <trkpt lat="44.43356" lon="3.59798">
        <ele>1261</ele>
        <time>2022-05-27T08:52:24Z</time>
      </trkpt>
      <trkpt lat="44.43354" lon="3.59799">
        <ele>1260</ele>
        <time>2022-05-27T08:52:25Z</time>
      </trkpt>
      <trkpt lat="44.43353" lon="3.598">
        <ele>1260</ele>
        <time>2022-05-27T08:52:26Z</time>
      </trkpt>
      <trkpt lat="44.43352" lon="3.598">
        <ele>1260</ele>
        <time>2022-05-27T08:52:27Z</time>
      </trkpt>
      <trkpt lat="44.4335" lon="3.598">
        <ele>1260</ele>
        <time>2022-05-27T08:52:28Z</time>
      </trkpt>
      <trkpt lat="44.43349" lon="3.598">
        <ele>1261</ele>
        <time>2022-05-27T08:52:29Z</time>
      </trkpt>
      <trkpt lat="44.43348" lon="3.59801">
        <ele>1262</ele>
        <time>2022-05-27T08:52:30Z</time>
      </trkpt>
      <trkpt lat="44.43346" lon="3.59802">
        <ele>1261</ele>
        <time>2022-05-27T08:52:31Z</time>
      </trkpt>
      <trkpt lat="44.43345" lon="3.59803">
        <ele>1260</ele>
        <time>2022-05-27T08:52:32Z</time>
      </trkpt>
      <trkpt lat="44.43344" lon="3.59804">
        <ele>1261</ele>
        <time>2022-05-27T08:52:33Z</time>
      </trkpt>
      <trkpt lat="44.43343" lon="3.59804">
        <ele>1261</ele>
        <time>2022-05-27T08:52:34Z</time>
      </trkpt>
      <trkpt lat="44.43343" lon="3.59805">
        <ele>1262</ele>
        <time>2022-05-27T08:52:35Z</time>
      </trkpt>
      <trkpt lat="44.43342" lon="3.59806">
        <ele>1262</ele>
        <time>2022-05-27T08:52:36Z</time>
      </trkpt>
      <trkpt lat="44.43341" lon="3.59808">
        <ele>1261</ele>
        <time>2022-05-27T08:52:37Z</time>
      </trkpt>
      <trkpt lat="44.4334" lon="3.59809">
        <ele>1260</ele>
        <time>2022-05-27T08:52:38Z</time>
      </trkpt>
      <trkpt lat="44.43339" lon="3.59811">
        <ele>1261</ele>
        <time>2022-05-27T08:52:39Z</time>
      </trkpt>
      <trkpt lat="44.43338" lon="3.59812">
        <ele>1261</ele>
        <time>2022-05-27T08:52:40Z</time>
      </trkpt>
      <trkpt lat="44.43338" lon="3.59813">
        <ele>1260</ele>
        <time>2022-05-27T08:52:41Z</time>
      </trkpt>
      <trkpt lat="44.43338" lon="3.59813">
        <ele>1260</ele>
        <time>2022-05-27T08:52:42Z</time>
      </trkpt>
      <trkpt lat="44.43339" lon="3.59815">
        <ele>1260</ele>
        <time>2022-05-27T08:52:43Z</time>
      </trkpt>
      <trkpt lat="44.4334" lon="3.59815">
        <ele>1261</ele>
        <time>2022-05-27T08:52:44Z</time>
      </trkpt>
      <trkpt lat="44.43341" lon="3.59815">
        <ele>1261</ele>
        <time>2022-05-27T08:52:45Z</time>
      </trkpt>
      <trkpt lat="44.43341" lon="3.59816">
        <ele>1261</ele>
        <time>2022-05-27T08:52:46Z</time>
      </trkpt>
      <trkpt lat="44.43341" lon="3.59817">
        <ele>1261</ele>
        <time>2022-05-27T08:52:47Z</time>
      </trkpt>
      <trkpt lat="44.43341" lon="3.59818">
        <ele>1261</ele>
        <time>2022-05-27T08:52:48Z</time>
      </trkpt>
      <trkpt lat="44.43342" lon="3.59819">
        <ele>1261</ele>
        <time>2022-05-27T08:52:49Z</time>
      </trkpt>
      <trkpt lat="44.43343" lon="3.5982">
        <ele>1261</ele>
        <time>2022-05-27T08:52:50Z</time>
      </trkpt>
      <trkpt lat="44.43344" lon="3.59821">
        <ele>1261</ele>
        <time>2022-05-27T08:52:51Z</time>
      </trkpt>
      <trkpt lat="44.43346" lon="3.59823">
        <ele>1261</ele>
        <time>2022-05-27T08:52:52Z</time>
      </trkpt>
      <trkpt lat="44.43346" lon="3.59824">
        <ele>1261</ele>
        <time>2022-05-27T08:52:53Z</time>
      </trkpt>
      <trkpt lat="44.43347" lon="3.59825">
        <ele>1262</ele>
        <time>2022-05-27T08:52:54Z</time>
      </trkpt>
      <trkpt lat="44.43348" lon="3.59825">
        <ele>1262</ele>
        <time>2022-05-27T08:52:55Z</time>
      </trkpt>
      <trkpt lat="44.43348" lon="3.59827">
        <ele>1262</ele>
        <time>2022-05-27T08:52:56Z</time>
      </trkpt>
      <trkpt lat="44.43349" lon="3.59828">
        <ele>1261</ele>
        <time>2022-05-27T08:52:57Z</time>
      </trkpt>
      <trkpt lat="44.4335" lon="3.59829">
        <ele>1261</ele>
        <time>2022-05-27T08:52:58Z</time>
      </trkpt>
      <trkpt lat="44.43351" lon="3.5983">
        <ele>1262</ele>
        <time>2022-05-27T08:52:59Z</time>
      </trkpt>
      <trkpt lat="44.43351" lon="3.5983">
        <ele>1263</ele>
        <time>2022-05-27T08:53:00Z</time>
      </trkpt>
      <trkpt lat="44.43352" lon="3.59832">
        <ele>1263</ele>
        <time>2022-05-27T08:53:01Z</time>
      </trkpt>
      <trkpt lat="44.43353" lon="3.59833">
        <ele>1263</ele>
        <time>2022-05-27T08:53:02Z</time>
      </trkpt>
      <trkpt lat="44.43354" lon="3.59834">
        <ele>1263</ele>
        <time>2022-05-27T08:53:03Z</time>
      </trkpt>
      <trkpt lat="44.43354" lon="3.59835">
        <ele>1263</ele>
        <time>2022-05-27T08:53:04Z</time>
      </trkpt>
      <trkpt lat="44.43355" lon="3.59836">
        <ele>1263</ele>
        <time>2022-05-27T08:53:05Z</time>
      </trkpt>
      <trkpt lat="44.43356" lon="3.59837">
        <ele>1264</ele>
        <time>2022-05-27T08:53:06Z</time>
      </trkpt>
      <trkpt lat="44.43356" lon="3.59838">
        <ele>1265</ele>
        <time>2022-05-27T08:53:07Z</time>
      </trkpt>
      <trkpt lat="44.43357" lon="3.59839">
        <ele>1264</ele>
        <time>2022-05-27T08:53:08Z</time>
      </trkpt>
      <trkpt lat="44.43358" lon="3.59841">
        <ele>1265</ele>
        <time>2022-05-27T08:53:09Z</time>
      </trkpt>
      <trkpt lat="44.43358" lon="3.59842">
        <ele>1264</ele>
        <time>2022-05-27T08:53:10Z</time>
      </trkpt>
      <trkpt lat="44.43359" lon="3.59843">
        <ele>1264</ele>
        <time>2022-05-27T08:53:11Z</time>
      </trkpt>
      <trkpt lat="44.43359" lon="3.59844">
        <ele>1265</ele>
        <time>2022-05-27T08:53:12Z</time>
      </trkpt>
      <trkpt lat="44.43359" lon="3.59844">
        <ele>1265</ele>
        <time>2022-05-27T08:53:13Z</time>
      </trkpt>
      <trkpt lat="44.43361" lon="3.59845">
        <ele>1266</ele>
        <time>2022-05-27T08:53:14Z</time>
      </trkpt>
      <trkpt lat="44.43361" lon="3.59847">
        <ele>1266</ele>
        <time>2022-05-27T08:53:15Z</time>
      </trkpt>
      <trkpt lat="44.43362" lon="3.59848">
        <ele>1267</ele>
        <time>2022-05-27T08:53:16Z</time>
      </trkpt>
      <trkpt lat="44.43362" lon="3.59849">
        <ele>1267</ele>
        <time>2022-05-27T08:53:17Z</time>
      </trkpt>
      <trkpt lat="44.43363" lon="3.5985">
        <ele>1267</ele>
        <time>2022-05-27T08:53:18Z</time>
      </trkpt>
      <trkpt lat="44.43363" lon="3.59852">
        <ele>1268</ele>
        <time>2022-05-27T08:53:19Z</time>
      </trkpt>
      <trkpt lat="44.43364" lon="3.59853">
        <ele>1268</ele>
        <time>2022-05-27T08:53:20Z</time>
      </trkpt>
      <trkpt lat="44.43364" lon="3.59854">
        <ele>1268</ele>
        <time>2022-05-27T08:53:21Z</time>
      </trkpt>
      <trkpt lat="44.43364" lon="3.59855">
        <ele>1268</ele>
        <time>2022-05-27T08:53:22Z</time>
      </trkpt>
      <trkpt lat="44.43365" lon="3.59856">
        <ele>1269</ele>
        <time>2022-05-27T08:53:23Z</time>
      </trkpt>
      <trkpt lat="44.43366" lon="3.59858">
        <ele>1269</ele>
        <time>2022-05-27T08:53:24Z</time>
      </trkpt>
      <trkpt lat="44.43366" lon="3.59859">
        <ele>1268</ele>
        <time>2022-05-27T08:53:25Z</time>
      </trkpt>
      <trkpt lat="44.43367" lon="3.5986">
        <ele>1268</ele>
        <time>2022-05-27T08:53:26Z</time>
      </trkpt>
      <trkpt lat="44.43367" lon="3.59861">
        <ele>1268</ele>
        <time>2022-05-27T08:53:27Z</time>
      </trkpt>
      <trkpt lat="44.43368" lon="3.59863">
        <ele>1268</ele>
        <time>2022-05-27T08:53:28Z</time>
      </trkpt>
      <trkpt lat="44.43369" lon="3.59864">
        <ele>1268</ele>
        <time>2022-05-27T08:53:29Z</time>
      </trkpt>
      <trkpt lat="44.43369" lon="3.59866">
        <ele>1268</ele>
        <time>2022-05-27T08:53:30Z</time>
      </trkpt>
      <trkpt lat="44.4337" lon="3.59866">
        <ele>1269</ele>
        <time>2022-05-27T08:53:31Z</time>
      </trkpt>
      <trkpt lat="44.4337" lon="3.59868">
        <ele>1269</ele>
        <time>2022-05-27T08:53:32Z</time>
      </trkpt>
      <trkpt lat="44.4337" lon="3.59869">
        <ele>1270</ele>
        <time>2022-05-27T08:53:33Z</time>
      </trkpt>
      <trkpt lat="44.43371" lon="3.59871">
        <ele>1270</ele>
        <time>2022-05-27T08:53:34Z</time>
      </trkpt>
      <trkpt lat="44.43372" lon="3.59872">
        <ele>1270</ele>
        <time>2022-05-27T08:53:35Z</time>
      </trkpt>
      <trkpt lat="44.43372" lon="3.59873">
        <ele>1270</ele>
        <time>2022-05-27T08:53:36Z</time>
      </trkpt>
      <trkpt lat="44.43373" lon="3.59874">
        <ele>1269</ele>
        <time>2022-05-27T08:53:37Z</time>
      </trkpt>
      <trkpt lat="44.43373" lon="3.59875">
        <ele>1270</ele>
        <time>2022-05-27T08:53:38Z</time>
      </trkpt>
      <trkpt lat="44.43374" lon="3.59876">
        <ele>1269</ele>
        <time>2022-05-27T08:53:39Z</time>
      </trkpt>
      <trkpt lat="44.43375" lon="3.59877">
        <ele>1269</ele>
        <time>2022-05-27T08:53:40Z</time>
      </trkpt>
      <trkpt lat="44.43375" lon="3.59878">
        <ele>1269</ele>
        <time>2022-05-27T08:53:41Z</time>
      </trkpt>
      <trkpt lat="44.43375" lon="3.5988">
        <ele>1269</ele>
        <time>2022-05-27T08:53:42Z</time>
      </trkpt>
      <trkpt lat="44.43376" lon="3.59881">
        <ele>1269</ele>
        <time>2022-05-27T08:53:43Z</time>
      </trkpt>
      <trkpt lat="44.43377" lon="3.59882">
        <ele>1269</ele>
        <time>2022-05-27T08:53:44Z</time>
      </trkpt>
      <trkpt lat="44.43378" lon="3.59883">
        <ele>1270</ele>
        <time>2022-05-27T08:53:45Z</time>
      </trkpt>
      <trkpt lat="44.43378" lon="3.59884">
        <ele>1270</ele>
        <time>2022-05-27T08:53:46Z</time>
      </trkpt>
      <trkpt lat="44.43378" lon="3.59885">
        <ele>1271</ele>
        <time>2022-05-27T08:53:47Z</time>
      </trkpt>
      <trkpt lat="44.43379" lon="3.59887">
        <ele>1272</ele>
        <time>2022-05-27T08:53:48Z</time>
      </trkpt>
      <trkpt lat="44.4338" lon="3.59888">
        <ele>1272</ele>
        <time>2022-05-27T08:53:49Z</time>
      </trkpt>
      <trkpt lat="44.4338" lon="3.59889">
        <ele>1273</ele>
        <time>2022-05-27T08:53:50Z</time>
      </trkpt>
      <trkpt lat="44.4338" lon="3.5989">
        <ele>1273</ele>
        <time>2022-05-27T08:53:51Z</time>
      </trkpt>
      <trkpt lat="44.43381" lon="3.59891">
        <ele>1273</ele>
        <time>2022-05-27T08:53:52Z</time>
      </trkpt>
      <trkpt lat="44.43382" lon="3.59892">
        <ele>1274</ele>
        <time>2022-05-27T08:53:53Z</time>
      </trkpt>
      <trkpt lat="44.43382" lon="3.59894">
        <ele>1274</ele>
        <time>2022-05-27T08:53:54Z</time>
      </trkpt>
      <trkpt lat="44.43383" lon="3.59895">
        <ele>1273</ele>
        <time>2022-05-27T08:53:55Z</time>
      </trkpt>
      <trkpt lat="44.43384" lon="3.59899">
        <ele>1274</ele>
        <time>2022-05-27T08:53:57Z</time>
      </trkpt>
      <trkpt lat="44.43385" lon="3.599">
        <ele>1274</ele>
        <time>2022-05-27T08:53:58Z</time>
      </trkpt>
      <trkpt lat="44.43385" lon="3.59901">
        <ele>1274</ele>
        <time>2022-05-27T08:53:59Z</time>
      </trkpt>
      <trkpt lat="44.43386" lon="3.59902">
        <ele>1274</ele>
        <time>2022-05-27T08:54:00Z</time>
      </trkpt>
      <trkpt lat="44.43387" lon="3.59903">
        <ele>1274</ele>
        <time>2022-05-27T08:54:01Z</time>
      </trkpt>
      <trkpt lat="44.43388" lon="3.59904">
        <ele>1274</ele>
        <time>2022-05-27T08:54:02Z</time>
      </trkpt>
      <trkpt lat="44.43388" lon="3.59904">
        <ele>1275</ele>
        <time>2022-05-27T08:54:03Z</time>
      </trkpt>
      <trkpt lat="44.43389" lon="3.59906">
        <ele>1275</ele>
        <time>2022-05-27T08:54:04Z</time>
      </trkpt>
      <trkpt lat="44.4339" lon="3.59907">
        <ele>1275</ele>
        <time>2022-05-27T08:54:05Z</time>
      </trkpt>
      <trkpt lat="44.4339" lon="3.59907">
        <ele>1275</ele>
        <time>2022-05-27T08:54:06Z</time>
      </trkpt>
      <trkpt lat="44.43391" lon="3.59909">
        <ele>1275</ele>
        <time>2022-05-27T08:54:07Z</time>
      </trkpt>
      <trkpt lat="44.43392" lon="3.59909">
        <ele>1276</ele>
        <time>2022-05-27T08:54:08Z</time>
      </trkpt>
      <trkpt lat="44.43392" lon="3.5991">
        <ele>1276</ele>
        <time>2022-05-27T08:54:09Z</time>
      </trkpt>
      <trkpt lat="44.43393" lon="3.59912">
        <ele>1276</ele>
        <time>2022-05-27T08:54:10Z</time>
      </trkpt>
      <trkpt lat="44.43393" lon="3.59912">
        <ele>1277</ele>
        <time>2022-05-27T08:54:11Z</time>
      </trkpt>
      <trkpt lat="44.43394" lon="3.59913">
        <ele>1277</ele>
        <time>2022-05-27T08:54:12Z</time>
      </trkpt>
      <trkpt lat="44.43395" lon="3.59914">
        <ele>1277</ele>
        <time>2022-05-27T08:54:13Z</time>
      </trkpt>
      <trkpt lat="44.43395" lon="3.59915">
        <ele>1277</ele>
        <time>2022-05-27T08:54:14Z</time>
      </trkpt>
      <trkpt lat="44.43396" lon="3.59916">
        <ele>1278</ele>
        <time>2022-05-27T08:54:15Z</time>
      </trkpt>
      <trkpt lat="44.43396" lon="3.59917">
        <ele>1277</ele>
        <time>2022-05-27T08:54:16Z</time>
      </trkpt>
      <trkpt lat="44.43396" lon="3.59918">
        <ele>1277</ele>
        <time>2022-05-27T08:54:17Z</time>
      </trkpt>
      <trkpt lat="44.43397" lon="3.59919">
        <ele>1277</ele>
        <time>2022-05-27T08:54:18Z</time>
      </trkpt>
      <trkpt lat="44.43397" lon="3.5992">
        <ele>1278</ele>
        <time>2022-05-27T08:54:19Z</time>
      </trkpt>
      <trkpt lat="44.43397" lon="3.59921">
        <ele>1278</ele>
        <time>2022-05-27T08:54:20Z</time>
      </trkpt>
      <trkpt lat="44.43397" lon="3.59922">
        <ele>1278</ele>
        <time>2022-05-27T08:54:21Z</time>
      </trkpt>
      <trkpt lat="44.43396" lon="3.59923">
        <ele>1279</ele>
        <time>2022-05-27T08:54:22Z</time>
      </trkpt>
      <trkpt lat="44.43395" lon="3.59924">
        <ele>1279</ele>
        <time>2022-05-27T08:54:23Z</time>
      </trkpt>
      <trkpt lat="44.43395" lon="3.59924">
        <ele>1279</ele>
        <time>2022-05-27T08:54:24Z</time>
      </trkpt>
      <trkpt lat="44.43394" lon="3.59924">
        <ele>1279</ele>
        <time>2022-05-27T08:54:25Z</time>
      </trkpt>
      <trkpt lat="44.43393" lon="3.59924">
        <ele>1279</ele>
        <time>2022-05-27T08:54:26Z</time>
      </trkpt>
      <trkpt lat="44.43392" lon="3.59925">
        <ele>1280</ele>
        <time>2022-05-27T08:54:27Z</time>
      </trkpt>
      <trkpt lat="44.43391" lon="3.59925">
        <ele>1280</ele>
        <time>2022-05-27T08:54:28Z</time>
      </trkpt>
      <trkpt lat="44.4339" lon="3.59925">
        <ele>1279</ele>
        <time>2022-05-27T08:54:29Z</time>
      </trkpt>
      <trkpt lat="44.43389" lon="3.59924">
        <ele>1280</ele>
        <time>2022-05-27T08:54:30Z</time>
      </trkpt>
      <trkpt lat="44.43388" lon="3.59924">
        <ele>1280</ele>
        <time>2022-05-27T08:54:31Z</time>
      </trkpt>
      <trkpt lat="44.43387" lon="3.59923">
        <ele>1280</ele>
        <time>2022-05-27T08:54:32Z</time>
      </trkpt>
      <trkpt lat="44.43385" lon="3.59923">
        <ele>1280</ele>
        <time>2022-05-27T08:54:33Z</time>
      </trkpt>
      <trkpt lat="44.43385" lon="3.59923">
        <ele>1280</ele>
        <time>2022-05-27T08:54:34Z</time>
      </trkpt>
      <trkpt lat="44.43383" lon="3.59923">
        <ele>1280</ele>
        <time>2022-05-27T08:54:35Z</time>
      </trkpt>
      <trkpt lat="44.43383" lon="3.59923">
        <ele>1280</ele>
        <time>2022-05-27T08:54:36Z</time>
      </trkpt>
      <trkpt lat="44.43382" lon="3.59922">
        <ele>1280</ele>
        <time>2022-05-27T08:54:37Z</time>
      </trkpt>
      <trkpt lat="44.4338" lon="3.59922">
        <ele>1280</ele>
        <time>2022-05-27T08:54:38Z</time>
      </trkpt>
      <trkpt lat="44.43379" lon="3.59922">
        <ele>1280</ele>
        <time>2022-05-27T08:54:39Z</time>
      </trkpt>
      <trkpt lat="44.43378" lon="3.59922">
        <ele>1281</ele>
        <time>2022-05-27T08:54:40Z</time>
      </trkpt>
      <trkpt lat="44.43377" lon="3.59921">
        <ele>1281</ele>
        <time>2022-05-27T08:54:41Z</time>
      </trkpt>
      <trkpt lat="44.43376" lon="3.59921">
        <ele>1282</ele>
        <time>2022-05-27T08:54:42Z</time>
      </trkpt>
      <trkpt lat="44.43375" lon="3.59921">
        <ele>1282</ele>
        <time>2022-05-27T08:54:43Z</time>
      </trkpt>
      <trkpt lat="44.43373" lon="3.59921">
        <ele>1282</ele>
        <time>2022-05-27T08:54:44Z</time>
      </trkpt>
      <trkpt lat="44.43372" lon="3.59921">
        <ele>1282</ele>
        <time>2022-05-27T08:54:45Z</time>
      </trkpt>
      <trkpt lat="44.43371" lon="3.59921">
        <ele>1283</ele>
        <time>2022-05-27T08:54:46Z</time>
      </trkpt>
      <trkpt lat="44.4337" lon="3.59921">
        <ele>1283</ele>
        <time>2022-05-27T08:54:47Z</time>
      </trkpt>
      <trkpt lat="44.43369" lon="3.59921">
        <ele>1284</ele>
        <time>2022-05-27T08:54:48Z</time>
      </trkpt>
      <trkpt lat="44.43367" lon="3.59921">
        <ele>1284</ele>
        <time>2022-05-27T08:54:49Z</time>
      </trkpt>
      <trkpt lat="44.43366" lon="3.59921">
        <ele>1284</ele>
        <time>2022-05-27T08:54:50Z</time>
      </trkpt>
      <trkpt lat="44.43365" lon="3.59921">
        <ele>1284</ele>
        <time>2022-05-27T08:54:51Z</time>
      </trkpt>
      <trkpt lat="44.43364" lon="3.5992">
        <ele>1284</ele>
        <time>2022-05-27T08:54:52Z</time>
      </trkpt>
      <trkpt lat="44.43362" lon="3.5992">
        <ele>1284</ele>
        <time>2022-05-27T08:54:53Z</time>
      </trkpt>
      <trkpt lat="44.43361" lon="3.5992">
        <ele>1285</ele>
        <time>2022-05-27T08:54:54Z</time>
      </trkpt>
      <trkpt lat="44.4336" lon="3.5992">
        <ele>1285</ele>
        <time>2022-05-27T08:54:55Z</time>
      </trkpt>
      <trkpt lat="44.43359" lon="3.59921">
        <ele>1285</ele>
        <time>2022-05-27T08:54:56Z</time>
      </trkpt>
      <trkpt lat="44.43358" lon="3.59921">
        <ele>1285</ele>
        <time>2022-05-27T08:54:57Z</time>
      </trkpt>
      <trkpt lat="44.43357" lon="3.5992">
        <ele>1285</ele>
        <time>2022-05-27T08:54:58Z</time>
      </trkpt>
      <trkpt lat="44.43356" lon="3.59919">
        <ele>1285</ele>
        <time>2022-05-27T08:54:59Z</time>
      </trkpt>
      <trkpt lat="44.43354" lon="3.59919">
        <ele>1285</ele>
        <time>2022-05-27T08:55:00Z</time>
      </trkpt>
      <trkpt lat="44.43353" lon="3.59919">
        <ele>1284</ele>
        <time>2022-05-27T08:55:01Z</time>
      </trkpt>
      <trkpt lat="44.43352" lon="3.59919">
        <ele>1284</ele>
        <time>2022-05-27T08:55:02Z</time>
      </trkpt>
      <trkpt lat="44.43351" lon="3.59919">
        <ele>1283</ele>
        <time>2022-05-27T08:55:03Z</time>
      </trkpt>
      <trkpt lat="44.4335" lon="3.59919">
        <ele>1283</ele>
        <time>2022-05-27T08:55:04Z</time>
      </trkpt>
      <trkpt lat="44.43348" lon="3.59918">
        <ele>1283</ele>
        <time>2022-05-27T08:55:05Z</time>
      </trkpt>
      <trkpt lat="44.43347" lon="3.59918">
        <ele>1283</ele>
        <time>2022-05-27T08:55:06Z</time>
      </trkpt>
      <trkpt lat="44.43346" lon="3.59918">
        <ele>1283</ele>
        <time>2022-05-27T08:55:07Z</time>
      </trkpt>
      <trkpt lat="44.43344" lon="3.59917">
        <ele>1283</ele>
        <time>2022-05-27T08:55:08Z</time>
      </trkpt>
      <trkpt lat="44.43343" lon="3.59917">
        <ele>1283</ele>
        <time>2022-05-27T08:55:09Z</time>
      </trkpt>
      <trkpt lat="44.43341" lon="3.59918">
        <ele>1283</ele>
        <time>2022-05-27T08:55:10Z</time>
      </trkpt>
      <trkpt lat="44.4334" lon="3.59917">
        <ele>1284</ele>
        <time>2022-05-27T08:55:11Z</time>
      </trkpt>
      <trkpt lat="44.43339" lon="3.59918">
        <ele>1284</ele>
        <time>2022-05-27T08:55:12Z</time>
      </trkpt>
      <trkpt lat="44.43338" lon="3.59918">
        <ele>1284</ele>
        <time>2022-05-27T08:55:13Z</time>
      </trkpt>
      <trkpt lat="44.43337" lon="3.59917">
        <ele>1284</ele>
        <time>2022-05-27T08:55:14Z</time>
      </trkpt>
      <trkpt lat="44.43336" lon="3.59917">
        <ele>1284</ele>
        <time>2022-05-27T08:55:15Z</time>
      </trkpt>
      <trkpt lat="44.43335" lon="3.59917">
        <ele>1284</ele>
        <time>2022-05-27T08:55:16Z</time>
      </trkpt>
      <trkpt lat="44.43333" lon="3.59917">
        <ele>1284</ele>
        <time>2022-05-27T08:55:17Z</time>
      </trkpt>
      <trkpt lat="44.43333" lon="3.59917">
        <ele>1284</ele>
        <time>2022-05-27T08:55:18Z</time>
      </trkpt>
      <trkpt lat="44.43331" lon="3.59917">
        <ele>1284</ele>
        <time>2022-05-27T08:55:19Z</time>
      </trkpt>
      <trkpt lat="44.4333" lon="3.59917">
        <ele>1284</ele>
        <time>2022-05-27T08:55:20Z</time>
      </trkpt>
      <trkpt lat="44.43329" lon="3.59917">
        <ele>1283</ele>
        <time>2022-05-27T08:55:21Z</time>
      </trkpt>
      <trkpt lat="44.43328" lon="3.59918">
        <ele>1283</ele>
        <time>2022-05-27T08:55:22Z</time>
      </trkpt>
      <trkpt lat="44.43327" lon="3.59918">
        <ele>1283</ele>
        <time>2022-05-27T08:55:23Z</time>
      </trkpt>
      <trkpt lat="44.43326" lon="3.59918">
        <ele>1283</ele>
        <time>2022-05-27T08:55:24Z</time>
      </trkpt>
      <trkpt lat="44.43325" lon="3.59919">
        <ele>1284</ele>
        <time>2022-05-27T08:55:25Z</time>
      </trkpt>
      <trkpt lat="44.43324" lon="3.59918">
        <ele>1284</ele>
        <time>2022-05-27T08:55:26Z</time>
      </trkpt>
      <trkpt lat="44.43322" lon="3.59919">
        <ele>1284</ele>
        <time>2022-05-27T08:55:27Z</time>
      </trkpt>
      <trkpt lat="44.43322" lon="3.59918">
        <ele>1284</ele>
        <time>2022-05-27T08:55:28Z</time>
      </trkpt>
      <trkpt lat="44.43321" lon="3.59919">
        <ele>1284</ele>
        <time>2022-05-27T08:55:29Z</time>
      </trkpt>
      <trkpt lat="44.43319" lon="3.59919">
        <ele>1284</ele>
        <time>2022-05-27T08:55:30Z</time>
      </trkpt>
      <trkpt lat="44.43318" lon="3.59919">
        <ele>1285</ele>
        <time>2022-05-27T08:55:31Z</time>
      </trkpt>
      <trkpt lat="44.43317" lon="3.5992">
        <ele>1285</ele>
        <time>2022-05-27T08:55:32Z</time>
      </trkpt>
      <trkpt lat="44.43316" lon="3.5992">
        <ele>1285</ele>
        <time>2022-05-27T08:55:33Z</time>
      </trkpt>
      <trkpt lat="44.43314" lon="3.5992">
        <ele>1286</ele>
        <time>2022-05-27T08:55:34Z</time>
      </trkpt>
      <trkpt lat="44.43313" lon="3.5992">
        <ele>1285</ele>
        <time>2022-05-27T08:55:35Z</time>
      </trkpt>
      <trkpt lat="44.43311" lon="3.5992">
        <ele>1286</ele>
        <time>2022-05-27T08:55:36Z</time>
      </trkpt>
      <trkpt lat="44.43309" lon="3.5992">
        <ele>1286</ele>
        <time>2022-05-27T08:55:37Z</time>
      </trkpt>
      <trkpt lat="44.43308" lon="3.5992">
        <ele>1286</ele>
        <time>2022-05-27T08:55:38Z</time>
      </trkpt>
      <trkpt lat="44.43307" lon="3.5992">
        <ele>1286</ele>
        <time>2022-05-27T08:55:39Z</time>
      </trkpt>
      <trkpt lat="44.43306" lon="3.5992">
        <ele>1286</ele>
        <time>2022-05-27T08:55:40Z</time>
      </trkpt>
      <trkpt lat="44.43305" lon="3.59921">
        <ele>1285</ele>
        <time>2022-05-27T08:55:41Z</time>
      </trkpt>
      <trkpt lat="44.43304" lon="3.59921">
        <ele>1285</ele>
        <time>2022-05-27T08:55:42Z</time>
      </trkpt>
      <trkpt lat="44.43303" lon="3.59922">
        <ele>1285</ele>
        <time>2022-05-27T08:55:43Z</time>
      </trkpt>
      <trkpt lat="44.43302" lon="3.59922">
        <ele>1285</ele>
        <time>2022-05-27T08:55:44Z</time>
      </trkpt>
      <trkpt lat="44.43301" lon="3.59923">
        <ele>1286</ele>
        <time>2022-05-27T08:55:45Z</time>
      </trkpt>
      <trkpt lat="44.433" lon="3.59923">
        <ele>1286</ele>
        <time>2022-05-27T08:55:46Z</time>
      </trkpt>
      <trkpt lat="44.43298" lon="3.59924">
        <ele>1286</ele>
        <time>2022-05-27T08:55:47Z</time>
      </trkpt>
      <trkpt lat="44.43297" lon="3.59925">
        <ele>1286</ele>
        <time>2022-05-27T08:55:48Z</time>
      </trkpt>
      <trkpt lat="44.43296" lon="3.59925">
        <ele>1286</ele>
        <time>2022-05-27T08:55:49Z</time>
      </trkpt>
      <trkpt lat="44.43295" lon="3.59926">
        <ele>1287</ele>
        <time>2022-05-27T08:55:50Z</time>
      </trkpt>
      <trkpt lat="44.43293" lon="3.59927">
        <ele>1287</ele>
        <time>2022-05-27T08:55:51Z</time>
      </trkpt>
      <trkpt lat="44.43292" lon="3.59927">
        <ele>1287</ele>
        <time>2022-05-27T08:55:52Z</time>
      </trkpt>
      <trkpt lat="44.43291" lon="3.59928">
        <ele>1287</ele>
        <time>2022-05-27T08:55:53Z</time>
      </trkpt>
      <trkpt lat="44.4329" lon="3.59928">
        <ele>1287</ele>
        <time>2022-05-27T08:55:54Z</time>
      </trkpt>
      <trkpt lat="44.43289" lon="3.59929">
        <ele>1287</ele>
        <time>2022-05-27T08:55:55Z</time>
      </trkpt>
      <trkpt lat="44.43288" lon="3.5993">
        <ele>1287</ele>
        <time>2022-05-27T08:55:56Z</time>
      </trkpt>
      <trkpt lat="44.43287" lon="3.59931">
        <ele>1288</ele>
        <time>2022-05-27T08:55:57Z</time>
      </trkpt>
      <trkpt lat="44.43286" lon="3.59932">
        <ele>1288</ele>
        <time>2022-05-27T08:55:58Z</time>
      </trkpt>
      <trkpt lat="44.43285" lon="3.59933">
        <ele>1288</ele>
        <time>2022-05-27T08:55:59Z</time>
      </trkpt>
      <trkpt lat="44.43284" lon="3.59934">
        <ele>1288</ele>
        <time>2022-05-27T08:56:00Z</time>
      </trkpt>
      <trkpt lat="44.43284" lon="3.59935">
        <ele>1289</ele>
        <time>2022-05-27T08:56:01Z</time>
      </trkpt>
      <trkpt lat="44.43282" lon="3.59936">
        <ele>1289</ele>
        <time>2022-05-27T08:56:02Z</time>
      </trkpt>
      <trkpt lat="44.43282" lon="3.59936">
        <ele>1289</ele>
        <time>2022-05-27T08:56:03Z</time>
      </trkpt>
      <trkpt lat="44.4328" lon="3.59937">
        <ele>1289</ele>
        <time>2022-05-27T08:56:04Z</time>
      </trkpt>
      <trkpt lat="44.43279" lon="3.59938">
        <ele>1289</ele>
        <time>2022-05-27T08:56:05Z</time>
      </trkpt>
      <trkpt lat="44.43278" lon="3.59938">
        <ele>1289</ele>
        <time>2022-05-27T08:56:06Z</time>
      </trkpt>
      <trkpt lat="44.43277" lon="3.59939">
        <ele>1289</ele>
        <time>2022-05-27T08:56:07Z</time>
      </trkpt>
      <trkpt lat="44.43276" lon="3.5994">
        <ele>1290</ele>
        <time>2022-05-27T08:56:08Z</time>
      </trkpt>
      <trkpt lat="44.43275" lon="3.5994">
        <ele>1290</ele>
        <time>2022-05-27T08:56:09Z</time>
      </trkpt>
      <trkpt lat="44.43274" lon="3.59941">
        <ele>1290</ele>
        <time>2022-05-27T08:56:10Z</time>
      </trkpt>
      <trkpt lat="44.43272" lon="3.59941">
        <ele>1290</ele>
        <time>2022-05-27T08:56:11Z</time>
      </trkpt>
      <trkpt lat="44.43272" lon="3.59942">
        <ele>1290</ele>
        <time>2022-05-27T08:56:12Z</time>
      </trkpt>
      <trkpt lat="44.43271" lon="3.59943">
        <ele>1290</ele>
        <time>2022-05-27T08:56:13Z</time>
      </trkpt>
      <trkpt lat="44.4327" lon="3.59944">
        <ele>1291</ele>
        <time>2022-05-27T08:56:14Z</time>
      </trkpt>
      <trkpt lat="44.43269" lon="3.59945">
        <ele>1291</ele>
        <time>2022-05-27T08:56:15Z</time>
      </trkpt>
      <trkpt lat="44.43268" lon="3.59946">
        <ele>1291</ele>
        <time>2022-05-27T08:56:16Z</time>
      </trkpt>
      <trkpt lat="44.43267" lon="3.59947">
        <ele>1292</ele>
        <time>2022-05-27T08:56:17Z</time>
      </trkpt>
      <trkpt lat="44.43266" lon="3.59948">
        <ele>1292</ele>
        <time>2022-05-27T08:56:18Z</time>
      </trkpt>
      <trkpt lat="44.43265" lon="3.5995">
        <ele>1291</ele>
        <time>2022-05-27T08:56:19Z</time>
      </trkpt>
      <trkpt lat="44.43264" lon="3.59952">
        <ele>1291</ele>
        <time>2022-05-27T08:56:20Z</time>
      </trkpt>
      <trkpt lat="44.43264" lon="3.59953">
        <ele>1292</ele>
        <time>2022-05-27T08:56:21Z</time>
      </trkpt>
      <trkpt lat="44.43263" lon="3.59954">
        <ele>1292</ele>
        <time>2022-05-27T08:56:22Z</time>
      </trkpt>
      <trkpt lat="44.43262" lon="3.59955">
        <ele>1292</ele>
        <time>2022-05-27T08:56:23Z</time>
      </trkpt>
      <trkpt lat="44.43261" lon="3.59957">
        <ele>1291</ele>
        <time>2022-05-27T08:56:24Z</time>
      </trkpt>
      <trkpt lat="44.43261" lon="3.59958">
        <ele>1291</ele>
        <time>2022-05-27T08:56:25Z</time>
      </trkpt>
      <trkpt lat="44.43261" lon="3.59959">
        <ele>1292</ele>
        <time>2022-05-27T08:56:26Z</time>
      </trkpt>
      <trkpt lat="44.4326" lon="3.5996">
        <ele>1292</ele>
        <time>2022-05-27T08:56:27Z</time>
      </trkpt>
      <trkpt lat="44.43259" lon="3.59961">
        <ele>1291</ele>
        <time>2022-05-27T08:56:28Z</time>
      </trkpt>
      <trkpt lat="44.43259" lon="3.59962">
        <ele>1292</ele>
        <time>2022-05-27T08:56:29Z</time>
      </trkpt>
      <trkpt lat="44.43258" lon="3.59963">
        <ele>1291</ele>
        <time>2022-05-27T08:56:30Z</time>
      </trkpt>
      <trkpt lat="44.43258" lon="3.59964">
        <ele>1291</ele>
        <time>2022-05-27T08:56:31Z</time>
      </trkpt>
      <trkpt lat="44.43257" lon="3.59965">
        <ele>1291</ele>
        <time>2022-05-27T08:56:32Z</time>
      </trkpt>
      <trkpt lat="44.43256" lon="3.59966">
        <ele>1291</ele>
        <time>2022-05-27T08:56:33Z</time>
      </trkpt>
      <trkpt lat="44.43256" lon="3.59967">
        <ele>1291</ele>
        <time>2022-05-27T08:56:34Z</time>
      </trkpt>
      <trkpt lat="44.43255" lon="3.59969">
        <ele>1291</ele>
        <time>2022-05-27T08:56:35Z</time>
      </trkpt>
      <trkpt lat="44.43254" lon="3.5997">
        <ele>1291</ele>
        <time>2022-05-27T08:56:36Z</time>
      </trkpt>
      <trkpt lat="44.43253" lon="3.5997">
        <ele>1292</ele>
        <time>2022-05-27T08:56:37Z</time>
      </trkpt>
      <trkpt lat="44.43252" lon="3.59971">
        <ele>1292</ele>
        <time>2022-05-27T08:56:38Z</time>
      </trkpt>
      <trkpt lat="44.43251" lon="3.59972">
        <ele>1293</ele>
        <time>2022-05-27T08:56:39Z</time>
      </trkpt>
      <trkpt lat="44.43251" lon="3.59973">
        <ele>1293</ele>
        <time>2022-05-27T08:56:40Z</time>
      </trkpt>
      <trkpt lat="44.4325" lon="3.59974">
        <ele>1294</ele>
        <time>2022-05-27T08:56:41Z</time>
      </trkpt>
      <trkpt lat="44.4325" lon="3.59974">
        <ele>1293</ele>
        <time>2022-05-27T08:56:42Z</time>
      </trkpt>
      <trkpt lat="44.43249" lon="3.59975">
        <ele>1294</ele>
        <time>2022-05-27T08:56:43Z</time>
      </trkpt>
      <trkpt lat="44.43248" lon="3.59976">
        <ele>1294</ele>
        <time>2022-05-27T08:56:44Z</time>
      </trkpt>
      <trkpt lat="44.43247" lon="3.59977">
        <ele>1294</ele>
        <time>2022-05-27T08:56:45Z</time>
      </trkpt>
      <trkpt lat="44.43247" lon="3.59978">
        <ele>1294</ele>
        <time>2022-05-27T08:56:46Z</time>
      </trkpt>
      <trkpt lat="44.43245" lon="3.59979">
        <ele>1294</ele>
        <time>2022-05-27T08:56:47Z</time>
      </trkpt>
      <trkpt lat="44.43245" lon="3.5998">
        <ele>1293</ele>
        <time>2022-05-27T08:56:48Z</time>
      </trkpt>
      <trkpt lat="44.43245" lon="3.59981">
        <ele>1293</ele>
        <time>2022-05-27T08:56:49Z</time>
      </trkpt>
      <trkpt lat="44.43244" lon="3.59982">
        <ele>1293</ele>
        <time>2022-05-27T08:56:50Z</time>
      </trkpt>
      <trkpt lat="44.43243" lon="3.59983">
        <ele>1293</ele>
        <time>2022-05-27T08:56:51Z</time>
      </trkpt>
      <trkpt lat="44.43242" lon="3.59984">
        <ele>1294</ele>
        <time>2022-05-27T08:56:52Z</time>
      </trkpt>
      <trkpt lat="44.43241" lon="3.59985">
        <ele>1294</ele>
        <time>2022-05-27T08:56:53Z</time>
      </trkpt>
      <trkpt lat="44.4324" lon="3.59987">
        <ele>1294</ele>
        <time>2022-05-27T08:56:54Z</time>
      </trkpt>
      <trkpt lat="44.43239" lon="3.59988">
        <ele>1294</ele>
        <time>2022-05-27T08:56:55Z</time>
      </trkpt>
      <trkpt lat="44.43238" lon="3.59989">
        <ele>1294</ele>
        <time>2022-05-27T08:56:56Z</time>
      </trkpt>
      <trkpt lat="44.43237" lon="3.5999">
        <ele>1294</ele>
        <time>2022-05-27T08:56:57Z</time>
      </trkpt>
      <trkpt lat="44.43236" lon="3.59991">
        <ele>1294</ele>
        <time>2022-05-27T08:56:58Z</time>
      </trkpt>
      <trkpt lat="44.43235" lon="3.59992">
        <ele>1295</ele>
        <time>2022-05-27T08:56:59Z</time>
      </trkpt>
      <trkpt lat="44.43234" lon="3.59994">
        <ele>1295</ele>
        <time>2022-05-27T08:57:00Z</time>
      </trkpt>
      <trkpt lat="44.43233" lon="3.59995">
        <ele>1295</ele>
        <time>2022-05-27T08:57:01Z</time>
      </trkpt>
      <trkpt lat="44.43232" lon="3.59996">
        <ele>1295</ele>
        <time>2022-05-27T08:57:02Z</time>
      </trkpt>
      <trkpt lat="44.43231" lon="3.59997">
        <ele>1295</ele>
        <time>2022-05-27T08:57:03Z</time>
      </trkpt>
      <trkpt lat="44.4323" lon="3.59999">
        <ele>1295</ele>
        <time>2022-05-27T08:57:04Z</time>
      </trkpt>
      <trkpt lat="44.4323" lon="3.6">
        <ele>1295</ele>
        <time>2022-05-27T08:57:05Z</time>
      </trkpt>
      <trkpt lat="44.43229" lon="3.60001">
        <ele>1295</ele>
        <time>2022-05-27T08:57:06Z</time>
      </trkpt>
      <trkpt lat="44.43228" lon="3.60003">
        <ele>1295</ele>
        <time>2022-05-27T08:57:07Z</time>
      </trkpt>
      <trkpt lat="44.43227" lon="3.60004">
        <ele>1295</ele>
        <time>2022-05-27T08:57:08Z</time>
      </trkpt>
      <trkpt lat="44.43227" lon="3.60005">
        <ele>1295</ele>
        <time>2022-05-27T08:57:09Z</time>
      </trkpt>
      <trkpt lat="44.43226" lon="3.60006">
        <ele>1295</ele>
        <time>2022-05-27T08:57:10Z</time>
      </trkpt>
      <trkpt lat="44.43226" lon="3.60007">
        <ele>1295</ele>
        <time>2022-05-27T08:57:11Z</time>
      </trkpt>
      <trkpt lat="44.43225" lon="3.60009">
        <ele>1295</ele>
        <time>2022-05-27T08:57:12Z</time>
      </trkpt>
      <trkpt lat="44.43224" lon="3.6001">
        <ele>1294</ele>
        <time>2022-05-27T08:57:13Z</time>
      </trkpt>
      <trkpt lat="44.43224" lon="3.60011">
        <ele>1293</ele>
        <time>2022-05-27T08:57:14Z</time>
      </trkpt>
      <trkpt lat="44.43224" lon="3.60012">
        <ele>1293</ele>
        <time>2022-05-27T08:57:15Z</time>
      </trkpt>
      <trkpt lat="44.43223" lon="3.60014">
        <ele>1293</ele>
        <time>2022-05-27T08:57:16Z</time>
      </trkpt>
      <trkpt lat="44.43223" lon="3.60015">
        <ele>1293</ele>
        <time>2022-05-27T08:57:17Z</time>
      </trkpt>
      <trkpt lat="44.43222" lon="3.60017">
        <ele>1292</ele>
        <time>2022-05-27T08:57:18Z</time>
      </trkpt>
      <trkpt lat="44.43221" lon="3.60019">
        <ele>1292</ele>
        <time>2022-05-27T08:57:19Z</time>
      </trkpt>
      <trkpt lat="44.4322" lon="3.6002">
        <ele>1291</ele>
        <time>2022-05-27T08:57:20Z</time>
      </trkpt>
      <trkpt lat="44.43219" lon="3.60022">
        <ele>1291</ele>
        <time>2022-05-27T08:57:21Z</time>
      </trkpt>
      <trkpt lat="44.43218" lon="3.60023">
        <ele>1292</ele>
        <time>2022-05-27T08:57:22Z</time>
      </trkpt>
      <trkpt lat="44.43218" lon="3.60024">
        <ele>1292</ele>
        <time>2022-05-27T08:57:23Z</time>
      </trkpt>
      <trkpt lat="44.43217" lon="3.60025">
        <ele>1292</ele>
        <time>2022-05-27T08:57:24Z</time>
      </trkpt>
      <trkpt lat="44.43216" lon="3.60027">
        <ele>1292</ele>
        <time>2022-05-27T08:57:25Z</time>
      </trkpt>
      <trkpt lat="44.43215" lon="3.60028">
        <ele>1292</ele>
        <time>2022-05-27T08:57:26Z</time>
      </trkpt>
      <trkpt lat="44.43215" lon="3.6003">
        <ele>1292</ele>
        <time>2022-05-27T08:57:27Z</time>
      </trkpt>
      <trkpt lat="44.43214" lon="3.60031">
        <ele>1293</ele>
        <time>2022-05-27T08:57:28Z</time>
      </trkpt>
      <trkpt lat="44.43213" lon="3.60032">
        <ele>1293</ele>
        <time>2022-05-27T08:57:29Z</time>
      </trkpt>
      <trkpt lat="44.43213" lon="3.60033">
        <ele>1293</ele>
        <time>2022-05-27T08:57:30Z</time>
      </trkpt>
      <trkpt lat="44.43212" lon="3.60035">
        <ele>1294</ele>
        <time>2022-05-27T08:57:31Z</time>
      </trkpt>
      <trkpt lat="44.43212" lon="3.60037">
        <ele>1294</ele>
        <time>2022-05-27T08:57:32Z</time>
      </trkpt>
      <trkpt lat="44.43211" lon="3.60038">
        <ele>1293</ele>
        <time>2022-05-27T08:57:33Z</time>
      </trkpt>
      <trkpt lat="44.4321" lon="3.6004">
        <ele>1294</ele>
        <time>2022-05-27T08:57:34Z</time>
      </trkpt>
      <trkpt lat="44.43209" lon="3.60041">
        <ele>1294</ele>
        <time>2022-05-27T08:57:35Z</time>
      </trkpt>
      <trkpt lat="44.43209" lon="3.60042">
        <ele>1294</ele>
        <time>2022-05-27T08:57:36Z</time>
      </trkpt>
      <trkpt lat="44.43208" lon="3.60043">
        <ele>1294</ele>
        <time>2022-05-27T08:57:37Z</time>
      </trkpt>
      <trkpt lat="44.43208" lon="3.60044">
        <ele>1295</ele>
        <time>2022-05-27T08:57:38Z</time>
      </trkpt>
      <trkpt lat="44.43206" lon="3.60045">
        <ele>1295</ele>
        <time>2022-05-27T08:57:39Z</time>
      </trkpt>
      <trkpt lat="44.43206" lon="3.60046">
        <ele>1295</ele>
        <time>2022-05-27T08:57:40Z</time>
      </trkpt>
      <trkpt lat="44.43205" lon="3.60047">
        <ele>1295</ele>
        <time>2022-05-27T08:57:41Z</time>
      </trkpt>
      <trkpt lat="44.43203" lon="3.60048">
        <ele>1296</ele>
        <time>2022-05-27T08:57:42Z</time>
      </trkpt>
      <trkpt lat="44.43203" lon="3.6005">
        <ele>1296</ele>
        <time>2022-05-27T08:57:43Z</time>
      </trkpt>
      <trkpt lat="44.43202" lon="3.60051">
        <ele>1296</ele>
        <time>2022-05-27T08:57:44Z</time>
      </trkpt>
      <trkpt lat="44.43201" lon="3.60052">
        <ele>1296</ele>
        <time>2022-05-27T08:57:45Z</time>
      </trkpt>
      <trkpt lat="44.43201" lon="3.60053">
        <ele>1297</ele>
        <time>2022-05-27T08:57:46Z</time>
      </trkpt>
      <trkpt lat="44.432" lon="3.60054">
        <ele>1297</ele>
        <time>2022-05-27T08:57:47Z</time>
      </trkpt>
      <trkpt lat="44.432" lon="3.60056">
        <ele>1297</ele>
        <time>2022-05-27T08:57:48Z</time>
      </trkpt>
      <trkpt lat="44.43198" lon="3.60057">
        <ele>1297</ele>
        <time>2022-05-27T08:57:49Z</time>
      </trkpt>
      <trkpt lat="44.43198" lon="3.60059">
        <ele>1298</ele>
        <time>2022-05-27T08:57:50Z</time>
      </trkpt>
      <trkpt lat="44.43197" lon="3.6006">
        <ele>1298</ele>
        <time>2022-05-27T08:57:51Z</time>
      </trkpt>
      <trkpt lat="44.43197" lon="3.60061">
        <ele>1299</ele>
        <time>2022-05-27T08:57:52Z</time>
      </trkpt>
      <trkpt lat="44.43196" lon="3.60062">
        <ele>1299</ele>
        <time>2022-05-27T08:57:53Z</time>
      </trkpt>
      <trkpt lat="44.43195" lon="3.60064">
        <ele>1300</ele>
        <time>2022-05-27T08:57:54Z</time>
      </trkpt>
      <trkpt lat="44.43194" lon="3.60065">
        <ele>1300</ele>
        <time>2022-05-27T08:57:55Z</time>
      </trkpt>
      <trkpt lat="44.43193" lon="3.60066">
        <ele>1300</ele>
        <time>2022-05-27T08:57:56Z</time>
      </trkpt>
      <trkpt lat="44.43192" lon="3.60067">
        <ele>1300</ele>
        <time>2022-05-27T08:57:57Z</time>
      </trkpt>
      <trkpt lat="44.43192" lon="3.60068">
        <ele>1299</ele>
        <time>2022-05-27T08:57:58Z</time>
      </trkpt>
      <trkpt lat="44.4319" lon="3.6007">
        <ele>1299</ele>
        <time>2022-05-27T08:57:59Z</time>
      </trkpt>
      <trkpt lat="44.4319" lon="3.60071">
        <ele>1299</ele>
        <time>2022-05-27T08:58:00Z</time>
      </trkpt>
      <trkpt lat="44.43189" lon="3.60072">
        <ele>1299</ele>
        <time>2022-05-27T08:58:01Z</time>
      </trkpt>
      <trkpt lat="44.43188" lon="3.60073">
        <ele>1299</ele>
        <time>2022-05-27T08:58:02Z</time>
      </trkpt>
      <trkpt lat="44.43187" lon="3.60074">
        <ele>1299</ele>
        <time>2022-05-27T08:58:03Z</time>
      </trkpt>
      <trkpt lat="44.43187" lon="3.60076">
        <ele>1299</ele>
        <time>2022-05-27T08:58:04Z</time>
      </trkpt>
      <trkpt lat="44.43186" lon="3.60077">
        <ele>1299</ele>
        <time>2022-05-27T08:58:05Z</time>
      </trkpt>
      <trkpt lat="44.43185" lon="3.60079">
        <ele>1299</ele>
        <time>2022-05-27T08:58:06Z</time>
      </trkpt>
      <trkpt lat="44.43184" lon="3.6008">
        <ele>1299</ele>
        <time>2022-05-27T08:58:07Z</time>
      </trkpt>
      <trkpt lat="44.43184" lon="3.60082">
        <ele>1299</ele>
        <time>2022-05-27T08:58:08Z</time>
      </trkpt>
      <trkpt lat="44.43183" lon="3.60083">
        <ele>1299</ele>
        <time>2022-05-27T08:58:09Z</time>
      </trkpt>
      <trkpt lat="44.43182" lon="3.60084">
        <ele>1299</ele>
        <time>2022-05-27T08:58:10Z</time>
      </trkpt>
      <trkpt lat="44.43181" lon="3.60085">
        <ele>1299</ele>
        <time>2022-05-27T08:58:11Z</time>
      </trkpt>
      <trkpt lat="44.4318" lon="3.60087">
        <ele>1299</ele>
        <time>2022-05-27T08:58:12Z</time>
      </trkpt>
      <trkpt lat="44.43179" lon="3.60089">
        <ele>1300</ele>
        <time>2022-05-27T08:58:13Z</time>
      </trkpt>
      <trkpt lat="44.43178" lon="3.6009">
        <ele>1300</ele>
        <time>2022-05-27T08:58:14Z</time>
      </trkpt>
      <trkpt lat="44.43177" lon="3.60091">
        <ele>1300</ele>
        <time>2022-05-27T08:58:15Z</time>
      </trkpt>
      <trkpt lat="44.43176" lon="3.60092">
        <ele>1300</ele>
        <time>2022-05-27T08:58:16Z</time>
      </trkpt>
      <trkpt lat="44.43176" lon="3.60092">
        <ele>1300</ele>
        <time>2022-05-27T08:58:17Z</time>
      </trkpt>
      <trkpt lat="44.43174" lon="3.60093">
        <ele>1300</ele>
        <time>2022-05-27T08:58:18Z</time>
      </trkpt>
      <trkpt lat="44.43174" lon="3.60094">
        <ele>1300</ele>
        <time>2022-05-27T08:58:19Z</time>
      </trkpt>
      <trkpt lat="44.43173" lon="3.60095">
        <ele>1300</ele>
        <time>2022-05-27T08:58:20Z</time>
      </trkpt>
      <trkpt lat="44.43172" lon="3.60097">
        <ele>1300</ele>
        <time>2022-05-27T08:58:21Z</time>
      </trkpt>
      <trkpt lat="44.43171" lon="3.60098">
        <ele>1299</ele>
        <time>2022-05-27T08:58:22Z</time>
      </trkpt>
      <trkpt lat="44.4317" lon="3.60099">
        <ele>1299</ele>
        <time>2022-05-27T08:58:23Z</time>
      </trkpt>
      <trkpt lat="44.43169" lon="3.601">
        <ele>1299</ele>
        <time>2022-05-27T08:58:24Z</time>
      </trkpt>
      <trkpt lat="44.43168" lon="3.60101">
        <ele>1299</ele>
        <time>2022-05-27T08:58:25Z</time>
      </trkpt>
      <trkpt lat="44.43167" lon="3.60102">
        <ele>1299</ele>
        <time>2022-05-27T08:58:26Z</time>
      </trkpt>
      <trkpt lat="44.43166" lon="3.60103">
        <ele>1299</ele>
        <time>2022-05-27T08:58:27Z</time>
      </trkpt>
      <trkpt lat="44.43165" lon="3.60105">
        <ele>1299</ele>
        <time>2022-05-27T08:58:28Z</time>
      </trkpt>
      <trkpt lat="44.43164" lon="3.60106">
        <ele>1299</ele>
        <time>2022-05-27T08:58:29Z</time>
      </trkpt>
      <trkpt lat="44.43163" lon="3.60107">
        <ele>1299</ele>
        <time>2022-05-27T08:58:30Z</time>
      </trkpt>
      <trkpt lat="44.43162" lon="3.60108">
        <ele>1299</ele>
        <time>2022-05-27T08:58:31Z</time>
      </trkpt>
      <trkpt lat="44.43161" lon="3.6011">
        <ele>1299</ele>
        <time>2022-05-27T08:58:32Z</time>
      </trkpt>
      <trkpt lat="44.4316" lon="3.60111">
        <ele>1299</ele>
        <time>2022-05-27T08:58:33Z</time>
      </trkpt>
      <trkpt lat="44.4316" lon="3.60113">
        <ele>1299</ele>
        <time>2022-05-27T08:58:34Z</time>
      </trkpt>
      <trkpt lat="44.43158" lon="3.60115">
        <ele>1299</ele>
        <time>2022-05-27T08:58:35Z</time>
      </trkpt>
      <trkpt lat="44.43158" lon="3.60116">
        <ele>1298</ele>
        <time>2022-05-27T08:58:36Z</time>
      </trkpt>
      <trkpt lat="44.43157" lon="3.60117">
        <ele>1298</ele>
        <time>2022-05-27T08:58:37Z</time>
      </trkpt>
      <trkpt lat="44.43157" lon="3.60118">
        <ele>1298</ele>
        <time>2022-05-27T08:58:38Z</time>
      </trkpt>
      <trkpt lat="44.43156" lon="3.6012">
        <ele>1299</ele>
        <time>2022-05-27T08:58:39Z</time>
      </trkpt>
      <trkpt lat="44.43155" lon="3.60121">
        <ele>1299</ele>
        <time>2022-05-27T08:58:40Z</time>
      </trkpt>
      <trkpt lat="44.43155" lon="3.60122">
        <ele>1299</ele>
        <time>2022-05-27T08:58:41Z</time>
      </trkpt>
      <trkpt lat="44.43154" lon="3.60124">
        <ele>1299</ele>
        <time>2022-05-27T08:58:42Z</time>
      </trkpt>
      <trkpt lat="44.43153" lon="3.60125">
        <ele>1299</ele>
        <time>2022-05-27T08:58:43Z</time>
      </trkpt>
      <trkpt lat="44.43153" lon="3.60127">
        <ele>1299</ele>
        <time>2022-05-27T08:58:44Z</time>
      </trkpt>
      <trkpt lat="44.43153" lon="3.60129">
        <ele>1299</ele>
        <time>2022-05-27T08:58:45Z</time>
      </trkpt>
      <trkpt lat="44.43152" lon="3.60131">
        <ele>1299</ele>
        <time>2022-05-27T08:58:46Z</time>
      </trkpt>
      <trkpt lat="44.43152" lon="3.60132">
        <ele>1299</ele>
        <time>2022-05-27T08:58:47Z</time>
      </trkpt>
      <trkpt lat="44.43151" lon="3.60134">
        <ele>1300</ele>
        <time>2022-05-27T08:58:48Z</time>
      </trkpt>
      <trkpt lat="44.4315" lon="3.60135">
        <ele>1300</ele>
        <time>2022-05-27T08:58:49Z</time>
      </trkpt>
      <trkpt lat="44.43149" lon="3.60136">
        <ele>1300</ele>
        <time>2022-05-27T08:58:50Z</time>
      </trkpt>
      <trkpt lat="44.43148" lon="3.60137">
        <ele>1300</ele>
        <time>2022-05-27T08:58:51Z</time>
      </trkpt>
      <trkpt lat="44.43148" lon="3.60139">
        <ele>1301</ele>
        <time>2022-05-27T08:58:52Z</time>
      </trkpt>
      <trkpt lat="44.43147" lon="3.6014">
        <ele>1301</ele>
        <time>2022-05-27T08:58:53Z</time>
      </trkpt>
      <trkpt lat="44.43147" lon="3.60141">
        <ele>1301</ele>
        <time>2022-05-27T08:58:54Z</time>
      </trkpt>
      <trkpt lat="44.43146" lon="3.60142">
        <ele>1301</ele>
        <time>2022-05-27T08:58:55Z</time>
      </trkpt>
      <trkpt lat="44.43146" lon="3.60144">
        <ele>1302</ele>
        <time>2022-05-27T08:58:56Z</time>
      </trkpt>
      <trkpt lat="44.43145" lon="3.60145">
        <ele>1302</ele>
        <time>2022-05-27T08:58:57Z</time>
      </trkpt>
      <trkpt lat="44.43145" lon="3.60146">
        <ele>1302</ele>
        <time>2022-05-27T08:58:58Z</time>
      </trkpt>
      <trkpt lat="44.43144" lon="3.60147">
        <ele>1302</ele>
        <time>2022-05-27T08:58:59Z</time>
      </trkpt>
      <trkpt lat="44.43144" lon="3.60148">
        <ele>1302</ele>
        <time>2022-05-27T08:59:00Z</time>
      </trkpt>
      <trkpt lat="44.43144" lon="3.60149">
        <ele>1301</ele>
        <time>2022-05-27T08:59:01Z</time>
      </trkpt>
      <trkpt lat="44.43143" lon="3.60151">
        <ele>1302</ele>
        <time>2022-05-27T08:59:02Z</time>
      </trkpt>
      <trkpt lat="44.43142" lon="3.60152">
        <ele>1301</ele>
        <time>2022-05-27T08:59:03Z</time>
      </trkpt>
      <trkpt lat="44.43142" lon="3.60153">
        <ele>1301</ele>
        <time>2022-05-27T08:59:04Z</time>
      </trkpt>
      <trkpt lat="44.43141" lon="3.60155">
        <ele>1302</ele>
        <time>2022-05-27T08:59:05Z</time>
      </trkpt>
      <trkpt lat="44.43141" lon="3.60156">
        <ele>1302</ele>
        <time>2022-05-27T08:59:06Z</time>
      </trkpt>
      <trkpt lat="44.4314" lon="3.60158">
        <ele>1302</ele>
        <time>2022-05-27T08:59:07Z</time>
      </trkpt>
      <trkpt lat="44.4314" lon="3.6016">
        <ele>1302</ele>
        <time>2022-05-27T08:59:08Z</time>
      </trkpt>
      <trkpt lat="44.43139" lon="3.60161">
        <ele>1303</ele>
        <time>2022-05-27T08:59:09Z</time>
      </trkpt>
      <trkpt lat="44.43139" lon="3.60162">
        <ele>1303</ele>
        <time>2022-05-27T08:59:10Z</time>
      </trkpt>
      <trkpt lat="44.43138" lon="3.60164">
        <ele>1304</ele>
        <time>2022-05-27T08:59:11Z</time>
      </trkpt>
      <trkpt lat="44.43137" lon="3.60165">
        <ele>1304</ele>
        <time>2022-05-27T08:59:12Z</time>
      </trkpt>
      <trkpt lat="44.43137" lon="3.60167">
        <ele>1303</ele>
        <time>2022-05-27T08:59:13Z</time>
      </trkpt>
      <trkpt lat="44.43137" lon="3.60169">
        <ele>1303</ele>
        <time>2022-05-27T08:59:14Z</time>
      </trkpt>
      <trkpt lat="44.43136" lon="3.6017">
        <ele>1303</ele>
        <time>2022-05-27T08:59:15Z</time>
      </trkpt>
      <trkpt lat="44.43136" lon="3.60172">
        <ele>1303</ele>
        <time>2022-05-27T08:59:16Z</time>
      </trkpt>
      <trkpt lat="44.43135" lon="3.60174">
        <ele>1303</ele>
        <time>2022-05-27T08:59:17Z</time>
      </trkpt>
      <trkpt lat="44.43135" lon="3.60175">
        <ele>1303</ele>
        <time>2022-05-27T08:59:18Z</time>
      </trkpt>
      <trkpt lat="44.43134" lon="3.60177">
        <ele>1303</ele>
        <time>2022-05-27T08:59:19Z</time>
      </trkpt>
      <trkpt lat="44.43134" lon="3.60178">
        <ele>1303</ele>
        <time>2022-05-27T08:59:20Z</time>
      </trkpt>
      <trkpt lat="44.43133" lon="3.60179">
        <ele>1302</ele>
        <time>2022-05-27T08:59:21Z</time>
      </trkpt>
      <trkpt lat="44.43133" lon="3.60181">
        <ele>1302</ele>
        <time>2022-05-27T08:59:22Z</time>
      </trkpt>
      <trkpt lat="44.43132" lon="3.60182">
        <ele>1303</ele>
        <time>2022-05-27T08:59:23Z</time>
      </trkpt>
      <trkpt lat="44.43132" lon="3.60183">
        <ele>1303</ele>
        <time>2022-05-27T08:59:24Z</time>
      </trkpt>
      <trkpt lat="44.43131" lon="3.60185">
        <ele>1303</ele>
        <time>2022-05-27T08:59:25Z</time>
      </trkpt>
      <trkpt lat="44.43131" lon="3.60186">
        <ele>1303</ele>
        <time>2022-05-27T08:59:26Z</time>
      </trkpt>
      <trkpt lat="44.43131" lon="3.60188">
        <ele>1304</ele>
        <time>2022-05-27T08:59:27Z</time>
      </trkpt>
      <trkpt lat="44.4313" lon="3.60189">
        <ele>1304</ele>
        <time>2022-05-27T08:59:28Z</time>
      </trkpt>
      <trkpt lat="44.43129" lon="3.60191">
        <ele>1305</ele>
        <time>2022-05-27T08:59:29Z</time>
      </trkpt>
      <trkpt lat="44.43129" lon="3.60192">
        <ele>1305</ele>
        <time>2022-05-27T08:59:30Z</time>
      </trkpt>
      <trkpt lat="44.43129" lon="3.60194">
        <ele>1305</ele>
        <time>2022-05-27T08:59:31Z</time>
      </trkpt>
      <trkpt lat="44.43128" lon="3.60195">
        <ele>1305</ele>
        <time>2022-05-27T08:59:32Z</time>
      </trkpt>
      <trkpt lat="44.43127" lon="3.60197">
        <ele>1305</ele>
        <time>2022-05-27T08:59:33Z</time>
      </trkpt>
      <trkpt lat="44.43127" lon="3.60198">
        <ele>1306</ele>
        <time>2022-05-27T08:59:34Z</time>
      </trkpt>
      <trkpt lat="44.43127" lon="3.60199">
        <ele>1305</ele>
        <time>2022-05-27T08:59:35Z</time>
      </trkpt>
      <trkpt lat="44.43126" lon="3.60201">
        <ele>1305</ele>
        <time>2022-05-27T08:59:36Z</time>
      </trkpt>
      <trkpt lat="44.43126" lon="3.60202">
        <ele>1306</ele>
        <time>2022-05-27T08:59:37Z</time>
      </trkpt>
      <trkpt lat="44.43125" lon="3.60203">
        <ele>1306</ele>
        <time>2022-05-27T08:59:38Z</time>
      </trkpt>
      <trkpt lat="44.43124" lon="3.60205">
        <ele>1306</ele>
        <time>2022-05-27T08:59:39Z</time>
      </trkpt>
      <trkpt lat="44.43124" lon="3.60206">
        <ele>1306</ele>
        <time>2022-05-27T08:59:40Z</time>
      </trkpt>
      <trkpt lat="44.43123" lon="3.60208">
        <ele>1305</ele>
        <time>2022-05-27T08:59:41Z</time>
      </trkpt>
      <trkpt lat="44.43123" lon="3.60209">
        <ele>1305</ele>
        <time>2022-05-27T08:59:42Z</time>
      </trkpt>
      <trkpt lat="44.43123" lon="3.60211">
        <ele>1305</ele>
        <time>2022-05-27T08:59:43Z</time>
      </trkpt>
      <trkpt lat="44.43122" lon="3.60213">
        <ele>1305</ele>
        <time>2022-05-27T08:59:44Z</time>
      </trkpt>
      <trkpt lat="44.43121" lon="3.60214">
        <ele>1304</ele>
        <time>2022-05-27T08:59:45Z</time>
      </trkpt>
      <trkpt lat="44.43121" lon="3.60216">
        <ele>1304</ele>
        <time>2022-05-27T08:59:46Z</time>
      </trkpt>
      <trkpt lat="44.4312" lon="3.60217">
        <ele>1304</ele>
        <time>2022-05-27T08:59:47Z</time>
      </trkpt>
      <trkpt lat="44.43119" lon="3.60219">
        <ele>1305</ele>
        <time>2022-05-27T08:59:48Z</time>
      </trkpt>
      <trkpt lat="44.43119" lon="3.6022">
        <ele>1305</ele>
        <time>2022-05-27T08:59:49Z</time>
      </trkpt>
      <trkpt lat="44.43118" lon="3.60222">
        <ele>1305</ele>
        <time>2022-05-27T08:59:50Z</time>
      </trkpt>
      <trkpt lat="44.43118" lon="3.60223">
        <ele>1305</ele>
        <time>2022-05-27T08:59:51Z</time>
      </trkpt>
      <trkpt lat="44.43117" lon="3.60224">
        <ele>1305</ele>
        <time>2022-05-27T08:59:52Z</time>
      </trkpt>
      <trkpt lat="44.43117" lon="3.60226">
        <ele>1305</ele>
        <time>2022-05-27T08:59:53Z</time>
      </trkpt>
      <trkpt lat="44.43116" lon="3.60228">
        <ele>1305</ele>
        <time>2022-05-27T08:59:54Z</time>
      </trkpt>
      <trkpt lat="44.43116" lon="3.60229">
        <ele>1305</ele>
        <time>2022-05-27T08:59:55Z</time>
      </trkpt>
      <trkpt lat="44.43115" lon="3.60231">
        <ele>1306</ele>
        <time>2022-05-27T08:59:56Z</time>
      </trkpt>
      <trkpt lat="44.43115" lon="3.60233">
        <ele>1306</ele>
        <time>2022-05-27T08:59:57Z</time>
      </trkpt>
      <trkpt lat="44.43115" lon="3.60235">
        <ele>1306</ele>
        <time>2022-05-27T08:59:58Z</time>
      </trkpt>
      <trkpt lat="44.43114" lon="3.60236">
        <ele>1306</ele>
        <time>2022-05-27T08:59:59Z</time>
      </trkpt>
      <trkpt lat="44.43113" lon="3.60238">
        <ele>1306</ele>
        <time>2022-05-27T09:00:00Z</time>
      </trkpt>
      <trkpt lat="44.43113" lon="3.60239">
        <ele>1306</ele>
        <time>2022-05-27T09:00:01Z</time>
      </trkpt>
      <trkpt lat="44.43113" lon="3.60241">
        <ele>1306</ele>
        <time>2022-05-27T09:00:02Z</time>
      </trkpt>
      <trkpt lat="44.43112" lon="3.60243">
        <ele>1306</ele>
        <time>2022-05-27T09:00:03Z</time>
      </trkpt>
      <trkpt lat="44.43112" lon="3.60245">
        <ele>1306</ele>
        <time>2022-05-27T09:00:04Z</time>
      </trkpt>
      <trkpt lat="44.43111" lon="3.60247">
        <ele>1306</ele>
        <time>2022-05-27T09:00:05Z</time>
      </trkpt>
      <trkpt lat="44.43111" lon="3.60248">
        <ele>1305</ele>
        <time>2022-05-27T09:00:06Z</time>
      </trkpt>
      <trkpt lat="44.4311" lon="3.6025">
        <ele>1306</ele>
        <time>2022-05-27T09:00:07Z</time>
      </trkpt>
      <trkpt lat="44.4311" lon="3.60252">
        <ele>1306</ele>
        <time>2022-05-27T09:00:08Z</time>
      </trkpt>
      <trkpt lat="44.43109" lon="3.60254">
        <ele>1306</ele>
        <time>2022-05-27T09:00:09Z</time>
      </trkpt>
      <trkpt lat="44.43109" lon="3.60255">
        <ele>1305</ele>
        <time>2022-05-27T09:00:10Z</time>
      </trkpt>
      <trkpt lat="44.43108" lon="3.60256">
        <ele>1306</ele>
        <time>2022-05-27T09:00:11Z</time>
      </trkpt>
      <trkpt lat="44.43108" lon="3.60258">
        <ele>1305</ele>
        <time>2022-05-27T09:00:12Z</time>
      </trkpt>
      <trkpt lat="44.43108" lon="3.6026">
        <ele>1305</ele>
        <time>2022-05-27T09:00:13Z</time>
      </trkpt>
      <trkpt lat="44.43107" lon="3.60261">
        <ele>1305</ele>
        <time>2022-05-27T09:00:14Z</time>
      </trkpt>
      <trkpt lat="44.43107" lon="3.60263">
        <ele>1305</ele>
        <time>2022-05-27T09:00:15Z</time>
      </trkpt>
      <trkpt lat="44.43106" lon="3.60264">
        <ele>1305</ele>
        <time>2022-05-27T09:00:16Z</time>
      </trkpt>
      <trkpt lat="44.43106" lon="3.60266">
        <ele>1305</ele>
        <time>2022-05-27T09:00:17Z</time>
      </trkpt>
      <trkpt lat="44.43106" lon="3.60268">
        <ele>1305</ele>
        <time>2022-05-27T09:00:18Z</time>
      </trkpt>
      <trkpt lat="44.43106" lon="3.60269">
        <ele>1305</ele>
        <time>2022-05-27T09:00:19Z</time>
      </trkpt>
      <trkpt lat="44.43105" lon="3.60271">
        <ele>1304</ele>
        <time>2022-05-27T09:00:20Z</time>
      </trkpt>
      <trkpt lat="44.43105" lon="3.60273">
        <ele>1304</ele>
        <time>2022-05-27T09:00:21Z</time>
      </trkpt>
      <trkpt lat="44.43104" lon="3.60275">
        <ele>1304</ele>
        <time>2022-05-27T09:00:22Z</time>
      </trkpt>
      <trkpt lat="44.43104" lon="3.60277">
        <ele>1304</ele>
        <time>2022-05-27T09:00:23Z</time>
      </trkpt>
      <trkpt lat="44.43104" lon="3.60279">
        <ele>1304</ele>
        <time>2022-05-27T09:00:24Z</time>
      </trkpt>
      <trkpt lat="44.43104" lon="3.60281">
        <ele>1304</ele>
        <time>2022-05-27T09:00:25Z</time>
      </trkpt>
      <trkpt lat="44.43103" lon="3.60283">
        <ele>1304</ele>
        <time>2022-05-27T09:00:26Z</time>
      </trkpt>
      <trkpt lat="44.43103" lon="3.60285">
        <ele>1304</ele>
        <time>2022-05-27T09:00:27Z</time>
      </trkpt>
      <trkpt lat="44.43103" lon="3.60286">
        <ele>1304</ele>
        <time>2022-05-27T09:00:28Z</time>
      </trkpt>
      <trkpt lat="44.43103" lon="3.60288">
        <ele>1304</ele>
        <time>2022-05-27T09:00:29Z</time>
      </trkpt>
      <trkpt lat="44.43103" lon="3.6029">
        <ele>1304</ele>
        <time>2022-05-27T09:00:30Z</time>
      </trkpt>
      <trkpt lat="44.43103" lon="3.60292">
        <ele>1305</ele>
        <time>2022-05-27T09:00:31Z</time>
      </trkpt>
      <trkpt lat="44.43103" lon="3.60293">
        <ele>1305</ele>
        <time>2022-05-27T09:00:32Z</time>
      </trkpt>
      <trkpt lat="44.43103" lon="3.60295">
        <ele>1304</ele>
        <time>2022-05-27T09:00:33Z</time>
      </trkpt>
      <trkpt lat="44.43103" lon="3.60297">
        <ele>1304</ele>
        <time>2022-05-27T09:00:34Z</time>
      </trkpt>
      <trkpt lat="44.43103" lon="3.60298">
        <ele>1304</ele>
        <time>2022-05-27T09:00:35Z</time>
      </trkpt>
      <trkpt lat="44.43103" lon="3.60299">
        <ele>1304</ele>
        <time>2022-05-27T09:00:36Z</time>
      </trkpt>
      <trkpt lat="44.43103" lon="3.60301">
        <ele>1304</ele>
        <time>2022-05-27T09:00:37Z</time>
      </trkpt>
      <trkpt lat="44.43103" lon="3.60303">
        <ele>1304</ele>
        <time>2022-05-27T09:00:38Z</time>
      </trkpt>
      <trkpt lat="44.43103" lon="3.60305">
        <ele>1304</ele>
        <time>2022-05-27T09:00:39Z</time>
      </trkpt>
      <trkpt lat="44.43103" lon="3.60307">
        <ele>1304</ele>
        <time>2022-05-27T09:00:40Z</time>
      </trkpt>
      <trkpt lat="44.43103" lon="3.60308">
        <ele>1304</ele>
        <time>2022-05-27T09:00:41Z</time>
      </trkpt>
      <trkpt lat="44.43103" lon="3.6031">
        <ele>1304</ele>
        <time>2022-05-27T09:00:42Z</time>
      </trkpt>
      <trkpt lat="44.43103" lon="3.60312">
        <ele>1304</ele>
        <time>2022-05-27T09:00:43Z</time>
      </trkpt>
      <trkpt lat="44.43103" lon="3.60313">
        <ele>1304</ele>
        <time>2022-05-27T09:00:44Z</time>
      </trkpt>
      <trkpt lat="44.43103" lon="3.60315">
        <ele>1304</ele>
        <time>2022-05-27T09:00:45Z</time>
      </trkpt>
      <trkpt lat="44.43103" lon="3.60317">
        <ele>1304</ele>
        <time>2022-05-27T09:00:46Z</time>
      </trkpt>
      <trkpt lat="44.43103" lon="3.60318">
        <ele>1304</ele>
        <time>2022-05-27T09:00:47Z</time>
      </trkpt>
      <trkpt lat="44.43103" lon="3.6032">
        <ele>1304</ele>
        <time>2022-05-27T09:00:48Z</time>
      </trkpt>
      <trkpt lat="44.43103" lon="3.60321">
        <ele>1304</ele>
        <time>2022-05-27T09:00:49Z</time>
      </trkpt>
      <trkpt lat="44.43103" lon="3.60323">
        <ele>1304</ele>
        <time>2022-05-27T09:00:50Z</time>
      </trkpt>
      <trkpt lat="44.43103" lon="3.60324">
        <ele>1304</ele>
        <time>2022-05-27T09:00:51Z</time>
      </trkpt>
      <trkpt lat="44.43103" lon="3.60326">
        <ele>1304</ele>
        <time>2022-05-27T09:00:52Z</time>
      </trkpt>
      <trkpt lat="44.43103" lon="3.60327">
        <ele>1305</ele>
        <time>2022-05-27T09:00:53Z</time>
      </trkpt>
      <trkpt lat="44.43102" lon="3.60328">
        <ele>1305</ele>
        <time>2022-05-27T09:00:54Z</time>
      </trkpt>
      <trkpt lat="44.43102" lon="3.60329">
        <ele>1306</ele>
        <time>2022-05-27T09:00:55Z</time>
      </trkpt>
      <trkpt lat="44.43101" lon="3.6033">
        <ele>1306</ele>
        <time>2022-05-27T09:00:56Z</time>
      </trkpt>
      <trkpt lat="44.43101" lon="3.60332">
        <ele>1306</ele>
        <time>2022-05-27T09:00:57Z</time>
      </trkpt>
      <trkpt lat="44.431" lon="3.60333">
        <ele>1305</ele>
        <time>2022-05-27T09:00:58Z</time>
      </trkpt>
      <trkpt lat="44.43099" lon="3.60333">
        <ele>1305</ele>
        <time>2022-05-27T09:00:59Z</time>
      </trkpt>
      <trkpt lat="44.43099" lon="3.60335">
        <ele>1305</ele>
        <time>2022-05-27T09:01:00Z</time>
      </trkpt>
      <trkpt lat="44.43098" lon="3.60336">
        <ele>1306</ele>
        <time>2022-05-27T09:01:01Z</time>
      </trkpt>
      <trkpt lat="44.43097" lon="3.60337">
        <ele>1306</ele>
        <time>2022-05-27T09:01:02Z</time>
      </trkpt>
      <trkpt lat="44.43097" lon="3.60338">
        <ele>1305</ele>
        <time>2022-05-27T09:01:03Z</time>
      </trkpt>
      <trkpt lat="44.43096" lon="3.60339">
        <ele>1305</ele>
        <time>2022-05-27T09:01:04Z</time>
      </trkpt>
      <trkpt lat="44.43095" lon="3.6034">
        <ele>1305</ele>
        <time>2022-05-27T09:01:05Z</time>
      </trkpt>
      <trkpt lat="44.43095" lon="3.60342">
        <ele>1305</ele>
        <time>2022-05-27T09:01:06Z</time>
      </trkpt>
      <trkpt lat="44.43094" lon="3.60343">
        <ele>1305</ele>
        <time>2022-05-27T09:01:07Z</time>
      </trkpt>
      <trkpt lat="44.43094" lon="3.60344">
        <ele>1305</ele>
        <time>2022-05-27T09:01:08Z</time>
      </trkpt>
      <trkpt lat="44.43093" lon="3.60346">
        <ele>1305</ele>
        <time>2022-05-27T09:01:09Z</time>
      </trkpt>
      <trkpt lat="44.43092" lon="3.60347">
        <ele>1305</ele>
        <time>2022-05-27T09:01:10Z</time>
      </trkpt>
      <trkpt lat="44.43092" lon="3.60349">
        <ele>1304</ele>
        <time>2022-05-27T09:01:11Z</time>
      </trkpt>
      <trkpt lat="44.43091" lon="3.6035">
        <ele>1304</ele>
        <time>2022-05-27T09:01:12Z</time>
      </trkpt>
      <trkpt lat="44.43091" lon="3.60352">
        <ele>1304</ele>
        <time>2022-05-27T09:01:13Z</time>
      </trkpt>
      <trkpt lat="44.4309" lon="3.60353">
        <ele>1304</ele>
        <time>2022-05-27T09:01:14Z</time>
      </trkpt>
      <trkpt lat="44.4309" lon="3.60354">
        <ele>1305</ele>
        <time>2022-05-27T09:01:15Z</time>
      </trkpt>
      <trkpt lat="44.43089" lon="3.60356">
        <ele>1305</ele>
        <time>2022-05-27T09:01:16Z</time>
      </trkpt>
      <trkpt lat="44.43089" lon="3.60357">
        <ele>1305</ele>
        <time>2022-05-27T09:01:17Z</time>
      </trkpt>
      <trkpt lat="44.43089" lon="3.60359">
        <ele>1305</ele>
        <time>2022-05-27T09:01:18Z</time>
      </trkpt>
      <trkpt lat="44.43088" lon="3.60361">
        <ele>1305</ele>
        <time>2022-05-27T09:01:19Z</time>
      </trkpt>
      <trkpt lat="44.43088" lon="3.60363">
        <ele>1305</ele>
        <time>2022-05-27T09:01:20Z</time>
      </trkpt>
      <trkpt lat="44.43087" lon="3.60364">
        <ele>1306</ele>
        <time>2022-05-27T09:01:21Z</time>
      </trkpt>
      <trkpt lat="44.43087" lon="3.60366">
        <ele>1306</ele>
        <time>2022-05-27T09:01:22Z</time>
      </trkpt>
      <trkpt lat="44.43086" lon="3.60368">
        <ele>1306</ele>
        <time>2022-05-27T09:01:23Z</time>
      </trkpt>
      <trkpt lat="44.43086" lon="3.60368">
        <ele>1306</ele>
        <time>2022-05-27T09:01:24Z</time>
      </trkpt>
      <trkpt lat="44.43086" lon="3.60369">
        <ele>1306</ele>
        <time>2022-05-27T09:01:25Z</time>
      </trkpt>
      <trkpt lat="44.43085" lon="3.60371">
        <ele>1307</ele>
        <time>2022-05-27T09:01:26Z</time>
      </trkpt>
      <trkpt lat="44.43085" lon="3.60372">
        <ele>1307</ele>
        <time>2022-05-27T09:01:27Z</time>
      </trkpt>
      <trkpt lat="44.43085" lon="3.60374">
        <ele>1307</ele>
        <time>2022-05-27T09:01:28Z</time>
      </trkpt>
      <trkpt lat="44.43085" lon="3.60375">
        <ele>1306</ele>
        <time>2022-05-27T09:01:29Z</time>
      </trkpt>
      <trkpt lat="44.43084" lon="3.60377">
        <ele>1306</ele>
        <time>2022-05-27T09:01:30Z</time>
      </trkpt>
      <trkpt lat="44.43084" lon="3.60379">
        <ele>1306</ele>
        <time>2022-05-27T09:01:31Z</time>
      </trkpt>
      <trkpt lat="44.43083" lon="3.60381">
        <ele>1306</ele>
        <time>2022-05-27T09:01:32Z</time>
      </trkpt>
      <trkpt lat="44.43083" lon="3.60383">
        <ele>1307</ele>
        <time>2022-05-27T09:01:33Z</time>
      </trkpt>
      <trkpt lat="44.43083" lon="3.60385">
        <ele>1307</ele>
        <time>2022-05-27T09:01:34Z</time>
      </trkpt>
      <trkpt lat="44.43082" lon="3.60386">
        <ele>1307</ele>
        <time>2022-05-27T09:01:35Z</time>
      </trkpt>
      <trkpt lat="44.43082" lon="3.60388">
        <ele>1307</ele>
        <time>2022-05-27T09:01:36Z</time>
      </trkpt>
      <trkpt lat="44.43082" lon="3.6039">
        <ele>1308</ele>
        <time>2022-05-27T09:01:37Z</time>
      </trkpt>
      <trkpt lat="44.43081" lon="3.60392">
        <ele>1308</ele>
        <time>2022-05-27T09:01:38Z</time>
      </trkpt>
      <trkpt lat="44.43081" lon="3.60394">
        <ele>1309</ele>
        <time>2022-05-27T09:01:39Z</time>
      </trkpt>
      <trkpt lat="44.43081" lon="3.60396">
        <ele>1308</ele>
        <time>2022-05-27T09:01:40Z</time>
      </trkpt>
      <trkpt lat="44.43081" lon="3.60397">
        <ele>1308</ele>
        <time>2022-05-27T09:01:41Z</time>
      </trkpt>
      <trkpt lat="44.4308" lon="3.60399">
        <ele>1308</ele>
        <time>2022-05-27T09:01:42Z</time>
      </trkpt>
      <trkpt lat="44.4308" lon="3.60401">
        <ele>1308</ele>
        <time>2022-05-27T09:01:43Z</time>
      </trkpt>
      <trkpt lat="44.43079" lon="3.60402">
        <ele>1308</ele>
        <time>2022-05-27T09:01:44Z</time>
      </trkpt>
      <trkpt lat="44.43079" lon="3.60404">
        <ele>1309</ele>
        <time>2022-05-27T09:01:45Z</time>
      </trkpt>
      <trkpt lat="44.43079" lon="3.60405">
        <ele>1309</ele>
        <time>2022-05-27T09:01:46Z</time>
      </trkpt>
      <trkpt lat="44.43078" lon="3.60406">
        <ele>1309</ele>
        <time>2022-05-27T09:01:47Z</time>
      </trkpt>
      <trkpt lat="44.43078" lon="3.60408">
        <ele>1309</ele>
        <time>2022-05-27T09:01:48Z</time>
      </trkpt>
      <trkpt lat="44.43077" lon="3.60409">
        <ele>1310</ele>
        <time>2022-05-27T09:01:49Z</time>
      </trkpt>
      <trkpt lat="44.43076" lon="3.60411">
        <ele>1310</ele>
        <time>2022-05-27T09:01:50Z</time>
      </trkpt>
      <trkpt lat="44.43076" lon="3.60413">
        <ele>1309</ele>
        <time>2022-05-27T09:01:51Z</time>
      </trkpt>
      <trkpt lat="44.43076" lon="3.60415">
        <ele>1309</ele>
        <time>2022-05-27T09:01:52Z</time>
      </trkpt>
      <trkpt lat="44.43075" lon="3.60416">
        <ele>1309</ele>
        <time>2022-05-27T09:01:53Z</time>
      </trkpt>
      <trkpt lat="44.43074" lon="3.60418">
        <ele>1310</ele>
        <time>2022-05-27T09:01:54Z</time>
      </trkpt>
      <trkpt lat="44.43074" lon="3.60419">
        <ele>1309</ele>
        <time>2022-05-27T09:01:55Z</time>
      </trkpt>
      <trkpt lat="44.43073" lon="3.6042">
        <ele>1309</ele>
        <time>2022-05-27T09:01:56Z</time>
      </trkpt>
      <trkpt lat="44.43073" lon="3.60422">
        <ele>1309</ele>
        <time>2022-05-27T09:01:57Z</time>
      </trkpt>
      <trkpt lat="44.43072" lon="3.60423">
        <ele>1309</ele>
        <time>2022-05-27T09:01:58Z</time>
      </trkpt>
      <trkpt lat="44.43071" lon="3.60425">
        <ele>1310</ele>
        <time>2022-05-27T09:01:59Z</time>
      </trkpt>
      <trkpt lat="44.43071" lon="3.60426">
        <ele>1309</ele>
        <time>2022-05-27T09:02:00Z</time>
      </trkpt>
      <trkpt lat="44.4307" lon="3.60428">
        <ele>1310</ele>
        <time>2022-05-27T09:02:01Z</time>
      </trkpt>
      <trkpt lat="44.4307" lon="3.60429">
        <ele>1310</ele>
        <time>2022-05-27T09:02:02Z</time>
      </trkpt>
      <trkpt lat="44.43069" lon="3.6043">
        <ele>1310</ele>
        <time>2022-05-27T09:02:03Z</time>
      </trkpt>
      <trkpt lat="44.43069" lon="3.60432">
        <ele>1310</ele>
        <time>2022-05-27T09:02:04Z</time>
      </trkpt>
      <trkpt lat="44.43068" lon="3.60433">
        <ele>1310</ele>
        <time>2022-05-27T09:02:05Z</time>
      </trkpt>
      <trkpt lat="44.43067" lon="3.60435">
        <ele>1310</ele>
        <time>2022-05-27T09:02:06Z</time>
      </trkpt>
      <trkpt lat="44.43067" lon="3.60436">
        <ele>1310</ele>
        <time>2022-05-27T09:02:07Z</time>
      </trkpt>
      <trkpt lat="44.43067" lon="3.60438">
        <ele>1310</ele>
        <time>2022-05-27T09:02:08Z</time>
      </trkpt>
      <trkpt lat="44.43066" lon="3.60439">
        <ele>1310</ele>
        <time>2022-05-27T09:02:09Z</time>
      </trkpt>
      <trkpt lat="44.43066" lon="3.60441">
        <ele>1310</ele>
        <time>2022-05-27T09:02:10Z</time>
      </trkpt>
      <trkpt lat="44.43065" lon="3.60442">
        <ele>1310</ele>
        <time>2022-05-27T09:02:11Z</time>
      </trkpt>
      <trkpt lat="44.43065" lon="3.60444">
        <ele>1310</ele>
        <time>2022-05-27T09:02:12Z</time>
      </trkpt>
      <trkpt lat="44.43064" lon="3.60445">
        <ele>1310</ele>
        <time>2022-05-27T09:02:13Z</time>
      </trkpt>
      <trkpt lat="44.43063" lon="3.60447">
        <ele>1310</ele>
        <time>2022-05-27T09:02:14Z</time>
      </trkpt>
      <trkpt lat="44.43063" lon="3.60449">
        <ele>1311</ele>
        <time>2022-05-27T09:02:15Z</time>
      </trkpt>
      <trkpt lat="44.43062" lon="3.6045">
        <ele>1311</ele>
        <time>2022-05-27T09:02:16Z</time>
      </trkpt>
      <trkpt lat="44.43062" lon="3.60452">
        <ele>1310</ele>
        <time>2022-05-27T09:02:17Z</time>
      </trkpt>
      <trkpt lat="44.43061" lon="3.60453">
        <ele>1310</ele>
        <time>2022-05-27T09:02:18Z</time>
      </trkpt>
      <trkpt lat="44.4306" lon="3.60455">
        <ele>1310</ele>
        <time>2022-05-27T09:02:19Z</time>
      </trkpt>
      <trkpt lat="44.4306" lon="3.60456">
        <ele>1310</ele>
        <time>2022-05-27T09:02:20Z</time>
      </trkpt>
      <trkpt lat="44.4306" lon="3.60458">
        <ele>1310</ele>
        <time>2022-05-27T09:02:21Z</time>
      </trkpt>
      <trkpt lat="44.43059" lon="3.60459">
        <ele>1310</ele>
        <time>2022-05-27T09:02:22Z</time>
      </trkpt>
      <trkpt lat="44.43059" lon="3.60461">
        <ele>1309</ele>
        <time>2022-05-27T09:02:23Z</time>
      </trkpt>
      <trkpt lat="44.43058" lon="3.60463">
        <ele>1310</ele>
        <time>2022-05-27T09:02:24Z</time>
      </trkpt>
      <trkpt lat="44.43058" lon="3.60465">
        <ele>1309</ele>
        <time>2022-05-27T09:02:25Z</time>
      </trkpt>
      <trkpt lat="44.43058" lon="3.60466">
        <ele>1309</ele>
        <time>2022-05-27T09:02:26Z</time>
      </trkpt>
      <trkpt lat="44.43057" lon="3.60468">
        <ele>1309</ele>
        <time>2022-05-27T09:02:27Z</time>
      </trkpt>
      <trkpt lat="44.43057" lon="3.6047">
        <ele>1309</ele>
        <time>2022-05-27T09:02:28Z</time>
      </trkpt>
      <trkpt lat="44.43057" lon="3.60471">
        <ele>1309</ele>
        <time>2022-05-27T09:02:29Z</time>
      </trkpt>
      <trkpt lat="44.43057" lon="3.60472">
        <ele>1309</ele>
        <time>2022-05-27T09:02:30Z</time>
      </trkpt>
      <trkpt lat="44.43056" lon="3.60474">
        <ele>1309</ele>
        <time>2022-05-27T09:02:31Z</time>
      </trkpt>
      <trkpt lat="44.43056" lon="3.60475">
        <ele>1309</ele>
        <time>2022-05-27T09:02:32Z</time>
      </trkpt>
      <trkpt lat="44.43055" lon="3.60477">
        <ele>1309</ele>
        <time>2022-05-27T09:02:33Z</time>
      </trkpt>
      <trkpt lat="44.43055" lon="3.60478">
        <ele>1309</ele>
        <time>2022-05-27T09:02:34Z</time>
      </trkpt>
      <trkpt lat="44.43055" lon="3.6048">
        <ele>1308</ele>
        <time>2022-05-27T09:02:35Z</time>
      </trkpt>
      <trkpt lat="44.43055" lon="3.60482">
        <ele>1308</ele>
        <time>2022-05-27T09:02:36Z</time>
      </trkpt>
      <trkpt lat="44.43054" lon="3.60483">
        <ele>1308</ele>
        <time>2022-05-27T09:02:37Z</time>
      </trkpt>
      <trkpt lat="44.43054" lon="3.60485">
        <ele>1308</ele>
        <time>2022-05-27T09:02:38Z</time>
      </trkpt>
      <trkpt lat="44.43053" lon="3.60487">
        <ele>1308</ele>
        <time>2022-05-27T09:02:39Z</time>
      </trkpt>
      <trkpt lat="44.43053" lon="3.60488">
        <ele>1307</ele>
        <time>2022-05-27T09:02:40Z</time>
      </trkpt>
      <trkpt lat="44.43052" lon="3.6049">
        <ele>1307</ele>
        <time>2022-05-27T09:02:41Z</time>
      </trkpt>
      <trkpt lat="44.43052" lon="3.60492">
        <ele>1307</ele>
        <time>2022-05-27T09:02:42Z</time>
      </trkpt>
      <trkpt lat="44.43052" lon="3.60494">
        <ele>1307</ele>
        <time>2022-05-27T09:02:43Z</time>
      </trkpt>
      <trkpt lat="44.43051" lon="3.60496">
        <ele>1307</ele>
        <time>2022-05-27T09:02:44Z</time>
      </trkpt>
      <trkpt lat="44.4305" lon="3.60498">
        <ele>1307</ele>
        <time>2022-05-27T09:02:45Z</time>
      </trkpt>
      <trkpt lat="44.4305" lon="3.605">
        <ele>1308</ele>
        <time>2022-05-27T09:02:46Z</time>
      </trkpt>
      <trkpt lat="44.4305" lon="3.60502">
        <ele>1308</ele>
        <time>2022-05-27T09:02:47Z</time>
      </trkpt>
      <trkpt lat="44.43049" lon="3.60503">
        <ele>1308</ele>
        <time>2022-05-27T09:02:48Z</time>
      </trkpt>
      <trkpt lat="44.43049" lon="3.60505">
        <ele>1308</ele>
        <time>2022-05-27T09:02:49Z</time>
      </trkpt>
      <trkpt lat="44.43048" lon="3.60507">
        <ele>1309</ele>
        <time>2022-05-27T09:02:50Z</time>
      </trkpt>
      <trkpt lat="44.43047" lon="3.60508">
        <ele>1309</ele>
        <time>2022-05-27T09:02:51Z</time>
      </trkpt>
      <trkpt lat="44.43047" lon="3.60511">
        <ele>1309</ele>
        <time>2022-05-27T09:02:52Z</time>
      </trkpt>
      <trkpt lat="44.43046" lon="3.60513">
        <ele>1310</ele>
        <time>2022-05-27T09:02:53Z</time>
      </trkpt>
      <trkpt lat="44.43046" lon="3.60514">
        <ele>1310</ele>
        <time>2022-05-27T09:02:54Z</time>
      </trkpt>
      <trkpt lat="44.43045" lon="3.60516">
        <ele>1310</ele>
        <time>2022-05-27T09:02:55Z</time>
      </trkpt>
      <trkpt lat="44.43045" lon="3.60518">
        <ele>1310</ele>
        <time>2022-05-27T09:02:56Z</time>
      </trkpt>
      <trkpt lat="44.43045" lon="3.6052">
        <ele>1310</ele>
        <time>2022-05-27T09:02:57Z</time>
      </trkpt>
      <trkpt lat="44.43045" lon="3.60521">
        <ele>1311</ele>
        <time>2022-05-27T09:02:58Z</time>
      </trkpt>
      <trkpt lat="44.43045" lon="3.60523">
        <ele>1311</ele>
        <time>2022-05-27T09:02:59Z</time>
      </trkpt>
      <trkpt lat="44.43044" lon="3.60525">
        <ele>1311</ele>
        <time>2022-05-27T09:03:00Z</time>
      </trkpt>
      <trkpt lat="44.43044" lon="3.60527">
        <ele>1311</ele>
        <time>2022-05-27T09:03:01Z</time>
      </trkpt>
      <trkpt lat="44.43044" lon="3.60529">
        <ele>1311</ele>
        <time>2022-05-27T09:03:02Z</time>
      </trkpt>
      <trkpt lat="44.43043" lon="3.6053">
        <ele>1311</ele>
        <time>2022-05-27T09:03:03Z</time>
      </trkpt>
      <trkpt lat="44.43043" lon="3.60532">
        <ele>1311</ele>
        <time>2022-05-27T09:03:04Z</time>
      </trkpt>
      <trkpt lat="44.43043" lon="3.60534">
        <ele>1311</ele>
        <time>2022-05-27T09:03:05Z</time>
      </trkpt>
      <trkpt lat="44.43042" lon="3.60535">
        <ele>1312</ele>
        <time>2022-05-27T09:03:06Z</time>
      </trkpt>
      <trkpt lat="44.43042" lon="3.60537">
        <ele>1312</ele>
        <time>2022-05-27T09:03:07Z</time>
      </trkpt>
      <trkpt lat="44.43042" lon="3.60539">
        <ele>1311</ele>
        <time>2022-05-27T09:03:08Z</time>
      </trkpt>
      <trkpt lat="44.43042" lon="3.60541">
        <ele>1311</ele>
        <time>2022-05-27T09:03:09Z</time>
      </trkpt>
      <trkpt lat="44.43041" lon="3.60542">
        <ele>1311</ele>
        <time>2022-05-27T09:03:10Z</time>
      </trkpt>
      <trkpt lat="44.43041" lon="3.60543">
        <ele>1311</ele>
        <time>2022-05-27T09:03:11Z</time>
      </trkpt>
      <trkpt lat="44.43041" lon="3.60543">
        <ele>1312</ele>
        <time>2022-05-27T09:03:12Z</time>
      </trkpt>
      <trkpt lat="44.43041" lon="3.60542">
        <ele>1312</ele>
        <time>2022-05-27T09:03:13Z</time>
      </trkpt>
      <trkpt lat="44.43041" lon="3.6054">
        <ele>1312</ele>
        <time>2022-05-27T09:03:14Z</time>
      </trkpt>
      <trkpt lat="44.43041" lon="3.60539">
        <ele>1313</ele>
        <time>2022-05-27T09:03:15Z</time>
      </trkpt>
      <trkpt lat="44.4304" lon="3.60538">
        <ele>1313</ele>
        <time>2022-05-27T09:03:16Z</time>
      </trkpt>
      <trkpt lat="44.4304" lon="3.60537">
        <ele>1313</ele>
        <time>2022-05-27T09:03:17Z</time>
      </trkpt>
      <trkpt lat="44.4304" lon="3.60538">
        <ele>1313</ele>
        <time>2022-05-27T09:03:18Z</time>
      </trkpt>
      <trkpt lat="44.4304" lon="3.60538">
        <ele>1313</ele>
        <time>2022-05-27T09:03:19Z</time>
      </trkpt>
      <trkpt lat="44.4304" lon="3.60538">
        <ele>1313</ele>
        <time>2022-05-27T09:03:20Z</time>
      </trkpt>
      <trkpt lat="44.4304" lon="3.60538">
        <ele>1313</ele>
        <time>2022-05-27T09:03:20Z</time>
      </trkpt>
      <trkpt lat="44.4304" lon="3.60538">
        <ele>1313</ele>
        <time>2022-05-27T09:03:20Z</time>
      </trkpt>
      <trkpt lat="44.43039" lon="3.60546">
        <ele>1315</ele>
        <time>2022-05-27T09:03:26Z</time>
      </trkpt>
      <trkpt lat="44.43039" lon="3.60548">
        <ele>1315</ele>
        <time>2022-05-27T09:03:27Z</time>
      </trkpt>
      <trkpt lat="44.43038" lon="3.6055">
        <ele>1315</ele>
        <time>2022-05-27T09:03:28Z</time>
      </trkpt>
      <trkpt lat="44.43038" lon="3.60551">
        <ele>1315</ele>
        <time>2022-05-27T09:03:29Z</time>
      </trkpt>
      <trkpt lat="44.43038" lon="3.60553">
        <ele>1315</ele>
        <time>2022-05-27T09:03:30Z</time>
      </trkpt>
      <trkpt lat="44.43037" lon="3.60555">
        <ele>1315</ele>
        <time>2022-05-27T09:03:31Z</time>
      </trkpt>
      <trkpt lat="44.43037" lon="3.60557">
        <ele>1314</ele>
        <time>2022-05-27T09:03:32Z</time>
      </trkpt>
      <trkpt lat="44.43036" lon="3.60559">
        <ele>1314</ele>
        <time>2022-05-27T09:03:33Z</time>
      </trkpt>
      <trkpt lat="44.43036" lon="3.60561">
        <ele>1314</ele>
        <time>2022-05-27T09:03:34Z</time>
      </trkpt>
      <trkpt lat="44.43036" lon="3.60563">
        <ele>1314</ele>
        <time>2022-05-27T09:03:35Z</time>
      </trkpt>
      <trkpt lat="44.43036" lon="3.60565">
        <ele>1314</ele>
        <time>2022-05-27T09:03:36Z</time>
      </trkpt>
      <trkpt lat="44.43035" lon="3.60566">
        <ele>1314</ele>
        <time>2022-05-27T09:03:37Z</time>
      </trkpt>
      <trkpt lat="44.43035" lon="3.60568">
        <ele>1315</ele>
        <time>2022-05-27T09:03:38Z</time>
      </trkpt>
      <trkpt lat="44.43034" lon="3.6057">
        <ele>1315</ele>
        <time>2022-05-27T09:03:39Z</time>
      </trkpt>
      <trkpt lat="44.43034" lon="3.60571">
        <ele>1315</ele>
        <time>2022-05-27T09:03:40Z</time>
      </trkpt>
      <trkpt lat="44.43034" lon="3.60573">
        <ele>1315</ele>
        <time>2022-05-27T09:03:41Z</time>
      </trkpt>
      <trkpt lat="44.43034" lon="3.60575">
        <ele>1315</ele>
        <time>2022-05-27T09:03:42Z</time>
      </trkpt>
      <trkpt lat="44.43033" lon="3.60576">
        <ele>1315</ele>
        <time>2022-05-27T09:03:43Z</time>
      </trkpt>
      <trkpt lat="44.43033" lon="3.60578">
        <ele>1315</ele>
        <time>2022-05-27T09:03:44Z</time>
      </trkpt>
      <trkpt lat="44.43032" lon="3.6058">
        <ele>1315</ele>
        <time>2022-05-27T09:03:45Z</time>
      </trkpt>
      <trkpt lat="44.43032" lon="3.60582">
        <ele>1314</ele>
        <time>2022-05-27T09:03:46Z</time>
      </trkpt>
      <trkpt lat="44.43032" lon="3.60583">
        <ele>1314</ele>
        <time>2022-05-27T09:03:47Z</time>
      </trkpt>
      <trkpt lat="44.43032" lon="3.60585">
        <ele>1314</ele>
        <time>2022-05-27T09:03:48Z</time>
      </trkpt>
      <trkpt lat="44.43031" lon="3.60586">
        <ele>1314</ele>
        <time>2022-05-27T09:03:49Z</time>
      </trkpt>
      <trkpt lat="44.43031" lon="3.60587">
        <ele>1314</ele>
        <time>2022-05-27T09:03:50Z</time>
      </trkpt>
      <trkpt lat="44.43031" lon="3.60589">
        <ele>1314</ele>
        <time>2022-05-27T09:03:51Z</time>
      </trkpt>
      <trkpt lat="44.4303" lon="3.60591">
        <ele>1314</ele>
        <time>2022-05-27T09:03:52Z</time>
      </trkpt>
      <trkpt lat="44.4303" lon="3.60593">
        <ele>1314</ele>
        <time>2022-05-27T09:03:53Z</time>
      </trkpt>
      <trkpt lat="44.43029" lon="3.60594">
        <ele>1313</ele>
        <time>2022-05-27T09:03:54Z</time>
      </trkpt>
      <trkpt lat="44.43029" lon="3.60596">
        <ele>1313</ele>
        <time>2022-05-27T09:03:55Z</time>
      </trkpt>
      <trkpt lat="44.43029" lon="3.60598">
        <ele>1313</ele>
        <time>2022-05-27T09:03:56Z</time>
      </trkpt>
      <trkpt lat="44.43029" lon="3.606">
        <ele>1314</ele>
        <time>2022-05-27T09:03:57Z</time>
      </trkpt>
      <trkpt lat="44.43028" lon="3.60601">
        <ele>1314</ele>
        <time>2022-05-27T09:03:58Z</time>
      </trkpt>
      <trkpt lat="44.43028" lon="3.60603">
        <ele>1314</ele>
        <time>2022-05-27T09:03:59Z</time>
      </trkpt>
      <trkpt lat="44.43028" lon="3.60604">
        <ele>1314</ele>
        <time>2022-05-27T09:04:00Z</time>
      </trkpt>
      <trkpt lat="44.43027" lon="3.60606">
        <ele>1314</ele>
        <time>2022-05-27T09:04:01Z</time>
      </trkpt>
      <trkpt lat="44.43027" lon="3.60607">
        <ele>1314</ele>
        <time>2022-05-27T09:04:02Z</time>
      </trkpt>
      <trkpt lat="44.43027" lon="3.60609">
        <ele>1314</ele>
        <time>2022-05-27T09:04:03Z</time>
      </trkpt>
      <trkpt lat="44.43027" lon="3.6061">
        <ele>1314</ele>
        <time>2022-05-27T09:04:04Z</time>
      </trkpt>
      <trkpt lat="44.43026" lon="3.60612">
        <ele>1313</ele>
        <time>2022-05-27T09:04:05Z</time>
      </trkpt>
      <trkpt lat="44.43026" lon="3.60613">
        <ele>1313</ele>
        <time>2022-05-27T09:04:06Z</time>
      </trkpt>
      <trkpt lat="44.43026" lon="3.60615">
        <ele>1313</ele>
        <time>2022-05-27T09:04:07Z</time>
      </trkpt>
      <trkpt lat="44.43025" lon="3.60616">
        <ele>1313</ele>
        <time>2022-05-27T09:04:08Z</time>
      </trkpt>
      <trkpt lat="44.43025" lon="3.60618">
        <ele>1312</ele>
        <time>2022-05-27T09:04:09Z</time>
      </trkpt>
      <trkpt lat="44.43024" lon="3.6062">
        <ele>1312</ele>
        <time>2022-05-27T09:04:10Z</time>
      </trkpt>
      <trkpt lat="44.43024" lon="3.60621">
        <ele>1312</ele>
        <time>2022-05-27T09:04:11Z</time>
      </trkpt>
      <trkpt lat="44.43023" lon="3.60623">
        <ele>1311</ele>
        <time>2022-05-27T09:04:12Z</time>
      </trkpt>
      <trkpt lat="44.43023" lon="3.60625">
        <ele>1311</ele>
        <time>2022-05-27T09:04:13Z</time>
      </trkpt>
      <trkpt lat="44.43022" lon="3.60626">
        <ele>1310</ele>
        <time>2022-05-27T09:04:14Z</time>
      </trkpt>
      <trkpt lat="44.43022" lon="3.60629">
        <ele>1310</ele>
        <time>2022-05-27T09:04:15Z</time>
      </trkpt>
      <trkpt lat="44.43021" lon="3.6063">
        <ele>1310</ele>
        <time>2022-05-27T09:04:16Z</time>
      </trkpt>
      <trkpt lat="44.43021" lon="3.60632">
        <ele>1310</ele>
        <time>2022-05-27T09:04:17Z</time>
      </trkpt>
      <trkpt lat="44.43021" lon="3.60634">
        <ele>1310</ele>
        <time>2022-05-27T09:04:18Z</time>
      </trkpt>
      <trkpt lat="44.43021" lon="3.60636">
        <ele>1310</ele>
        <time>2022-05-27T09:04:19Z</time>
      </trkpt>
      <trkpt lat="44.43021" lon="3.60637">
        <ele>1310</ele>
        <time>2022-05-27T09:04:20Z</time>
      </trkpt>
      <trkpt lat="44.4302" lon="3.60639">
        <ele>1310</ele>
        <time>2022-05-27T09:04:21Z</time>
      </trkpt>
      <trkpt lat="44.4302" lon="3.6064">
        <ele>1310</ele>
        <time>2022-05-27T09:04:22Z</time>
      </trkpt>
      <trkpt lat="44.4302" lon="3.60641">
        <ele>1311</ele>
        <time>2022-05-27T09:04:23Z</time>
      </trkpt>
      <trkpt lat="44.4302" lon="3.60642">
        <ele>1310</ele>
        <time>2022-05-27T09:04:24Z</time>
      </trkpt>
      <trkpt lat="44.4302" lon="3.60643">
        <ele>1310</ele>
        <time>2022-05-27T09:04:25Z</time>
      </trkpt>
      <trkpt lat="44.4302" lon="3.60644">
        <ele>1310</ele>
        <time>2022-05-27T09:04:26Z</time>
      </trkpt>
      <trkpt lat="44.4302" lon="3.60645">
        <ele>1309</ele>
        <time>2022-05-27T09:04:27Z</time>
      </trkpt>
      <trkpt lat="44.43019" lon="3.60646">
        <ele>1310</ele>
        <time>2022-05-27T09:04:28Z</time>
      </trkpt>
      <trkpt lat="44.43019" lon="3.60647">
        <ele>1311</ele>
        <time>2022-05-27T09:04:29Z</time>
      </trkpt>
      <trkpt lat="44.43019" lon="3.60649">
        <ele>1311</ele>
        <time>2022-05-27T09:04:30Z</time>
      </trkpt>
      <trkpt lat="44.43019" lon="3.6065">
        <ele>1311</ele>
        <time>2022-05-27T09:04:31Z</time>
      </trkpt>
      <trkpt lat="44.43019" lon="3.6065">
        <ele>1311</ele>
        <time>2022-05-27T09:04:32Z</time>
      </trkpt>
      <trkpt lat="44.43019" lon="3.6065">
        <ele>1311</ele>
        <time>2022-05-27T09:04:33Z</time>
      </trkpt>
      <trkpt lat="44.43018" lon="3.60653">
        <ele>1313</ele>
        <time>2022-05-27T09:04:34Z</time>
      </trkpt>
      <trkpt lat="44.43018" lon="3.60654">
        <ele>1313</ele>
        <time>2022-05-27T09:04:35Z</time>
      </trkpt>
      <trkpt lat="44.43017" lon="3.60655">
        <ele>1314</ele>
        <time>2022-05-27T09:04:36Z</time>
      </trkpt>
      <trkpt lat="44.43017" lon="3.60656">
        <ele>1314</ele>
        <time>2022-05-27T09:04:37Z</time>
      </trkpt>
      <trkpt lat="44.43018" lon="3.60656">
        <ele>1315</ele>
        <time>2022-05-27T09:04:38Z</time>
      </trkpt>
      <trkpt lat="44.43018" lon="3.60655">
        <ele>1316</ele>
        <time>2022-05-27T09:04:39Z</time>
      </trkpt>
      <trkpt lat="44.43017" lon="3.60655">
        <ele>1317</ele>
        <time>2022-05-27T09:04:40Z</time>
      </trkpt>
      <trkpt lat="44.43017" lon="3.60655">
        <ele>1317</ele>
        <time>2022-05-27T09:04:41Z</time>
      </trkpt>
      <trkpt lat="44.43017" lon="3.60655">
        <ele>1317</ele>
        <time>2022-05-27T09:04:42Z</time>
      </trkpt>
      <trkpt lat="44.43017" lon="3.60655">
        <ele>1317</ele>
        <time>2022-05-27T09:04:42Z</time>
      </trkpt>
      <trkpt lat="44.43017" lon="3.60655">
        <ele>1317</ele>
        <time>2022-05-27T09:04:42Z</time>
      </trkpt>
      <trkpt lat="44.43011" lon="3.60653">
        <ele>1319</ele>
        <time>2022-05-27T09:06:57Z</time>
      </trkpt>
      <trkpt lat="44.4301" lon="3.60652">
        <ele>1320</ele>
        <time>2022-05-27T09:06:58Z</time>
      </trkpt>
      <trkpt lat="44.4301" lon="3.60652">
        <ele>1320</ele>
        <time>2022-05-27T09:06:59Z</time>
      </trkpt>
      <trkpt lat="44.43009" lon="3.60651">
        <ele>1321</ele>
        <time>2022-05-27T09:07:00Z</time>
      </trkpt>
      <trkpt lat="44.43008" lon="3.6065">
        <ele>1321</ele>
        <time>2022-05-27T09:07:01Z</time>
      </trkpt>
      <trkpt lat="44.43008" lon="3.60649">
        <ele>1320</ele>
        <time>2022-05-27T09:07:02Z</time>
      </trkpt>
      <trkpt lat="44.43007" lon="3.60648">
        <ele>1320</ele>
        <time>2022-05-27T09:07:03Z</time>
      </trkpt>
      <trkpt lat="44.43007" lon="3.60648">
        <ele>1320</ele>
        <time>2022-05-27T09:07:04Z</time>
      </trkpt>
      <trkpt lat="44.43006" lon="3.60647">
        <ele>1320</ele>
        <time>2022-05-27T09:07:05Z</time>
      </trkpt>
      <trkpt lat="44.43005" lon="3.60647">
        <ele>1320</ele>
        <time>2022-05-27T09:07:06Z</time>
      </trkpt>
      <trkpt lat="44.43005" lon="3.60647">
        <ele>1319</ele>
        <time>2022-05-27T09:07:07Z</time>
      </trkpt>
      <trkpt lat="44.43004" lon="3.60646">
        <ele>1319</ele>
        <time>2022-05-27T09:07:08Z</time>
      </trkpt>
      <trkpt lat="44.43003" lon="3.60646">
        <ele>1318</ele>
        <time>2022-05-27T09:07:09Z</time>
      </trkpt>
      <trkpt lat="44.43002" lon="3.60645">
        <ele>1317</ele>
        <time>2022-05-27T09:07:10Z</time>
      </trkpt>
      <trkpt lat="44.43002" lon="3.60645">
        <ele>1316</ele>
        <time>2022-05-27T09:07:11Z</time>
      </trkpt>
      <trkpt lat="44.43" lon="3.60644">
        <ele>1315</ele>
        <time>2022-05-27T09:07:12Z</time>
      </trkpt>
      <trkpt lat="44.43" lon="3.60643">
        <ele>1314</ele>
        <time>2022-05-27T09:07:13Z</time>
      </trkpt>
      <trkpt lat="44.42999" lon="3.60642">
        <ele>1315</ele>
        <time>2022-05-27T09:07:14Z</time>
      </trkpt>
      <trkpt lat="44.42998" lon="3.60641">
        <ele>1314</ele>
        <time>2022-05-27T09:07:15Z</time>
      </trkpt>
      <trkpt lat="44.42998" lon="3.6064">
        <ele>1314</ele>
        <time>2022-05-27T09:07:16Z</time>
      </trkpt>
      <trkpt lat="44.42997" lon="3.6064">
        <ele>1313</ele>
        <time>2022-05-27T09:07:17Z</time>
      </trkpt>
      <trkpt lat="44.42996" lon="3.60639">
        <ele>1313</ele>
        <time>2022-05-27T09:07:18Z</time>
      </trkpt>
      <trkpt lat="44.42996" lon="3.60639">
        <ele>1312</ele>
        <time>2022-05-27T09:07:19Z</time>
      </trkpt>
      <trkpt lat="44.42996" lon="3.60638">
        <ele>1312</ele>
        <time>2022-05-27T09:07:20Z</time>
      </trkpt>
      <trkpt lat="44.42995" lon="3.60638">
        <ele>1311</ele>
        <time>2022-05-27T09:07:21Z</time>
      </trkpt>
      <trkpt lat="44.42995" lon="3.60638">
        <ele>1311</ele>
        <time>2022-05-27T09:07:22Z</time>
      </trkpt>
      <trkpt lat="44.42994" lon="3.60637">
        <ele>1311</ele>
        <time>2022-05-27T09:07:23Z</time>
      </trkpt>
      <trkpt lat="44.42994" lon="3.60637">
        <ele>1310</ele>
        <time>2022-05-27T09:07:24Z</time>
      </trkpt>
      <trkpt lat="44.42994" lon="3.60636">
        <ele>1310</ele>
        <time>2022-05-27T09:07:25Z</time>
      </trkpt>
      <trkpt lat="44.42993" lon="3.60635">
        <ele>1310</ele>
        <time>2022-05-27T09:07:26Z</time>
      </trkpt>
      <trkpt lat="44.42992" lon="3.60635">
        <ele>1310</ele>
        <time>2022-05-27T09:07:27Z</time>
      </trkpt>
      <trkpt lat="44.42991" lon="3.60634">
        <ele>1309</ele>
        <time>2022-05-27T09:07:28Z</time>
      </trkpt>
      <trkpt lat="44.4299" lon="3.60633">
        <ele>1309</ele>
        <time>2022-05-27T09:07:29Z</time>
      </trkpt>
      <trkpt lat="44.42989" lon="3.60633">
        <ele>1308</ele>
        <time>2022-05-27T09:07:30Z</time>
      </trkpt>
      <trkpt lat="44.42988" lon="3.60632">
        <ele>1308</ele>
        <time>2022-05-27T09:07:31Z</time>
      </trkpt>
      <trkpt lat="44.42988" lon="3.60632">
        <ele>1308</ele>
        <time>2022-05-27T09:07:32Z</time>
      </trkpt>
      <trkpt lat="44.42988" lon="3.60632">
        <ele>1308</ele>
        <time>2022-05-27T09:07:33Z</time>
      </trkpt>
      <trkpt lat="44.42987" lon="3.60632">
        <ele>1307</ele>
        <time>2022-05-27T09:07:34Z</time>
      </trkpt>
      <trkpt lat="44.42987" lon="3.60632">
        <ele>1307</ele>
        <time>2022-05-27T09:07:35Z</time>
      </trkpt>
      <trkpt lat="44.42987" lon="3.60632">
        <ele>1307</ele>
        <time>2022-05-27T09:07:36Z</time>
      </trkpt>
      <trkpt lat="44.42985" lon="3.60631">
        <ele>1306</ele>
        <time>2022-05-27T09:07:37Z</time>
      </trkpt>
      <trkpt lat="44.42984" lon="3.60631">
        <ele>1306</ele>
        <time>2022-05-27T09:07:38Z</time>
      </trkpt>
      <trkpt lat="44.42984" lon="3.6063">
        <ele>1306</ele>
        <time>2022-05-27T09:07:39Z</time>
      </trkpt>
      <trkpt lat="44.42983" lon="3.60629">
        <ele>1305</ele>
        <time>2022-05-27T09:07:40Z</time>
      </trkpt>
      <trkpt lat="44.42983" lon="3.60629">
        <ele>1305</ele>
        <time>2022-05-27T09:07:41Z</time>
      </trkpt>
      <trkpt lat="44.42983" lon="3.60629">
        <ele>1305</ele>
        <time>2022-05-27T09:07:42Z</time>
      </trkpt>
      <trkpt lat="44.42981" lon="3.60628">
        <ele>1304</ele>
        <time>2022-05-27T09:07:43Z</time>
      </trkpt>
      <trkpt lat="44.4298" lon="3.60627">
        <ele>1303</ele>
        <time>2022-05-27T09:07:44Z</time>
      </trkpt>
      <trkpt lat="44.42979" lon="3.60626">
        <ele>1303</ele>
        <time>2022-05-27T09:07:45Z</time>
      </trkpt>
      <trkpt lat="44.42978" lon="3.60626">
        <ele>1304</ele>
        <time>2022-05-27T09:07:46Z</time>
      </trkpt>
      <trkpt lat="44.42978" lon="3.60625">
        <ele>1304</ele>
        <time>2022-05-27T09:07:47Z</time>
      </trkpt>
      <trkpt lat="44.42976" lon="3.60624">
        <ele>1303</ele>
        <time>2022-05-27T09:07:48Z</time>
      </trkpt>
      <trkpt lat="44.42976" lon="3.60623">
        <ele>1303</ele>
        <time>2022-05-27T09:07:49Z</time>
      </trkpt>
      <trkpt lat="44.42975" lon="3.60622">
        <ele>1303</ele>
        <time>2022-05-27T09:07:50Z</time>
      </trkpt>
      <trkpt lat="44.42974" lon="3.60621">
        <ele>1304</ele>
        <time>2022-05-27T09:07:51Z</time>
      </trkpt>
      <trkpt lat="44.42974" lon="3.6062">
        <ele>1303</ele>
        <time>2022-05-27T09:07:52Z</time>
      </trkpt>
      <trkpt lat="44.42973" lon="3.60618">
        <ele>1304</ele>
        <time>2022-05-27T09:07:53Z</time>
      </trkpt>
      <trkpt lat="44.42971" lon="3.60617">
        <ele>1304</ele>
        <time>2022-05-27T09:07:54Z</time>
      </trkpt>
      <trkpt lat="44.42971" lon="3.60617">
        <ele>1304</ele>
        <time>2022-05-27T09:07:55Z</time>
      </trkpt>
      <trkpt lat="44.4297" lon="3.60616">
        <ele>1304</ele>
        <time>2022-05-27T09:07:56Z</time>
      </trkpt>
      <trkpt lat="44.42969" lon="3.60614">
        <ele>1304</ele>
        <time>2022-05-27T09:07:57Z</time>
      </trkpt>
      <trkpt lat="44.42968" lon="3.60613">
        <ele>1304</ele>
        <time>2022-05-27T09:07:58Z</time>
      </trkpt>
      <trkpt lat="44.42967" lon="3.60612">
        <ele>1304</ele>
        <time>2022-05-27T09:07:59Z</time>
      </trkpt>
      <trkpt lat="44.42966" lon="3.60611">
        <ele>1305</ele>
        <time>2022-05-27T09:08:00Z</time>
      </trkpt>
      <trkpt lat="44.42965" lon="3.60609">
        <ele>1305</ele>
        <time>2022-05-27T09:08:01Z</time>
      </trkpt>
      <trkpt lat="44.42963" lon="3.60608">
        <ele>1306</ele>
        <time>2022-05-27T09:08:02Z</time>
      </trkpt>
      <trkpt lat="44.42962" lon="3.60607">
        <ele>1306</ele>
        <time>2022-05-27T09:08:03Z</time>
      </trkpt>
      <trkpt lat="44.42962" lon="3.60606">
        <ele>1305</ele>
        <time>2022-05-27T09:08:04Z</time>
      </trkpt>
      <trkpt lat="44.42961" lon="3.60604">
        <ele>1305</ele>
        <time>2022-05-27T09:08:05Z</time>
      </trkpt>
      <trkpt lat="44.42961" lon="3.60603">
        <ele>1305</ele>
        <time>2022-05-27T09:08:06Z</time>
      </trkpt>
      <trkpt lat="44.4296" lon="3.60603">
        <ele>1306</ele>
        <time>2022-05-27T09:08:07Z</time>
      </trkpt>
      <trkpt lat="44.4296" lon="3.60602">
        <ele>1306</ele>
        <time>2022-05-27T09:08:08Z</time>
      </trkpt>
      <trkpt lat="44.42959" lon="3.60601">
        <ele>1306</ele>
        <time>2022-05-27T09:08:09Z</time>
      </trkpt>
      <trkpt lat="44.42958" lon="3.606">
        <ele>1307</ele>
        <time>2022-05-27T09:08:10Z</time>
      </trkpt>
      <trkpt lat="44.42957" lon="3.606">
        <ele>1307</ele>
        <time>2022-05-27T09:08:11Z</time>
      </trkpt>
      <trkpt lat="44.42956" lon="3.60598">
        <ele>1307</ele>
        <time>2022-05-27T09:08:12Z</time>
      </trkpt>
      <trkpt lat="44.42955" lon="3.60597">
        <ele>1306</ele>
        <time>2022-05-27T09:08:13Z</time>
      </trkpt>
      <trkpt lat="44.42954" lon="3.60595">
        <ele>1306</ele>
        <time>2022-05-27T09:08:14Z</time>
      </trkpt>
      <trkpt lat="44.42954" lon="3.60594">
        <ele>1306</ele>
        <time>2022-05-27T09:08:15Z</time>
      </trkpt>
      <trkpt lat="44.42953" lon="3.60593">
        <ele>1306</ele>
        <time>2022-05-27T09:08:16Z</time>
      </trkpt>
      <trkpt lat="44.42952" lon="3.60591">
        <ele>1306</ele>
        <time>2022-05-27T09:08:17Z</time>
      </trkpt>
      <trkpt lat="44.42952" lon="3.6059">
        <ele>1306</ele>
        <time>2022-05-27T09:08:18Z</time>
      </trkpt>
      <trkpt lat="44.42951" lon="3.60589">
        <ele>1307</ele>
        <time>2022-05-27T09:08:19Z</time>
      </trkpt>
      <trkpt lat="44.42951" lon="3.60588">
        <ele>1307</ele>
        <time>2022-05-27T09:08:20Z</time>
      </trkpt>
      <trkpt lat="44.4295" lon="3.60587">
        <ele>1306</ele>
        <time>2022-05-27T09:08:21Z</time>
      </trkpt>
      <trkpt lat="44.4295" lon="3.60586">
        <ele>1306</ele>
        <time>2022-05-27T09:08:22Z</time>
      </trkpt>
      <trkpt lat="44.42949" lon="3.60585">
        <ele>1305</ele>
        <time>2022-05-27T09:08:23Z</time>
      </trkpt>
      <trkpt lat="44.42949" lon="3.60584">
        <ele>1305</ele>
        <time>2022-05-27T09:08:24Z</time>
      </trkpt>
      <trkpt lat="44.42948" lon="3.60583">
        <ele>1305</ele>
        <time>2022-05-27T09:08:25Z</time>
      </trkpt>
      <trkpt lat="44.42947" lon="3.60583">
        <ele>1305</ele>
        <time>2022-05-27T09:08:26Z</time>
      </trkpt>
      <trkpt lat="44.42947" lon="3.60582">
        <ele>1305</ele>
        <time>2022-05-27T09:08:27Z</time>
      </trkpt>
      <trkpt lat="44.42946" lon="3.60581">
        <ele>1305</ele>
        <time>2022-05-27T09:08:28Z</time>
      </trkpt>
      <trkpt lat="44.42946" lon="3.60581">
        <ele>1305</ele>
        <time>2022-05-27T09:08:29Z</time>
      </trkpt>
      <trkpt lat="44.42945" lon="3.60581">
        <ele>1305</ele>
        <time>2022-05-27T09:08:30Z</time>
      </trkpt>
      <trkpt lat="44.42944" lon="3.6058">
        <ele>1305</ele>
        <time>2022-05-27T09:08:31Z</time>
      </trkpt>
      <trkpt lat="44.42944" lon="3.6058">
        <ele>1305</ele>
        <time>2022-05-27T09:08:32Z</time>
      </trkpt>
      <trkpt lat="44.42943" lon="3.60579">
        <ele>1306</ele>
        <time>2022-05-27T09:08:33Z</time>
      </trkpt>
      <trkpt lat="44.42942" lon="3.60579">
        <ele>1305</ele>
        <time>2022-05-27T09:08:34Z</time>
      </trkpt>
      <trkpt lat="44.42942" lon="3.60578">
        <ele>1305</ele>
        <time>2022-05-27T09:08:35Z</time>
      </trkpt>
      <trkpt lat="44.42941" lon="3.60577">
        <ele>1305</ele>
        <time>2022-05-27T09:08:36Z</time>
      </trkpt>
      <trkpt lat="44.4294" lon="3.60576">
        <ele>1305</ele>
        <time>2022-05-27T09:08:37Z</time>
      </trkpt>
      <trkpt lat="44.42939" lon="3.60575">
        <ele>1306</ele>
        <time>2022-05-27T09:08:38Z</time>
      </trkpt>
      <trkpt lat="44.42939" lon="3.60575">
        <ele>1306</ele>
        <time>2022-05-27T09:08:39Z</time>
      </trkpt>
      <trkpt lat="44.42939" lon="3.60575">
        <ele>1306</ele>
        <time>2022-05-27T09:08:40Z</time>
      </trkpt>
      <trkpt lat="44.42938" lon="3.60573">
        <ele>1306</ele>
        <time>2022-05-27T09:08:41Z</time>
      </trkpt>
      <trkpt lat="44.42937" lon="3.60572">
        <ele>1305</ele>
        <time>2022-05-27T09:08:42Z</time>
      </trkpt>
      <trkpt lat="44.42936" lon="3.6057">
        <ele>1305</ele>
        <time>2022-05-27T09:08:43Z</time>
      </trkpt>
      <trkpt lat="44.42935" lon="3.60569">
        <ele>1305</ele>
        <time>2022-05-27T09:08:44Z</time>
      </trkpt>
      <trkpt lat="44.42934" lon="3.60569">
        <ele>1304</ele>
        <time>2022-05-27T09:08:45Z</time>
      </trkpt>
      <trkpt lat="44.42934" lon="3.60568">
        <ele>1303</ele>
        <time>2022-05-27T09:08:46Z</time>
      </trkpt>
      <trkpt lat="44.42933" lon="3.60566">
        <ele>1303</ele>
        <time>2022-05-27T09:08:47Z</time>
      </trkpt>
      <trkpt lat="44.42932" lon="3.60565">
        <ele>1302</ele>
        <time>2022-05-27T09:08:48Z</time>
      </trkpt>
      <trkpt lat="44.42931" lon="3.60564">
        <ele>1301</ele>
        <time>2022-05-27T09:08:49Z</time>
      </trkpt>
      <trkpt lat="44.4293" lon="3.60563">
        <ele>1301</ele>
        <time>2022-05-27T09:08:50Z</time>
      </trkpt>
      <trkpt lat="44.42929" lon="3.60561">
        <ele>1301</ele>
        <time>2022-05-27T09:08:51Z</time>
      </trkpt>
      <trkpt lat="44.42928" lon="3.6056">
        <ele>1301</ele>
        <time>2022-05-27T09:08:52Z</time>
      </trkpt>
      <trkpt lat="44.42927" lon="3.60559">
        <ele>1301</ele>
        <time>2022-05-27T09:08:53Z</time>
      </trkpt>
      <trkpt lat="44.42926" lon="3.60558">
        <ele>1300</ele>
        <time>2022-05-27T09:08:54Z</time>
      </trkpt>
      <trkpt lat="44.42925" lon="3.60557">
        <ele>1300</ele>
        <time>2022-05-27T09:08:55Z</time>
      </trkpt>
      <trkpt lat="44.42924" lon="3.60557">
        <ele>1299</ele>
        <time>2022-05-27T09:08:56Z</time>
      </trkpt>
      <trkpt lat="44.42923" lon="3.60556">
        <ele>1299</ele>
        <time>2022-05-27T09:08:57Z</time>
      </trkpt>
      <trkpt lat="44.42923" lon="3.60555">
        <ele>1299</ele>
        <time>2022-05-27T09:08:58Z</time>
      </trkpt>
      <trkpt lat="44.42922" lon="3.60553">
        <ele>1298</ele>
        <time>2022-05-27T09:08:59Z</time>
      </trkpt>
      <trkpt lat="44.42921" lon="3.60552">
        <ele>1298</ele>
        <time>2022-05-27T09:09:00Z</time>
      </trkpt>
      <trkpt lat="44.4292" lon="3.6055">
        <ele>1298</ele>
        <time>2022-05-27T09:09:01Z</time>
      </trkpt>
      <trkpt lat="44.4292" lon="3.60549">
        <ele>1298</ele>
        <time>2022-05-27T09:09:02Z</time>
      </trkpt>
      <trkpt lat="44.42918" lon="3.60547">
        <ele>1299</ele>
        <time>2022-05-27T09:09:03Z</time>
      </trkpt>
      <trkpt lat="44.42918" lon="3.60546">
        <ele>1299</ele>
        <time>2022-05-27T09:09:04Z</time>
      </trkpt>
      <trkpt lat="44.42917" lon="3.60544">
        <ele>1299</ele>
        <time>2022-05-27T09:09:05Z</time>
      </trkpt>
      <trkpt lat="44.42916" lon="3.60543">
        <ele>1299</ele>
        <time>2022-05-27T09:09:06Z</time>
      </trkpt>
      <trkpt lat="44.42915" lon="3.60541">
        <ele>1298</ele>
        <time>2022-05-27T09:09:07Z</time>
      </trkpt>
      <trkpt lat="44.42914" lon="3.6054">
        <ele>1298</ele>
        <time>2022-05-27T09:09:08Z</time>
      </trkpt>
      <trkpt lat="44.42913" lon="3.60539">
        <ele>1298</ele>
        <time>2022-05-27T09:09:09Z</time>
      </trkpt>
      <trkpt lat="44.42912" lon="3.60537">
        <ele>1298</ele>
        <time>2022-05-27T09:09:10Z</time>
      </trkpt>
      <trkpt lat="44.42911" lon="3.60536">
        <ele>1298</ele>
        <time>2022-05-27T09:09:11Z</time>
      </trkpt>
      <trkpt lat="44.4291" lon="3.60534">
        <ele>1298</ele>
        <time>2022-05-27T09:09:12Z</time>
      </trkpt>
      <trkpt lat="44.42909" lon="3.60533">
        <ele>1298</ele>
        <time>2022-05-27T09:09:13Z</time>
      </trkpt>
      <trkpt lat="44.42908" lon="3.60532">
        <ele>1297</ele>
        <time>2022-05-27T09:09:14Z</time>
      </trkpt>
      <trkpt lat="44.42907" lon="3.6053">
        <ele>1297</ele>
        <time>2022-05-27T09:09:15Z</time>
      </trkpt>
      <trkpt lat="44.42906" lon="3.60529">
        <ele>1297</ele>
        <time>2022-05-27T09:09:16Z</time>
      </trkpt>
      <trkpt lat="44.42905" lon="3.60528">
        <ele>1297</ele>
        <time>2022-05-27T09:09:17Z</time>
      </trkpt>
      <trkpt lat="44.42904" lon="3.60526">
        <ele>1297</ele>
        <time>2022-05-27T09:09:18Z</time>
      </trkpt>
      <trkpt lat="44.42903" lon="3.60524">
        <ele>1297</ele>
        <time>2022-05-27T09:09:19Z</time>
      </trkpt>
      <trkpt lat="44.42902" lon="3.60523">
        <ele>1297</ele>
        <time>2022-05-27T09:09:20Z</time>
      </trkpt>
      <trkpt lat="44.42902" lon="3.60522">
        <ele>1297</ele>
        <time>2022-05-27T09:09:21Z</time>
      </trkpt>
      <trkpt lat="44.42901" lon="3.60521">
        <ele>1298</ele>
        <time>2022-05-27T09:09:22Z</time>
      </trkpt>
      <trkpt lat="44.429" lon="3.6052">
        <ele>1298</ele>
        <time>2022-05-27T09:09:23Z</time>
      </trkpt>
      <trkpt lat="44.42899" lon="3.60519">
        <ele>1298</ele>
        <time>2022-05-27T09:09:24Z</time>
      </trkpt>
      <trkpt lat="44.42899" lon="3.60518">
        <ele>1298</ele>
        <time>2022-05-27T09:09:25Z</time>
      </trkpt>
      <trkpt lat="44.42898" lon="3.60517">
        <ele>1297</ele>
        <time>2022-05-27T09:09:26Z</time>
      </trkpt>
      <trkpt lat="44.42897" lon="3.60516">
        <ele>1297</ele>
        <time>2022-05-27T09:09:27Z</time>
      </trkpt>
      <trkpt lat="44.42897" lon="3.60516">
        <ele>1297</ele>
        <time>2022-05-27T09:09:28Z</time>
      </trkpt>
      <trkpt lat="44.42896" lon="3.60515">
        <ele>1297</ele>
        <time>2022-05-27T09:09:29Z</time>
      </trkpt>
      <trkpt lat="44.42896" lon="3.60514">
        <ele>1296</ele>
        <time>2022-05-27T09:09:30Z</time>
      </trkpt>
      <trkpt lat="44.42895" lon="3.60514">
        <ele>1296</ele>
        <time>2022-05-27T09:09:31Z</time>
      </trkpt>
      <trkpt lat="44.42894" lon="3.60513">
        <ele>1296</ele>
        <time>2022-05-27T09:09:32Z</time>
      </trkpt>
      <trkpt lat="44.42894" lon="3.60512">
        <ele>1296</ele>
        <time>2022-05-27T09:09:33Z</time>
      </trkpt>
      <trkpt lat="44.42893" lon="3.60512">
        <ele>1296</ele>
        <time>2022-05-27T09:09:34Z</time>
      </trkpt>
      <trkpt lat="44.42893" lon="3.60511">
        <ele>1296</ele>
        <time>2022-05-27T09:09:35Z</time>
      </trkpt>
      <trkpt lat="44.42892" lon="3.60511">
        <ele>1296</ele>
        <time>2022-05-27T09:09:36Z</time>
      </trkpt>
      <trkpt lat="44.42891" lon="3.60511">
        <ele>1295</ele>
        <time>2022-05-27T09:09:37Z</time>
      </trkpt>
      <trkpt lat="44.42891" lon="3.6051">
        <ele>1295</ele>
        <time>2022-05-27T09:09:38Z</time>
      </trkpt>
      <trkpt lat="44.42891" lon="3.6051">
        <ele>1295</ele>
        <time>2022-05-27T09:09:39Z</time>
      </trkpt>
      <trkpt lat="44.42889" lon="3.6051">
        <ele>1294</ele>
        <time>2022-05-27T09:09:40Z</time>
      </trkpt>
      <trkpt lat="44.42889" lon="3.60509">
        <ele>1294</ele>
        <time>2022-05-27T09:09:41Z</time>
      </trkpt>
      <trkpt lat="44.42888" lon="3.60508">
        <ele>1294</ele>
        <time>2022-05-27T09:09:42Z</time>
      </trkpt>
      <trkpt lat="44.42888" lon="3.60507">
        <ele>1294</ele>
        <time>2022-05-27T09:09:43Z</time>
      </trkpt>
      <trkpt lat="44.42886" lon="3.60506">
        <ele>1294</ele>
        <time>2022-05-27T09:09:44Z</time>
      </trkpt>
      <trkpt lat="44.42886" lon="3.60505">
        <ele>1294</ele>
        <time>2022-05-27T09:09:45Z</time>
      </trkpt>
      <trkpt lat="44.42886" lon="3.60504">
        <ele>1293</ele>
        <time>2022-05-27T09:09:46Z</time>
      </trkpt>
      <trkpt lat="44.42885" lon="3.60504">
        <ele>1292</ele>
        <time>2022-05-27T09:09:47Z</time>
      </trkpt>
      <trkpt lat="44.42885" lon="3.60504">
        <ele>1292</ele>
        <time>2022-05-27T09:09:48Z</time>
      </trkpt>
      <trkpt lat="44.42885" lon="3.60504">
        <ele>1292</ele>
        <time>2022-05-27T09:09:49Z</time>
      </trkpt>
      <trkpt lat="44.42884" lon="3.60502">
        <ele>1291</ele>
        <time>2022-05-27T09:09:50Z</time>
      </trkpt>
      <trkpt lat="44.42883" lon="3.60501">
        <ele>1292</ele>
        <time>2022-05-27T09:09:51Z</time>
      </trkpt>
      <trkpt lat="44.42882" lon="3.60501">
        <ele>1292</ele>
        <time>2022-05-27T09:09:52Z</time>
      </trkpt>
      <trkpt lat="44.42881" lon="3.605">
        <ele>1292</ele>
        <time>2022-05-27T09:09:53Z</time>
      </trkpt>
      <trkpt lat="44.4288" lon="3.60499">
        <ele>1292</ele>
        <time>2022-05-27T09:09:54Z</time>
      </trkpt>
      <trkpt lat="44.4288" lon="3.60499">
        <ele>1291</ele>
        <time>2022-05-27T09:09:55Z</time>
      </trkpt>
      <trkpt lat="44.42878" lon="3.60498">
        <ele>1292</ele>
        <time>2022-05-27T09:09:56Z</time>
      </trkpt>
      <trkpt lat="44.42877" lon="3.60497">
        <ele>1291</ele>
        <time>2022-05-27T09:09:57Z</time>
      </trkpt>
      <trkpt lat="44.42876" lon="3.60496">
        <ele>1291</ele>
        <time>2022-05-27T09:09:58Z</time>
      </trkpt>
      <trkpt lat="44.42875" lon="3.60495">
        <ele>1291</ele>
        <time>2022-05-27T09:09:59Z</time>
      </trkpt>
      <trkpt lat="44.42875" lon="3.60495">
        <ele>1290</ele>
        <time>2022-05-27T09:10:00Z</time>
      </trkpt>
      <trkpt lat="44.42873" lon="3.60494">
        <ele>1290</ele>
        <time>2022-05-27T09:10:01Z</time>
      </trkpt>
      <trkpt lat="44.42873" lon="3.60493">
        <ele>1290</ele>
        <time>2022-05-27T09:10:02Z</time>
      </trkpt>
      <trkpt lat="44.42872" lon="3.60492">
        <ele>1290</ele>
        <time>2022-05-27T09:10:03Z</time>
      </trkpt>
      <trkpt lat="44.42871" lon="3.60491">
        <ele>1290</ele>
        <time>2022-05-27T09:10:04Z</time>
      </trkpt>
      <trkpt lat="44.4287" lon="3.60491">
        <ele>1290</ele>
        <time>2022-05-27T09:10:05Z</time>
      </trkpt>
      <trkpt lat="44.4287" lon="3.6049">
        <ele>1290</ele>
        <time>2022-05-27T09:10:06Z</time>
      </trkpt>
      <trkpt lat="44.42869" lon="3.6049">
        <ele>1290</ele>
        <time>2022-05-27T09:10:07Z</time>
      </trkpt>
      <trkpt lat="44.42869" lon="3.6049">
        <ele>1290</ele>
        <time>2022-05-27T09:10:08Z</time>
      </trkpt>
      <trkpt lat="44.42869" lon="3.6049">
        <ele>1290</ele>
        <time>2022-05-27T09:10:09Z</time>
      </trkpt>
      <trkpt lat="44.42867" lon="3.60488">
        <ele>1290</ele>
        <time>2022-05-27T09:10:10Z</time>
      </trkpt>
      <trkpt lat="44.42866" lon="3.60487">
        <ele>1290</ele>
        <time>2022-05-27T09:10:11Z</time>
      </trkpt>
      <trkpt lat="44.42865" lon="3.60486">
        <ele>1289</ele>
        <time>2022-05-27T09:10:12Z</time>
      </trkpt>
      <trkpt lat="44.42865" lon="3.60485">
        <ele>1289</ele>
        <time>2022-05-27T09:10:13Z</time>
      </trkpt>
      <trkpt lat="44.42865" lon="3.60485">
        <ele>1289</ele>
        <time>2022-05-27T09:10:14Z</time>
      </trkpt>
      <trkpt lat="44.42864" lon="3.60484">
        <ele>1289</ele>
        <time>2022-05-27T09:10:15Z</time>
      </trkpt>
      <trkpt lat="44.42863" lon="3.60483">
        <ele>1289</ele>
        <time>2022-05-27T09:10:16Z</time>
      </trkpt>
      <trkpt lat="44.42862" lon="3.60482">
        <ele>1289</ele>
        <time>2022-05-27T09:10:17Z</time>
      </trkpt>
      <trkpt lat="44.42861" lon="3.60482">
        <ele>1288</ele>
        <time>2022-05-27T09:10:18Z</time>
      </trkpt>
      <trkpt lat="44.4286" lon="3.60481">
        <ele>1288</ele>
        <time>2022-05-27T09:10:19Z</time>
      </trkpt>
      <trkpt lat="44.42859" lon="3.60481">
        <ele>1288</ele>
        <time>2022-05-27T09:10:20Z</time>
      </trkpt>
      <trkpt lat="44.42858" lon="3.6048">
        <ele>1287</ele>
        <time>2022-05-27T09:10:21Z</time>
      </trkpt>
      <trkpt lat="44.42857" lon="3.60479">
        <ele>1287</ele>
        <time>2022-05-27T09:10:22Z</time>
      </trkpt>
      <trkpt lat="44.42856" lon="3.60478">
        <ele>1286</ele>
        <time>2022-05-27T09:10:23Z</time>
      </trkpt>
      <trkpt lat="44.42854" lon="3.60477">
        <ele>1286</ele>
        <time>2022-05-27T09:10:24Z</time>
      </trkpt>
      <trkpt lat="44.42853" lon="3.60476">
        <ele>1285</ele>
        <time>2022-05-27T09:10:25Z</time>
      </trkpt>
      <trkpt lat="44.42852" lon="3.60475">
        <ele>1285</ele>
        <time>2022-05-27T09:10:26Z</time>
      </trkpt>
      <trkpt lat="44.42851" lon="3.60474">
        <ele>1285</ele>
        <time>2022-05-27T09:10:27Z</time>
      </trkpt>
      <trkpt lat="44.42849" lon="3.60473">
        <ele>1285</ele>
        <time>2022-05-27T09:10:28Z</time>
      </trkpt>
      <trkpt lat="44.42849" lon="3.60472">
        <ele>1284</ele>
        <time>2022-05-27T09:10:29Z</time>
      </trkpt>
      <trkpt lat="44.42847" lon="3.60471">
        <ele>1285</ele>
        <time>2022-05-27T09:10:30Z</time>
      </trkpt>
      <trkpt lat="44.42847" lon="3.6047">
        <ele>1285</ele>
        <time>2022-05-27T09:10:31Z</time>
      </trkpt>
      <trkpt lat="44.42846" lon="3.6047">
        <ele>1285</ele>
        <time>2022-05-27T09:10:32Z</time>
      </trkpt>
      <trkpt lat="44.42844" lon="3.6047">
        <ele>1286</ele>
        <time>2022-05-27T09:10:33Z</time>
      </trkpt>
      <trkpt lat="44.42843" lon="3.60469">
        <ele>1286</ele>
        <time>2022-05-27T09:10:34Z</time>
      </trkpt>
      <trkpt lat="44.42843" lon="3.60469">
        <ele>1285</ele>
        <time>2022-05-27T09:10:35Z</time>
      </trkpt>
      <trkpt lat="44.42841" lon="3.60469">
        <ele>1285</ele>
        <time>2022-05-27T09:10:36Z</time>
      </trkpt>
      <trkpt lat="44.4284" lon="3.60468">
        <ele>1285</ele>
        <time>2022-05-27T09:10:37Z</time>
      </trkpt>
      <trkpt lat="44.42839" lon="3.60468">
        <ele>1285</ele>
        <time>2022-05-27T09:10:38Z</time>
      </trkpt>
      <trkpt lat="44.42839" lon="3.60467">
        <ele>1285</ele>
        <time>2022-05-27T09:10:39Z</time>
      </trkpt>
      <trkpt lat="44.42838" lon="3.60466">
        <ele>1285</ele>
        <time>2022-05-27T09:10:40Z</time>
      </trkpt>
      <trkpt lat="44.42837" lon="3.60465">
        <ele>1285</ele>
        <time>2022-05-27T09:10:41Z</time>
      </trkpt>
      <trkpt lat="44.42835" lon="3.60465">
        <ele>1285</ele>
        <time>2022-05-27T09:10:42Z</time>
      </trkpt>
      <trkpt lat="44.42834" lon="3.60464">
        <ele>1284</ele>
        <time>2022-05-27T09:10:43Z</time>
      </trkpt>
      <trkpt lat="44.42833" lon="3.60464">
        <ele>1284</ele>
        <time>2022-05-27T09:10:44Z</time>
      </trkpt>
      <trkpt lat="44.42832" lon="3.60464">
        <ele>1283</ele>
        <time>2022-05-27T09:10:45Z</time>
      </trkpt>
      <trkpt lat="44.42831" lon="3.60463">
        <ele>1283</ele>
        <time>2022-05-27T09:10:46Z</time>
      </trkpt>
      <trkpt lat="44.4283" lon="3.60463">
        <ele>1283</ele>
        <time>2022-05-27T09:10:47Z</time>
      </trkpt>
      <trkpt lat="44.42829" lon="3.60462">
        <ele>1283</ele>
        <time>2022-05-27T09:10:48Z</time>
      </trkpt>
      <trkpt lat="44.42828" lon="3.60461">
        <ele>1283</ele>
        <time>2022-05-27T09:10:49Z</time>
      </trkpt>
      <trkpt lat="44.42827" lon="3.60461">
        <ele>1283</ele>
        <time>2022-05-27T09:10:50Z</time>
      </trkpt>
      <trkpt lat="44.42826" lon="3.6046">
        <ele>1283</ele>
        <time>2022-05-27T09:10:51Z</time>
      </trkpt>
      <trkpt lat="44.42825" lon="3.60459">
        <ele>1283</ele>
        <time>2022-05-27T09:10:52Z</time>
      </trkpt>
      <trkpt lat="44.42824" lon="3.60459">
        <ele>1283</ele>
        <time>2022-05-27T09:10:53Z</time>
      </trkpt>
      <trkpt lat="44.42823" lon="3.60458">
        <ele>1283</ele>
        <time>2022-05-27T09:10:54Z</time>
      </trkpt>
      <trkpt lat="44.42822" lon="3.60458">
        <ele>1282</ele>
        <time>2022-05-27T09:10:55Z</time>
      </trkpt>
      <trkpt lat="44.42822" lon="3.60458">
        <ele>1282</ele>
        <time>2022-05-27T09:10:56Z</time>
      </trkpt>
      <trkpt lat="44.42822" lon="3.60458">
        <ele>1282</ele>
        <time>2022-05-27T09:10:57Z</time>
      </trkpt>
      <trkpt lat="44.42819" lon="3.60457">
        <ele>1281</ele>
        <time>2022-05-27T09:10:58Z</time>
      </trkpt>
      <trkpt lat="44.42819" lon="3.60456">
        <ele>1280</ele>
        <time>2022-05-27T09:10:59Z</time>
      </trkpt>
      <trkpt lat="44.42817" lon="3.60455">
        <ele>1280</ele>
        <time>2022-05-27T09:11:00Z</time>
      </trkpt>
      <trkpt lat="44.42816" lon="3.60455">
        <ele>1280</ele>
        <time>2022-05-27T09:11:01Z</time>
      </trkpt>
      <trkpt lat="44.42815" lon="3.60454">
        <ele>1280</ele>
        <time>2022-05-27T09:11:02Z</time>
      </trkpt>
      <trkpt lat="44.42815" lon="3.60454">
        <ele>1280</ele>
        <time>2022-05-27T09:11:03Z</time>
      </trkpt>
      <trkpt lat="44.42814" lon="3.60453">
        <ele>1279</ele>
        <time>2022-05-27T09:11:04Z</time>
      </trkpt>
      <trkpt lat="44.42814" lon="3.60453">
        <ele>1279</ele>
        <time>2022-05-27T09:11:05Z</time>
      </trkpt>
      <trkpt lat="44.42814" lon="3.60453">
        <ele>1279</ele>
        <time>2022-05-27T09:11:06Z</time>
      </trkpt>
      <trkpt lat="44.4281" lon="3.60453">
        <ele>1279</ele>
        <time>2022-05-27T09:11:07Z</time>
      </trkpt>
      <trkpt lat="44.4281" lon="3.60453">
        <ele>1279</ele>
        <time>2022-05-27T09:11:08Z</time>
      </trkpt>
      <trkpt lat="44.42809" lon="3.60453">
        <ele>1279</ele>
        <time>2022-05-27T09:11:09Z</time>
      </trkpt>
      <trkpt lat="44.42807" lon="3.60453">
        <ele>1280</ele>
        <time>2022-05-27T09:11:10Z</time>
      </trkpt>
      <trkpt lat="44.42806" lon="3.60453">
        <ele>1280</ele>
        <time>2022-05-27T09:11:11Z</time>
      </trkpt>
      <trkpt lat="44.42804" lon="3.60453">
        <ele>1280</ele>
        <time>2022-05-27T09:11:12Z</time>
      </trkpt>
      <trkpt lat="44.42803" lon="3.60453">
        <ele>1281</ele>
        <time>2022-05-27T09:11:13Z</time>
      </trkpt>
      <trkpt lat="44.42802" lon="3.60454">
        <ele>1281</ele>
        <time>2022-05-27T09:11:14Z</time>
      </trkpt>
      <trkpt lat="44.42802" lon="3.60454">
        <ele>1280</ele>
        <time>2022-05-27T09:11:15Z</time>
      </trkpt>
      <trkpt lat="44.42802" lon="3.60454">
        <ele>1280</ele>
        <time>2022-05-27T09:11:16Z</time>
      </trkpt>
      <trkpt lat="44.42802" lon="3.60454">
        <ele>1280</ele>
        <time>2022-05-27T09:11:17Z</time>
      </trkpt>
      <trkpt lat="44.428" lon="3.60454">
        <ele>1278</ele>
        <time>2022-05-27T09:11:18Z</time>
      </trkpt>
      <trkpt lat="44.42799" lon="3.60454">
        <ele>1278</ele>
        <time>2022-05-27T09:11:19Z</time>
      </trkpt>
      <trkpt lat="44.42798" lon="3.60454">
        <ele>1278</ele>
        <time>2022-05-27T09:11:20Z</time>
      </trkpt>
      <trkpt lat="44.42797" lon="3.60453">
        <ele>1278</ele>
        <time>2022-05-27T09:11:21Z</time>
      </trkpt>
      <trkpt lat="44.42796" lon="3.60452">
        <ele>1278</ele>
        <time>2022-05-27T09:11:22Z</time>
      </trkpt>
      <trkpt lat="44.42795" lon="3.60451">
        <ele>1278</ele>
        <time>2022-05-27T09:11:23Z</time>
      </trkpt>
      <trkpt lat="44.42794" lon="3.6045">
        <ele>1278</ele>
        <time>2022-05-27T09:11:24Z</time>
      </trkpt>
      <trkpt lat="44.42793" lon="3.60449">
        <ele>1279</ele>
        <time>2022-05-27T09:11:25Z</time>
      </trkpt>
      <trkpt lat="44.42792" lon="3.60448">
        <ele>1279</ele>
        <time>2022-05-27T09:11:26Z</time>
      </trkpt>
      <trkpt lat="44.42791" lon="3.60447">
        <ele>1280</ele>
        <time>2022-05-27T09:11:27Z</time>
      </trkpt>
      <trkpt lat="44.42791" lon="3.60447">
        <ele>1279</ele>
        <time>2022-05-27T09:11:28Z</time>
      </trkpt>
      <trkpt lat="44.4279" lon="3.60446">
        <ele>1279</ele>
        <time>2022-05-27T09:11:29Z</time>
      </trkpt>
      <trkpt lat="44.4279" lon="3.60446">
        <ele>1279</ele>
        <time>2022-05-27T09:11:30Z</time>
      </trkpt>
      <trkpt lat="44.4279" lon="3.60446">
        <ele>1279</ele>
        <time>2022-05-27T09:11:31Z</time>
      </trkpt>
      <trkpt lat="44.42788" lon="3.60446">
        <ele>1278</ele>
        <time>2022-05-27T09:11:32Z</time>
      </trkpt>
      <trkpt lat="44.42788" lon="3.60444">
        <ele>1278</ele>
        <time>2022-05-27T09:11:33Z</time>
      </trkpt>
      <trkpt lat="44.42788" lon="3.60443">
        <ele>1278</ele>
        <time>2022-05-27T09:11:34Z</time>
      </trkpt>
      <trkpt lat="44.42787" lon="3.60441">
        <ele>1277</ele>
        <time>2022-05-27T09:11:35Z</time>
      </trkpt>
      <trkpt lat="44.42786" lon="3.6044">
        <ele>1277</ele>
        <time>2022-05-27T09:11:36Z</time>
      </trkpt>
      <trkpt lat="44.42786" lon="3.60439">
        <ele>1277</ele>
        <time>2022-05-27T09:11:37Z</time>
      </trkpt>
      <trkpt lat="44.42786" lon="3.60439">
        <ele>1277</ele>
        <time>2022-05-27T09:11:38Z</time>
      </trkpt>
      <trkpt lat="44.42785" lon="3.60438">
        <ele>1277</ele>
        <time>2022-05-27T09:11:39Z</time>
      </trkpt>
      <trkpt lat="44.42785" lon="3.60438">
        <ele>1277</ele>
        <time>2022-05-27T09:11:40Z</time>
      </trkpt>
      <trkpt lat="44.42783" lon="3.60436">
        <ele>1276</ele>
        <time>2022-05-27T09:11:41Z</time>
      </trkpt>
      <trkpt lat="44.42783" lon="3.60436">
        <ele>1276</ele>
        <time>2022-05-27T09:11:42Z</time>
      </trkpt>
      <trkpt lat="44.42782" lon="3.60436">
        <ele>1277</ele>
        <time>2022-05-27T09:11:43Z</time>
      </trkpt>
      <trkpt lat="44.42781" lon="3.60434">
        <ele>1276</ele>
        <time>2022-05-27T09:11:44Z</time>
      </trkpt>
      <trkpt lat="44.42781" lon="3.60434">
        <ele>1276</ele>
        <time>2022-05-27T09:11:45Z</time>
      </trkpt>
      <trkpt lat="44.42781" lon="3.60434">
        <ele>1276</ele>
        <time>2022-05-27T09:11:46Z</time>
      </trkpt>
      <trkpt lat="44.42779" lon="3.60432">
        <ele>1274</ele>
        <time>2022-05-27T09:11:47Z</time>
      </trkpt>
      <trkpt lat="44.42778" lon="3.6043">
        <ele>1273</ele>
        <time>2022-05-27T09:11:48Z</time>
      </trkpt>
      <trkpt lat="44.42777" lon="3.60429">
        <ele>1273</ele>
        <time>2022-05-27T09:11:49Z</time>
      </trkpt>
      <trkpt lat="44.42776" lon="3.60428">
        <ele>1273</ele>
        <time>2022-05-27T09:11:50Z</time>
      </trkpt>
      <trkpt lat="44.42776" lon="3.60428">
        <ele>1273</ele>
        <time>2022-05-27T09:11:51Z</time>
      </trkpt>
      <trkpt lat="44.42776" lon="3.60428">
        <ele>1273</ele>
        <time>2022-05-27T09:11:52Z</time>
      </trkpt>
      <trkpt lat="44.42773" lon="3.60426">
        <ele>1273</ele>
        <time>2022-05-27T09:11:53Z</time>
      </trkpt>
      <trkpt lat="44.42773" lon="3.60425">
        <ele>1272</ele>
        <time>2022-05-27T09:11:54Z</time>
      </trkpt>
      <trkpt lat="44.42772" lon="3.60424">
        <ele>1272</ele>
        <time>2022-05-27T09:11:55Z</time>
      </trkpt>
      <trkpt lat="44.4277" lon="3.60422">
        <ele>1272</ele>
        <time>2022-05-27T09:11:56Z</time>
      </trkpt>
      <trkpt lat="44.42769" lon="3.60421">
        <ele>1271</ele>
        <time>2022-05-27T09:11:57Z</time>
      </trkpt>
      <trkpt lat="44.42768" lon="3.60419">
        <ele>1271</ele>
        <time>2022-05-27T09:11:58Z</time>
      </trkpt>
      <trkpt lat="44.42767" lon="3.60418">
        <ele>1271</ele>
        <time>2022-05-27T09:11:59Z</time>
      </trkpt>
      <trkpt lat="44.42766" lon="3.60417">
        <ele>1271</ele>
        <time>2022-05-27T09:12:00Z</time>
      </trkpt>
      <trkpt lat="44.42765" lon="3.60416">
        <ele>1271</ele>
        <time>2022-05-27T09:12:01Z</time>
      </trkpt>
      <trkpt lat="44.42764" lon="3.60415">
        <ele>1271</ele>
        <time>2022-05-27T09:12:02Z</time>
      </trkpt>
      <trkpt lat="44.42763" lon="3.60414">
        <ele>1271</ele>
        <time>2022-05-27T09:12:03Z</time>
      </trkpt>
      <trkpt lat="44.42762" lon="3.60413">
        <ele>1271</ele>
        <time>2022-05-27T09:12:04Z</time>
      </trkpt>
      <trkpt lat="44.42761" lon="3.60412">
        <ele>1271</ele>
        <time>2022-05-27T09:12:05Z</time>
      </trkpt>
      <trkpt lat="44.42761" lon="3.6041">
        <ele>1271</ele>
        <time>2022-05-27T09:12:06Z</time>
      </trkpt>
      <trkpt lat="44.4276" lon="3.60409">
        <ele>1271</ele>
        <time>2022-05-27T09:12:07Z</time>
      </trkpt>
      <trkpt lat="44.42759" lon="3.60408">
        <ele>1271</ele>
        <time>2022-05-27T09:12:08Z</time>
      </trkpt>
      <trkpt lat="44.42758" lon="3.60407">
        <ele>1271</ele>
        <time>2022-05-27T09:12:09Z</time>
      </trkpt>
      <trkpt lat="44.42758" lon="3.60406">
        <ele>1271</ele>
        <time>2022-05-27T09:12:10Z</time>
      </trkpt>
      <trkpt lat="44.42757" lon="3.60404">
        <ele>1271</ele>
        <time>2022-05-27T09:12:11Z</time>
      </trkpt>
      <trkpt lat="44.42756" lon="3.60403">
        <ele>1271</ele>
        <time>2022-05-27T09:12:12Z</time>
      </trkpt>
      <trkpt lat="44.42756" lon="3.60402">
        <ele>1271</ele>
        <time>2022-05-27T09:12:13Z</time>
      </trkpt>
      <trkpt lat="44.42755" lon="3.60401">
        <ele>1271</ele>
        <time>2022-05-27T09:12:14Z</time>
      </trkpt>
      <trkpt lat="44.42754" lon="3.604">
        <ele>1271</ele>
        <time>2022-05-27T09:12:15Z</time>
      </trkpt>
      <trkpt lat="44.42754" lon="3.604">
        <ele>1271</ele>
        <time>2022-05-27T09:12:16Z</time>
      </trkpt>
      <trkpt lat="44.42753" lon="3.604">
        <ele>1270</ele>
        <time>2022-05-27T09:12:17Z</time>
      </trkpt>
      <trkpt lat="44.42752" lon="3.60398">
        <ele>1270</ele>
        <time>2022-05-27T09:12:18Z</time>
      </trkpt>
      <trkpt lat="44.42751" lon="3.60397">
        <ele>1270</ele>
        <time>2022-05-27T09:12:19Z</time>
      </trkpt>
      <trkpt lat="44.42749" lon="3.60396">
        <ele>1270</ele>
        <time>2022-05-27T09:12:20Z</time>
      </trkpt>
      <trkpt lat="44.42749" lon="3.60394">
        <ele>1270</ele>
        <time>2022-05-27T09:12:21Z</time>
      </trkpt>
      <trkpt lat="44.42749" lon="3.60394">
        <ele>1270</ele>
        <time>2022-05-27T09:12:22Z</time>
      </trkpt>
      <trkpt lat="44.42748" lon="3.60393">
        <ele>1270</ele>
        <time>2022-05-27T09:12:23Z</time>
      </trkpt>
      <trkpt lat="44.42746" lon="3.60391">
        <ele>1270</ele>
        <time>2022-05-27T09:12:24Z</time>
      </trkpt>
      <trkpt lat="44.42745" lon="3.6039">
        <ele>1270</ele>
        <time>2022-05-27T09:12:25Z</time>
      </trkpt>
      <trkpt lat="44.42744" lon="3.60389">
        <ele>1270</ele>
        <time>2022-05-27T09:12:26Z</time>
      </trkpt>
      <trkpt lat="44.42743" lon="3.60388">
        <ele>1269</ele>
        <time>2022-05-27T09:12:27Z</time>
      </trkpt>
      <trkpt lat="44.42742" lon="3.60387">
        <ele>1269</ele>
        <time>2022-05-27T09:12:28Z</time>
      </trkpt>
      <trkpt lat="44.42741" lon="3.60387">
        <ele>1268</ele>
        <time>2022-05-27T09:12:29Z</time>
      </trkpt>
      <trkpt lat="44.4274" lon="3.60385">
        <ele>1268</ele>
        <time>2022-05-27T09:12:30Z</time>
      </trkpt>
      <trkpt lat="44.42739" lon="3.60385">
        <ele>1267</ele>
        <time>2022-05-27T09:12:31Z</time>
      </trkpt>
      <trkpt lat="44.42738" lon="3.60384">
        <ele>1267</ele>
        <time>2022-05-27T09:12:32Z</time>
      </trkpt>
      <trkpt lat="44.42737" lon="3.60382">
        <ele>1267</ele>
        <time>2022-05-27T09:12:33Z</time>
      </trkpt>
      <trkpt lat="44.42736" lon="3.60381">
        <ele>1267</ele>
        <time>2022-05-27T09:12:34Z</time>
      </trkpt>
      <trkpt lat="44.42736" lon="3.60381">
        <ele>1266</ele>
        <time>2022-05-27T09:12:35Z</time>
      </trkpt>
      <trkpt lat="44.42735" lon="3.6038">
        <ele>1265</ele>
        <time>2022-05-27T09:12:36Z</time>
      </trkpt>
      <trkpt lat="44.42734" lon="3.60379">
        <ele>1264</ele>
        <time>2022-05-27T09:12:37Z</time>
      </trkpt>
      <trkpt lat="44.42733" lon="3.60378">
        <ele>1264</ele>
        <time>2022-05-27T09:12:38Z</time>
      </trkpt>
      <trkpt lat="44.42732" lon="3.60377">
        <ele>1265</ele>
        <time>2022-05-27T09:12:39Z</time>
      </trkpt>
      <trkpt lat="44.42731" lon="3.60376">
        <ele>1265</ele>
        <time>2022-05-27T09:12:40Z</time>
      </trkpt>
      <trkpt lat="44.4273" lon="3.60376">
        <ele>1264</ele>
        <time>2022-05-27T09:12:41Z</time>
      </trkpt>
      <trkpt lat="44.42729" lon="3.60375">
        <ele>1265</ele>
        <time>2022-05-27T09:12:42Z</time>
      </trkpt>
      <trkpt lat="44.42728" lon="3.60374">
        <ele>1264</ele>
        <time>2022-05-27T09:12:43Z</time>
      </trkpt>
      <trkpt lat="44.42727" lon="3.60373">
        <ele>1264</ele>
        <time>2022-05-27T09:12:44Z</time>
      </trkpt>
      <trkpt lat="44.42726" lon="3.60372">
        <ele>1264</ele>
        <time>2022-05-27T09:12:45Z</time>
      </trkpt>
      <trkpt lat="44.42726" lon="3.60372">
        <ele>1264</ele>
        <time>2022-05-27T09:12:46Z</time>
      </trkpt>
      <trkpt lat="44.42726" lon="3.60372">
        <ele>1264</ele>
        <time>2022-05-27T09:12:47Z</time>
      </trkpt>
      <trkpt lat="44.42726" lon="3.60372">
        <ele>1264</ele>
        <time>2022-05-27T09:12:48Z</time>
      </trkpt>
      <trkpt lat="44.42726" lon="3.60372">
        <ele>1264</ele>
        <time>2022-05-27T09:12:49Z</time>
      </trkpt>
      <trkpt lat="44.42726" lon="3.60372">
        <ele>1264</ele>
        <time>2022-05-27T09:12:50Z</time>
      </trkpt>
      <trkpt lat="44.42723" lon="3.60371">
        <ele>1264</ele>
        <time>2022-05-27T09:12:51Z</time>
      </trkpt>
      <trkpt lat="44.42722" lon="3.6037">
        <ele>1264</ele>
        <time>2022-05-27T09:12:52Z</time>
      </trkpt>
      <trkpt lat="44.42721" lon="3.60369">
        <ele>1264</ele>
        <time>2022-05-27T09:12:53Z</time>
      </trkpt>
      <trkpt lat="44.4272" lon="3.60369">
        <ele>1264</ele>
        <time>2022-05-27T09:12:54Z</time>
      </trkpt>
      <trkpt lat="44.4272" lon="3.60369">
        <ele>1264</ele>
        <time>2022-05-27T09:12:55Z</time>
      </trkpt>
      <trkpt lat="44.4272" lon="3.60369">
        <ele>1264</ele>
        <time>2022-05-27T09:12:56Z</time>
      </trkpt>
      <trkpt lat="44.42718" lon="3.60368">
        <ele>1263</ele>
        <time>2022-05-27T09:12:57Z</time>
      </trkpt>
      <trkpt lat="44.42717" lon="3.60367">
        <ele>1263</ele>
        <time>2022-05-27T09:12:58Z</time>
      </trkpt>
      <trkpt lat="44.42716" lon="3.60366">
        <ele>1263</ele>
        <time>2022-05-27T09:12:59Z</time>
      </trkpt>
      <trkpt lat="44.42715" lon="3.60365">
        <ele>1263</ele>
        <time>2022-05-27T09:13:00Z</time>
      </trkpt>
      <trkpt lat="44.42713" lon="3.60364">
        <ele>1263</ele>
        <time>2022-05-27T09:13:01Z</time>
      </trkpt>
      <trkpt lat="44.42712" lon="3.60363">
        <ele>1263</ele>
        <time>2022-05-27T09:13:02Z</time>
      </trkpt>
      <trkpt lat="44.42712" lon="3.60362">
        <ele>1263</ele>
        <time>2022-05-27T09:13:03Z</time>
      </trkpt>
      <trkpt lat="44.42711" lon="3.60361">
        <ele>1263</ele>
        <time>2022-05-27T09:13:04Z</time>
      </trkpt>
      <trkpt lat="44.42711" lon="3.6036">
        <ele>1263</ele>
        <time>2022-05-27T09:13:05Z</time>
      </trkpt>
      <trkpt lat="44.4271" lon="3.60359">
        <ele>1263</ele>
        <time>2022-05-27T09:13:06Z</time>
      </trkpt>
      <trkpt lat="44.42709" lon="3.60359">
        <ele>1263</ele>
        <time>2022-05-27T09:13:07Z</time>
      </trkpt>
      <trkpt lat="44.42709" lon="3.60359">
        <ele>1263</ele>
        <time>2022-05-27T09:13:08Z</time>
      </trkpt>
      <trkpt lat="44.42709" lon="3.60359">
        <ele>1263</ele>
        <time>2022-05-27T09:13:09Z</time>
      </trkpt>
      <trkpt lat="44.42707" lon="3.60357">
        <ele>1262</ele>
        <time>2022-05-27T09:13:10Z</time>
      </trkpt>
      <trkpt lat="44.42706" lon="3.60357">
        <ele>1262</ele>
        <time>2022-05-27T09:13:11Z</time>
      </trkpt>
      <trkpt lat="44.42706" lon="3.60357">
        <ele>1262</ele>
        <time>2022-05-27T09:13:12Z</time>
      </trkpt>
      <trkpt lat="44.42704" lon="3.60356">
        <ele>1262</ele>
        <time>2022-05-27T09:13:13Z</time>
      </trkpt>
      <trkpt lat="44.42704" lon="3.60356">
        <ele>1262</ele>
        <time>2022-05-27T09:13:14Z</time>
      </trkpt>
      <trkpt lat="44.42704" lon="3.60356">
        <ele>1262</ele>
        <time>2022-05-27T09:13:15Z</time>
      </trkpt>
      <trkpt lat="44.42702" lon="3.60355">
        <ele>1263</ele>
        <time>2022-05-27T09:13:16Z</time>
      </trkpt>
      <trkpt lat="44.42701" lon="3.60354">
        <ele>1263</ele>
        <time>2022-05-27T09:13:17Z</time>
      </trkpt>
      <trkpt lat="44.42701" lon="3.60353">
        <ele>1262</ele>
        <time>2022-05-27T09:13:18Z</time>
      </trkpt>
      <trkpt lat="44.427" lon="3.60352">
        <ele>1263</ele>
        <time>2022-05-27T09:13:19Z</time>
      </trkpt>
      <trkpt lat="44.42699" lon="3.60352">
        <ele>1263</ele>
        <time>2022-05-27T09:13:20Z</time>
      </trkpt>
      <trkpt lat="44.42699" lon="3.60351">
        <ele>1263</ele>
        <time>2022-05-27T09:13:21Z</time>
      </trkpt>
      <trkpt lat="44.42699" lon="3.60351">
        <ele>1263</ele>
        <time>2022-05-27T09:13:22Z</time>
      </trkpt>
      <trkpt lat="44.42699" lon="3.60351">
        <ele>1263</ele>
        <time>2022-05-27T09:13:23Z</time>
      </trkpt>
      <trkpt lat="44.42698" lon="3.6035">
        <ele>1263</ele>
        <time>2022-05-27T09:13:24Z</time>
      </trkpt>
      <trkpt lat="44.42697" lon="3.60349">
        <ele>1262</ele>
        <time>2022-05-27T09:13:25Z</time>
      </trkpt>
      <trkpt lat="44.42696" lon="3.60349">
        <ele>1262</ele>
        <time>2022-05-27T09:13:26Z</time>
      </trkpt>
      <trkpt lat="44.42696" lon="3.60348">
        <ele>1262</ele>
        <time>2022-05-27T09:13:27Z</time>
      </trkpt>
      <trkpt lat="44.42695" lon="3.60347">
        <ele>1262</ele>
        <time>2022-05-27T09:13:28Z</time>
      </trkpt>
      <trkpt lat="44.42694" lon="3.60346">
        <ele>1262</ele>
        <time>2022-05-27T09:13:29Z</time>
      </trkpt>
      <trkpt lat="44.42693" lon="3.60345">
        <ele>1262</ele>
        <time>2022-05-27T09:13:30Z</time>
      </trkpt>
      <trkpt lat="44.42693" lon="3.60344">
        <ele>1262</ele>
        <time>2022-05-27T09:13:31Z</time>
      </trkpt>
      <trkpt lat="44.42692" lon="3.60343">
        <ele>1262</ele>
        <time>2022-05-27T09:13:32Z</time>
      </trkpt>
      <trkpt lat="44.42691" lon="3.60341">
        <ele>1262</ele>
        <time>2022-05-27T09:13:33Z</time>
      </trkpt>
      <trkpt lat="44.42691" lon="3.6034">
        <ele>1263</ele>
        <time>2022-05-27T09:13:34Z</time>
      </trkpt>
      <trkpt lat="44.4269" lon="3.60339">
        <ele>1263</ele>
        <time>2022-05-27T09:13:35Z</time>
      </trkpt>
      <trkpt lat="44.4269" lon="3.60338">
        <ele>1263</ele>
        <time>2022-05-27T09:13:36Z</time>
      </trkpt>
      <trkpt lat="44.42689" lon="3.60338">
        <ele>1263</ele>
        <time>2022-05-27T09:13:37Z</time>
      </trkpt>
      <trkpt lat="44.42688" lon="3.60337">
        <ele>1263</ele>
        <time>2022-05-27T09:13:38Z</time>
      </trkpt>
      <trkpt lat="44.42688" lon="3.60336">
        <ele>1263</ele>
        <time>2022-05-27T09:13:39Z</time>
      </trkpt>
      <trkpt lat="44.42687" lon="3.60335">
        <ele>1263</ele>
        <time>2022-05-27T09:13:40Z</time>
      </trkpt>
      <trkpt lat="44.42686" lon="3.60334">
        <ele>1263</ele>
        <time>2022-05-27T09:13:41Z</time>
      </trkpt>
      <trkpt lat="44.42685" lon="3.60332">
        <ele>1262</ele>
        <time>2022-05-27T09:13:42Z</time>
      </trkpt>
      <trkpt lat="44.42684" lon="3.60331">
        <ele>1262</ele>
        <time>2022-05-27T09:13:43Z</time>
      </trkpt>
      <trkpt lat="44.42683" lon="3.60329">
        <ele>1261</ele>
        <time>2022-05-27T09:13:44Z</time>
      </trkpt>
      <trkpt lat="44.42682" lon="3.60328">
        <ele>1261</ele>
        <time>2022-05-27T09:13:45Z</time>
      </trkpt>
      <trkpt lat="44.42682" lon="3.60327">
        <ele>1261</ele>
        <time>2022-05-27T09:13:46Z</time>
      </trkpt>
      <trkpt lat="44.42681" lon="3.60326">
        <ele>1261</ele>
        <time>2022-05-27T09:13:47Z</time>
      </trkpt>
      <trkpt lat="44.4268" lon="3.60325">
        <ele>1261</ele>
        <time>2022-05-27T09:13:48Z</time>
      </trkpt>
      <trkpt lat="44.42679" lon="3.60324">
        <ele>1262</ele>
        <time>2022-05-27T09:13:49Z</time>
      </trkpt>
      <trkpt lat="44.42678" lon="3.60323">
        <ele>1262</ele>
        <time>2022-05-27T09:13:50Z</time>
      </trkpt>
      <trkpt lat="44.42677" lon="3.60321">
        <ele>1262</ele>
        <time>2022-05-27T09:13:51Z</time>
      </trkpt>
      <trkpt lat="44.42677" lon="3.6032">
        <ele>1262</ele>
        <time>2022-05-27T09:13:52Z</time>
      </trkpt>
      <trkpt lat="44.42676" lon="3.60319">
        <ele>1262</ele>
        <time>2022-05-27T09:13:53Z</time>
      </trkpt>
      <trkpt lat="44.42675" lon="3.60317">
        <ele>1262</ele>
        <time>2022-05-27T09:13:54Z</time>
      </trkpt>
      <trkpt lat="44.42674" lon="3.60315">
        <ele>1262</ele>
        <time>2022-05-27T09:13:55Z</time>
      </trkpt>
      <trkpt lat="44.42673" lon="3.60314">
        <ele>1261</ele>
        <time>2022-05-27T09:13:56Z</time>
      </trkpt>
      <trkpt lat="44.42672" lon="3.60313">
        <ele>1261</ele>
        <time>2022-05-27T09:13:57Z</time>
      </trkpt>
      <trkpt lat="44.42672" lon="3.60312">
        <ele>1261</ele>
        <time>2022-05-27T09:13:58Z</time>
      </trkpt>
      <trkpt lat="44.4267" lon="3.6031">
        <ele>1261</ele>
        <time>2022-05-27T09:13:59Z</time>
      </trkpt>
      <trkpt lat="44.4267" lon="3.60309">
        <ele>1261</ele>
        <time>2022-05-27T09:14:00Z</time>
      </trkpt>
      <trkpt lat="44.42669" lon="3.60308">
        <ele>1261</ele>
        <time>2022-05-27T09:14:01Z</time>
      </trkpt>
      <trkpt lat="44.42669" lon="3.60307">
        <ele>1261</ele>
        <time>2022-05-27T09:14:02Z</time>
      </trkpt>
      <trkpt lat="44.42668" lon="3.60305">
        <ele>1261</ele>
        <time>2022-05-27T09:14:03Z</time>
      </trkpt>
      <trkpt lat="44.42668" lon="3.60305">
        <ele>1261</ele>
        <time>2022-05-27T09:14:04Z</time>
      </trkpt>
      <trkpt lat="44.42667" lon="3.60304">
        <ele>1260</ele>
        <time>2022-05-27T09:14:05Z</time>
      </trkpt>
      <trkpt lat="44.42667" lon="3.60304">
        <ele>1260</ele>
        <time>2022-05-27T09:14:06Z</time>
      </trkpt>
      <trkpt lat="44.42666" lon="3.60303">
        <ele>1261</ele>
        <time>2022-05-27T09:14:07Z</time>
      </trkpt>
      <trkpt lat="44.42666" lon="3.60302">
        <ele>1261</ele>
        <time>2022-05-27T09:14:08Z</time>
      </trkpt>
      <trkpt lat="44.42666" lon="3.60301">
        <ele>1261</ele>
        <time>2022-05-27T09:14:09Z</time>
      </trkpt>
      <trkpt lat="44.42665" lon="3.60301">
        <ele>1261</ele>
        <time>2022-05-27T09:14:10Z</time>
      </trkpt>
      <trkpt lat="44.42664" lon="3.603">
        <ele>1261</ele>
        <time>2022-05-27T09:14:11Z</time>
      </trkpt>
      <trkpt lat="44.42664" lon="3.60299">
        <ele>1261</ele>
        <time>2022-05-27T09:14:12Z</time>
      </trkpt>
      <trkpt lat="44.42664" lon="3.60298">
        <ele>1261</ele>
        <time>2022-05-27T09:14:13Z</time>
      </trkpt>
      <trkpt lat="44.42664" lon="3.60297">
        <ele>1261</ele>
        <time>2022-05-27T09:14:14Z</time>
      </trkpt>
      <trkpt lat="44.42663" lon="3.60297">
        <ele>1260</ele>
        <time>2022-05-27T09:14:15Z</time>
      </trkpt>
      <trkpt lat="44.42662" lon="3.60297">
        <ele>1260</ele>
        <time>2022-05-27T09:14:16Z</time>
      </trkpt>
      <trkpt lat="44.42662" lon="3.60296">
        <ele>1259</ele>
        <time>2022-05-27T09:14:17Z</time>
      </trkpt>
      <trkpt lat="44.42661" lon="3.60295">
        <ele>1259</ele>
        <time>2022-05-27T09:14:18Z</time>
      </trkpt>
      <trkpt lat="44.4266" lon="3.60295">
        <ele>1259</ele>
        <time>2022-05-27T09:14:19Z</time>
      </trkpt>
      <trkpt lat="44.42659" lon="3.60295">
        <ele>1258</ele>
        <time>2022-05-27T09:14:20Z</time>
      </trkpt>
      <trkpt lat="44.42658" lon="3.60294">
        <ele>1258</ele>
        <time>2022-05-27T09:14:21Z</time>
      </trkpt>
      <trkpt lat="44.42658" lon="3.60293">
        <ele>1258</ele>
        <time>2022-05-27T09:14:22Z</time>
      </trkpt>
      <trkpt lat="44.42657" lon="3.60293">
        <ele>1257</ele>
        <time>2022-05-27T09:14:23Z</time>
      </trkpt>
      <trkpt lat="44.42656" lon="3.60292">
        <ele>1257</ele>
        <time>2022-05-27T09:14:24Z</time>
      </trkpt>
      <trkpt lat="44.42654" lon="3.60292">
        <ele>1256</ele>
        <time>2022-05-27T09:14:25Z</time>
      </trkpt>
      <trkpt lat="44.42654" lon="3.60292">
        <ele>1256</ele>
        <time>2022-05-27T09:14:26Z</time>
      </trkpt>
      <trkpt lat="44.42653" lon="3.60292">
        <ele>1256</ele>
        <time>2022-05-27T09:14:27Z</time>
      </trkpt>
      <trkpt lat="44.42651" lon="3.60292">
        <ele>1255</ele>
        <time>2022-05-27T09:14:28Z</time>
      </trkpt>
      <trkpt lat="44.42651" lon="3.60292">
        <ele>1255</ele>
        <time>2022-05-27T09:14:29Z</time>
      </trkpt>
      <trkpt lat="44.4265" lon="3.60292">
        <ele>1254</ele>
        <time>2022-05-27T09:14:30Z</time>
      </trkpt>
      <trkpt lat="44.42649" lon="3.60293">
        <ele>1254</ele>
        <time>2022-05-27T09:14:31Z</time>
      </trkpt>
      <trkpt lat="44.42648" lon="3.60293">
        <ele>1254</ele>
        <time>2022-05-27T09:14:32Z</time>
      </trkpt>
      <trkpt lat="44.42648" lon="3.60293">
        <ele>1253</ele>
        <time>2022-05-27T09:14:33Z</time>
      </trkpt>
      <trkpt lat="44.42646" lon="3.60293">
        <ele>1253</ele>
        <time>2022-05-27T09:14:34Z</time>
      </trkpt>
      <trkpt lat="44.42646" lon="3.60292">
        <ele>1252</ele>
        <time>2022-05-27T09:14:35Z</time>
      </trkpt>
      <trkpt lat="44.42645" lon="3.60293">
        <ele>1252</ele>
        <time>2022-05-27T09:14:36Z</time>
      </trkpt>
      <trkpt lat="44.42643" lon="3.60293">
        <ele>1252</ele>
        <time>2022-05-27T09:14:37Z</time>
      </trkpt>
      <trkpt lat="44.42642" lon="3.60293">
        <ele>1252</ele>
        <time>2022-05-27T09:14:38Z</time>
      </trkpt>
      <trkpt lat="44.42641" lon="3.60293">
        <ele>1251</ele>
        <time>2022-05-27T09:14:39Z</time>
      </trkpt>
      <trkpt lat="44.4264" lon="3.60293">
        <ele>1251</ele>
        <time>2022-05-27T09:14:40Z</time>
      </trkpt>
      <trkpt lat="44.42639" lon="3.60292">
        <ele>1251</ele>
        <time>2022-05-27T09:14:41Z</time>
      </trkpt>
      <trkpt lat="44.42638" lon="3.60292">
        <ele>1250</ele>
        <time>2022-05-27T09:14:42Z</time>
      </trkpt>
      <trkpt lat="44.42637" lon="3.60291">
        <ele>1250</ele>
        <time>2022-05-27T09:14:43Z</time>
      </trkpt>
      <trkpt lat="44.42636" lon="3.60291">
        <ele>1249</ele>
        <time>2022-05-27T09:14:44Z</time>
      </trkpt>
      <trkpt lat="44.42635" lon="3.60289">
        <ele>1250</ele>
        <time>2022-05-27T09:14:45Z</time>
      </trkpt>
      <trkpt lat="44.42633" lon="3.60288">
        <ele>1250</ele>
        <time>2022-05-27T09:14:46Z</time>
      </trkpt>
      <trkpt lat="44.42632" lon="3.60287">
        <ele>1250</ele>
        <time>2022-05-27T09:14:47Z</time>
      </trkpt>
      <trkpt lat="44.42631" lon="3.60285">
        <ele>1250</ele>
        <time>2022-05-27T09:14:48Z</time>
      </trkpt>
      <trkpt lat="44.4263" lon="3.60284">
        <ele>1250</ele>
        <time>2022-05-27T09:14:49Z</time>
      </trkpt>
      <trkpt lat="44.42629" lon="3.60282">
        <ele>1250</ele>
        <time>2022-05-27T09:14:50Z</time>
      </trkpt>
      <trkpt lat="44.42628" lon="3.6028">
        <ele>1251</ele>
        <time>2022-05-27T09:14:51Z</time>
      </trkpt>
      <trkpt lat="44.42627" lon="3.60279">
        <ele>1251</ele>
        <time>2022-05-27T09:14:52Z</time>
      </trkpt>
      <trkpt lat="44.42627" lon="3.60277">
        <ele>1251</ele>
        <time>2022-05-27T09:14:53Z</time>
      </trkpt>
      <trkpt lat="44.42626" lon="3.60274">
        <ele>1250</ele>
        <time>2022-05-27T09:14:54Z</time>
      </trkpt>
      <trkpt lat="44.42625" lon="3.60272">
        <ele>1251</ele>
        <time>2022-05-27T09:14:55Z</time>
      </trkpt>
      <trkpt lat="44.42625" lon="3.60271">
        <ele>1251</ele>
        <time>2022-05-27T09:14:56Z</time>
      </trkpt>
      <trkpt lat="44.42624" lon="3.60269">
        <ele>1250</ele>
        <time>2022-05-27T09:14:57Z</time>
      </trkpt>
      <trkpt lat="44.42624" lon="3.60267">
        <ele>1251</ele>
        <time>2022-05-27T09:14:58Z</time>
      </trkpt>
      <trkpt lat="44.42623" lon="3.60265">
        <ele>1251</ele>
        <time>2022-05-27T09:14:59Z</time>
      </trkpt>
      <trkpt lat="44.42622" lon="3.60264">
        <ele>1251</ele>
        <time>2022-05-27T09:15:00Z</time>
      </trkpt>
      <trkpt lat="44.42621" lon="3.60262">
        <ele>1251</ele>
        <time>2022-05-27T09:15:01Z</time>
      </trkpt>
      <trkpt lat="44.42621" lon="3.60261">
        <ele>1251</ele>
        <time>2022-05-27T09:15:02Z</time>
      </trkpt>
      <trkpt lat="44.4262" lon="3.60259">
        <ele>1250</ele>
        <time>2022-05-27T09:15:03Z</time>
      </trkpt>
      <trkpt lat="44.42619" lon="3.60257">
        <ele>1250</ele>
        <time>2022-05-27T09:15:04Z</time>
      </trkpt>
      <trkpt lat="44.42619" lon="3.60256">
        <ele>1250</ele>
        <time>2022-05-27T09:15:05Z</time>
      </trkpt>
      <trkpt lat="44.42618" lon="3.60255">
        <ele>1250</ele>
        <time>2022-05-27T09:15:06Z</time>
      </trkpt>
      <trkpt lat="44.42618" lon="3.60255">
        <ele>1250</ele>
        <time>2022-05-27T09:15:07Z</time>
      </trkpt>
      <trkpt lat="44.42617" lon="3.60254">
        <ele>1250</ele>
        <time>2022-05-27T09:15:08Z</time>
      </trkpt>
      <trkpt lat="44.42617" lon="3.60253">
        <ele>1250</ele>
        <time>2022-05-27T09:15:09Z</time>
      </trkpt>
      <trkpt lat="44.42617" lon="3.60252">
        <ele>1250</ele>
        <time>2022-05-27T09:15:10Z</time>
      </trkpt>
      <trkpt lat="44.42616" lon="3.60251">
        <ele>1249</ele>
        <time>2022-05-27T09:15:11Z</time>
      </trkpt>
      <trkpt lat="44.42616" lon="3.6025">
        <ele>1249</ele>
        <time>2022-05-27T09:15:12Z</time>
      </trkpt>
      <trkpt lat="44.42616" lon="3.60249">
        <ele>1248</ele>
        <time>2022-05-27T09:15:13Z</time>
      </trkpt>
      <trkpt lat="44.42615" lon="3.60248">
        <ele>1248</ele>
        <time>2022-05-27T09:15:14Z</time>
      </trkpt>
      <trkpt lat="44.42614" lon="3.60246">
        <ele>1248</ele>
        <time>2022-05-27T09:15:15Z</time>
      </trkpt>
      <trkpt lat="44.42614" lon="3.60245">
        <ele>1248</ele>
        <time>2022-05-27T09:15:16Z</time>
      </trkpt>
      <trkpt lat="44.42613" lon="3.60244">
        <ele>1248</ele>
        <time>2022-05-27T09:15:17Z</time>
      </trkpt>
      <trkpt lat="44.42613" lon="3.60243">
        <ele>1248</ele>
        <time>2022-05-27T09:15:18Z</time>
      </trkpt>
      <trkpt lat="44.42612" lon="3.60241">
        <ele>1248</ele>
        <time>2022-05-27T09:15:19Z</time>
      </trkpt>
      <trkpt lat="44.42611" lon="3.6024">
        <ele>1248</ele>
        <time>2022-05-27T09:15:20Z</time>
      </trkpt>
      <trkpt lat="44.4261" lon="3.60239">
        <ele>1249</ele>
        <time>2022-05-27T09:15:21Z</time>
      </trkpt>
      <trkpt lat="44.4261" lon="3.60237">
        <ele>1249</ele>
        <time>2022-05-27T09:15:22Z</time>
      </trkpt>
      <trkpt lat="44.42609" lon="3.60236">
        <ele>1249</ele>
        <time>2022-05-27T09:15:23Z</time>
      </trkpt>
      <trkpt lat="44.42609" lon="3.60235">
        <ele>1250</ele>
        <time>2022-05-27T09:15:24Z</time>
      </trkpt>
      <trkpt lat="44.42608" lon="3.60234">
        <ele>1249</ele>
        <time>2022-05-27T09:15:25Z</time>
      </trkpt>
      <trkpt lat="44.42608" lon="3.60233">
        <ele>1249</ele>
        <time>2022-05-27T09:15:26Z</time>
      </trkpt>
      <trkpt lat="44.42607" lon="3.60231">
        <ele>1249</ele>
        <time>2022-05-27T09:15:27Z</time>
      </trkpt>
      <trkpt lat="44.42606" lon="3.6023">
        <ele>1248</ele>
        <time>2022-05-27T09:15:28Z</time>
      </trkpt>
      <trkpt lat="44.42606" lon="3.60228">
        <ele>1248</ele>
        <time>2022-05-27T09:15:29Z</time>
      </trkpt>
      <trkpt lat="44.42605" lon="3.60228">
        <ele>1248</ele>
        <time>2022-05-27T09:15:30Z</time>
      </trkpt>
      <trkpt lat="44.42604" lon="3.60227">
        <ele>1248</ele>
        <time>2022-05-27T09:15:31Z</time>
      </trkpt>
      <trkpt lat="44.42604" lon="3.60226">
        <ele>1248</ele>
        <time>2022-05-27T09:15:32Z</time>
      </trkpt>
      <trkpt lat="44.42603" lon="3.60225">
        <ele>1248</ele>
        <time>2022-05-27T09:15:33Z</time>
      </trkpt>
      <trkpt lat="44.42603" lon="3.60225">
        <ele>1248</ele>
        <time>2022-05-27T09:15:34Z</time>
      </trkpt>
      <trkpt lat="44.42602" lon="3.60224">
        <ele>1248</ele>
        <time>2022-05-27T09:15:35Z</time>
      </trkpt>
      <trkpt lat="44.42602" lon="3.60223">
        <ele>1248</ele>
        <time>2022-05-27T09:15:36Z</time>
      </trkpt>
      <trkpt lat="44.42601" lon="3.60222">
        <ele>1248</ele>
        <time>2022-05-27T09:15:37Z</time>
      </trkpt>
      <trkpt lat="44.42601" lon="3.60221">
        <ele>1249</ele>
        <time>2022-05-27T09:15:38Z</time>
      </trkpt>
      <trkpt lat="44.426" lon="3.6022">
        <ele>1249</ele>
        <time>2022-05-27T09:15:39Z</time>
      </trkpt>
      <trkpt lat="44.426" lon="3.6022">
        <ele>1249</ele>
        <time>2022-05-27T09:15:40Z</time>
      </trkpt>
      <trkpt lat="44.426" lon="3.6022">
        <ele>1249</ele>
        <time>2022-05-27T09:15:41Z</time>
      </trkpt>
      <trkpt lat="44.426" lon="3.6022">
        <ele>1249</ele>
        <time>2022-05-27T09:15:42Z</time>
      </trkpt>
      <trkpt lat="44.42598" lon="3.60218">
        <ele>1249</ele>
        <time>2022-05-27T09:15:43Z</time>
      </trkpt>
      <trkpt lat="44.42598" lon="3.60217">
        <ele>1249</ele>
        <time>2022-05-27T09:15:44Z</time>
      </trkpt>
      <trkpt lat="44.42597" lon="3.60216">
        <ele>1249</ele>
        <time>2022-05-27T09:15:45Z</time>
      </trkpt>
      <trkpt lat="44.42596" lon="3.60214">
        <ele>1249</ele>
        <time>2022-05-27T09:15:46Z</time>
      </trkpt>
      <trkpt lat="44.42596" lon="3.60213">
        <ele>1249</ele>
        <time>2022-05-27T09:15:47Z</time>
      </trkpt>
      <trkpt lat="44.42595" lon="3.60212">
        <ele>1249</ele>
        <time>2022-05-27T09:15:48Z</time>
      </trkpt>
      <trkpt lat="44.42595" lon="3.60211">
        <ele>1249</ele>
        <time>2022-05-27T09:15:49Z</time>
      </trkpt>
      <trkpt lat="44.42595" lon="3.60209">
        <ele>1249</ele>
        <time>2022-05-27T09:15:50Z</time>
      </trkpt>
      <trkpt lat="44.42595" lon="3.60208">
        <ele>1249</ele>
        <time>2022-05-27T09:15:51Z</time>
      </trkpt>
      <trkpt lat="44.42594" lon="3.60207">
        <ele>1249</ele>
        <time>2022-05-27T09:15:52Z</time>
      </trkpt>
      <trkpt lat="44.42594" lon="3.60206">
        <ele>1250</ele>
        <time>2022-05-27T09:15:53Z</time>
      </trkpt>
      <trkpt lat="44.42594" lon="3.60206">
        <ele>1250</ele>
        <time>2022-05-27T09:15:54Z</time>
      </trkpt>
      <trkpt lat="44.42594" lon="3.60206">
        <ele>1250</ele>
        <time>2022-05-27T09:15:55Z</time>
      </trkpt>
      <trkpt lat="44.42594" lon="3.60202">
        <ele>1250</ele>
        <time>2022-05-27T09:15:56Z</time>
      </trkpt>
      <trkpt lat="44.42594" lon="3.602">
        <ele>1249</ele>
        <time>2022-05-27T09:15:57Z</time>
      </trkpt>
      <trkpt lat="44.42594" lon="3.60199">
        <ele>1249</ele>
        <time>2022-05-27T09:15:58Z</time>
      </trkpt>
      <trkpt lat="44.42593" lon="3.60197">
        <ele>1248</ele>
        <time>2022-05-27T09:15:59Z</time>
      </trkpt>
      <trkpt lat="44.42593" lon="3.60196">
        <ele>1248</ele>
        <time>2022-05-27T09:16:00Z</time>
      </trkpt>
      <trkpt lat="44.42593" lon="3.60195">
        <ele>1248</ele>
        <time>2022-05-27T09:16:01Z</time>
      </trkpt>
      <trkpt lat="44.42593" lon="3.60193">
        <ele>1248</ele>
        <time>2022-05-27T09:16:02Z</time>
      </trkpt>
      <trkpt lat="44.42593" lon="3.60192">
        <ele>1248</ele>
        <time>2022-05-27T09:16:03Z</time>
      </trkpt>
      <trkpt lat="44.42593" lon="3.6019">
        <ele>1247</ele>
        <time>2022-05-27T09:16:04Z</time>
      </trkpt>
      <trkpt lat="44.42592" lon="3.60188">
        <ele>1247</ele>
        <time>2022-05-27T09:16:05Z</time>
      </trkpt>
      <trkpt lat="44.42592" lon="3.60186">
        <ele>1247</ele>
        <time>2022-05-27T09:16:06Z</time>
      </trkpt>
      <trkpt lat="44.42592" lon="3.60184">
        <ele>1248</ele>
        <time>2022-05-27T09:16:07Z</time>
      </trkpt>
      <trkpt lat="44.42591" lon="3.60181">
        <ele>1248</ele>
        <time>2022-05-27T09:16:08Z</time>
      </trkpt>
      <trkpt lat="44.42591" lon="3.60179">
        <ele>1248</ele>
        <time>2022-05-27T09:16:09Z</time>
      </trkpt>
      <trkpt lat="44.4259" lon="3.60176">
        <ele>1248</ele>
        <time>2022-05-27T09:16:10Z</time>
      </trkpt>
      <trkpt lat="44.4259" lon="3.60174">
        <ele>1247</ele>
        <time>2022-05-27T09:16:11Z</time>
      </trkpt>
      <trkpt lat="44.42589" lon="3.60172">
        <ele>1247</ele>
        <time>2022-05-27T09:16:12Z</time>
      </trkpt>
      <trkpt lat="44.42589" lon="3.60171">
        <ele>1247</ele>
        <time>2022-05-27T09:16:13Z</time>
      </trkpt>
      <trkpt lat="44.42588" lon="3.60169">
        <ele>1247</ele>
        <time>2022-05-27T09:16:14Z</time>
      </trkpt>
      <trkpt lat="44.42587" lon="3.60167">
        <ele>1247</ele>
        <time>2022-05-27T09:16:15Z</time>
      </trkpt>
      <trkpt lat="44.42587" lon="3.60165">
        <ele>1247</ele>
        <time>2022-05-27T09:16:16Z</time>
      </trkpt>
      <trkpt lat="44.42586" lon="3.60164">
        <ele>1247</ele>
        <time>2022-05-27T09:16:17Z</time>
      </trkpt>
      <trkpt lat="44.42585" lon="3.60162">
        <ele>1247</ele>
        <time>2022-05-27T09:16:18Z</time>
      </trkpt>
      <trkpt lat="44.42585" lon="3.60161">
        <ele>1247</ele>
        <time>2022-05-27T09:16:19Z</time>
      </trkpt>
      <trkpt lat="44.42584" lon="3.60159">
        <ele>1247</ele>
        <time>2022-05-27T09:16:20Z</time>
      </trkpt>
      <trkpt lat="44.42583" lon="3.60158">
        <ele>1246</ele>
        <time>2022-05-27T09:16:21Z</time>
      </trkpt>
      <trkpt lat="44.42582" lon="3.60156">
        <ele>1246</ele>
        <time>2022-05-27T09:16:22Z</time>
      </trkpt>
      <trkpt lat="44.42582" lon="3.60155">
        <ele>1246</ele>
        <time>2022-05-27T09:16:23Z</time>
      </trkpt>
      <trkpt lat="44.42582" lon="3.60154">
        <ele>1246</ele>
        <time>2022-05-27T09:16:24Z</time>
      </trkpt>
      <trkpt lat="44.42581" lon="3.60153">
        <ele>1246</ele>
        <time>2022-05-27T09:16:25Z</time>
      </trkpt>
      <trkpt lat="44.4258" lon="3.60151">
        <ele>1246</ele>
        <time>2022-05-27T09:16:26Z</time>
      </trkpt>
      <trkpt lat="44.42579" lon="3.6015">
        <ele>1246</ele>
        <time>2022-05-27T09:16:27Z</time>
      </trkpt>
      <trkpt lat="44.42578" lon="3.60149">
        <ele>1246</ele>
        <time>2022-05-27T09:16:28Z</time>
      </trkpt>
      <trkpt lat="44.42577" lon="3.60148">
        <ele>1245</ele>
        <time>2022-05-27T09:16:29Z</time>
      </trkpt>
      <trkpt lat="44.42577" lon="3.60146">
        <ele>1245</ele>
        <time>2022-05-27T09:16:30Z</time>
      </trkpt>
      <trkpt lat="44.42576" lon="3.60145">
        <ele>1244</ele>
        <time>2022-05-27T09:16:31Z</time>
      </trkpt>
      <trkpt lat="44.42575" lon="3.60143">
        <ele>1245</ele>
        <time>2022-05-27T09:16:32Z</time>
      </trkpt>
      <trkpt lat="44.42574" lon="3.60141">
        <ele>1245</ele>
        <time>2022-05-27T09:16:33Z</time>
      </trkpt>
      <trkpt lat="44.42573" lon="3.6014">
        <ele>1244</ele>
        <time>2022-05-27T09:16:34Z</time>
      </trkpt>
      <trkpt lat="44.42572" lon="3.60138">
        <ele>1244</ele>
        <time>2022-05-27T09:16:35Z</time>
      </trkpt>
      <trkpt lat="44.42572" lon="3.60137">
        <ele>1244</ele>
        <time>2022-05-27T09:16:36Z</time>
      </trkpt>
      <trkpt lat="44.42571" lon="3.60136">
        <ele>1244</ele>
        <time>2022-05-27T09:16:37Z</time>
      </trkpt>
      <trkpt lat="44.42571" lon="3.60135">
        <ele>1243</ele>
        <time>2022-05-27T09:16:38Z</time>
      </trkpt>
      <trkpt lat="44.4257" lon="3.60133">
        <ele>1243</ele>
        <time>2022-05-27T09:16:39Z</time>
      </trkpt>
      <trkpt lat="44.42569" lon="3.60132">
        <ele>1243</ele>
        <time>2022-05-27T09:16:40Z</time>
      </trkpt>
      <trkpt lat="44.42569" lon="3.6013">
        <ele>1243</ele>
        <time>2022-05-27T09:16:41Z</time>
      </trkpt>
      <trkpt lat="44.42568" lon="3.60129">
        <ele>1243</ele>
        <time>2022-05-27T09:16:42Z</time>
      </trkpt>
      <trkpt lat="44.42567" lon="3.60127">
        <ele>1243</ele>
        <time>2022-05-27T09:16:43Z</time>
      </trkpt>
      <trkpt lat="44.42567" lon="3.60126">
        <ele>1243</ele>
        <time>2022-05-27T09:16:44Z</time>
      </trkpt>
      <trkpt lat="44.42566" lon="3.60125">
        <ele>1243</ele>
        <time>2022-05-27T09:16:45Z</time>
      </trkpt>
      <trkpt lat="44.42565" lon="3.60123">
        <ele>1243</ele>
        <time>2022-05-27T09:16:46Z</time>
      </trkpt>
      <trkpt lat="44.42565" lon="3.60122">
        <ele>1243</ele>
        <time>2022-05-27T09:16:47Z</time>
      </trkpt>
      <trkpt lat="44.42564" lon="3.60121">
        <ele>1243</ele>
        <time>2022-05-27T09:16:48Z</time>
      </trkpt>
      <trkpt lat="44.42563" lon="3.6012">
        <ele>1243</ele>
        <time>2022-05-27T09:16:49Z</time>
      </trkpt>
      <trkpt lat="44.42563" lon="3.60119">
        <ele>1243</ele>
        <time>2022-05-27T09:16:50Z</time>
      </trkpt>
      <trkpt lat="44.42562" lon="3.60118">
        <ele>1243</ele>
        <time>2022-05-27T09:16:51Z</time>
      </trkpt>
      <trkpt lat="44.42562" lon="3.60117">
        <ele>1242</ele>
        <time>2022-05-27T09:16:52Z</time>
      </trkpt>
      <trkpt lat="44.42561" lon="3.60115">
        <ele>1242</ele>
        <time>2022-05-27T09:16:53Z</time>
      </trkpt>
      <trkpt lat="44.42561" lon="3.60114">
        <ele>1242</ele>
        <time>2022-05-27T09:16:54Z</time>
      </trkpt>
      <trkpt lat="44.4256" lon="3.60112">
        <ele>1243</ele>
        <time>2022-05-27T09:16:55Z</time>
      </trkpt>
      <trkpt lat="44.42559" lon="3.6011">
        <ele>1243</ele>
        <time>2022-05-27T09:16:56Z</time>
      </trkpt>
      <trkpt lat="44.42559" lon="3.60109">
        <ele>1243</ele>
        <time>2022-05-27T09:16:57Z</time>
      </trkpt>
      <trkpt lat="44.42558" lon="3.60107">
        <ele>1243</ele>
        <time>2022-05-27T09:16:58Z</time>
      </trkpt>
      <trkpt lat="44.42558" lon="3.60106">
        <ele>1243</ele>
        <time>2022-05-27T09:16:59Z</time>
      </trkpt>
      <trkpt lat="44.42557" lon="3.60105">
        <ele>1242</ele>
        <time>2022-05-27T09:17:00Z</time>
      </trkpt>
      <trkpt lat="44.42556" lon="3.60103">
        <ele>1242</ele>
        <time>2022-05-27T09:17:01Z</time>
      </trkpt>
      <trkpt lat="44.42555" lon="3.60102">
        <ele>1242</ele>
        <time>2022-05-27T09:17:02Z</time>
      </trkpt>
      <trkpt lat="44.42554" lon="3.60101">
        <ele>1242</ele>
        <time>2022-05-27T09:17:03Z</time>
      </trkpt>
      <trkpt lat="44.42553" lon="3.601">
        <ele>1242</ele>
        <time>2022-05-27T09:17:04Z</time>
      </trkpt>
      <trkpt lat="44.42553" lon="3.60099">
        <ele>1243</ele>
        <time>2022-05-27T09:17:05Z</time>
      </trkpt>
      <trkpt lat="44.42551" lon="3.60098">
        <ele>1243</ele>
        <time>2022-05-27T09:17:06Z</time>
      </trkpt>
      <trkpt lat="44.42551" lon="3.60096">
        <ele>1243</ele>
        <time>2022-05-27T09:17:07Z</time>
      </trkpt>
      <trkpt lat="44.4255" lon="3.60095">
        <ele>1243</ele>
        <time>2022-05-27T09:17:08Z</time>
      </trkpt>
      <trkpt lat="44.42549" lon="3.60094">
        <ele>1243</ele>
        <time>2022-05-27T09:17:09Z</time>
      </trkpt>
      <trkpt lat="44.42548" lon="3.60094">
        <ele>1242</ele>
        <time>2022-05-27T09:17:10Z</time>
      </trkpt>
      <trkpt lat="44.42547" lon="3.60092">
        <ele>1242</ele>
        <time>2022-05-27T09:17:11Z</time>
      </trkpt>
      <trkpt lat="44.42547" lon="3.60092">
        <ele>1242</ele>
        <time>2022-05-27T09:17:12Z</time>
      </trkpt>
      <trkpt lat="44.42546" lon="3.60091">
        <ele>1242</ele>
        <time>2022-05-27T09:17:13Z</time>
      </trkpt>
      <trkpt lat="44.42546" lon="3.6009">
        <ele>1241</ele>
        <time>2022-05-27T09:17:14Z</time>
      </trkpt>
      <trkpt lat="44.42546" lon="3.6009">
        <ele>1241</ele>
        <time>2022-05-27T09:17:15Z</time>
      </trkpt>
      <trkpt lat="44.42545" lon="3.60089">
        <ele>1240</ele>
        <time>2022-05-27T09:17:16Z</time>
      </trkpt>
      <trkpt lat="44.42545" lon="3.60088">
        <ele>1240</ele>
        <time>2022-05-27T09:17:17Z</time>
      </trkpt>
      <trkpt lat="44.42544" lon="3.60088">
        <ele>1240</ele>
        <time>2022-05-27T09:17:18Z</time>
      </trkpt>
      <trkpt lat="44.42544" lon="3.60087">
        <ele>1240</ele>
        <time>2022-05-27T09:17:19Z</time>
      </trkpt>
      <trkpt lat="44.42543" lon="3.60086">
        <ele>1240</ele>
        <time>2022-05-27T09:17:20Z</time>
      </trkpt>
      <trkpt lat="44.42543" lon="3.60085">
        <ele>1240</ele>
        <time>2022-05-27T09:17:21Z</time>
      </trkpt>
      <trkpt lat="44.42542" lon="3.60085">
        <ele>1240</ele>
        <time>2022-05-27T09:17:22Z</time>
      </trkpt>
      <trkpt lat="44.42541" lon="3.60084">
        <ele>1239</ele>
        <time>2022-05-27T09:17:23Z</time>
      </trkpt>
      <trkpt lat="44.4254" lon="3.60084">
        <ele>1240</ele>
        <time>2022-05-27T09:17:24Z</time>
      </trkpt>
      <trkpt lat="44.4254" lon="3.60083">
        <ele>1240</ele>
        <time>2022-05-27T09:17:25Z</time>
      </trkpt>
      <trkpt lat="44.42539" lon="3.60083">
        <ele>1240</ele>
        <time>2022-05-27T09:17:26Z</time>
      </trkpt>
      <trkpt lat="44.42539" lon="3.60083">
        <ele>1240</ele>
        <time>2022-05-27T09:17:27Z</time>
      </trkpt>
      <trkpt lat="44.42538" lon="3.60082">
        <ele>1240</ele>
        <time>2022-05-27T09:17:28Z</time>
      </trkpt>
      <trkpt lat="44.42537" lon="3.60081">
        <ele>1240</ele>
        <time>2022-05-27T09:17:29Z</time>
      </trkpt>
      <trkpt lat="44.42537" lon="3.6008">
        <ele>1240</ele>
        <time>2022-05-27T09:17:30Z</time>
      </trkpt>
      <trkpt lat="44.42535" lon="3.60079">
        <ele>1240</ele>
        <time>2022-05-27T09:17:31Z</time>
      </trkpt>
      <trkpt lat="44.42535" lon="3.60078">
        <ele>1240</ele>
        <time>2022-05-27T09:17:32Z</time>
      </trkpt>
      <trkpt lat="44.42534" lon="3.60077">
        <ele>1239</ele>
        <time>2022-05-27T09:17:33Z</time>
      </trkpt>
      <trkpt lat="44.42533" lon="3.60077">
        <ele>1239</ele>
        <time>2022-05-27T09:17:34Z</time>
      </trkpt>
      <trkpt lat="44.42533" lon="3.60076">
        <ele>1239</ele>
        <time>2022-05-27T09:17:35Z</time>
      </trkpt>
      <trkpt lat="44.42533" lon="3.60075">
        <ele>1238</ele>
        <time>2022-05-27T09:17:36Z</time>
      </trkpt>
      <trkpt lat="44.42533" lon="3.60076">
        <ele>1239</ele>
        <time>2022-05-27T09:17:37Z</time>
      </trkpt>
      <trkpt lat="44.42532" lon="3.60077">
        <ele>1239</ele>
        <time>2022-05-27T09:17:38Z</time>
      </trkpt>
      <trkpt lat="44.42532" lon="3.60077">
        <ele>1239</ele>
        <time>2022-05-27T09:17:39Z</time>
      </trkpt>
      <trkpt lat="44.42532" lon="3.60077">
        <ele>1239</ele>
        <time>2022-05-27T09:17:40Z</time>
      </trkpt>
      <trkpt lat="44.42532" lon="3.60077">
        <ele>1239</ele>
        <time>2022-05-27T09:17:41Z</time>
      </trkpt>
      <trkpt lat="44.42532" lon="3.60077">
        <ele>1238</ele>
        <time>2022-05-27T09:17:42Z</time>
      </trkpt>
      <trkpt lat="44.42532" lon="3.60077">
        <ele>1238</ele>
        <time>2022-05-27T09:17:42Z</time>
      </trkpt>
      <trkpt lat="44.42532" lon="3.60077">
        <ele>1238</ele>
        <time>2022-05-27T09:17:42Z</time>
      </trkpt>
      <trkpt lat="44.42527" lon="3.6007">
        <ele>1236</ele>
        <time>2022-05-27T09:17:49Z</time>
      </trkpt>
      <trkpt lat="44.42526" lon="3.60069">
        <ele>1236</ele>
        <time>2022-05-27T09:17:50Z</time>
      </trkpt>
      <trkpt lat="44.42526" lon="3.60068">
        <ele>1236</ele>
        <time>2022-05-27T09:17:51Z</time>
      </trkpt>
      <trkpt lat="44.42525" lon="3.60067">
        <ele>1236</ele>
        <time>2022-05-27T09:17:52Z</time>
      </trkpt>
      <trkpt lat="44.42524" lon="3.60065">
        <ele>1235</ele>
        <time>2022-05-27T09:17:53Z</time>
      </trkpt>
      <trkpt lat="44.42524" lon="3.60063">
        <ele>1235</ele>
        <time>2022-05-27T09:17:54Z</time>
      </trkpt>
      <trkpt lat="44.42522" lon="3.60062">
        <ele>1235</ele>
        <time>2022-05-27T09:17:55Z</time>
      </trkpt>
      <trkpt lat="44.42522" lon="3.6006">
        <ele>1234</ele>
        <time>2022-05-27T09:17:56Z</time>
      </trkpt>
      <trkpt lat="44.42521" lon="3.60059">
        <ele>1234</ele>
        <time>2022-05-27T09:17:57Z</time>
      </trkpt>
      <trkpt lat="44.42521" lon="3.60058">
        <ele>1233</ele>
        <time>2022-05-27T09:17:58Z</time>
      </trkpt>
      <trkpt lat="44.42521" lon="3.60056">
        <ele>1233</ele>
        <time>2022-05-27T09:17:59Z</time>
      </trkpt>
      <trkpt lat="44.4252" lon="3.60055">
        <ele>1232</ele>
        <time>2022-05-27T09:18:00Z</time>
      </trkpt>
      <trkpt lat="44.42519" lon="3.60053">
        <ele>1232</ele>
        <time>2022-05-27T09:18:01Z</time>
      </trkpt>
      <trkpt lat="44.42519" lon="3.60052">
        <ele>1232</ele>
        <time>2022-05-27T09:18:02Z</time>
      </trkpt>
      <trkpt lat="44.42518" lon="3.60051">
        <ele>1233</ele>
        <time>2022-05-27T09:18:03Z</time>
      </trkpt>
      <trkpt lat="44.42517" lon="3.6005">
        <ele>1233</ele>
        <time>2022-05-27T09:18:04Z</time>
      </trkpt>
      <trkpt lat="44.42516" lon="3.60049">
        <ele>1232</ele>
        <time>2022-05-27T09:18:05Z</time>
      </trkpt>
      <trkpt lat="44.42515" lon="3.60048">
        <ele>1232</ele>
        <time>2022-05-27T09:18:06Z</time>
      </trkpt>
      <trkpt lat="44.42514" lon="3.60047">
        <ele>1232</ele>
        <time>2022-05-27T09:18:07Z</time>
      </trkpt>
      <trkpt lat="44.42512" lon="3.60046">
        <ele>1232</ele>
        <time>2022-05-27T09:18:08Z</time>
      </trkpt>
      <trkpt lat="44.42511" lon="3.60045">
        <ele>1232</ele>
        <time>2022-05-27T09:18:09Z</time>
      </trkpt>
      <trkpt lat="44.42511" lon="3.60044">
        <ele>1232</ele>
        <time>2022-05-27T09:18:10Z</time>
      </trkpt>
      <trkpt lat="44.4251" lon="3.60043">
        <ele>1232</ele>
        <time>2022-05-27T09:18:11Z</time>
      </trkpt>
      <trkpt lat="44.42508" lon="3.60042">
        <ele>1233</ele>
        <time>2022-05-27T09:18:12Z</time>
      </trkpt>
      <trkpt lat="44.42507" lon="3.60041">
        <ele>1233</ele>
        <time>2022-05-27T09:18:13Z</time>
      </trkpt>
      <trkpt lat="44.42506" lon="3.6004">
        <ele>1233</ele>
        <time>2022-05-27T09:18:14Z</time>
      </trkpt>
      <trkpt lat="44.42505" lon="3.60039">
        <ele>1233</ele>
        <time>2022-05-27T09:18:15Z</time>
      </trkpt>
      <trkpt lat="44.42505" lon="3.60037">
        <ele>1233</ele>
        <time>2022-05-27T09:18:16Z</time>
      </trkpt>
      <trkpt lat="44.42503" lon="3.60036">
        <ele>1233</ele>
        <time>2022-05-27T09:18:17Z</time>
      </trkpt>
      <trkpt lat="44.42503" lon="3.60034">
        <ele>1234</ele>
        <time>2022-05-27T09:18:18Z</time>
      </trkpt>
      <trkpt lat="44.42501" lon="3.60033">
        <ele>1234</ele>
        <time>2022-05-27T09:18:19Z</time>
      </trkpt>
      <trkpt lat="44.425" lon="3.60032">
        <ele>1235</ele>
        <time>2022-05-27T09:18:20Z</time>
      </trkpt>
      <trkpt lat="44.425" lon="3.60031">
        <ele>1235</ele>
        <time>2022-05-27T09:18:21Z</time>
      </trkpt>
      <trkpt lat="44.42499" lon="3.60029">
        <ele>1234</ele>
        <time>2022-05-27T09:18:22Z</time>
      </trkpt>
      <trkpt lat="44.42498" lon="3.60028">
        <ele>1234</ele>
        <time>2022-05-27T09:18:23Z</time>
      </trkpt>
      <trkpt lat="44.42497" lon="3.60027">
        <ele>1234</ele>
        <time>2022-05-27T09:18:24Z</time>
      </trkpt>
      <trkpt lat="44.42496" lon="3.60025">
        <ele>1234</ele>
        <time>2022-05-27T09:18:25Z</time>
      </trkpt>
      <trkpt lat="44.42495" lon="3.60024">
        <ele>1234</ele>
        <time>2022-05-27T09:18:26Z</time>
      </trkpt>
      <trkpt lat="44.42494" lon="3.60022">
        <ele>1233</ele>
        <time>2022-05-27T09:18:27Z</time>
      </trkpt>
      <trkpt lat="44.42494" lon="3.60021">
        <ele>1233</ele>
        <time>2022-05-27T09:18:28Z</time>
      </trkpt>
      <trkpt lat="44.42493" lon="3.60021">
        <ele>1233</ele>
        <time>2022-05-27T09:18:29Z</time>
      </trkpt>
      <trkpt lat="44.42492" lon="3.6002">
        <ele>1233</ele>
        <time>2022-05-27T09:18:30Z</time>
      </trkpt>
      <trkpt lat="44.42492" lon="3.60018">
        <ele>1233</ele>
        <time>2022-05-27T09:18:31Z</time>
      </trkpt>
      <trkpt lat="44.4249" lon="3.60017">
        <ele>1233</ele>
        <time>2022-05-27T09:18:32Z</time>
      </trkpt>
      <trkpt lat="44.42489" lon="3.60015">
        <ele>1233</ele>
        <time>2022-05-27T09:18:33Z</time>
      </trkpt>
      <trkpt lat="44.42489" lon="3.60014">
        <ele>1233</ele>
        <time>2022-05-27T09:18:34Z</time>
      </trkpt>
      <trkpt lat="44.42487" lon="3.60012">
        <ele>1233</ele>
        <time>2022-05-27T09:18:35Z</time>
      </trkpt>
      <trkpt lat="44.42486" lon="3.60011">
        <ele>1232</ele>
        <time>2022-05-27T09:18:36Z</time>
      </trkpt>
      <trkpt lat="44.42485" lon="3.6001">
        <ele>1232</ele>
        <time>2022-05-27T09:18:37Z</time>
      </trkpt>
      <trkpt lat="44.42484" lon="3.60009">
        <ele>1232</ele>
        <time>2022-05-27T09:18:38Z</time>
      </trkpt>
      <trkpt lat="44.42483" lon="3.60008">
        <ele>1232</ele>
        <time>2022-05-27T09:18:39Z</time>
      </trkpt>
      <trkpt lat="44.42482" lon="3.60007">
        <ele>1232</ele>
        <time>2022-05-27T09:18:40Z</time>
      </trkpt>
      <trkpt lat="44.42481" lon="3.60006">
        <ele>1232</ele>
        <time>2022-05-27T09:18:41Z</time>
      </trkpt>
      <trkpt lat="44.42481" lon="3.60005">
        <ele>1232</ele>
        <time>2022-05-27T09:18:42Z</time>
      </trkpt>
      <trkpt lat="44.42479" lon="3.60003">
        <ele>1232</ele>
        <time>2022-05-27T09:18:43Z</time>
      </trkpt>
      <trkpt lat="44.42479" lon="3.60002">
        <ele>1233</ele>
        <time>2022-05-27T09:18:44Z</time>
      </trkpt>
      <trkpt lat="44.42478" lon="3.60001">
        <ele>1232</ele>
        <time>2022-05-27T09:18:45Z</time>
      </trkpt>
      <trkpt lat="44.42477" lon="3.6">
        <ele>1233</ele>
        <time>2022-05-27T09:18:46Z</time>
      </trkpt>
      <trkpt lat="44.42476" lon="3.59998">
        <ele>1233</ele>
        <time>2022-05-27T09:18:47Z</time>
      </trkpt>
      <trkpt lat="44.42475" lon="3.59997">
        <ele>1233</ele>
        <time>2022-05-27T09:18:48Z</time>
      </trkpt>
      <trkpt lat="44.42474" lon="3.59996">
        <ele>1233</ele>
        <time>2022-05-27T09:18:49Z</time>
      </trkpt>
      <trkpt lat="44.42473" lon="3.59995">
        <ele>1233</ele>
        <time>2022-05-27T09:18:50Z</time>
      </trkpt>
      <trkpt lat="44.42472" lon="3.59994">
        <ele>1234</ele>
        <time>2022-05-27T09:18:51Z</time>
      </trkpt>
      <trkpt lat="44.42471" lon="3.59994">
        <ele>1234</ele>
        <time>2022-05-27T09:18:52Z</time>
      </trkpt>
      <trkpt lat="44.4247" lon="3.59993">
        <ele>1234</ele>
        <time>2022-05-27T09:18:53Z</time>
      </trkpt>
      <trkpt lat="44.42469" lon="3.59992">
        <ele>1234</ele>
        <time>2022-05-27T09:18:54Z</time>
      </trkpt>
      <trkpt lat="44.42468" lon="3.5999">
        <ele>1234</ele>
        <time>2022-05-27T09:18:55Z</time>
      </trkpt>
      <trkpt lat="44.42467" lon="3.59989">
        <ele>1234</ele>
        <time>2022-05-27T09:18:56Z</time>
      </trkpt>
      <trkpt lat="44.42466" lon="3.59988">
        <ele>1235</ele>
        <time>2022-05-27T09:18:57Z</time>
      </trkpt>
      <trkpt lat="44.42465" lon="3.59987">
        <ele>1235</ele>
        <time>2022-05-27T09:18:58Z</time>
      </trkpt>
      <trkpt lat="44.42464" lon="3.59986">
        <ele>1235</ele>
        <time>2022-05-27T09:18:59Z</time>
      </trkpt>
      <trkpt lat="44.42463" lon="3.59985">
        <ele>1235</ele>
        <time>2022-05-27T09:19:00Z</time>
      </trkpt>
      <trkpt lat="44.42463" lon="3.59983">
        <ele>1235</ele>
        <time>2022-05-27T09:19:01Z</time>
      </trkpt>
      <trkpt lat="44.42461" lon="3.59982">
        <ele>1235</ele>
        <time>2022-05-27T09:19:02Z</time>
      </trkpt>
      <trkpt lat="44.42461" lon="3.59981">
        <ele>1236</ele>
        <time>2022-05-27T09:19:03Z</time>
      </trkpt>
      <trkpt lat="44.4246" lon="3.5998">
        <ele>1236</ele>
        <time>2022-05-27T09:19:04Z</time>
      </trkpt>
      <trkpt lat="44.42458" lon="3.59979">
        <ele>1236</ele>
        <time>2022-05-27T09:19:05Z</time>
      </trkpt>
      <trkpt lat="44.42458" lon="3.59977">
        <ele>1236</ele>
        <time>2022-05-27T09:19:06Z</time>
      </trkpt>
      <trkpt lat="44.42456" lon="3.59976">
        <ele>1236</ele>
        <time>2022-05-27T09:19:07Z</time>
      </trkpt>
      <trkpt lat="44.42455" lon="3.59975">
        <ele>1236</ele>
        <time>2022-05-27T09:19:08Z</time>
      </trkpt>
      <trkpt lat="44.42454" lon="3.59974">
        <ele>1235</ele>
        <time>2022-05-27T09:19:09Z</time>
      </trkpt>
      <trkpt lat="44.42453" lon="3.59973">
        <ele>1236</ele>
        <time>2022-05-27T09:19:10Z</time>
      </trkpt>
      <trkpt lat="44.42453" lon="3.59971">
        <ele>1236</ele>
        <time>2022-05-27T09:19:11Z</time>
      </trkpt>
      <trkpt lat="44.42452" lon="3.5997">
        <ele>1236</ele>
        <time>2022-05-27T09:19:12Z</time>
      </trkpt>
      <trkpt lat="44.42451" lon="3.59969">
        <ele>1236</ele>
        <time>2022-05-27T09:19:13Z</time>
      </trkpt>
      <trkpt lat="44.4245" lon="3.59968">
        <ele>1236</ele>
        <time>2022-05-27T09:19:14Z</time>
      </trkpt>
      <trkpt lat="44.42449" lon="3.59967">
        <ele>1237</ele>
        <time>2022-05-27T09:19:15Z</time>
      </trkpt>
      <trkpt lat="44.42448" lon="3.59965">
        <ele>1237</ele>
        <time>2022-05-27T09:19:16Z</time>
      </trkpt>
      <trkpt lat="44.42447" lon="3.59965">
        <ele>1237</ele>
        <time>2022-05-27T09:19:17Z</time>
      </trkpt>
      <trkpt lat="44.42446" lon="3.59964">
        <ele>1237</ele>
        <time>2022-05-27T09:19:18Z</time>
      </trkpt>
      <trkpt lat="44.42445" lon="3.59963">
        <ele>1237</ele>
        <time>2022-05-27T09:19:19Z</time>
      </trkpt>
      <trkpt lat="44.42444" lon="3.59962">
        <ele>1237</ele>
        <time>2022-05-27T09:19:20Z</time>
      </trkpt>
      <trkpt lat="44.42443" lon="3.59961">
        <ele>1237</ele>
        <time>2022-05-27T09:19:21Z</time>
      </trkpt>
      <trkpt lat="44.42443" lon="3.5996">
        <ele>1236</ele>
        <time>2022-05-27T09:19:22Z</time>
      </trkpt>
      <trkpt lat="44.42442" lon="3.59959">
        <ele>1236</ele>
        <time>2022-05-27T09:19:23Z</time>
      </trkpt>
      <trkpt lat="44.42442" lon="3.59958">
        <ele>1236</ele>
        <time>2022-05-27T09:19:24Z</time>
      </trkpt>
      <trkpt lat="44.42441" lon="3.59957">
        <ele>1236</ele>
        <time>2022-05-27T09:19:25Z</time>
      </trkpt>
      <trkpt lat="44.4244" lon="3.59956">
        <ele>1236</ele>
        <time>2022-05-27T09:19:26Z</time>
      </trkpt>
      <trkpt lat="44.4244" lon="3.59955">
        <ele>1236</ele>
        <time>2022-05-27T09:19:27Z</time>
      </trkpt>
      <trkpt lat="44.4244" lon="3.59954">
        <ele>1236</ele>
        <time>2022-05-27T09:19:28Z</time>
      </trkpt>
      <trkpt lat="44.42439" lon="3.59952">
        <ele>1235</ele>
        <time>2022-05-27T09:19:29Z</time>
      </trkpt>
      <trkpt lat="44.42438" lon="3.59951">
        <ele>1235</ele>
        <time>2022-05-27T09:19:30Z</time>
      </trkpt>
      <trkpt lat="44.42437" lon="3.5995">
        <ele>1235</ele>
        <time>2022-05-27T09:19:31Z</time>
      </trkpt>
      <trkpt lat="44.42436" lon="3.59949">
        <ele>1235</ele>
        <time>2022-05-27T09:19:32Z</time>
      </trkpt>
      <trkpt lat="44.42435" lon="3.59948">
        <ele>1234</ele>
        <time>2022-05-27T09:19:33Z</time>
      </trkpt>
      <trkpt lat="44.42434" lon="3.59947">
        <ele>1234</ele>
        <time>2022-05-27T09:19:34Z</time>
      </trkpt>
      <trkpt lat="44.42433" lon="3.59946">
        <ele>1234</ele>
        <time>2022-05-27T09:19:35Z</time>
      </trkpt>
      <trkpt lat="44.42432" lon="3.59945">
        <ele>1234</ele>
        <time>2022-05-27T09:19:36Z</time>
      </trkpt>
      <trkpt lat="44.42431" lon="3.59944">
        <ele>1234</ele>
        <time>2022-05-27T09:19:37Z</time>
      </trkpt>
      <trkpt lat="44.4243" lon="3.59943">
        <ele>1234</ele>
        <time>2022-05-27T09:19:38Z</time>
      </trkpt>
      <trkpt lat="44.42429" lon="3.59942">
        <ele>1234</ele>
        <time>2022-05-27T09:19:39Z</time>
      </trkpt>
      <trkpt lat="44.42428" lon="3.59941">
        <ele>1234</ele>
        <time>2022-05-27T09:19:40Z</time>
      </trkpt>
      <trkpt lat="44.42427" lon="3.5994">
        <ele>1234</ele>
        <time>2022-05-27T09:19:41Z</time>
      </trkpt>
      <trkpt lat="44.42426" lon="3.59939">
        <ele>1233</ele>
        <time>2022-05-27T09:19:42Z</time>
      </trkpt>
      <trkpt lat="44.42425" lon="3.59938">
        <ele>1233</ele>
        <time>2022-05-27T09:19:43Z</time>
      </trkpt>
      <trkpt lat="44.42424" lon="3.59937">
        <ele>1233</ele>
        <time>2022-05-27T09:19:44Z</time>
      </trkpt>
      <trkpt lat="44.42423" lon="3.59936">
        <ele>1232</ele>
        <time>2022-05-27T09:19:45Z</time>
      </trkpt>
      <trkpt lat="44.42423" lon="3.59935">
        <ele>1232</ele>
        <time>2022-05-27T09:19:46Z</time>
      </trkpt>
      <trkpt lat="44.42422" lon="3.59934">
        <ele>1231</ele>
        <time>2022-05-27T09:19:47Z</time>
      </trkpt>
      <trkpt lat="44.42421" lon="3.59934">
        <ele>1231</ele>
        <time>2022-05-27T09:19:48Z</time>
      </trkpt>
      <trkpt lat="44.42421" lon="3.59934">
        <ele>1231</ele>
        <time>2022-05-27T09:19:49Z</time>
      </trkpt>
      <trkpt lat="44.42422" lon="3.59934">
        <ele>1230</ele>
        <time>2022-05-27T09:19:50Z</time>
      </trkpt>
      <trkpt lat="44.42421" lon="3.59934">
        <ele>1230</ele>
        <time>2022-05-27T09:19:51Z</time>
      </trkpt>
      <trkpt lat="44.4242" lon="3.59932">
        <ele>1230</ele>
        <time>2022-05-27T09:19:52Z</time>
      </trkpt>
      <trkpt lat="44.42419" lon="3.59931">
        <ele>1230</ele>
        <time>2022-05-27T09:19:53Z</time>
      </trkpt>
      <trkpt lat="44.42418" lon="3.5993">
        <ele>1229</ele>
        <time>2022-05-27T09:19:54Z</time>
      </trkpt>
      <trkpt lat="44.42417" lon="3.59929">
        <ele>1229</ele>
        <time>2022-05-27T09:19:55Z</time>
      </trkpt>
      <trkpt lat="44.42416" lon="3.59928">
        <ele>1229</ele>
        <time>2022-05-27T09:19:56Z</time>
      </trkpt>
      <trkpt lat="44.42415" lon="3.59928">
        <ele>1228</ele>
        <time>2022-05-27T09:19:57Z</time>
      </trkpt>
      <trkpt lat="44.42413" lon="3.59927">
        <ele>1228</ele>
        <time>2022-05-27T09:19:58Z</time>
      </trkpt>
      <trkpt lat="44.42411" lon="3.59926">
        <ele>1227</ele>
        <time>2022-05-27T09:19:59Z</time>
      </trkpt>
      <trkpt lat="44.4241" lon="3.59926">
        <ele>1227</ele>
        <time>2022-05-27T09:20:00Z</time>
      </trkpt>
      <trkpt lat="44.42408" lon="3.59926">
        <ele>1227</ele>
        <time>2022-05-27T09:20:01Z</time>
      </trkpt>
      <trkpt lat="44.42407" lon="3.59925">
        <ele>1227</ele>
        <time>2022-05-27T09:20:02Z</time>
      </trkpt>
      <trkpt lat="44.42406" lon="3.59924">
        <ele>1227</ele>
        <time>2022-05-27T09:20:03Z</time>
      </trkpt>
      <trkpt lat="44.42405" lon="3.59923">
        <ele>1226</ele>
        <time>2022-05-27T09:20:04Z</time>
      </trkpt>
      <trkpt lat="44.42403" lon="3.59923">
        <ele>1226</ele>
        <time>2022-05-27T09:20:05Z</time>
      </trkpt>
      <trkpt lat="44.42402" lon="3.59923">
        <ele>1226</ele>
        <time>2022-05-27T09:20:06Z</time>
      </trkpt>
      <trkpt lat="44.424" lon="3.59923">
        <ele>1226</ele>
        <time>2022-05-27T09:20:07Z</time>
      </trkpt>
      <trkpt lat="44.42399" lon="3.59922">
        <ele>1227</ele>
        <time>2022-05-27T09:20:08Z</time>
      </trkpt>
      <trkpt lat="44.42397" lon="3.59921">
        <ele>1227</ele>
        <time>2022-05-27T09:20:09Z</time>
      </trkpt>
      <trkpt lat="44.42396" lon="3.59921">
        <ele>1227</ele>
        <time>2022-05-27T09:20:10Z</time>
      </trkpt>
      <trkpt lat="44.42394" lon="3.5992">
        <ele>1227</ele>
        <time>2022-05-27T09:20:11Z</time>
      </trkpt>
      <trkpt lat="44.42393" lon="3.59919">
        <ele>1227</ele>
        <time>2022-05-27T09:20:12Z</time>
      </trkpt>
      <trkpt lat="44.42392" lon="3.59919">
        <ele>1227</ele>
        <time>2022-05-27T09:20:13Z</time>
      </trkpt>
      <trkpt lat="44.42391" lon="3.59918">
        <ele>1227</ele>
        <time>2022-05-27T09:20:14Z</time>
      </trkpt>
      <trkpt lat="44.4239" lon="3.59917">
        <ele>1226</ele>
        <time>2022-05-27T09:20:15Z</time>
      </trkpt>
      <trkpt lat="44.42389" lon="3.59917">
        <ele>1226</ele>
        <time>2022-05-27T09:20:16Z</time>
      </trkpt>
      <trkpt lat="44.42388" lon="3.59916">
        <ele>1226</ele>
        <time>2022-05-27T09:20:17Z</time>
      </trkpt>
      <trkpt lat="44.42387" lon="3.59916">
        <ele>1226</ele>
        <time>2022-05-27T09:20:18Z</time>
      </trkpt>
      <trkpt lat="44.42386" lon="3.59915">
        <ele>1225</ele>
        <time>2022-05-27T09:20:19Z</time>
      </trkpt>
      <trkpt lat="44.42385" lon="3.59915">
        <ele>1225</ele>
        <time>2022-05-27T09:20:20Z</time>
      </trkpt>
      <trkpt lat="44.42384" lon="3.59915">
        <ele>1224</ele>
        <time>2022-05-27T09:20:21Z</time>
      </trkpt>
      <trkpt lat="44.42382" lon="3.59914">
        <ele>1224</ele>
        <time>2022-05-27T09:20:22Z</time>
      </trkpt>
      <trkpt lat="44.42381" lon="3.59913">
        <ele>1223</ele>
        <time>2022-05-27T09:20:23Z</time>
      </trkpt>
      <trkpt lat="44.4238" lon="3.59913">
        <ele>1223</ele>
        <time>2022-05-27T09:20:24Z</time>
      </trkpt>
      <trkpt lat="44.42378" lon="3.59912">
        <ele>1223</ele>
        <time>2022-05-27T09:20:25Z</time>
      </trkpt>
      <trkpt lat="44.42377" lon="3.59912">
        <ele>1223</ele>
        <time>2022-05-27T09:20:26Z</time>
      </trkpt>
      <trkpt lat="44.42376" lon="3.59912">
        <ele>1223</ele>
        <time>2022-05-27T09:20:27Z</time>
      </trkpt>
      <trkpt lat="44.42375" lon="3.59911">
        <ele>1223</ele>
        <time>2022-05-27T09:20:28Z</time>
      </trkpt>
      <trkpt lat="44.42373" lon="3.5991">
        <ele>1223</ele>
        <time>2022-05-27T09:20:29Z</time>
      </trkpt>
      <trkpt lat="44.42372" lon="3.5991">
        <ele>1223</ele>
        <time>2022-05-27T09:20:30Z</time>
      </trkpt>
      <trkpt lat="44.4237" lon="3.59909">
        <ele>1222</ele>
        <time>2022-05-27T09:20:31Z</time>
      </trkpt>
      <trkpt lat="44.42369" lon="3.59908">
        <ele>1223</ele>
        <time>2022-05-27T09:20:32Z</time>
      </trkpt>
      <trkpt lat="44.42367" lon="3.59908">
        <ele>1222</ele>
        <time>2022-05-27T09:20:33Z</time>
      </trkpt>
      <trkpt lat="44.42366" lon="3.59907">
        <ele>1222</ele>
        <time>2022-05-27T09:20:34Z</time>
      </trkpt>
      <trkpt lat="44.42364" lon="3.59907">
        <ele>1222</ele>
        <time>2022-05-27T09:20:35Z</time>
      </trkpt>
      <trkpt lat="44.42363" lon="3.59906">
        <ele>1222</ele>
        <time>2022-05-27T09:20:36Z</time>
      </trkpt>
      <trkpt lat="44.42362" lon="3.59906">
        <ele>1223</ele>
        <time>2022-05-27T09:20:37Z</time>
      </trkpt>
      <trkpt lat="44.42361" lon="3.59906">
        <ele>1222</ele>
        <time>2022-05-27T09:20:38Z</time>
      </trkpt>
      <trkpt lat="44.4236" lon="3.59906">
        <ele>1221</ele>
        <time>2022-05-27T09:20:39Z</time>
      </trkpt>
      <trkpt lat="44.42359" lon="3.59906">
        <ele>1221</ele>
        <time>2022-05-27T09:20:40Z</time>
      </trkpt>
      <trkpt lat="44.42358" lon="3.59906">
        <ele>1220</ele>
        <time>2022-05-27T09:20:41Z</time>
      </trkpt>
      <trkpt lat="44.42357" lon="3.59905">
        <ele>1220</ele>
        <time>2022-05-27T09:20:42Z</time>
      </trkpt>
      <trkpt lat="44.42356" lon="3.59905">
        <ele>1220</ele>
        <time>2022-05-27T09:20:43Z</time>
      </trkpt>
      <trkpt lat="44.42355" lon="3.59905">
        <ele>1219</ele>
        <time>2022-05-27T09:20:44Z</time>
      </trkpt>
      <trkpt lat="44.42353" lon="3.59904">
        <ele>1219</ele>
        <time>2022-05-27T09:20:45Z</time>
      </trkpt>
      <trkpt lat="44.42352" lon="3.59904">
        <ele>1218</ele>
        <time>2022-05-27T09:20:46Z</time>
      </trkpt>
      <trkpt lat="44.42351" lon="3.59904">
        <ele>1218</ele>
        <time>2022-05-27T09:20:47Z</time>
      </trkpt>
      <trkpt lat="44.4235" lon="3.59903">
        <ele>1218</ele>
        <time>2022-05-27T09:20:48Z</time>
      </trkpt>
      <trkpt lat="44.42348" lon="3.59903">
        <ele>1218</ele>
        <time>2022-05-27T09:20:49Z</time>
      </trkpt>
      <trkpt lat="44.42347" lon="3.59902">
        <ele>1217</ele>
        <time>2022-05-27T09:20:50Z</time>
      </trkpt>
      <trkpt lat="44.42345" lon="3.59902">
        <ele>1217</ele>
        <time>2022-05-27T09:20:51Z</time>
      </trkpt>
      <trkpt lat="44.42344" lon="3.59902">
        <ele>1217</ele>
        <time>2022-05-27T09:20:52Z</time>
      </trkpt>
      <trkpt lat="44.42342" lon="3.59902">
        <ele>1217</ele>
        <time>2022-05-27T09:20:53Z</time>
      </trkpt>
      <trkpt lat="44.42341" lon="3.59901">
        <ele>1217</ele>
        <time>2022-05-27T09:20:54Z</time>
      </trkpt>
      <trkpt lat="44.4234" lon="3.59901">
        <ele>1217</ele>
        <time>2022-05-27T09:20:55Z</time>
      </trkpt>
      <trkpt lat="44.42338" lon="3.59901">
        <ele>1217</ele>
        <time>2022-05-27T09:20:56Z</time>
      </trkpt>
      <trkpt lat="44.42337" lon="3.59901">
        <ele>1217</ele>
        <time>2022-05-27T09:20:57Z</time>
      </trkpt>
      <trkpt lat="44.42336" lon="3.599">
        <ele>1217</ele>
        <time>2022-05-27T09:20:58Z</time>
      </trkpt>
      <trkpt lat="44.42334" lon="3.599">
        <ele>1216</ele>
        <time>2022-05-27T09:20:59Z</time>
      </trkpt>
      <trkpt lat="44.42333" lon="3.59899">
        <ele>1216</ele>
        <time>2022-05-27T09:21:00Z</time>
      </trkpt>
      <trkpt lat="44.42332" lon="3.59899">
        <ele>1216</ele>
        <time>2022-05-27T09:21:01Z</time>
      </trkpt>
      <trkpt lat="44.42331" lon="3.59899">
        <ele>1216</ele>
        <time>2022-05-27T09:21:02Z</time>
      </trkpt>
      <trkpt lat="44.42329" lon="3.59899">
        <ele>1216</ele>
        <time>2022-05-27T09:21:03Z</time>
      </trkpt>
      <trkpt lat="44.42328" lon="3.59899">
        <ele>1216</ele>
        <time>2022-05-27T09:21:04Z</time>
      </trkpt>
      <trkpt lat="44.42327" lon="3.59899">
        <ele>1216</ele>
        <time>2022-05-27T09:21:05Z</time>
      </trkpt>
      <trkpt lat="44.42326" lon="3.59898">
        <ele>1216</ele>
        <time>2022-05-27T09:21:06Z</time>
      </trkpt>
      <trkpt lat="44.42325" lon="3.59897">
        <ele>1216</ele>
        <time>2022-05-27T09:21:07Z</time>
      </trkpt>
      <trkpt lat="44.42323" lon="3.59897">
        <ele>1216</ele>
        <time>2022-05-27T09:21:08Z</time>
      </trkpt>
      <trkpt lat="44.42322" lon="3.59897">
        <ele>1215</ele>
        <time>2022-05-27T09:21:09Z</time>
      </trkpt>
      <trkpt lat="44.42321" lon="3.59897">
        <ele>1215</ele>
        <time>2022-05-27T09:21:10Z</time>
      </trkpt>
      <trkpt lat="44.4232" lon="3.59897">
        <ele>1215</ele>
        <time>2022-05-27T09:21:11Z</time>
      </trkpt>
      <trkpt lat="44.42319" lon="3.59897">
        <ele>1216</ele>
        <time>2022-05-27T09:21:12Z</time>
      </trkpt>
      <trkpt lat="44.42317" lon="3.59897">
        <ele>1215</ele>
        <time>2022-05-27T09:21:13Z</time>
      </trkpt>
      <trkpt lat="44.42316" lon="3.59897">
        <ele>1215</ele>
        <time>2022-05-27T09:21:14Z</time>
      </trkpt>
      <trkpt lat="44.42314" lon="3.59897">
        <ele>1215</ele>
        <time>2022-05-27T09:21:15Z</time>
      </trkpt>
      <trkpt lat="44.42313" lon="3.59896">
        <ele>1215</ele>
        <time>2022-05-27T09:21:16Z</time>
      </trkpt>
      <trkpt lat="44.42312" lon="3.59896">
        <ele>1215</ele>
        <time>2022-05-27T09:21:17Z</time>
      </trkpt>
      <trkpt lat="44.4231" lon="3.59895">
        <ele>1215</ele>
        <time>2022-05-27T09:21:18Z</time>
      </trkpt>
      <trkpt lat="44.42308" lon="3.59895">
        <ele>1215</ele>
        <time>2022-05-27T09:21:19Z</time>
      </trkpt>
      <trkpt lat="44.42307" lon="3.59895">
        <ele>1215</ele>
        <time>2022-05-27T09:21:20Z</time>
      </trkpt>
      <trkpt lat="44.42306" lon="3.59895">
        <ele>1215</ele>
        <time>2022-05-27T09:21:21Z</time>
      </trkpt>
      <trkpt lat="44.42305" lon="3.59895">
        <ele>1215</ele>
        <time>2022-05-27T09:21:22Z</time>
      </trkpt>
      <trkpt lat="44.42304" lon="3.59895">
        <ele>1215</ele>
        <time>2022-05-27T09:21:23Z</time>
      </trkpt>
      <trkpt lat="44.42303" lon="3.59894">
        <ele>1215</ele>
        <time>2022-05-27T09:21:24Z</time>
      </trkpt>
      <trkpt lat="44.42301" lon="3.59894">
        <ele>1214</ele>
        <time>2022-05-27T09:21:25Z</time>
      </trkpt>
      <trkpt lat="44.423" lon="3.59894">
        <ele>1215</ele>
        <time>2022-05-27T09:21:26Z</time>
      </trkpt>
      <trkpt lat="44.42298" lon="3.59893">
        <ele>1214</ele>
        <time>2022-05-27T09:21:27Z</time>
      </trkpt>
      <trkpt lat="44.42296" lon="3.59892">
        <ele>1214</ele>
        <time>2022-05-27T09:21:28Z</time>
      </trkpt>
      <trkpt lat="44.42294" lon="3.59892">
        <ele>1214</ele>
        <time>2022-05-27T09:21:29Z</time>
      </trkpt>
      <trkpt lat="44.42293" lon="3.59892">
        <ele>1215</ele>
        <time>2022-05-27T09:21:30Z</time>
      </trkpt>
      <trkpt lat="44.42292" lon="3.59891">
        <ele>1215</ele>
        <time>2022-05-27T09:21:31Z</time>
      </trkpt>
      <trkpt lat="44.42291" lon="3.59891">
        <ele>1215</ele>
        <time>2022-05-27T09:21:32Z</time>
      </trkpt>
      <trkpt lat="44.42289" lon="3.59891">
        <ele>1216</ele>
        <time>2022-05-27T09:21:33Z</time>
      </trkpt>
      <trkpt lat="44.42288" lon="3.5989">
        <ele>1216</ele>
        <time>2022-05-27T09:21:34Z</time>
      </trkpt>
      <trkpt lat="44.42287" lon="3.5989">
        <ele>1216</ele>
        <time>2022-05-27T09:21:35Z</time>
      </trkpt>
      <trkpt lat="44.42286" lon="3.5989">
        <ele>1216</ele>
        <time>2022-05-27T09:21:36Z</time>
      </trkpt>
      <trkpt lat="44.42285" lon="3.59889">
        <ele>1216</ele>
        <time>2022-05-27T09:21:37Z</time>
      </trkpt>
      <trkpt lat="44.42284" lon="3.59888">
        <ele>1216</ele>
        <time>2022-05-27T09:21:38Z</time>
      </trkpt>
      <trkpt lat="44.42282" lon="3.59888">
        <ele>1217</ele>
        <time>2022-05-27T09:21:39Z</time>
      </trkpt>
      <trkpt lat="44.42281" lon="3.59887">
        <ele>1217</ele>
        <time>2022-05-27T09:21:40Z</time>
      </trkpt>
      <trkpt lat="44.42279" lon="3.59887">
        <ele>1218</ele>
        <time>2022-05-27T09:21:41Z</time>
      </trkpt>
      <trkpt lat="44.42278" lon="3.59886">
        <ele>1217</ele>
        <time>2022-05-27T09:21:42Z</time>
      </trkpt>
      <trkpt lat="44.42277" lon="3.59886">
        <ele>1217</ele>
        <time>2022-05-27T09:21:43Z</time>
      </trkpt>
      <trkpt lat="44.42276" lon="3.59885">
        <ele>1217</ele>
        <time>2022-05-27T09:21:44Z</time>
      </trkpt>
      <trkpt lat="44.42275" lon="3.59885">
        <ele>1217</ele>
        <time>2022-05-27T09:21:45Z</time>
      </trkpt>
      <trkpt lat="44.42275" lon="3.59884">
        <ele>1217</ele>
        <time>2022-05-27T09:21:46Z</time>
      </trkpt>
      <trkpt lat="44.42273" lon="3.59883">
        <ele>1217</ele>
        <time>2022-05-27T09:21:47Z</time>
      </trkpt>
      <trkpt lat="44.42272" lon="3.59882">
        <ele>1216</ele>
        <time>2022-05-27T09:21:48Z</time>
      </trkpt>
      <trkpt lat="44.42271" lon="3.59882">
        <ele>1216</ele>
        <time>2022-05-27T09:21:49Z</time>
      </trkpt>
      <trkpt lat="44.4227" lon="3.59881">
        <ele>1216</ele>
        <time>2022-05-27T09:21:50Z</time>
      </trkpt>
      <trkpt lat="44.42268" lon="3.59881">
        <ele>1216</ele>
        <time>2022-05-27T09:21:51Z</time>
      </trkpt>
      <trkpt lat="44.42267" lon="3.59881">
        <ele>1215</ele>
        <time>2022-05-27T09:21:52Z</time>
      </trkpt>
      <trkpt lat="44.42265" lon="3.5988">
        <ele>1215</ele>
        <time>2022-05-27T09:21:53Z</time>
      </trkpt>
      <trkpt lat="44.42264" lon="3.5988">
        <ele>1214</ele>
        <time>2022-05-27T09:21:54Z</time>
      </trkpt>
      <trkpt lat="44.42262" lon="3.5988">
        <ele>1214</ele>
        <time>2022-05-27T09:21:55Z</time>
      </trkpt>
      <trkpt lat="44.42261" lon="3.5988">
        <ele>1213</ele>
        <time>2022-05-27T09:21:56Z</time>
      </trkpt>
      <trkpt lat="44.4226" lon="3.59879">
        <ele>1213</ele>
        <time>2022-05-27T09:21:57Z</time>
      </trkpt>
      <trkpt lat="44.42259" lon="3.59879">
        <ele>1212</ele>
        <time>2022-05-27T09:21:58Z</time>
      </trkpt>
      <trkpt lat="44.42257" lon="3.59879">
        <ele>1213</ele>
        <time>2022-05-27T09:21:59Z</time>
      </trkpt>
      <trkpt lat="44.42255" lon="3.59879">
        <ele>1213</ele>
        <time>2022-05-27T09:22:00Z</time>
      </trkpt>
      <trkpt lat="44.42254" lon="3.59878">
        <ele>1213</ele>
        <time>2022-05-27T09:22:01Z</time>
      </trkpt>
      <trkpt lat="44.42253" lon="3.59877">
        <ele>1212</ele>
        <time>2022-05-27T09:22:02Z</time>
      </trkpt>
      <trkpt lat="44.42251" lon="3.59877">
        <ele>1212</ele>
        <time>2022-05-27T09:22:03Z</time>
      </trkpt>
      <trkpt lat="44.4225" lon="3.59877">
        <ele>1212</ele>
        <time>2022-05-27T09:22:04Z</time>
      </trkpt>
      <trkpt lat="44.42249" lon="3.59876">
        <ele>1212</ele>
        <time>2022-05-27T09:22:05Z</time>
      </trkpt>
      <trkpt lat="44.42248" lon="3.59876">
        <ele>1212</ele>
        <time>2022-05-27T09:22:06Z</time>
      </trkpt>
      <trkpt lat="44.42247" lon="3.59876">
        <ele>1212</ele>
        <time>2022-05-27T09:22:07Z</time>
      </trkpt>
      <trkpt lat="44.42246" lon="3.59875">
        <ele>1212</ele>
        <time>2022-05-27T09:22:08Z</time>
      </trkpt>
      <trkpt lat="44.42244" lon="3.59874">
        <ele>1212</ele>
        <time>2022-05-27T09:22:09Z</time>
      </trkpt>
      <trkpt lat="44.42242" lon="3.59873">
        <ele>1213</ele>
        <time>2022-05-27T09:22:10Z</time>
      </trkpt>
      <trkpt lat="44.42242" lon="3.59873">
        <ele>1213</ele>
        <time>2022-05-27T09:22:11Z</time>
      </trkpt>
      <trkpt lat="44.42241" lon="3.59872">
        <ele>1213</ele>
        <time>2022-05-27T09:22:12Z</time>
      </trkpt>
      <trkpt lat="44.42239" lon="3.59872">
        <ele>1213</ele>
        <time>2022-05-27T09:22:13Z</time>
      </trkpt>
      <trkpt lat="44.42238" lon="3.59871">
        <ele>1214</ele>
        <time>2022-05-27T09:22:14Z</time>
      </trkpt>
      <trkpt lat="44.42237" lon="3.59871">
        <ele>1214</ele>
        <time>2022-05-27T09:22:15Z</time>
      </trkpt>
      <trkpt lat="44.42236" lon="3.5987">
        <ele>1214</ele>
        <time>2022-05-27T09:22:16Z</time>
      </trkpt>
      <trkpt lat="44.42235" lon="3.59869">
        <ele>1214</ele>
        <time>2022-05-27T09:22:17Z</time>
      </trkpt>
      <trkpt lat="44.42234" lon="3.59868">
        <ele>1214</ele>
        <time>2022-05-27T09:22:18Z</time>
      </trkpt>
      <trkpt lat="44.42233" lon="3.59868">
        <ele>1214</ele>
        <time>2022-05-27T09:22:19Z</time>
      </trkpt>
      <trkpt lat="44.42231" lon="3.59867">
        <ele>1214</ele>
        <time>2022-05-27T09:22:20Z</time>
      </trkpt>
      <trkpt lat="44.42231" lon="3.59866">
        <ele>1215</ele>
        <time>2022-05-27T09:22:21Z</time>
      </trkpt>
      <trkpt lat="44.4223" lon="3.59865">
        <ele>1215</ele>
        <time>2022-05-27T09:22:22Z</time>
      </trkpt>
      <trkpt lat="44.42228" lon="3.59864">
        <ele>1215</ele>
        <time>2022-05-27T09:22:23Z</time>
      </trkpt>
      <trkpt lat="44.42226" lon="3.59863">
        <ele>1214</ele>
        <time>2022-05-27T09:22:24Z</time>
      </trkpt>
      <trkpt lat="44.42225" lon="3.59862">
        <ele>1214</ele>
        <time>2022-05-27T09:22:25Z</time>
      </trkpt>
      <trkpt lat="44.42224" lon="3.59861">
        <ele>1214</ele>
        <time>2022-05-27T09:22:26Z</time>
      </trkpt>
      <trkpt lat="44.42222" lon="3.5986">
        <ele>1215</ele>
        <time>2022-05-27T09:22:27Z</time>
      </trkpt>
      <trkpt lat="44.42221" lon="3.59859">
        <ele>1215</ele>
        <time>2022-05-27T09:22:28Z</time>
      </trkpt>
      <trkpt lat="44.4222" lon="3.59858">
        <ele>1215</ele>
        <time>2022-05-27T09:22:29Z</time>
      </trkpt>
      <trkpt lat="44.42219" lon="3.59857">
        <ele>1215</ele>
        <time>2022-05-27T09:22:30Z</time>
      </trkpt>
      <trkpt lat="44.42218" lon="3.59856">
        <ele>1216</ele>
        <time>2022-05-27T09:22:31Z</time>
      </trkpt>
      <trkpt lat="44.42217" lon="3.59855">
        <ele>1216</ele>
        <time>2022-05-27T09:22:32Z</time>
      </trkpt>
      <trkpt lat="44.42216" lon="3.59854">
        <ele>1216</ele>
        <time>2022-05-27T09:22:33Z</time>
      </trkpt>
      <trkpt lat="44.42215" lon="3.59853">
        <ele>1216</ele>
        <time>2022-05-27T09:22:34Z</time>
      </trkpt>
      <trkpt lat="44.42213" lon="3.59853">
        <ele>1216</ele>
        <time>2022-05-27T09:22:35Z</time>
      </trkpt>
      <trkpt lat="44.42213" lon="3.59853">
        <ele>1217</ele>
        <time>2022-05-27T09:22:36Z</time>
      </trkpt>
      <trkpt lat="44.42212" lon="3.59851">
        <ele>1217</ele>
        <time>2022-05-27T09:22:37Z</time>
      </trkpt>
      <trkpt lat="44.4221" lon="3.5985">
        <ele>1218</ele>
        <time>2022-05-27T09:22:38Z</time>
      </trkpt>
      <trkpt lat="44.42209" lon="3.59848">
        <ele>1218</ele>
        <time>2022-05-27T09:22:39Z</time>
      </trkpt>
      <trkpt lat="44.42209" lon="3.59847">
        <ele>1218</ele>
        <time>2022-05-27T09:22:40Z</time>
      </trkpt>
      <trkpt lat="44.42207" lon="3.59845">
        <ele>1219</ele>
        <time>2022-05-27T09:22:41Z</time>
      </trkpt>
      <trkpt lat="44.42206" lon="3.59844">
        <ele>1219</ele>
        <time>2022-05-27T09:22:42Z</time>
      </trkpt>
      <trkpt lat="44.42205" lon="3.59843">
        <ele>1219</ele>
        <time>2022-05-27T09:22:43Z</time>
      </trkpt>
      <trkpt lat="44.42204" lon="3.59841">
        <ele>1220</ele>
        <time>2022-05-27T09:22:44Z</time>
      </trkpt>
      <trkpt lat="44.42203" lon="3.5984">
        <ele>1220</ele>
        <time>2022-05-27T09:22:45Z</time>
      </trkpt>
      <trkpt lat="44.42202" lon="3.59839">
        <ele>1220</ele>
        <time>2022-05-27T09:22:46Z</time>
      </trkpt>
      <trkpt lat="44.42201" lon="3.59837">
        <ele>1220</ele>
        <time>2022-05-27T09:22:47Z</time>
      </trkpt>
      <trkpt lat="44.42201" lon="3.59836">
        <ele>1220</ele>
        <time>2022-05-27T09:22:48Z</time>
      </trkpt>
      <trkpt lat="44.42199" lon="3.59835">
        <ele>1220</ele>
        <time>2022-05-27T09:22:49Z</time>
      </trkpt>
      <trkpt lat="44.42198" lon="3.59833">
        <ele>1220</ele>
        <time>2022-05-27T09:22:50Z</time>
      </trkpt>
      <trkpt lat="44.42197" lon="3.59832">
        <ele>1220</ele>
        <time>2022-05-27T09:22:51Z</time>
      </trkpt>
      <trkpt lat="44.42196" lon="3.59831">
        <ele>1220</ele>
        <time>2022-05-27T09:22:52Z</time>
      </trkpt>
      <trkpt lat="44.42196" lon="3.5983">
        <ele>1220</ele>
        <time>2022-05-27T09:22:53Z</time>
      </trkpt>
      <trkpt lat="44.42194" lon="3.59829">
        <ele>1220</ele>
        <time>2022-05-27T09:22:54Z</time>
      </trkpt>
      <trkpt lat="44.42193" lon="3.59828">
        <ele>1220</ele>
        <time>2022-05-27T09:22:55Z</time>
      </trkpt>
      <trkpt lat="44.42192" lon="3.59827">
        <ele>1221</ele>
        <time>2022-05-27T09:22:56Z</time>
      </trkpt>
      <trkpt lat="44.42191" lon="3.59826">
        <ele>1222</ele>
        <time>2022-05-27T09:22:57Z</time>
      </trkpt>
      <trkpt lat="44.42189" lon="3.59825">
        <ele>1222</ele>
        <time>2022-05-27T09:22:58Z</time>
      </trkpt>
      <trkpt lat="44.42189" lon="3.59823">
        <ele>1222</ele>
        <time>2022-05-27T09:22:59Z</time>
      </trkpt>
      <trkpt lat="44.42188" lon="3.59822">
        <ele>1222</ele>
        <time>2022-05-27T09:23:00Z</time>
      </trkpt>
      <trkpt lat="44.42186" lon="3.59821">
        <ele>1222</ele>
        <time>2022-05-27T09:23:01Z</time>
      </trkpt>
      <trkpt lat="44.42185" lon="3.5982">
        <ele>1223</ele>
        <time>2022-05-27T09:23:02Z</time>
      </trkpt>
      <trkpt lat="44.42184" lon="3.5982">
        <ele>1223</ele>
        <time>2022-05-27T09:23:03Z</time>
      </trkpt>
      <trkpt lat="44.42184" lon="3.59819">
        <ele>1223</ele>
        <time>2022-05-27T09:23:04Z</time>
      </trkpt>
      <trkpt lat="44.42183" lon="3.59818">
        <ele>1223</ele>
        <time>2022-05-27T09:23:05Z</time>
      </trkpt>
      <trkpt lat="44.42182" lon="3.59817">
        <ele>1223</ele>
        <time>2022-05-27T09:23:07Z</time>
      </trkpt>
      <trkpt lat="44.42181" lon="3.59816">
        <ele>1223</ele>
        <time>2022-05-27T09:23:08Z</time>
      </trkpt>
      <trkpt lat="44.4218" lon="3.59815">
        <ele>1223</ele>
        <time>2022-05-27T09:23:09Z</time>
      </trkpt>
      <trkpt lat="44.42179" lon="3.59813">
        <ele>1223</ele>
        <time>2022-05-27T09:23:10Z</time>
      </trkpt>
      <trkpt lat="44.42178" lon="3.59812">
        <ele>1223</ele>
        <time>2022-05-27T09:23:11Z</time>
      </trkpt>
      <trkpt lat="44.42178" lon="3.59811">
        <ele>1223</ele>
        <time>2022-05-27T09:23:12Z</time>
      </trkpt>
      <trkpt lat="44.42177" lon="3.5981">
        <ele>1223</ele>
        <time>2022-05-27T09:23:13Z</time>
      </trkpt>
      <trkpt lat="44.42176" lon="3.59809">
        <ele>1223</ele>
        <time>2022-05-27T09:23:14Z</time>
      </trkpt>
      <trkpt lat="44.42175" lon="3.59807">
        <ele>1223</ele>
        <time>2022-05-27T09:23:15Z</time>
      </trkpt>
      <trkpt lat="44.42175" lon="3.59805">
        <ele>1223</ele>
        <time>2022-05-27T09:23:16Z</time>
      </trkpt>
      <trkpt lat="44.42173" lon="3.59803">
        <ele>1224</ele>
        <time>2022-05-27T09:23:17Z</time>
      </trkpt>
      <trkpt lat="44.42172" lon="3.59802">
        <ele>1224</ele>
        <time>2022-05-27T09:23:18Z</time>
      </trkpt>
      <trkpt lat="44.42171" lon="3.59801">
        <ele>1224</ele>
        <time>2022-05-27T09:23:19Z</time>
      </trkpt>
      <trkpt lat="44.4217" lon="3.59799">
        <ele>1224</ele>
        <time>2022-05-27T09:23:20Z</time>
      </trkpt>
      <trkpt lat="44.4217" lon="3.59798">
        <ele>1225</ele>
        <time>2022-05-27T09:23:21Z</time>
      </trkpt>
      <trkpt lat="44.42169" lon="3.59796">
        <ele>1225</ele>
        <time>2022-05-27T09:23:22Z</time>
      </trkpt>
      <trkpt lat="44.42168" lon="3.59795">
        <ele>1225</ele>
        <time>2022-05-27T09:23:23Z</time>
      </trkpt>
      <trkpt lat="44.42168" lon="3.59794">
        <ele>1225</ele>
        <time>2022-05-27T09:23:24Z</time>
      </trkpt>
      <trkpt lat="44.42167" lon="3.59792">
        <ele>1226</ele>
        <time>2022-05-27T09:23:25Z</time>
      </trkpt>
      <trkpt lat="44.42166" lon="3.59791">
        <ele>1226</ele>
        <time>2022-05-27T09:23:26Z</time>
      </trkpt>
      <trkpt lat="44.42165" lon="3.5979">
        <ele>1226</ele>
        <time>2022-05-27T09:23:27Z</time>
      </trkpt>
      <trkpt lat="44.42165" lon="3.5979">
        <ele>1227</ele>
        <time>2022-05-27T09:23:28Z</time>
      </trkpt>
      <trkpt lat="44.42165" lon="3.5979">
        <ele>1227</ele>
        <time>2022-05-27T09:23:29Z</time>
      </trkpt>
      <trkpt lat="44.42165" lon="3.59791">
        <ele>1228</ele>
        <time>2022-05-27T09:23:30Z</time>
      </trkpt>
      <trkpt lat="44.42165" lon="3.59792">
        <ele>1229</ele>
        <time>2022-05-27T09:23:31Z</time>
      </trkpt>
      <trkpt lat="44.42165" lon="3.59792">
        <ele>1229</ele>
        <time>2022-05-27T09:23:32Z</time>
      </trkpt>
      <trkpt lat="44.42165" lon="3.59792">
        <ele>1229</ele>
        <time>2022-05-27T09:23:33Z</time>
      </trkpt>
      <trkpt lat="44.42165" lon="3.59792">
        <ele>1229</ele>
        <time>2022-05-27T09:23:34Z</time>
      </trkpt>
      <trkpt lat="44.42165" lon="3.59792">
        <ele>1229</ele>
        <time>2022-05-27T09:23:35Z</time>
      </trkpt>
      <trkpt lat="44.42165" lon="3.59792">
        <ele>1229</ele>
        <time>2022-05-27T09:23:35Z</time>
      </trkpt>
      <trkpt lat="44.42165" lon="3.59792">
        <ele>1229</ele>
        <time>2022-05-27T09:23:35Z</time>
      </trkpt>
      <trkpt lat="44.42164" lon="3.59788">
        <ele>1228</ele>
        <time>2022-05-27T09:23:41Z</time>
      </trkpt>
      <trkpt lat="44.42164" lon="3.59787">
        <ele>1228</ele>
        <time>2022-05-27T09:23:42Z</time>
      </trkpt>
      <trkpt lat="44.42163" lon="3.59785">
        <ele>1228</ele>
        <time>2022-05-27T09:23:43Z</time>
      </trkpt>
      <trkpt lat="44.42161" lon="3.59784">
        <ele>1228</ele>
        <time>2022-05-27T09:23:44Z</time>
      </trkpt>
      <trkpt lat="44.4216" lon="3.59782">
        <ele>1228</ele>
        <time>2022-05-27T09:23:45Z</time>
      </trkpt>
      <trkpt lat="44.42159" lon="3.59781">
        <ele>1228</ele>
        <time>2022-05-27T09:23:46Z</time>
      </trkpt>
      <trkpt lat="44.42158" lon="3.59779">
        <ele>1228</ele>
        <time>2022-05-27T09:23:47Z</time>
      </trkpt>
      <trkpt lat="44.42157" lon="3.59778">
        <ele>1228</ele>
        <time>2022-05-27T09:23:48Z</time>
      </trkpt>
      <trkpt lat="44.42156" lon="3.59776">
        <ele>1228</ele>
        <time>2022-05-27T09:23:49Z</time>
      </trkpt>
      <trkpt lat="44.42156" lon="3.59774">
        <ele>1228</ele>
        <time>2022-05-27T09:23:50Z</time>
      </trkpt>
      <trkpt lat="44.42155" lon="3.59773">
        <ele>1228</ele>
        <time>2022-05-27T09:23:51Z</time>
      </trkpt>
      <trkpt lat="44.42154" lon="3.59772">
        <ele>1228</ele>
        <time>2022-05-27T09:23:52Z</time>
      </trkpt>
      <trkpt lat="44.42153" lon="3.5977">
        <ele>1228</ele>
        <time>2022-05-27T09:23:53Z</time>
      </trkpt>
      <trkpt lat="44.42152" lon="3.59769">
        <ele>1227</ele>
        <time>2022-05-27T09:23:54Z</time>
      </trkpt>
      <trkpt lat="44.42151" lon="3.59768">
        <ele>1227</ele>
        <time>2022-05-27T09:23:55Z</time>
      </trkpt>
      <trkpt lat="44.4215" lon="3.59766">
        <ele>1227</ele>
        <time>2022-05-27T09:23:56Z</time>
      </trkpt>
      <trkpt lat="44.42149" lon="3.59765">
        <ele>1227</ele>
        <time>2022-05-27T09:23:57Z</time>
      </trkpt>
      <trkpt lat="44.42147" lon="3.59763">
        <ele>1227</ele>
        <time>2022-05-27T09:23:58Z</time>
      </trkpt>
      <trkpt lat="44.42146" lon="3.59762">
        <ele>1227</ele>
        <time>2022-05-27T09:23:59Z</time>
      </trkpt>
      <trkpt lat="44.42145" lon="3.59761">
        <ele>1227</ele>
        <time>2022-05-27T09:24:00Z</time>
      </trkpt>
      <trkpt lat="44.42144" lon="3.5976">
        <ele>1227</ele>
        <time>2022-05-27T09:24:01Z</time>
      </trkpt>
      <trkpt lat="44.42143" lon="3.59758">
        <ele>1227</ele>
        <time>2022-05-27T09:24:02Z</time>
      </trkpt>
      <trkpt lat="44.42142" lon="3.59757">
        <ele>1227</ele>
        <time>2022-05-27T09:24:03Z</time>
      </trkpt>
      <trkpt lat="44.42141" lon="3.59756">
        <ele>1227</ele>
        <time>2022-05-27T09:24:04Z</time>
      </trkpt>
      <trkpt lat="44.4214" lon="3.59755">
        <ele>1227</ele>
        <time>2022-05-27T09:24:05Z</time>
      </trkpt>
      <trkpt lat="44.42139" lon="3.59754">
        <ele>1227</ele>
        <time>2022-05-27T09:24:06Z</time>
      </trkpt>
      <trkpt lat="44.42138" lon="3.59753">
        <ele>1227</ele>
        <time>2022-05-27T09:24:07Z</time>
      </trkpt>
      <trkpt lat="44.42136" lon="3.59752">
        <ele>1227</ele>
        <time>2022-05-27T09:24:08Z</time>
      </trkpt>
      <trkpt lat="44.42135" lon="3.59751">
        <ele>1227</ele>
        <time>2022-05-27T09:24:09Z</time>
      </trkpt>
      <trkpt lat="44.42134" lon="3.5975">
        <ele>1227</ele>
        <time>2022-05-27T09:24:10Z</time>
      </trkpt>
      <trkpt lat="44.42133" lon="3.59749">
        <ele>1226</ele>
        <time>2022-05-27T09:24:11Z</time>
      </trkpt>
      <trkpt lat="44.42131" lon="3.59747">
        <ele>1226</ele>
        <time>2022-05-27T09:24:12Z</time>
      </trkpt>
      <trkpt lat="44.4213" lon="3.59746">
        <ele>1226</ele>
        <time>2022-05-27T09:24:13Z</time>
      </trkpt>
      <trkpt lat="44.42129" lon="3.59746">
        <ele>1226</ele>
        <time>2022-05-27T09:24:14Z</time>
      </trkpt>
      <trkpt lat="44.42128" lon="3.59744">
        <ele>1226</ele>
        <time>2022-05-27T09:24:15Z</time>
      </trkpt>
      <trkpt lat="44.42127" lon="3.59743">
        <ele>1226</ele>
        <time>2022-05-27T09:24:16Z</time>
      </trkpt>
      <trkpt lat="44.42127" lon="3.59741">
        <ele>1227</ele>
        <time>2022-05-27T09:24:17Z</time>
      </trkpt>
      <trkpt lat="44.42126" lon="3.5974">
        <ele>1227</ele>
        <time>2022-05-27T09:24:18Z</time>
      </trkpt>
      <trkpt lat="44.42125" lon="3.59738">
        <ele>1226</ele>
        <time>2022-05-27T09:24:19Z</time>
      </trkpt>
      <trkpt lat="44.42124" lon="3.59737">
        <ele>1225</ele>
        <time>2022-05-27T09:24:20Z</time>
      </trkpt>
      <trkpt lat="44.42123" lon="3.59736">
        <ele>1225</ele>
        <time>2022-05-27T09:24:21Z</time>
      </trkpt>
      <trkpt lat="44.42122" lon="3.59736">
        <ele>1224</ele>
        <time>2022-05-27T09:24:22Z</time>
      </trkpt>
      <trkpt lat="44.42121" lon="3.59735">
        <ele>1224</ele>
        <time>2022-05-27T09:24:23Z</time>
      </trkpt>
      <trkpt lat="44.4212" lon="3.59734">
        <ele>1223</ele>
        <time>2022-05-27T09:24:24Z</time>
      </trkpt>
      <trkpt lat="44.42119" lon="3.59734">
        <ele>1222</ele>
        <time>2022-05-27T09:24:25Z</time>
      </trkpt>
      <trkpt lat="44.42119" lon="3.59733">
        <ele>1222</ele>
        <time>2022-05-27T09:24:26Z</time>
      </trkpt>
      <trkpt lat="44.42118" lon="3.59733">
        <ele>1222</ele>
        <time>2022-05-27T09:24:27Z</time>
      </trkpt>
      <trkpt lat="44.42117" lon="3.59732">
        <ele>1222</ele>
        <time>2022-05-27T09:24:28Z</time>
      </trkpt>
      <trkpt lat="44.42115" lon="3.59731">
        <ele>1222</ele>
        <time>2022-05-27T09:24:29Z</time>
      </trkpt>
      <trkpt lat="44.42115" lon="3.5973">
        <ele>1222</ele>
        <time>2022-05-27T09:24:30Z</time>
      </trkpt>
      <trkpt lat="44.42114" lon="3.59729">
        <ele>1222</ele>
        <time>2022-05-27T09:24:31Z</time>
      </trkpt>
      <trkpt lat="44.42113" lon="3.59727">
        <ele>1222</ele>
        <time>2022-05-27T09:24:32Z</time>
      </trkpt>
      <trkpt lat="44.42112" lon="3.59725">
        <ele>1222</ele>
        <time>2022-05-27T09:24:33Z</time>
      </trkpt>
      <trkpt lat="44.4211" lon="3.59724">
        <ele>1222</ele>
        <time>2022-05-27T09:24:34Z</time>
      </trkpt>
      <trkpt lat="44.4211" lon="3.59722">
        <ele>1222</ele>
        <time>2022-05-27T09:24:35Z</time>
      </trkpt>
      <trkpt lat="44.42108" lon="3.59721">
        <ele>1222</ele>
        <time>2022-05-27T09:24:36Z</time>
      </trkpt>
      <trkpt lat="44.42107" lon="3.59719">
        <ele>1221</ele>
        <time>2022-05-27T09:24:37Z</time>
      </trkpt>
      <trkpt lat="44.42106" lon="3.59718">
        <ele>1221</ele>
        <time>2022-05-27T09:24:38Z</time>
      </trkpt>
      <trkpt lat="44.42105" lon="3.59717">
        <ele>1221</ele>
        <time>2022-05-27T09:24:39Z</time>
      </trkpt>
      <trkpt lat="44.42104" lon="3.59716">
        <ele>1221</ele>
        <time>2022-05-27T09:24:40Z</time>
      </trkpt>
      <trkpt lat="44.42103" lon="3.59715">
        <ele>1220</ele>
        <time>2022-05-27T09:24:41Z</time>
      </trkpt>
      <trkpt lat="44.42103" lon="3.59714">
        <ele>1220</ele>
        <time>2022-05-27T09:24:42Z</time>
      </trkpt>
      <trkpt lat="44.42102" lon="3.59712">
        <ele>1220</ele>
        <time>2022-05-27T09:24:43Z</time>
      </trkpt>
      <trkpt lat="44.42101" lon="3.59711">
        <ele>1220</ele>
        <time>2022-05-27T09:24:44Z</time>
      </trkpt>
      <trkpt lat="44.42101" lon="3.5971">
        <ele>1220</ele>
        <time>2022-05-27T09:24:45Z</time>
      </trkpt>
      <trkpt lat="44.421" lon="3.59709">
        <ele>1220</ele>
        <time>2022-05-27T09:24:46Z</time>
      </trkpt>
      <trkpt lat="44.42099" lon="3.59708">
        <ele>1221</ele>
        <time>2022-05-27T09:24:47Z</time>
      </trkpt>
      <trkpt lat="44.42099" lon="3.59707">
        <ele>1221</ele>
        <time>2022-05-27T09:24:48Z</time>
      </trkpt>
      <trkpt lat="44.42098" lon="3.59706">
        <ele>1221</ele>
        <time>2022-05-27T09:24:49Z</time>
      </trkpt>
      <trkpt lat="44.42097" lon="3.59706">
        <ele>1221</ele>
        <time>2022-05-27T09:24:50Z</time>
      </trkpt>
      <trkpt lat="44.42096" lon="3.59707">
        <ele>1221</ele>
        <time>2022-05-27T09:24:51Z</time>
      </trkpt>
      <trkpt lat="44.42095" lon="3.59706">
        <ele>1221</ele>
        <time>2022-05-27T09:24:52Z</time>
      </trkpt>
      <trkpt lat="44.42094" lon="3.59707">
        <ele>1220</ele>
        <time>2022-05-27T09:24:53Z</time>
      </trkpt>
      <trkpt lat="44.42093" lon="3.59706">
        <ele>1220</ele>
        <time>2022-05-27T09:24:54Z</time>
      </trkpt>
      <trkpt lat="44.42092" lon="3.59706">
        <ele>1221</ele>
        <time>2022-05-27T09:24:55Z</time>
      </trkpt>
      <trkpt lat="44.42091" lon="3.59705">
        <ele>1221</ele>
        <time>2022-05-27T09:24:56Z</time>
      </trkpt>
      <trkpt lat="44.4209" lon="3.59705">
        <ele>1220</ele>
        <time>2022-05-27T09:24:57Z</time>
      </trkpt>
      <trkpt lat="44.4209" lon="3.59704">
        <ele>1220</ele>
        <time>2022-05-27T09:24:58Z</time>
      </trkpt>
      <trkpt lat="44.42088" lon="3.59703">
        <ele>1220</ele>
        <time>2022-05-27T09:24:59Z</time>
      </trkpt>
      <trkpt lat="44.42087" lon="3.59702">
        <ele>1220</ele>
        <time>2022-05-27T09:25:00Z</time>
      </trkpt>
      <trkpt lat="44.42086" lon="3.59701">
        <ele>1220</ele>
        <time>2022-05-27T09:25:01Z</time>
      </trkpt>
      <trkpt lat="44.42085" lon="3.59701">
        <ele>1220</ele>
        <time>2022-05-27T09:25:02Z</time>
      </trkpt>
      <trkpt lat="44.42085" lon="3.597">
        <ele>1221</ele>
        <time>2022-05-27T09:25:03Z</time>
      </trkpt>
      <trkpt lat="44.42084" lon="3.597">
        <ele>1221</ele>
        <time>2022-05-27T09:25:04Z</time>
      </trkpt>
      <trkpt lat="44.42083" lon="3.59699">
        <ele>1221</ele>
        <time>2022-05-27T09:25:05Z</time>
      </trkpt>
      <trkpt lat="44.42083" lon="3.59699">
        <ele>1220</ele>
        <time>2022-05-27T09:25:06Z</time>
      </trkpt>
      <trkpt lat="44.42083" lon="3.597">
        <ele>1220</ele>
        <time>2022-05-27T09:25:07Z</time>
      </trkpt>
      <trkpt lat="44.42082" lon="3.597">
        <ele>1219</ele>
        <time>2022-05-27T09:25:08Z</time>
      </trkpt>
      <trkpt lat="44.42081" lon="3.59701">
        <ele>1219</ele>
        <time>2022-05-27T09:25:09Z</time>
      </trkpt>
      <trkpt lat="44.4208" lon="3.597">
        <ele>1219</ele>
        <time>2022-05-27T09:25:10Z</time>
      </trkpt>
      <trkpt lat="44.4208" lon="3.597">
        <ele>1220</ele>
        <time>2022-05-27T09:25:11Z</time>
      </trkpt>
      <trkpt lat="44.42079" lon="3.59701">
        <ele>1220</ele>
        <time>2022-05-27T09:25:12Z</time>
      </trkpt>
      <trkpt lat="44.42079" lon="3.59702">
        <ele>1219</ele>
        <time>2022-05-27T09:25:13Z</time>
      </trkpt>
      <trkpt lat="44.42079" lon="3.59702">
        <ele>1220</ele>
        <time>2022-05-27T09:25:14Z</time>
      </trkpt>
      <trkpt lat="44.42079" lon="3.59703">
        <ele>1219</ele>
        <time>2022-05-27T09:25:15Z</time>
      </trkpt>
      <trkpt lat="44.42079" lon="3.59703">
        <ele>1218</ele>
        <time>2022-05-27T09:25:16Z</time>
      </trkpt>
      <trkpt lat="44.42079" lon="3.59704">
        <ele>1218</ele>
        <time>2022-05-27T09:25:17Z</time>
      </trkpt>
      <trkpt lat="44.42079" lon="3.59705">
        <ele>1218</ele>
        <time>2022-05-27T09:25:18Z</time>
      </trkpt>
      <trkpt lat="44.42078" lon="3.59706">
        <ele>1217</ele>
        <time>2022-05-27T09:25:19Z</time>
      </trkpt>
      <trkpt lat="44.42078" lon="3.59706">
        <ele>1216</ele>
        <time>2022-05-27T09:25:20Z</time>
      </trkpt>
      <trkpt lat="44.42078" lon="3.59705">
        <ele>1216</ele>
        <time>2022-05-27T09:25:21Z</time>
      </trkpt>
      <trkpt lat="44.42077" lon="3.59705">
        <ele>1216</ele>
        <time>2022-05-27T09:25:22Z</time>
      </trkpt>
      <trkpt lat="44.42076" lon="3.59704">
        <ele>1216</ele>
        <time>2022-05-27T09:25:23Z</time>
      </trkpt>
      <trkpt lat="44.42075" lon="3.59703">
        <ele>1216</ele>
        <time>2022-05-27T09:25:24Z</time>
      </trkpt>
      <trkpt lat="44.42074" lon="3.59703">
        <ele>1215</ele>
        <time>2022-05-27T09:25:25Z</time>
      </trkpt>
      <trkpt lat="44.42074" lon="3.59703">
        <ele>1214</ele>
        <time>2022-05-27T09:25:26Z</time>
      </trkpt>
      <trkpt lat="44.42074" lon="3.59703">
        <ele>1214</ele>
        <time>2022-05-27T09:25:27Z</time>
      </trkpt>
      <trkpt lat="44.42073" lon="3.59702">
        <ele>1214</ele>
        <time>2022-05-27T09:25:28Z</time>
      </trkpt>
      <trkpt lat="44.42072" lon="3.59701">
        <ele>1214</ele>
        <time>2022-05-27T09:25:29Z</time>
      </trkpt>
      <trkpt lat="44.42072" lon="3.59699">
        <ele>1215</ele>
        <time>2022-05-27T09:25:30Z</time>
      </trkpt>
      <trkpt lat="44.42072" lon="3.59699">
        <ele>1215</ele>
        <time>2022-05-27T09:25:31Z</time>
      </trkpt>
      <trkpt lat="44.42071" lon="3.597">
        <ele>1215</ele>
        <time>2022-05-27T09:25:32Z</time>
      </trkpt>
      <trkpt lat="44.42071" lon="3.597">
        <ele>1214</ele>
        <time>2022-05-27T09:25:33Z</time>
      </trkpt>
      <trkpt lat="44.42071" lon="3.597">
        <ele>1214</ele>
        <time>2022-05-27T09:25:33Z</time>
      </trkpt>
      <trkpt lat="44.42071" lon="3.597">
        <ele>1214</ele>
        <time>2022-05-27T09:25:33Z</time>
      </trkpt>
      <trkpt lat="44.42069" lon="3.59697">
        <ele>1216</ele>
        <time>2022-05-27T09:25:39Z</time>
      </trkpt>
      <trkpt lat="44.42068" lon="3.59695">
        <ele>1216</ele>
        <time>2022-05-27T09:25:40Z</time>
      </trkpt>
      <trkpt lat="44.42067" lon="3.59694">
        <ele>1216</ele>
        <time>2022-05-27T09:25:41Z</time>
      </trkpt>
      <trkpt lat="44.42067" lon="3.59693">
        <ele>1217</ele>
        <time>2022-05-27T09:25:42Z</time>
      </trkpt>
      <trkpt lat="44.42067" lon="3.59693">
        <ele>1217</ele>
        <time>2022-05-27T09:25:43Z</time>
      </trkpt>
      <trkpt lat="44.42066" lon="3.59692">
        <ele>1216</ele>
        <time>2022-05-27T09:25:44Z</time>
      </trkpt>
      <trkpt lat="44.42065" lon="3.59691">
        <ele>1216</ele>
        <time>2022-05-27T09:25:45Z</time>
      </trkpt>
      <trkpt lat="44.42065" lon="3.59691">
        <ele>1215</ele>
        <time>2022-05-27T09:25:46Z</time>
      </trkpt>
      <trkpt lat="44.42065" lon="3.59692">
        <ele>1215</ele>
        <time>2022-05-27T09:25:47Z</time>
      </trkpt>
      <trkpt lat="44.42064" lon="3.59692">
        <ele>1215</ele>
        <time>2022-05-27T09:25:48Z</time>
      </trkpt>
      <trkpt lat="44.42062" lon="3.59692">
        <ele>1215</ele>
        <time>2022-05-27T09:25:49Z</time>
      </trkpt>
      <trkpt lat="44.42061" lon="3.59692">
        <ele>1216</ele>
        <time>2022-05-27T09:25:50Z</time>
      </trkpt>
      <trkpt lat="44.4206" lon="3.59692">
        <ele>1216</ele>
        <time>2022-05-27T09:25:51Z</time>
      </trkpt>
      <trkpt lat="44.42059" lon="3.59692">
        <ele>1216</ele>
        <time>2022-05-27T09:25:52Z</time>
      </trkpt>
      <trkpt lat="44.42057" lon="3.59692">
        <ele>1216</ele>
        <time>2022-05-27T09:25:53Z</time>
      </trkpt>
      <trkpt lat="44.42056" lon="3.59693">
        <ele>1215</ele>
        <time>2022-05-27T09:25:54Z</time>
      </trkpt>
      <trkpt lat="44.42054" lon="3.59694">
        <ele>1215</ele>
        <time>2022-05-27T09:25:55Z</time>
      </trkpt>
      <trkpt lat="44.42054" lon="3.59695">
        <ele>1214</ele>
        <time>2022-05-27T09:25:56Z</time>
      </trkpt>
      <trkpt lat="44.42053" lon="3.59695">
        <ele>1214</ele>
        <time>2022-05-27T09:25:57Z</time>
      </trkpt>
      <trkpt lat="44.42051" lon="3.59695">
        <ele>1214</ele>
        <time>2022-05-27T09:25:58Z</time>
      </trkpt>
      <trkpt lat="44.4205" lon="3.59695">
        <ele>1214</ele>
        <time>2022-05-27T09:25:59Z</time>
      </trkpt>
      <trkpt lat="44.42049" lon="3.59695">
        <ele>1214</ele>
        <time>2022-05-27T09:26:00Z</time>
      </trkpt>
      <trkpt lat="44.42049" lon="3.59695">
        <ele>1213</ele>
        <time>2022-05-27T09:26:01Z</time>
      </trkpt>
      <trkpt lat="44.42048" lon="3.59695">
        <ele>1213</ele>
        <time>2022-05-27T09:26:02Z</time>
      </trkpt>
      <trkpt lat="44.42047" lon="3.59694">
        <ele>1212</ele>
        <time>2022-05-27T09:26:03Z</time>
      </trkpt>
      <trkpt lat="44.42046" lon="3.59694">
        <ele>1213</ele>
        <time>2022-05-27T09:26:04Z</time>
      </trkpt>
      <trkpt lat="44.42046" lon="3.59694">
        <ele>1212</ele>
        <time>2022-05-27T09:26:05Z</time>
      </trkpt>
      <trkpt lat="44.42045" lon="3.59694">
        <ele>1211</ele>
        <time>2022-05-27T09:26:06Z</time>
      </trkpt>
      <trkpt lat="44.42044" lon="3.59693">
        <ele>1211</ele>
        <time>2022-05-27T09:26:07Z</time>
      </trkpt>
      <trkpt lat="44.42043" lon="3.59692">
        <ele>1211</ele>
        <time>2022-05-27T09:26:08Z</time>
      </trkpt>
      <trkpt lat="44.42042" lon="3.59692">
        <ele>1211</ele>
        <time>2022-05-27T09:26:09Z</time>
      </trkpt>
      <trkpt lat="44.42041" lon="3.59691">
        <ele>1210</ele>
        <time>2022-05-27T09:26:10Z</time>
      </trkpt>
      <trkpt lat="44.4204" lon="3.5969">
        <ele>1210</ele>
        <time>2022-05-27T09:26:11Z</time>
      </trkpt>
      <trkpt lat="44.42039" lon="3.5969">
        <ele>1210</ele>
        <time>2022-05-27T09:26:12Z</time>
      </trkpt>
      <trkpt lat="44.42038" lon="3.59689">
        <ele>1210</ele>
        <time>2022-05-27T09:26:13Z</time>
      </trkpt>
      <trkpt lat="44.42037" lon="3.59689">
        <ele>1210</ele>
        <time>2022-05-27T09:26:14Z</time>
      </trkpt>
      <trkpt lat="44.42036" lon="3.59688">
        <ele>1209</ele>
        <time>2022-05-27T09:26:15Z</time>
      </trkpt>
      <trkpt lat="44.42035" lon="3.59688">
        <ele>1209</ele>
        <time>2022-05-27T09:26:16Z</time>
      </trkpt>
      <trkpt lat="44.42034" lon="3.59688">
        <ele>1208</ele>
        <time>2022-05-27T09:26:17Z</time>
      </trkpt>
      <trkpt lat="44.42033" lon="3.59688">
        <ele>1208</ele>
        <time>2022-05-27T09:26:18Z</time>
      </trkpt>
      <trkpt lat="44.42032" lon="3.59687">
        <ele>1208</ele>
        <time>2022-05-27T09:26:19Z</time>
      </trkpt>
      <trkpt lat="44.4203" lon="3.59686">
        <ele>1208</ele>
        <time>2022-05-27T09:26:20Z</time>
      </trkpt>
      <trkpt lat="44.4203" lon="3.59686">
        <ele>1208</ele>
        <time>2022-05-27T09:26:21Z</time>
      </trkpt>
      <trkpt lat="44.4203" lon="3.59687">
        <ele>1209</ele>
        <time>2022-05-27T09:26:22Z</time>
      </trkpt>
      <trkpt lat="44.42029" lon="3.59687">
        <ele>1209</ele>
        <time>2022-05-27T09:26:23Z</time>
      </trkpt>
      <trkpt lat="44.42029" lon="3.59688">
        <ele>1210</ele>
        <time>2022-05-27T09:26:24Z</time>
      </trkpt>
      <trkpt lat="44.42028" lon="3.59688">
        <ele>1209</ele>
        <time>2022-05-27T09:26:25Z</time>
      </trkpt>
      <trkpt lat="44.42027" lon="3.59689">
        <ele>1209</ele>
        <time>2022-05-27T09:26:26Z</time>
      </trkpt>
      <trkpt lat="44.42027" lon="3.59689">
        <ele>1209</ele>
        <time>2022-05-27T09:26:27Z</time>
      </trkpt>
      <trkpt lat="44.42026" lon="3.59689">
        <ele>1209</ele>
        <time>2022-05-27T09:26:28Z</time>
      </trkpt>
      <trkpt lat="44.42025" lon="3.59689">
        <ele>1209</ele>
        <time>2022-05-27T09:26:29Z</time>
      </trkpt>
      <trkpt lat="44.42024" lon="3.5969">
        <ele>1210</ele>
        <time>2022-05-27T09:26:30Z</time>
      </trkpt>
      <trkpt lat="44.42024" lon="3.5969">
        <ele>1211</ele>
        <time>2022-05-27T09:26:31Z</time>
      </trkpt>
      <trkpt lat="44.42024" lon="3.5969">
        <ele>1211</ele>
        <time>2022-05-27T09:26:32Z</time>
      </trkpt>
      <trkpt lat="44.42024" lon="3.5969">
        <ele>1211</ele>
        <time>2022-05-27T09:26:33Z</time>
      </trkpt>
      <trkpt lat="44.42022" lon="3.59691">
        <ele>1211</ele>
        <time>2022-05-27T09:26:34Z</time>
      </trkpt>
      <trkpt lat="44.42022" lon="3.59691">
        <ele>1210</ele>
        <time>2022-05-27T09:26:35Z</time>
      </trkpt>
      <trkpt lat="44.4202" lon="3.59691">
        <ele>1210</ele>
        <time>2022-05-27T09:26:36Z</time>
      </trkpt>
      <trkpt lat="44.42019" lon="3.5969">
        <ele>1210</ele>
        <time>2022-05-27T09:26:37Z</time>
      </trkpt>
      <trkpt lat="44.42019" lon="3.5969">
        <ele>1210</ele>
        <time>2022-05-27T09:26:38Z</time>
      </trkpt>
      <trkpt lat="44.42019" lon="3.59691">
        <ele>1209</ele>
        <time>2022-05-27T09:26:39Z</time>
      </trkpt>
      <trkpt lat="44.42018" lon="3.5969">
        <ele>1209</ele>
        <time>2022-05-27T09:26:40Z</time>
      </trkpt>
      <trkpt lat="44.42018" lon="3.59691">
        <ele>1209</ele>
        <time>2022-05-27T09:26:41Z</time>
      </trkpt>
      <trkpt lat="44.42018" lon="3.59691">
        <ele>1209</ele>
        <time>2022-05-27T09:26:42Z</time>
      </trkpt>
      <trkpt lat="44.42017" lon="3.59691">
        <ele>1210</ele>
        <time>2022-05-27T09:26:43Z</time>
      </trkpt>
      <trkpt lat="44.42017" lon="3.59691">
        <ele>1209</ele>
        <time>2022-05-27T09:26:44Z</time>
      </trkpt>
      <trkpt lat="44.42016" lon="3.5969">
        <ele>1208</ele>
        <time>2022-05-27T09:26:45Z</time>
      </trkpt>
      <trkpt lat="44.42016" lon="3.5969">
        <ele>1208</ele>
        <time>2022-05-27T09:26:46Z</time>
      </trkpt>
      <trkpt lat="44.42015" lon="3.5969">
        <ele>1207</ele>
        <time>2022-05-27T09:26:47Z</time>
      </trkpt>
      <trkpt lat="44.42014" lon="3.59691">
        <ele>1207</ele>
        <time>2022-05-27T09:26:48Z</time>
      </trkpt>
      <trkpt lat="44.42013" lon="3.59691">
        <ele>1208</ele>
        <time>2022-05-27T09:26:49Z</time>
      </trkpt>
      <trkpt lat="44.42012" lon="3.59692">
        <ele>1208</ele>
        <time>2022-05-27T09:26:50Z</time>
      </trkpt>
      <trkpt lat="44.42012" lon="3.59692">
        <ele>1207</ele>
        <time>2022-05-27T09:26:51Z</time>
      </trkpt>
      <trkpt lat="44.42011" lon="3.59692">
        <ele>1207</ele>
        <time>2022-05-27T09:26:52Z</time>
      </trkpt>
      <trkpt lat="44.42009" lon="3.59692">
        <ele>1207</ele>
        <time>2022-05-27T09:26:53Z</time>
      </trkpt>
      <trkpt lat="44.42009" lon="3.59692">
        <ele>1207</ele>
        <time>2022-05-27T09:26:54Z</time>
      </trkpt>
      <trkpt lat="44.42008" lon="3.59693">
        <ele>1206</ele>
        <time>2022-05-27T09:26:55Z</time>
      </trkpt>
      <trkpt lat="44.42007" lon="3.59693">
        <ele>1206</ele>
        <time>2022-05-27T09:26:56Z</time>
      </trkpt>
      <trkpt lat="44.42006" lon="3.59693">
        <ele>1205</ele>
        <time>2022-05-27T09:26:57Z</time>
      </trkpt>
      <trkpt lat="44.42005" lon="3.59693">
        <ele>1205</ele>
        <time>2022-05-27T09:26:58Z</time>
      </trkpt>
      <trkpt lat="44.42004" lon="3.59693">
        <ele>1204</ele>
        <time>2022-05-27T09:26:59Z</time>
      </trkpt>
      <trkpt lat="44.42003" lon="3.59693">
        <ele>1204</ele>
        <time>2022-05-27T09:27:00Z</time>
      </trkpt>
      <trkpt lat="44.42002" lon="3.59693">
        <ele>1204</ele>
        <time>2022-05-27T09:27:01Z</time>
      </trkpt>
      <trkpt lat="44.42001" lon="3.59692">
        <ele>1204</ele>
        <time>2022-05-27T09:27:02Z</time>
      </trkpt>
      <trkpt lat="44.42" lon="3.59692">
        <ele>1204</ele>
        <time>2022-05-27T09:27:03Z</time>
      </trkpt>
      <trkpt lat="44.41999" lon="3.59691">
        <ele>1204</ele>
        <time>2022-05-27T09:27:04Z</time>
      </trkpt>
      <trkpt lat="44.41998" lon="3.59691">
        <ele>1203</ele>
        <time>2022-05-27T09:27:05Z</time>
      </trkpt>
      <trkpt lat="44.41998" lon="3.59691">
        <ele>1204</ele>
        <time>2022-05-27T09:27:06Z</time>
      </trkpt>
      <trkpt lat="44.41997" lon="3.5969">
        <ele>1204</ele>
        <time>2022-05-27T09:27:07Z</time>
      </trkpt>
      <trkpt lat="44.41997" lon="3.5969">
        <ele>1204</ele>
        <time>2022-05-27T09:27:08Z</time>
      </trkpt>
      <trkpt lat="44.41996" lon="3.5969">
        <ele>1203</ele>
        <time>2022-05-27T09:27:09Z</time>
      </trkpt>
      <trkpt lat="44.41995" lon="3.5969">
        <ele>1203</ele>
        <time>2022-05-27T09:27:10Z</time>
      </trkpt>
      <trkpt lat="44.41995" lon="3.5969">
        <ele>1203</ele>
        <time>2022-05-27T09:27:11Z</time>
      </trkpt>
      <trkpt lat="44.41994" lon="3.59689">
        <ele>1203</ele>
        <time>2022-05-27T09:27:12Z</time>
      </trkpt>
      <trkpt lat="44.41994" lon="3.59689">
        <ele>1204</ele>
        <time>2022-05-27T09:27:13Z</time>
      </trkpt>
      <trkpt lat="44.41994" lon="3.59689">
        <ele>1203</ele>
        <time>2022-05-27T09:27:14Z</time>
      </trkpt>
      <trkpt lat="44.41994" lon="3.59689">
        <ele>1203</ele>
        <time>2022-05-27T09:27:15Z</time>
      </trkpt>
      <trkpt lat="44.41994" lon="3.59689">
        <ele>1203</ele>
        <time>2022-05-27T09:27:16Z</time>
      </trkpt>
      <trkpt lat="44.41994" lon="3.59689">
        <ele>1203</ele>
        <time>2022-05-27T09:27:17Z</time>
      </trkpt>
      <trkpt lat="44.41994" lon="3.59689">
        <ele>1203</ele>
        <time>2022-05-27T09:27:17Z</time>
      </trkpt>
      <trkpt lat="44.41994" lon="3.59689">
        <ele>1203</ele>
        <time>2022-05-27T09:27:17Z</time>
      </trkpt>
      <trkpt lat="44.41985" lon="3.59695">
        <ele>1205</ele>
        <time>2022-05-27T09:27:33Z</time>
      </trkpt>
      <trkpt lat="44.41984" lon="3.59696">
        <ele>1206</ele>
        <time>2022-05-27T09:27:34Z</time>
      </trkpt>
      <trkpt lat="44.41983" lon="3.59697">
        <ele>1206</ele>
        <time>2022-05-27T09:27:35Z</time>
      </trkpt>
      <trkpt lat="44.41983" lon="3.59698">
        <ele>1206</ele>
        <time>2022-05-27T09:27:36Z</time>
      </trkpt>
      <trkpt lat="44.41982" lon="3.59699">
        <ele>1205</ele>
        <time>2022-05-27T09:27:37Z</time>
      </trkpt>
      <trkpt lat="44.41981" lon="3.59699">
        <ele>1204</ele>
        <time>2022-05-27T09:27:38Z</time>
      </trkpt>
      <trkpt lat="44.41981" lon="3.597">
        <ele>1204</ele>
        <time>2022-05-27T09:27:39Z</time>
      </trkpt>
      <trkpt lat="44.4198" lon="3.59701">
        <ele>1204</ele>
        <time>2022-05-27T09:27:40Z</time>
      </trkpt>
      <trkpt lat="44.4198" lon="3.59701">
        <ele>1204</ele>
        <time>2022-05-27T09:27:41Z</time>
      </trkpt>
      <trkpt lat="44.41979" lon="3.597">
        <ele>1203</ele>
        <time>2022-05-27T09:27:42Z</time>
      </trkpt>
      <trkpt lat="44.41979" lon="3.597">
        <ele>1203</ele>
        <time>2022-05-27T09:27:43Z</time>
      </trkpt>
      <trkpt lat="44.41979" lon="3.597">
        <ele>1203</ele>
        <time>2022-05-27T09:27:44Z</time>
      </trkpt>
      <trkpt lat="44.41978" lon="3.59701">
        <ele>1204</ele>
        <time>2022-05-27T09:27:45Z</time>
      </trkpt>
      <trkpt lat="44.41977" lon="3.59701">
        <ele>1203</ele>
        <time>2022-05-27T09:27:46Z</time>
      </trkpt>
      <trkpt lat="44.41977" lon="3.59702">
        <ele>1202</ele>
        <time>2022-05-27T09:27:47Z</time>
      </trkpt>
      <trkpt lat="44.41977" lon="3.59702">
        <ele>1202</ele>
        <time>2022-05-27T09:27:47Z</time>
      </trkpt>
      <trkpt lat="44.41977" lon="3.59702">
        <ele>1202</ele>
        <time>2022-05-27T09:27:47Z</time>
      </trkpt>
      <trkpt lat="44.41971" lon="3.59703">
        <ele>1200</ele>
        <time>2022-05-27T09:27:57Z</time>
      </trkpt>
      <trkpt lat="44.41969" lon="3.59703">
        <ele>1200</ele>
        <time>2022-05-27T09:27:58Z</time>
      </trkpt>
      <trkpt lat="44.41968" lon="3.59703">
        <ele>1200</ele>
        <time>2022-05-27T09:27:59Z</time>
      </trkpt>
      <trkpt lat="44.41967" lon="3.59702">
        <ele>1200</ele>
        <time>2022-05-27T09:28:00Z</time>
      </trkpt>
      <trkpt lat="44.41966" lon="3.59702">
        <ele>1201</ele>
        <time>2022-05-27T09:28:01Z</time>
      </trkpt>
      <trkpt lat="44.41965" lon="3.59702">
        <ele>1200</ele>
        <time>2022-05-27T09:28:02Z</time>
      </trkpt>
      <trkpt lat="44.41964" lon="3.59701">
        <ele>1201</ele>
        <time>2022-05-27T09:28:03Z</time>
      </trkpt>
      <trkpt lat="44.41963" lon="3.59702">
        <ele>1201</ele>
        <time>2022-05-27T09:28:04Z</time>
      </trkpt>
      <trkpt lat="44.41961" lon="3.59701">
        <ele>1201</ele>
        <time>2022-05-27T09:28:05Z</time>
      </trkpt>
      <trkpt lat="44.4196" lon="3.59701">
        <ele>1201</ele>
        <time>2022-05-27T09:28:06Z</time>
      </trkpt>
      <trkpt lat="44.41959" lon="3.597">
        <ele>1201</ele>
        <time>2022-05-27T09:28:07Z</time>
      </trkpt>
      <trkpt lat="44.41957" lon="3.597">
        <ele>1201</ele>
        <time>2022-05-27T09:28:08Z</time>
      </trkpt>
      <trkpt lat="44.41956" lon="3.597">
        <ele>1201</ele>
        <time>2022-05-27T09:28:09Z</time>
      </trkpt>
      <trkpt lat="44.41955" lon="3.597">
        <ele>1202</ele>
        <time>2022-05-27T09:28:10Z</time>
      </trkpt>
      <trkpt lat="44.41954" lon="3.59701">
        <ele>1202</ele>
        <time>2022-05-27T09:28:11Z</time>
      </trkpt>
      <trkpt lat="44.41954" lon="3.59701">
        <ele>1202</ele>
        <time>2022-05-27T09:28:12Z</time>
      </trkpt>
      <trkpt lat="44.41954" lon="3.59701">
        <ele>1203</ele>
        <time>2022-05-27T09:28:13Z</time>
      </trkpt>
      <trkpt lat="44.41953" lon="3.59701">
        <ele>1203</ele>
        <time>2022-05-27T09:28:14Z</time>
      </trkpt>
      <trkpt lat="44.41952" lon="3.597">
        <ele>1202</ele>
        <time>2022-05-27T09:28:15Z</time>
      </trkpt>
      <trkpt lat="44.4195" lon="3.59701">
        <ele>1203</ele>
        <time>2022-05-27T09:28:16Z</time>
      </trkpt>
      <trkpt lat="44.41949" lon="3.59701">
        <ele>1203</ele>
        <time>2022-05-27T09:28:17Z</time>
      </trkpt>
      <trkpt lat="44.41948" lon="3.59701">
        <ele>1203</ele>
        <time>2022-05-27T09:28:18Z</time>
      </trkpt>
      <trkpt lat="44.41947" lon="3.59702">
        <ele>1203</ele>
        <time>2022-05-27T09:28:19Z</time>
      </trkpt>
      <trkpt lat="44.41946" lon="3.59702">
        <ele>1203</ele>
        <time>2022-05-27T09:28:20Z</time>
      </trkpt>
      <trkpt lat="44.41945" lon="3.59702">
        <ele>1203</ele>
        <time>2022-05-27T09:28:21Z</time>
      </trkpt>
      <trkpt lat="44.41944" lon="3.59702">
        <ele>1204</ele>
        <time>2022-05-27T09:28:22Z</time>
      </trkpt>
      <trkpt lat="44.41943" lon="3.59702">
        <ele>1204</ele>
        <time>2022-05-27T09:28:23Z</time>
      </trkpt>
      <trkpt lat="44.41943" lon="3.59701">
        <ele>1204</ele>
        <time>2022-05-27T09:28:24Z</time>
      </trkpt>
      <trkpt lat="44.41942" lon="3.59701">
        <ele>1204</ele>
        <time>2022-05-27T09:28:25Z</time>
      </trkpt>
      <trkpt lat="44.41941" lon="3.59701">
        <ele>1205</ele>
        <time>2022-05-27T09:28:26Z</time>
      </trkpt>
      <trkpt lat="44.4194" lon="3.59701">
        <ele>1205</ele>
        <time>2022-05-27T09:28:27Z</time>
      </trkpt>
      <trkpt lat="44.41939" lon="3.597">
        <ele>1205</ele>
        <time>2022-05-27T09:28:28Z</time>
      </trkpt>
      <trkpt lat="44.41938" lon="3.597">
        <ele>1204</ele>
        <time>2022-05-27T09:28:29Z</time>
      </trkpt>
      <trkpt lat="44.41937" lon="3.59699">
        <ele>1204</ele>
        <time>2022-05-27T09:28:30Z</time>
      </trkpt>
      <trkpt lat="44.41936" lon="3.59699">
        <ele>1205</ele>
        <time>2022-05-27T09:28:31Z</time>
      </trkpt>
      <trkpt lat="44.41935" lon="3.59699">
        <ele>1205</ele>
        <time>2022-05-27T09:28:32Z</time>
      </trkpt>
      <trkpt lat="44.41934" lon="3.59698">
        <ele>1206</ele>
        <time>2022-05-27T09:28:33Z</time>
      </trkpt>
      <trkpt lat="44.41933" lon="3.59698">
        <ele>1207</ele>
        <time>2022-05-27T09:28:34Z</time>
      </trkpt>
      <trkpt lat="44.41932" lon="3.59697">
        <ele>1207</ele>
        <time>2022-05-27T09:28:35Z</time>
      </trkpt>
      <trkpt lat="44.41932" lon="3.59697">
        <ele>1207</ele>
        <time>2022-05-27T09:28:36Z</time>
      </trkpt>
      <trkpt lat="44.41932" lon="3.59696">
        <ele>1208</ele>
        <time>2022-05-27T09:28:37Z</time>
      </trkpt>
      <trkpt lat="44.4193" lon="3.59695">
        <ele>1208</ele>
        <time>2022-05-27T09:28:38Z</time>
      </trkpt>
      <trkpt lat="44.41929" lon="3.59694">
        <ele>1208</ele>
        <time>2022-05-27T09:28:39Z</time>
      </trkpt>
      <trkpt lat="44.41928" lon="3.59693">
        <ele>1209</ele>
        <time>2022-05-27T09:28:40Z</time>
      </trkpt>
      <trkpt lat="44.41927" lon="3.59693">
        <ele>1209</ele>
        <time>2022-05-27T09:28:41Z</time>
      </trkpt>
      <trkpt lat="44.41926" lon="3.59692">
        <ele>1209</ele>
        <time>2022-05-27T09:28:42Z</time>
      </trkpt>
      <trkpt lat="44.41926" lon="3.59691">
        <ele>1210</ele>
        <time>2022-05-27T09:28:43Z</time>
      </trkpt>
      <trkpt lat="44.41925" lon="3.5969">
        <ele>1210</ele>
        <time>2022-05-27T09:28:44Z</time>
      </trkpt>
      <trkpt lat="44.41924" lon="3.59689">
        <ele>1211</ele>
        <time>2022-05-27T09:28:45Z</time>
      </trkpt>
      <trkpt lat="44.41924" lon="3.59688">
        <ele>1211</ele>
        <time>2022-05-27T09:28:46Z</time>
      </trkpt>
      <trkpt lat="44.41923" lon="3.59688">
        <ele>1212</ele>
        <time>2022-05-27T09:28:47Z</time>
      </trkpt>
      <trkpt lat="44.41922" lon="3.59687">
        <ele>1212</ele>
        <time>2022-05-27T09:28:48Z</time>
      </trkpt>
      <trkpt lat="44.41921" lon="3.59686">
        <ele>1212</ele>
        <time>2022-05-27T09:28:49Z</time>
      </trkpt>
      <trkpt lat="44.4192" lon="3.59685">
        <ele>1213</ele>
        <time>2022-05-27T09:28:50Z</time>
      </trkpt>
      <trkpt lat="44.41919" lon="3.59685">
        <ele>1213</ele>
        <time>2022-05-27T09:28:51Z</time>
      </trkpt>
      <trkpt lat="44.41918" lon="3.59684">
        <ele>1214</ele>
        <time>2022-05-27T09:28:52Z</time>
      </trkpt>
      <trkpt lat="44.41917" lon="3.59683">
        <ele>1214</ele>
        <time>2022-05-27T09:28:53Z</time>
      </trkpt>
      <trkpt lat="44.41917" lon="3.59682">
        <ele>1215</ele>
        <time>2022-05-27T09:28:54Z</time>
      </trkpt>
      <trkpt lat="44.41917" lon="3.59682">
        <ele>1215</ele>
        <time>2022-05-27T09:28:55Z</time>
      </trkpt>
      <trkpt lat="44.41917" lon="3.5968">
        <ele>1216</ele>
        <time>2022-05-27T09:28:56Z</time>
      </trkpt>
      <trkpt lat="44.41916" lon="3.5968">
        <ele>1216</ele>
        <time>2022-05-27T09:28:57Z</time>
      </trkpt>
      <trkpt lat="44.41916" lon="3.59679">
        <ele>1216</ele>
        <time>2022-05-27T09:28:58Z</time>
      </trkpt>
      <trkpt lat="44.41916" lon="3.59679">
        <ele>1216</ele>
        <time>2022-05-27T09:28:59Z</time>
      </trkpt>
      <trkpt lat="44.41915" lon="3.59678">
        <ele>1216</ele>
        <time>2022-05-27T09:29:00Z</time>
      </trkpt>
      <trkpt lat="44.41914" lon="3.59678">
        <ele>1216</ele>
        <time>2022-05-27T09:29:01Z</time>
      </trkpt>
      <trkpt lat="44.41913" lon="3.59677">
        <ele>1216</ele>
        <time>2022-05-27T09:29:02Z</time>
      </trkpt>
      <trkpt lat="44.41912" lon="3.59677">
        <ele>1216</ele>
        <time>2022-05-27T09:29:03Z</time>
      </trkpt>
      <trkpt lat="44.41911" lon="3.59677">
        <ele>1216</ele>
        <time>2022-05-27T09:29:04Z</time>
      </trkpt>
      <trkpt lat="44.41911" lon="3.59677">
        <ele>1216</ele>
        <time>2022-05-27T09:29:05Z</time>
      </trkpt>
      <trkpt lat="44.41911" lon="3.59677">
        <ele>1216</ele>
        <time>2022-05-27T09:29:06Z</time>
      </trkpt>
      <trkpt lat="44.41909" lon="3.59677">
        <ele>1216</ele>
        <time>2022-05-27T09:29:07Z</time>
      </trkpt>
      <trkpt lat="44.41908" lon="3.59677">
        <ele>1215</ele>
        <time>2022-05-27T09:29:08Z</time>
      </trkpt>
      <trkpt lat="44.41907" lon="3.59677">
        <ele>1215</ele>
        <time>2022-05-27T09:29:09Z</time>
      </trkpt>
      <trkpt lat="44.41906" lon="3.59676">
        <ele>1215</ele>
        <time>2022-05-27T09:29:10Z</time>
      </trkpt>
      <trkpt lat="44.41906" lon="3.59676">
        <ele>1215</ele>
        <time>2022-05-27T09:29:11Z</time>
      </trkpt>
      <trkpt lat="44.41906" lon="3.59676">
        <ele>1215</ele>
        <time>2022-05-27T09:29:12Z</time>
      </trkpt>
      <trkpt lat="44.41904" lon="3.59675">
        <ele>1215</ele>
        <time>2022-05-27T09:29:13Z</time>
      </trkpt>
      <trkpt lat="44.41904" lon="3.59675">
        <ele>1215</ele>
        <time>2022-05-27T09:29:14Z</time>
      </trkpt>
      <trkpt lat="44.41903" lon="3.59673">
        <ele>1216</ele>
        <time>2022-05-27T09:29:15Z</time>
      </trkpt>
      <trkpt lat="44.41903" lon="3.59672">
        <ele>1217</ele>
        <time>2022-05-27T09:29:16Z</time>
      </trkpt>
      <trkpt lat="44.41903" lon="3.59672">
        <ele>1217</ele>
        <time>2022-05-27T09:29:17Z</time>
      </trkpt>
      <trkpt lat="44.41902" lon="3.59671">
        <ele>1218</ele>
        <time>2022-05-27T09:29:18Z</time>
      </trkpt>
      <trkpt lat="44.41901" lon="3.5967">
        <ele>1218</ele>
        <time>2022-05-27T09:29:19Z</time>
      </trkpt>
      <trkpt lat="44.41901" lon="3.59669">
        <ele>1218</ele>
        <time>2022-05-27T09:29:20Z</time>
      </trkpt>
      <trkpt lat="44.419" lon="3.59668">
        <ele>1218</ele>
        <time>2022-05-27T09:29:21Z</time>
      </trkpt>
      <trkpt lat="44.419" lon="3.59668">
        <ele>1219</ele>
        <time>2022-05-27T09:29:22Z</time>
      </trkpt>
      <trkpt lat="44.41899" lon="3.59668">
        <ele>1219</ele>
        <time>2022-05-27T09:29:23Z</time>
      </trkpt>
      <trkpt lat="44.41898" lon="3.59668">
        <ele>1218</ele>
        <time>2022-05-27T09:29:24Z</time>
      </trkpt>
      <trkpt lat="44.41898" lon="3.59667">
        <ele>1218</ele>
        <time>2022-05-27T09:29:25Z</time>
      </trkpt>
      <trkpt lat="44.41898" lon="3.59667">
        <ele>1217</ele>
        <time>2022-05-27T09:29:26Z</time>
      </trkpt>
      <trkpt lat="44.41898" lon="3.59667">
        <ele>1217</ele>
        <time>2022-05-27T09:29:26Z</time>
      </trkpt>
      <trkpt lat="44.41898" lon="3.59667">
        <ele>1217</ele>
        <time>2022-05-27T09:29:26Z</time>
      </trkpt>
      <trkpt lat="44.41887" lon="3.59663">
        <ele>1227</ele>
        <time>2022-05-27T09:32:12Z</time>
      </trkpt>
      <trkpt lat="44.41886" lon="3.59663">
        <ele>1227</ele>
        <time>2022-05-27T09:32:13Z</time>
      </trkpt>
      <trkpt lat="44.41885" lon="3.59662">
        <ele>1227</ele>
        <time>2022-05-27T09:32:14Z</time>
      </trkpt>
      <trkpt lat="44.41884" lon="3.59662">
        <ele>1227</ele>
        <time>2022-05-27T09:32:15Z</time>
      </trkpt>
      <trkpt lat="44.41884" lon="3.59662">
        <ele>1227</ele>
        <time>2022-05-27T09:32:16Z</time>
      </trkpt>
      <trkpt lat="44.41882" lon="3.59662">
        <ele>1226</ele>
        <time>2022-05-27T09:32:17Z</time>
      </trkpt>
      <trkpt lat="44.41882" lon="3.59662">
        <ele>1227</ele>
        <time>2022-05-27T09:32:18Z</time>
      </trkpt>
      <trkpt lat="44.41881" lon="3.59662">
        <ele>1227</ele>
        <time>2022-05-27T09:32:19Z</time>
      </trkpt>
      <trkpt lat="44.4188" lon="3.59662">
        <ele>1228</ele>
        <time>2022-05-27T09:32:20Z</time>
      </trkpt>
      <trkpt lat="44.41879" lon="3.59662">
        <ele>1228</ele>
        <time>2022-05-27T09:32:21Z</time>
      </trkpt>
      <trkpt lat="44.41878" lon="3.59663">
        <ele>1227</ele>
        <time>2022-05-27T09:32:22Z</time>
      </trkpt>
      <trkpt lat="44.41877" lon="3.59663">
        <ele>1227</ele>
        <time>2022-05-27T09:32:23Z</time>
      </trkpt>
      <trkpt lat="44.41877" lon="3.59663">
        <ele>1227</ele>
        <time>2022-05-27T09:32:24Z</time>
      </trkpt>
      <trkpt lat="44.41876" lon="3.59663">
        <ele>1226</ele>
        <time>2022-05-27T09:32:25Z</time>
      </trkpt>
      <trkpt lat="44.41875" lon="3.59663">
        <ele>1227</ele>
        <time>2022-05-27T09:32:26Z</time>
      </trkpt>
      <trkpt lat="44.41875" lon="3.59663">
        <ele>1226</ele>
        <time>2022-05-27T09:32:27Z</time>
      </trkpt>
      <trkpt lat="44.41874" lon="3.59664">
        <ele>1226</ele>
        <time>2022-05-27T09:32:28Z</time>
      </trkpt>
      <trkpt lat="44.41874" lon="3.59664">
        <ele>1225</ele>
        <time>2022-05-27T09:32:29Z</time>
      </trkpt>
      <trkpt lat="44.41874" lon="3.59664">
        <ele>1225</ele>
        <time>2022-05-27T09:32:30Z</time>
      </trkpt>
      <trkpt lat="44.41874" lon="3.59664">
        <ele>1225</ele>
        <time>2022-05-27T09:32:31Z</time>
      </trkpt>
      <trkpt lat="44.41872" lon="3.59664">
        <ele>1225</ele>
        <time>2022-05-27T09:32:32Z</time>
      </trkpt>
      <trkpt lat="44.41871" lon="3.59663">
        <ele>1225</ele>
        <time>2022-05-27T09:32:33Z</time>
      </trkpt>
      <trkpt lat="44.41869" lon="3.59662">
        <ele>1224</ele>
        <time>2022-05-27T09:32:34Z</time>
      </trkpt>
      <trkpt lat="44.41867" lon="3.59661">
        <ele>1224</ele>
        <time>2022-05-27T09:32:35Z</time>
      </trkpt>
      <trkpt lat="44.41866" lon="3.59661">
        <ele>1224</ele>
        <time>2022-05-27T09:32:36Z</time>
      </trkpt>
      <trkpt lat="44.41864" lon="3.5966">
        <ele>1224</ele>
        <time>2022-05-27T09:32:37Z</time>
      </trkpt>
      <trkpt lat="44.41863" lon="3.5966">
        <ele>1224</ele>
        <time>2022-05-27T09:32:38Z</time>
      </trkpt>
      <trkpt lat="44.41861" lon="3.59658">
        <ele>1224</ele>
        <time>2022-05-27T09:32:39Z</time>
      </trkpt>
      <trkpt lat="44.41859" lon="3.59658">
        <ele>1224</ele>
        <time>2022-05-27T09:32:40Z</time>
      </trkpt>
      <trkpt lat="44.41859" lon="3.59657">
        <ele>1224</ele>
        <time>2022-05-27T09:32:41Z</time>
      </trkpt>
      <trkpt lat="44.41858" lon="3.59657">
        <ele>1225</ele>
        <time>2022-05-27T09:32:42Z</time>
      </trkpt>
      <trkpt lat="44.41857" lon="3.59657">
        <ele>1224</ele>
        <time>2022-05-27T09:32:43Z</time>
      </trkpt>
      <trkpt lat="44.41856" lon="3.59656">
        <ele>1224</ele>
        <time>2022-05-27T09:32:44Z</time>
      </trkpt>
      <trkpt lat="44.41855" lon="3.59655">
        <ele>1223</ele>
        <time>2022-05-27T09:32:45Z</time>
      </trkpt>
      <trkpt lat="44.41854" lon="3.59654">
        <ele>1223</ele>
        <time>2022-05-27T09:32:46Z</time>
      </trkpt>
      <trkpt lat="44.41853" lon="3.59654">
        <ele>1223</ele>
        <time>2022-05-27T09:32:47Z</time>
      </trkpt>
      <trkpt lat="44.41853" lon="3.59653">
        <ele>1223</ele>
        <time>2022-05-27T09:32:48Z</time>
      </trkpt>
      <trkpt lat="44.41851" lon="3.59653">
        <ele>1223</ele>
        <time>2022-05-27T09:32:49Z</time>
      </trkpt>
      <trkpt lat="44.4185" lon="3.59652">
        <ele>1223</ele>
        <time>2022-05-27T09:32:50Z</time>
      </trkpt>
      <trkpt lat="44.41849" lon="3.59651">
        <ele>1224</ele>
        <time>2022-05-27T09:32:51Z</time>
      </trkpt>
      <trkpt lat="44.41848" lon="3.59651">
        <ele>1223</ele>
        <time>2022-05-27T09:32:52Z</time>
      </trkpt>
      <trkpt lat="44.41848" lon="3.5965">
        <ele>1224</ele>
        <time>2022-05-27T09:32:53Z</time>
      </trkpt>
      <trkpt lat="44.41846" lon="3.5965">
        <ele>1223</ele>
        <time>2022-05-27T09:32:54Z</time>
      </trkpt>
      <trkpt lat="44.41845" lon="3.59649">
        <ele>1223</ele>
        <time>2022-05-27T09:32:55Z</time>
      </trkpt>
      <trkpt lat="44.41843" lon="3.59648">
        <ele>1224</ele>
        <time>2022-05-27T09:32:56Z</time>
      </trkpt>
      <trkpt lat="44.41842" lon="3.59647">
        <ele>1223</ele>
        <time>2022-05-27T09:32:57Z</time>
      </trkpt>
      <trkpt lat="44.4184" lon="3.59646">
        <ele>1223</ele>
        <time>2022-05-27T09:32:58Z</time>
      </trkpt>
      <trkpt lat="44.41839" lon="3.59645">
        <ele>1223</ele>
        <time>2022-05-27T09:32:59Z</time>
      </trkpt>
      <trkpt lat="44.41838" lon="3.59645">
        <ele>1224</ele>
        <time>2022-05-27T09:33:00Z</time>
      </trkpt>
      <trkpt lat="44.41836" lon="3.59644">
        <ele>1224</ele>
        <time>2022-05-27T09:33:01Z</time>
      </trkpt>
      <trkpt lat="44.41835" lon="3.59643">
        <ele>1224</ele>
        <time>2022-05-27T09:33:02Z</time>
      </trkpt>
      <trkpt lat="44.41833" lon="3.59643">
        <ele>1223</ele>
        <time>2022-05-27T09:33:03Z</time>
      </trkpt>
      <trkpt lat="44.41832" lon="3.59643">
        <ele>1223</ele>
        <time>2022-05-27T09:33:04Z</time>
      </trkpt>
      <trkpt lat="44.4183" lon="3.59642">
        <ele>1223</ele>
        <time>2022-05-27T09:33:05Z</time>
      </trkpt>
      <trkpt lat="44.41829" lon="3.59642">
        <ele>1223</ele>
        <time>2022-05-27T09:33:06Z</time>
      </trkpt>
      <trkpt lat="44.41828" lon="3.59641">
        <ele>1223</ele>
        <time>2022-05-27T09:33:07Z</time>
      </trkpt>
      <trkpt lat="44.41827" lon="3.59642">
        <ele>1223</ele>
        <time>2022-05-27T09:33:08Z</time>
      </trkpt>
      <trkpt lat="44.41826" lon="3.59641">
        <ele>1224</ele>
        <time>2022-05-27T09:33:09Z</time>
      </trkpt>
      <trkpt lat="44.41824" lon="3.59641">
        <ele>1224</ele>
        <time>2022-05-27T09:33:10Z</time>
      </trkpt>
      <trkpt lat="44.41823" lon="3.5964">
        <ele>1224</ele>
        <time>2022-05-27T09:33:11Z</time>
      </trkpt>
      <trkpt lat="44.41821" lon="3.59641">
        <ele>1224</ele>
        <time>2022-05-27T09:33:12Z</time>
      </trkpt>
      <trkpt lat="44.4182" lon="3.59641">
        <ele>1224</ele>
        <time>2022-05-27T09:33:13Z</time>
      </trkpt>
      <trkpt lat="44.41819" lon="3.59641">
        <ele>1224</ele>
        <time>2022-05-27T09:33:14Z</time>
      </trkpt>
      <trkpt lat="44.41818" lon="3.59641">
        <ele>1224</ele>
        <time>2022-05-27T09:33:15Z</time>
      </trkpt>
      <trkpt lat="44.41817" lon="3.59641">
        <ele>1224</ele>
        <time>2022-05-27T09:33:16Z</time>
      </trkpt>
      <trkpt lat="44.41816" lon="3.59641">
        <ele>1223</ele>
        <time>2022-05-27T09:33:17Z</time>
      </trkpt>
      <trkpt lat="44.41816" lon="3.5964">
        <ele>1223</ele>
        <time>2022-05-27T09:33:18Z</time>
      </trkpt>
      <trkpt lat="44.41814" lon="3.59641">
        <ele>1223</ele>
        <time>2022-05-27T09:33:19Z</time>
      </trkpt>
      <trkpt lat="44.41813" lon="3.5964">
        <ele>1224</ele>
        <time>2022-05-27T09:33:20Z</time>
      </trkpt>
      <trkpt lat="44.41813" lon="3.5964">
        <ele>1224</ele>
        <time>2022-05-27T09:33:21Z</time>
      </trkpt>
      <trkpt lat="44.41811" lon="3.59639">
        <ele>1225</ele>
        <time>2022-05-27T09:33:22Z</time>
      </trkpt>
      <trkpt lat="44.4181" lon="3.59638">
        <ele>1225</ele>
        <time>2022-05-27T09:33:23Z</time>
      </trkpt>
      <trkpt lat="44.41809" lon="3.59638">
        <ele>1225</ele>
        <time>2022-05-27T09:33:24Z</time>
      </trkpt>
      <trkpt lat="44.41807" lon="3.59638">
        <ele>1225</ele>
        <time>2022-05-27T09:33:25Z</time>
      </trkpt>
      <trkpt lat="44.41806" lon="3.59638">
        <ele>1225</ele>
        <time>2022-05-27T09:33:26Z</time>
      </trkpt>
      <trkpt lat="44.41805" lon="3.59638">
        <ele>1225</ele>
        <time>2022-05-27T09:33:27Z</time>
      </trkpt>
      <trkpt lat="44.41803" lon="3.59637">
        <ele>1225</ele>
        <time>2022-05-27T09:33:28Z</time>
      </trkpt>
      <trkpt lat="44.41802" lon="3.59637">
        <ele>1225</ele>
        <time>2022-05-27T09:33:29Z</time>
      </trkpt>
      <trkpt lat="44.41801" lon="3.59637">
        <ele>1224</ele>
        <time>2022-05-27T09:33:30Z</time>
      </trkpt>
      <trkpt lat="44.418" lon="3.59636">
        <ele>1224</ele>
        <time>2022-05-27T09:33:31Z</time>
      </trkpt>
      <trkpt lat="44.41798" lon="3.59637">
        <ele>1224</ele>
        <time>2022-05-27T09:33:32Z</time>
      </trkpt>
      <trkpt lat="44.41797" lon="3.59637">
        <ele>1224</ele>
        <time>2022-05-27T09:33:33Z</time>
      </trkpt>
      <trkpt lat="44.41796" lon="3.59637">
        <ele>1224</ele>
        <time>2022-05-27T09:33:34Z</time>
      </trkpt>
      <trkpt lat="44.41794" lon="3.59637">
        <ele>1224</ele>
        <time>2022-05-27T09:33:35Z</time>
      </trkpt>
      <trkpt lat="44.41793" lon="3.59638">
        <ele>1223</ele>
        <time>2022-05-27T09:33:36Z</time>
      </trkpt>
      <trkpt lat="44.41792" lon="3.59637">
        <ele>1222</ele>
        <time>2022-05-27T09:33:37Z</time>
      </trkpt>
      <trkpt lat="44.4179" lon="3.59638">
        <ele>1222</ele>
        <time>2022-05-27T09:33:38Z</time>
      </trkpt>
      <trkpt lat="44.41788" lon="3.59638">
        <ele>1221</ele>
        <time>2022-05-27T09:33:39Z</time>
      </trkpt>
      <trkpt lat="44.41787" lon="3.59638">
        <ele>1221</ele>
        <time>2022-05-27T09:33:40Z</time>
      </trkpt>
      <trkpt lat="44.41785" lon="3.59638">
        <ele>1221</ele>
        <time>2022-05-27T09:33:41Z</time>
      </trkpt>
      <trkpt lat="44.41784" lon="3.59638">
        <ele>1221</ele>
        <time>2022-05-27T09:33:42Z</time>
      </trkpt>
      <trkpt lat="44.41782" lon="3.59639">
        <ele>1222</ele>
        <time>2022-05-27T09:33:43Z</time>
      </trkpt>
      <trkpt lat="44.41781" lon="3.59639">
        <ele>1222</ele>
        <time>2022-05-27T09:33:44Z</time>
      </trkpt>
      <trkpt lat="44.41779" lon="3.59639">
        <ele>1222</ele>
        <time>2022-05-27T09:33:45Z</time>
      </trkpt>
      <trkpt lat="44.41778" lon="3.59639">
        <ele>1222</ele>
        <time>2022-05-27T09:33:46Z</time>
      </trkpt>
      <trkpt lat="44.41777" lon="3.5964">
        <ele>1222</ele>
        <time>2022-05-27T09:33:47Z</time>
      </trkpt>
      <trkpt lat="44.41776" lon="3.5964">
        <ele>1222</ele>
        <time>2022-05-27T09:33:48Z</time>
      </trkpt>
      <trkpt lat="44.41775" lon="3.5964">
        <ele>1221</ele>
        <time>2022-05-27T09:33:49Z</time>
      </trkpt>
      <trkpt lat="44.41774" lon="3.5964">
        <ele>1221</ele>
        <time>2022-05-27T09:33:50Z</time>
      </trkpt>
      <trkpt lat="44.41772" lon="3.59641">
        <ele>1221</ele>
        <time>2022-05-27T09:33:51Z</time>
      </trkpt>
      <trkpt lat="44.41771" lon="3.59641">
        <ele>1221</ele>
        <time>2022-05-27T09:33:52Z</time>
      </trkpt>
      <trkpt lat="44.4177" lon="3.59641">
        <ele>1221</ele>
        <time>2022-05-27T09:33:53Z</time>
      </trkpt>
      <trkpt lat="44.41768" lon="3.59641">
        <ele>1222</ele>
        <time>2022-05-27T09:33:54Z</time>
      </trkpt>
      <trkpt lat="44.41767" lon="3.59641">
        <ele>1222</ele>
        <time>2022-05-27T09:33:55Z</time>
      </trkpt>
      <trkpt lat="44.41766" lon="3.59641">
        <ele>1222</ele>
        <time>2022-05-27T09:33:56Z</time>
      </trkpt>
      <trkpt lat="44.41765" lon="3.59641">
        <ele>1222</ele>
        <time>2022-05-27T09:33:57Z</time>
      </trkpt>
      <trkpt lat="44.41763" lon="3.59641">
        <ele>1222</ele>
        <time>2022-05-27T09:33:58Z</time>
      </trkpt>
      <trkpt lat="44.41762" lon="3.5964">
        <ele>1222</ele>
        <time>2022-05-27T09:33:59Z</time>
      </trkpt>
      <trkpt lat="44.41761" lon="3.5964">
        <ele>1222</ele>
        <time>2022-05-27T09:34:00Z</time>
      </trkpt>
      <trkpt lat="44.4176" lon="3.5964">
        <ele>1223</ele>
        <time>2022-05-27T09:34:01Z</time>
      </trkpt>
      <trkpt lat="44.4176" lon="3.5964">
        <ele>1223</ele>
        <time>2022-05-27T09:34:02Z</time>
      </trkpt>
      <trkpt lat="44.4176" lon="3.5964">
        <ele>1223</ele>
        <time>2022-05-27T09:34:03Z</time>
      </trkpt>
      <trkpt lat="44.41759" lon="3.5964">
        <ele>1223</ele>
        <time>2022-05-27T09:34:04Z</time>
      </trkpt>
      <trkpt lat="44.41758" lon="3.5964">
        <ele>1223</ele>
        <time>2022-05-27T09:34:05Z</time>
      </trkpt>
      <trkpt lat="44.41756" lon="3.5964">
        <ele>1223</ele>
        <time>2022-05-27T09:34:06Z</time>
      </trkpt>
      <trkpt lat="44.41755" lon="3.5964">
        <ele>1222</ele>
        <time>2022-05-27T09:34:07Z</time>
      </trkpt>
      <trkpt lat="44.41753" lon="3.5964">
        <ele>1223</ele>
        <time>2022-05-27T09:34:08Z</time>
      </trkpt>
      <trkpt lat="44.41751" lon="3.5964">
        <ele>1222</ele>
        <time>2022-05-27T09:34:09Z</time>
      </trkpt>
      <trkpt lat="44.4175" lon="3.5964">
        <ele>1222</ele>
        <time>2022-05-27T09:34:10Z</time>
      </trkpt>
      <trkpt lat="44.41748" lon="3.59641">
        <ele>1222</ele>
        <time>2022-05-27T09:34:11Z</time>
      </trkpt>
      <trkpt lat="44.41747" lon="3.59641">
        <ele>1222</ele>
        <time>2022-05-27T09:34:12Z</time>
      </trkpt>
      <trkpt lat="44.41746" lon="3.59642">
        <ele>1222</ele>
        <time>2022-05-27T09:34:13Z</time>
      </trkpt>
      <trkpt lat="44.41744" lon="3.59642">
        <ele>1221</ele>
        <time>2022-05-27T09:34:14Z</time>
      </trkpt>
      <trkpt lat="44.41743" lon="3.59643">
        <ele>1222</ele>
        <time>2022-05-27T09:34:15Z</time>
      </trkpt>
      <trkpt lat="44.41742" lon="3.59643">
        <ele>1222</ele>
        <time>2022-05-27T09:34:16Z</time>
      </trkpt>
      <trkpt lat="44.41741" lon="3.59643">
        <ele>1222</ele>
        <time>2022-05-27T09:34:17Z</time>
      </trkpt>
      <trkpt lat="44.4174" lon="3.59643">
        <ele>1221</ele>
        <time>2022-05-27T09:34:18Z</time>
      </trkpt>
      <trkpt lat="44.41739" lon="3.59643">
        <ele>1221</ele>
        <time>2022-05-27T09:34:19Z</time>
      </trkpt>
      <trkpt lat="44.41738" lon="3.59643">
        <ele>1220</ele>
        <time>2022-05-27T09:34:20Z</time>
      </trkpt>
      <trkpt lat="44.41737" lon="3.59643">
        <ele>1219</ele>
        <time>2022-05-27T09:34:21Z</time>
      </trkpt>
      <trkpt lat="44.41736" lon="3.59643">
        <ele>1219</ele>
        <time>2022-05-27T09:34:22Z</time>
      </trkpt>
      <trkpt lat="44.41734" lon="3.59643">
        <ele>1219</ele>
        <time>2022-05-27T09:34:23Z</time>
      </trkpt>
      <trkpt lat="44.41733" lon="3.59643">
        <ele>1219</ele>
        <time>2022-05-27T09:34:24Z</time>
      </trkpt>
      <trkpt lat="44.41731" lon="3.59643">
        <ele>1219</ele>
        <time>2022-05-27T09:34:25Z</time>
      </trkpt>
      <trkpt lat="44.4173" lon="3.59643">
        <ele>1219</ele>
        <time>2022-05-27T09:34:26Z</time>
      </trkpt>
      <trkpt lat="44.41729" lon="3.59643">
        <ele>1218</ele>
        <time>2022-05-27T09:34:27Z</time>
      </trkpt>
      <trkpt lat="44.41727" lon="3.59643">
        <ele>1219</ele>
        <time>2022-05-27T09:34:28Z</time>
      </trkpt>
      <trkpt lat="44.41726" lon="3.59643">
        <ele>1219</ele>
        <time>2022-05-27T09:34:29Z</time>
      </trkpt>
      <trkpt lat="44.41724" lon="3.59643">
        <ele>1219</ele>
        <time>2022-05-27T09:34:30Z</time>
      </trkpt>
      <trkpt lat="44.41723" lon="3.59643">
        <ele>1219</ele>
        <time>2022-05-27T09:34:31Z</time>
      </trkpt>
      <trkpt lat="44.41722" lon="3.59643">
        <ele>1219</ele>
        <time>2022-05-27T09:34:32Z</time>
      </trkpt>
      <trkpt lat="44.41721" lon="3.59643">
        <ele>1219</ele>
        <time>2022-05-27T09:34:33Z</time>
      </trkpt>
      <trkpt lat="44.41719" lon="3.59643">
        <ele>1219</ele>
        <time>2022-05-27T09:34:34Z</time>
      </trkpt>
      <trkpt lat="44.41718" lon="3.59643">
        <ele>1219</ele>
        <time>2022-05-27T09:34:35Z</time>
      </trkpt>
      <trkpt lat="44.41717" lon="3.59643">
        <ele>1219</ele>
        <time>2022-05-27T09:34:36Z</time>
      </trkpt>
      <trkpt lat="44.41715" lon="3.59644">
        <ele>1219</ele>
        <time>2022-05-27T09:34:37Z</time>
      </trkpt>
      <trkpt lat="44.41714" lon="3.59643">
        <ele>1219</ele>
        <time>2022-05-27T09:34:38Z</time>
      </trkpt>
      <trkpt lat="44.41713" lon="3.59643">
        <ele>1219</ele>
        <time>2022-05-27T09:34:39Z</time>
      </trkpt>
      <trkpt lat="44.41712" lon="3.59643">
        <ele>1219</ele>
        <time>2022-05-27T09:34:40Z</time>
      </trkpt>
      <trkpt lat="44.41711" lon="3.59643">
        <ele>1219</ele>
        <time>2022-05-27T09:34:41Z</time>
      </trkpt>
      <trkpt lat="44.4171" lon="3.59643">
        <ele>1219</ele>
        <time>2022-05-27T09:34:42Z</time>
      </trkpt>
      <trkpt lat="44.41708" lon="3.59643">
        <ele>1219</ele>
        <time>2022-05-27T09:34:43Z</time>
      </trkpt>
      <trkpt lat="44.41707" lon="3.59643">
        <ele>1220</ele>
        <time>2022-05-27T09:34:44Z</time>
      </trkpt>
      <trkpt lat="44.41706" lon="3.59642">
        <ele>1219</ele>
        <time>2022-05-27T09:34:45Z</time>
      </trkpt>
      <trkpt lat="44.41705" lon="3.59642">
        <ele>1219</ele>
        <time>2022-05-27T09:34:46Z</time>
      </trkpt>
      <trkpt lat="44.41703" lon="3.59642">
        <ele>1220</ele>
        <time>2022-05-27T09:34:47Z</time>
      </trkpt>
      <trkpt lat="44.41702" lon="3.59642">
        <ele>1220</ele>
        <time>2022-05-27T09:34:48Z</time>
      </trkpt>
      <trkpt lat="44.41701" lon="3.59641">
        <ele>1220</ele>
        <time>2022-05-27T09:34:49Z</time>
      </trkpt>
      <trkpt lat="44.417" lon="3.59641">
        <ele>1220</ele>
        <time>2022-05-27T09:34:50Z</time>
      </trkpt>
      <trkpt lat="44.41698" lon="3.5964">
        <ele>1220</ele>
        <time>2022-05-27T09:34:51Z</time>
      </trkpt>
      <trkpt lat="44.41697" lon="3.5964">
        <ele>1220</ele>
        <time>2022-05-27T09:34:52Z</time>
      </trkpt>
      <trkpt lat="44.41695" lon="3.59639">
        <ele>1220</ele>
        <time>2022-05-27T09:34:53Z</time>
      </trkpt>
      <trkpt lat="44.41694" lon="3.59639">
        <ele>1220</ele>
        <time>2022-05-27T09:34:54Z</time>
      </trkpt>
      <trkpt lat="44.41693" lon="3.59639">
        <ele>1220</ele>
        <time>2022-05-27T09:34:55Z</time>
      </trkpt>
      <trkpt lat="44.41692" lon="3.59638">
        <ele>1220</ele>
        <time>2022-05-27T09:34:56Z</time>
      </trkpt>
      <trkpt lat="44.4169" lon="3.59637">
        <ele>1220</ele>
        <time>2022-05-27T09:34:57Z</time>
      </trkpt>
      <trkpt lat="44.41689" lon="3.59636">
        <ele>1220</ele>
        <time>2022-05-27T09:34:58Z</time>
      </trkpt>
      <trkpt lat="44.41687" lon="3.59636">
        <ele>1220</ele>
        <time>2022-05-27T09:34:59Z</time>
      </trkpt>
      <trkpt lat="44.41686" lon="3.59635">
        <ele>1220</ele>
        <time>2022-05-27T09:35:00Z</time>
      </trkpt>
      <trkpt lat="44.41685" lon="3.59634">
        <ele>1220</ele>
        <time>2022-05-27T09:35:01Z</time>
      </trkpt>
      <trkpt lat="44.41684" lon="3.59633">
        <ele>1221</ele>
        <time>2022-05-27T09:35:02Z</time>
      </trkpt>
      <trkpt lat="44.41683" lon="3.59632">
        <ele>1221</ele>
        <time>2022-05-27T09:35:03Z</time>
      </trkpt>
      <trkpt lat="44.41682" lon="3.59631">
        <ele>1221</ele>
        <time>2022-05-27T09:35:04Z</time>
      </trkpt>
      <trkpt lat="44.41681" lon="3.5963">
        <ele>1222</ele>
        <time>2022-05-27T09:35:05Z</time>
      </trkpt>
      <trkpt lat="44.41681" lon="3.59629">
        <ele>1222</ele>
        <time>2022-05-27T09:35:06Z</time>
      </trkpt>
      <trkpt lat="44.4168" lon="3.59628">
        <ele>1222</ele>
        <time>2022-05-27T09:35:07Z</time>
      </trkpt>
      <trkpt lat="44.41679" lon="3.59627">
        <ele>1222</ele>
        <time>2022-05-27T09:35:08Z</time>
      </trkpt>
      <trkpt lat="44.41678" lon="3.59626">
        <ele>1223</ele>
        <time>2022-05-27T09:35:09Z</time>
      </trkpt>
      <trkpt lat="44.41678" lon="3.59624">
        <ele>1223</ele>
        <time>2022-05-27T09:35:10Z</time>
      </trkpt>
      <trkpt lat="44.41677" lon="3.59623">
        <ele>1223</ele>
        <time>2022-05-27T09:35:11Z</time>
      </trkpt>
      <trkpt lat="44.41676" lon="3.59621">
        <ele>1223</ele>
        <time>2022-05-27T09:35:12Z</time>
      </trkpt>
      <trkpt lat="44.41676" lon="3.5962">
        <ele>1223</ele>
        <time>2022-05-27T09:35:13Z</time>
      </trkpt>
      <trkpt lat="44.41675" lon="3.59619">
        <ele>1223</ele>
        <time>2022-05-27T09:35:14Z</time>
      </trkpt>
      <trkpt lat="44.41674" lon="3.59618">
        <ele>1223</ele>
        <time>2022-05-27T09:35:15Z</time>
      </trkpt>
      <trkpt lat="44.41673" lon="3.59616">
        <ele>1223</ele>
        <time>2022-05-27T09:35:16Z</time>
      </trkpt>
      <trkpt lat="44.41672" lon="3.59615">
        <ele>1223</ele>
        <time>2022-05-27T09:35:17Z</time>
      </trkpt>
      <trkpt lat="44.41672" lon="3.59614">
        <ele>1223</ele>
        <time>2022-05-27T09:35:18Z</time>
      </trkpt>
      <trkpt lat="44.41671" lon="3.59613">
        <ele>1222</ele>
        <time>2022-05-27T09:35:19Z</time>
      </trkpt>
      <trkpt lat="44.4167" lon="3.59611">
        <ele>1222</ele>
        <time>2022-05-27T09:35:20Z</time>
      </trkpt>
      <trkpt lat="44.41669" lon="3.5961">
        <ele>1222</ele>
        <time>2022-05-27T09:35:21Z</time>
      </trkpt>
      <trkpt lat="44.41668" lon="3.59609">
        <ele>1221</ele>
        <time>2022-05-27T09:35:22Z</time>
      </trkpt>
      <trkpt lat="44.41667" lon="3.59608">
        <ele>1222</ele>
        <time>2022-05-27T09:35:23Z</time>
      </trkpt>
      <trkpt lat="44.41667" lon="3.59607">
        <ele>1222</ele>
        <time>2022-05-27T09:35:24Z</time>
      </trkpt>
      <trkpt lat="44.41666" lon="3.59606">
        <ele>1222</ele>
        <time>2022-05-27T09:35:25Z</time>
      </trkpt>
      <trkpt lat="44.41665" lon="3.59606">
        <ele>1222</ele>
        <time>2022-05-27T09:35:26Z</time>
      </trkpt>
      <trkpt lat="44.41665" lon="3.59606">
        <ele>1222</ele>
        <time>2022-05-27T09:35:27Z</time>
      </trkpt>
      <trkpt lat="44.41663" lon="3.59606">
        <ele>1222</ele>
        <time>2022-05-27T09:35:28Z</time>
      </trkpt>
      <trkpt lat="44.41662" lon="3.59606">
        <ele>1222</ele>
        <time>2022-05-27T09:35:29Z</time>
      </trkpt>
      <trkpt lat="44.41661" lon="3.59606">
        <ele>1223</ele>
        <time>2022-05-27T09:35:30Z</time>
      </trkpt>
      <trkpt lat="44.41661" lon="3.59606">
        <ele>1223</ele>
        <time>2022-05-27T09:35:31Z</time>
      </trkpt>
      <trkpt lat="44.4166" lon="3.59607">
        <ele>1223</ele>
        <time>2022-05-27T09:35:32Z</time>
      </trkpt>
      <trkpt lat="44.41658" lon="3.59607">
        <ele>1223</ele>
        <time>2022-05-27T09:35:33Z</time>
      </trkpt>
      <trkpt lat="44.41657" lon="3.59607">
        <ele>1223</ele>
        <time>2022-05-27T09:35:34Z</time>
      </trkpt>
      <trkpt lat="44.41656" lon="3.59608">
        <ele>1223</ele>
        <time>2022-05-27T09:35:35Z</time>
      </trkpt>
      <trkpt lat="44.41655" lon="3.59607">
        <ele>1224</ele>
        <time>2022-05-27T09:35:36Z</time>
      </trkpt>
      <trkpt lat="44.41654" lon="3.59607">
        <ele>1224</ele>
        <time>2022-05-27T09:35:37Z</time>
      </trkpt>
      <trkpt lat="44.41653" lon="3.59606">
        <ele>1224</ele>
        <time>2022-05-27T09:35:38Z</time>
      </trkpt>
      <trkpt lat="44.41653" lon="3.59605">
        <ele>1223</ele>
        <time>2022-05-27T09:35:39Z</time>
      </trkpt>
      <trkpt lat="44.41652" lon="3.59605">
        <ele>1223</ele>
        <time>2022-05-27T09:35:40Z</time>
      </trkpt>
      <trkpt lat="44.41651" lon="3.59604">
        <ele>1223</ele>
        <time>2022-05-27T09:35:41Z</time>
      </trkpt>
      <trkpt lat="44.4165" lon="3.59603">
        <ele>1223</ele>
        <time>2022-05-27T09:35:42Z</time>
      </trkpt>
      <trkpt lat="44.4165" lon="3.59603">
        <ele>1223</ele>
        <time>2022-05-27T09:35:43Z</time>
      </trkpt>
      <trkpt lat="44.41649" lon="3.59602">
        <ele>1224</ele>
        <time>2022-05-27T09:35:44Z</time>
      </trkpt>
      <trkpt lat="44.41647" lon="3.59602">
        <ele>1224</ele>
        <time>2022-05-27T09:35:45Z</time>
      </trkpt>
      <trkpt lat="44.41646" lon="3.59602">
        <ele>1224</ele>
        <time>2022-05-27T09:35:46Z</time>
      </trkpt>
      <trkpt lat="44.41645" lon="3.59602">
        <ele>1224</ele>
        <time>2022-05-27T09:35:47Z</time>
      </trkpt>
      <trkpt lat="44.41644" lon="3.59602">
        <ele>1225</ele>
        <time>2022-05-27T09:35:48Z</time>
      </trkpt>
      <trkpt lat="44.41642" lon="3.59602">
        <ele>1225</ele>
        <time>2022-05-27T09:35:49Z</time>
      </trkpt>
      <trkpt lat="44.41642" lon="3.59602">
        <ele>1225</ele>
        <time>2022-05-27T09:35:50Z</time>
      </trkpt>
      <trkpt lat="44.41641" lon="3.59603">
        <ele>1226</ele>
        <time>2022-05-27T09:35:51Z</time>
      </trkpt>
      <trkpt lat="44.41639" lon="3.59603">
        <ele>1226</ele>
        <time>2022-05-27T09:35:52Z</time>
      </trkpt>
      <trkpt lat="44.41637" lon="3.59603">
        <ele>1225</ele>
        <time>2022-05-27T09:35:53Z</time>
      </trkpt>
      <trkpt lat="44.41636" lon="3.59603">
        <ele>1226</ele>
        <time>2022-05-27T09:35:54Z</time>
      </trkpt>
      <trkpt lat="44.41635" lon="3.59603">
        <ele>1226</ele>
        <time>2022-05-27T09:35:55Z</time>
      </trkpt>
      <trkpt lat="44.41634" lon="3.59603">
        <ele>1226</ele>
        <time>2022-05-27T09:35:56Z</time>
      </trkpt>
      <trkpt lat="44.41633" lon="3.59603">
        <ele>1226</ele>
        <time>2022-05-27T09:35:57Z</time>
      </trkpt>
      <trkpt lat="44.41631" lon="3.59602">
        <ele>1225</ele>
        <time>2022-05-27T09:35:58Z</time>
      </trkpt>
      <trkpt lat="44.4163" lon="3.59602">
        <ele>1225</ele>
        <time>2022-05-27T09:35:59Z</time>
      </trkpt>
      <trkpt lat="44.41627" lon="3.59601">
        <ele>1225</ele>
        <time>2022-05-27T09:36:00Z</time>
      </trkpt>
      <trkpt lat="44.41627" lon="3.59601">
        <ele>1225</ele>
        <time>2022-05-27T09:36:00Z</time>
      </trkpt>
      <trkpt lat="44.41626" lon="3.59601">
        <ele>1225</ele>
        <time>2022-05-27T09:36:02Z</time>
      </trkpt>
      <trkpt lat="44.41624" lon="3.596">
        <ele>1225</ele>
        <time>2022-05-27T09:36:03Z</time>
      </trkpt>
      <trkpt lat="44.41623" lon="3.59599">
        <ele>1225</ele>
        <time>2022-05-27T09:36:04Z</time>
      </trkpt>
      <trkpt lat="44.41622" lon="3.59598">
        <ele>1225</ele>
        <time>2022-05-27T09:36:05Z</time>
      </trkpt>
      <trkpt lat="44.4162" lon="3.59598">
        <ele>1225</ele>
        <time>2022-05-27T09:36:06Z</time>
      </trkpt>
      <trkpt lat="44.41618" lon="3.59597">
        <ele>1225</ele>
        <time>2022-05-27T09:36:07Z</time>
      </trkpt>
      <trkpt lat="44.41618" lon="3.59597">
        <ele>1225</ele>
        <time>2022-05-27T09:36:07Z</time>
      </trkpt>
      <trkpt lat="44.41616" lon="3.59595">
        <ele>1225</ele>
        <time>2022-05-27T09:36:09Z</time>
      </trkpt>
      <trkpt lat="44.41616" lon="3.59595">
        <ele>1225</ele>
        <time>2022-05-27T09:36:09Z</time>
      </trkpt>
      <trkpt lat="44.41614" lon="3.59595">
        <ele>1225</ele>
        <time>2022-05-27T09:36:11Z</time>
      </trkpt>
      <trkpt lat="44.41613" lon="3.59594">
        <ele>1225</ele>
        <time>2022-05-27T09:36:12Z</time>
      </trkpt>
      <trkpt lat="44.4161" lon="3.59593">
        <ele>1225</ele>
        <time>2022-05-27T09:36:13Z</time>
      </trkpt>
      <trkpt lat="44.41609" lon="3.59591">
        <ele>1225</ele>
        <time>2022-05-27T09:36:14Z</time>
      </trkpt>
      <trkpt lat="44.41608" lon="3.5959">
        <ele>1225</ele>
        <time>2022-05-27T09:36:15Z</time>
      </trkpt>
      <trkpt lat="44.41606" lon="3.59589">
        <ele>1225</ele>
        <time>2022-05-27T09:36:16Z</time>
      </trkpt>
      <trkpt lat="44.41606" lon="3.59589">
        <ele>1225</ele>
        <time>2022-05-27T09:36:16Z</time>
      </trkpt>
      <trkpt lat="44.41605" lon="3.59588">
        <ele>1225</ele>
        <time>2022-05-27T09:36:18Z</time>
      </trkpt>
      <trkpt lat="44.41604" lon="3.59587">
        <ele>1225</ele>
        <time>2022-05-27T09:36:19Z</time>
      </trkpt>
      <trkpt lat="44.416" lon="3.59585">
        <ele>1225</ele>
        <time>2022-05-27T09:36:20Z</time>
      </trkpt>
      <trkpt lat="44.416" lon="3.59585">
        <ele>1225</ele>
        <time>2022-05-27T09:36:20Z</time>
      </trkpt>
      <trkpt lat="44.41598" lon="3.59582">
        <ele>1226</ele>
        <time>2022-05-27T09:36:22Z</time>
      </trkpt>
      <trkpt lat="44.41597" lon="3.59581">
        <ele>1226</ele>
        <time>2022-05-27T09:36:23Z</time>
      </trkpt>
      <trkpt lat="44.41597" lon="3.5958">
        <ele>1226</ele>
        <time>2022-05-27T09:36:24Z</time>
      </trkpt>
      <trkpt lat="44.41596" lon="3.59579">
        <ele>1225</ele>
        <time>2022-05-27T09:36:25Z</time>
      </trkpt>
      <trkpt lat="44.41595" lon="3.59578">
        <ele>1225</ele>
        <time>2022-05-27T09:36:26Z</time>
      </trkpt>
      <trkpt lat="44.41594" lon="3.59577">
        <ele>1225</ele>
        <time>2022-05-27T09:36:27Z</time>
      </trkpt>
      <trkpt lat="44.41594" lon="3.59575">
        <ele>1225</ele>
        <time>2022-05-27T09:36:28Z</time>
      </trkpt>
      <trkpt lat="44.41592" lon="3.59574">
        <ele>1226</ele>
        <time>2022-05-27T09:36:29Z</time>
      </trkpt>
      <trkpt lat="44.41592" lon="3.59573">
        <ele>1226</ele>
        <time>2022-05-27T09:36:30Z</time>
      </trkpt>
      <trkpt lat="44.4159" lon="3.59572">
        <ele>1226</ele>
        <time>2022-05-27T09:36:31Z</time>
      </trkpt>
      <trkpt lat="44.41589" lon="3.5957">
        <ele>1226</ele>
        <time>2022-05-27T09:36:32Z</time>
      </trkpt>
      <trkpt lat="44.41589" lon="3.59568">
        <ele>1226</ele>
        <time>2022-05-27T09:36:33Z</time>
      </trkpt>
      <trkpt lat="44.41587" lon="3.59567">
        <ele>1226</ele>
        <time>2022-05-27T09:36:34Z</time>
      </trkpt>
      <trkpt lat="44.41587" lon="3.59566">
        <ele>1227</ele>
        <time>2022-05-27T09:36:35Z</time>
      </trkpt>
      <trkpt lat="44.41586" lon="3.59564">
        <ele>1227</ele>
        <time>2022-05-27T09:36:36Z</time>
      </trkpt>
      <trkpt lat="44.41585" lon="3.59563">
        <ele>1228</ele>
        <time>2022-05-27T09:36:37Z</time>
      </trkpt>
      <trkpt lat="44.41584" lon="3.59562">
        <ele>1227</ele>
        <time>2022-05-27T09:36:38Z</time>
      </trkpt>
      <trkpt lat="44.41583" lon="3.5956">
        <ele>1227</ele>
        <time>2022-05-27T09:36:39Z</time>
      </trkpt>
      <trkpt lat="44.41582" lon="3.59558">
        <ele>1227</ele>
        <time>2022-05-27T09:36:40Z</time>
      </trkpt>
      <trkpt lat="44.41581" lon="3.59557">
        <ele>1227</ele>
        <time>2022-05-27T09:36:41Z</time>
      </trkpt>
      <trkpt lat="44.4158" lon="3.59555">
        <ele>1227</ele>
        <time>2022-05-27T09:36:42Z</time>
      </trkpt>
      <trkpt lat="44.41579" lon="3.59554">
        <ele>1227</ele>
        <time>2022-05-27T09:36:43Z</time>
      </trkpt>
      <trkpt lat="44.41578" lon="3.59553">
        <ele>1227</ele>
        <time>2022-05-27T09:36:44Z</time>
      </trkpt>
      <trkpt lat="44.41578" lon="3.59552">
        <ele>1227</ele>
        <time>2022-05-27T09:36:45Z</time>
      </trkpt>
      <trkpt lat="44.41577" lon="3.59551">
        <ele>1228</ele>
        <time>2022-05-27T09:36:46Z</time>
      </trkpt>
      <trkpt lat="44.41576" lon="3.5955">
        <ele>1228</ele>
        <time>2022-05-27T09:36:47Z</time>
      </trkpt>
      <trkpt lat="44.41575" lon="3.59549">
        <ele>1227</ele>
        <time>2022-05-27T09:36:48Z</time>
      </trkpt>
      <trkpt lat="44.41574" lon="3.59547">
        <ele>1227</ele>
        <time>2022-05-27T09:36:49Z</time>
      </trkpt>
      <trkpt lat="44.41573" lon="3.59546">
        <ele>1228</ele>
        <time>2022-05-27T09:36:50Z</time>
      </trkpt>
      <trkpt lat="44.41572" lon="3.59545">
        <ele>1228</ele>
        <time>2022-05-27T09:36:51Z</time>
      </trkpt>
      <trkpt lat="44.41571" lon="3.59544">
        <ele>1228</ele>
        <time>2022-05-27T09:36:52Z</time>
      </trkpt>
      <trkpt lat="44.4157" lon="3.59543">
        <ele>1228</ele>
        <time>2022-05-27T09:36:53Z</time>
      </trkpt>
      <trkpt lat="44.4157" lon="3.59541">
        <ele>1228</ele>
        <time>2022-05-27T09:36:54Z</time>
      </trkpt>
      <trkpt lat="44.41569" lon="3.5954">
        <ele>1227</ele>
        <time>2022-05-27T09:36:55Z</time>
      </trkpt>
      <trkpt lat="44.41568" lon="3.59538">
        <ele>1228</ele>
        <time>2022-05-27T09:36:56Z</time>
      </trkpt>
      <trkpt lat="44.41567" lon="3.59537">
        <ele>1228</ele>
        <time>2022-05-27T09:36:57Z</time>
      </trkpt>
      <trkpt lat="44.41566" lon="3.59536">
        <ele>1228</ele>
        <time>2022-05-27T09:36:58Z</time>
      </trkpt>
      <trkpt lat="44.41565" lon="3.59534">
        <ele>1228</ele>
        <time>2022-05-27T09:36:59Z</time>
      </trkpt>
      <trkpt lat="44.41565" lon="3.59533">
        <ele>1228</ele>
        <time>2022-05-27T09:37:00Z</time>
      </trkpt>
      <trkpt lat="44.41564" lon="3.59532">
        <ele>1229</ele>
        <time>2022-05-27T09:37:01Z</time>
      </trkpt>
      <trkpt lat="44.41563" lon="3.59531">
        <ele>1229</ele>
        <time>2022-05-27T09:37:02Z</time>
      </trkpt>
      <trkpt lat="44.41563" lon="3.5953">
        <ele>1229</ele>
        <time>2022-05-27T09:37:03Z</time>
      </trkpt>
      <trkpt lat="44.41562" lon="3.59529">
        <ele>1230</ele>
        <time>2022-05-27T09:37:04Z</time>
      </trkpt>
      <trkpt lat="44.41561" lon="3.59528">
        <ele>1230</ele>
        <time>2022-05-27T09:37:05Z</time>
      </trkpt>
      <trkpt lat="44.4156" lon="3.59527">
        <ele>1230</ele>
        <time>2022-05-27T09:37:06Z</time>
      </trkpt>
      <trkpt lat="44.41559" lon="3.59526">
        <ele>1230</ele>
        <time>2022-05-27T09:37:07Z</time>
      </trkpt>
      <trkpt lat="44.41558" lon="3.59524">
        <ele>1230</ele>
        <time>2022-05-27T09:37:08Z</time>
      </trkpt>
      <trkpt lat="44.41557" lon="3.59524">
        <ele>1230</ele>
        <time>2022-05-27T09:37:09Z</time>
      </trkpt>
      <trkpt lat="44.41555" lon="3.59523">
        <ele>1230</ele>
        <time>2022-05-27T09:37:10Z</time>
      </trkpt>
      <trkpt lat="44.41554" lon="3.59523">
        <ele>1230</ele>
        <time>2022-05-27T09:37:11Z</time>
      </trkpt>
      <trkpt lat="44.41553" lon="3.59523">
        <ele>1230</ele>
        <time>2022-05-27T09:37:12Z</time>
      </trkpt>
      <trkpt lat="44.41552" lon="3.59521">
        <ele>1229</ele>
        <time>2022-05-27T09:37:13Z</time>
      </trkpt>
      <trkpt lat="44.4155" lon="3.5952">
        <ele>1230</ele>
        <time>2022-05-27T09:37:14Z</time>
      </trkpt>
      <trkpt lat="44.41549" lon="3.59519">
        <ele>1230</ele>
        <time>2022-05-27T09:37:15Z</time>
      </trkpt>
      <trkpt lat="44.41549" lon="3.59518">
        <ele>1230</ele>
        <time>2022-05-27T09:37:16Z</time>
      </trkpt>
      <trkpt lat="44.41548" lon="3.59516">
        <ele>1231</ele>
        <time>2022-05-27T09:37:17Z</time>
      </trkpt>
      <trkpt lat="44.41547" lon="3.59515">
        <ele>1231</ele>
        <time>2022-05-27T09:37:18Z</time>
      </trkpt>
      <trkpt lat="44.41546" lon="3.59513">
        <ele>1232</ele>
        <time>2022-05-27T09:37:19Z</time>
      </trkpt>
      <trkpt lat="44.41545" lon="3.59512">
        <ele>1232</ele>
        <time>2022-05-27T09:37:20Z</time>
      </trkpt>
      <trkpt lat="44.41544" lon="3.59511">
        <ele>1232</ele>
        <time>2022-05-27T09:37:21Z</time>
      </trkpt>
      <trkpt lat="44.41544" lon="3.59509">
        <ele>1232</ele>
        <time>2022-05-27T09:37:22Z</time>
      </trkpt>
      <trkpt lat="44.41543" lon="3.59508">
        <ele>1233</ele>
        <time>2022-05-27T09:37:23Z</time>
      </trkpt>
      <trkpt lat="44.41542" lon="3.59507">
        <ele>1233</ele>
        <time>2022-05-27T09:37:24Z</time>
      </trkpt>
      <trkpt lat="44.41542" lon="3.59505">
        <ele>1234</ele>
        <time>2022-05-27T09:37:25Z</time>
      </trkpt>
      <trkpt lat="44.41541" lon="3.59504">
        <ele>1234</ele>
        <time>2022-05-27T09:37:26Z</time>
      </trkpt>
      <trkpt lat="44.4154" lon="3.59502">
        <ele>1234</ele>
        <time>2022-05-27T09:37:27Z</time>
      </trkpt>
      <trkpt lat="44.41539" lon="3.59501">
        <ele>1234</ele>
        <time>2022-05-27T09:37:28Z</time>
      </trkpt>
      <trkpt lat="44.41538" lon="3.59499">
        <ele>1234</ele>
        <time>2022-05-27T09:37:29Z</time>
      </trkpt>
      <trkpt lat="44.41537" lon="3.59498">
        <ele>1235</ele>
        <time>2022-05-27T09:37:30Z</time>
      </trkpt>
      <trkpt lat="44.41536" lon="3.59497">
        <ele>1235</ele>
        <time>2022-05-27T09:37:31Z</time>
      </trkpt>
      <trkpt lat="44.41535" lon="3.59496">
        <ele>1235</ele>
        <time>2022-05-27T09:37:32Z</time>
      </trkpt>
      <trkpt lat="44.41535" lon="3.59495">
        <ele>1235</ele>
        <time>2022-05-27T09:37:33Z</time>
      </trkpt>
      <trkpt lat="44.41534" lon="3.59493">
        <ele>1235</ele>
        <time>2022-05-27T09:37:34Z</time>
      </trkpt>
      <trkpt lat="44.41533" lon="3.59492">
        <ele>1235</ele>
        <time>2022-05-27T09:37:35Z</time>
      </trkpt>
      <trkpt lat="44.41533" lon="3.5949">
        <ele>1235</ele>
        <time>2022-05-27T09:37:36Z</time>
      </trkpt>
      <trkpt lat="44.41532" lon="3.59489">
        <ele>1235</ele>
        <time>2022-05-27T09:37:37Z</time>
      </trkpt>
      <trkpt lat="44.41531" lon="3.59488">
        <ele>1236</ele>
        <time>2022-05-27T09:37:38Z</time>
      </trkpt>
      <trkpt lat="44.4153" lon="3.59486">
        <ele>1236</ele>
        <time>2022-05-27T09:37:39Z</time>
      </trkpt>
      <trkpt lat="44.4153" lon="3.59484">
        <ele>1236</ele>
        <time>2022-05-27T09:37:40Z</time>
      </trkpt>
      <trkpt lat="44.41529" lon="3.59483">
        <ele>1236</ele>
        <time>2022-05-27T09:37:41Z</time>
      </trkpt>
      <trkpt lat="44.41528" lon="3.59482">
        <ele>1236</ele>
        <time>2022-05-27T09:37:42Z</time>
      </trkpt>
      <trkpt lat="44.41527" lon="3.59481">
        <ele>1236</ele>
        <time>2022-05-27T09:37:43Z</time>
      </trkpt>
      <trkpt lat="44.41526" lon="3.5948">
        <ele>1236</ele>
        <time>2022-05-27T09:37:44Z</time>
      </trkpt>
      <trkpt lat="44.41525" lon="3.59478">
        <ele>1236</ele>
        <time>2022-05-27T09:37:45Z</time>
      </trkpt>
      <trkpt lat="44.41524" lon="3.59477">
        <ele>1236</ele>
        <time>2022-05-27T09:37:46Z</time>
      </trkpt>
      <trkpt lat="44.41524" lon="3.59476">
        <ele>1236</ele>
        <time>2022-05-27T09:37:47Z</time>
      </trkpt>
      <trkpt lat="44.41523" lon="3.59474">
        <ele>1236</ele>
        <time>2022-05-27T09:37:48Z</time>
      </trkpt>
      <trkpt lat="44.41523" lon="3.59473">
        <ele>1236</ele>
        <time>2022-05-27T09:37:49Z</time>
      </trkpt>
      <trkpt lat="44.41523" lon="3.59472">
        <ele>1236</ele>
        <time>2022-05-27T09:37:50Z</time>
      </trkpt>
      <trkpt lat="44.41522" lon="3.5947">
        <ele>1236</ele>
        <time>2022-05-27T09:37:51Z</time>
      </trkpt>
      <trkpt lat="44.41522" lon="3.59468">
        <ele>1235</ele>
        <time>2022-05-27T09:37:52Z</time>
      </trkpt>
      <trkpt lat="44.41522" lon="3.59466">
        <ele>1235</ele>
        <time>2022-05-27T09:37:53Z</time>
      </trkpt>
      <trkpt lat="44.41522" lon="3.59464">
        <ele>1236</ele>
        <time>2022-05-27T09:37:54Z</time>
      </trkpt>
      <trkpt lat="44.41522" lon="3.59462">
        <ele>1236</ele>
        <time>2022-05-27T09:37:55Z</time>
      </trkpt>
      <trkpt lat="44.41521" lon="3.5946">
        <ele>1236</ele>
        <time>2022-05-27T09:37:56Z</time>
      </trkpt>
      <trkpt lat="44.41521" lon="3.59459">
        <ele>1237</ele>
        <time>2022-05-27T09:37:57Z</time>
      </trkpt>
      <trkpt lat="44.4152" lon="3.59457">
        <ele>1237</ele>
        <time>2022-05-27T09:37:58Z</time>
      </trkpt>
      <trkpt lat="44.4152" lon="3.59456">
        <ele>1237</ele>
        <time>2022-05-27T09:37:59Z</time>
      </trkpt>
      <trkpt lat="44.41519" lon="3.59454">
        <ele>1236</ele>
        <time>2022-05-27T09:38:00Z</time>
      </trkpt>
      <trkpt lat="44.41518" lon="3.59452">
        <ele>1236</ele>
        <time>2022-05-27T09:38:01Z</time>
      </trkpt>
      <trkpt lat="44.41518" lon="3.59451">
        <ele>1236</ele>
        <time>2022-05-27T09:38:02Z</time>
      </trkpt>
      <trkpt lat="44.41517" lon="3.5945">
        <ele>1236</ele>
        <time>2022-05-27T09:38:03Z</time>
      </trkpt>
      <trkpt lat="44.41517" lon="3.59448">
        <ele>1236</ele>
        <time>2022-05-27T09:38:04Z</time>
      </trkpt>
      <trkpt lat="44.41516" lon="3.59447">
        <ele>1236</ele>
        <time>2022-05-27T09:38:05Z</time>
      </trkpt>
      <trkpt lat="44.41515" lon="3.59446">
        <ele>1236</ele>
        <time>2022-05-27T09:38:06Z</time>
      </trkpt>
      <trkpt lat="44.41515" lon="3.59444">
        <ele>1236</ele>
        <time>2022-05-27T09:38:07Z</time>
      </trkpt>
      <trkpt lat="44.41514" lon="3.59443">
        <ele>1236</ele>
        <time>2022-05-27T09:38:08Z</time>
      </trkpt>
      <trkpt lat="44.41513" lon="3.59442">
        <ele>1237</ele>
        <time>2022-05-27T09:38:09Z</time>
      </trkpt>
      <trkpt lat="44.41512" lon="3.5944">
        <ele>1237</ele>
        <time>2022-05-27T09:38:10Z</time>
      </trkpt>
      <trkpt lat="44.41512" lon="3.59439">
        <ele>1237</ele>
        <time>2022-05-27T09:38:11Z</time>
      </trkpt>
      <trkpt lat="44.41511" lon="3.59437">
        <ele>1238</ele>
        <time>2022-05-27T09:38:12Z</time>
      </trkpt>
      <trkpt lat="44.4151" lon="3.59436">
        <ele>1238</ele>
        <time>2022-05-27T09:38:13Z</time>
      </trkpt>
      <trkpt lat="44.41509" lon="3.59434">
        <ele>1238</ele>
        <time>2022-05-27T09:38:14Z</time>
      </trkpt>
      <trkpt lat="44.41508" lon="3.59433">
        <ele>1238</ele>
        <time>2022-05-27T09:38:15Z</time>
      </trkpt>
      <trkpt lat="44.41507" lon="3.59432">
        <ele>1238</ele>
        <time>2022-05-27T09:38:16Z</time>
      </trkpt>
      <trkpt lat="44.41507" lon="3.5943">
        <ele>1238</ele>
        <time>2022-05-27T09:38:17Z</time>
      </trkpt>
      <trkpt lat="44.41506" lon="3.59428">
        <ele>1238</ele>
        <time>2022-05-27T09:38:18Z</time>
      </trkpt>
      <trkpt lat="44.41506" lon="3.59427">
        <ele>1239</ele>
        <time>2022-05-27T09:38:19Z</time>
      </trkpt>
      <trkpt lat="44.41506" lon="3.59425">
        <ele>1239</ele>
        <time>2022-05-27T09:38:20Z</time>
      </trkpt>
      <trkpt lat="44.41505" lon="3.59424">
        <ele>1239</ele>
        <time>2022-05-27T09:38:21Z</time>
      </trkpt>
      <trkpt lat="44.41505" lon="3.59423">
        <ele>1240</ele>
        <time>2022-05-27T09:38:22Z</time>
      </trkpt>
      <trkpt lat="44.41504" lon="3.59422">
        <ele>1239</ele>
        <time>2022-05-27T09:38:23Z</time>
      </trkpt>
      <trkpt lat="44.41504" lon="3.59422">
        <ele>1240</ele>
        <time>2022-05-27T09:38:24Z</time>
      </trkpt>
      <trkpt lat="44.41504" lon="3.59422">
        <ele>1240</ele>
        <time>2022-05-27T09:38:25Z</time>
      </trkpt>
      <trkpt lat="44.41503" lon="3.59421">
        <ele>1240</ele>
        <time>2022-05-27T09:38:26Z</time>
      </trkpt>
      <trkpt lat="44.41503" lon="3.5942">
        <ele>1240</ele>
        <time>2022-05-27T09:38:27Z</time>
      </trkpt>
      <trkpt lat="44.41502" lon="3.59419">
        <ele>1240</ele>
        <time>2022-05-27T09:38:28Z</time>
      </trkpt>
      <trkpt lat="44.41502" lon="3.59418">
        <ele>1240</ele>
        <time>2022-05-27T09:38:29Z</time>
      </trkpt>
      <trkpt lat="44.41502" lon="3.59417">
        <ele>1240</ele>
        <time>2022-05-27T09:38:30Z</time>
      </trkpt>
      <trkpt lat="44.41502" lon="3.59416">
        <ele>1239</ele>
        <time>2022-05-27T09:38:31Z</time>
      </trkpt>
      <trkpt lat="44.41501" lon="3.59415">
        <ele>1239</ele>
        <time>2022-05-27T09:38:32Z</time>
      </trkpt>
      <trkpt lat="44.41501" lon="3.59414">
        <ele>1240</ele>
        <time>2022-05-27T09:38:33Z</time>
      </trkpt>
      <trkpt lat="44.41501" lon="3.59414">
        <ele>1240</ele>
        <time>2022-05-27T09:38:34Z</time>
      </trkpt>
      <trkpt lat="44.415" lon="3.59414">
        <ele>1240</ele>
        <time>2022-05-27T09:38:35Z</time>
      </trkpt>
      <trkpt lat="44.415" lon="3.59413">
        <ele>1239</ele>
        <time>2022-05-27T09:38:36Z</time>
      </trkpt>
      <trkpt lat="44.41499" lon="3.59411">
        <ele>1239</ele>
        <time>2022-05-27T09:38:37Z</time>
      </trkpt>
      <trkpt lat="44.41499" lon="3.5941">
        <ele>1239</ele>
        <time>2022-05-27T09:38:38Z</time>
      </trkpt>
      <trkpt lat="44.41498" lon="3.59409">
        <ele>1239</ele>
        <time>2022-05-27T09:38:39Z</time>
      </trkpt>
      <trkpt lat="44.41498" lon="3.59409">
        <ele>1239</ele>
        <time>2022-05-27T09:38:40Z</time>
      </trkpt>
      <trkpt lat="44.41497" lon="3.59409">
        <ele>1239</ele>
        <time>2022-05-27T09:38:41Z</time>
      </trkpt>
      <trkpt lat="44.41497" lon="3.59408">
        <ele>1239</ele>
        <time>2022-05-27T09:38:42Z</time>
      </trkpt>
      <trkpt lat="44.41497" lon="3.59408">
        <ele>1239</ele>
        <time>2022-05-27T09:38:43Z</time>
      </trkpt>
      <trkpt lat="44.41497" lon="3.59408">
        <ele>1238</ele>
        <time>2022-05-27T09:38:44Z</time>
      </trkpt>
      <trkpt lat="44.41496" lon="3.59408">
        <ele>1238</ele>
        <time>2022-05-27T09:38:45Z</time>
      </trkpt>
      <trkpt lat="44.41496" lon="3.59407">
        <ele>1238</ele>
        <time>2022-05-27T09:38:46Z</time>
      </trkpt>
      <trkpt lat="44.41494" lon="3.59406">
        <ele>1238</ele>
        <time>2022-05-27T09:38:47Z</time>
      </trkpt>
      <trkpt lat="44.41494" lon="3.59405">
        <ele>1239</ele>
        <time>2022-05-27T09:38:48Z</time>
      </trkpt>
      <trkpt lat="44.41493" lon="3.59404">
        <ele>1239</ele>
        <time>2022-05-27T09:38:49Z</time>
      </trkpt>
      <trkpt lat="44.41492" lon="3.59404">
        <ele>1238</ele>
        <time>2022-05-27T09:38:50Z</time>
      </trkpt>
      <trkpt lat="44.41491" lon="3.59403">
        <ele>1239</ele>
        <time>2022-05-27T09:38:51Z</time>
      </trkpt>
      <trkpt lat="44.41489" lon="3.59402">
        <ele>1239</ele>
        <time>2022-05-27T09:38:52Z</time>
      </trkpt>
      <trkpt lat="44.41488" lon="3.59402">
        <ele>1239</ele>
        <time>2022-05-27T09:38:53Z</time>
      </trkpt>
      <trkpt lat="44.41488" lon="3.59401">
        <ele>1239</ele>
        <time>2022-05-27T09:38:54Z</time>
      </trkpt>
      <trkpt lat="44.41486" lon="3.59401">
        <ele>1239</ele>
        <time>2022-05-27T09:38:55Z</time>
      </trkpt>
      <trkpt lat="44.41485" lon="3.59401">
        <ele>1239</ele>
        <time>2022-05-27T09:38:56Z</time>
      </trkpt>
      <trkpt lat="44.41484" lon="3.594">
        <ele>1239</ele>
        <time>2022-05-27T09:38:57Z</time>
      </trkpt>
      <trkpt lat="44.41483" lon="3.59399">
        <ele>1239</ele>
        <time>2022-05-27T09:38:58Z</time>
      </trkpt>
      <trkpt lat="44.41482" lon="3.59399">
        <ele>1239</ele>
        <time>2022-05-27T09:38:59Z</time>
      </trkpt>
      <trkpt lat="44.41481" lon="3.59398">
        <ele>1239</ele>
        <time>2022-05-27T09:39:00Z</time>
      </trkpt>
      <trkpt lat="44.4148" lon="3.59398">
        <ele>1239</ele>
        <time>2022-05-27T09:39:01Z</time>
      </trkpt>
      <trkpt lat="44.41479" lon="3.59398">
        <ele>1238</ele>
        <time>2022-05-27T09:39:02Z</time>
      </trkpt>
      <trkpt lat="44.41478" lon="3.59398">
        <ele>1238</ele>
        <time>2022-05-27T09:39:03Z</time>
      </trkpt>
      <trkpt lat="44.41477" lon="3.59397">
        <ele>1238</ele>
        <time>2022-05-27T09:39:04Z</time>
      </trkpt>
      <trkpt lat="44.41476" lon="3.59397">
        <ele>1238</ele>
        <time>2022-05-27T09:39:05Z</time>
      </trkpt>
      <trkpt lat="44.41476" lon="3.59397">
        <ele>1238</ele>
        <time>2022-05-27T09:39:06Z</time>
      </trkpt>
      <trkpt lat="44.41475" lon="3.59397">
        <ele>1238</ele>
        <time>2022-05-27T09:39:07Z</time>
      </trkpt>
      <trkpt lat="44.41474" lon="3.59396">
        <ele>1238</ele>
        <time>2022-05-27T09:39:08Z</time>
      </trkpt>
      <trkpt lat="44.41473" lon="3.59395">
        <ele>1238</ele>
        <time>2022-05-27T09:39:09Z</time>
      </trkpt>
      <trkpt lat="44.41472" lon="3.59394">
        <ele>1238</ele>
        <time>2022-05-27T09:39:10Z</time>
      </trkpt>
      <trkpt lat="44.41472" lon="3.59392">
        <ele>1238</ele>
        <time>2022-05-27T09:39:11Z</time>
      </trkpt>
      <trkpt lat="44.41472" lon="3.59391">
        <ele>1238</ele>
        <time>2022-05-27T09:39:12Z</time>
      </trkpt>
      <trkpt lat="44.41472" lon="3.59391">
        <ele>1238</ele>
        <time>2022-05-27T09:39:13Z</time>
      </trkpt>
      <trkpt lat="44.41472" lon="3.59391">
        <ele>1238</ele>
        <time>2022-05-27T09:39:14Z</time>
      </trkpt>
      <trkpt lat="44.41472" lon="3.59391">
        <ele>1238</ele>
        <time>2022-05-27T09:39:15Z</time>
      </trkpt>
      <trkpt lat="44.41472" lon="3.59391">
        <ele>1238</ele>
        <time>2022-05-27T09:39:16Z</time>
      </trkpt>
      <trkpt lat="44.41472" lon="3.59391">
        <ele>1238</ele>
        <time>2022-05-27T09:39:16Z</time>
      </trkpt>
      <trkpt lat="44.41472" lon="3.59391">
        <ele>1238</ele>
        <time>2022-05-27T09:39:16Z</time>
      </trkpt>
      <trkpt lat="44.41473" lon="3.59391">
        <ele>1239</ele>
        <time>2022-05-27T09:39:23Z</time>
      </trkpt>
      <trkpt lat="44.41474" lon="3.5939">
        <ele>1239</ele>
        <time>2022-05-27T09:39:24Z</time>
      </trkpt>
      <trkpt lat="44.41473" lon="3.59389">
        <ele>1239</ele>
        <time>2022-05-27T09:39:25Z</time>
      </trkpt>
      <trkpt lat="44.41473" lon="3.59387">
        <ele>1239</ele>
        <time>2022-05-27T09:39:26Z</time>
      </trkpt>
      <trkpt lat="44.41473" lon="3.59387">
        <ele>1240</ele>
        <time>2022-05-27T09:39:27Z</time>
      </trkpt>
      <trkpt lat="44.41473" lon="3.59386">
        <ele>1240</ele>
        <time>2022-05-27T09:39:28Z</time>
      </trkpt>
      <trkpt lat="44.41474" lon="3.59385">
        <ele>1240</ele>
        <time>2022-05-27T09:39:29Z</time>
      </trkpt>
      <trkpt lat="44.41475" lon="3.59385">
        <ele>1241</ele>
        <time>2022-05-27T09:39:30Z</time>
      </trkpt>
      <trkpt lat="44.41474" lon="3.59384">
        <ele>1241</ele>
        <time>2022-05-27T09:39:31Z</time>
      </trkpt>
      <trkpt lat="44.41474" lon="3.59383">
        <ele>1241</ele>
        <time>2022-05-27T09:39:32Z</time>
      </trkpt>
      <trkpt lat="44.41473" lon="3.59382">
        <ele>1240</ele>
        <time>2022-05-27T09:39:33Z</time>
      </trkpt>
      <trkpt lat="44.41473" lon="3.59381">
        <ele>1240</ele>
        <time>2022-05-27T09:39:34Z</time>
      </trkpt>
      <trkpt lat="44.41472" lon="3.59381">
        <ele>1240</ele>
        <time>2022-05-27T09:39:35Z</time>
      </trkpt>
      <trkpt lat="44.41472" lon="3.59381">
        <ele>1240</ele>
        <time>2022-05-27T09:39:36Z</time>
      </trkpt>
      <trkpt lat="44.41471" lon="3.59381">
        <ele>1240</ele>
        <time>2022-05-27T09:39:37Z</time>
      </trkpt>
      <trkpt lat="44.41471" lon="3.5938">
        <ele>1240</ele>
        <time>2022-05-27T09:39:38Z</time>
      </trkpt>
      <trkpt lat="44.4147" lon="3.5938">
        <ele>1240</ele>
        <time>2022-05-27T09:39:39Z</time>
      </trkpt>
      <trkpt lat="44.4147" lon="3.5938">
        <ele>1241</ele>
        <time>2022-05-27T09:39:40Z</time>
      </trkpt>
      <trkpt lat="44.4147" lon="3.59379">
        <ele>1240</ele>
        <time>2022-05-27T09:39:41Z</time>
      </trkpt>
      <trkpt lat="44.41469" lon="3.59379">
        <ele>1240</ele>
        <time>2022-05-27T09:39:42Z</time>
      </trkpt>
      <trkpt lat="44.41469" lon="3.59378">
        <ele>1240</ele>
        <time>2022-05-27T09:39:43Z</time>
      </trkpt>
      <trkpt lat="44.41468" lon="3.59378">
        <ele>1240</ele>
        <time>2022-05-27T09:39:44Z</time>
      </trkpt>
      <trkpt lat="44.41468" lon="3.59378">
        <ele>1241</ele>
        <time>2022-05-27T09:39:45Z</time>
      </trkpt>
      <trkpt lat="44.41468" lon="3.59378">
        <ele>1241</ele>
        <time>2022-05-27T09:39:46Z</time>
      </trkpt>
      <trkpt lat="44.41468" lon="3.59378">
        <ele>1241</ele>
        <time>2022-05-27T09:39:47Z</time>
      </trkpt>
      <trkpt lat="44.41468" lon="3.59378">
        <ele>1241</ele>
        <time>2022-05-27T09:39:48Z</time>
      </trkpt>
      <trkpt lat="44.41468" lon="3.59378">
        <ele>1241</ele>
        <time>2022-05-27T09:39:48Z</time>
      </trkpt>
      <trkpt lat="44.41468" lon="3.59378">
        <ele>1241</ele>
        <time>2022-05-27T09:39:48Z</time>
      </trkpt>
      <trkpt lat="44.41467" lon="3.59371">
        <ele>1241</ele>
        <time>2022-05-27T09:40:05Z</time>
      </trkpt>
      <trkpt lat="44.41468" lon="3.59371">
        <ele>1241</ele>
        <time>2022-05-27T09:40:06Z</time>
      </trkpt>
      <trkpt lat="44.41468" lon="3.5937">
        <ele>1241</ele>
        <time>2022-05-27T09:40:07Z</time>
      </trkpt>
      <trkpt lat="44.41469" lon="3.59369">
        <ele>1241</ele>
        <time>2022-05-27T09:40:08Z</time>
      </trkpt>
      <trkpt lat="44.41469" lon="3.59368">
        <ele>1241</ele>
        <time>2022-05-27T09:40:09Z</time>
      </trkpt>
      <trkpt lat="44.4147" lon="3.59367">
        <ele>1242</ele>
        <time>2022-05-27T09:40:10Z</time>
      </trkpt>
      <trkpt lat="44.41471" lon="3.59366">
        <ele>1242</ele>
        <time>2022-05-27T09:40:11Z</time>
      </trkpt>
      <trkpt lat="44.41472" lon="3.59364">
        <ele>1242</ele>
        <time>2022-05-27T09:40:12Z</time>
      </trkpt>
      <trkpt lat="44.41472" lon="3.59364">
        <ele>1242</ele>
        <time>2022-05-27T09:40:13Z</time>
      </trkpt>
      <trkpt lat="44.41473" lon="3.59363">
        <ele>1242</ele>
        <time>2022-05-27T09:40:14Z</time>
      </trkpt>
      <trkpt lat="44.41473" lon="3.59362">
        <ele>1242</ele>
        <time>2022-05-27T09:40:15Z</time>
      </trkpt>
      <trkpt lat="44.41474" lon="3.59362">
        <ele>1243</ele>
        <time>2022-05-27T09:40:16Z</time>
      </trkpt>
      <trkpt lat="44.41474" lon="3.5936">
        <ele>1243</ele>
        <time>2022-05-27T09:40:17Z</time>
      </trkpt>
      <trkpt lat="44.41475" lon="3.59359">
        <ele>1243</ele>
        <time>2022-05-27T09:40:18Z</time>
      </trkpt>
      <trkpt lat="44.41475" lon="3.59358">
        <ele>1243</ele>
        <time>2022-05-27T09:40:19Z</time>
      </trkpt>
      <trkpt lat="44.41476" lon="3.59356">
        <ele>1242</ele>
        <time>2022-05-27T09:40:20Z</time>
      </trkpt>
      <trkpt lat="44.41476" lon="3.59355">
        <ele>1242</ele>
        <time>2022-05-27T09:40:21Z</time>
      </trkpt>
      <trkpt lat="44.41476" lon="3.59353">
        <ele>1242</ele>
        <time>2022-05-27T09:40:22Z</time>
      </trkpt>
      <trkpt lat="44.41476" lon="3.59352">
        <ele>1243</ele>
        <time>2022-05-27T09:40:23Z</time>
      </trkpt>
      <trkpt lat="44.41476" lon="3.59351">
        <ele>1243</ele>
        <time>2022-05-27T09:40:24Z</time>
      </trkpt>
      <trkpt lat="44.41475" lon="3.5935">
        <ele>1243</ele>
        <time>2022-05-27T09:40:25Z</time>
      </trkpt>
      <trkpt lat="44.41475" lon="3.5935">
        <ele>1243</ele>
        <time>2022-05-27T09:40:26Z</time>
      </trkpt>
      <trkpt lat="44.41474" lon="3.59349">
        <ele>1243</ele>
        <time>2022-05-27T09:40:27Z</time>
      </trkpt>
      <trkpt lat="44.41473" lon="3.59348">
        <ele>1243</ele>
        <time>2022-05-27T09:40:28Z</time>
      </trkpt>
      <trkpt lat="44.41472" lon="3.59348">
        <ele>1243</ele>
        <time>2022-05-27T09:40:29Z</time>
      </trkpt>
      <trkpt lat="44.41472" lon="3.59348">
        <ele>1242</ele>
        <time>2022-05-27T09:40:30Z</time>
      </trkpt>
      <trkpt lat="44.41472" lon="3.59347">
        <ele>1241</ele>
        <time>2022-05-27T09:40:31Z</time>
      </trkpt>
      <trkpt lat="44.41471" lon="3.59347">
        <ele>1241</ele>
        <time>2022-05-27T09:40:32Z</time>
      </trkpt>
      <trkpt lat="44.4147" lon="3.59347">
        <ele>1242</ele>
        <time>2022-05-27T09:40:33Z</time>
      </trkpt>
      <trkpt lat="44.4147" lon="3.59346">
        <ele>1242</ele>
        <time>2022-05-27T09:40:34Z</time>
      </trkpt>
      <trkpt lat="44.4147" lon="3.59346">
        <ele>1241</ele>
        <time>2022-05-27T09:40:35Z</time>
      </trkpt>
      <trkpt lat="44.4147" lon="3.59346">
        <ele>1241</ele>
        <time>2022-05-27T09:40:36Z</time>
      </trkpt>
      <trkpt lat="44.4147" lon="3.59346">
        <ele>1241</ele>
        <time>2022-05-27T09:40:37Z</time>
      </trkpt>
      <trkpt lat="44.4147" lon="3.59346">
        <ele>1241</ele>
        <time>2022-05-27T09:40:38Z</time>
      </trkpt>
      <trkpt lat="44.41469" lon="3.59346">
        <ele>1240</ele>
        <time>2022-05-27T09:40:39Z</time>
      </trkpt>
      <trkpt lat="44.41469" lon="3.59345">
        <ele>1240</ele>
        <time>2022-05-27T09:40:40Z</time>
      </trkpt>
      <trkpt lat="44.41468" lon="3.59344">
        <ele>1240</ele>
        <time>2022-05-27T09:40:41Z</time>
      </trkpt>
      <trkpt lat="44.41468" lon="3.59343">
        <ele>1239</ele>
        <time>2022-05-27T09:40:42Z</time>
      </trkpt>
      <trkpt lat="44.41467" lon="3.59341">
        <ele>1240</ele>
        <time>2022-05-27T09:40:43Z</time>
      </trkpt>
      <trkpt lat="44.41467" lon="3.59341">
        <ele>1240</ele>
        <time>2022-05-27T09:40:44Z</time>
      </trkpt>
      <trkpt lat="44.41467" lon="3.5934">
        <ele>1240</ele>
        <time>2022-05-27T09:40:45Z</time>
      </trkpt>
      <trkpt lat="44.41466" lon="3.59339">
        <ele>1240</ele>
        <time>2022-05-27T09:40:46Z</time>
      </trkpt>
      <trkpt lat="44.41466" lon="3.59338">
        <ele>1240</ele>
        <time>2022-05-27T09:40:47Z</time>
      </trkpt>
      <trkpt lat="44.41465" lon="3.59338">
        <ele>1240</ele>
        <time>2022-05-27T09:40:48Z</time>
      </trkpt>
      <trkpt lat="44.41465" lon="3.59337">
        <ele>1240</ele>
        <time>2022-05-27T09:40:49Z</time>
      </trkpt>
      <trkpt lat="44.41465" lon="3.59336">
        <ele>1240</ele>
        <time>2022-05-27T09:40:50Z</time>
      </trkpt>
      <trkpt lat="44.41465" lon="3.59336">
        <ele>1240</ele>
        <time>2022-05-27T09:40:51Z</time>
      </trkpt>
      <trkpt lat="44.41464" lon="3.59335">
        <ele>1240</ele>
        <time>2022-05-27T09:40:52Z</time>
      </trkpt>
      <trkpt lat="44.41464" lon="3.59335">
        <ele>1240</ele>
        <time>2022-05-27T09:40:53Z</time>
      </trkpt>
      <trkpt lat="44.41464" lon="3.59334">
        <ele>1240</ele>
        <time>2022-05-27T09:40:54Z</time>
      </trkpt>
      <trkpt lat="44.41464" lon="3.59334">
        <ele>1240</ele>
        <time>2022-05-27T09:40:55Z</time>
      </trkpt>
      <trkpt lat="44.41464" lon="3.59334">
        <ele>1240</ele>
        <time>2022-05-27T09:40:56Z</time>
      </trkpt>
      <trkpt lat="44.41464" lon="3.59334">
        <ele>1240</ele>
        <time>2022-05-27T09:40:57Z</time>
      </trkpt>
      <trkpt lat="44.41464" lon="3.59334">
        <ele>1240</ele>
        <time>2022-05-27T09:40:57Z</time>
      </trkpt>
      <trkpt lat="44.41464" lon="3.59334">
        <ele>1240</ele>
        <time>2022-05-27T09:40:57Z</time>
      </trkpt>
      <trkpt lat="44.41461" lon="3.59322">
        <ele>1240</ele>
        <time>2022-05-27T09:42:45Z</time>
      </trkpt>
      <trkpt lat="44.41461" lon="3.59321">
        <ele>1240</ele>
        <time>2022-05-27T09:42:46Z</time>
      </trkpt>
      <trkpt lat="44.41462" lon="3.5932">
        <ele>1240</ele>
        <time>2022-05-27T09:42:47Z</time>
      </trkpt>
      <trkpt lat="44.41462" lon="3.59318">
        <ele>1240</ele>
        <time>2022-05-27T09:42:48Z</time>
      </trkpt>
      <trkpt lat="44.41461" lon="3.59316">
        <ele>1240</ele>
        <time>2022-05-27T09:42:49Z</time>
      </trkpt>
      <trkpt lat="44.41462" lon="3.59315">
        <ele>1239</ele>
        <time>2022-05-27T09:42:50Z</time>
      </trkpt>
      <trkpt lat="44.41462" lon="3.59314">
        <ele>1239</ele>
        <time>2022-05-27T09:42:51Z</time>
      </trkpt>
      <trkpt lat="44.41462" lon="3.59313">
        <ele>1238</ele>
        <time>2022-05-27T09:42:52Z</time>
      </trkpt>
      <trkpt lat="44.41462" lon="3.59312">
        <ele>1238</ele>
        <time>2022-05-27T09:42:53Z</time>
      </trkpt>
      <trkpt lat="44.41463" lon="3.59311">
        <ele>1239</ele>
        <time>2022-05-27T09:42:54Z</time>
      </trkpt>
      <trkpt lat="44.41463" lon="3.5931">
        <ele>1238</ele>
        <time>2022-05-27T09:42:55Z</time>
      </trkpt>
      <trkpt lat="44.41463" lon="3.5931">
        <ele>1238</ele>
        <time>2022-05-27T09:42:56Z</time>
      </trkpt>
      <trkpt lat="44.41463" lon="3.59309">
        <ele>1238</ele>
        <time>2022-05-27T09:42:57Z</time>
      </trkpt>
      <trkpt lat="44.41463" lon="3.5931">
        <ele>1237</ele>
        <time>2022-05-27T09:42:58Z</time>
      </trkpt>
      <trkpt lat="44.41464" lon="3.59309">
        <ele>1237</ele>
        <time>2022-05-27T09:42:59Z</time>
      </trkpt>
      <trkpt lat="44.41463" lon="3.59307">
        <ele>1238</ele>
        <time>2022-05-27T09:43:00Z</time>
      </trkpt>
      <trkpt lat="44.41463" lon="3.59305">
        <ele>1238</ele>
        <time>2022-05-27T09:43:01Z</time>
      </trkpt>
      <trkpt lat="44.41462" lon="3.59304">
        <ele>1238</ele>
        <time>2022-05-27T09:43:02Z</time>
      </trkpt>
      <trkpt lat="44.41462" lon="3.59303">
        <ele>1238</ele>
        <time>2022-05-27T09:43:03Z</time>
      </trkpt>
      <trkpt lat="44.41462" lon="3.59302">
        <ele>1238</ele>
        <time>2022-05-27T09:43:04Z</time>
      </trkpt>
      <trkpt lat="44.41462" lon="3.59301">
        <ele>1238</ele>
        <time>2022-05-27T09:43:05Z</time>
      </trkpt>
      <trkpt lat="44.41462" lon="3.593">
        <ele>1238</ele>
        <time>2022-05-27T09:43:06Z</time>
      </trkpt>
      <trkpt lat="44.41462" lon="3.59299">
        <ele>1239</ele>
        <time>2022-05-27T09:43:07Z</time>
      </trkpt>
      <trkpt lat="44.41462" lon="3.59299">
        <ele>1238</ele>
        <time>2022-05-27T09:43:08Z</time>
      </trkpt>
      <trkpt lat="44.41462" lon="3.59298">
        <ele>1239</ele>
        <time>2022-05-27T09:43:09Z</time>
      </trkpt>
      <trkpt lat="44.41462" lon="3.59297">
        <ele>1240</ele>
        <time>2022-05-27T09:43:10Z</time>
      </trkpt>
      <trkpt lat="44.41463" lon="3.59296">
        <ele>1241</ele>
        <time>2022-05-27T09:43:11Z</time>
      </trkpt>
      <trkpt lat="44.41462" lon="3.59295">
        <ele>1241</ele>
        <time>2022-05-27T09:43:12Z</time>
      </trkpt>
      <trkpt lat="44.41461" lon="3.59294">
        <ele>1241</ele>
        <time>2022-05-27T09:43:13Z</time>
      </trkpt>
      <trkpt lat="44.4146" lon="3.59293">
        <ele>1241</ele>
        <time>2022-05-27T09:43:14Z</time>
      </trkpt>
      <trkpt lat="44.4146" lon="3.59292">
        <ele>1241</ele>
        <time>2022-05-27T09:43:15Z</time>
      </trkpt>
      <trkpt lat="44.4146" lon="3.59291">
        <ele>1241</ele>
        <time>2022-05-27T09:43:16Z</time>
      </trkpt>
      <trkpt lat="44.41461" lon="3.59291">
        <ele>1241</ele>
        <time>2022-05-27T09:43:17Z</time>
      </trkpt>
      <trkpt lat="44.4146" lon="3.5929">
        <ele>1241</ele>
        <time>2022-05-27T09:43:18Z</time>
      </trkpt>
      <trkpt lat="44.4146" lon="3.59289">
        <ele>1241</ele>
        <time>2022-05-27T09:43:19Z</time>
      </trkpt>
      <trkpt lat="44.4146" lon="3.59288">
        <ele>1241</ele>
        <time>2022-05-27T09:43:20Z</time>
      </trkpt>
      <trkpt lat="44.41459" lon="3.59287">
        <ele>1241</ele>
        <time>2022-05-27T09:43:21Z</time>
      </trkpt>
      <trkpt lat="44.41459" lon="3.59287">
        <ele>1241</ele>
        <time>2022-05-27T09:43:22Z</time>
      </trkpt>
      <trkpt lat="44.41458" lon="3.59286">
        <ele>1241</ele>
        <time>2022-05-27T09:43:23Z</time>
      </trkpt>
      <trkpt lat="44.41457" lon="3.59285">
        <ele>1241</ele>
        <time>2022-05-27T09:43:24Z</time>
      </trkpt>
      <trkpt lat="44.41457" lon="3.59284">
        <ele>1241</ele>
        <time>2022-05-27T09:43:25Z</time>
      </trkpt>
      <trkpt lat="44.41457" lon="3.59283">
        <ele>1241</ele>
        <time>2022-05-27T09:43:26Z</time>
      </trkpt>
      <trkpt lat="44.41456" lon="3.59282">
        <ele>1241</ele>
        <time>2022-05-27T09:43:27Z</time>
      </trkpt>
      <trkpt lat="44.41456" lon="3.59282">
        <ele>1242</ele>
        <time>2022-05-27T09:43:28Z</time>
      </trkpt>
      <trkpt lat="44.41455" lon="3.59281">
        <ele>1242</ele>
        <time>2022-05-27T09:43:29Z</time>
      </trkpt>
      <trkpt lat="44.41454" lon="3.5928">
        <ele>1241</ele>
        <time>2022-05-27T09:43:30Z</time>
      </trkpt>
      <trkpt lat="44.41454" lon="3.59279">
        <ele>1240</ele>
        <time>2022-05-27T09:43:31Z</time>
      </trkpt>
      <trkpt lat="44.41453" lon="3.59278">
        <ele>1238</ele>
        <time>2022-05-27T09:43:32Z</time>
      </trkpt>
      <trkpt lat="44.41452" lon="3.59276">
        <ele>1239</ele>
        <time>2022-05-27T09:43:33Z</time>
      </trkpt>
      <trkpt lat="44.41452" lon="3.59275">
        <ele>1238</ele>
        <time>2022-05-27T09:43:34Z</time>
      </trkpt>
      <trkpt lat="44.41452" lon="3.59274">
        <ele>1238</ele>
        <time>2022-05-27T09:43:35Z</time>
      </trkpt>
      <trkpt lat="44.41451" lon="3.59273">
        <ele>1238</ele>
        <time>2022-05-27T09:43:36Z</time>
      </trkpt>
      <trkpt lat="44.4145" lon="3.59272">
        <ele>1238</ele>
        <time>2022-05-27T09:43:37Z</time>
      </trkpt>
      <trkpt lat="44.41449" lon="3.59271">
        <ele>1238</ele>
        <time>2022-05-27T09:43:38Z</time>
      </trkpt>
      <trkpt lat="44.41448" lon="3.59269">
        <ele>1238</ele>
        <time>2022-05-27T09:43:39Z</time>
      </trkpt>
      <trkpt lat="44.41448" lon="3.59268">
        <ele>1238</ele>
        <time>2022-05-27T09:43:40Z</time>
      </trkpt>
      <trkpt lat="44.41447" lon="3.59266">
        <ele>1238</ele>
        <time>2022-05-27T09:43:41Z</time>
      </trkpt>
      <trkpt lat="44.41446" lon="3.59264">
        <ele>1238</ele>
        <time>2022-05-27T09:43:42Z</time>
      </trkpt>
      <trkpt lat="44.41445" lon="3.59263">
        <ele>1238</ele>
        <time>2022-05-27T09:43:43Z</time>
      </trkpt>
      <trkpt lat="44.41444" lon="3.59262">
        <ele>1238</ele>
        <time>2022-05-27T09:43:44Z</time>
      </trkpt>
      <trkpt lat="44.41443" lon="3.59261">
        <ele>1238</ele>
        <time>2022-05-27T09:43:45Z</time>
      </trkpt>
      <trkpt lat="44.41443" lon="3.5926">
        <ele>1238</ele>
        <time>2022-05-27T09:43:46Z</time>
      </trkpt>
      <trkpt lat="44.41443" lon="3.5926">
        <ele>1238</ele>
        <time>2022-05-27T09:43:47Z</time>
      </trkpt>
      <trkpt lat="44.41442" lon="3.59259">
        <ele>1238</ele>
        <time>2022-05-27T09:43:48Z</time>
      </trkpt>
      <trkpt lat="44.41441" lon="3.59258">
        <ele>1237</ele>
        <time>2022-05-27T09:43:49Z</time>
      </trkpt>
      <trkpt lat="44.4144" lon="3.59257">
        <ele>1237</ele>
        <time>2022-05-27T09:43:50Z</time>
      </trkpt>
      <trkpt lat="44.41439" lon="3.59257">
        <ele>1237</ele>
        <time>2022-05-27T09:43:51Z</time>
      </trkpt>
      <trkpt lat="44.41438" lon="3.59256">
        <ele>1238</ele>
        <time>2022-05-27T09:43:52Z</time>
      </trkpt>
      <trkpt lat="44.41437" lon="3.59257">
        <ele>1238</ele>
        <time>2022-05-27T09:43:53Z</time>
      </trkpt>
      <trkpt lat="44.41436" lon="3.59255">
        <ele>1239</ele>
        <time>2022-05-27T09:43:54Z</time>
      </trkpt>
      <trkpt lat="44.41435" lon="3.59254">
        <ele>1238</ele>
        <time>2022-05-27T09:43:55Z</time>
      </trkpt>
      <trkpt lat="44.41434" lon="3.59252">
        <ele>1238</ele>
        <time>2022-05-27T09:43:56Z</time>
      </trkpt>
      <trkpt lat="44.41433" lon="3.59251">
        <ele>1238</ele>
        <time>2022-05-27T09:43:57Z</time>
      </trkpt>
      <trkpt lat="44.41432" lon="3.5925">
        <ele>1237</ele>
        <time>2022-05-27T09:43:58Z</time>
      </trkpt>
      <trkpt lat="44.41431" lon="3.59249">
        <ele>1239</ele>
        <time>2022-05-27T09:43:59Z</time>
      </trkpt>
      <trkpt lat="44.41431" lon="3.59248">
        <ele>1239</ele>
        <time>2022-05-27T09:44:00Z</time>
      </trkpt>
      <trkpt lat="44.4143" lon="3.59246">
        <ele>1239</ele>
        <time>2022-05-27T09:44:01Z</time>
      </trkpt>
      <trkpt lat="44.41429" lon="3.59245">
        <ele>1239</ele>
        <time>2022-05-27T09:44:02Z</time>
      </trkpt>
      <trkpt lat="44.41428" lon="3.59244">
        <ele>1238</ele>
        <time>2022-05-27T09:44:03Z</time>
      </trkpt>
      <trkpt lat="44.41427" lon="3.59243">
        <ele>1238</ele>
        <time>2022-05-27T09:44:04Z</time>
      </trkpt>
      <trkpt lat="44.41427" lon="3.59241">
        <ele>1238</ele>
        <time>2022-05-27T09:44:05Z</time>
      </trkpt>
      <trkpt lat="44.41427" lon="3.59239">
        <ele>1238</ele>
        <time>2022-05-27T09:44:06Z</time>
      </trkpt>
      <trkpt lat="44.41425" lon="3.59238">
        <ele>1237</ele>
        <time>2022-05-27T09:44:07Z</time>
      </trkpt>
      <trkpt lat="44.41424" lon="3.59237">
        <ele>1237</ele>
        <time>2022-05-27T09:44:08Z</time>
      </trkpt>
      <trkpt lat="44.41423" lon="3.59236">
        <ele>1237</ele>
        <time>2022-05-27T09:44:09Z</time>
      </trkpt>
      <trkpt lat="44.41423" lon="3.59235">
        <ele>1236</ele>
        <time>2022-05-27T09:44:10Z</time>
      </trkpt>
      <trkpt lat="44.41423" lon="3.59234">
        <ele>1237</ele>
        <time>2022-05-27T09:44:11Z</time>
      </trkpt>
      <trkpt lat="44.41423" lon="3.59233">
        <ele>1237</ele>
        <time>2022-05-27T09:44:12Z</time>
      </trkpt>
      <trkpt lat="44.41422" lon="3.59233">
        <ele>1237</ele>
        <time>2022-05-27T09:44:13Z</time>
      </trkpt>
      <trkpt lat="44.4142" lon="3.59233">
        <ele>1237</ele>
        <time>2022-05-27T09:44:14Z</time>
      </trkpt>
      <trkpt lat="44.41419" lon="3.59233">
        <ele>1237</ele>
        <time>2022-05-27T09:44:15Z</time>
      </trkpt>
      <trkpt lat="44.41419" lon="3.59232">
        <ele>1237</ele>
        <time>2022-05-27T09:44:16Z</time>
      </trkpt>
      <trkpt lat="44.41418" lon="3.59231">
        <ele>1237</ele>
        <time>2022-05-27T09:44:17Z</time>
      </trkpt>
      <trkpt lat="44.41418" lon="3.5923">
        <ele>1236</ele>
        <time>2022-05-27T09:44:18Z</time>
      </trkpt>
      <trkpt lat="44.41417" lon="3.5923">
        <ele>1236</ele>
        <time>2022-05-27T09:44:19Z</time>
      </trkpt>
      <trkpt lat="44.41416" lon="3.59229">
        <ele>1236</ele>
        <time>2022-05-27T09:44:20Z</time>
      </trkpt>
      <trkpt lat="44.41415" lon="3.59227">
        <ele>1235</ele>
        <time>2022-05-27T09:44:21Z</time>
      </trkpt>
      <trkpt lat="44.41414" lon="3.59226">
        <ele>1235</ele>
        <time>2022-05-27T09:44:22Z</time>
      </trkpt>
      <trkpt lat="44.41413" lon="3.59224">
        <ele>1235</ele>
        <time>2022-05-27T09:44:23Z</time>
      </trkpt>
      <trkpt lat="44.41412" lon="3.59224">
        <ele>1236</ele>
        <time>2022-05-27T09:44:24Z</time>
      </trkpt>
      <trkpt lat="44.4141" lon="3.59222">
        <ele>1236</ele>
        <time>2022-05-27T09:44:25Z</time>
      </trkpt>
      <trkpt lat="44.41409" lon="3.59221">
        <ele>1235</ele>
        <time>2022-05-27T09:44:26Z</time>
      </trkpt>
      <trkpt lat="44.41408" lon="3.5922">
        <ele>1235</ele>
        <time>2022-05-27T09:44:27Z</time>
      </trkpt>
      <trkpt lat="44.41407" lon="3.59219">
        <ele>1234</ele>
        <time>2022-05-27T09:44:28Z</time>
      </trkpt>
      <trkpt lat="44.41407" lon="3.59218">
        <ele>1234</ele>
        <time>2022-05-27T09:44:29Z</time>
      </trkpt>
      <trkpt lat="44.41406" lon="3.59217">
        <ele>1236</ele>
        <time>2022-05-27T09:44:30Z</time>
      </trkpt>
      <trkpt lat="44.41404" lon="3.59216">
        <ele>1236</ele>
        <time>2022-05-27T09:44:31Z</time>
      </trkpt>
      <trkpt lat="44.41403" lon="3.59216">
        <ele>1236</ele>
        <time>2022-05-27T09:44:32Z</time>
      </trkpt>
      <trkpt lat="44.41401" lon="3.59215">
        <ele>1235</ele>
        <time>2022-05-27T09:44:33Z</time>
      </trkpt>
      <trkpt lat="44.41401" lon="3.59213">
        <ele>1235</ele>
        <time>2022-05-27T09:44:34Z</time>
      </trkpt>
      <trkpt lat="44.414" lon="3.59213">
        <ele>1235</ele>
        <time>2022-05-27T09:44:35Z</time>
      </trkpt>
      <trkpt lat="44.41399" lon="3.59212">
        <ele>1236</ele>
        <time>2022-05-27T09:44:36Z</time>
      </trkpt>
      <trkpt lat="44.41398" lon="3.59211">
        <ele>1236</ele>
        <time>2022-05-27T09:44:37Z</time>
      </trkpt>
      <trkpt lat="44.41396" lon="3.59211">
        <ele>1236</ele>
        <time>2022-05-27T09:44:38Z</time>
      </trkpt>
      <trkpt lat="44.41396" lon="3.5921">
        <ele>1236</ele>
        <time>2022-05-27T09:44:39Z</time>
      </trkpt>
      <trkpt lat="44.41395" lon="3.5921">
        <ele>1236</ele>
        <time>2022-05-27T09:44:40Z</time>
      </trkpt>
      <trkpt lat="44.41394" lon="3.59209">
        <ele>1235</ele>
        <time>2022-05-27T09:44:41Z</time>
      </trkpt>
      <trkpt lat="44.41394" lon="3.59208">
        <ele>1236</ele>
        <time>2022-05-27T09:44:42Z</time>
      </trkpt>
      <trkpt lat="44.41393" lon="3.59207">
        <ele>1236</ele>
        <time>2022-05-27T09:44:43Z</time>
      </trkpt>
      <trkpt lat="44.41392" lon="3.59207">
        <ele>1235</ele>
        <time>2022-05-27T09:44:44Z</time>
      </trkpt>
      <trkpt lat="44.41391" lon="3.59205">
        <ele>1235</ele>
        <time>2022-05-27T09:44:45Z</time>
      </trkpt>
      <trkpt lat="44.41391" lon="3.59204">
        <ele>1235</ele>
        <time>2022-05-27T09:44:46Z</time>
      </trkpt>
      <trkpt lat="44.4139" lon="3.59203">
        <ele>1234</ele>
        <time>2022-05-27T09:44:47Z</time>
      </trkpt>
      <trkpt lat="44.4139" lon="3.59203">
        <ele>1235</ele>
        <time>2022-05-27T09:44:48Z</time>
      </trkpt>
      <trkpt lat="44.41389" lon="3.59202">
        <ele>1236</ele>
        <time>2022-05-27T09:44:49Z</time>
      </trkpt>
      <trkpt lat="44.41388" lon="3.592">
        <ele>1235</ele>
        <time>2022-05-27T09:44:50Z</time>
      </trkpt>
      <trkpt lat="44.41388" lon="3.59199">
        <ele>1235</ele>
        <time>2022-05-27T09:44:51Z</time>
      </trkpt>
      <trkpt lat="44.41387" lon="3.59198">
        <ele>1234</ele>
        <time>2022-05-27T09:44:52Z</time>
      </trkpt>
      <trkpt lat="44.41387" lon="3.59197">
        <ele>1234</ele>
        <time>2022-05-27T09:44:53Z</time>
      </trkpt>
      <trkpt lat="44.41386" lon="3.59196">
        <ele>1234</ele>
        <time>2022-05-27T09:44:54Z</time>
      </trkpt>
      <trkpt lat="44.41385" lon="3.59195">
        <ele>1235</ele>
        <time>2022-05-27T09:44:55Z</time>
      </trkpt>
      <trkpt lat="44.41384" lon="3.59194">
        <ele>1235</ele>
        <time>2022-05-27T09:44:56Z</time>
      </trkpt>
      <trkpt lat="44.41383" lon="3.59193">
        <ele>1234</ele>
        <time>2022-05-27T09:44:57Z</time>
      </trkpt>
      <trkpt lat="44.41382" lon="3.59192">
        <ele>1234</ele>
        <time>2022-05-27T09:44:58Z</time>
      </trkpt>
      <trkpt lat="44.41381" lon="3.5919">
        <ele>1233</ele>
        <time>2022-05-27T09:44:59Z</time>
      </trkpt>
      <trkpt lat="44.4138" lon="3.59189">
        <ele>1233</ele>
        <time>2022-05-27T09:45:00Z</time>
      </trkpt>
      <trkpt lat="44.41379" lon="3.59187">
        <ele>1233</ele>
        <time>2022-05-27T09:45:01Z</time>
      </trkpt>
      <trkpt lat="44.41377" lon="3.59187">
        <ele>1233</ele>
        <time>2022-05-27T09:45:02Z</time>
      </trkpt>
      <trkpt lat="44.41376" lon="3.59186">
        <ele>1233</ele>
        <time>2022-05-27T09:45:03Z</time>
      </trkpt>
      <trkpt lat="44.41375" lon="3.59185">
        <ele>1232</ele>
        <time>2022-05-27T09:45:04Z</time>
      </trkpt>
      <trkpt lat="44.41374" lon="3.59184">
        <ele>1232</ele>
        <time>2022-05-27T09:45:05Z</time>
      </trkpt>
      <trkpt lat="44.41373" lon="3.59183">
        <ele>1232</ele>
        <time>2022-05-27T09:45:06Z</time>
      </trkpt>
      <trkpt lat="44.41372" lon="3.59182">
        <ele>1233</ele>
        <time>2022-05-27T09:45:07Z</time>
      </trkpt>
      <trkpt lat="44.41372" lon="3.59181">
        <ele>1233</ele>
        <time>2022-05-27T09:45:08Z</time>
      </trkpt>
      <trkpt lat="44.4137" lon="3.5918">
        <ele>1233</ele>
        <time>2022-05-27T09:45:09Z</time>
      </trkpt>
      <trkpt lat="44.4137" lon="3.59179">
        <ele>1232</ele>
        <time>2022-05-27T09:45:10Z</time>
      </trkpt>
      <trkpt lat="44.41369" lon="3.59177">
        <ele>1232</ele>
        <time>2022-05-27T09:45:11Z</time>
      </trkpt>
      <trkpt lat="44.41368" lon="3.59176">
        <ele>1233</ele>
        <time>2022-05-27T09:45:12Z</time>
      </trkpt>
      <trkpt lat="44.41367" lon="3.59175">
        <ele>1233</ele>
        <time>2022-05-27T09:45:13Z</time>
      </trkpt>
      <trkpt lat="44.41366" lon="3.59174">
        <ele>1233</ele>
        <time>2022-05-27T09:45:14Z</time>
      </trkpt>
      <trkpt lat="44.41365" lon="3.59172">
        <ele>1232</ele>
        <time>2022-05-27T09:45:15Z</time>
      </trkpt>
      <trkpt lat="44.41364" lon="3.59171">
        <ele>1232</ele>
        <time>2022-05-27T09:45:16Z</time>
      </trkpt>
      <trkpt lat="44.41364" lon="3.5917">
        <ele>1232</ele>
        <time>2022-05-27T09:45:17Z</time>
      </trkpt>
      <trkpt lat="44.41364" lon="3.59169">
        <ele>1232</ele>
        <time>2022-05-27T09:45:18Z</time>
      </trkpt>
      <trkpt lat="44.41363" lon="3.59168">
        <ele>1233</ele>
        <time>2022-05-27T09:45:19Z</time>
      </trkpt>
      <trkpt lat="44.41362" lon="3.59167">
        <ele>1234</ele>
        <time>2022-05-27T09:45:20Z</time>
      </trkpt>
      <trkpt lat="44.41361" lon="3.59165">
        <ele>1233</ele>
        <time>2022-05-27T09:45:21Z</time>
      </trkpt>
      <trkpt lat="44.4136" lon="3.59163">
        <ele>1233</ele>
        <time>2022-05-27T09:45:22Z</time>
      </trkpt>
      <trkpt lat="44.41358" lon="3.59162">
        <ele>1233</ele>
        <time>2022-05-27T09:45:23Z</time>
      </trkpt>
      <trkpt lat="44.41358" lon="3.5916">
        <ele>1233</ele>
        <time>2022-05-27T09:45:24Z</time>
      </trkpt>
      <trkpt lat="44.41357" lon="3.59159">
        <ele>1234</ele>
        <time>2022-05-27T09:45:25Z</time>
      </trkpt>
      <trkpt lat="44.41356" lon="3.59158">
        <ele>1234</ele>
        <time>2022-05-27T09:45:26Z</time>
      </trkpt>
      <trkpt lat="44.41355" lon="3.59157">
        <ele>1233</ele>
        <time>2022-05-27T09:45:27Z</time>
      </trkpt>
      <trkpt lat="44.41355" lon="3.59155">
        <ele>1233</ele>
        <time>2022-05-27T09:45:28Z</time>
      </trkpt>
      <trkpt lat="44.41354" lon="3.59153">
        <ele>1233</ele>
        <time>2022-05-27T09:45:29Z</time>
      </trkpt>
      <trkpt lat="44.41354" lon="3.59152">
        <ele>1233</ele>
        <time>2022-05-27T09:45:30Z</time>
      </trkpt>
      <trkpt lat="44.41353" lon="3.59151">
        <ele>1233</ele>
        <time>2022-05-27T09:45:31Z</time>
      </trkpt>
      <trkpt lat="44.41353" lon="3.5915">
        <ele>1233</ele>
        <time>2022-05-27T09:45:32Z</time>
      </trkpt>
      <trkpt lat="44.41353" lon="3.59149">
        <ele>1233</ele>
        <time>2022-05-27T09:45:33Z</time>
      </trkpt>
      <trkpt lat="44.41351" lon="3.59147">
        <ele>1232</ele>
        <time>2022-05-27T09:45:34Z</time>
      </trkpt>
      <trkpt lat="44.4135" lon="3.59146">
        <ele>1232</ele>
        <time>2022-05-27T09:45:35Z</time>
      </trkpt>
      <trkpt lat="44.41349" lon="3.59145">
        <ele>1232</ele>
        <time>2022-05-27T09:45:36Z</time>
      </trkpt>
      <trkpt lat="44.41349" lon="3.59143">
        <ele>1231</ele>
        <time>2022-05-27T09:45:37Z</time>
      </trkpt>
      <trkpt lat="44.41348" lon="3.59142">
        <ele>1231</ele>
        <time>2022-05-27T09:45:38Z</time>
      </trkpt>
      <trkpt lat="44.41347" lon="3.59141">
        <ele>1230</ele>
        <time>2022-05-27T09:45:39Z</time>
      </trkpt>
      <trkpt lat="44.41346" lon="3.59139">
        <ele>1230</ele>
        <time>2022-05-27T09:45:40Z</time>
      </trkpt>
      <trkpt lat="44.41345" lon="3.59138">
        <ele>1230</ele>
        <time>2022-05-27T09:45:41Z</time>
      </trkpt>
      <trkpt lat="44.41344" lon="3.59136">
        <ele>1230</ele>
        <time>2022-05-27T09:45:42Z</time>
      </trkpt>
      <trkpt lat="44.41343" lon="3.59135">
        <ele>1229</ele>
        <time>2022-05-27T09:45:43Z</time>
      </trkpt>
      <trkpt lat="44.41342" lon="3.59134">
        <ele>1229</ele>
        <time>2022-05-27T09:45:44Z</time>
      </trkpt>
      <trkpt lat="44.41341" lon="3.59132">
        <ele>1229</ele>
        <time>2022-05-27T09:45:45Z</time>
      </trkpt>
      <trkpt lat="44.41341" lon="3.5913">
        <ele>1228</ele>
        <time>2022-05-27T09:45:46Z</time>
      </trkpt>
      <trkpt lat="44.4134" lon="3.59128">
        <ele>1228</ele>
        <time>2022-05-27T09:45:47Z</time>
      </trkpt>
      <trkpt lat="44.41339" lon="3.59127">
        <ele>1227</ele>
        <time>2022-05-27T09:45:48Z</time>
      </trkpt>
      <trkpt lat="44.41338" lon="3.59126">
        <ele>1227</ele>
        <time>2022-05-27T09:45:49Z</time>
      </trkpt>
      <trkpt lat="44.41337" lon="3.59125">
        <ele>1228</ele>
        <time>2022-05-27T09:45:50Z</time>
      </trkpt>
      <trkpt lat="44.41336" lon="3.59124">
        <ele>1229</ele>
        <time>2022-05-27T09:45:51Z</time>
      </trkpt>
      <trkpt lat="44.41335" lon="3.59123">
        <ele>1229</ele>
        <time>2022-05-27T09:45:52Z</time>
      </trkpt>
      <trkpt lat="44.41335" lon="3.59121">
        <ele>1229</ele>
        <time>2022-05-27T09:45:53Z</time>
      </trkpt>
      <trkpt lat="44.41334" lon="3.5912">
        <ele>1229</ele>
        <time>2022-05-27T09:45:54Z</time>
      </trkpt>
      <trkpt lat="44.41333" lon="3.59119">
        <ele>1229</ele>
        <time>2022-05-27T09:45:55Z</time>
      </trkpt>
      <trkpt lat="44.41332" lon="3.59118">
        <ele>1229</ele>
        <time>2022-05-27T09:45:56Z</time>
      </trkpt>
      <trkpt lat="44.41331" lon="3.59117">
        <ele>1229</ele>
        <time>2022-05-27T09:45:57Z</time>
      </trkpt>
      <trkpt lat="44.4133" lon="3.59116">
        <ele>1229</ele>
        <time>2022-05-27T09:45:58Z</time>
      </trkpt>
      <trkpt lat="44.41328" lon="3.59115">
        <ele>1229</ele>
        <time>2022-05-27T09:45:59Z</time>
      </trkpt>
      <trkpt lat="44.41328" lon="3.59114">
        <ele>1229</ele>
        <time>2022-05-27T09:46:00Z</time>
      </trkpt>
      <trkpt lat="44.41327" lon="3.59113">
        <ele>1228</ele>
        <time>2022-05-27T09:46:01Z</time>
      </trkpt>
      <trkpt lat="44.41327" lon="3.59112">
        <ele>1229</ele>
        <time>2022-05-27T09:46:02Z</time>
      </trkpt>
      <trkpt lat="44.41325" lon="3.59111">
        <ele>1229</ele>
        <time>2022-05-27T09:46:03Z</time>
      </trkpt>
      <trkpt lat="44.41324" lon="3.5911">
        <ele>1229</ele>
        <time>2022-05-27T09:46:04Z</time>
      </trkpt>
      <trkpt lat="44.41323" lon="3.59109">
        <ele>1229</ele>
        <time>2022-05-27T09:46:05Z</time>
      </trkpt>
      <trkpt lat="44.41322" lon="3.59108">
        <ele>1230</ele>
        <time>2022-05-27T09:46:06Z</time>
      </trkpt>
      <trkpt lat="44.41321" lon="3.59106">
        <ele>1229</ele>
        <time>2022-05-27T09:46:07Z</time>
      </trkpt>
      <trkpt lat="44.4132" lon="3.59106">
        <ele>1230</ele>
        <time>2022-05-27T09:46:08Z</time>
      </trkpt>
      <trkpt lat="44.4132" lon="3.59104">
        <ele>1230</ele>
        <time>2022-05-27T09:46:09Z</time>
      </trkpt>
      <trkpt lat="44.41319" lon="3.59102">
        <ele>1230</ele>
        <time>2022-05-27T09:46:10Z</time>
      </trkpt>
      <trkpt lat="44.41318" lon="3.59101">
        <ele>1229</ele>
        <time>2022-05-27T09:46:11Z</time>
      </trkpt>
      <trkpt lat="44.41317" lon="3.591">
        <ele>1229</ele>
        <time>2022-05-27T09:46:12Z</time>
      </trkpt>
      <trkpt lat="44.41316" lon="3.59098">
        <ele>1229</ele>
        <time>2022-05-27T09:46:13Z</time>
      </trkpt>
      <trkpt lat="44.41316" lon="3.59097">
        <ele>1230</ele>
        <time>2022-05-27T09:46:14Z</time>
      </trkpt>
      <trkpt lat="44.41316" lon="3.59096">
        <ele>1231</ele>
        <time>2022-05-27T09:46:15Z</time>
      </trkpt>
      <trkpt lat="44.41315" lon="3.59094">
        <ele>1230</ele>
        <time>2022-05-27T09:46:16Z</time>
      </trkpt>
      <trkpt lat="44.41314" lon="3.59093">
        <ele>1230</ele>
        <time>2022-05-27T09:46:17Z</time>
      </trkpt>
      <trkpt lat="44.41313" lon="3.59091">
        <ele>1230</ele>
        <time>2022-05-27T09:46:18Z</time>
      </trkpt>
      <trkpt lat="44.41312" lon="3.59089">
        <ele>1230</ele>
        <time>2022-05-27T09:46:19Z</time>
      </trkpt>
      <trkpt lat="44.41312" lon="3.59088">
        <ele>1229</ele>
        <time>2022-05-27T09:46:20Z</time>
      </trkpt>
      <trkpt lat="44.41312" lon="3.59087">
        <ele>1229</ele>
        <time>2022-05-27T09:46:21Z</time>
      </trkpt>
      <trkpt lat="44.41311" lon="3.59086">
        <ele>1230</ele>
        <time>2022-05-27T09:46:22Z</time>
      </trkpt>
      <trkpt lat="44.41309" lon="3.59085">
        <ele>1229</ele>
        <time>2022-05-27T09:46:23Z</time>
      </trkpt>
      <trkpt lat="44.41308" lon="3.59083">
        <ele>1229</ele>
        <time>2022-05-27T09:46:24Z</time>
      </trkpt>
      <trkpt lat="44.41307" lon="3.59082">
        <ele>1229</ele>
        <time>2022-05-27T09:46:25Z</time>
      </trkpt>
      <trkpt lat="44.41306" lon="3.59081">
        <ele>1229</ele>
        <time>2022-05-27T09:46:26Z</time>
      </trkpt>
      <trkpt lat="44.41306" lon="3.5908">
        <ele>1229</ele>
        <time>2022-05-27T09:46:27Z</time>
      </trkpt>
      <trkpt lat="44.41304" lon="3.5908">
        <ele>1229</ele>
        <time>2022-05-27T09:46:28Z</time>
      </trkpt>
      <trkpt lat="44.41304" lon="3.59079">
        <ele>1230</ele>
        <time>2022-05-27T09:46:29Z</time>
      </trkpt>
      <trkpt lat="44.41302" lon="3.59078">
        <ele>1230</ele>
        <time>2022-05-27T09:46:30Z</time>
      </trkpt>
      <trkpt lat="44.41301" lon="3.59077">
        <ele>1230</ele>
        <time>2022-05-27T09:46:31Z</time>
      </trkpt>
      <trkpt lat="44.41301" lon="3.59076">
        <ele>1230</ele>
        <time>2022-05-27T09:46:32Z</time>
      </trkpt>
      <trkpt lat="44.41299" lon="3.59075">
        <ele>1231</ele>
        <time>2022-05-27T09:46:33Z</time>
      </trkpt>
      <trkpt lat="44.41298" lon="3.59074">
        <ele>1229</ele>
        <time>2022-05-27T09:46:34Z</time>
      </trkpt>
      <trkpt lat="44.41297" lon="3.59075">
        <ele>1228</ele>
        <time>2022-05-27T09:46:35Z</time>
      </trkpt>
      <trkpt lat="44.41296" lon="3.59073">
        <ele>1228</ele>
        <time>2022-05-27T09:46:36Z</time>
      </trkpt>
      <trkpt lat="44.41294" lon="3.59072">
        <ele>1228</ele>
        <time>2022-05-27T09:46:37Z</time>
      </trkpt>
      <trkpt lat="44.41293" lon="3.59071">
        <ele>1228</ele>
        <time>2022-05-27T09:46:38Z</time>
      </trkpt>
      <trkpt lat="44.41292" lon="3.59069">
        <ele>1229</ele>
        <time>2022-05-27T09:46:39Z</time>
      </trkpt>
      <trkpt lat="44.41291" lon="3.59068">
        <ele>1228</ele>
        <time>2022-05-27T09:46:40Z</time>
      </trkpt>
      <trkpt lat="44.4129" lon="3.59066">
        <ele>1227</ele>
        <time>2022-05-27T09:46:41Z</time>
      </trkpt>
      <trkpt lat="44.41289" lon="3.59065">
        <ele>1227</ele>
        <time>2022-05-27T09:46:42Z</time>
      </trkpt>
      <trkpt lat="44.41288" lon="3.59064">
        <ele>1227</ele>
        <time>2022-05-27T09:46:43Z</time>
      </trkpt>
      <trkpt lat="44.41287" lon="3.59063">
        <ele>1227</ele>
        <time>2022-05-27T09:46:44Z</time>
      </trkpt>
      <trkpt lat="44.41287" lon="3.59063">
        <ele>1228</ele>
        <time>2022-05-27T09:46:45Z</time>
      </trkpt>
      <trkpt lat="44.41285" lon="3.59062">
        <ele>1228</ele>
        <time>2022-05-27T09:46:46Z</time>
      </trkpt>
      <trkpt lat="44.41283" lon="3.59062">
        <ele>1228</ele>
        <time>2022-05-27T09:46:47Z</time>
      </trkpt>
      <trkpt lat="44.41282" lon="3.59061">
        <ele>1228</ele>
        <time>2022-05-27T09:46:48Z</time>
      </trkpt>
      <trkpt lat="44.41281" lon="3.5906">
        <ele>1227</ele>
        <time>2022-05-27T09:46:49Z</time>
      </trkpt>
      <trkpt lat="44.4128" lon="3.59059">
        <ele>1227</ele>
        <time>2022-05-27T09:46:50Z</time>
      </trkpt>
      <trkpt lat="44.41279" lon="3.59058">
        <ele>1228</ele>
        <time>2022-05-27T09:46:51Z</time>
      </trkpt>
      <trkpt lat="44.41279" lon="3.59058">
        <ele>1227</ele>
        <time>2022-05-27T09:46:52Z</time>
      </trkpt>
      <trkpt lat="44.41277" lon="3.59057">
        <ele>1227</ele>
        <time>2022-05-27T09:46:53Z</time>
      </trkpt>
      <trkpt lat="44.41277" lon="3.59056">
        <ele>1227</ele>
        <time>2022-05-27T09:46:54Z</time>
      </trkpt>
      <trkpt lat="44.41275" lon="3.59055">
        <ele>1227</ele>
        <time>2022-05-27T09:46:55Z</time>
      </trkpt>
      <trkpt lat="44.41274" lon="3.59054">
        <ele>1226</ele>
        <time>2022-05-27T09:46:56Z</time>
      </trkpt>
      <trkpt lat="44.41274" lon="3.59053">
        <ele>1226</ele>
        <time>2022-05-27T09:46:57Z</time>
      </trkpt>
      <trkpt lat="44.41272" lon="3.5905">
        <ele>1227</ele>
        <time>2022-05-27T09:46:58Z</time>
      </trkpt>
      <trkpt lat="44.41271" lon="3.59049">
        <ele>1226</ele>
        <time>2022-05-27T09:46:59Z</time>
      </trkpt>
      <trkpt lat="44.4127" lon="3.59048">
        <ele>1226</ele>
        <time>2022-05-27T09:47:00Z</time>
      </trkpt>
      <trkpt lat="44.41269" lon="3.59046">
        <ele>1225</ele>
        <time>2022-05-27T09:47:01Z</time>
      </trkpt>
      <trkpt lat="44.41268" lon="3.59045">
        <ele>1225</ele>
        <time>2022-05-27T09:47:02Z</time>
      </trkpt>
      <trkpt lat="44.41267" lon="3.59045">
        <ele>1225</ele>
        <time>2022-05-27T09:47:03Z</time>
      </trkpt>
      <trkpt lat="44.41266" lon="3.59044">
        <ele>1225</ele>
        <time>2022-05-27T09:47:04Z</time>
      </trkpt>
      <trkpt lat="44.41265" lon="3.59043">
        <ele>1225</ele>
        <time>2022-05-27T09:47:05Z</time>
      </trkpt>
      <trkpt lat="44.41263" lon="3.59042">
        <ele>1225</ele>
        <time>2022-05-27T09:47:06Z</time>
      </trkpt>
      <trkpt lat="44.41262" lon="3.59041">
        <ele>1225</ele>
        <time>2022-05-27T09:47:07Z</time>
      </trkpt>
      <trkpt lat="44.41261" lon="3.5904">
        <ele>1225</ele>
        <time>2022-05-27T09:47:08Z</time>
      </trkpt>
      <trkpt lat="44.41261" lon="3.59039">
        <ele>1224</ele>
        <time>2022-05-27T09:47:09Z</time>
      </trkpt>
      <trkpt lat="44.41259" lon="3.59038">
        <ele>1225</ele>
        <time>2022-05-27T09:47:10Z</time>
      </trkpt>
      <trkpt lat="44.41258" lon="3.59037">
        <ele>1225</ele>
        <time>2022-05-27T09:47:11Z</time>
      </trkpt>
      <trkpt lat="44.41257" lon="3.59035">
        <ele>1225</ele>
        <time>2022-05-27T09:47:12Z</time>
      </trkpt>
      <trkpt lat="44.41256" lon="3.59034">
        <ele>1224</ele>
        <time>2022-05-27T09:47:13Z</time>
      </trkpt>
      <trkpt lat="44.41255" lon="3.59033">
        <ele>1224</ele>
        <time>2022-05-27T09:47:14Z</time>
      </trkpt>
      <trkpt lat="44.41254" lon="3.59032">
        <ele>1224</ele>
        <time>2022-05-27T09:47:15Z</time>
      </trkpt>
      <trkpt lat="44.41253" lon="3.59031">
        <ele>1224</ele>
        <time>2022-05-27T09:47:16Z</time>
      </trkpt>
      <trkpt lat="44.41251" lon="3.59031">
        <ele>1224</ele>
        <time>2022-05-27T09:47:17Z</time>
      </trkpt>
      <trkpt lat="44.4125" lon="3.5903">
        <ele>1224</ele>
        <time>2022-05-27T09:47:18Z</time>
      </trkpt>
      <trkpt lat="44.41249" lon="3.59029">
        <ele>1224</ele>
        <time>2022-05-27T09:47:19Z</time>
      </trkpt>
      <trkpt lat="44.41248" lon="3.59029">
        <ele>1224</ele>
        <time>2022-05-27T09:47:20Z</time>
      </trkpt>
      <trkpt lat="44.41247" lon="3.59028">
        <ele>1224</ele>
        <time>2022-05-27T09:47:21Z</time>
      </trkpt>
      <trkpt lat="44.41246" lon="3.59028">
        <ele>1225</ele>
        <time>2022-05-27T09:47:22Z</time>
      </trkpt>
      <trkpt lat="44.41244" lon="3.59027">
        <ele>1224</ele>
        <time>2022-05-27T09:47:23Z</time>
      </trkpt>
      <trkpt lat="44.41242" lon="3.59027">
        <ele>1224</ele>
        <time>2022-05-27T09:47:24Z</time>
      </trkpt>
      <trkpt lat="44.41242" lon="3.59027">
        <ele>1224</ele>
        <time>2022-05-27T09:47:25Z</time>
      </trkpt>
      <trkpt lat="44.4124" lon="3.59026">
        <ele>1223</ele>
        <time>2022-05-27T09:47:26Z</time>
      </trkpt>
      <trkpt lat="44.41239" lon="3.59025">
        <ele>1223</ele>
        <time>2022-05-27T09:47:27Z</time>
      </trkpt>
      <trkpt lat="44.41238" lon="3.59024">
        <ele>1223</ele>
        <time>2022-05-27T09:47:28Z</time>
      </trkpt>
      <trkpt lat="44.41237" lon="3.59023">
        <ele>1223</ele>
        <time>2022-05-27T09:47:29Z</time>
      </trkpt>
      <trkpt lat="44.41236" lon="3.59022">
        <ele>1222</ele>
        <time>2022-05-27T09:47:30Z</time>
      </trkpt>
      <trkpt lat="44.41235" lon="3.59021">
        <ele>1222</ele>
        <time>2022-05-27T09:47:31Z</time>
      </trkpt>
      <trkpt lat="44.41234" lon="3.5902">
        <ele>1222</ele>
        <time>2022-05-27T09:47:32Z</time>
      </trkpt>
      <trkpt lat="44.41233" lon="3.59019">
        <ele>1222</ele>
        <time>2022-05-27T09:47:33Z</time>
      </trkpt>
      <trkpt lat="44.41232" lon="3.59018">
        <ele>1222</ele>
        <time>2022-05-27T09:47:34Z</time>
      </trkpt>
      <trkpt lat="44.41232" lon="3.59018">
        <ele>1223</ele>
        <time>2022-05-27T09:47:35Z</time>
      </trkpt>
      <trkpt lat="44.41231" lon="3.59017">
        <ele>1223</ele>
        <time>2022-05-27T09:47:36Z</time>
      </trkpt>
      <trkpt lat="44.4123" lon="3.59016">
        <ele>1223</ele>
        <time>2022-05-27T09:47:37Z</time>
      </trkpt>
      <trkpt lat="44.41229" lon="3.59015">
        <ele>1223</ele>
        <time>2022-05-27T09:47:38Z</time>
      </trkpt>
      <trkpt lat="44.41227" lon="3.59014">
        <ele>1223</ele>
        <time>2022-05-27T09:47:39Z</time>
      </trkpt>
      <trkpt lat="44.41227" lon="3.59013">
        <ele>1224</ele>
        <time>2022-05-27T09:47:40Z</time>
      </trkpt>
      <trkpt lat="44.41225" lon="3.59013">
        <ele>1224</ele>
        <time>2022-05-27T09:47:41Z</time>
      </trkpt>
      <trkpt lat="44.41224" lon="3.59012">
        <ele>1224</ele>
        <time>2022-05-27T09:47:42Z</time>
      </trkpt>
      <trkpt lat="44.41222" lon="3.59011">
        <ele>1223</ele>
        <time>2022-05-27T09:47:43Z</time>
      </trkpt>
      <trkpt lat="44.41221" lon="3.59009">
        <ele>1223</ele>
        <time>2022-05-27T09:47:44Z</time>
      </trkpt>
      <trkpt lat="44.4122" lon="3.59008">
        <ele>1223</ele>
        <time>2022-05-27T09:47:45Z</time>
      </trkpt>
      <trkpt lat="44.41219" lon="3.59008">
        <ele>1223</ele>
        <time>2022-05-27T09:47:46Z</time>
      </trkpt>
      <trkpt lat="44.41217" lon="3.59008">
        <ele>1223</ele>
        <time>2022-05-27T09:47:47Z</time>
      </trkpt>
      <trkpt lat="44.41216" lon="3.59008">
        <ele>1222</ele>
        <time>2022-05-27T09:47:48Z</time>
      </trkpt>
      <trkpt lat="44.41214" lon="3.59006">
        <ele>1222</ele>
        <time>2022-05-27T09:47:49Z</time>
      </trkpt>
      <trkpt lat="44.41213" lon="3.59006">
        <ele>1222</ele>
        <time>2022-05-27T09:47:50Z</time>
      </trkpt>
      <trkpt lat="44.41213" lon="3.59005">
        <ele>1221</ele>
        <time>2022-05-27T09:47:51Z</time>
      </trkpt>
      <trkpt lat="44.41211" lon="3.59005">
        <ele>1221</ele>
        <time>2022-05-27T09:47:52Z</time>
      </trkpt>
      <trkpt lat="44.4121" lon="3.59004">
        <ele>1221</ele>
        <time>2022-05-27T09:47:53Z</time>
      </trkpt>
      <trkpt lat="44.41209" lon="3.59003">
        <ele>1221</ele>
        <time>2022-05-27T09:47:54Z</time>
      </trkpt>
      <trkpt lat="44.41208" lon="3.59002">
        <ele>1220</ele>
        <time>2022-05-27T09:47:55Z</time>
      </trkpt>
      <trkpt lat="44.41206" lon="3.59001">
        <ele>1220</ele>
        <time>2022-05-27T09:47:56Z</time>
      </trkpt>
      <trkpt lat="44.41205" lon="3.59">
        <ele>1220</ele>
        <time>2022-05-27T09:47:57Z</time>
      </trkpt>
      <trkpt lat="44.41204" lon="3.58999">
        <ele>1220</ele>
        <time>2022-05-27T09:47:58Z</time>
      </trkpt>
      <trkpt lat="44.41203" lon="3.58998">
        <ele>1220</ele>
        <time>2022-05-27T09:47:59Z</time>
      </trkpt>
      <trkpt lat="44.41202" lon="3.58997">
        <ele>1220</ele>
        <time>2022-05-27T09:48:00Z</time>
      </trkpt>
      <trkpt lat="44.41201" lon="3.58996">
        <ele>1220</ele>
        <time>2022-05-27T09:48:01Z</time>
      </trkpt>
      <trkpt lat="44.412" lon="3.58996">
        <ele>1221</ele>
        <time>2022-05-27T09:48:02Z</time>
      </trkpt>
      <trkpt lat="44.41198" lon="3.58995">
        <ele>1221</ele>
        <time>2022-05-27T09:48:03Z</time>
      </trkpt>
      <trkpt lat="44.41197" lon="3.58994">
        <ele>1220</ele>
        <time>2022-05-27T09:48:04Z</time>
      </trkpt>
      <trkpt lat="44.41196" lon="3.58993">
        <ele>1220</ele>
        <time>2022-05-27T09:48:05Z</time>
      </trkpt>
      <trkpt lat="44.41195" lon="3.58993">
        <ele>1220</ele>
        <time>2022-05-27T09:48:06Z</time>
      </trkpt>
      <trkpt lat="44.41194" lon="3.58992">
        <ele>1219</ele>
        <time>2022-05-27T09:48:07Z</time>
      </trkpt>
      <trkpt lat="44.41192" lon="3.5899">
        <ele>1219</ele>
        <time>2022-05-27T09:48:08Z</time>
      </trkpt>
      <trkpt lat="44.41191" lon="3.58989">
        <ele>1219</ele>
        <time>2022-05-27T09:48:09Z</time>
      </trkpt>
      <trkpt lat="44.4119" lon="3.58988">
        <ele>1219</ele>
        <time>2022-05-27T09:48:10Z</time>
      </trkpt>
      <trkpt lat="44.41188" lon="3.58987">
        <ele>1218</ele>
        <time>2022-05-27T09:48:11Z</time>
      </trkpt>
      <trkpt lat="44.41188" lon="3.58986">
        <ele>1218</ele>
        <time>2022-05-27T09:48:12Z</time>
      </trkpt>
      <trkpt lat="44.41187" lon="3.58985">
        <ele>1218</ele>
        <time>2022-05-27T09:48:13Z</time>
      </trkpt>
      <trkpt lat="44.41185" lon="3.58985">
        <ele>1217</ele>
        <time>2022-05-27T09:48:14Z</time>
      </trkpt>
      <trkpt lat="44.41185" lon="3.58984">
        <ele>1218</ele>
        <time>2022-05-27T09:48:15Z</time>
      </trkpt>
      <trkpt lat="44.41184" lon="3.58984">
        <ele>1218</ele>
        <time>2022-05-27T09:48:16Z</time>
      </trkpt>
      <trkpt lat="44.41182" lon="3.58983">
        <ele>1218</ele>
        <time>2022-05-27T09:48:17Z</time>
      </trkpt>
      <trkpt lat="44.41182" lon="3.58982">
        <ele>1218</ele>
        <time>2022-05-27T09:48:18Z</time>
      </trkpt>
      <trkpt lat="44.4118" lon="3.58981">
        <ele>1218</ele>
        <time>2022-05-27T09:48:19Z</time>
      </trkpt>
      <trkpt lat="44.4118" lon="3.5898">
        <ele>1217</ele>
        <time>2022-05-27T09:48:20Z</time>
      </trkpt>
      <trkpt lat="44.41179" lon="3.5898">
        <ele>1217</ele>
        <time>2022-05-27T09:48:21Z</time>
      </trkpt>
      <trkpt lat="44.41178" lon="3.58979">
        <ele>1217</ele>
        <time>2022-05-27T09:48:22Z</time>
      </trkpt>
      <trkpt lat="44.41176" lon="3.58978">
        <ele>1217</ele>
        <time>2022-05-27T09:48:23Z</time>
      </trkpt>
      <trkpt lat="44.41175" lon="3.58978">
        <ele>1217</ele>
        <time>2022-05-27T09:48:24Z</time>
      </trkpt>
      <trkpt lat="44.41174" lon="3.58978">
        <ele>1218</ele>
        <time>2022-05-27T09:48:25Z</time>
      </trkpt>
      <trkpt lat="44.41173" lon="3.58977">
        <ele>1217</ele>
        <time>2022-05-27T09:48:26Z</time>
      </trkpt>
      <trkpt lat="44.41172" lon="3.58976">
        <ele>1217</ele>
        <time>2022-05-27T09:48:27Z</time>
      </trkpt>
      <trkpt lat="44.41171" lon="3.58975">
        <ele>1217</ele>
        <time>2022-05-27T09:48:28Z</time>
      </trkpt>
      <trkpt lat="44.4117" lon="3.58975">
        <ele>1217</ele>
        <time>2022-05-27T09:48:29Z</time>
      </trkpt>
      <trkpt lat="44.41168" lon="3.58974">
        <ele>1217</ele>
        <time>2022-05-27T09:48:30Z</time>
      </trkpt>
      <trkpt lat="44.41167" lon="3.58973">
        <ele>1217</ele>
        <time>2022-05-27T09:48:31Z</time>
      </trkpt>
      <trkpt lat="44.41167" lon="3.58972">
        <ele>1217</ele>
        <time>2022-05-27T09:48:32Z</time>
      </trkpt>
      <trkpt lat="44.41166" lon="3.58971">
        <ele>1217</ele>
        <time>2022-05-27T09:48:33Z</time>
      </trkpt>
      <trkpt lat="44.41165" lon="3.5897">
        <ele>1217</ele>
        <time>2022-05-27T09:48:34Z</time>
      </trkpt>
      <trkpt lat="44.41164" lon="3.5897">
        <ele>1216</ele>
        <time>2022-05-27T09:48:35Z</time>
      </trkpt>
      <trkpt lat="44.41163" lon="3.58969">
        <ele>1216</ele>
        <time>2022-05-27T09:48:36Z</time>
      </trkpt>
      <trkpt lat="44.41162" lon="3.58969">
        <ele>1216</ele>
        <time>2022-05-27T09:48:37Z</time>
      </trkpt>
      <trkpt lat="44.41161" lon="3.58968">
        <ele>1216</ele>
        <time>2022-05-27T09:48:38Z</time>
      </trkpt>
      <trkpt lat="44.4116" lon="3.58967">
        <ele>1216</ele>
        <time>2022-05-27T09:48:39Z</time>
      </trkpt>
      <trkpt lat="44.41159" lon="3.58966">
        <ele>1215</ele>
        <time>2022-05-27T09:48:40Z</time>
      </trkpt>
      <trkpt lat="44.41158" lon="3.58966">
        <ele>1215</ele>
        <time>2022-05-27T09:48:41Z</time>
      </trkpt>
      <trkpt lat="44.41156" lon="3.58965">
        <ele>1214</ele>
        <time>2022-05-27T09:48:42Z</time>
      </trkpt>
      <trkpt lat="44.41155" lon="3.58964">
        <ele>1214</ele>
        <time>2022-05-27T09:48:43Z</time>
      </trkpt>
      <trkpt lat="44.41154" lon="3.58963">
        <ele>1214</ele>
        <time>2022-05-27T09:48:44Z</time>
      </trkpt>
      <trkpt lat="44.41153" lon="3.58962">
        <ele>1214</ele>
        <time>2022-05-27T09:48:45Z</time>
      </trkpt>
      <trkpt lat="44.41151" lon="3.58961">
        <ele>1214</ele>
        <time>2022-05-27T09:48:46Z</time>
      </trkpt>
      <trkpt lat="44.4115" lon="3.58961">
        <ele>1214</ele>
        <time>2022-05-27T09:48:47Z</time>
      </trkpt>
      <trkpt lat="44.4115" lon="3.5896">
        <ele>1214</ele>
        <time>2022-05-27T09:48:48Z</time>
      </trkpt>
      <trkpt lat="44.41148" lon="3.5896">
        <ele>1214</ele>
        <time>2022-05-27T09:48:49Z</time>
      </trkpt>
      <trkpt lat="44.41147" lon="3.58959">
        <ele>1214</ele>
        <time>2022-05-27T09:48:50Z</time>
      </trkpt>
      <trkpt lat="44.41146" lon="3.58959">
        <ele>1213</ele>
        <time>2022-05-27T09:48:51Z</time>
      </trkpt>
      <trkpt lat="44.41145" lon="3.58958">
        <ele>1213</ele>
        <time>2022-05-27T09:48:52Z</time>
      </trkpt>
      <trkpt lat="44.41143" lon="3.58957">
        <ele>1214</ele>
        <time>2022-05-27T09:48:53Z</time>
      </trkpt>
      <trkpt lat="44.41143" lon="3.58956">
        <ele>1214</ele>
        <time>2022-05-27T09:48:54Z</time>
      </trkpt>
      <trkpt lat="44.41142" lon="3.58956">
        <ele>1214</ele>
        <time>2022-05-27T09:48:55Z</time>
      </trkpt>
      <trkpt lat="44.4114" lon="3.58955">
        <ele>1214</ele>
        <time>2022-05-27T09:48:56Z</time>
      </trkpt>
      <trkpt lat="44.4114" lon="3.58955">
        <ele>1214</ele>
        <time>2022-05-27T09:48:57Z</time>
      </trkpt>
      <trkpt lat="44.41139" lon="3.58954">
        <ele>1214</ele>
        <time>2022-05-27T09:48:58Z</time>
      </trkpt>
      <trkpt lat="44.41138" lon="3.58953">
        <ele>1215</ele>
        <time>2022-05-27T09:48:59Z</time>
      </trkpt>
      <trkpt lat="44.41137" lon="3.58953">
        <ele>1214</ele>
        <time>2022-05-27T09:49:00Z</time>
      </trkpt>
      <trkpt lat="44.41136" lon="3.58952">
        <ele>1214</ele>
        <time>2022-05-27T09:49:01Z</time>
      </trkpt>
      <trkpt lat="44.41135" lon="3.58951">
        <ele>1214</ele>
        <time>2022-05-27T09:49:02Z</time>
      </trkpt>
      <trkpt lat="44.41134" lon="3.5895">
        <ele>1214</ele>
        <time>2022-05-27T09:49:03Z</time>
      </trkpt>
      <trkpt lat="44.41133" lon="3.58949">
        <ele>1214</ele>
        <time>2022-05-27T09:49:04Z</time>
      </trkpt>
      <trkpt lat="44.41132" lon="3.58949">
        <ele>1214</ele>
        <time>2022-05-27T09:49:05Z</time>
      </trkpt>
      <trkpt lat="44.41131" lon="3.58948">
        <ele>1214</ele>
        <time>2022-05-27T09:49:06Z</time>
      </trkpt>
      <trkpt lat="44.4113" lon="3.58947">
        <ele>1214</ele>
        <time>2022-05-27T09:49:07Z</time>
      </trkpt>
      <trkpt lat="44.41128" lon="3.58947">
        <ele>1214</ele>
        <time>2022-05-27T09:49:08Z</time>
      </trkpt>
      <trkpt lat="44.41127" lon="3.58946">
        <ele>1213</ele>
        <time>2022-05-27T09:49:09Z</time>
      </trkpt>
      <trkpt lat="44.41126" lon="3.58946">
        <ele>1213</ele>
        <time>2022-05-27T09:49:10Z</time>
      </trkpt>
      <trkpt lat="44.41125" lon="3.58945">
        <ele>1213</ele>
        <time>2022-05-27T09:49:11Z</time>
      </trkpt>
      <trkpt lat="44.41124" lon="3.58944">
        <ele>1212</ele>
        <time>2022-05-27T09:49:12Z</time>
      </trkpt>
      <trkpt lat="44.41122" lon="3.58943">
        <ele>1213</ele>
        <time>2022-05-27T09:49:13Z</time>
      </trkpt>
      <trkpt lat="44.41121" lon="3.58942">
        <ele>1212</ele>
        <time>2022-05-27T09:49:14Z</time>
      </trkpt>
      <trkpt lat="44.41121" lon="3.58941">
        <ele>1212</ele>
        <time>2022-05-27T09:49:15Z</time>
      </trkpt>
      <trkpt lat="44.4112" lon="3.58941">
        <ele>1212</ele>
        <time>2022-05-27T09:49:16Z</time>
      </trkpt>
      <trkpt lat="44.41119" lon="3.5894">
        <ele>1211</ele>
        <time>2022-05-27T09:49:17Z</time>
      </trkpt>
      <trkpt lat="44.41118" lon="3.58939">
        <ele>1211</ele>
        <time>2022-05-27T09:49:18Z</time>
      </trkpt>
      <trkpt lat="44.41116" lon="3.58939">
        <ele>1211</ele>
        <time>2022-05-27T09:49:19Z</time>
      </trkpt>
      <trkpt lat="44.41115" lon="3.58939">
        <ele>1211</ele>
        <time>2022-05-27T09:49:20Z</time>
      </trkpt>
      <trkpt lat="44.41114" lon="3.58939">
        <ele>1211</ele>
        <time>2022-05-27T09:49:21Z</time>
      </trkpt>
      <trkpt lat="44.41114" lon="3.58939">
        <ele>1211</ele>
        <time>2022-05-27T09:49:22Z</time>
      </trkpt>
      <trkpt lat="44.41112" lon="3.58938">
        <ele>1211</ele>
        <time>2022-05-27T09:49:23Z</time>
      </trkpt>
      <trkpt lat="44.41111" lon="3.58938">
        <ele>1211</ele>
        <time>2022-05-27T09:49:24Z</time>
      </trkpt>
      <trkpt lat="44.4111" lon="3.58937">
        <ele>1211</ele>
        <time>2022-05-27T09:49:25Z</time>
      </trkpt>
      <trkpt lat="44.41108" lon="3.58937">
        <ele>1211</ele>
        <time>2022-05-27T09:49:26Z</time>
      </trkpt>
      <trkpt lat="44.41108" lon="3.58936">
        <ele>1211</ele>
        <time>2022-05-27T09:49:27Z</time>
      </trkpt>
      <trkpt lat="44.41106" lon="3.58936">
        <ele>1211</ele>
        <time>2022-05-27T09:49:28Z</time>
      </trkpt>
      <trkpt lat="44.41106" lon="3.58935">
        <ele>1211</ele>
        <time>2022-05-27T09:49:29Z</time>
      </trkpt>
      <trkpt lat="44.41105" lon="3.58934">
        <ele>1211</ele>
        <time>2022-05-27T09:49:30Z</time>
      </trkpt>
      <trkpt lat="44.41103" lon="3.58934">
        <ele>1211</ele>
        <time>2022-05-27T09:49:31Z</time>
      </trkpt>
      <trkpt lat="44.41102" lon="3.58933">
        <ele>1211</ele>
        <time>2022-05-27T09:49:32Z</time>
      </trkpt>
      <trkpt lat="44.41101" lon="3.58933">
        <ele>1211</ele>
        <time>2022-05-27T09:49:33Z</time>
      </trkpt>
      <trkpt lat="44.411" lon="3.58932">
        <ele>1211</ele>
        <time>2022-05-27T09:49:34Z</time>
      </trkpt>
      <trkpt lat="44.41098" lon="3.58932">
        <ele>1211</ele>
        <time>2022-05-27T09:49:35Z</time>
      </trkpt>
      <trkpt lat="44.41097" lon="3.58932">
        <ele>1211</ele>
        <time>2022-05-27T09:49:36Z</time>
      </trkpt>
      <trkpt lat="44.41096" lon="3.58931">
        <ele>1211</ele>
        <time>2022-05-27T09:49:37Z</time>
      </trkpt>
      <trkpt lat="44.41095" lon="3.5893">
        <ele>1210</ele>
        <time>2022-05-27T09:49:38Z</time>
      </trkpt>
      <trkpt lat="44.41093" lon="3.5893">
        <ele>1210</ele>
        <time>2022-05-27T09:49:39Z</time>
      </trkpt>
      <trkpt lat="44.41092" lon="3.58929">
        <ele>1211</ele>
        <time>2022-05-27T09:49:40Z</time>
      </trkpt>
      <trkpt lat="44.41091" lon="3.58928">
        <ele>1211</ele>
        <time>2022-05-27T09:49:41Z</time>
      </trkpt>
      <trkpt lat="44.4109" lon="3.58928">
        <ele>1211</ele>
        <time>2022-05-27T09:49:42Z</time>
      </trkpt>
      <trkpt lat="44.41089" lon="3.58927">
        <ele>1210</ele>
        <time>2022-05-27T09:49:43Z</time>
      </trkpt>
      <trkpt lat="44.41088" lon="3.58926">
        <ele>1210</ele>
        <time>2022-05-27T09:49:44Z</time>
      </trkpt>
      <trkpt lat="44.41087" lon="3.58926">
        <ele>1210</ele>
        <time>2022-05-27T09:49:45Z</time>
      </trkpt>
      <trkpt lat="44.41086" lon="3.58925">
        <ele>1210</ele>
        <time>2022-05-27T09:49:46Z</time>
      </trkpt>
      <trkpt lat="44.41085" lon="3.58924">
        <ele>1210</ele>
        <time>2022-05-27T09:49:47Z</time>
      </trkpt>
      <trkpt lat="44.41084" lon="3.58924">
        <ele>1210</ele>
        <time>2022-05-27T09:49:48Z</time>
      </trkpt>
      <trkpt lat="44.41083" lon="3.58924">
        <ele>1210</ele>
        <time>2022-05-27T09:49:49Z</time>
      </trkpt>
      <trkpt lat="44.41082" lon="3.58924">
        <ele>1209</ele>
        <time>2022-05-27T09:49:50Z</time>
      </trkpt>
      <trkpt lat="44.41081" lon="3.58923">
        <ele>1209</ele>
        <time>2022-05-27T09:49:51Z</time>
      </trkpt>
      <trkpt lat="44.41079" lon="3.58922">
        <ele>1209</ele>
        <time>2022-05-27T09:49:52Z</time>
      </trkpt>
      <trkpt lat="44.41078" lon="3.58921">
        <ele>1209</ele>
        <time>2022-05-27T09:49:53Z</time>
      </trkpt>
      <trkpt lat="44.41077" lon="3.5892">
        <ele>1209</ele>
        <time>2022-05-27T09:49:54Z</time>
      </trkpt>
      <trkpt lat="44.41075" lon="3.5892">
        <ele>1208</ele>
        <time>2022-05-27T09:49:55Z</time>
      </trkpt>
      <trkpt lat="44.41074" lon="3.58919">
        <ele>1207</ele>
        <time>2022-05-27T09:49:56Z</time>
      </trkpt>
      <trkpt lat="44.41073" lon="3.58919">
        <ele>1207</ele>
        <time>2022-05-27T09:49:57Z</time>
      </trkpt>
      <trkpt lat="44.41072" lon="3.58918">
        <ele>1207</ele>
        <time>2022-05-27T09:49:58Z</time>
      </trkpt>
      <trkpt lat="44.41071" lon="3.58918">
        <ele>1207</ele>
        <time>2022-05-27T09:49:59Z</time>
      </trkpt>
      <trkpt lat="44.4107" lon="3.58917">
        <ele>1207</ele>
        <time>2022-05-27T09:50:00Z</time>
      </trkpt>
      <trkpt lat="44.41069" lon="3.58916">
        <ele>1207</ele>
        <time>2022-05-27T09:50:01Z</time>
      </trkpt>
      <trkpt lat="44.41068" lon="3.58915">
        <ele>1206</ele>
        <time>2022-05-27T09:50:02Z</time>
      </trkpt>
      <trkpt lat="44.41067" lon="3.58915">
        <ele>1206</ele>
        <time>2022-05-27T09:50:03Z</time>
      </trkpt>
      <trkpt lat="44.41066" lon="3.58914">
        <ele>1206</ele>
        <time>2022-05-27T09:50:04Z</time>
      </trkpt>
      <trkpt lat="44.41065" lon="3.58913">
        <ele>1206</ele>
        <time>2022-05-27T09:50:05Z</time>
      </trkpt>
      <trkpt lat="44.41063" lon="3.58912">
        <ele>1205</ele>
        <time>2022-05-27T09:50:06Z</time>
      </trkpt>
      <trkpt lat="44.41062" lon="3.58911">
        <ele>1205</ele>
        <time>2022-05-27T09:50:07Z</time>
      </trkpt>
      <trkpt lat="44.41061" lon="3.5891">
        <ele>1205</ele>
        <time>2022-05-27T09:50:08Z</time>
      </trkpt>
      <trkpt lat="44.4106" lon="3.58909">
        <ele>1205</ele>
        <time>2022-05-27T09:50:09Z</time>
      </trkpt>
      <trkpt lat="44.41058" lon="3.58908">
        <ele>1205</ele>
        <time>2022-05-27T09:50:10Z</time>
      </trkpt>
      <trkpt lat="44.41057" lon="3.58907">
        <ele>1204</ele>
        <time>2022-05-27T09:50:11Z</time>
      </trkpt>
      <trkpt lat="44.41056" lon="3.58906">
        <ele>1204</ele>
        <time>2022-05-27T09:50:12Z</time>
      </trkpt>
      <trkpt lat="44.41055" lon="3.58905">
        <ele>1204</ele>
        <time>2022-05-27T09:50:13Z</time>
      </trkpt>
      <trkpt lat="44.41054" lon="3.58904">
        <ele>1203</ele>
        <time>2022-05-27T09:50:14Z</time>
      </trkpt>
      <trkpt lat="44.41053" lon="3.58903">
        <ele>1203</ele>
        <time>2022-05-27T09:50:15Z</time>
      </trkpt>
      <trkpt lat="44.41052" lon="3.58903">
        <ele>1203</ele>
        <time>2022-05-27T09:50:16Z</time>
      </trkpt>
      <trkpt lat="44.41051" lon="3.58902">
        <ele>1202</ele>
        <time>2022-05-27T09:50:17Z</time>
      </trkpt>
      <trkpt lat="44.4105" lon="3.58901">
        <ele>1202</ele>
        <time>2022-05-27T09:50:18Z</time>
      </trkpt>
      <trkpt lat="44.41049" lon="3.589">
        <ele>1202</ele>
        <time>2022-05-27T09:50:19Z</time>
      </trkpt>
      <trkpt lat="44.41048" lon="3.58899">
        <ele>1202</ele>
        <time>2022-05-27T09:50:20Z</time>
      </trkpt>
      <trkpt lat="44.41047" lon="3.58898">
        <ele>1202</ele>
        <time>2022-05-27T09:50:21Z</time>
      </trkpt>
      <trkpt lat="44.41047" lon="3.58897">
        <ele>1201</ele>
        <time>2022-05-27T09:50:22Z</time>
      </trkpt>
      <trkpt lat="44.41045" lon="3.58896">
        <ele>1201</ele>
        <time>2022-05-27T09:50:23Z</time>
      </trkpt>
      <trkpt lat="44.41045" lon="3.58895">
        <ele>1201</ele>
        <time>2022-05-27T09:50:24Z</time>
      </trkpt>
      <trkpt lat="44.41044" lon="3.58894">
        <ele>1201</ele>
        <time>2022-05-27T09:50:25Z</time>
      </trkpt>
      <trkpt lat="44.41042" lon="3.58894">
        <ele>1201</ele>
        <time>2022-05-27T09:50:26Z</time>
      </trkpt>
      <trkpt lat="44.41041" lon="3.58893">
        <ele>1201</ele>
        <time>2022-05-27T09:50:27Z</time>
      </trkpt>
      <trkpt lat="44.4104" lon="3.58892">
        <ele>1201</ele>
        <time>2022-05-27T09:50:28Z</time>
      </trkpt>
      <trkpt lat="44.4104" lon="3.58891">
        <ele>1201</ele>
        <time>2022-05-27T09:50:29Z</time>
      </trkpt>
      <trkpt lat="44.41039" lon="3.5889">
        <ele>1201</ele>
        <time>2022-05-27T09:50:30Z</time>
      </trkpt>
      <trkpt lat="44.41038" lon="3.58889">
        <ele>1201</ele>
        <time>2022-05-27T09:50:31Z</time>
      </trkpt>
      <trkpt lat="44.41037" lon="3.58888">
        <ele>1201</ele>
        <time>2022-05-27T09:50:32Z</time>
      </trkpt>
      <trkpt lat="44.41036" lon="3.58887">
        <ele>1201</ele>
        <time>2022-05-27T09:50:33Z</time>
      </trkpt>
      <trkpt lat="44.41035" lon="3.58886">
        <ele>1200</ele>
        <time>2022-05-27T09:50:34Z</time>
      </trkpt>
      <trkpt lat="44.41034" lon="3.58885">
        <ele>1200</ele>
        <time>2022-05-27T09:50:35Z</time>
      </trkpt>
      <trkpt lat="44.41033" lon="3.58884">
        <ele>1200</ele>
        <time>2022-05-27T09:50:36Z</time>
      </trkpt>
      <trkpt lat="44.41032" lon="3.58883">
        <ele>1201</ele>
        <time>2022-05-27T09:50:37Z</time>
      </trkpt>
      <trkpt lat="44.41031" lon="3.58882">
        <ele>1201</ele>
        <time>2022-05-27T09:50:38Z</time>
      </trkpt>
      <trkpt lat="44.41031" lon="3.58881">
        <ele>1201</ele>
        <time>2022-05-27T09:50:39Z</time>
      </trkpt>
      <trkpt lat="44.41029" lon="3.5888">
        <ele>1200</ele>
        <time>2022-05-27T09:50:40Z</time>
      </trkpt>
      <trkpt lat="44.41028" lon="3.58879">
        <ele>1201</ele>
        <time>2022-05-27T09:50:41Z</time>
      </trkpt>
      <trkpt lat="44.41027" lon="3.58878">
        <ele>1201</ele>
        <time>2022-05-27T09:50:42Z</time>
      </trkpt>
      <trkpt lat="44.41026" lon="3.58877">
        <ele>1201</ele>
        <time>2022-05-27T09:50:43Z</time>
      </trkpt>
      <trkpt lat="44.41026" lon="3.58876">
        <ele>1201</ele>
        <time>2022-05-27T09:50:44Z</time>
      </trkpt>
      <trkpt lat="44.41025" lon="3.58875">
        <ele>1201</ele>
        <time>2022-05-27T09:50:45Z</time>
      </trkpt>
      <trkpt lat="44.41024" lon="3.58874">
        <ele>1201</ele>
        <time>2022-05-27T09:50:46Z</time>
      </trkpt>
      <trkpt lat="44.41023" lon="3.58874">
        <ele>1201</ele>
        <time>2022-05-27T09:50:47Z</time>
      </trkpt>
      <trkpt lat="44.41022" lon="3.58872">
        <ele>1201</ele>
        <time>2022-05-27T09:50:48Z</time>
      </trkpt>
      <trkpt lat="44.41021" lon="3.58871">
        <ele>1201</ele>
        <time>2022-05-27T09:50:49Z</time>
      </trkpt>
      <trkpt lat="44.41021" lon="3.5887">
        <ele>1200</ele>
        <time>2022-05-27T09:50:50Z</time>
      </trkpt>
      <trkpt lat="44.41019" lon="3.58869">
        <ele>1200</ele>
        <time>2022-05-27T09:50:51Z</time>
      </trkpt>
      <trkpt lat="44.41019" lon="3.58868">
        <ele>1201</ele>
        <time>2022-05-27T09:50:52Z</time>
      </trkpt>
      <trkpt lat="44.41019" lon="3.58868">
        <ele>1200</ele>
        <time>2022-05-27T09:50:53Z</time>
      </trkpt>
      <trkpt lat="44.41018" lon="3.58867">
        <ele>1201</ele>
        <time>2022-05-27T09:50:54Z</time>
      </trkpt>
      <trkpt lat="44.41018" lon="3.58866">
        <ele>1200</ele>
        <time>2022-05-27T09:50:55Z</time>
      </trkpt>
      <trkpt lat="44.41017" lon="3.58865">
        <ele>1200</ele>
        <time>2022-05-27T09:50:56Z</time>
      </trkpt>
      <trkpt lat="44.41016" lon="3.58864">
        <ele>1200</ele>
        <time>2022-05-27T09:50:57Z</time>
      </trkpt>
      <trkpt lat="44.41015" lon="3.58863">
        <ele>1201</ele>
        <time>2022-05-27T09:50:58Z</time>
      </trkpt>
      <trkpt lat="44.41015" lon="3.58861">
        <ele>1200</ele>
        <time>2022-05-27T09:50:59Z</time>
      </trkpt>
      <trkpt lat="44.41013" lon="3.5886">
        <ele>1199</ele>
        <time>2022-05-27T09:51:00Z</time>
      </trkpt>
      <trkpt lat="44.41012" lon="3.58859">
        <ele>1199</ele>
        <time>2022-05-27T09:51:01Z</time>
      </trkpt>
      <trkpt lat="44.41012" lon="3.58859">
        <ele>1199</ele>
        <time>2022-05-27T09:51:02Z</time>
      </trkpt>
      <trkpt lat="44.41011" lon="3.58857">
        <ele>1199</ele>
        <time>2022-05-27T09:51:03Z</time>
      </trkpt>
      <trkpt lat="44.4101" lon="3.58857">
        <ele>1198</ele>
        <time>2022-05-27T09:51:04Z</time>
      </trkpt>
      <trkpt lat="44.41009" lon="3.58855">
        <ele>1198</ele>
        <time>2022-05-27T09:51:05Z</time>
      </trkpt>
      <trkpt lat="44.41008" lon="3.58855">
        <ele>1198</ele>
        <time>2022-05-27T09:51:06Z</time>
      </trkpt>
      <trkpt lat="44.41007" lon="3.58854">
        <ele>1197</ele>
        <time>2022-05-27T09:51:07Z</time>
      </trkpt>
      <trkpt lat="44.41007" lon="3.58852">
        <ele>1197</ele>
        <time>2022-05-27T09:51:08Z</time>
      </trkpt>
      <trkpt lat="44.41005" lon="3.58851">
        <ele>1197</ele>
        <time>2022-05-27T09:51:09Z</time>
      </trkpt>
      <trkpt lat="44.41005" lon="3.5885">
        <ele>1197</ele>
        <time>2022-05-27T09:51:10Z</time>
      </trkpt>
      <trkpt lat="44.41004" lon="3.58848">
        <ele>1196</ele>
        <time>2022-05-27T09:51:11Z</time>
      </trkpt>
      <trkpt lat="44.41003" lon="3.58847">
        <ele>1196</ele>
        <time>2022-05-27T09:51:12Z</time>
      </trkpt>
      <trkpt lat="44.41002" lon="3.58846">
        <ele>1196</ele>
        <time>2022-05-27T09:51:13Z</time>
      </trkpt>
      <trkpt lat="44.41001" lon="3.58846">
        <ele>1196</ele>
        <time>2022-05-27T09:51:14Z</time>
      </trkpt>
      <trkpt lat="44.41" lon="3.58845">
        <ele>1196</ele>
        <time>2022-05-27T09:51:15Z</time>
      </trkpt>
      <trkpt lat="44.40999" lon="3.58844">
        <ele>1195</ele>
        <time>2022-05-27T09:51:16Z</time>
      </trkpt>
      <trkpt lat="44.40998" lon="3.58843">
        <ele>1195</ele>
        <time>2022-05-27T09:51:17Z</time>
      </trkpt>
      <trkpt lat="44.40998" lon="3.58841">
        <ele>1195</ele>
        <time>2022-05-27T09:51:18Z</time>
      </trkpt>
      <trkpt lat="44.40996" lon="3.5884">
        <ele>1195</ele>
        <time>2022-05-27T09:51:19Z</time>
      </trkpt>
      <trkpt lat="44.40996" lon="3.58839">
        <ele>1195</ele>
        <time>2022-05-27T09:51:20Z</time>
      </trkpt>
      <trkpt lat="44.40995" lon="3.58838">
        <ele>1195</ele>
        <time>2022-05-27T09:51:21Z</time>
      </trkpt>
      <trkpt lat="44.40994" lon="3.58837">
        <ele>1194</ele>
        <time>2022-05-27T09:51:22Z</time>
      </trkpt>
      <trkpt lat="44.40993" lon="3.58836">
        <ele>1194</ele>
        <time>2022-05-27T09:51:23Z</time>
      </trkpt>
      <trkpt lat="44.40992" lon="3.58835">
        <ele>1194</ele>
        <time>2022-05-27T09:51:24Z</time>
      </trkpt>
      <trkpt lat="44.40992" lon="3.58834">
        <ele>1194</ele>
        <time>2022-05-27T09:51:25Z</time>
      </trkpt>
      <trkpt lat="44.40991" lon="3.58833">
        <ele>1194</ele>
        <time>2022-05-27T09:51:26Z</time>
      </trkpt>
      <trkpt lat="44.4099" lon="3.58832">
        <ele>1194</ele>
        <time>2022-05-27T09:51:27Z</time>
      </trkpt>
      <trkpt lat="44.40989" lon="3.58831">
        <ele>1194</ele>
        <time>2022-05-27T09:51:28Z</time>
      </trkpt>
      <trkpt lat="44.40989" lon="3.5883">
        <ele>1194</ele>
        <time>2022-05-27T09:51:29Z</time>
      </trkpt>
      <trkpt lat="44.40988" lon="3.58829">
        <ele>1193</ele>
        <time>2022-05-27T09:51:30Z</time>
      </trkpt>
      <trkpt lat="44.40987" lon="3.58828">
        <ele>1193</ele>
        <time>2022-05-27T09:51:31Z</time>
      </trkpt>
      <trkpt lat="44.40987" lon="3.58827">
        <ele>1194</ele>
        <time>2022-05-27T09:51:32Z</time>
      </trkpt>
      <trkpt lat="44.40986" lon="3.58826">
        <ele>1193</ele>
        <time>2022-05-27T09:51:33Z</time>
      </trkpt>
      <trkpt lat="44.40985" lon="3.58826">
        <ele>1192</ele>
        <time>2022-05-27T09:51:34Z</time>
      </trkpt>
      <trkpt lat="44.40985" lon="3.58825">
        <ele>1193</ele>
        <time>2022-05-27T09:51:35Z</time>
      </trkpt>
      <trkpt lat="44.40984" lon="3.58824">
        <ele>1193</ele>
        <time>2022-05-27T09:51:36Z</time>
      </trkpt>
      <trkpt lat="44.40983" lon="3.58824">
        <ele>1192</ele>
        <time>2022-05-27T09:51:37Z</time>
      </trkpt>
      <trkpt lat="44.40982" lon="3.58823">
        <ele>1192</ele>
        <time>2022-05-27T09:51:38Z</time>
      </trkpt>
      <trkpt lat="44.40982" lon="3.58822">
        <ele>1193</ele>
        <time>2022-05-27T09:51:39Z</time>
      </trkpt>
      <trkpt lat="44.40981" lon="3.58821">
        <ele>1193</ele>
        <time>2022-05-27T09:51:40Z</time>
      </trkpt>
      <trkpt lat="44.4098" lon="3.5882">
        <ele>1193</ele>
        <time>2022-05-27T09:51:41Z</time>
      </trkpt>
      <trkpt lat="44.40979" lon="3.58819">
        <ele>1193</ele>
        <time>2022-05-27T09:51:42Z</time>
      </trkpt>
      <trkpt lat="44.40979" lon="3.58819">
        <ele>1193</ele>
        <time>2022-05-27T09:51:43Z</time>
      </trkpt>
      <trkpt lat="44.40978" lon="3.58818">
        <ele>1193</ele>
        <time>2022-05-27T09:51:44Z</time>
      </trkpt>
      <trkpt lat="44.40978" lon="3.58817">
        <ele>1193</ele>
        <time>2022-05-27T09:51:45Z</time>
      </trkpt>
      <trkpt lat="44.40977" lon="3.58816">
        <ele>1192</ele>
        <time>2022-05-27T09:51:46Z</time>
      </trkpt>
      <trkpt lat="44.40977" lon="3.58815">
        <ele>1192</ele>
        <time>2022-05-27T09:51:47Z</time>
      </trkpt>
      <trkpt lat="44.40976" lon="3.58814">
        <ele>1191</ele>
        <time>2022-05-27T09:51:48Z</time>
      </trkpt>
      <trkpt lat="44.40975" lon="3.58812">
        <ele>1191</ele>
        <time>2022-05-27T09:51:49Z</time>
      </trkpt>
      <trkpt lat="44.40974" lon="3.58811">
        <ele>1190</ele>
        <time>2022-05-27T09:51:50Z</time>
      </trkpt>
      <trkpt lat="44.40973" lon="3.58809">
        <ele>1189</ele>
        <time>2022-05-27T09:51:51Z</time>
      </trkpt>
      <trkpt lat="44.40973" lon="3.58808">
        <ele>1189</ele>
        <time>2022-05-27T09:51:52Z</time>
      </trkpt>
      <trkpt lat="44.40971" lon="3.58807">
        <ele>1189</ele>
        <time>2022-05-27T09:51:53Z</time>
      </trkpt>
      <trkpt lat="44.40971" lon="3.58806">
        <ele>1189</ele>
        <time>2022-05-27T09:51:54Z</time>
      </trkpt>
      <trkpt lat="44.4097" lon="3.58806">
        <ele>1189</ele>
        <time>2022-05-27T09:51:55Z</time>
      </trkpt>
      <trkpt lat="44.40968" lon="3.58804">
        <ele>1189</ele>
        <time>2022-05-27T09:51:56Z</time>
      </trkpt>
      <trkpt lat="44.40968" lon="3.58803">
        <ele>1189</ele>
        <time>2022-05-27T09:51:57Z</time>
      </trkpt>
      <trkpt lat="44.40966" lon="3.58802">
        <ele>1188</ele>
        <time>2022-05-27T09:51:58Z</time>
      </trkpt>
      <trkpt lat="44.40966" lon="3.58801">
        <ele>1188</ele>
        <time>2022-05-27T09:51:59Z</time>
      </trkpt>
      <trkpt lat="44.40965" lon="3.588">
        <ele>1187</ele>
        <time>2022-05-27T09:52:00Z</time>
      </trkpt>
      <trkpt lat="44.40964" lon="3.58799">
        <ele>1187</ele>
        <time>2022-05-27T09:52:01Z</time>
      </trkpt>
      <trkpt lat="44.40963" lon="3.58798">
        <ele>1187</ele>
        <time>2022-05-27T09:52:02Z</time>
      </trkpt>
      <trkpt lat="44.40962" lon="3.58797">
        <ele>1187</ele>
        <time>2022-05-27T09:52:03Z</time>
      </trkpt>
      <trkpt lat="44.40962" lon="3.58797">
        <ele>1187</ele>
        <time>2022-05-27T09:52:04Z</time>
      </trkpt>
      <trkpt lat="44.40963" lon="3.58797">
        <ele>1187</ele>
        <time>2022-05-27T09:52:05Z</time>
      </trkpt>
      <trkpt lat="44.40962" lon="3.58797">
        <ele>1186</ele>
        <time>2022-05-27T09:52:06Z</time>
      </trkpt>
      <trkpt lat="44.40961" lon="3.58796">
        <ele>1186</ele>
        <time>2022-05-27T09:52:07Z</time>
      </trkpt>
      <trkpt lat="44.4096" lon="3.58795">
        <ele>1186</ele>
        <time>2022-05-27T09:52:08Z</time>
      </trkpt>
      <trkpt lat="44.40959" lon="3.58794">
        <ele>1186</ele>
        <time>2022-05-27T09:52:09Z</time>
      </trkpt>
      <trkpt lat="44.40958" lon="3.58793">
        <ele>1187</ele>
        <time>2022-05-27T09:52:10Z</time>
      </trkpt>
      <trkpt lat="44.40958" lon="3.58791">
        <ele>1186</ele>
        <time>2022-05-27T09:52:11Z</time>
      </trkpt>
      <trkpt lat="44.40957" lon="3.58791">
        <ele>1186</ele>
        <time>2022-05-27T09:52:12Z</time>
      </trkpt>
      <trkpt lat="44.40956" lon="3.5879">
        <ele>1186</ele>
        <time>2022-05-27T09:52:13Z</time>
      </trkpt>
      <trkpt lat="44.40955" lon="3.58789">
        <ele>1186</ele>
        <time>2022-05-27T09:52:14Z</time>
      </trkpt>
      <trkpt lat="44.40955" lon="3.58789">
        <ele>1186</ele>
        <time>2022-05-27T09:52:15Z</time>
      </trkpt>
      <trkpt lat="44.40954" lon="3.58788">
        <ele>1186</ele>
        <time>2022-05-27T09:52:16Z</time>
      </trkpt>
      <trkpt lat="44.40953" lon="3.58787">
        <ele>1186</ele>
        <time>2022-05-27T09:52:17Z</time>
      </trkpt>
      <trkpt lat="44.40952" lon="3.58786">
        <ele>1186</ele>
        <time>2022-05-27T09:52:18Z</time>
      </trkpt>
      <trkpt lat="44.40951" lon="3.58785">
        <ele>1186</ele>
        <time>2022-05-27T09:52:19Z</time>
      </trkpt>
      <trkpt lat="44.4095" lon="3.58784">
        <ele>1187</ele>
        <time>2022-05-27T09:52:20Z</time>
      </trkpt>
      <trkpt lat="44.4095" lon="3.58783">
        <ele>1186</ele>
        <time>2022-05-27T09:52:21Z</time>
      </trkpt>
      <trkpt lat="44.40949" lon="3.58782">
        <ele>1186</ele>
        <time>2022-05-27T09:52:22Z</time>
      </trkpt>
      <trkpt lat="44.40948" lon="3.58781">
        <ele>1186</ele>
        <time>2022-05-27T09:52:23Z</time>
      </trkpt>
      <trkpt lat="44.40947" lon="3.5878">
        <ele>1186</ele>
        <time>2022-05-27T09:52:24Z</time>
      </trkpt>
      <trkpt lat="44.40947" lon="3.58779">
        <ele>1185</ele>
        <time>2022-05-27T09:52:25Z</time>
      </trkpt>
      <trkpt lat="44.40946" lon="3.58778">
        <ele>1185</ele>
        <time>2022-05-27T09:52:26Z</time>
      </trkpt>
      <trkpt lat="44.40945" lon="3.58777">
        <ele>1185</ele>
        <time>2022-05-27T09:52:27Z</time>
      </trkpt>
      <trkpt lat="44.40944" lon="3.58775">
        <ele>1185</ele>
        <time>2022-05-27T09:52:28Z</time>
      </trkpt>
      <trkpt lat="44.40943" lon="3.58774">
        <ele>1184</ele>
        <time>2022-05-27T09:52:29Z</time>
      </trkpt>
      <trkpt lat="44.40942" lon="3.58773">
        <ele>1185</ele>
        <time>2022-05-27T09:52:30Z</time>
      </trkpt>
      <trkpt lat="44.40941" lon="3.58772">
        <ele>1185</ele>
        <time>2022-05-27T09:52:31Z</time>
      </trkpt>
      <trkpt lat="44.40941" lon="3.58771">
        <ele>1184</ele>
        <time>2022-05-27T09:52:32Z</time>
      </trkpt>
      <trkpt lat="44.40941" lon="3.5877">
        <ele>1184</ele>
        <time>2022-05-27T09:52:33Z</time>
      </trkpt>
      <trkpt lat="44.4094" lon="3.58769">
        <ele>1184</ele>
        <time>2022-05-27T09:52:34Z</time>
      </trkpt>
      <trkpt lat="44.40939" lon="3.58768">
        <ele>1184</ele>
        <time>2022-05-27T09:52:35Z</time>
      </trkpt>
      <trkpt lat="44.40938" lon="3.58767">
        <ele>1184</ele>
        <time>2022-05-27T09:52:36Z</time>
      </trkpt>
      <trkpt lat="44.40937" lon="3.58766">
        <ele>1183</ele>
        <time>2022-05-27T09:52:37Z</time>
      </trkpt>
      <trkpt lat="44.40937" lon="3.58765">
        <ele>1183</ele>
        <time>2022-05-27T09:52:38Z</time>
      </trkpt>
      <trkpt lat="44.40936" lon="3.58763">
        <ele>1182</ele>
        <time>2022-05-27T09:52:39Z</time>
      </trkpt>
      <trkpt lat="44.40936" lon="3.58762">
        <ele>1182</ele>
        <time>2022-05-27T09:52:40Z</time>
      </trkpt>
      <trkpt lat="44.40935" lon="3.5876">
        <ele>1182</ele>
        <time>2022-05-27T09:52:41Z</time>
      </trkpt>
      <trkpt lat="44.40934" lon="3.58759">
        <ele>1181</ele>
        <time>2022-05-27T09:52:42Z</time>
      </trkpt>
      <trkpt lat="44.40934" lon="3.58758">
        <ele>1181</ele>
        <time>2022-05-27T09:52:43Z</time>
      </trkpt>
      <trkpt lat="44.40933" lon="3.58757">
        <ele>1181</ele>
        <time>2022-05-27T09:52:44Z</time>
      </trkpt>
      <trkpt lat="44.40933" lon="3.58756">
        <ele>1181</ele>
        <time>2022-05-27T09:52:45Z</time>
      </trkpt>
      <trkpt lat="44.40932" lon="3.58755">
        <ele>1180</ele>
        <time>2022-05-27T09:52:46Z</time>
      </trkpt>
      <trkpt lat="44.40931" lon="3.58753">
        <ele>1180</ele>
        <time>2022-05-27T09:52:47Z</time>
      </trkpt>
      <trkpt lat="44.4093" lon="3.58752">
        <ele>1180</ele>
        <time>2022-05-27T09:52:48Z</time>
      </trkpt>
      <trkpt lat="44.40929" lon="3.58751">
        <ele>1180</ele>
        <time>2022-05-27T09:52:49Z</time>
      </trkpt>
      <trkpt lat="44.40929" lon="3.5875">
        <ele>1180</ele>
        <time>2022-05-27T09:52:50Z</time>
      </trkpt>
      <trkpt lat="44.40928" lon="3.58749">
        <ele>1180</ele>
        <time>2022-05-27T09:52:51Z</time>
      </trkpt>
      <trkpt lat="44.40928" lon="3.58747">
        <ele>1180</ele>
        <time>2022-05-27T09:52:52Z</time>
      </trkpt>
      <trkpt lat="44.40927" lon="3.58747">
        <ele>1180</ele>
        <time>2022-05-27T09:52:53Z</time>
      </trkpt>
      <trkpt lat="44.40926" lon="3.58746">
        <ele>1179</ele>
        <time>2022-05-27T09:52:54Z</time>
      </trkpt>
      <trkpt lat="44.40926" lon="3.58745">
        <ele>1179</ele>
        <time>2022-05-27T09:52:55Z</time>
      </trkpt>
      <trkpt lat="44.40925" lon="3.58743">
        <ele>1179</ele>
        <time>2022-05-27T09:52:56Z</time>
      </trkpt>
      <trkpt lat="44.40925" lon="3.58742">
        <ele>1179</ele>
        <time>2022-05-27T09:52:57Z</time>
      </trkpt>
      <trkpt lat="44.40923" lon="3.58741">
        <ele>1178</ele>
        <time>2022-05-27T09:52:58Z</time>
      </trkpt>
      <trkpt lat="44.40923" lon="3.5874">
        <ele>1177</ele>
        <time>2022-05-27T09:52:59Z</time>
      </trkpt>
      <trkpt lat="44.40922" lon="3.58739">
        <ele>1177</ele>
        <time>2022-05-27T09:53:00Z</time>
      </trkpt>
      <trkpt lat="44.40921" lon="3.58738">
        <ele>1177</ele>
        <time>2022-05-27T09:53:01Z</time>
      </trkpt>
      <trkpt lat="44.40921" lon="3.58737">
        <ele>1176</ele>
        <time>2022-05-27T09:53:02Z</time>
      </trkpt>
      <trkpt lat="44.4092" lon="3.58735">
        <ele>1176</ele>
        <time>2022-05-27T09:53:03Z</time>
      </trkpt>
      <trkpt lat="44.40919" lon="3.58734">
        <ele>1175</ele>
        <time>2022-05-27T09:53:04Z</time>
      </trkpt>
      <trkpt lat="44.40918" lon="3.58733">
        <ele>1175</ele>
        <time>2022-05-27T09:53:05Z</time>
      </trkpt>
      <trkpt lat="44.40917" lon="3.58732">
        <ele>1175</ele>
        <time>2022-05-27T09:53:06Z</time>
      </trkpt>
      <trkpt lat="44.40916" lon="3.5873">
        <ele>1174</ele>
        <time>2022-05-27T09:53:07Z</time>
      </trkpt>
      <trkpt lat="44.40915" lon="3.58729">
        <ele>1173</ele>
        <time>2022-05-27T09:53:08Z</time>
      </trkpt>
      <trkpt lat="44.40915" lon="3.58727">
        <ele>1173</ele>
        <time>2022-05-27T09:53:09Z</time>
      </trkpt>
      <trkpt lat="44.40914" lon="3.58726">
        <ele>1172</ele>
        <time>2022-05-27T09:53:10Z</time>
      </trkpt>
      <trkpt lat="44.40913" lon="3.58725">
        <ele>1172</ele>
        <time>2022-05-27T09:53:11Z</time>
      </trkpt>
      <trkpt lat="44.40913" lon="3.58724">
        <ele>1171</ele>
        <time>2022-05-27T09:53:12Z</time>
      </trkpt>
      <trkpt lat="44.40912" lon="3.58722">
        <ele>1171</ele>
        <time>2022-05-27T09:53:13Z</time>
      </trkpt>
      <trkpt lat="44.40912" lon="3.58721">
        <ele>1171</ele>
        <time>2022-05-27T09:53:14Z</time>
      </trkpt>
      <trkpt lat="44.40911" lon="3.5872">
        <ele>1171</ele>
        <time>2022-05-27T09:53:15Z</time>
      </trkpt>
      <trkpt lat="44.4091" lon="3.58719">
        <ele>1171</ele>
        <time>2022-05-27T09:53:16Z</time>
      </trkpt>
      <trkpt lat="44.4091" lon="3.58718">
        <ele>1170</ele>
        <time>2022-05-27T09:53:17Z</time>
      </trkpt>
      <trkpt lat="44.40909" lon="3.58716">
        <ele>1170</ele>
        <time>2022-05-27T09:53:18Z</time>
      </trkpt>
      <trkpt lat="44.40908" lon="3.58715">
        <ele>1169</ele>
        <time>2022-05-27T09:53:19Z</time>
      </trkpt>
      <trkpt lat="44.40907" lon="3.58714">
        <ele>1169</ele>
        <time>2022-05-27T09:53:20Z</time>
      </trkpt>
      <trkpt lat="44.40907" lon="3.58713">
        <ele>1169</ele>
        <time>2022-05-27T09:53:21Z</time>
      </trkpt>
      <trkpt lat="44.40906" lon="3.58711">
        <ele>1169</ele>
        <time>2022-05-27T09:53:22Z</time>
      </trkpt>
      <trkpt lat="44.40906" lon="3.5871">
        <ele>1169</ele>
        <time>2022-05-27T09:53:23Z</time>
      </trkpt>
      <trkpt lat="44.40905" lon="3.58709">
        <ele>1169</ele>
        <time>2022-05-27T09:53:24Z</time>
      </trkpt>
      <trkpt lat="44.40905" lon="3.58707">
        <ele>1168</ele>
        <time>2022-05-27T09:53:25Z</time>
      </trkpt>
      <trkpt lat="44.40905" lon="3.58706">
        <ele>1168</ele>
        <time>2022-05-27T09:53:26Z</time>
      </trkpt>
      <trkpt lat="44.40904" lon="3.58705">
        <ele>1168</ele>
        <time>2022-05-27T09:53:27Z</time>
      </trkpt>
      <trkpt lat="44.40903" lon="3.58704">
        <ele>1167</ele>
        <time>2022-05-27T09:53:28Z</time>
      </trkpt>
      <trkpt lat="44.40902" lon="3.58703">
        <ele>1167</ele>
        <time>2022-05-27T09:53:29Z</time>
      </trkpt>
      <trkpt lat="44.40902" lon="3.58702">
        <ele>1166</ele>
        <time>2022-05-27T09:53:30Z</time>
      </trkpt>
      <trkpt lat="44.40902" lon="3.587">
        <ele>1165</ele>
        <time>2022-05-27T09:53:31Z</time>
      </trkpt>
      <trkpt lat="44.40901" lon="3.58699">
        <ele>1165</ele>
        <time>2022-05-27T09:53:32Z</time>
      </trkpt>
      <trkpt lat="44.409" lon="3.58698">
        <ele>1165</ele>
        <time>2022-05-27T09:53:33Z</time>
      </trkpt>
      <trkpt lat="44.409" lon="3.58696">
        <ele>1165</ele>
        <time>2022-05-27T09:53:34Z</time>
      </trkpt>
      <trkpt lat="44.40899" lon="3.58695">
        <ele>1165</ele>
        <time>2022-05-27T09:53:35Z</time>
      </trkpt>
      <trkpt lat="44.40899" lon="3.58695">
        <ele>1165</ele>
        <time>2022-05-27T09:53:36Z</time>
      </trkpt>
      <trkpt lat="44.40898" lon="3.58694">
        <ele>1166</ele>
        <time>2022-05-27T09:53:37Z</time>
      </trkpt>
      <trkpt lat="44.40897" lon="3.58693">
        <ele>1165</ele>
        <time>2022-05-27T09:53:38Z</time>
      </trkpt>
      <trkpt lat="44.40897" lon="3.58692">
        <ele>1165</ele>
        <time>2022-05-27T09:53:39Z</time>
      </trkpt>
      <trkpt lat="44.40896" lon="3.58692">
        <ele>1165</ele>
        <time>2022-05-27T09:53:40Z</time>
      </trkpt>
      <trkpt lat="44.40896" lon="3.58691">
        <ele>1165</ele>
        <time>2022-05-27T09:53:41Z</time>
      </trkpt>
      <trkpt lat="44.40895" lon="3.5869">
        <ele>1164</ele>
        <time>2022-05-27T09:53:42Z</time>
      </trkpt>
      <trkpt lat="44.40895" lon="3.58688">
        <ele>1164</ele>
        <time>2022-05-27T09:53:43Z</time>
      </trkpt>
      <trkpt lat="44.40894" lon="3.58687">
        <ele>1163</ele>
        <time>2022-05-27T09:53:44Z</time>
      </trkpt>
      <trkpt lat="44.40894" lon="3.58685">
        <ele>1163</ele>
        <time>2022-05-27T09:53:45Z</time>
      </trkpt>
      <trkpt lat="44.40893" lon="3.58684">
        <ele>1163</ele>
        <time>2022-05-27T09:53:46Z</time>
      </trkpt>
      <trkpt lat="44.40893" lon="3.58682">
        <ele>1163</ele>
        <time>2022-05-27T09:53:47Z</time>
      </trkpt>
      <trkpt lat="44.40893" lon="3.58681">
        <ele>1162</ele>
        <time>2022-05-27T09:53:48Z</time>
      </trkpt>
      <trkpt lat="44.40892" lon="3.58679">
        <ele>1162</ele>
        <time>2022-05-27T09:53:49Z</time>
      </trkpt>
      <trkpt lat="44.40892" lon="3.58678">
        <ele>1163</ele>
        <time>2022-05-27T09:53:50Z</time>
      </trkpt>
      <trkpt lat="44.40891" lon="3.58677">
        <ele>1162</ele>
        <time>2022-05-27T09:53:51Z</time>
      </trkpt>
      <trkpt lat="44.4089" lon="3.58675">
        <ele>1162</ele>
        <time>2022-05-27T09:53:52Z</time>
      </trkpt>
      <trkpt lat="44.4089" lon="3.58674">
        <ele>1162</ele>
        <time>2022-05-27T09:53:53Z</time>
      </trkpt>
      <trkpt lat="44.40889" lon="3.58673">
        <ele>1162</ele>
        <time>2022-05-27T09:53:54Z</time>
      </trkpt>
      <trkpt lat="44.40889" lon="3.58671">
        <ele>1161</ele>
        <time>2022-05-27T09:53:55Z</time>
      </trkpt>
      <trkpt lat="44.40888" lon="3.58671">
        <ele>1161</ele>
        <time>2022-05-27T09:53:56Z</time>
      </trkpt>
      <trkpt lat="44.40888" lon="3.58669">
        <ele>1161</ele>
        <time>2022-05-27T09:53:57Z</time>
      </trkpt>
      <trkpt lat="44.40888" lon="3.58668">
        <ele>1161</ele>
        <time>2022-05-27T09:53:58Z</time>
      </trkpt>
      <trkpt lat="44.40888" lon="3.58666">
        <ele>1161</ele>
        <time>2022-05-27T09:53:59Z</time>
      </trkpt>
      <trkpt lat="44.40888" lon="3.58665">
        <ele>1161</ele>
        <time>2022-05-27T09:54:00Z</time>
      </trkpt>
      <trkpt lat="44.40887" lon="3.58663">
        <ele>1160</ele>
        <time>2022-05-27T09:54:01Z</time>
      </trkpt>
      <trkpt lat="44.40886" lon="3.58662">
        <ele>1160</ele>
        <time>2022-05-27T09:54:02Z</time>
      </trkpt>
      <trkpt lat="44.40886" lon="3.5866">
        <ele>1159</ele>
        <time>2022-05-27T09:54:03Z</time>
      </trkpt>
      <trkpt lat="44.40885" lon="3.58659">
        <ele>1159</ele>
        <time>2022-05-27T09:54:04Z</time>
      </trkpt>
      <trkpt lat="44.40885" lon="3.58658">
        <ele>1159</ele>
        <time>2022-05-27T09:54:05Z</time>
      </trkpt>
      <trkpt lat="44.40885" lon="3.58656">
        <ele>1158</ele>
        <time>2022-05-27T09:54:06Z</time>
      </trkpt>
      <trkpt lat="44.40885" lon="3.58653">
        <ele>1158</ele>
        <time>2022-05-27T09:54:07Z</time>
      </trkpt>
      <trkpt lat="44.40885" lon="3.58652">
        <ele>1157</ele>
        <time>2022-05-27T09:54:08Z</time>
      </trkpt>
      <trkpt lat="44.40884" lon="3.58651">
        <ele>1157</ele>
        <time>2022-05-27T09:54:09Z</time>
      </trkpt>
      <trkpt lat="44.40884" lon="3.58649">
        <ele>1156</ele>
        <time>2022-05-27T09:54:10Z</time>
      </trkpt>
      <trkpt lat="44.40884" lon="3.58647">
        <ele>1156</ele>
        <time>2022-05-27T09:54:11Z</time>
      </trkpt>
      <trkpt lat="44.40883" lon="3.58645">
        <ele>1156</ele>
        <time>2022-05-27T09:54:12Z</time>
      </trkpt>
      <trkpt lat="44.40883" lon="3.58643">
        <ele>1156</ele>
        <time>2022-05-27T09:54:13Z</time>
      </trkpt>
      <trkpt lat="44.40883" lon="3.58642">
        <ele>1156</ele>
        <time>2022-05-27T09:54:14Z</time>
      </trkpt>
      <trkpt lat="44.40882" lon="3.58641">
        <ele>1156</ele>
        <time>2022-05-27T09:54:15Z</time>
      </trkpt>
      <trkpt lat="44.40882" lon="3.58639">
        <ele>1156</ele>
        <time>2022-05-27T09:54:16Z</time>
      </trkpt>
      <trkpt lat="44.40882" lon="3.58638">
        <ele>1156</ele>
        <time>2022-05-27T09:54:17Z</time>
      </trkpt>
      <trkpt lat="44.40881" lon="3.58637">
        <ele>1156</ele>
        <time>2022-05-27T09:54:18Z</time>
      </trkpt>
      <trkpt lat="44.40881" lon="3.58636">
        <ele>1156</ele>
        <time>2022-05-27T09:54:19Z</time>
      </trkpt>
      <trkpt lat="44.40881" lon="3.58634">
        <ele>1156</ele>
        <time>2022-05-27T09:54:20Z</time>
      </trkpt>
      <trkpt lat="44.40881" lon="3.58632">
        <ele>1156</ele>
        <time>2022-05-27T09:54:21Z</time>
      </trkpt>
      <trkpt lat="44.4088" lon="3.58632">
        <ele>1156</ele>
        <time>2022-05-27T09:54:22Z</time>
      </trkpt>
      <trkpt lat="44.4088" lon="3.5863">
        <ele>1156</ele>
        <time>2022-05-27T09:54:23Z</time>
      </trkpt>
      <trkpt lat="44.4088" lon="3.58628">
        <ele>1156</ele>
        <time>2022-05-27T09:54:24Z</time>
      </trkpt>
      <trkpt lat="44.4088" lon="3.58627">
        <ele>1156</ele>
        <time>2022-05-27T09:54:25Z</time>
      </trkpt>
      <trkpt lat="44.40879" lon="3.58626">
        <ele>1157</ele>
        <time>2022-05-27T09:54:26Z</time>
      </trkpt>
      <trkpt lat="44.40879" lon="3.58624">
        <ele>1156</ele>
        <time>2022-05-27T09:54:27Z</time>
      </trkpt>
      <trkpt lat="44.40879" lon="3.58621">
        <ele>1156</ele>
        <time>2022-05-27T09:54:28Z</time>
      </trkpt>
      <trkpt lat="44.40878" lon="3.5862">
        <ele>1156</ele>
        <time>2022-05-27T09:54:29Z</time>
      </trkpt>
      <trkpt lat="44.40878" lon="3.58618">
        <ele>1156</ele>
        <time>2022-05-27T09:54:30Z</time>
      </trkpt>
      <trkpt lat="44.40878" lon="3.58616">
        <ele>1155</ele>
        <time>2022-05-27T09:54:31Z</time>
      </trkpt>
      <trkpt lat="44.40877" lon="3.58614">
        <ele>1155</ele>
        <time>2022-05-27T09:54:32Z</time>
      </trkpt>
      <trkpt lat="44.40877" lon="3.58613">
        <ele>1155</ele>
        <time>2022-05-27T09:54:33Z</time>
      </trkpt>
      <trkpt lat="44.40877" lon="3.58611">
        <ele>1155</ele>
        <time>2022-05-27T09:54:34Z</time>
      </trkpt>
      <trkpt lat="44.40877" lon="3.58609">
        <ele>1155</ele>
        <time>2022-05-27T09:54:35Z</time>
      </trkpt>
      <trkpt lat="44.40877" lon="3.58608">
        <ele>1154</ele>
        <time>2022-05-27T09:54:36Z</time>
      </trkpt>
      <trkpt lat="44.40876" lon="3.58606">
        <ele>1154</ele>
        <time>2022-05-27T09:54:37Z</time>
      </trkpt>
      <trkpt lat="44.40876" lon="3.58605">
        <ele>1154</ele>
        <time>2022-05-27T09:54:38Z</time>
      </trkpt>
      <trkpt lat="44.40875" lon="3.58603">
        <ele>1153</ele>
        <time>2022-05-27T09:54:39Z</time>
      </trkpt>
      <trkpt lat="44.40875" lon="3.58602">
        <ele>1153</ele>
        <time>2022-05-27T09:54:40Z</time>
      </trkpt>
      <trkpt lat="44.40874" lon="3.586">
        <ele>1153</ele>
        <time>2022-05-27T09:54:41Z</time>
      </trkpt>
      <trkpt lat="44.40874" lon="3.58599">
        <ele>1153</ele>
        <time>2022-05-27T09:54:42Z</time>
      </trkpt>
      <trkpt lat="44.40873" lon="3.58597">
        <ele>1153</ele>
        <time>2022-05-27T09:54:43Z</time>
      </trkpt>
      <trkpt lat="44.40873" lon="3.58594">
        <ele>1153</ele>
        <time>2022-05-27T09:54:44Z</time>
      </trkpt>
      <trkpt lat="44.40872" lon="3.58592">
        <ele>1153</ele>
        <time>2022-05-27T09:54:45Z</time>
      </trkpt>
      <trkpt lat="44.40872" lon="3.58591">
        <ele>1153</ele>
        <time>2022-05-27T09:54:46Z</time>
      </trkpt>
      <trkpt lat="44.40871" lon="3.58589">
        <ele>1153</ele>
        <time>2022-05-27T09:54:47Z</time>
      </trkpt>
      <trkpt lat="44.40871" lon="3.58587">
        <ele>1153</ele>
        <time>2022-05-27T09:54:48Z</time>
      </trkpt>
      <trkpt lat="44.40871" lon="3.58585">
        <ele>1153</ele>
        <time>2022-05-27T09:54:49Z</time>
      </trkpt>
      <trkpt lat="44.4087" lon="3.58583">
        <ele>1152</ele>
        <time>2022-05-27T09:54:50Z</time>
      </trkpt>
      <trkpt lat="44.4087" lon="3.58582">
        <ele>1153</ele>
        <time>2022-05-27T09:54:51Z</time>
      </trkpt>
      <trkpt lat="44.40869" lon="3.5858">
        <ele>1153</ele>
        <time>2022-05-27T09:54:52Z</time>
      </trkpt>
      <trkpt lat="44.40868" lon="3.58579">
        <ele>1153</ele>
        <time>2022-05-27T09:54:53Z</time>
      </trkpt>
      <trkpt lat="44.40868" lon="3.58577">
        <ele>1154</ele>
        <time>2022-05-27T09:54:54Z</time>
      </trkpt>
      <trkpt lat="44.40867" lon="3.58576">
        <ele>1154</ele>
        <time>2022-05-27T09:54:55Z</time>
      </trkpt>
      <trkpt lat="44.40867" lon="3.58574">
        <ele>1154</ele>
        <time>2022-05-27T09:54:56Z</time>
      </trkpt>
      <trkpt lat="44.40866" lon="3.58572">
        <ele>1154</ele>
        <time>2022-05-27T09:54:57Z</time>
      </trkpt>
      <trkpt lat="44.40866" lon="3.5857">
        <ele>1155</ele>
        <time>2022-05-27T09:54:58Z</time>
      </trkpt>
      <trkpt lat="44.40865" lon="3.58569">
        <ele>1155</ele>
        <time>2022-05-27T09:54:59Z</time>
      </trkpt>
      <trkpt lat="44.40865" lon="3.58567">
        <ele>1155</ele>
        <time>2022-05-27T09:55:00Z</time>
      </trkpt>
      <trkpt lat="44.40865" lon="3.58565">
        <ele>1155</ele>
        <time>2022-05-27T09:55:01Z</time>
      </trkpt>
      <trkpt lat="44.40864" lon="3.58564">
        <ele>1155</ele>
        <time>2022-05-27T09:55:02Z</time>
      </trkpt>
      <trkpt lat="44.40864" lon="3.58562">
        <ele>1155</ele>
        <time>2022-05-27T09:55:03Z</time>
      </trkpt>
      <trkpt lat="44.40863" lon="3.5856">
        <ele>1155</ele>
        <time>2022-05-27T09:55:04Z</time>
      </trkpt>
      <trkpt lat="44.40863" lon="3.58559">
        <ele>1155</ele>
        <time>2022-05-27T09:55:05Z</time>
      </trkpt>
      <trkpt lat="44.40863" lon="3.58557">
        <ele>1155</ele>
        <time>2022-05-27T09:55:06Z</time>
      </trkpt>
      <trkpt lat="44.40862" lon="3.58555">
        <ele>1154</ele>
        <time>2022-05-27T09:55:07Z</time>
      </trkpt>
      <trkpt lat="44.40862" lon="3.58554">
        <ele>1154</ele>
        <time>2022-05-27T09:55:08Z</time>
      </trkpt>
      <trkpt lat="44.40861" lon="3.58553">
        <ele>1154</ele>
        <time>2022-05-27T09:55:09Z</time>
      </trkpt>
      <trkpt lat="44.40861" lon="3.58552">
        <ele>1155</ele>
        <time>2022-05-27T09:55:10Z</time>
      </trkpt>
      <trkpt lat="44.40861" lon="3.5855">
        <ele>1155</ele>
        <time>2022-05-27T09:55:11Z</time>
      </trkpt>
      <trkpt lat="44.4086" lon="3.58549">
        <ele>1155</ele>
        <time>2022-05-27T09:55:12Z</time>
      </trkpt>
      <trkpt lat="44.4086" lon="3.58548">
        <ele>1155</ele>
        <time>2022-05-27T09:55:13Z</time>
      </trkpt>
      <trkpt lat="44.4086" lon="3.58546">
        <ele>1154</ele>
        <time>2022-05-27T09:55:14Z</time>
      </trkpt>
      <trkpt lat="44.4086" lon="3.58544">
        <ele>1154</ele>
        <time>2022-05-27T09:55:15Z</time>
      </trkpt>
      <trkpt lat="44.40859" lon="3.58543">
        <ele>1154</ele>
        <time>2022-05-27T09:55:16Z</time>
      </trkpt>
      <trkpt lat="44.40859" lon="3.58541">
        <ele>1154</ele>
        <time>2022-05-27T09:55:17Z</time>
      </trkpt>
      <trkpt lat="44.40859" lon="3.5854">
        <ele>1153</ele>
        <time>2022-05-27T09:55:18Z</time>
      </trkpt>
      <trkpt lat="44.40859" lon="3.58538">
        <ele>1153</ele>
        <time>2022-05-27T09:55:19Z</time>
      </trkpt>
      <trkpt lat="44.40859" lon="3.58537">
        <ele>1152</ele>
        <time>2022-05-27T09:55:20Z</time>
      </trkpt>
      <trkpt lat="44.40858" lon="3.58535">
        <ele>1152</ele>
        <time>2022-05-27T09:55:21Z</time>
      </trkpt>
      <trkpt lat="44.40858" lon="3.58534">
        <ele>1151</ele>
        <time>2022-05-27T09:55:22Z</time>
      </trkpt>
      <trkpt lat="44.40857" lon="3.58533">
        <ele>1151</ele>
        <time>2022-05-27T09:55:23Z</time>
      </trkpt>
      <trkpt lat="44.40858" lon="3.58532">
        <ele>1151</ele>
        <time>2022-05-27T09:55:24Z</time>
      </trkpt>
      <trkpt lat="44.40857" lon="3.58532">
        <ele>1150</ele>
        <time>2022-05-27T09:55:25Z</time>
      </trkpt>
      <trkpt lat="44.40857" lon="3.58532">
        <ele>1150</ele>
        <time>2022-05-27T09:55:26Z</time>
      </trkpt>
      <trkpt lat="44.40857" lon="3.58532">
        <ele>1150</ele>
        <time>2022-05-27T09:55:27Z</time>
      </trkpt>
      <trkpt lat="44.40857" lon="3.58532">
        <ele>1150</ele>
        <time>2022-05-27T09:55:27Z</time>
      </trkpt>
      <trkpt lat="44.40857" lon="3.58532">
        <ele>1150</ele>
        <time>2022-05-27T09:55:27Z</time>
      </trkpt>
      <trkpt lat="44.40854" lon="3.5852">
        <ele>1147</ele>
        <time>2022-05-27T09:57:57Z</time>
      </trkpt>
      <trkpt lat="44.40853" lon="3.5852">
        <ele>1147</ele>
        <time>2022-05-27T09:57:58Z</time>
      </trkpt>
      <trkpt lat="44.40853" lon="3.58519">
        <ele>1147</ele>
        <time>2022-05-27T09:57:59Z</time>
      </trkpt>
      <trkpt lat="44.40852" lon="3.58518">
        <ele>1147</ele>
        <time>2022-05-27T09:58:00Z</time>
      </trkpt>
      <trkpt lat="44.40852" lon="3.58517">
        <ele>1147</ele>
        <time>2022-05-27T09:58:01Z</time>
      </trkpt>
      <trkpt lat="44.40851" lon="3.58517">
        <ele>1147</ele>
        <time>2022-05-27T09:58:02Z</time>
      </trkpt>
      <trkpt lat="44.4085" lon="3.58516">
        <ele>1147</ele>
        <time>2022-05-27T09:58:03Z</time>
      </trkpt>
      <trkpt lat="44.4085" lon="3.58516">
        <ele>1148</ele>
        <time>2022-05-27T09:58:04Z</time>
      </trkpt>
      <trkpt lat="44.4085" lon="3.58515">
        <ele>1148</ele>
        <time>2022-05-27T09:58:05Z</time>
      </trkpt>
      <trkpt lat="44.4085" lon="3.58515">
        <ele>1148</ele>
        <time>2022-05-27T09:58:06Z</time>
      </trkpt>
      <trkpt lat="44.4085" lon="3.58515">
        <ele>1148</ele>
        <time>2022-05-27T09:58:07Z</time>
      </trkpt>
      <trkpt lat="44.4085" lon="3.58515">
        <ele>1148</ele>
        <time>2022-05-27T09:58:08Z</time>
      </trkpt>
      <trkpt lat="44.4085" lon="3.58515">
        <ele>1148</ele>
        <time>2022-05-27T09:58:09Z</time>
      </trkpt>
      <trkpt lat="44.4085" lon="3.58515">
        <ele>1148</ele>
        <time>2022-05-27T09:58:09Z</time>
      </trkpt>
      <trkpt lat="44.4085" lon="3.58515">
        <ele>1148</ele>
        <time>2022-05-27T09:58:09Z</time>
      </trkpt>
      <trkpt lat="44.4085" lon="3.58504">
        <ele>1144</ele>
        <time>2022-05-27T09:59:47Z</time>
      </trkpt>
      <trkpt lat="44.40849" lon="3.58503">
        <ele>1144</ele>
        <time>2022-05-27T09:59:48Z</time>
      </trkpt>
      <trkpt lat="44.40849" lon="3.58503">
        <ele>1144</ele>
        <time>2022-05-27T09:59:49Z</time>
      </trkpt>
      <trkpt lat="44.40849" lon="3.58502">
        <ele>1144</ele>
        <time>2022-05-27T09:59:50Z</time>
      </trkpt>
      <trkpt lat="44.40849" lon="3.58502">
        <ele>1144</ele>
        <time>2022-05-27T09:59:50Z</time>
      </trkpt>
      <trkpt lat="44.40849" lon="3.58502">
        <ele>1144</ele>
        <time>2022-05-27T09:59:50Z</time>
      </trkpt>
      <trkpt lat="44.40846" lon="3.58503">
        <ele>1146</ele>
        <time>2022-05-27T10:01:03Z</time>
      </trkpt>
      <trkpt lat="44.40845" lon="3.58503">
        <ele>1146</ele>
        <time>2022-05-27T10:01:04Z</time>
      </trkpt>
      <trkpt lat="44.40844" lon="3.58503">
        <ele>1146</ele>
        <time>2022-05-27T10:01:05Z</time>
      </trkpt>
      <trkpt lat="44.40844" lon="3.58503">
        <ele>1146</ele>
        <time>2022-05-27T10:01:06Z</time>
      </trkpt>
      <trkpt lat="44.40843" lon="3.58503">
        <ele>1146</ele>
        <time>2022-05-27T10:01:07Z</time>
      </trkpt>
      <trkpt lat="44.40842" lon="3.58502">
        <ele>1146</ele>
        <time>2022-05-27T10:01:08Z</time>
      </trkpt>
      <trkpt lat="44.40841" lon="3.58502">
        <ele>1146</ele>
        <time>2022-05-27T10:01:09Z</time>
      </trkpt>
      <trkpt lat="44.4084" lon="3.58503">
        <ele>1146</ele>
        <time>2022-05-27T10:01:10Z</time>
      </trkpt>
      <trkpt lat="44.40839" lon="3.58503">
        <ele>1147</ele>
        <time>2022-05-27T10:01:11Z</time>
      </trkpt>
      <trkpt lat="44.40838" lon="3.58503">
        <ele>1147</ele>
        <time>2022-05-27T10:01:12Z</time>
      </trkpt>
      <trkpt lat="44.40838" lon="3.58503">
        <ele>1147</ele>
        <time>2022-05-27T10:01:13Z</time>
      </trkpt>
      <trkpt lat="44.40836" lon="3.58503">
        <ele>1146</ele>
        <time>2022-05-27T10:01:14Z</time>
      </trkpt>
      <trkpt lat="44.40835" lon="3.58502">
        <ele>1146</ele>
        <time>2022-05-27T10:01:15Z</time>
      </trkpt>
      <trkpt lat="44.40834" lon="3.58502">
        <ele>1146</ele>
        <time>2022-05-27T10:01:16Z</time>
      </trkpt>
      <trkpt lat="44.40833" lon="3.58501">
        <ele>1146</ele>
        <time>2022-05-27T10:01:17Z</time>
      </trkpt>
      <trkpt lat="44.40832" lon="3.58501">
        <ele>1146</ele>
        <time>2022-05-27T10:01:18Z</time>
      </trkpt>
      <trkpt lat="44.40831" lon="3.585">
        <ele>1146</ele>
        <time>2022-05-27T10:01:19Z</time>
      </trkpt>
      <trkpt lat="44.4083" lon="3.585">
        <ele>1146</ele>
        <time>2022-05-27T10:01:20Z</time>
      </trkpt>
      <trkpt lat="44.40829" lon="3.585">
        <ele>1147</ele>
        <time>2022-05-27T10:01:21Z</time>
      </trkpt>
      <trkpt lat="44.40828" lon="3.585">
        <ele>1147</ele>
        <time>2022-05-27T10:01:22Z</time>
      </trkpt>
      <trkpt lat="44.40826" lon="3.58499">
        <ele>1148</ele>
        <time>2022-05-27T10:01:23Z</time>
      </trkpt>
      <trkpt lat="44.40825" lon="3.58499">
        <ele>1148</ele>
        <time>2022-05-27T10:01:24Z</time>
      </trkpt>
      <trkpt lat="44.40825" lon="3.58498">
        <ele>1148</ele>
        <time>2022-05-27T10:01:25Z</time>
      </trkpt>
      <trkpt lat="44.40824" lon="3.58496">
        <ele>1149</ele>
        <time>2022-05-27T10:01:26Z</time>
      </trkpt>
      <trkpt lat="44.40823" lon="3.58495">
        <ele>1149</ele>
        <time>2022-05-27T10:01:27Z</time>
      </trkpt>
      <trkpt lat="44.40823" lon="3.58494">
        <ele>1150</ele>
        <time>2022-05-27T10:01:28Z</time>
      </trkpt>
      <trkpt lat="44.40823" lon="3.58493">
        <ele>1150</ele>
        <time>2022-05-27T10:01:29Z</time>
      </trkpt>
      <trkpt lat="44.40822" lon="3.58493">
        <ele>1151</ele>
        <time>2022-05-27T10:01:30Z</time>
      </trkpt>
      <trkpt lat="44.40822" lon="3.58491">
        <ele>1151</ele>
        <time>2022-05-27T10:01:31Z</time>
      </trkpt>
      <trkpt lat="44.40821" lon="3.5849">
        <ele>1151</ele>
        <time>2022-05-27T10:01:32Z</time>
      </trkpt>
      <trkpt lat="44.40821" lon="3.58489">
        <ele>1151</ele>
        <time>2022-05-27T10:01:33Z</time>
      </trkpt>
      <trkpt lat="44.4082" lon="3.58487">
        <ele>1151</ele>
        <time>2022-05-27T10:01:34Z</time>
      </trkpt>
      <trkpt lat="44.4082" lon="3.58486">
        <ele>1152</ele>
        <time>2022-05-27T10:01:35Z</time>
      </trkpt>
      <trkpt lat="44.4082" lon="3.58485">
        <ele>1152</ele>
        <time>2022-05-27T10:01:36Z</time>
      </trkpt>
      <trkpt lat="44.40819" lon="3.58484">
        <ele>1152</ele>
        <time>2022-05-27T10:01:37Z</time>
      </trkpt>
      <trkpt lat="44.40818" lon="3.58483">
        <ele>1152</ele>
        <time>2022-05-27T10:01:38Z</time>
      </trkpt>
      <trkpt lat="44.40818" lon="3.58482">
        <ele>1152</ele>
        <time>2022-05-27T10:01:39Z</time>
      </trkpt>
      <trkpt lat="44.40817" lon="3.58481">
        <ele>1152</ele>
        <time>2022-05-27T10:01:40Z</time>
      </trkpt>
      <trkpt lat="44.40817" lon="3.5848">
        <ele>1153</ele>
        <time>2022-05-27T10:01:41Z</time>
      </trkpt>
      <trkpt lat="44.40816" lon="3.58479">
        <ele>1152</ele>
        <time>2022-05-27T10:01:42Z</time>
      </trkpt>
      <trkpt lat="44.40816" lon="3.58477">
        <ele>1152</ele>
        <time>2022-05-27T10:01:43Z</time>
      </trkpt>
      <trkpt lat="44.40815" lon="3.58475">
        <ele>1152</ele>
        <time>2022-05-27T10:01:44Z</time>
      </trkpt>
      <trkpt lat="44.40815" lon="3.58475">
        <ele>1152</ele>
        <time>2022-05-27T10:01:45Z</time>
      </trkpt>
      <trkpt lat="44.40815" lon="3.58472">
        <ele>1152</ele>
        <time>2022-05-27T10:01:46Z</time>
      </trkpt>
      <trkpt lat="44.40814" lon="3.58471">
        <ele>1151</ele>
        <time>2022-05-27T10:01:47Z</time>
      </trkpt>
      <trkpt lat="44.40813" lon="3.5847">
        <ele>1152</ele>
        <time>2022-05-27T10:01:48Z</time>
      </trkpt>
      <trkpt lat="44.40812" lon="3.58469">
        <ele>1152</ele>
        <time>2022-05-27T10:01:49Z</time>
      </trkpt>
      <trkpt lat="44.40812" lon="3.58468">
        <ele>1153</ele>
        <time>2022-05-27T10:01:50Z</time>
      </trkpt>
      <trkpt lat="44.40811" lon="3.58468">
        <ele>1153</ele>
        <time>2022-05-27T10:01:51Z</time>
      </trkpt>
      <trkpt lat="44.4081" lon="3.58467">
        <ele>1154</ele>
        <time>2022-05-27T10:01:52Z</time>
      </trkpt>
      <trkpt lat="44.40809" lon="3.58465">
        <ele>1153</ele>
        <time>2022-05-27T10:01:53Z</time>
      </trkpt>
      <trkpt lat="44.40808" lon="3.58464">
        <ele>1153</ele>
        <time>2022-05-27T10:01:54Z</time>
      </trkpt>
      <trkpt lat="44.40808" lon="3.58463">
        <ele>1154</ele>
        <time>2022-05-27T10:01:55Z</time>
      </trkpt>
      <trkpt lat="44.40807" lon="3.58462">
        <ele>1154</ele>
        <time>2022-05-27T10:01:56Z</time>
      </trkpt>
      <trkpt lat="44.40806" lon="3.58461">
        <ele>1155</ele>
        <time>2022-05-27T10:01:57Z</time>
      </trkpt>
      <trkpt lat="44.40805" lon="3.58459">
        <ele>1155</ele>
        <time>2022-05-27T10:01:58Z</time>
      </trkpt>
      <trkpt lat="44.40805" lon="3.58458">
        <ele>1155</ele>
        <time>2022-05-27T10:01:59Z</time>
      </trkpt>
      <trkpt lat="44.40805" lon="3.58457">
        <ele>1154</ele>
        <time>2022-05-27T10:02:00Z</time>
      </trkpt>
      <trkpt lat="44.40805" lon="3.58457">
        <ele>1154</ele>
        <time>2022-05-27T10:02:01Z</time>
      </trkpt>
      <trkpt lat="44.40805" lon="3.58457">
        <ele>1154</ele>
        <time>2022-05-27T10:02:02Z</time>
      </trkpt>
      <trkpt lat="44.40803" lon="3.58454">
        <ele>1154</ele>
        <time>2022-05-27T10:02:03Z</time>
      </trkpt>
      <trkpt lat="44.40802" lon="3.58452">
        <ele>1155</ele>
        <time>2022-05-27T10:02:04Z</time>
      </trkpt>
      <trkpt lat="44.40801" lon="3.58451">
        <ele>1155</ele>
        <time>2022-05-27T10:02:05Z</time>
      </trkpt>
      <trkpt lat="44.40801" lon="3.5845">
        <ele>1155</ele>
        <time>2022-05-27T10:02:06Z</time>
      </trkpt>
      <trkpt lat="44.408" lon="3.58449">
        <ele>1155</ele>
        <time>2022-05-27T10:02:07Z</time>
      </trkpt>
      <trkpt lat="44.40799" lon="3.58448">
        <ele>1155</ele>
        <time>2022-05-27T10:02:08Z</time>
      </trkpt>
      <trkpt lat="44.40798" lon="3.58447">
        <ele>1156</ele>
        <time>2022-05-27T10:02:09Z</time>
      </trkpt>
      <trkpt lat="44.40797" lon="3.58447">
        <ele>1156</ele>
        <time>2022-05-27T10:02:10Z</time>
      </trkpt>
      <trkpt lat="44.40796" lon="3.58447">
        <ele>1156</ele>
        <time>2022-05-27T10:02:11Z</time>
      </trkpt>
      <trkpt lat="44.40795" lon="3.58446">
        <ele>1157</ele>
        <time>2022-05-27T10:02:12Z</time>
      </trkpt>
      <trkpt lat="44.40794" lon="3.58444">
        <ele>1156</ele>
        <time>2022-05-27T10:02:13Z</time>
      </trkpt>
      <trkpt lat="44.40793" lon="3.58443">
        <ele>1156</ele>
        <time>2022-05-27T10:02:14Z</time>
      </trkpt>
      <trkpt lat="44.40791" lon="3.58443">
        <ele>1157</ele>
        <time>2022-05-27T10:02:15Z</time>
      </trkpt>
      <trkpt lat="44.4079" lon="3.58442">
        <ele>1156</ele>
        <time>2022-05-27T10:02:16Z</time>
      </trkpt>
      <trkpt lat="44.40789" lon="3.58441">
        <ele>1156</ele>
        <time>2022-05-27T10:02:17Z</time>
      </trkpt>
      <trkpt lat="44.40789" lon="3.58441">
        <ele>1156</ele>
        <time>2022-05-27T10:02:18Z</time>
      </trkpt>
      <trkpt lat="44.40789" lon="3.58441">
        <ele>1156</ele>
        <time>2022-05-27T10:02:19Z</time>
      </trkpt>
      <trkpt lat="44.40787" lon="3.58438">
        <ele>1155</ele>
        <time>2022-05-27T10:02:20Z</time>
      </trkpt>
      <trkpt lat="44.40786" lon="3.58437">
        <ele>1155</ele>
        <time>2022-05-27T10:02:21Z</time>
      </trkpt>
      <trkpt lat="44.40785" lon="3.58437">
        <ele>1154</ele>
        <time>2022-05-27T10:02:22Z</time>
      </trkpt>
      <trkpt lat="44.40784" lon="3.58436">
        <ele>1153</ele>
        <time>2022-05-27T10:02:23Z</time>
      </trkpt>
      <trkpt lat="44.40784" lon="3.58436">
        <ele>1153</ele>
        <time>2022-05-27T10:02:24Z</time>
      </trkpt>
      <trkpt lat="44.40784" lon="3.58436">
        <ele>1153</ele>
        <time>2022-05-27T10:02:25Z</time>
      </trkpt>
      <trkpt lat="44.40781" lon="3.58434">
        <ele>1155</ele>
        <time>2022-05-27T10:02:26Z</time>
      </trkpt>
      <trkpt lat="44.4078" lon="3.58433">
        <ele>1155</ele>
        <time>2022-05-27T10:02:27Z</time>
      </trkpt>
      <trkpt lat="44.40779" lon="3.58433">
        <ele>1155</ele>
        <time>2022-05-27T10:02:28Z</time>
      </trkpt>
      <trkpt lat="44.40778" lon="3.58432">
        <ele>1155</ele>
        <time>2022-05-27T10:02:29Z</time>
      </trkpt>
      <trkpt lat="44.40778" lon="3.58432">
        <ele>1155</ele>
        <time>2022-05-27T10:02:30Z</time>
      </trkpt>
      <trkpt lat="44.40778" lon="3.58432">
        <ele>1155</ele>
        <time>2022-05-27T10:02:31Z</time>
      </trkpt>
      <trkpt lat="44.40775" lon="3.58429">
        <ele>1155</ele>
        <time>2022-05-27T10:02:32Z</time>
      </trkpt>
      <trkpt lat="44.40775" lon="3.58428">
        <ele>1155</ele>
        <time>2022-05-27T10:02:33Z</time>
      </trkpt>
      <trkpt lat="44.40774" lon="3.58426">
        <ele>1155</ele>
        <time>2022-05-27T10:02:34Z</time>
      </trkpt>
      <trkpt lat="44.40773" lon="3.58425">
        <ele>1155</ele>
        <time>2022-05-27T10:02:35Z</time>
      </trkpt>
      <trkpt lat="44.40773" lon="3.58424">
        <ele>1155</ele>
        <time>2022-05-27T10:02:36Z</time>
      </trkpt>
      <trkpt lat="44.40772" lon="3.58422">
        <ele>1155</ele>
        <time>2022-05-27T10:02:37Z</time>
      </trkpt>
      <trkpt lat="44.40772" lon="3.5842">
        <ele>1154</ele>
        <time>2022-05-27T10:02:38Z</time>
      </trkpt>
      <trkpt lat="44.40771" lon="3.58418">
        <ele>1155</ele>
        <time>2022-05-27T10:02:39Z</time>
      </trkpt>
      <trkpt lat="44.40771" lon="3.58417">
        <ele>1155</ele>
        <time>2022-05-27T10:02:40Z</time>
      </trkpt>
      <trkpt lat="44.4077" lon="3.58415">
        <ele>1155</ele>
        <time>2022-05-27T10:02:41Z</time>
      </trkpt>
      <trkpt lat="44.40769" lon="3.58414">
        <ele>1154</ele>
        <time>2022-05-27T10:02:42Z</time>
      </trkpt>
      <trkpt lat="44.40769" lon="3.58412">
        <ele>1154</ele>
        <time>2022-05-27T10:02:43Z</time>
      </trkpt>
      <trkpt lat="44.40768" lon="3.5841">
        <ele>1154</ele>
        <time>2022-05-27T10:02:44Z</time>
      </trkpt>
      <trkpt lat="44.40767" lon="3.58409">
        <ele>1153</ele>
        <time>2022-05-27T10:02:45Z</time>
      </trkpt>
      <trkpt lat="44.40767" lon="3.58408">
        <ele>1153</ele>
        <time>2022-05-27T10:02:46Z</time>
      </trkpt>
      <trkpt lat="44.40766" lon="3.58407">
        <ele>1153</ele>
        <time>2022-05-27T10:02:47Z</time>
      </trkpt>
      <trkpt lat="44.40765" lon="3.58406">
        <ele>1152</ele>
        <time>2022-05-27T10:02:48Z</time>
      </trkpt>
      <trkpt lat="44.40764" lon="3.58406">
        <ele>1152</ele>
        <time>2022-05-27T10:02:49Z</time>
      </trkpt>
      <trkpt lat="44.40763" lon="3.58405">
        <ele>1152</ele>
        <time>2022-05-27T10:02:50Z</time>
      </trkpt>
      <trkpt lat="44.40762" lon="3.58404">
        <ele>1151</ele>
        <time>2022-05-27T10:02:51Z</time>
      </trkpt>
      <trkpt lat="44.40761" lon="3.58403">
        <ele>1151</ele>
        <time>2022-05-27T10:02:52Z</time>
      </trkpt>
      <trkpt lat="44.40761" lon="3.58402">
        <ele>1150</ele>
        <time>2022-05-27T10:02:53Z</time>
      </trkpt>
      <trkpt lat="44.4076" lon="3.58401">
        <ele>1151</ele>
        <time>2022-05-27T10:02:54Z</time>
      </trkpt>
      <trkpt lat="44.4076" lon="3.58401">
        <ele>1151</ele>
        <time>2022-05-27T10:02:55Z</time>
      </trkpt>
      <trkpt lat="44.4076" lon="3.58401">
        <ele>1151</ele>
        <time>2022-05-27T10:02:56Z</time>
      </trkpt>
      <trkpt lat="44.4076" lon="3.58398">
        <ele>1150</ele>
        <time>2022-05-27T10:02:57Z</time>
      </trkpt>
      <trkpt lat="44.40759" lon="3.58397">
        <ele>1149</ele>
        <time>2022-05-27T10:02:58Z</time>
      </trkpt>
      <trkpt lat="44.40759" lon="3.58396">
        <ele>1149</ele>
        <time>2022-05-27T10:02:59Z</time>
      </trkpt>
      <trkpt lat="44.40757" lon="3.58395">
        <ele>1148</ele>
        <time>2022-05-27T10:03:00Z</time>
      </trkpt>
      <trkpt lat="44.40757" lon="3.58395">
        <ele>1148</ele>
        <time>2022-05-27T10:03:01Z</time>
      </trkpt>
      <trkpt lat="44.40757" lon="3.58395">
        <ele>1148</ele>
        <time>2022-05-27T10:03:02Z</time>
      </trkpt>
      <trkpt lat="44.40756" lon="3.58391">
        <ele>1150</ele>
        <time>2022-05-27T10:03:03Z</time>
      </trkpt>
      <trkpt lat="44.40755" lon="3.5839">
        <ele>1150</ele>
        <time>2022-05-27T10:03:04Z</time>
      </trkpt>
      <trkpt lat="44.40754" lon="3.58389">
        <ele>1151</ele>
        <time>2022-05-27T10:03:05Z</time>
      </trkpt>
      <trkpt lat="44.40754" lon="3.58388">
        <ele>1151</ele>
        <time>2022-05-27T10:03:06Z</time>
      </trkpt>
      <trkpt lat="44.40754" lon="3.58388">
        <ele>1151</ele>
        <time>2022-05-27T10:03:07Z</time>
      </trkpt>
      <trkpt lat="44.40754" lon="3.58388">
        <ele>1151</ele>
        <time>2022-05-27T10:03:08Z</time>
      </trkpt>
      <trkpt lat="44.40753" lon="3.58384">
        <ele>1152</ele>
        <time>2022-05-27T10:03:09Z</time>
      </trkpt>
      <trkpt lat="44.40752" lon="3.58383">
        <ele>1152</ele>
        <time>2022-05-27T10:03:10Z</time>
      </trkpt>
      <trkpt lat="44.40751" lon="3.58382">
        <ele>1152</ele>
        <time>2022-05-27T10:03:11Z</time>
      </trkpt>
      <trkpt lat="44.40751" lon="3.5838">
        <ele>1152</ele>
        <time>2022-05-27T10:03:12Z</time>
      </trkpt>
      <trkpt lat="44.40751" lon="3.58378">
        <ele>1152</ele>
        <time>2022-05-27T10:03:13Z</time>
      </trkpt>
      <trkpt lat="44.40751" lon="3.58376">
        <ele>1152</ele>
        <time>2022-05-27T10:03:14Z</time>
      </trkpt>
      <trkpt lat="44.4075" lon="3.58375">
        <ele>1152</ele>
        <time>2022-05-27T10:03:15Z</time>
      </trkpt>
      <trkpt lat="44.4075" lon="3.58374">
        <ele>1152</ele>
        <time>2022-05-27T10:03:16Z</time>
      </trkpt>
      <trkpt lat="44.40749" lon="3.58372">
        <ele>1153</ele>
        <time>2022-05-27T10:03:17Z</time>
      </trkpt>
      <trkpt lat="44.40749" lon="3.58372">
        <ele>1153</ele>
        <time>2022-05-27T10:03:18Z</time>
      </trkpt>
      <trkpt lat="44.40749" lon="3.58372">
        <ele>1153</ele>
        <time>2022-05-27T10:03:19Z</time>
      </trkpt>
      <trkpt lat="44.40748" lon="3.58369">
        <ele>1153</ele>
        <time>2022-05-27T10:03:20Z</time>
      </trkpt>
      <trkpt lat="44.40748" lon="3.58367">
        <ele>1152</ele>
        <time>2022-05-27T10:03:21Z</time>
      </trkpt>
      <trkpt lat="44.40747" lon="3.58365">
        <ele>1151</ele>
        <time>2022-05-27T10:03:22Z</time>
      </trkpt>
      <trkpt lat="44.40746" lon="3.58364">
        <ele>1152</ele>
        <time>2022-05-27T10:03:23Z</time>
      </trkpt>
      <trkpt lat="44.40746" lon="3.58364">
        <ele>1152</ele>
        <time>2022-05-27T10:03:24Z</time>
      </trkpt>
      <trkpt lat="44.40746" lon="3.58364">
        <ele>1152</ele>
        <time>2022-05-27T10:03:25Z</time>
      </trkpt>
      <trkpt lat="44.40745" lon="3.58361">
        <ele>1151</ele>
        <time>2022-05-27T10:03:26Z</time>
      </trkpt>
      <trkpt lat="44.40744" lon="3.58359">
        <ele>1151</ele>
        <time>2022-05-27T10:03:27Z</time>
      </trkpt>
      <trkpt lat="44.40743" lon="3.58358">
        <ele>1151</ele>
        <time>2022-05-27T10:03:28Z</time>
      </trkpt>
      <trkpt lat="44.40743" lon="3.58357">
        <ele>1150</ele>
        <time>2022-05-27T10:03:29Z</time>
      </trkpt>
      <trkpt lat="44.40743" lon="3.58357">
        <ele>1150</ele>
        <time>2022-05-27T10:03:30Z</time>
      </trkpt>
      <trkpt lat="44.40743" lon="3.58357">
        <ele>1150</ele>
        <time>2022-05-27T10:03:31Z</time>
      </trkpt>
      <trkpt lat="44.4074" lon="3.58355">
        <ele>1149</ele>
        <time>2022-05-27T10:03:32Z</time>
      </trkpt>
      <trkpt lat="44.40739" lon="3.58354">
        <ele>1149</ele>
        <time>2022-05-27T10:03:33Z</time>
      </trkpt>
      <trkpt lat="44.40739" lon="3.58354">
        <ele>1149</ele>
        <time>2022-05-27T10:03:34Z</time>
      </trkpt>
      <trkpt lat="44.40737" lon="3.58353">
        <ele>1148</ele>
        <time>2022-05-27T10:03:35Z</time>
      </trkpt>
      <trkpt lat="44.40737" lon="3.58353">
        <ele>1148</ele>
        <time>2022-05-27T10:03:36Z</time>
      </trkpt>
      <trkpt lat="44.40737" lon="3.58353">
        <ele>1148</ele>
        <time>2022-05-27T10:03:37Z</time>
      </trkpt>
      <trkpt lat="44.40734" lon="3.58351">
        <ele>1148</ele>
        <time>2022-05-27T10:03:38Z</time>
      </trkpt>
      <trkpt lat="44.40733" lon="3.5835">
        <ele>1148</ele>
        <time>2022-05-27T10:03:39Z</time>
      </trkpt>
      <trkpt lat="44.40732" lon="3.5835">
        <ele>1148</ele>
        <time>2022-05-27T10:03:40Z</time>
      </trkpt>
      <trkpt lat="44.40731" lon="3.58349">
        <ele>1148</ele>
        <time>2022-05-27T10:03:41Z</time>
      </trkpt>
      <trkpt lat="44.40729" lon="3.58349">
        <ele>1148</ele>
        <time>2022-05-27T10:03:42Z</time>
      </trkpt>
      <trkpt lat="44.40728" lon="3.58349">
        <ele>1147</ele>
        <time>2022-05-27T10:03:43Z</time>
      </trkpt>
      <trkpt lat="44.40727" lon="3.58348">
        <ele>1149</ele>
        <time>2022-05-27T10:03:44Z</time>
      </trkpt>
      <trkpt lat="44.40726" lon="3.58347">
        <ele>1149</ele>
        <time>2022-05-27T10:03:45Z</time>
      </trkpt>
      <trkpt lat="44.40725" lon="3.58346">
        <ele>1148</ele>
        <time>2022-05-27T10:03:46Z</time>
      </trkpt>
      <trkpt lat="44.40724" lon="3.58345">
        <ele>1149</ele>
        <time>2022-05-27T10:03:47Z</time>
      </trkpt>
      <trkpt lat="44.40723" lon="3.58344">
        <ele>1149</ele>
        <time>2022-05-27T10:03:48Z</time>
      </trkpt>
      <trkpt lat="44.40722" lon="3.58343">
        <ele>1148</ele>
        <time>2022-05-27T10:03:49Z</time>
      </trkpt>
      <trkpt lat="44.40722" lon="3.58342">
        <ele>1148</ele>
        <time>2022-05-27T10:03:50Z</time>
      </trkpt>
      <trkpt lat="44.4072" lon="3.58341">
        <ele>1148</ele>
        <time>2022-05-27T10:03:51Z</time>
      </trkpt>
      <trkpt lat="44.4072" lon="3.58341">
        <ele>1148</ele>
        <time>2022-05-27T10:03:52Z</time>
      </trkpt>
      <trkpt lat="44.40719" lon="3.58341">
        <ele>1148</ele>
        <time>2022-05-27T10:03:53Z</time>
      </trkpt>
      <trkpt lat="44.40719" lon="3.58341">
        <ele>1148</ele>
        <time>2022-05-27T10:03:54Z</time>
      </trkpt>
      <trkpt lat="44.40719" lon="3.58341">
        <ele>1148</ele>
        <time>2022-05-27T10:03:55Z</time>
      </trkpt>
      <trkpt lat="44.40715" lon="3.58339">
        <ele>1148</ele>
        <time>2022-05-27T10:03:56Z</time>
      </trkpt>
      <trkpt lat="44.40714" lon="3.58338">
        <ele>1147</ele>
        <time>2022-05-27T10:03:57Z</time>
      </trkpt>
      <trkpt lat="44.40713" lon="3.58337">
        <ele>1147</ele>
        <time>2022-05-27T10:03:58Z</time>
      </trkpt>
      <trkpt lat="44.40712" lon="3.58336">
        <ele>1147</ele>
        <time>2022-05-27T10:03:59Z</time>
      </trkpt>
      <trkpt lat="44.40711" lon="3.58335">
        <ele>1147</ele>
        <time>2022-05-27T10:04:00Z</time>
      </trkpt>
      <trkpt lat="44.4071" lon="3.58334">
        <ele>1147</ele>
        <time>2022-05-27T10:04:01Z</time>
      </trkpt>
      <trkpt lat="44.40709" lon="3.58332">
        <ele>1147</ele>
        <time>2022-05-27T10:04:02Z</time>
      </trkpt>
      <trkpt lat="44.40708" lon="3.58331">
        <ele>1147</ele>
        <time>2022-05-27T10:04:03Z</time>
      </trkpt>
      <trkpt lat="44.40707" lon="3.58331">
        <ele>1147</ele>
        <time>2022-05-27T10:04:04Z</time>
      </trkpt>
      <trkpt lat="44.40706" lon="3.5833">
        <ele>1147</ele>
        <time>2022-05-27T10:04:05Z</time>
      </trkpt>
      <trkpt lat="44.40704" lon="3.5833">
        <ele>1147</ele>
        <time>2022-05-27T10:04:06Z</time>
      </trkpt>
      <trkpt lat="44.40702" lon="3.5833">
        <ele>1147</ele>
        <time>2022-05-27T10:04:07Z</time>
      </trkpt>
      <trkpt lat="44.40701" lon="3.5833">
        <ele>1148</ele>
        <time>2022-05-27T10:04:08Z</time>
      </trkpt>
      <trkpt lat="44.40699" lon="3.5833">
        <ele>1148</ele>
        <time>2022-05-27T10:04:09Z</time>
      </trkpt>
      <trkpt lat="44.40698" lon="3.5833">
        <ele>1148</ele>
        <time>2022-05-27T10:04:10Z</time>
      </trkpt>
      <trkpt lat="44.40696" lon="3.58329">
        <ele>1148</ele>
        <time>2022-05-27T10:04:11Z</time>
      </trkpt>
      <trkpt lat="44.40695" lon="3.58328">
        <ele>1148</ele>
        <time>2022-05-27T10:04:12Z</time>
      </trkpt>
      <trkpt lat="44.40694" lon="3.58327">
        <ele>1148</ele>
        <time>2022-05-27T10:04:13Z</time>
      </trkpt>
      <trkpt lat="44.40693" lon="3.58326">
        <ele>1148</ele>
        <time>2022-05-27T10:04:14Z</time>
      </trkpt>
      <trkpt lat="44.40691" lon="3.58325">
        <ele>1147</ele>
        <time>2022-05-27T10:04:15Z</time>
      </trkpt>
      <trkpt lat="44.4069" lon="3.58324">
        <ele>1146</ele>
        <time>2022-05-27T10:04:16Z</time>
      </trkpt>
      <trkpt lat="44.40689" lon="3.58323">
        <ele>1147</ele>
        <time>2022-05-27T10:04:17Z</time>
      </trkpt>
      <trkpt lat="44.40688" lon="3.58322">
        <ele>1147</ele>
        <time>2022-05-27T10:04:18Z</time>
      </trkpt>
      <trkpt lat="44.40687" lon="3.58321">
        <ele>1146</ele>
        <time>2022-05-27T10:04:19Z</time>
      </trkpt>
      <trkpt lat="44.40686" lon="3.5832">
        <ele>1147</ele>
        <time>2022-05-27T10:04:20Z</time>
      </trkpt>
      <trkpt lat="44.40685" lon="3.58319">
        <ele>1147</ele>
        <time>2022-05-27T10:04:21Z</time>
      </trkpt>
      <trkpt lat="44.40684" lon="3.58318">
        <ele>1146</ele>
        <time>2022-05-27T10:04:22Z</time>
      </trkpt>
      <trkpt lat="44.40683" lon="3.58317">
        <ele>1147</ele>
        <time>2022-05-27T10:04:23Z</time>
      </trkpt>
      <trkpt lat="44.40682" lon="3.58316">
        <ele>1147</ele>
        <time>2022-05-27T10:04:24Z</time>
      </trkpt>
      <trkpt lat="44.40681" lon="3.58316">
        <ele>1147</ele>
        <time>2022-05-27T10:04:25Z</time>
      </trkpt>
      <trkpt lat="44.4068" lon="3.58315">
        <ele>1147</ele>
        <time>2022-05-27T10:04:26Z</time>
      </trkpt>
      <trkpt lat="44.40679" lon="3.58314">
        <ele>1147</ele>
        <time>2022-05-27T10:04:27Z</time>
      </trkpt>
      <trkpt lat="44.40678" lon="3.58313">
        <ele>1147</ele>
        <time>2022-05-27T10:04:28Z</time>
      </trkpt>
      <trkpt lat="44.40677" lon="3.58313">
        <ele>1148</ele>
        <time>2022-05-27T10:04:29Z</time>
      </trkpt>
      <trkpt lat="44.40676" lon="3.58312">
        <ele>1148</ele>
        <time>2022-05-27T10:04:30Z</time>
      </trkpt>
      <trkpt lat="44.40675" lon="3.58311">
        <ele>1147</ele>
        <time>2022-05-27T10:04:31Z</time>
      </trkpt>
      <trkpt lat="44.40674" lon="3.5831">
        <ele>1146</ele>
        <time>2022-05-27T10:04:32Z</time>
      </trkpt>
      <trkpt lat="44.40673" lon="3.5831">
        <ele>1146</ele>
        <time>2022-05-27T10:04:33Z</time>
      </trkpt>
      <trkpt lat="44.40672" lon="3.58309">
        <ele>1146</ele>
        <time>2022-05-27T10:04:34Z</time>
      </trkpt>
      <trkpt lat="44.40671" lon="3.58309">
        <ele>1145</ele>
        <time>2022-05-27T10:04:35Z</time>
      </trkpt>
      <trkpt lat="44.4067" lon="3.58308">
        <ele>1145</ele>
        <time>2022-05-27T10:04:36Z</time>
      </trkpt>
      <trkpt lat="44.40669" lon="3.58306">
        <ele>1145</ele>
        <time>2022-05-27T10:04:37Z</time>
      </trkpt>
      <trkpt lat="44.40668" lon="3.58306">
        <ele>1144</ele>
        <time>2022-05-27T10:04:38Z</time>
      </trkpt>
      <trkpt lat="44.40666" lon="3.58305">
        <ele>1144</ele>
        <time>2022-05-27T10:04:39Z</time>
      </trkpt>
      <trkpt lat="44.40665" lon="3.58305">
        <ele>1145</ele>
        <time>2022-05-27T10:04:40Z</time>
      </trkpt>
      <trkpt lat="44.40664" lon="3.58305">
        <ele>1145</ele>
        <time>2022-05-27T10:04:41Z</time>
      </trkpt>
      <trkpt lat="44.40663" lon="3.58304">
        <ele>1146</ele>
        <time>2022-05-27T10:04:42Z</time>
      </trkpt>
      <trkpt lat="44.40662" lon="3.58303">
        <ele>1146</ele>
        <time>2022-05-27T10:04:43Z</time>
      </trkpt>
      <trkpt lat="44.40661" lon="3.58303">
        <ele>1145</ele>
        <time>2022-05-27T10:04:44Z</time>
      </trkpt>
      <trkpt lat="44.4066" lon="3.58301">
        <ele>1145</ele>
        <time>2022-05-27T10:04:45Z</time>
      </trkpt>
      <trkpt lat="44.40659" lon="3.58301">
        <ele>1145</ele>
        <time>2022-05-27T10:04:46Z</time>
      </trkpt>
      <trkpt lat="44.40658" lon="3.583">
        <ele>1145</ele>
        <time>2022-05-27T10:04:47Z</time>
      </trkpt>
      <trkpt lat="44.40657" lon="3.58299">
        <ele>1144</ele>
        <time>2022-05-27T10:04:48Z</time>
      </trkpt>
      <trkpt lat="44.40656" lon="3.58298">
        <ele>1144</ele>
        <time>2022-05-27T10:04:49Z</time>
      </trkpt>
      <trkpt lat="44.40655" lon="3.58297">
        <ele>1144</ele>
        <time>2022-05-27T10:04:50Z</time>
      </trkpt>
      <trkpt lat="44.40654" lon="3.58297">
        <ele>1143</ele>
        <time>2022-05-27T10:04:51Z</time>
      </trkpt>
      <trkpt lat="44.40653" lon="3.58297">
        <ele>1143</ele>
        <time>2022-05-27T10:04:52Z</time>
      </trkpt>
      <trkpt lat="44.40651" lon="3.58296">
        <ele>1143</ele>
        <time>2022-05-27T10:04:53Z</time>
      </trkpt>
      <trkpt lat="44.40651" lon="3.58296">
        <ele>1142</ele>
        <time>2022-05-27T10:04:54Z</time>
      </trkpt>
      <trkpt lat="44.4065" lon="3.58295">
        <ele>1142</ele>
        <time>2022-05-27T10:04:55Z</time>
      </trkpt>
      <trkpt lat="44.4065" lon="3.58295">
        <ele>1142</ele>
        <time>2022-05-27T10:04:56Z</time>
      </trkpt>
      <trkpt lat="44.40648" lon="3.58294">
        <ele>1141</ele>
        <time>2022-05-27T10:04:57Z</time>
      </trkpt>
      <trkpt lat="44.40647" lon="3.58293">
        <ele>1140</ele>
        <time>2022-05-27T10:04:58Z</time>
      </trkpt>
      <trkpt lat="44.40646" lon="3.58292">
        <ele>1139</ele>
        <time>2022-05-27T10:04:59Z</time>
      </trkpt>
      <trkpt lat="44.40646" lon="3.58291">
        <ele>1139</ele>
        <time>2022-05-27T10:05:00Z</time>
      </trkpt>
      <trkpt lat="44.40645" lon="3.5829">
        <ele>1139</ele>
        <time>2022-05-27T10:05:01Z</time>
      </trkpt>
      <trkpt lat="44.40644" lon="3.58289">
        <ele>1138</ele>
        <time>2022-05-27T10:05:02Z</time>
      </trkpt>
      <trkpt lat="44.40643" lon="3.58288">
        <ele>1137</ele>
        <time>2022-05-27T10:05:03Z</time>
      </trkpt>
      <trkpt lat="44.40642" lon="3.58287">
        <ele>1137</ele>
        <time>2022-05-27T10:05:04Z</time>
      </trkpt>
      <trkpt lat="44.40641" lon="3.58286">
        <ele>1137</ele>
        <time>2022-05-27T10:05:05Z</time>
      </trkpt>
      <trkpt lat="44.4064" lon="3.58285">
        <ele>1136</ele>
        <time>2022-05-27T10:05:06Z</time>
      </trkpt>
      <trkpt lat="44.40639" lon="3.58284">
        <ele>1136</ele>
        <time>2022-05-27T10:05:07Z</time>
      </trkpt>
      <trkpt lat="44.40638" lon="3.58283">
        <ele>1136</ele>
        <time>2022-05-27T10:05:08Z</time>
      </trkpt>
      <trkpt lat="44.40638" lon="3.58282">
        <ele>1136</ele>
        <time>2022-05-27T10:05:09Z</time>
      </trkpt>
      <trkpt lat="44.40637" lon="3.58281">
        <ele>1135</ele>
        <time>2022-05-27T10:05:10Z</time>
      </trkpt>
      <trkpt lat="44.40636" lon="3.5828">
        <ele>1135</ele>
        <time>2022-05-27T10:05:11Z</time>
      </trkpt>
      <trkpt lat="44.40635" lon="3.58279">
        <ele>1136</ele>
        <time>2022-05-27T10:05:12Z</time>
      </trkpt>
      <trkpt lat="44.40634" lon="3.58278">
        <ele>1136</ele>
        <time>2022-05-27T10:05:13Z</time>
      </trkpt>
      <trkpt lat="44.40634" lon="3.58277">
        <ele>1135</ele>
        <time>2022-05-27T10:05:14Z</time>
      </trkpt>
      <trkpt lat="44.40633" lon="3.58276">
        <ele>1135</ele>
        <time>2022-05-27T10:05:15Z</time>
      </trkpt>
      <trkpt lat="44.40632" lon="3.58275">
        <ele>1134</ele>
        <time>2022-05-27T10:05:16Z</time>
      </trkpt>
      <trkpt lat="44.40632" lon="3.58274">
        <ele>1134</ele>
        <time>2022-05-27T10:05:17Z</time>
      </trkpt>
      <trkpt lat="44.40631" lon="3.58273">
        <ele>1134</ele>
        <time>2022-05-27T10:05:18Z</time>
      </trkpt>
      <trkpt lat="44.4063" lon="3.58272">
        <ele>1134</ele>
        <time>2022-05-27T10:05:19Z</time>
      </trkpt>
      <trkpt lat="44.40629" lon="3.58272">
        <ele>1133</ele>
        <time>2022-05-27T10:05:20Z</time>
      </trkpt>
      <trkpt lat="44.40628" lon="3.58271">
        <ele>1134</ele>
        <time>2022-05-27T10:05:21Z</time>
      </trkpt>
      <trkpt lat="44.40627" lon="3.5827">
        <ele>1134</ele>
        <time>2022-05-27T10:05:22Z</time>
      </trkpt>
      <trkpt lat="44.40627" lon="3.58269">
        <ele>1133</ele>
        <time>2022-05-27T10:05:23Z</time>
      </trkpt>
      <trkpt lat="44.40626" lon="3.58268">
        <ele>1134</ele>
        <time>2022-05-27T10:05:24Z</time>
      </trkpt>
      <trkpt lat="44.40625" lon="3.58268">
        <ele>1134</ele>
        <time>2022-05-27T10:05:25Z</time>
      </trkpt>
      <trkpt lat="44.40624" lon="3.58267">
        <ele>1134</ele>
        <time>2022-05-27T10:05:26Z</time>
      </trkpt>
      <trkpt lat="44.40623" lon="3.58266">
        <ele>1134</ele>
        <time>2022-05-27T10:05:27Z</time>
      </trkpt>
      <trkpt lat="44.40622" lon="3.58265">
        <ele>1134</ele>
        <time>2022-05-27T10:05:28Z</time>
      </trkpt>
      <trkpt lat="44.40621" lon="3.58264">
        <ele>1134</ele>
        <time>2022-05-27T10:05:29Z</time>
      </trkpt>
      <trkpt lat="44.40619" lon="3.58264">
        <ele>1134</ele>
        <time>2022-05-27T10:05:30Z</time>
      </trkpt>
      <trkpt lat="44.40618" lon="3.58263">
        <ele>1134</ele>
        <time>2022-05-27T10:05:31Z</time>
      </trkpt>
      <trkpt lat="44.40617" lon="3.58262">
        <ele>1133</ele>
        <time>2022-05-27T10:05:32Z</time>
      </trkpt>
      <trkpt lat="44.40616" lon="3.58261">
        <ele>1133</ele>
        <time>2022-05-27T10:05:33Z</time>
      </trkpt>
      <trkpt lat="44.40615" lon="3.58261">
        <ele>1132</ele>
        <time>2022-05-27T10:05:34Z</time>
      </trkpt>
      <trkpt lat="44.40615" lon="3.58259">
        <ele>1132</ele>
        <time>2022-05-27T10:05:35Z</time>
      </trkpt>
      <trkpt lat="44.40614" lon="3.58258">
        <ele>1131</ele>
        <time>2022-05-27T10:05:36Z</time>
      </trkpt>
      <trkpt lat="44.40613" lon="3.58258">
        <ele>1130</ele>
        <time>2022-05-27T10:05:37Z</time>
      </trkpt>
      <trkpt lat="44.40611" lon="3.58257">
        <ele>1130</ele>
        <time>2022-05-27T10:05:38Z</time>
      </trkpt>
      <trkpt lat="44.40611" lon="3.58256">
        <ele>1130</ele>
        <time>2022-05-27T10:05:39Z</time>
      </trkpt>
      <trkpt lat="44.40609" lon="3.58255">
        <ele>1130</ele>
        <time>2022-05-27T10:05:40Z</time>
      </trkpt>
      <trkpt lat="44.40608" lon="3.58254">
        <ele>1131</ele>
        <time>2022-05-27T10:05:41Z</time>
      </trkpt>
      <trkpt lat="44.40607" lon="3.58253">
        <ele>1131</ele>
        <time>2022-05-27T10:05:42Z</time>
      </trkpt>
      <trkpt lat="44.40605" lon="3.58252">
        <ele>1130</ele>
        <time>2022-05-27T10:05:43Z</time>
      </trkpt>
      <trkpt lat="44.40603" lon="3.58251">
        <ele>1130</ele>
        <time>2022-05-27T10:05:44Z</time>
      </trkpt>
      <trkpt lat="44.40602" lon="3.5825">
        <ele>1130</ele>
        <time>2022-05-27T10:05:45Z</time>
      </trkpt>
      <trkpt lat="44.40601" lon="3.58249">
        <ele>1130</ele>
        <time>2022-05-27T10:05:46Z</time>
      </trkpt>
      <trkpt lat="44.406" lon="3.58248">
        <ele>1129</ele>
        <time>2022-05-27T10:05:47Z</time>
      </trkpt>
      <trkpt lat="44.40599" lon="3.58246">
        <ele>1129</ele>
        <time>2022-05-27T10:05:48Z</time>
      </trkpt>
      <trkpt lat="44.40598" lon="3.58245">
        <ele>1128</ele>
        <time>2022-05-27T10:05:49Z</time>
      </trkpt>
      <trkpt lat="44.40597" lon="3.58245">
        <ele>1127</ele>
        <time>2022-05-27T10:05:50Z</time>
      </trkpt>
      <trkpt lat="44.40595" lon="3.58244">
        <ele>1127</ele>
        <time>2022-05-27T10:05:51Z</time>
      </trkpt>
      <trkpt lat="44.40594" lon="3.58243">
        <ele>1127</ele>
        <time>2022-05-27T10:05:52Z</time>
      </trkpt>
      <trkpt lat="44.40593" lon="3.58242">
        <ele>1127</ele>
        <time>2022-05-27T10:05:53Z</time>
      </trkpt>
      <trkpt lat="44.40592" lon="3.58241">
        <ele>1127</ele>
        <time>2022-05-27T10:05:54Z</time>
      </trkpt>
      <trkpt lat="44.40591" lon="3.5824">
        <ele>1126</ele>
        <time>2022-05-27T10:05:55Z</time>
      </trkpt>
      <trkpt lat="44.4059" lon="3.58239">
        <ele>1126</ele>
        <time>2022-05-27T10:05:56Z</time>
      </trkpt>
      <trkpt lat="44.40589" lon="3.58238">
        <ele>1126</ele>
        <time>2022-05-27T10:05:57Z</time>
      </trkpt>
      <trkpt lat="44.40588" lon="3.58237">
        <ele>1125</ele>
        <time>2022-05-27T10:05:58Z</time>
      </trkpt>
      <trkpt lat="44.40587" lon="3.58236">
        <ele>1125</ele>
        <time>2022-05-27T10:05:59Z</time>
      </trkpt>
      <trkpt lat="44.40586" lon="3.58235">
        <ele>1124</ele>
        <time>2022-05-27T10:06:00Z</time>
      </trkpt>
      <trkpt lat="44.40584" lon="3.58234">
        <ele>1123</ele>
        <time>2022-05-27T10:06:01Z</time>
      </trkpt>
      <trkpt lat="44.40583" lon="3.58233">
        <ele>1123</ele>
        <time>2022-05-27T10:06:02Z</time>
      </trkpt>
      <trkpt lat="44.40582" lon="3.58232">
        <ele>1122</ele>
        <time>2022-05-27T10:06:03Z</time>
      </trkpt>
      <trkpt lat="44.40581" lon="3.58231">
        <ele>1121</ele>
        <time>2022-05-27T10:06:04Z</time>
      </trkpt>
      <trkpt lat="44.4058" lon="3.5823">
        <ele>1120</ele>
        <time>2022-05-27T10:06:05Z</time>
      </trkpt>
      <trkpt lat="44.40579" lon="3.58229">
        <ele>1120</ele>
        <time>2022-05-27T10:06:06Z</time>
      </trkpt>
      <trkpt lat="44.40578" lon="3.58228">
        <ele>1120</ele>
        <time>2022-05-27T10:06:07Z</time>
      </trkpt>
      <trkpt lat="44.40577" lon="3.58227">
        <ele>1119</ele>
        <time>2022-05-27T10:06:08Z</time>
      </trkpt>
      <trkpt lat="44.40575" lon="3.58226">
        <ele>1119</ele>
        <time>2022-05-27T10:06:09Z</time>
      </trkpt>
      <trkpt lat="44.40574" lon="3.58225">
        <ele>1118</ele>
        <time>2022-05-27T10:06:10Z</time>
      </trkpt>
      <trkpt lat="44.40574" lon="3.58224">
        <ele>1117</ele>
        <time>2022-05-27T10:06:11Z</time>
      </trkpt>
      <trkpt lat="44.40572" lon="3.58223">
        <ele>1118</ele>
        <time>2022-05-27T10:06:12Z</time>
      </trkpt>
      <trkpt lat="44.40571" lon="3.58222">
        <ele>1117</ele>
        <time>2022-05-27T10:06:13Z</time>
      </trkpt>
      <trkpt lat="44.4057" lon="3.58221">
        <ele>1116</ele>
        <time>2022-05-27T10:06:14Z</time>
      </trkpt>
      <trkpt lat="44.40569" lon="3.5822">
        <ele>1116</ele>
        <time>2022-05-27T10:06:15Z</time>
      </trkpt>
      <trkpt lat="44.40568" lon="3.58218">
        <ele>1116</ele>
        <time>2022-05-27T10:06:16Z</time>
      </trkpt>
      <trkpt lat="44.40567" lon="3.58217">
        <ele>1116</ele>
        <time>2022-05-27T10:06:17Z</time>
      </trkpt>
      <trkpt lat="44.40565" lon="3.58216">
        <ele>1116</ele>
        <time>2022-05-27T10:06:18Z</time>
      </trkpt>
      <trkpt lat="44.40564" lon="3.58215">
        <ele>1116</ele>
        <time>2022-05-27T10:06:19Z</time>
      </trkpt>
      <trkpt lat="44.40563" lon="3.58215">
        <ele>1116</ele>
        <time>2022-05-27T10:06:20Z</time>
      </trkpt>
      <trkpt lat="44.40562" lon="3.58214">
        <ele>1116</ele>
        <time>2022-05-27T10:06:21Z</time>
      </trkpt>
      <trkpt lat="44.40561" lon="3.58214">
        <ele>1116</ele>
        <time>2022-05-27T10:06:22Z</time>
      </trkpt>
      <trkpt lat="44.4056" lon="3.58213">
        <ele>1115</ele>
        <time>2022-05-27T10:06:23Z</time>
      </trkpt>
      <trkpt lat="44.40559" lon="3.58212">
        <ele>1115</ele>
        <time>2022-05-27T10:06:24Z</time>
      </trkpt>
      <trkpt lat="44.40558" lon="3.58212">
        <ele>1114</ele>
        <time>2022-05-27T10:06:25Z</time>
      </trkpt>
      <trkpt lat="44.40557" lon="3.58211">
        <ele>1113</ele>
        <time>2022-05-27T10:06:26Z</time>
      </trkpt>
      <trkpt lat="44.40556" lon="3.5821">
        <ele>1113</ele>
        <time>2022-05-27T10:06:27Z</time>
      </trkpt>
      <trkpt lat="44.40555" lon="3.58209">
        <ele>1113</ele>
        <time>2022-05-27T10:06:28Z</time>
      </trkpt>
      <trkpt lat="44.40554" lon="3.58208">
        <ele>1113</ele>
        <time>2022-05-27T10:06:29Z</time>
      </trkpt>
      <trkpt lat="44.40553" lon="3.58208">
        <ele>1112</ele>
        <time>2022-05-27T10:06:30Z</time>
      </trkpt>
      <trkpt lat="44.40552" lon="3.58207">
        <ele>1112</ele>
        <time>2022-05-27T10:06:31Z</time>
      </trkpt>
      <trkpt lat="44.40551" lon="3.58205">
        <ele>1112</ele>
        <time>2022-05-27T10:06:32Z</time>
      </trkpt>
      <trkpt lat="44.4055" lon="3.58205">
        <ele>1112</ele>
        <time>2022-05-27T10:06:33Z</time>
      </trkpt>
      <trkpt lat="44.40549" lon="3.58204">
        <ele>1112</ele>
        <time>2022-05-27T10:06:34Z</time>
      </trkpt>
      <trkpt lat="44.40548" lon="3.58203">
        <ele>1111</ele>
        <time>2022-05-27T10:06:35Z</time>
      </trkpt>
      <trkpt lat="44.40546" lon="3.58202">
        <ele>1111</ele>
        <time>2022-05-27T10:06:36Z</time>
      </trkpt>
      <trkpt lat="44.40546" lon="3.58201">
        <ele>1110</ele>
        <time>2022-05-27T10:06:37Z</time>
      </trkpt>
      <trkpt lat="44.40545" lon="3.58201">
        <ele>1110</ele>
        <time>2022-05-27T10:06:38Z</time>
      </trkpt>
      <trkpt lat="44.40543" lon="3.582">
        <ele>1110</ele>
        <time>2022-05-27T10:06:39Z</time>
      </trkpt>
      <trkpt lat="44.40542" lon="3.58199">
        <ele>1109</ele>
        <time>2022-05-27T10:06:40Z</time>
      </trkpt>
      <trkpt lat="44.40541" lon="3.58198">
        <ele>1109</ele>
        <time>2022-05-27T10:06:41Z</time>
      </trkpt>
      <trkpt lat="44.4054" lon="3.58197">
        <ele>1109</ele>
        <time>2022-05-27T10:06:42Z</time>
      </trkpt>
      <trkpt lat="44.40539" lon="3.58196">
        <ele>1108</ele>
        <time>2022-05-27T10:06:43Z</time>
      </trkpt>
      <trkpt lat="44.40537" lon="3.58195">
        <ele>1108</ele>
        <time>2022-05-27T10:06:44Z</time>
      </trkpt>
      <trkpt lat="44.40537" lon="3.58195">
        <ele>1108</ele>
        <time>2022-05-27T10:06:45Z</time>
      </trkpt>
      <trkpt lat="44.40537" lon="3.58195">
        <ele>1108</ele>
        <time>2022-05-27T10:06:46Z</time>
      </trkpt>
      <trkpt lat="44.40535" lon="3.58194">
        <ele>1107</ele>
        <time>2022-05-27T10:06:47Z</time>
      </trkpt>
      <trkpt lat="44.40534" lon="3.58193">
        <ele>1107</ele>
        <time>2022-05-27T10:06:48Z</time>
      </trkpt>
      <trkpt lat="44.40533" lon="3.58192">
        <ele>1107</ele>
        <time>2022-05-27T10:06:49Z</time>
      </trkpt>
      <trkpt lat="44.40532" lon="3.58191">
        <ele>1107</ele>
        <time>2022-05-27T10:06:50Z</time>
      </trkpt>
      <trkpt lat="44.40531" lon="3.5819">
        <ele>1107</ele>
        <time>2022-05-27T10:06:51Z</time>
      </trkpt>
      <trkpt lat="44.4053" lon="3.58188">
        <ele>1107</ele>
        <time>2022-05-27T10:06:52Z</time>
      </trkpt>
      <trkpt lat="44.4053" lon="3.58187">
        <ele>1107</ele>
        <time>2022-05-27T10:06:53Z</time>
      </trkpt>
      <trkpt lat="44.40529" lon="3.58186">
        <ele>1107</ele>
        <time>2022-05-27T10:06:54Z</time>
      </trkpt>
      <trkpt lat="44.40528" lon="3.58184">
        <ele>1107</ele>
        <time>2022-05-27T10:06:55Z</time>
      </trkpt>
      <trkpt lat="44.40527" lon="3.58183">
        <ele>1107</ele>
        <time>2022-05-27T10:06:56Z</time>
      </trkpt>
      <trkpt lat="44.40525" lon="3.58183">
        <ele>1107</ele>
        <time>2022-05-27T10:06:57Z</time>
      </trkpt>
      <trkpt lat="44.40524" lon="3.58182">
        <ele>1107</ele>
        <time>2022-05-27T10:06:58Z</time>
      </trkpt>
      <trkpt lat="44.40523" lon="3.58181">
        <ele>1107</ele>
        <time>2022-05-27T10:06:59Z</time>
      </trkpt>
      <trkpt lat="44.40522" lon="3.5818">
        <ele>1107</ele>
        <time>2022-05-27T10:07:00Z</time>
      </trkpt>
      <trkpt lat="44.40521" lon="3.58179">
        <ele>1107</ele>
        <time>2022-05-27T10:07:01Z</time>
      </trkpt>
      <trkpt lat="44.40521" lon="3.58178">
        <ele>1107</ele>
        <time>2022-05-27T10:07:02Z</time>
      </trkpt>
      <trkpt lat="44.4052" lon="3.58178">
        <ele>1107</ele>
        <time>2022-05-27T10:07:03Z</time>
      </trkpt>
      <trkpt lat="44.40518" lon="3.58177">
        <ele>1106</ele>
        <time>2022-05-27T10:07:04Z</time>
      </trkpt>
      <trkpt lat="44.40517" lon="3.58176">
        <ele>1106</ele>
        <time>2022-05-27T10:07:05Z</time>
      </trkpt>
      <trkpt lat="44.40516" lon="3.58175">
        <ele>1106</ele>
        <time>2022-05-27T10:07:06Z</time>
      </trkpt>
      <trkpt lat="44.40514" lon="3.58174">
        <ele>1106</ele>
        <time>2022-05-27T10:07:07Z</time>
      </trkpt>
      <trkpt lat="44.40514" lon="3.58173">
        <ele>1106</ele>
        <time>2022-05-27T10:07:08Z</time>
      </trkpt>
      <trkpt lat="44.40513" lon="3.58172">
        <ele>1105</ele>
        <time>2022-05-27T10:07:09Z</time>
      </trkpt>
      <trkpt lat="44.40512" lon="3.58171">
        <ele>1105</ele>
        <time>2022-05-27T10:07:10Z</time>
      </trkpt>
      <trkpt lat="44.40511" lon="3.5817">
        <ele>1105</ele>
        <time>2022-05-27T10:07:11Z</time>
      </trkpt>
      <trkpt lat="44.4051" lon="3.5817">
        <ele>1105</ele>
        <time>2022-05-27T10:07:12Z</time>
      </trkpt>
      <trkpt lat="44.40509" lon="3.5817">
        <ele>1105</ele>
        <time>2022-05-27T10:07:13Z</time>
      </trkpt>
      <trkpt lat="44.40508" lon="3.58169">
        <ele>1105</ele>
        <time>2022-05-27T10:07:14Z</time>
      </trkpt>
      <trkpt lat="44.40506" lon="3.58168">
        <ele>1105</ele>
        <time>2022-05-27T10:07:15Z</time>
      </trkpt>
      <trkpt lat="44.40505" lon="3.58168">
        <ele>1105</ele>
        <time>2022-05-27T10:07:16Z</time>
      </trkpt>
      <trkpt lat="44.40504" lon="3.58167">
        <ele>1105</ele>
        <time>2022-05-27T10:07:17Z</time>
      </trkpt>
      <trkpt lat="44.40503" lon="3.58166">
        <ele>1105</ele>
        <time>2022-05-27T10:07:18Z</time>
      </trkpt>
      <trkpt lat="44.40503" lon="3.58166">
        <ele>1105</ele>
        <time>2022-05-27T10:07:19Z</time>
      </trkpt>
      <trkpt lat="44.40501" lon="3.58165">
        <ele>1106</ele>
        <time>2022-05-27T10:07:20Z</time>
      </trkpt>
      <trkpt lat="44.40501" lon="3.58164">
        <ele>1106</ele>
        <time>2022-05-27T10:07:21Z</time>
      </trkpt>
      <trkpt lat="44.405" lon="3.58163">
        <ele>1106</ele>
        <time>2022-05-27T10:07:22Z</time>
      </trkpt>
      <trkpt lat="44.40499" lon="3.58162">
        <ele>1106</ele>
        <time>2022-05-27T10:07:23Z</time>
      </trkpt>
      <trkpt lat="44.40498" lon="3.58161">
        <ele>1106</ele>
        <time>2022-05-27T10:07:24Z</time>
      </trkpt>
      <trkpt lat="44.40496" lon="3.5816">
        <ele>1106</ele>
        <time>2022-05-27T10:07:25Z</time>
      </trkpt>
      <trkpt lat="44.40495" lon="3.58159">
        <ele>1105</ele>
        <time>2022-05-27T10:07:26Z</time>
      </trkpt>
      <trkpt lat="44.40495" lon="3.58158">
        <ele>1105</ele>
        <time>2022-05-27T10:07:27Z</time>
      </trkpt>
      <trkpt lat="44.40494" lon="3.58157">
        <ele>1104</ele>
        <time>2022-05-27T10:07:28Z</time>
      </trkpt>
      <trkpt lat="44.40493" lon="3.58156">
        <ele>1104</ele>
        <time>2022-05-27T10:07:29Z</time>
      </trkpt>
      <trkpt lat="44.40492" lon="3.58155">
        <ele>1105</ele>
        <time>2022-05-27T10:07:30Z</time>
      </trkpt>
      <trkpt lat="44.40491" lon="3.58154">
        <ele>1104</ele>
        <time>2022-05-27T10:07:31Z</time>
      </trkpt>
      <trkpt lat="44.4049" lon="3.58153">
        <ele>1104</ele>
        <time>2022-05-27T10:07:32Z</time>
      </trkpt>
      <trkpt lat="44.40489" lon="3.58153">
        <ele>1104</ele>
        <time>2022-05-27T10:07:33Z</time>
      </trkpt>
      <trkpt lat="44.40488" lon="3.58151">
        <ele>1104</ele>
        <time>2022-05-27T10:07:34Z</time>
      </trkpt>
      <trkpt lat="44.40487" lon="3.58151">
        <ele>1104</ele>
        <time>2022-05-27T10:07:35Z</time>
      </trkpt>
      <trkpt lat="44.40486" lon="3.5815">
        <ele>1104</ele>
        <time>2022-05-27T10:07:36Z</time>
      </trkpt>
      <trkpt lat="44.40485" lon="3.58149">
        <ele>1104</ele>
        <time>2022-05-27T10:07:37Z</time>
      </trkpt>
      <trkpt lat="44.40485" lon="3.58148">
        <ele>1104</ele>
        <time>2022-05-27T10:07:38Z</time>
      </trkpt>
      <trkpt lat="44.40484" lon="3.58147">
        <ele>1103</ele>
        <time>2022-05-27T10:07:39Z</time>
      </trkpt>
      <trkpt lat="44.40482" lon="3.58146">
        <ele>1103</ele>
        <time>2022-05-27T10:07:40Z</time>
      </trkpt>
      <trkpt lat="44.40481" lon="3.58145">
        <ele>1103</ele>
        <time>2022-05-27T10:07:41Z</time>
      </trkpt>
      <trkpt lat="44.4048" lon="3.58144">
        <ele>1102</ele>
        <time>2022-05-27T10:07:42Z</time>
      </trkpt>
      <trkpt lat="44.40479" lon="3.58143">
        <ele>1102</ele>
        <time>2022-05-27T10:07:43Z</time>
      </trkpt>
      <trkpt lat="44.40478" lon="3.58143">
        <ele>1102</ele>
        <time>2022-05-27T10:07:44Z</time>
      </trkpt>
      <trkpt lat="44.40477" lon="3.58142">
        <ele>1102</ele>
        <time>2022-05-27T10:07:45Z</time>
      </trkpt>
      <trkpt lat="44.40476" lon="3.58141">
        <ele>1101</ele>
        <time>2022-05-27T10:07:46Z</time>
      </trkpt>
      <trkpt lat="44.40475" lon="3.5814">
        <ele>1101</ele>
        <time>2022-05-27T10:07:47Z</time>
      </trkpt>
      <trkpt lat="44.40474" lon="3.58139">
        <ele>1101</ele>
        <time>2022-05-27T10:07:48Z</time>
      </trkpt>
      <trkpt lat="44.40473" lon="3.58138">
        <ele>1100</ele>
        <time>2022-05-27T10:07:49Z</time>
      </trkpt>
      <trkpt lat="44.40472" lon="3.58137">
        <ele>1100</ele>
        <time>2022-05-27T10:07:50Z</time>
      </trkpt>
      <trkpt lat="44.40471" lon="3.58137">
        <ele>1100</ele>
        <time>2022-05-27T10:07:51Z</time>
      </trkpt>
      <trkpt lat="44.4047" lon="3.58136">
        <ele>1099</ele>
        <time>2022-05-27T10:07:52Z</time>
      </trkpt>
      <trkpt lat="44.40469" lon="3.58135">
        <ele>1098</ele>
        <time>2022-05-27T10:07:53Z</time>
      </trkpt>
      <trkpt lat="44.40467" lon="3.58134">
        <ele>1098</ele>
        <time>2022-05-27T10:07:54Z</time>
      </trkpt>
      <trkpt lat="44.40466" lon="3.58133">
        <ele>1097</ele>
        <time>2022-05-27T10:07:55Z</time>
      </trkpt>
      <trkpt lat="44.40465" lon="3.58133">
        <ele>1096</ele>
        <time>2022-05-27T10:07:56Z</time>
      </trkpt>
      <trkpt lat="44.40464" lon="3.58131">
        <ele>1096</ele>
        <time>2022-05-27T10:07:57Z</time>
      </trkpt>
      <trkpt lat="44.40463" lon="3.5813">
        <ele>1095</ele>
        <time>2022-05-27T10:07:58Z</time>
      </trkpt>
      <trkpt lat="44.40461" lon="3.5813">
        <ele>1095</ele>
        <time>2022-05-27T10:07:59Z</time>
      </trkpt>
      <trkpt lat="44.4046" lon="3.58129">
        <ele>1095</ele>
        <time>2022-05-27T10:08:00Z</time>
      </trkpt>
      <trkpt lat="44.40459" lon="3.58128">
        <ele>1094</ele>
        <time>2022-05-27T10:08:01Z</time>
      </trkpt>
      <trkpt lat="44.40458" lon="3.58128">
        <ele>1093</ele>
        <time>2022-05-27T10:08:02Z</time>
      </trkpt>
      <trkpt lat="44.40457" lon="3.58128">
        <ele>1093</ele>
        <time>2022-05-27T10:08:03Z</time>
      </trkpt>
      <trkpt lat="44.40456" lon="3.58127">
        <ele>1092</ele>
        <time>2022-05-27T10:08:04Z</time>
      </trkpt>
      <trkpt lat="44.40455" lon="3.58127">
        <ele>1092</ele>
        <time>2022-05-27T10:08:05Z</time>
      </trkpt>
      <trkpt lat="44.40453" lon="3.58126">
        <ele>1091</ele>
        <time>2022-05-27T10:08:06Z</time>
      </trkpt>
      <trkpt lat="44.40453" lon="3.58125">
        <ele>1091</ele>
        <time>2022-05-27T10:08:07Z</time>
      </trkpt>
      <trkpt lat="44.40451" lon="3.58125">
        <ele>1091</ele>
        <time>2022-05-27T10:08:08Z</time>
      </trkpt>
      <trkpt lat="44.4045" lon="3.58125">
        <ele>1091</ele>
        <time>2022-05-27T10:08:09Z</time>
      </trkpt>
      <trkpt lat="44.40449" lon="3.58125">
        <ele>1090</ele>
        <time>2022-05-27T10:08:10Z</time>
      </trkpt>
      <trkpt lat="44.40448" lon="3.58124">
        <ele>1091</ele>
        <time>2022-05-27T10:08:11Z</time>
      </trkpt>
      <trkpt lat="44.40447" lon="3.58124">
        <ele>1090</ele>
        <time>2022-05-27T10:08:12Z</time>
      </trkpt>
      <trkpt lat="44.40446" lon="3.58124">
        <ele>1090</ele>
        <time>2022-05-27T10:08:13Z</time>
      </trkpt>
      <trkpt lat="44.40445" lon="3.58123">
        <ele>1091</ele>
        <time>2022-05-27T10:08:14Z</time>
      </trkpt>
      <trkpt lat="44.40444" lon="3.58123">
        <ele>1090</ele>
        <time>2022-05-27T10:08:15Z</time>
      </trkpt>
      <trkpt lat="44.40443" lon="3.58123">
        <ele>1090</ele>
        <time>2022-05-27T10:08:16Z</time>
      </trkpt>
      <trkpt lat="44.40442" lon="3.58122">
        <ele>1090</ele>
        <time>2022-05-27T10:08:17Z</time>
      </trkpt>
      <trkpt lat="44.40441" lon="3.58122">
        <ele>1090</ele>
        <time>2022-05-27T10:08:18Z</time>
      </trkpt>
      <trkpt lat="44.4044" lon="3.58121">
        <ele>1090</ele>
        <time>2022-05-27T10:08:19Z</time>
      </trkpt>
      <trkpt lat="44.40439" lon="3.5812">
        <ele>1090</ele>
        <time>2022-05-27T10:08:20Z</time>
      </trkpt>
      <trkpt lat="44.40438" lon="3.5812">
        <ele>1090</ele>
        <time>2022-05-27T10:08:21Z</time>
      </trkpt>
      <trkpt lat="44.40437" lon="3.5812">
        <ele>1090</ele>
        <time>2022-05-27T10:08:22Z</time>
      </trkpt>
      <trkpt lat="44.40436" lon="3.5812">
        <ele>1090</ele>
        <time>2022-05-27T10:08:23Z</time>
      </trkpt>
      <trkpt lat="44.40435" lon="3.58119">
        <ele>1090</ele>
        <time>2022-05-27T10:08:24Z</time>
      </trkpt>
      <trkpt lat="44.40434" lon="3.58119">
        <ele>1090</ele>
        <time>2022-05-27T10:08:25Z</time>
      </trkpt>
      <trkpt lat="44.40433" lon="3.58119">
        <ele>1090</ele>
        <time>2022-05-27T10:08:26Z</time>
      </trkpt>
      <trkpt lat="44.40432" lon="3.58119">
        <ele>1090</ele>
        <time>2022-05-27T10:08:27Z</time>
      </trkpt>
      <trkpt lat="44.40431" lon="3.58119">
        <ele>1090</ele>
        <time>2022-05-27T10:08:28Z</time>
      </trkpt>
      <trkpt lat="44.40429" lon="3.58118">
        <ele>1089</ele>
        <time>2022-05-27T10:08:29Z</time>
      </trkpt>
      <trkpt lat="44.40428" lon="3.58118">
        <ele>1090</ele>
        <time>2022-05-27T10:08:30Z</time>
      </trkpt>
      <trkpt lat="44.40427" lon="3.58118">
        <ele>1089</ele>
        <time>2022-05-27T10:08:31Z</time>
      </trkpt>
      <trkpt lat="44.40426" lon="3.58118">
        <ele>1090</ele>
        <time>2022-05-27T10:08:32Z</time>
      </trkpt>
      <trkpt lat="44.40425" lon="3.58117">
        <ele>1089</ele>
        <time>2022-05-27T10:08:33Z</time>
      </trkpt>
      <trkpt lat="44.40424" lon="3.58117">
        <ele>1089</ele>
        <time>2022-05-27T10:08:34Z</time>
      </trkpt>
      <trkpt lat="44.40423" lon="3.58117">
        <ele>1089</ele>
        <time>2022-05-27T10:08:35Z</time>
      </trkpt>
      <trkpt lat="44.40422" lon="3.58117">
        <ele>1088</ele>
        <time>2022-05-27T10:08:36Z</time>
      </trkpt>
      <trkpt lat="44.40421" lon="3.58117">
        <ele>1087</ele>
        <time>2022-05-27T10:08:37Z</time>
      </trkpt>
      <trkpt lat="44.4042" lon="3.58117">
        <ele>1087</ele>
        <time>2022-05-27T10:08:38Z</time>
      </trkpt>
      <trkpt lat="44.40419" lon="3.58116">
        <ele>1088</ele>
        <time>2022-05-27T10:08:39Z</time>
      </trkpt>
      <trkpt lat="44.40419" lon="3.58116">
        <ele>1088</ele>
        <time>2022-05-27T10:08:40Z</time>
      </trkpt>
      <trkpt lat="44.40418" lon="3.58117">
        <ele>1088</ele>
        <time>2022-05-27T10:08:41Z</time>
      </trkpt>
      <trkpt lat="44.40417" lon="3.58117">
        <ele>1088</ele>
        <time>2022-05-27T10:08:42Z</time>
      </trkpt>
      <trkpt lat="44.40416" lon="3.58116">
        <ele>1088</ele>
        <time>2022-05-27T10:08:43Z</time>
      </trkpt>
      <trkpt lat="44.40415" lon="3.58116">
        <ele>1088</ele>
        <time>2022-05-27T10:08:44Z</time>
      </trkpt>
      <trkpt lat="44.40414" lon="3.58116">
        <ele>1087</ele>
        <time>2022-05-27T10:08:45Z</time>
      </trkpt>
      <trkpt lat="44.40413" lon="3.58116">
        <ele>1087</ele>
        <time>2022-05-27T10:08:46Z</time>
      </trkpt>
      <trkpt lat="44.40412" lon="3.58116">
        <ele>1086</ele>
        <time>2022-05-27T10:08:47Z</time>
      </trkpt>
      <trkpt lat="44.40411" lon="3.58116">
        <ele>1086</ele>
        <time>2022-05-27T10:08:48Z</time>
      </trkpt>
      <trkpt lat="44.40411" lon="3.58116">
        <ele>1086</ele>
        <time>2022-05-27T10:08:49Z</time>
      </trkpt>
      <trkpt lat="44.4041" lon="3.58116">
        <ele>1086</ele>
        <time>2022-05-27T10:08:50Z</time>
      </trkpt>
      <trkpt lat="44.40409" lon="3.58115">
        <ele>1086</ele>
        <time>2022-05-27T10:08:51Z</time>
      </trkpt>
      <trkpt lat="44.40408" lon="3.58115">
        <ele>1086</ele>
        <time>2022-05-27T10:08:52Z</time>
      </trkpt>
      <trkpt lat="44.40407" lon="3.58114">
        <ele>1086</ele>
        <time>2022-05-27T10:08:53Z</time>
      </trkpt>
      <trkpt lat="44.40406" lon="3.58114">
        <ele>1086</ele>
        <time>2022-05-27T10:08:54Z</time>
      </trkpt>
      <trkpt lat="44.40406" lon="3.58114">
        <ele>1086</ele>
        <time>2022-05-27T10:08:55Z</time>
      </trkpt>
      <trkpt lat="44.40405" lon="3.58113">
        <ele>1086</ele>
        <time>2022-05-27T10:08:56Z</time>
      </trkpt>
      <trkpt lat="44.40403" lon="3.58114">
        <ele>1086</ele>
        <time>2022-05-27T10:08:57Z</time>
      </trkpt>
      <trkpt lat="44.40402" lon="3.58114">
        <ele>1085</ele>
        <time>2022-05-27T10:08:58Z</time>
      </trkpt>
      <trkpt lat="44.40401" lon="3.58114">
        <ele>1084</ele>
        <time>2022-05-27T10:08:59Z</time>
      </trkpt>
      <trkpt lat="44.404" lon="3.58115">
        <ele>1083</ele>
        <time>2022-05-27T10:09:00Z</time>
      </trkpt>
      <trkpt lat="44.40398" lon="3.58115">
        <ele>1083</ele>
        <time>2022-05-27T10:09:01Z</time>
      </trkpt>
      <trkpt lat="44.40397" lon="3.58115">
        <ele>1083</ele>
        <time>2022-05-27T10:09:02Z</time>
      </trkpt>
      <trkpt lat="44.40396" lon="3.58115">
        <ele>1083</ele>
        <time>2022-05-27T10:09:03Z</time>
      </trkpt>
      <trkpt lat="44.40394" lon="3.58114">
        <ele>1082</ele>
        <time>2022-05-27T10:09:04Z</time>
      </trkpt>
      <trkpt lat="44.40393" lon="3.58115">
        <ele>1082</ele>
        <time>2022-05-27T10:09:05Z</time>
      </trkpt>
      <trkpt lat="44.40392" lon="3.58115">
        <ele>1083</ele>
        <time>2022-05-27T10:09:06Z</time>
      </trkpt>
      <trkpt lat="44.40391" lon="3.58115">
        <ele>1082</ele>
        <time>2022-05-27T10:09:07Z</time>
      </trkpt>
      <trkpt lat="44.40389" lon="3.58115">
        <ele>1082</ele>
        <time>2022-05-27T10:09:08Z</time>
      </trkpt>
      <trkpt lat="44.40388" lon="3.58115">
        <ele>1081</ele>
        <time>2022-05-27T10:09:09Z</time>
      </trkpt>
      <trkpt lat="44.40387" lon="3.58115">
        <ele>1081</ele>
        <time>2022-05-27T10:09:10Z</time>
      </trkpt>
      <trkpt lat="44.40386" lon="3.58114">
        <ele>1081</ele>
        <time>2022-05-27T10:09:11Z</time>
      </trkpt>
      <trkpt lat="44.40385" lon="3.58114">
        <ele>1081</ele>
        <time>2022-05-27T10:09:12Z</time>
      </trkpt>
      <trkpt lat="44.40384" lon="3.58115">
        <ele>1080</ele>
        <time>2022-05-27T10:09:13Z</time>
      </trkpt>
      <trkpt lat="44.40382" lon="3.58114">
        <ele>1080</ele>
        <time>2022-05-27T10:09:14Z</time>
      </trkpt>
      <trkpt lat="44.40381" lon="3.58114">
        <ele>1080</ele>
        <time>2022-05-27T10:09:15Z</time>
      </trkpt>
      <trkpt lat="44.4038" lon="3.58114">
        <ele>1080</ele>
        <time>2022-05-27T10:09:16Z</time>
      </trkpt>
      <trkpt lat="44.40379" lon="3.58114">
        <ele>1079</ele>
        <time>2022-05-27T10:09:17Z</time>
      </trkpt>
      <trkpt lat="44.40377" lon="3.58113">
        <ele>1080</ele>
        <time>2022-05-27T10:09:18Z</time>
      </trkpt>
      <trkpt lat="44.40377" lon="3.58113">
        <ele>1080</ele>
        <time>2022-05-27T10:09:19Z</time>
      </trkpt>
      <trkpt lat="44.40375" lon="3.58113">
        <ele>1079</ele>
        <time>2022-05-27T10:09:20Z</time>
      </trkpt>
      <trkpt lat="44.40374" lon="3.58112">
        <ele>1079</ele>
        <time>2022-05-27T10:09:21Z</time>
      </trkpt>
      <trkpt lat="44.40373" lon="3.58112">
        <ele>1080</ele>
        <time>2022-05-27T10:09:22Z</time>
      </trkpt>
      <trkpt lat="44.40372" lon="3.58112">
        <ele>1080</ele>
        <time>2022-05-27T10:09:23Z</time>
      </trkpt>
      <trkpt lat="44.40371" lon="3.58112">
        <ele>1080</ele>
        <time>2022-05-27T10:09:24Z</time>
      </trkpt>
      <trkpt lat="44.4037" lon="3.58112">
        <ele>1080</ele>
        <time>2022-05-27T10:09:25Z</time>
      </trkpt>
      <trkpt lat="44.40369" lon="3.58112">
        <ele>1080</ele>
        <time>2022-05-27T10:09:26Z</time>
      </trkpt>
      <trkpt lat="44.40368" lon="3.58112">
        <ele>1080</ele>
        <time>2022-05-27T10:09:27Z</time>
      </trkpt>
      <trkpt lat="44.40367" lon="3.58111">
        <ele>1081</ele>
        <time>2022-05-27T10:09:28Z</time>
      </trkpt>
      <trkpt lat="44.40365" lon="3.5811">
        <ele>1081</ele>
        <time>2022-05-27T10:09:29Z</time>
      </trkpt>
      <trkpt lat="44.40364" lon="3.58109">
        <ele>1080</ele>
        <time>2022-05-27T10:09:30Z</time>
      </trkpt>
      <trkpt lat="44.40363" lon="3.58109">
        <ele>1080</ele>
        <time>2022-05-27T10:09:31Z</time>
      </trkpt>
      <trkpt lat="44.40362" lon="3.58109">
        <ele>1081</ele>
        <time>2022-05-27T10:09:32Z</time>
      </trkpt>
      <trkpt lat="44.40361" lon="3.58108">
        <ele>1081</ele>
        <time>2022-05-27T10:09:33Z</time>
      </trkpt>
      <trkpt lat="44.40361" lon="3.58108">
        <ele>1081</ele>
        <time>2022-05-27T10:09:34Z</time>
      </trkpt>
      <trkpt lat="44.4036" lon="3.58106">
        <ele>1081</ele>
        <time>2022-05-27T10:09:35Z</time>
      </trkpt>
      <trkpt lat="44.40359" lon="3.58105">
        <ele>1080</ele>
        <time>2022-05-27T10:09:36Z</time>
      </trkpt>
      <trkpt lat="44.40358" lon="3.58105">
        <ele>1080</ele>
        <time>2022-05-27T10:09:37Z</time>
      </trkpt>
      <trkpt lat="44.40358" lon="3.58105">
        <ele>1079</ele>
        <time>2022-05-27T10:09:38Z</time>
      </trkpt>
      <trkpt lat="44.40357" lon="3.58104">
        <ele>1080</ele>
        <time>2022-05-27T10:09:39Z</time>
      </trkpt>
      <trkpt lat="44.40356" lon="3.58103">
        <ele>1080</ele>
        <time>2022-05-27T10:09:40Z</time>
      </trkpt>
      <trkpt lat="44.40355" lon="3.58103">
        <ele>1079</ele>
        <time>2022-05-27T10:09:41Z</time>
      </trkpt>
      <trkpt lat="44.40354" lon="3.58102">
        <ele>1079</ele>
        <time>2022-05-27T10:09:42Z</time>
      </trkpt>
      <trkpt lat="44.40353" lon="3.58101">
        <ele>1079</ele>
        <time>2022-05-27T10:09:43Z</time>
      </trkpt>
      <trkpt lat="44.40352" lon="3.58101">
        <ele>1079</ele>
        <time>2022-05-27T10:09:44Z</time>
      </trkpt>
      <trkpt lat="44.40351" lon="3.581">
        <ele>1078</ele>
        <time>2022-05-27T10:09:45Z</time>
      </trkpt>
      <trkpt lat="44.4035" lon="3.58099">
        <ele>1078</ele>
        <time>2022-05-27T10:09:46Z</time>
      </trkpt>
      <trkpt lat="44.40348" lon="3.58098">
        <ele>1078</ele>
        <time>2022-05-27T10:09:47Z</time>
      </trkpt>
      <trkpt lat="44.40347" lon="3.58098">
        <ele>1077</ele>
        <time>2022-05-27T10:09:48Z</time>
      </trkpt>
      <trkpt lat="44.40346" lon="3.58097">
        <ele>1077</ele>
        <time>2022-05-27T10:09:49Z</time>
      </trkpt>
      <trkpt lat="44.40345" lon="3.58097">
        <ele>1077</ele>
        <time>2022-05-27T10:09:50Z</time>
      </trkpt>
      <trkpt lat="44.40344" lon="3.58096">
        <ele>1077</ele>
        <time>2022-05-27T10:09:51Z</time>
      </trkpt>
      <trkpt lat="44.40343" lon="3.58095">
        <ele>1077</ele>
        <time>2022-05-27T10:09:52Z</time>
      </trkpt>
      <trkpt lat="44.40342" lon="3.58094">
        <ele>1077</ele>
        <time>2022-05-27T10:09:53Z</time>
      </trkpt>
      <trkpt lat="44.40342" lon="3.58093">
        <ele>1077</ele>
        <time>2022-05-27T10:09:54Z</time>
      </trkpt>
      <trkpt lat="44.4034" lon="3.58092">
        <ele>1076</ele>
        <time>2022-05-27T10:09:55Z</time>
      </trkpt>
      <trkpt lat="44.4034" lon="3.58091">
        <ele>1076</ele>
        <time>2022-05-27T10:09:56Z</time>
      </trkpt>
      <trkpt lat="44.40339" lon="3.5809">
        <ele>1076</ele>
        <time>2022-05-27T10:09:57Z</time>
      </trkpt>
      <trkpt lat="44.40337" lon="3.5809">
        <ele>1077</ele>
        <time>2022-05-27T10:09:58Z</time>
      </trkpt>
      <trkpt lat="44.40336" lon="3.58089">
        <ele>1076</ele>
        <time>2022-05-27T10:09:59Z</time>
      </trkpt>
      <trkpt lat="44.40334" lon="3.58089">
        <ele>1076</ele>
        <time>2022-05-27T10:10:00Z</time>
      </trkpt>
      <trkpt lat="44.40333" lon="3.58088">
        <ele>1075</ele>
        <time>2022-05-27T10:10:01Z</time>
      </trkpt>
      <trkpt lat="44.40332" lon="3.58087">
        <ele>1076</ele>
        <time>2022-05-27T10:10:02Z</time>
      </trkpt>
      <trkpt lat="44.40332" lon="3.58086">
        <ele>1075</ele>
        <time>2022-05-27T10:10:03Z</time>
      </trkpt>
      <trkpt lat="44.40331" lon="3.58084">
        <ele>1075</ele>
        <time>2022-05-27T10:10:04Z</time>
      </trkpt>
      <trkpt lat="44.40331" lon="3.58084">
        <ele>1075</ele>
        <time>2022-05-27T10:10:05Z</time>
      </trkpt>
      <trkpt lat="44.40329" lon="3.58083">
        <ele>1074</ele>
        <time>2022-05-27T10:10:06Z</time>
      </trkpt>
      <trkpt lat="44.40328" lon="3.58082">
        <ele>1074</ele>
        <time>2022-05-27T10:10:07Z</time>
      </trkpt>
      <trkpt lat="44.40328" lon="3.58082">
        <ele>1074</ele>
        <time>2022-05-27T10:10:08Z</time>
      </trkpt>
      <trkpt lat="44.40326" lon="3.58081">
        <ele>1074</ele>
        <time>2022-05-27T10:10:09Z</time>
      </trkpt>
      <trkpt lat="44.40326" lon="3.5808">
        <ele>1074</ele>
        <time>2022-05-27T10:10:10Z</time>
      </trkpt>
      <trkpt lat="44.40324" lon="3.58079">
        <ele>1074</ele>
        <time>2022-05-27T10:10:11Z</time>
      </trkpt>
      <trkpt lat="44.40323" lon="3.58078">
        <ele>1074</ele>
        <time>2022-05-27T10:10:12Z</time>
      </trkpt>
      <trkpt lat="44.40323" lon="3.58078">
        <ele>1074</ele>
        <time>2022-05-27T10:10:13Z</time>
      </trkpt>
      <trkpt lat="44.40322" lon="3.58078">
        <ele>1074</ele>
        <time>2022-05-27T10:10:14Z</time>
      </trkpt>
      <trkpt lat="44.40321" lon="3.58077">
        <ele>1073</ele>
        <time>2022-05-27T10:10:15Z</time>
      </trkpt>
      <trkpt lat="44.4032" lon="3.58077">
        <ele>1073</ele>
        <time>2022-05-27T10:10:16Z</time>
      </trkpt>
      <trkpt lat="44.40319" lon="3.58076">
        <ele>1073</ele>
        <time>2022-05-27T10:10:17Z</time>
      </trkpt>
      <trkpt lat="44.40319" lon="3.58076">
        <ele>1073</ele>
        <time>2022-05-27T10:10:18Z</time>
      </trkpt>
      <trkpt lat="44.40318" lon="3.58076">
        <ele>1073</ele>
        <time>2022-05-27T10:10:19Z</time>
      </trkpt>
      <trkpt lat="44.40317" lon="3.58076">
        <ele>1073</ele>
        <time>2022-05-27T10:10:20Z</time>
      </trkpt>
      <trkpt lat="44.40316" lon="3.58076">
        <ele>1073</ele>
        <time>2022-05-27T10:10:21Z</time>
      </trkpt>
      <trkpt lat="44.40315" lon="3.58076">
        <ele>1072</ele>
        <time>2022-05-27T10:10:22Z</time>
      </trkpt>
      <trkpt lat="44.40314" lon="3.58076">
        <ele>1071</ele>
        <time>2022-05-27T10:10:23Z</time>
      </trkpt>
      <trkpt lat="44.40313" lon="3.58075">
        <ele>1071</ele>
        <time>2022-05-27T10:10:24Z</time>
      </trkpt>
      <trkpt lat="44.40312" lon="3.58075">
        <ele>1071</ele>
        <time>2022-05-27T10:10:25Z</time>
      </trkpt>
      <trkpt lat="44.40311" lon="3.58075">
        <ele>1071</ele>
        <time>2022-05-27T10:10:26Z</time>
      </trkpt>
      <trkpt lat="44.4031" lon="3.58074">
        <ele>1070</ele>
        <time>2022-05-27T10:10:27Z</time>
      </trkpt>
      <trkpt lat="44.4031" lon="3.58074">
        <ele>1070</ele>
        <time>2022-05-27T10:10:28Z</time>
      </trkpt>
      <trkpt lat="44.40309" lon="3.58074">
        <ele>1069</ele>
        <time>2022-05-27T10:10:29Z</time>
      </trkpt>
      <trkpt lat="44.40307" lon="3.58073">
        <ele>1068</ele>
        <time>2022-05-27T10:10:30Z</time>
      </trkpt>
      <trkpt lat="44.40306" lon="3.58072">
        <ele>1068</ele>
        <time>2022-05-27T10:10:31Z</time>
      </trkpt>
      <trkpt lat="44.40305" lon="3.58072">
        <ele>1068</ele>
        <time>2022-05-27T10:10:32Z</time>
      </trkpt>
      <trkpt lat="44.40304" lon="3.58071">
        <ele>1067</ele>
        <time>2022-05-27T10:10:33Z</time>
      </trkpt>
      <trkpt lat="44.40303" lon="3.58071">
        <ele>1067</ele>
        <time>2022-05-27T10:10:34Z</time>
      </trkpt>
      <trkpt lat="44.40302" lon="3.5807">
        <ele>1068</ele>
        <time>2022-05-27T10:10:35Z</time>
      </trkpt>
      <trkpt lat="44.40301" lon="3.5807">
        <ele>1068</ele>
        <time>2022-05-27T10:10:36Z</time>
      </trkpt>
      <trkpt lat="44.403" lon="3.5807">
        <ele>1068</ele>
        <time>2022-05-27T10:10:37Z</time>
      </trkpt>
      <trkpt lat="44.40299" lon="3.5807">
        <ele>1068</ele>
        <time>2022-05-27T10:10:38Z</time>
      </trkpt>
      <trkpt lat="44.40298" lon="3.5807">
        <ele>1069</ele>
        <time>2022-05-27T10:10:39Z</time>
      </trkpt>
      <trkpt lat="44.40298" lon="3.5807">
        <ele>1069</ele>
        <time>2022-05-27T10:10:40Z</time>
      </trkpt>
      <trkpt lat="44.40297" lon="3.5807">
        <ele>1068</ele>
        <time>2022-05-27T10:10:41Z</time>
      </trkpt>
      <trkpt lat="44.40295" lon="3.5807">
        <ele>1068</ele>
        <time>2022-05-27T10:10:42Z</time>
      </trkpt>
      <trkpt lat="44.40294" lon="3.58069">
        <ele>1068</ele>
        <time>2022-05-27T10:10:43Z</time>
      </trkpt>
      <trkpt lat="44.40293" lon="3.58068">
        <ele>1068</ele>
        <time>2022-05-27T10:10:44Z</time>
      </trkpt>
      <trkpt lat="44.40292" lon="3.58068">
        <ele>1068</ele>
        <time>2022-05-27T10:10:45Z</time>
      </trkpt>
      <trkpt lat="44.40291" lon="3.58067">
        <ele>1068</ele>
        <time>2022-05-27T10:10:46Z</time>
      </trkpt>
      <trkpt lat="44.40291" lon="3.58066">
        <ele>1068</ele>
        <time>2022-05-27T10:10:47Z</time>
      </trkpt>
      <trkpt lat="44.40289" lon="3.58066">
        <ele>1068</ele>
        <time>2022-05-27T10:10:48Z</time>
      </trkpt>
      <trkpt lat="44.40289" lon="3.58065">
        <ele>1068</ele>
        <time>2022-05-27T10:10:49Z</time>
      </trkpt>
      <trkpt lat="44.40287" lon="3.58065">
        <ele>1068</ele>
        <time>2022-05-27T10:10:50Z</time>
      </trkpt>
      <trkpt lat="44.40286" lon="3.58065">
        <ele>1068</ele>
        <time>2022-05-27T10:10:51Z</time>
      </trkpt>
      <trkpt lat="44.40286" lon="3.58065">
        <ele>1068</ele>
        <time>2022-05-27T10:10:52Z</time>
      </trkpt>
      <trkpt lat="44.40285" lon="3.58064">
        <ele>1068</ele>
        <time>2022-05-27T10:10:53Z</time>
      </trkpt>
      <trkpt lat="44.40284" lon="3.58065">
        <ele>1067</ele>
        <time>2022-05-27T10:10:54Z</time>
      </trkpt>
      <trkpt lat="44.40283" lon="3.58065">
        <ele>1067</ele>
        <time>2022-05-27T10:10:55Z</time>
      </trkpt>
      <trkpt lat="44.40282" lon="3.58064">
        <ele>1066</ele>
        <time>2022-05-27T10:10:56Z</time>
      </trkpt>
      <trkpt lat="44.40281" lon="3.58064">
        <ele>1066</ele>
        <time>2022-05-27T10:10:57Z</time>
      </trkpt>
      <trkpt lat="44.4028" lon="3.58064">
        <ele>1066</ele>
        <time>2022-05-27T10:10:58Z</time>
      </trkpt>
      <trkpt lat="44.40279" lon="3.58065">
        <ele>1065</ele>
        <time>2022-05-27T10:10:59Z</time>
      </trkpt>
      <trkpt lat="44.40278" lon="3.58065">
        <ele>1065</ele>
        <time>2022-05-27T10:11:00Z</time>
      </trkpt>
      <trkpt lat="44.40278" lon="3.58066">
        <ele>1065</ele>
        <time>2022-05-27T10:11:01Z</time>
      </trkpt>
      <trkpt lat="44.40276" lon="3.58066">
        <ele>1064</ele>
        <time>2022-05-27T10:11:02Z</time>
      </trkpt>
      <trkpt lat="44.40275" lon="3.58066">
        <ele>1064</ele>
        <time>2022-05-27T10:11:03Z</time>
      </trkpt>
      <trkpt lat="44.40274" lon="3.58065">
        <ele>1064</ele>
        <time>2022-05-27T10:11:04Z</time>
      </trkpt>
      <trkpt lat="44.40274" lon="3.58065">
        <ele>1063</ele>
        <time>2022-05-27T10:11:05Z</time>
      </trkpt>
      <trkpt lat="44.40273" lon="3.58066">
        <ele>1063</ele>
        <time>2022-05-27T10:11:06Z</time>
      </trkpt>
      <trkpt lat="44.40272" lon="3.58067">
        <ele>1062</ele>
        <time>2022-05-27T10:11:07Z</time>
      </trkpt>
      <trkpt lat="44.40271" lon="3.58067">
        <ele>1062</ele>
        <time>2022-05-27T10:11:08Z</time>
      </trkpt>
      <trkpt lat="44.4027" lon="3.58068">
        <ele>1063</ele>
        <time>2022-05-27T10:11:09Z</time>
      </trkpt>
      <trkpt lat="44.4027" lon="3.58069">
        <ele>1063</ele>
        <time>2022-05-27T10:11:10Z</time>
      </trkpt>
      <trkpt lat="44.40269" lon="3.58069">
        <ele>1062</ele>
        <time>2022-05-27T10:11:11Z</time>
      </trkpt>
      <trkpt lat="44.40268" lon="3.5807">
        <ele>1062</ele>
        <time>2022-05-27T10:11:12Z</time>
      </trkpt>
      <trkpt lat="44.40267" lon="3.5807">
        <ele>1061</ele>
        <time>2022-05-27T10:11:13Z</time>
      </trkpt>
      <trkpt lat="44.40266" lon="3.5807">
        <ele>1062</ele>
        <time>2022-05-27T10:11:14Z</time>
      </trkpt>
      <trkpt lat="44.40265" lon="3.58071">
        <ele>1062</ele>
        <time>2022-05-27T10:11:15Z</time>
      </trkpt>
      <trkpt lat="44.40265" lon="3.5807">
        <ele>1061</ele>
        <time>2022-05-27T10:11:16Z</time>
      </trkpt>
      <trkpt lat="44.40265" lon="3.5807">
        <ele>1061</ele>
        <time>2022-05-27T10:11:17Z</time>
      </trkpt>
      <trkpt lat="44.40265" lon="3.5807">
        <ele>1060</ele>
        <time>2022-05-27T10:11:18Z</time>
      </trkpt>
      <trkpt lat="44.40265" lon="3.5807">
        <ele>1060</ele>
        <time>2022-05-27T10:11:18Z</time>
      </trkpt>
      <trkpt lat="44.40265" lon="3.5807">
        <ele>1060</ele>
        <time>2022-05-27T10:11:18Z</time>
      </trkpt>
      <trkpt lat="44.4026" lon="3.58082">
        <ele>1058</ele>
        <time>2022-05-27T10:12:03Z</time>
      </trkpt>
      <trkpt lat="44.40261" lon="3.58083">
        <ele>1058</ele>
        <time>2022-05-27T10:12:04Z</time>
      </trkpt>
      <trkpt lat="44.40261" lon="3.58084">
        <ele>1057</ele>
        <time>2022-05-27T10:12:05Z</time>
      </trkpt>
      <trkpt lat="44.40262" lon="3.58084">
        <ele>1057</ele>
        <time>2022-05-27T10:12:06Z</time>
      </trkpt>
      <trkpt lat="44.40262" lon="3.58084">
        <ele>1057</ele>
        <time>2022-05-27T10:12:07Z</time>
      </trkpt>
      <trkpt lat="44.40262" lon="3.58084">
        <ele>1057</ele>
        <time>2022-05-27T10:12:08Z</time>
      </trkpt>
      <trkpt lat="44.40262" lon="3.58084">
        <ele>1057</ele>
        <time>2022-05-27T10:12:09Z</time>
      </trkpt>
      <trkpt lat="44.40263" lon="3.58086">
        <ele>1058</ele>
        <time>2022-05-27T10:12:10Z</time>
      </trkpt>
      <trkpt lat="44.40263" lon="3.58087">
        <ele>1059</ele>
        <time>2022-05-27T10:12:11Z</time>
      </trkpt>
      <trkpt lat="44.40264" lon="3.58087">
        <ele>1059</ele>
        <time>2022-05-27T10:12:12Z</time>
      </trkpt>
      <trkpt lat="44.40264" lon="3.58088">
        <ele>1060</ele>
        <time>2022-05-27T10:12:13Z</time>
      </trkpt>
      <trkpt lat="44.40264" lon="3.58088">
        <ele>1060</ele>
        <time>2022-05-27T10:12:14Z</time>
      </trkpt>
      <trkpt lat="44.40264" lon="3.58088">
        <ele>1060</ele>
        <time>2022-05-27T10:12:14Z</time>
      </trkpt>
      <trkpt lat="44.40264" lon="3.58088">
        <ele>1060</ele>
        <time>2022-05-27T10:12:14Z</time>
      </trkpt>
      <trkpt lat="44.40264" lon="3.58084">
        <ele>1061</ele>
        <time>2022-05-27T10:14:09Z</time>
      </trkpt>
      <trkpt lat="44.40263" lon="3.58082">
        <ele>1060</ele>
        <time>2022-05-27T10:14:10Z</time>
      </trkpt>
      <trkpt lat="44.40263" lon="3.58082">
        <ele>1061</ele>
        <time>2022-05-27T10:14:11Z</time>
      </trkpt>
      <trkpt lat="44.40263" lon="3.58081">
        <ele>1060</ele>
        <time>2022-05-27T10:14:12Z</time>
      </trkpt>
      <trkpt lat="44.40263" lon="3.58081">
        <ele>1061</ele>
        <time>2022-05-27T10:14:13Z</time>
      </trkpt>
      <trkpt lat="44.40262" lon="3.58081">
        <ele>1061</ele>
        <time>2022-05-27T10:14:14Z</time>
      </trkpt>
      <trkpt lat="44.40262" lon="3.5808">
        <ele>1062</ele>
        <time>2022-05-27T10:14:15Z</time>
      </trkpt>
      <trkpt lat="44.40262" lon="3.5808">
        <ele>1063</ele>
        <time>2022-05-27T10:14:16Z</time>
      </trkpt>
      <trkpt lat="44.40261" lon="3.58079">
        <ele>1062</ele>
        <time>2022-05-27T10:14:17Z</time>
      </trkpt>
      <trkpt lat="44.4026" lon="3.58078">
        <ele>1062</ele>
        <time>2022-05-27T10:14:18Z</time>
      </trkpt>
      <trkpt lat="44.40259" lon="3.58077">
        <ele>1063</ele>
        <time>2022-05-27T10:14:19Z</time>
      </trkpt>
      <trkpt lat="44.40259" lon="3.58076">
        <ele>1063</ele>
        <time>2022-05-27T10:14:20Z</time>
      </trkpt>
      <trkpt lat="44.40259" lon="3.58074">
        <ele>1064</ele>
        <time>2022-05-27T10:14:21Z</time>
      </trkpt>
      <trkpt lat="44.40258" lon="3.58072">
        <ele>1064</ele>
        <time>2022-05-27T10:14:22Z</time>
      </trkpt>
      <trkpt lat="44.40258" lon="3.58071">
        <ele>1065</ele>
        <time>2022-05-27T10:14:23Z</time>
      </trkpt>
      <trkpt lat="44.40257" lon="3.5807">
        <ele>1065</ele>
        <time>2022-05-27T10:14:24Z</time>
      </trkpt>
      <trkpt lat="44.40257" lon="3.58069">
        <ele>1066</ele>
        <time>2022-05-27T10:14:25Z</time>
      </trkpt>
      <trkpt lat="44.40257" lon="3.58068">
        <ele>1067</ele>
        <time>2022-05-27T10:14:26Z</time>
      </trkpt>
      <trkpt lat="44.40256" lon="3.58066">
        <ele>1067</ele>
        <time>2022-05-27T10:14:27Z</time>
      </trkpt>
      <trkpt lat="44.40256" lon="3.58065">
        <ele>1067</ele>
        <time>2022-05-27T10:14:28Z</time>
      </trkpt>
      <trkpt lat="44.40256" lon="3.58064">
        <ele>1067</ele>
        <time>2022-05-27T10:14:29Z</time>
      </trkpt>
      <trkpt lat="44.40255" lon="3.58063">
        <ele>1068</ele>
        <time>2022-05-27T10:14:30Z</time>
      </trkpt>
      <trkpt lat="44.40255" lon="3.58061">
        <ele>1068</ele>
        <time>2022-05-27T10:14:31Z</time>
      </trkpt>
      <trkpt lat="44.40255" lon="3.58059">
        <ele>1069</ele>
        <time>2022-05-27T10:14:32Z</time>
      </trkpt>
      <trkpt lat="44.40255" lon="3.58058">
        <ele>1068</ele>
        <time>2022-05-27T10:14:33Z</time>
      </trkpt>
      <trkpt lat="44.40256" lon="3.58056">
        <ele>1068</ele>
        <time>2022-05-27T10:14:34Z</time>
      </trkpt>
      <trkpt lat="44.40256" lon="3.58054">
        <ele>1068</ele>
        <time>2022-05-27T10:14:35Z</time>
      </trkpt>
      <trkpt lat="44.40256" lon="3.58053">
        <ele>1068</ele>
        <time>2022-05-27T10:14:36Z</time>
      </trkpt>
      <trkpt lat="44.40255" lon="3.58051">
        <ele>1068</ele>
        <time>2022-05-27T10:14:37Z</time>
      </trkpt>
      <trkpt lat="44.40255" lon="3.58049">
        <ele>1067</ele>
        <time>2022-05-27T10:14:38Z</time>
      </trkpt>
      <trkpt lat="44.40255" lon="3.58048">
        <ele>1067</ele>
        <time>2022-05-27T10:14:39Z</time>
      </trkpt>
      <trkpt lat="44.40255" lon="3.58046">
        <ele>1068</ele>
        <time>2022-05-27T10:14:40Z</time>
      </trkpt>
      <trkpt lat="44.40255" lon="3.58045">
        <ele>1067</ele>
        <time>2022-05-27T10:14:41Z</time>
      </trkpt>
      <trkpt lat="44.40255" lon="3.58044">
        <ele>1067</ele>
        <time>2022-05-27T10:14:42Z</time>
      </trkpt>
      <trkpt lat="44.40255" lon="3.58042">
        <ele>1066</ele>
        <time>2022-05-27T10:14:43Z</time>
      </trkpt>
      <trkpt lat="44.40254" lon="3.5804">
        <ele>1066</ele>
        <time>2022-05-27T10:14:44Z</time>
      </trkpt>
      <trkpt lat="44.40254" lon="3.58039">
        <ele>1066</ele>
        <time>2022-05-27T10:14:45Z</time>
      </trkpt>
      <trkpt lat="44.40254" lon="3.58037">
        <ele>1066</ele>
        <time>2022-05-27T10:14:46Z</time>
      </trkpt>
      <trkpt lat="44.40254" lon="3.58035">
        <ele>1065</ele>
        <time>2022-05-27T10:14:47Z</time>
      </trkpt>
      <trkpt lat="44.40253" lon="3.58033">
        <ele>1065</ele>
        <time>2022-05-27T10:14:48Z</time>
      </trkpt>
      <trkpt lat="44.40253" lon="3.58032">
        <ele>1065</ele>
        <time>2022-05-27T10:14:49Z</time>
      </trkpt>
      <trkpt lat="44.40253" lon="3.5803">
        <ele>1065</ele>
        <time>2022-05-27T10:14:50Z</time>
      </trkpt>
      <trkpt lat="44.40253" lon="3.58029">
        <ele>1065</ele>
        <time>2022-05-27T10:14:51Z</time>
      </trkpt>
      <trkpt lat="44.40253" lon="3.58027">
        <ele>1065</ele>
        <time>2022-05-27T10:14:52Z</time>
      </trkpt>
      <trkpt lat="44.40253" lon="3.58026">
        <ele>1065</ele>
        <time>2022-05-27T10:14:53Z</time>
      </trkpt>
      <trkpt lat="44.40253" lon="3.58024">
        <ele>1065</ele>
        <time>2022-05-27T10:14:54Z</time>
      </trkpt>
      <trkpt lat="44.40253" lon="3.58022">
        <ele>1065</ele>
        <time>2022-05-27T10:14:55Z</time>
      </trkpt>
      <trkpt lat="44.40253" lon="3.58022">
        <ele>1066</ele>
        <time>2022-05-27T10:14:56Z</time>
      </trkpt>
      <trkpt lat="44.40253" lon="3.5802">
        <ele>1066</ele>
        <time>2022-05-27T10:14:57Z</time>
      </trkpt>
      <trkpt lat="44.40253" lon="3.58019">
        <ele>1066</ele>
        <time>2022-05-27T10:14:58Z</time>
      </trkpt>
      <trkpt lat="44.40253" lon="3.58018">
        <ele>1066</ele>
        <time>2022-05-27T10:14:59Z</time>
      </trkpt>
      <trkpt lat="44.40253" lon="3.58016">
        <ele>1066</ele>
        <time>2022-05-27T10:15:00Z</time>
      </trkpt>
      <trkpt lat="44.40254" lon="3.58015">
        <ele>1066</ele>
        <time>2022-05-27T10:15:01Z</time>
      </trkpt>
      <trkpt lat="44.40254" lon="3.58013">
        <ele>1066</ele>
        <time>2022-05-27T10:15:02Z</time>
      </trkpt>
      <trkpt lat="44.40254" lon="3.58012">
        <ele>1066</ele>
        <time>2022-05-27T10:15:03Z</time>
      </trkpt>
      <trkpt lat="44.40254" lon="3.58011">
        <ele>1066</ele>
        <time>2022-05-27T10:15:04Z</time>
      </trkpt>
      <trkpt lat="44.40254" lon="3.58009">
        <ele>1065</ele>
        <time>2022-05-27T10:15:05Z</time>
      </trkpt>
      <trkpt lat="44.40255" lon="3.58007">
        <ele>1066</ele>
        <time>2022-05-27T10:15:06Z</time>
      </trkpt>
      <trkpt lat="44.40255" lon="3.58006">
        <ele>1065</ele>
        <time>2022-05-27T10:15:07Z</time>
      </trkpt>
      <trkpt lat="44.40255" lon="3.58004">
        <ele>1065</ele>
        <time>2022-05-27T10:15:08Z</time>
      </trkpt>
      <trkpt lat="44.40256" lon="3.58003">
        <ele>1065</ele>
        <time>2022-05-27T10:15:09Z</time>
      </trkpt>
      <trkpt lat="44.40257" lon="3.58001">
        <ele>1065</ele>
        <time>2022-05-27T10:15:10Z</time>
      </trkpt>
      <trkpt lat="44.40257" lon="3.57999">
        <ele>1065</ele>
        <time>2022-05-27T10:15:11Z</time>
      </trkpt>
      <trkpt lat="44.40257" lon="3.57997">
        <ele>1065</ele>
        <time>2022-05-27T10:15:12Z</time>
      </trkpt>
      <trkpt lat="44.40257" lon="3.57996">
        <ele>1065</ele>
        <time>2022-05-27T10:15:13Z</time>
      </trkpt>
      <trkpt lat="44.40257" lon="3.57994">
        <ele>1065</ele>
        <time>2022-05-27T10:15:14Z</time>
      </trkpt>
      <trkpt lat="44.40257" lon="3.57992">
        <ele>1065</ele>
        <time>2022-05-27T10:15:15Z</time>
      </trkpt>
      <trkpt lat="44.40257" lon="3.5799">
        <ele>1065</ele>
        <time>2022-05-27T10:15:16Z</time>
      </trkpt>
      <trkpt lat="44.40258" lon="3.57988">
        <ele>1065</ele>
        <time>2022-05-27T10:15:17Z</time>
      </trkpt>
      <trkpt lat="44.40258" lon="3.57987">
        <ele>1064</ele>
        <time>2022-05-27T10:15:18Z</time>
      </trkpt>
      <trkpt lat="44.40258" lon="3.57985">
        <ele>1064</ele>
        <time>2022-05-27T10:15:19Z</time>
      </trkpt>
      <trkpt lat="44.40259" lon="3.57984">
        <ele>1064</ele>
        <time>2022-05-27T10:15:20Z</time>
      </trkpt>
      <trkpt lat="44.40259" lon="3.57982">
        <ele>1064</ele>
        <time>2022-05-27T10:15:21Z</time>
      </trkpt>
      <trkpt lat="44.4026" lon="3.57981">
        <ele>1064</ele>
        <time>2022-05-27T10:15:22Z</time>
      </trkpt>
      <trkpt lat="44.4026" lon="3.57979">
        <ele>1064</ele>
        <time>2022-05-27T10:15:23Z</time>
      </trkpt>
      <trkpt lat="44.4026" lon="3.57977">
        <ele>1064</ele>
        <time>2022-05-27T10:15:24Z</time>
      </trkpt>
      <trkpt lat="44.4026" lon="3.57976">
        <ele>1064</ele>
        <time>2022-05-27T10:15:25Z</time>
      </trkpt>
      <trkpt lat="44.4026" lon="3.57975">
        <ele>1064</ele>
        <time>2022-05-27T10:15:26Z</time>
      </trkpt>
      <trkpt lat="44.4026" lon="3.57974">
        <ele>1063</ele>
        <time>2022-05-27T10:15:27Z</time>
      </trkpt>
      <trkpt lat="44.40261" lon="3.57972">
        <ele>1063</ele>
        <time>2022-05-27T10:15:28Z</time>
      </trkpt>
      <trkpt lat="44.40262" lon="3.5797">
        <ele>1063</ele>
        <time>2022-05-27T10:15:29Z</time>
      </trkpt>
      <trkpt lat="44.40262" lon="3.57969">
        <ele>1063</ele>
        <time>2022-05-27T10:15:30Z</time>
      </trkpt>
      <trkpt lat="44.40262" lon="3.57967">
        <ele>1063</ele>
        <time>2022-05-27T10:15:31Z</time>
      </trkpt>
      <trkpt lat="44.40263" lon="3.57965">
        <ele>1063</ele>
        <time>2022-05-27T10:15:32Z</time>
      </trkpt>
      <trkpt lat="44.40263" lon="3.57964">
        <ele>1062</ele>
        <time>2022-05-27T10:15:33Z</time>
      </trkpt>
      <trkpt lat="44.40264" lon="3.57962">
        <ele>1062</ele>
        <time>2022-05-27T10:15:34Z</time>
      </trkpt>
      <trkpt lat="44.40265" lon="3.57961">
        <ele>1062</ele>
        <time>2022-05-27T10:15:35Z</time>
      </trkpt>
      <trkpt lat="44.40265" lon="3.57959">
        <ele>1062</ele>
        <time>2022-05-27T10:15:36Z</time>
      </trkpt>
      <trkpt lat="44.40265" lon="3.57957">
        <ele>1063</ele>
        <time>2022-05-27T10:15:37Z</time>
      </trkpt>
      <trkpt lat="44.40266" lon="3.57956">
        <ele>1063</ele>
        <time>2022-05-27T10:15:38Z</time>
      </trkpt>
      <trkpt lat="44.40266" lon="3.57954">
        <ele>1063</ele>
        <time>2022-05-27T10:15:39Z</time>
      </trkpt>
      <trkpt lat="44.40267" lon="3.57953">
        <ele>1063</ele>
        <time>2022-05-27T10:15:40Z</time>
      </trkpt>
      <trkpt lat="44.40268" lon="3.57951">
        <ele>1063</ele>
        <time>2022-05-27T10:15:41Z</time>
      </trkpt>
      <trkpt lat="44.40268" lon="3.57949">
        <ele>1063</ele>
        <time>2022-05-27T10:15:42Z</time>
      </trkpt>
      <trkpt lat="44.40269" lon="3.57948">
        <ele>1063</ele>
        <time>2022-05-27T10:15:43Z</time>
      </trkpt>
      <trkpt lat="44.4027" lon="3.57947">
        <ele>1063</ele>
        <time>2022-05-27T10:15:44Z</time>
      </trkpt>
      <trkpt lat="44.40271" lon="3.57946">
        <ele>1063</ele>
        <time>2022-05-27T10:15:45Z</time>
      </trkpt>
      <trkpt lat="44.40271" lon="3.57944">
        <ele>1063</ele>
        <time>2022-05-27T10:15:46Z</time>
      </trkpt>
      <trkpt lat="44.40272" lon="3.57943">
        <ele>1063</ele>
        <time>2022-05-27T10:15:47Z</time>
      </trkpt>
      <trkpt lat="44.40273" lon="3.57941">
        <ele>1063</ele>
        <time>2022-05-27T10:15:48Z</time>
      </trkpt>
      <trkpt lat="44.40273" lon="3.57939">
        <ele>1063</ele>
        <time>2022-05-27T10:15:49Z</time>
      </trkpt>
      <trkpt lat="44.40274" lon="3.57938">
        <ele>1063</ele>
        <time>2022-05-27T10:15:50Z</time>
      </trkpt>
      <trkpt lat="44.40275" lon="3.57937">
        <ele>1063</ele>
        <time>2022-05-27T10:15:51Z</time>
      </trkpt>
      <trkpt lat="44.40275" lon="3.57936">
        <ele>1063</ele>
        <time>2022-05-27T10:15:52Z</time>
      </trkpt>
      <trkpt lat="44.40276" lon="3.57935">
        <ele>1064</ele>
        <time>2022-05-27T10:15:53Z</time>
      </trkpt>
      <trkpt lat="44.40276" lon="3.57933">
        <ele>1064</ele>
        <time>2022-05-27T10:15:54Z</time>
      </trkpt>
      <trkpt lat="44.40277" lon="3.57932">
        <ele>1065</ele>
        <time>2022-05-27T10:15:55Z</time>
      </trkpt>
      <trkpt lat="44.40278" lon="3.57931">
        <ele>1065</ele>
        <time>2022-05-27T10:15:56Z</time>
      </trkpt>
      <trkpt lat="44.40279" lon="3.57929">
        <ele>1065</ele>
        <time>2022-05-27T10:15:57Z</time>
      </trkpt>
      <trkpt lat="44.4028" lon="3.57928">
        <ele>1065</ele>
        <time>2022-05-27T10:15:58Z</time>
      </trkpt>
      <trkpt lat="44.40281" lon="3.57927">
        <ele>1065</ele>
        <time>2022-05-27T10:15:59Z</time>
      </trkpt>
      <trkpt lat="44.40282" lon="3.57926">
        <ele>1065</ele>
        <time>2022-05-27T10:16:00Z</time>
      </trkpt>
      <trkpt lat="44.40283" lon="3.57925">
        <ele>1066</ele>
        <time>2022-05-27T10:16:01Z</time>
      </trkpt>
      <trkpt lat="44.40284" lon="3.57924">
        <ele>1066</ele>
        <time>2022-05-27T10:16:02Z</time>
      </trkpt>
      <trkpt lat="44.40284" lon="3.57922">
        <ele>1066</ele>
        <time>2022-05-27T10:16:03Z</time>
      </trkpt>
      <trkpt lat="44.40285" lon="3.57921">
        <ele>1066</ele>
        <time>2022-05-27T10:16:04Z</time>
      </trkpt>
      <trkpt lat="44.40286" lon="3.5792">
        <ele>1067</ele>
        <time>2022-05-27T10:16:05Z</time>
      </trkpt>
      <trkpt lat="44.40286" lon="3.57919">
        <ele>1067</ele>
        <time>2022-05-27T10:16:06Z</time>
      </trkpt>
      <trkpt lat="44.40287" lon="3.57917">
        <ele>1067</ele>
        <time>2022-05-27T10:16:07Z</time>
      </trkpt>
      <trkpt lat="44.40288" lon="3.57916">
        <ele>1067</ele>
        <time>2022-05-27T10:16:08Z</time>
      </trkpt>
      <trkpt lat="44.40288" lon="3.57914">
        <ele>1067</ele>
        <time>2022-05-27T10:16:09Z</time>
      </trkpt>
      <trkpt lat="44.40289" lon="3.57913">
        <ele>1067</ele>
        <time>2022-05-27T10:16:10Z</time>
      </trkpt>
      <trkpt lat="44.4029" lon="3.57911">
        <ele>1067</ele>
        <time>2022-05-27T10:16:11Z</time>
      </trkpt>
      <trkpt lat="44.40291" lon="3.5791">
        <ele>1067</ele>
        <time>2022-05-27T10:16:12Z</time>
      </trkpt>
      <trkpt lat="44.40291" lon="3.57909">
        <ele>1066</ele>
        <time>2022-05-27T10:16:13Z</time>
      </trkpt>
      <trkpt lat="44.40292" lon="3.57907">
        <ele>1066</ele>
        <time>2022-05-27T10:16:14Z</time>
      </trkpt>
      <trkpt lat="44.40293" lon="3.57906">
        <ele>1067</ele>
        <time>2022-05-27T10:16:15Z</time>
      </trkpt>
      <trkpt lat="44.40293" lon="3.57904">
        <ele>1067</ele>
        <time>2022-05-27T10:16:16Z</time>
      </trkpt>
      <trkpt lat="44.40294" lon="3.57903">
        <ele>1067</ele>
        <time>2022-05-27T10:16:17Z</time>
      </trkpt>
      <trkpt lat="44.40295" lon="3.57902">
        <ele>1067</ele>
        <time>2022-05-27T10:16:18Z</time>
      </trkpt>
      <trkpt lat="44.40295" lon="3.579">
        <ele>1067</ele>
        <time>2022-05-27T10:16:19Z</time>
      </trkpt>
      <trkpt lat="44.40296" lon="3.57899">
        <ele>1067</ele>
        <time>2022-05-27T10:16:20Z</time>
      </trkpt>
      <trkpt lat="44.40297" lon="3.57898">
        <ele>1067</ele>
        <time>2022-05-27T10:16:21Z</time>
      </trkpt>
      <trkpt lat="44.40297" lon="3.57897">
        <ele>1067</ele>
        <time>2022-05-27T10:16:22Z</time>
      </trkpt>
      <trkpt lat="44.40298" lon="3.57896">
        <ele>1067</ele>
        <time>2022-05-27T10:16:23Z</time>
      </trkpt>
      <trkpt lat="44.40299" lon="3.57895">
        <ele>1068</ele>
        <time>2022-05-27T10:16:24Z</time>
      </trkpt>
      <trkpt lat="44.403" lon="3.57895">
        <ele>1067</ele>
        <time>2022-05-27T10:16:25Z</time>
      </trkpt>
      <trkpt lat="44.403" lon="3.57894">
        <ele>1067</ele>
        <time>2022-05-27T10:16:26Z</time>
      </trkpt>
      <trkpt lat="44.40301" lon="3.57893">
        <ele>1067</ele>
        <time>2022-05-27T10:16:27Z</time>
      </trkpt>
      <trkpt lat="44.40302" lon="3.57891">
        <ele>1067</ele>
        <time>2022-05-27T10:16:28Z</time>
      </trkpt>
      <trkpt lat="44.40302" lon="3.5789">
        <ele>1067</ele>
        <time>2022-05-27T10:16:29Z</time>
      </trkpt>
      <trkpt lat="44.40303" lon="3.57889">
        <ele>1068</ele>
        <time>2022-05-27T10:16:30Z</time>
      </trkpt>
      <trkpt lat="44.40304" lon="3.57888">
        <ele>1068</ele>
        <time>2022-05-27T10:16:31Z</time>
      </trkpt>
      <trkpt lat="44.40305" lon="3.57887">
        <ele>1068</ele>
        <time>2022-05-27T10:16:32Z</time>
      </trkpt>
      <trkpt lat="44.40306" lon="3.57886">
        <ele>1068</ele>
        <time>2022-05-27T10:16:33Z</time>
      </trkpt>
      <trkpt lat="44.40307" lon="3.57885">
        <ele>1068</ele>
        <time>2022-05-27T10:16:34Z</time>
      </trkpt>
      <trkpt lat="44.40307" lon="3.57884">
        <ele>1068</ele>
        <time>2022-05-27T10:16:35Z</time>
      </trkpt>
      <trkpt lat="44.40308" lon="3.57883">
        <ele>1067</ele>
        <time>2022-05-27T10:16:36Z</time>
      </trkpt>
      <trkpt lat="44.40309" lon="3.57882">
        <ele>1068</ele>
        <time>2022-05-27T10:16:37Z</time>
      </trkpt>
      <trkpt lat="44.4031" lon="3.57881">
        <ele>1068</ele>
        <time>2022-05-27T10:16:38Z</time>
      </trkpt>
      <trkpt lat="44.40311" lon="3.5788">
        <ele>1067</ele>
        <time>2022-05-27T10:16:39Z</time>
      </trkpt>
      <trkpt lat="44.40311" lon="3.57879">
        <ele>1067</ele>
        <time>2022-05-27T10:16:40Z</time>
      </trkpt>
      <trkpt lat="44.40312" lon="3.57878">
        <ele>1067</ele>
        <time>2022-05-27T10:16:41Z</time>
      </trkpt>
      <trkpt lat="44.40313" lon="3.57877">
        <ele>1067</ele>
        <time>2022-05-27T10:16:42Z</time>
      </trkpt>
      <trkpt lat="44.40314" lon="3.57877">
        <ele>1067</ele>
        <time>2022-05-27T10:16:43Z</time>
      </trkpt>
      <trkpt lat="44.40315" lon="3.57876">
        <ele>1066</ele>
        <time>2022-05-27T10:16:44Z</time>
      </trkpt>
      <trkpt lat="44.40316" lon="3.57875">
        <ele>1067</ele>
        <time>2022-05-27T10:16:45Z</time>
      </trkpt>
      <trkpt lat="44.40317" lon="3.57874">
        <ele>1067</ele>
        <time>2022-05-27T10:16:46Z</time>
      </trkpt>
      <trkpt lat="44.40318" lon="3.57873">
        <ele>1067</ele>
        <time>2022-05-27T10:16:47Z</time>
      </trkpt>
      <trkpt lat="44.40319" lon="3.57873">
        <ele>1067</ele>
        <time>2022-05-27T10:16:48Z</time>
      </trkpt>
      <trkpt lat="44.4032" lon="3.57872">
        <ele>1067</ele>
        <time>2022-05-27T10:16:49Z</time>
      </trkpt>
      <trkpt lat="44.40321" lon="3.57871">
        <ele>1067</ele>
        <time>2022-05-27T10:16:50Z</time>
      </trkpt>
      <trkpt lat="44.40322" lon="3.5787">
        <ele>1067</ele>
        <time>2022-05-27T10:16:51Z</time>
      </trkpt>
      <trkpt lat="44.40323" lon="3.57868">
        <ele>1067</ele>
        <time>2022-05-27T10:16:52Z</time>
      </trkpt>
      <trkpt lat="44.40324" lon="3.57867">
        <ele>1068</ele>
        <time>2022-05-27T10:16:53Z</time>
      </trkpt>
      <trkpt lat="44.40325" lon="3.57866">
        <ele>1068</ele>
        <time>2022-05-27T10:16:54Z</time>
      </trkpt>
      <trkpt lat="44.40326" lon="3.57865">
        <ele>1068</ele>
        <time>2022-05-27T10:16:55Z</time>
      </trkpt>
      <trkpt lat="44.40328" lon="3.57864">
        <ele>1068</ele>
        <time>2022-05-27T10:16:56Z</time>
      </trkpt>
      <trkpt lat="44.40328" lon="3.57863">
        <ele>1068</ele>
        <time>2022-05-27T10:16:57Z</time>
      </trkpt>
      <trkpt lat="44.40329" lon="3.57862">
        <ele>1068</ele>
        <time>2022-05-27T10:16:58Z</time>
      </trkpt>
      <trkpt lat="44.40331" lon="3.57862">
        <ele>1068</ele>
        <time>2022-05-27T10:16:59Z</time>
      </trkpt>
      <trkpt lat="44.40332" lon="3.57861">
        <ele>1068</ele>
        <time>2022-05-27T10:17:00Z</time>
      </trkpt>
      <trkpt lat="44.40333" lon="3.57861">
        <ele>1068</ele>
        <time>2022-05-27T10:17:01Z</time>
      </trkpt>
      <trkpt lat="44.40334" lon="3.5786">
        <ele>1068</ele>
        <time>2022-05-27T10:17:02Z</time>
      </trkpt>
      <trkpt lat="44.40336" lon="3.5786">
        <ele>1068</ele>
        <time>2022-05-27T10:17:03Z</time>
      </trkpt>
      <trkpt lat="44.40337" lon="3.57859">
        <ele>1068</ele>
        <time>2022-05-27T10:17:04Z</time>
      </trkpt>
      <trkpt lat="44.40338" lon="3.57858">
        <ele>1068</ele>
        <time>2022-05-27T10:17:05Z</time>
      </trkpt>
      <trkpt lat="44.40339" lon="3.57857">
        <ele>1068</ele>
        <time>2022-05-27T10:17:06Z</time>
      </trkpt>
      <trkpt lat="44.4034" lon="3.57857">
        <ele>1068</ele>
        <time>2022-05-27T10:17:07Z</time>
      </trkpt>
      <trkpt lat="44.4034" lon="3.57857">
        <ele>1068</ele>
        <time>2022-05-27T10:17:08Z</time>
      </trkpt>
      <trkpt lat="44.40341" lon="3.57856">
        <ele>1069</ele>
        <time>2022-05-27T10:17:09Z</time>
      </trkpt>
      <trkpt lat="44.40342" lon="3.57855">
        <ele>1069</ele>
        <time>2022-05-27T10:17:10Z</time>
      </trkpt>
      <trkpt lat="44.40343" lon="3.57854">
        <ele>1069</ele>
        <time>2022-05-27T10:17:11Z</time>
      </trkpt>
      <trkpt lat="44.40344" lon="3.57853">
        <ele>1069</ele>
        <time>2022-05-27T10:17:12Z</time>
      </trkpt>
      <trkpt lat="44.40346" lon="3.57853">
        <ele>1069</ele>
        <time>2022-05-27T10:17:13Z</time>
      </trkpt>
      <trkpt lat="44.40347" lon="3.57852">
        <ele>1069</ele>
        <time>2022-05-27T10:17:14Z</time>
      </trkpt>
      <trkpt lat="44.40349" lon="3.57852">
        <ele>1069</ele>
        <time>2022-05-27T10:17:15Z</time>
      </trkpt>
      <trkpt lat="44.4035" lon="3.57851">
        <ele>1069</ele>
        <time>2022-05-27T10:17:16Z</time>
      </trkpt>
      <trkpt lat="44.40351" lon="3.57851">
        <ele>1069</ele>
        <time>2022-05-27T10:17:17Z</time>
      </trkpt>
      <trkpt lat="44.40352" lon="3.5785">
        <ele>1069</ele>
        <time>2022-05-27T10:17:18Z</time>
      </trkpt>
      <trkpt lat="44.40352" lon="3.57849">
        <ele>1069</ele>
        <time>2022-05-27T10:17:19Z</time>
      </trkpt>
      <trkpt lat="44.40353" lon="3.57849">
        <ele>1070</ele>
        <time>2022-05-27T10:17:20Z</time>
      </trkpt>
      <trkpt lat="44.40354" lon="3.57848">
        <ele>1069</ele>
        <time>2022-05-27T10:17:21Z</time>
      </trkpt>
      <trkpt lat="44.40355" lon="3.57847">
        <ele>1070</ele>
        <time>2022-05-27T10:17:22Z</time>
      </trkpt>
      <trkpt lat="44.40356" lon="3.57847">
        <ele>1070</ele>
        <time>2022-05-27T10:17:23Z</time>
      </trkpt>
      <trkpt lat="44.40358" lon="3.57847">
        <ele>1070</ele>
        <time>2022-05-27T10:17:24Z</time>
      </trkpt>
      <trkpt lat="44.40359" lon="3.57847">
        <ele>1070</ele>
        <time>2022-05-27T10:17:25Z</time>
      </trkpt>
      <trkpt lat="44.4036" lon="3.57846">
        <ele>1071</ele>
        <time>2022-05-27T10:17:26Z</time>
      </trkpt>
      <trkpt lat="44.40362" lon="3.57845">
        <ele>1071</ele>
        <time>2022-05-27T10:17:27Z</time>
      </trkpt>
      <trkpt lat="44.40363" lon="3.57845">
        <ele>1070</ele>
        <time>2022-05-27T10:17:28Z</time>
      </trkpt>
      <trkpt lat="44.40364" lon="3.57844">
        <ele>1071</ele>
        <time>2022-05-27T10:17:29Z</time>
      </trkpt>
      <trkpt lat="44.40365" lon="3.57844">
        <ele>1070</ele>
        <time>2022-05-27T10:17:30Z</time>
      </trkpt>
      <trkpt lat="44.40366" lon="3.57843">
        <ele>1071</ele>
        <time>2022-05-27T10:17:31Z</time>
      </trkpt>
      <trkpt lat="44.40367" lon="3.57844">
        <ele>1071</ele>
        <time>2022-05-27T10:17:32Z</time>
      </trkpt>
      <trkpt lat="44.40368" lon="3.57843">
        <ele>1071</ele>
        <time>2022-05-27T10:17:33Z</time>
      </trkpt>
      <trkpt lat="44.40369" lon="3.57843">
        <ele>1071</ele>
        <time>2022-05-27T10:17:34Z</time>
      </trkpt>
      <trkpt lat="44.40371" lon="3.57843">
        <ele>1071</ele>
        <time>2022-05-27T10:17:35Z</time>
      </trkpt>
      <trkpt lat="44.40372" lon="3.57843">
        <ele>1071</ele>
        <time>2022-05-27T10:17:36Z</time>
      </trkpt>
      <trkpt lat="44.40373" lon="3.57843">
        <ele>1071</ele>
        <time>2022-05-27T10:17:37Z</time>
      </trkpt>
      <trkpt lat="44.40374" lon="3.57843">
        <ele>1071</ele>
        <time>2022-05-27T10:17:38Z</time>
      </trkpt>
      <trkpt lat="44.40376" lon="3.57842">
        <ele>1071</ele>
        <time>2022-05-27T10:17:39Z</time>
      </trkpt>
      <trkpt lat="44.40377" lon="3.57842">
        <ele>1071</ele>
        <time>2022-05-27T10:17:40Z</time>
      </trkpt>
      <trkpt lat="44.40378" lon="3.57842">
        <ele>1071</ele>
        <time>2022-05-27T10:17:41Z</time>
      </trkpt>
      <trkpt lat="44.4038" lon="3.57841">
        <ele>1070</ele>
        <time>2022-05-27T10:17:42Z</time>
      </trkpt>
      <trkpt lat="44.40381" lon="3.57841">
        <ele>1070</ele>
        <time>2022-05-27T10:17:43Z</time>
      </trkpt>
      <trkpt lat="44.40381" lon="3.5784">
        <ele>1070</ele>
        <time>2022-05-27T10:17:44Z</time>
      </trkpt>
      <trkpt lat="44.40383" lon="3.57841">
        <ele>1070</ele>
        <time>2022-05-27T10:17:45Z</time>
      </trkpt>
      <trkpt lat="44.40384" lon="3.57841">
        <ele>1071</ele>
        <time>2022-05-27T10:17:46Z</time>
      </trkpt>
      <trkpt lat="44.40385" lon="3.5784">
        <ele>1071</ele>
        <time>2022-05-27T10:17:47Z</time>
      </trkpt>
      <trkpt lat="44.40387" lon="3.5784">
        <ele>1071</ele>
        <time>2022-05-27T10:17:48Z</time>
      </trkpt>
      <trkpt lat="44.40388" lon="3.57841">
        <ele>1071</ele>
        <time>2022-05-27T10:17:49Z</time>
      </trkpt>
      <trkpt lat="44.40389" lon="3.5784">
        <ele>1071</ele>
        <time>2022-05-27T10:17:50Z</time>
      </trkpt>
      <trkpt lat="44.4039" lon="3.57841">
        <ele>1071</ele>
        <time>2022-05-27T10:17:51Z</time>
      </trkpt>
      <trkpt lat="44.40392" lon="3.57841">
        <ele>1071</ele>
        <time>2022-05-27T10:17:52Z</time>
      </trkpt>
      <trkpt lat="44.40393" lon="3.57842">
        <ele>1072</ele>
        <time>2022-05-27T10:17:53Z</time>
      </trkpt>
      <trkpt lat="44.40395" lon="3.57842">
        <ele>1072</ele>
        <time>2022-05-27T10:17:54Z</time>
      </trkpt>
      <trkpt lat="44.40397" lon="3.57842">
        <ele>1072</ele>
        <time>2022-05-27T10:17:55Z</time>
      </trkpt>
      <trkpt lat="44.40398" lon="3.57842">
        <ele>1071</ele>
        <time>2022-05-27T10:17:56Z</time>
      </trkpt>
      <trkpt lat="44.404" lon="3.57842">
        <ele>1071</ele>
        <time>2022-05-27T10:17:57Z</time>
      </trkpt>
      <trkpt lat="44.40401" lon="3.57842">
        <ele>1071</ele>
        <time>2022-05-27T10:17:58Z</time>
      </trkpt>
      <trkpt lat="44.40402" lon="3.57842">
        <ele>1071</ele>
        <time>2022-05-27T10:17:59Z</time>
      </trkpt>
      <trkpt lat="44.40402" lon="3.57842">
        <ele>1071</ele>
        <time>2022-05-27T10:18:00Z</time>
      </trkpt>
      <trkpt lat="44.40403" lon="3.57843">
        <ele>1072</ele>
        <time>2022-05-27T10:18:01Z</time>
      </trkpt>
      <trkpt lat="44.40405" lon="3.57843">
        <ele>1072</ele>
        <time>2022-05-27T10:18:02Z</time>
      </trkpt>
      <trkpt lat="44.40406" lon="3.57843">
        <ele>1072</ele>
        <time>2022-05-27T10:18:03Z</time>
      </trkpt>
      <trkpt lat="44.40408" lon="3.57844">
        <ele>1072</ele>
        <time>2022-05-27T10:18:04Z</time>
      </trkpt>
      <trkpt lat="44.40408" lon="3.57844">
        <ele>1072</ele>
        <time>2022-05-27T10:18:05Z</time>
      </trkpt>
      <trkpt lat="44.4041" lon="3.57844">
        <ele>1071</ele>
        <time>2022-05-27T10:18:06Z</time>
      </trkpt>
      <trkpt lat="44.40411" lon="3.57844">
        <ele>1071</ele>
        <time>2022-05-27T10:18:07Z</time>
      </trkpt>
      <trkpt lat="44.40411" lon="3.57844">
        <ele>1071</ele>
        <time>2022-05-27T10:18:08Z</time>
      </trkpt>
      <trkpt lat="44.40411" lon="3.57844">
        <ele>1072</ele>
        <time>2022-05-27T10:18:09Z</time>
      </trkpt>
      <trkpt lat="44.40412" lon="3.57844">
        <ele>1072</ele>
        <time>2022-05-27T10:18:10Z</time>
      </trkpt>
      <trkpt lat="44.40413" lon="3.57845">
        <ele>1072</ele>
        <time>2022-05-27T10:18:11Z</time>
      </trkpt>
      <trkpt lat="44.40414" lon="3.57845">
        <ele>1072</ele>
        <time>2022-05-27T10:18:12Z</time>
      </trkpt>
      <trkpt lat="44.40415" lon="3.57846">
        <ele>1072</ele>
        <time>2022-05-27T10:18:13Z</time>
      </trkpt>
      <trkpt lat="44.40416" lon="3.57846">
        <ele>1072</ele>
        <time>2022-05-27T10:18:14Z</time>
      </trkpt>
      <trkpt lat="44.40417" lon="3.57847">
        <ele>1072</ele>
        <time>2022-05-27T10:18:15Z</time>
      </trkpt>
      <trkpt lat="44.40418" lon="3.57847">
        <ele>1072</ele>
        <time>2022-05-27T10:18:16Z</time>
      </trkpt>
      <trkpt lat="44.40419" lon="3.57847">
        <ele>1072</ele>
        <time>2022-05-27T10:18:17Z</time>
      </trkpt>
      <trkpt lat="44.40421" lon="3.57847">
        <ele>1072</ele>
        <time>2022-05-27T10:18:18Z</time>
      </trkpt>
      <trkpt lat="44.40422" lon="3.57847">
        <ele>1072</ele>
        <time>2022-05-27T10:18:19Z</time>
      </trkpt>
      <trkpt lat="44.40422" lon="3.57847">
        <ele>1072</ele>
        <time>2022-05-27T10:18:20Z</time>
      </trkpt>
      <trkpt lat="44.40424" lon="3.57847">
        <ele>1072</ele>
        <time>2022-05-27T10:18:21Z</time>
      </trkpt>
      <trkpt lat="44.40425" lon="3.57848">
        <ele>1072</ele>
        <time>2022-05-27T10:18:22Z</time>
      </trkpt>
      <trkpt lat="44.40426" lon="3.57848">
        <ele>1072</ele>
        <time>2022-05-27T10:18:23Z</time>
      </trkpt>
      <trkpt lat="44.40427" lon="3.57848">
        <ele>1073</ele>
        <time>2022-05-27T10:18:24Z</time>
      </trkpt>
      <trkpt lat="44.40428" lon="3.57848">
        <ele>1073</ele>
        <time>2022-05-27T10:18:25Z</time>
      </trkpt>
      <trkpt lat="44.40429" lon="3.57849">
        <ele>1073</ele>
        <time>2022-05-27T10:18:26Z</time>
      </trkpt>
      <trkpt lat="44.4043" lon="3.57849">
        <ele>1073</ele>
        <time>2022-05-27T10:18:27Z</time>
      </trkpt>
      <trkpt lat="44.40431" lon="3.57849">
        <ele>1073</ele>
        <time>2022-05-27T10:18:28Z</time>
      </trkpt>
      <trkpt lat="44.40432" lon="3.5785">
        <ele>1073</ele>
        <time>2022-05-27T10:18:29Z</time>
      </trkpt>
      <trkpt lat="44.40434" lon="3.5785">
        <ele>1072</ele>
        <time>2022-05-27T10:18:30Z</time>
      </trkpt>
      <trkpt lat="44.40435" lon="3.57851">
        <ele>1072</ele>
        <time>2022-05-27T10:18:31Z</time>
      </trkpt>
      <trkpt lat="44.40435" lon="3.57852">
        <ele>1072</ele>
        <time>2022-05-27T10:18:32Z</time>
      </trkpt>
      <trkpt lat="44.40437" lon="3.57852">
        <ele>1072</ele>
        <time>2022-05-27T10:18:33Z</time>
      </trkpt>
      <trkpt lat="44.40438" lon="3.57852">
        <ele>1072</ele>
        <time>2022-05-27T10:18:34Z</time>
      </trkpt>
      <trkpt lat="44.40439" lon="3.57853">
        <ele>1071</ele>
        <time>2022-05-27T10:18:35Z</time>
      </trkpt>
      <trkpt lat="44.40441" lon="3.57853">
        <ele>1071</ele>
        <time>2022-05-27T10:18:36Z</time>
      </trkpt>
      <trkpt lat="44.40442" lon="3.57853">
        <ele>1072</ele>
        <time>2022-05-27T10:18:37Z</time>
      </trkpt>
      <trkpt lat="44.40443" lon="3.57854">
        <ele>1071</ele>
        <time>2022-05-27T10:18:38Z</time>
      </trkpt>
      <trkpt lat="44.40444" lon="3.57854">
        <ele>1071</ele>
        <time>2022-05-27T10:18:39Z</time>
      </trkpt>
      <trkpt lat="44.40445" lon="3.57855">
        <ele>1071</ele>
        <time>2022-05-27T10:18:40Z</time>
      </trkpt>
      <trkpt lat="44.40447" lon="3.57855">
        <ele>1071</ele>
        <time>2022-05-27T10:18:41Z</time>
      </trkpt>
      <trkpt lat="44.40448" lon="3.57855">
        <ele>1071</ele>
        <time>2022-05-27T10:18:42Z</time>
      </trkpt>
      <trkpt lat="44.4045" lon="3.57855">
        <ele>1071</ele>
        <time>2022-05-27T10:18:43Z</time>
      </trkpt>
      <trkpt lat="44.4045" lon="3.57856">
        <ele>1071</ele>
        <time>2022-05-27T10:18:44Z</time>
      </trkpt>
      <trkpt lat="44.40452" lon="3.57857">
        <ele>1072</ele>
        <time>2022-05-27T10:18:45Z</time>
      </trkpt>
      <trkpt lat="44.40453" lon="3.57857">
        <ele>1071</ele>
        <time>2022-05-27T10:18:46Z</time>
      </trkpt>
      <trkpt lat="44.40454" lon="3.57857">
        <ele>1072</ele>
        <time>2022-05-27T10:18:47Z</time>
      </trkpt>
      <trkpt lat="44.40456" lon="3.57858">
        <ele>1072</ele>
        <time>2022-05-27T10:18:48Z</time>
      </trkpt>
      <trkpt lat="44.40457" lon="3.57858">
        <ele>1072</ele>
        <time>2022-05-27T10:18:49Z</time>
      </trkpt>
      <trkpt lat="44.40458" lon="3.57858">
        <ele>1072</ele>
        <time>2022-05-27T10:18:50Z</time>
      </trkpt>
      <trkpt lat="44.40459" lon="3.57858">
        <ele>1071</ele>
        <time>2022-05-27T10:18:51Z</time>
      </trkpt>
      <trkpt lat="44.40461" lon="3.57858">
        <ele>1071</ele>
        <time>2022-05-27T10:18:52Z</time>
      </trkpt>
      <trkpt lat="44.40462" lon="3.57858">
        <ele>1071</ele>
        <time>2022-05-27T10:18:53Z</time>
      </trkpt>
      <trkpt lat="44.40463" lon="3.57858">
        <ele>1071</ele>
        <time>2022-05-27T10:18:54Z</time>
      </trkpt>
      <trkpt lat="44.40464" lon="3.57859">
        <ele>1072</ele>
        <time>2022-05-27T10:18:55Z</time>
      </trkpt>
      <trkpt lat="44.40465" lon="3.57859">
        <ele>1072</ele>
        <time>2022-05-27T10:18:56Z</time>
      </trkpt>
      <trkpt lat="44.40467" lon="3.57859">
        <ele>1072</ele>
        <time>2022-05-27T10:18:57Z</time>
      </trkpt>
      <trkpt lat="44.40468" lon="3.5786">
        <ele>1072</ele>
        <time>2022-05-27T10:18:58Z</time>
      </trkpt>
      <trkpt lat="44.40469" lon="3.5786">
        <ele>1072</ele>
        <time>2022-05-27T10:18:59Z</time>
      </trkpt>
      <trkpt lat="44.40471" lon="3.5786">
        <ele>1072</ele>
        <time>2022-05-27T10:19:00Z</time>
      </trkpt>
      <trkpt lat="44.40472" lon="3.5786">
        <ele>1072</ele>
        <time>2022-05-27T10:19:01Z</time>
      </trkpt>
      <trkpt lat="44.40474" lon="3.5786">
        <ele>1072</ele>
        <time>2022-05-27T10:19:02Z</time>
      </trkpt>
      <trkpt lat="44.40475" lon="3.57861">
        <ele>1071</ele>
        <time>2022-05-27T10:19:03Z</time>
      </trkpt>
      <trkpt lat="44.40476" lon="3.57862">
        <ele>1071</ele>
        <time>2022-05-27T10:19:04Z</time>
      </trkpt>
      <trkpt lat="44.40477" lon="3.57862">
        <ele>1071</ele>
        <time>2022-05-27T10:19:05Z</time>
      </trkpt>
      <trkpt lat="44.40479" lon="3.57863">
        <ele>1071</ele>
        <time>2022-05-27T10:19:06Z</time>
      </trkpt>
      <trkpt lat="44.4048" lon="3.57863">
        <ele>1071</ele>
        <time>2022-05-27T10:19:07Z</time>
      </trkpt>
      <trkpt lat="44.40481" lon="3.57863">
        <ele>1071</ele>
        <time>2022-05-27T10:19:08Z</time>
      </trkpt>
      <trkpt lat="44.40483" lon="3.57863">
        <ele>1071</ele>
        <time>2022-05-27T10:19:09Z</time>
      </trkpt>
      <trkpt lat="44.40484" lon="3.57863">
        <ele>1071</ele>
        <time>2022-05-27T10:19:10Z</time>
      </trkpt>
      <trkpt lat="44.40485" lon="3.57864">
        <ele>1070</ele>
        <time>2022-05-27T10:19:11Z</time>
      </trkpt>
      <trkpt lat="44.40487" lon="3.57865">
        <ele>1070</ele>
        <time>2022-05-27T10:19:12Z</time>
      </trkpt>
      <trkpt lat="44.40488" lon="3.57866">
        <ele>1070</ele>
        <time>2022-05-27T10:19:13Z</time>
      </trkpt>
      <trkpt lat="44.40489" lon="3.57866">
        <ele>1070</ele>
        <time>2022-05-27T10:19:14Z</time>
      </trkpt>
      <trkpt lat="44.4049" lon="3.57868">
        <ele>1070</ele>
        <time>2022-05-27T10:19:15Z</time>
      </trkpt>
      <trkpt lat="44.40492" lon="3.57868">
        <ele>1070</ele>
        <time>2022-05-27T10:19:16Z</time>
      </trkpt>
      <trkpt lat="44.40493" lon="3.57869">
        <ele>1069</ele>
        <time>2022-05-27T10:19:17Z</time>
      </trkpt>
      <trkpt lat="44.40494" lon="3.57869">
        <ele>1069</ele>
        <time>2022-05-27T10:19:18Z</time>
      </trkpt>
      <trkpt lat="44.40495" lon="3.57869">
        <ele>1069</ele>
        <time>2022-05-27T10:19:19Z</time>
      </trkpt>
      <trkpt lat="44.40496" lon="3.57869">
        <ele>1069</ele>
        <time>2022-05-27T10:19:20Z</time>
      </trkpt>
      <trkpt lat="44.40498" lon="3.57869">
        <ele>1069</ele>
        <time>2022-05-27T10:19:21Z</time>
      </trkpt>
      <trkpt lat="44.40499" lon="3.57869">
        <ele>1068</ele>
        <time>2022-05-27T10:19:22Z</time>
      </trkpt>
      <trkpt lat="44.405" lon="3.57869">
        <ele>1068</ele>
        <time>2022-05-27T10:19:23Z</time>
      </trkpt>
      <trkpt lat="44.40501" lon="3.57868">
        <ele>1068</ele>
        <time>2022-05-27T10:19:24Z</time>
      </trkpt>
      <trkpt lat="44.40503" lon="3.57868">
        <ele>1069</ele>
        <time>2022-05-27T10:19:25Z</time>
      </trkpt>
      <trkpt lat="44.40503" lon="3.57868">
        <ele>1069</ele>
        <time>2022-05-27T10:19:26Z</time>
      </trkpt>
      <trkpt lat="44.40504" lon="3.57868">
        <ele>1069</ele>
        <time>2022-05-27T10:19:27Z</time>
      </trkpt>
      <trkpt lat="44.40505" lon="3.57867">
        <ele>1069</ele>
        <time>2022-05-27T10:19:28Z</time>
      </trkpt>
      <trkpt lat="44.40506" lon="3.57867">
        <ele>1069</ele>
        <time>2022-05-27T10:19:29Z</time>
      </trkpt>
      <trkpt lat="44.40507" lon="3.57867">
        <ele>1070</ele>
        <time>2022-05-27T10:19:30Z</time>
      </trkpt>
      <trkpt lat="44.40508" lon="3.57867">
        <ele>1070</ele>
        <time>2022-05-27T10:19:31Z</time>
      </trkpt>
      <trkpt lat="44.40509" lon="3.57867">
        <ele>1070</ele>
        <time>2022-05-27T10:19:32Z</time>
      </trkpt>
      <trkpt lat="44.4051" lon="3.57868">
        <ele>1070</ele>
        <time>2022-05-27T10:19:33Z</time>
      </trkpt>
      <trkpt lat="44.40512" lon="3.57868">
        <ele>1069</ele>
        <time>2022-05-27T10:19:34Z</time>
      </trkpt>
      <trkpt lat="44.40513" lon="3.57869">
        <ele>1069</ele>
        <time>2022-05-27T10:19:35Z</time>
      </trkpt>
      <trkpt lat="44.40514" lon="3.57869">
        <ele>1068</ele>
        <time>2022-05-27T10:19:36Z</time>
      </trkpt>
      <trkpt lat="44.40515" lon="3.5787">
        <ele>1068</ele>
        <time>2022-05-27T10:19:37Z</time>
      </trkpt>
      <trkpt lat="44.40516" lon="3.57872">
        <ele>1068</ele>
        <time>2022-05-27T10:19:38Z</time>
      </trkpt>
      <trkpt lat="44.40517" lon="3.57872">
        <ele>1069</ele>
        <time>2022-05-27T10:19:39Z</time>
      </trkpt>
      <trkpt lat="44.40518" lon="3.57873">
        <ele>1069</ele>
        <time>2022-05-27T10:19:40Z</time>
      </trkpt>
      <trkpt lat="44.40519" lon="3.57874">
        <ele>1069</ele>
        <time>2022-05-27T10:19:41Z</time>
      </trkpt>
      <trkpt lat="44.4052" lon="3.57874">
        <ele>1069</ele>
        <time>2022-05-27T10:19:42Z</time>
      </trkpt>
      <trkpt lat="44.40521" lon="3.57875">
        <ele>1069</ele>
        <time>2022-05-27T10:19:43Z</time>
      </trkpt>
      <trkpt lat="44.40522" lon="3.57876">
        <ele>1069</ele>
        <time>2022-05-27T10:19:44Z</time>
      </trkpt>
      <trkpt lat="44.40522" lon="3.57877">
        <ele>1069</ele>
        <time>2022-05-27T10:19:45Z</time>
      </trkpt>
      <trkpt lat="44.40523" lon="3.57877">
        <ele>1069</ele>
        <time>2022-05-27T10:19:46Z</time>
      </trkpt>
      <trkpt lat="44.40524" lon="3.57878">
        <ele>1069</ele>
        <time>2022-05-27T10:19:47Z</time>
      </trkpt>
      <trkpt lat="44.40525" lon="3.57878">
        <ele>1069</ele>
        <time>2022-05-27T10:19:48Z</time>
      </trkpt>
      <trkpt lat="44.40527" lon="3.57879">
        <ele>1070</ele>
        <time>2022-05-27T10:19:49Z</time>
      </trkpt>
      <trkpt lat="44.40528" lon="3.57879">
        <ele>1070</ele>
        <time>2022-05-27T10:19:50Z</time>
      </trkpt>
      <trkpt lat="44.40529" lon="3.57879">
        <ele>1070</ele>
        <time>2022-05-27T10:19:51Z</time>
      </trkpt>
      <trkpt lat="44.4053" lon="3.5788">
        <ele>1070</ele>
        <time>2022-05-27T10:19:52Z</time>
      </trkpt>
      <trkpt lat="44.40531" lon="3.57881">
        <ele>1070</ele>
        <time>2022-05-27T10:19:53Z</time>
      </trkpt>
      <trkpt lat="44.40532" lon="3.57882">
        <ele>1070</ele>
        <time>2022-05-27T10:19:54Z</time>
      </trkpt>
      <trkpt lat="44.40533" lon="3.57882">
        <ele>1071</ele>
        <time>2022-05-27T10:19:55Z</time>
      </trkpt>
      <trkpt lat="44.40534" lon="3.57881">
        <ele>1071</ele>
        <time>2022-05-27T10:19:56Z</time>
      </trkpt>
      <trkpt lat="44.40535" lon="3.57881">
        <ele>1072</ele>
        <time>2022-05-27T10:19:57Z</time>
      </trkpt>
      <trkpt lat="44.40536" lon="3.57881">
        <ele>1072</ele>
        <time>2022-05-27T10:19:58Z</time>
      </trkpt>
      <trkpt lat="44.40537" lon="3.5788">
        <ele>1071</ele>
        <time>2022-05-27T10:19:59Z</time>
      </trkpt>
      <trkpt lat="44.40538" lon="3.57879">
        <ele>1071</ele>
        <time>2022-05-27T10:20:00Z</time>
      </trkpt>
      <trkpt lat="44.40539" lon="3.57878">
        <ele>1070</ele>
        <time>2022-05-27T10:20:01Z</time>
      </trkpt>
      <trkpt lat="44.4054" lon="3.57877">
        <ele>1070</ele>
        <time>2022-05-27T10:20:02Z</time>
      </trkpt>
      <trkpt lat="44.40542" lon="3.57876">
        <ele>1070</ele>
        <time>2022-05-27T10:20:03Z</time>
      </trkpt>
      <trkpt lat="44.40542" lon="3.57875">
        <ele>1070</ele>
        <time>2022-05-27T10:20:04Z</time>
      </trkpt>
      <trkpt lat="44.40543" lon="3.57874">
        <ele>1069</ele>
        <time>2022-05-27T10:20:05Z</time>
      </trkpt>
      <trkpt lat="44.40545" lon="3.57873">
        <ele>1069</ele>
        <time>2022-05-27T10:20:06Z</time>
      </trkpt>
      <trkpt lat="44.40545" lon="3.57872">
        <ele>1069</ele>
        <time>2022-05-27T10:20:07Z</time>
      </trkpt>
      <trkpt lat="44.40545" lon="3.5787">
        <ele>1069</ele>
        <time>2022-05-27T10:20:08Z</time>
      </trkpt>
      <trkpt lat="44.40546" lon="3.57869">
        <ele>1069</ele>
        <time>2022-05-27T10:20:09Z</time>
      </trkpt>
      <trkpt lat="44.40546" lon="3.57868">
        <ele>1069</ele>
        <time>2022-05-27T10:20:10Z</time>
      </trkpt>
      <trkpt lat="44.40547" lon="3.57867">
        <ele>1069</ele>
        <time>2022-05-27T10:20:11Z</time>
      </trkpt>
      <trkpt lat="44.40548" lon="3.57866">
        <ele>1069</ele>
        <time>2022-05-27T10:20:12Z</time>
      </trkpt>
      <trkpt lat="44.40548" lon="3.57865">
        <ele>1069</ele>
        <time>2022-05-27T10:20:13Z</time>
      </trkpt>
      <trkpt lat="44.40549" lon="3.57864">
        <ele>1070</ele>
        <time>2022-05-27T10:20:14Z</time>
      </trkpt>
      <trkpt lat="44.4055" lon="3.57863">
        <ele>1070</ele>
        <time>2022-05-27T10:20:15Z</time>
      </trkpt>
      <trkpt lat="44.40551" lon="3.57861">
        <ele>1070</ele>
        <time>2022-05-27T10:20:16Z</time>
      </trkpt>
      <trkpt lat="44.40552" lon="3.57861">
        <ele>1070</ele>
        <time>2022-05-27T10:20:17Z</time>
      </trkpt>
      <trkpt lat="44.40553" lon="3.5786">
        <ele>1070</ele>
        <time>2022-05-27T10:20:18Z</time>
      </trkpt>
      <trkpt lat="44.40553" lon="3.57858">
        <ele>1070</ele>
        <time>2022-05-27T10:20:19Z</time>
      </trkpt>
      <trkpt lat="44.40554" lon="3.57857">
        <ele>1070</ele>
        <time>2022-05-27T10:20:20Z</time>
      </trkpt>
      <trkpt lat="44.40554" lon="3.57856">
        <ele>1069</ele>
        <time>2022-05-27T10:20:21Z</time>
      </trkpt>
      <trkpt lat="44.40556" lon="3.57855">
        <ele>1069</ele>
        <time>2022-05-27T10:20:22Z</time>
      </trkpt>
      <trkpt lat="44.40556" lon="3.57854">
        <ele>1069</ele>
        <time>2022-05-27T10:20:23Z</time>
      </trkpt>
      <trkpt lat="44.40557" lon="3.57853">
        <ele>1069</ele>
        <time>2022-05-27T10:20:24Z</time>
      </trkpt>
      <trkpt lat="44.40558" lon="3.57852">
        <ele>1069</ele>
        <time>2022-05-27T10:20:25Z</time>
      </trkpt>
      <trkpt lat="44.40559" lon="3.57851">
        <ele>1069</ele>
        <time>2022-05-27T10:20:26Z</time>
      </trkpt>
      <trkpt lat="44.40559" lon="3.57851">
        <ele>1068</ele>
        <time>2022-05-27T10:20:27Z</time>
      </trkpt>
      <trkpt lat="44.4056" lon="3.5785">
        <ele>1068</ele>
        <time>2022-05-27T10:20:28Z</time>
      </trkpt>
      <trkpt lat="44.4056" lon="3.57848">
        <ele>1069</ele>
        <time>2022-05-27T10:20:29Z</time>
      </trkpt>
      <trkpt lat="44.4056" lon="3.57847">
        <ele>1068</ele>
        <time>2022-05-27T10:20:30Z</time>
      </trkpt>
      <trkpt lat="44.40561" lon="3.57846">
        <ele>1068</ele>
        <time>2022-05-27T10:20:31Z</time>
      </trkpt>
      <trkpt lat="44.40561" lon="3.57845">
        <ele>1069</ele>
        <time>2022-05-27T10:20:32Z</time>
      </trkpt>
      <trkpt lat="44.40562" lon="3.57843">
        <ele>1068</ele>
        <time>2022-05-27T10:20:33Z</time>
      </trkpt>
      <trkpt lat="44.40562" lon="3.57842">
        <ele>1068</ele>
        <time>2022-05-27T10:20:34Z</time>
      </trkpt>
      <trkpt lat="44.40563" lon="3.5784">
        <ele>1068</ele>
        <time>2022-05-27T10:20:35Z</time>
      </trkpt>
      <trkpt lat="44.40563" lon="3.57839">
        <ele>1067</ele>
        <time>2022-05-27T10:20:36Z</time>
      </trkpt>
      <trkpt lat="44.40564" lon="3.57839">
        <ele>1067</ele>
        <time>2022-05-27T10:20:37Z</time>
      </trkpt>
      <trkpt lat="44.40564" lon="3.57837">
        <ele>1066</ele>
        <time>2022-05-27T10:20:38Z</time>
      </trkpt>
      <trkpt lat="44.40565" lon="3.57836">
        <ele>1067</ele>
        <time>2022-05-27T10:20:39Z</time>
      </trkpt>
      <trkpt lat="44.40565" lon="3.57834">
        <ele>1067</ele>
        <time>2022-05-27T10:20:40Z</time>
      </trkpt>
      <trkpt lat="44.40565" lon="3.57832">
        <ele>1066</ele>
        <time>2022-05-27T10:20:41Z</time>
      </trkpt>
      <trkpt lat="44.40566" lon="3.57831">
        <ele>1066</ele>
        <time>2022-05-27T10:20:42Z</time>
      </trkpt>
      <trkpt lat="44.40566" lon="3.57829">
        <ele>1066</ele>
        <time>2022-05-27T10:20:43Z</time>
      </trkpt>
      <trkpt lat="44.40567" lon="3.57828">
        <ele>1066</ele>
        <time>2022-05-27T10:20:44Z</time>
      </trkpt>
      <trkpt lat="44.40567" lon="3.57826">
        <ele>1066</ele>
        <time>2022-05-27T10:20:45Z</time>
      </trkpt>
      <trkpt lat="44.40568" lon="3.57824">
        <ele>1066</ele>
        <time>2022-05-27T10:20:46Z</time>
      </trkpt>
      <trkpt lat="44.40569" lon="3.57823">
        <ele>1066</ele>
        <time>2022-05-27T10:20:47Z</time>
      </trkpt>
      <trkpt lat="44.40569" lon="3.57823">
        <ele>1066</ele>
        <time>2022-05-27T10:20:48Z</time>
      </trkpt>
      <trkpt lat="44.40569" lon="3.57822">
        <ele>1066</ele>
        <time>2022-05-27T10:20:49Z</time>
      </trkpt>
      <trkpt lat="44.4057" lon="3.57821">
        <ele>1067</ele>
        <time>2022-05-27T10:20:50Z</time>
      </trkpt>
      <trkpt lat="44.4057" lon="3.57821">
        <ele>1067</ele>
        <time>2022-05-27T10:20:51Z</time>
      </trkpt>
      <trkpt lat="44.4057" lon="3.57821">
        <ele>1067</ele>
        <time>2022-05-27T10:20:52Z</time>
      </trkpt>
      <trkpt lat="44.4057" lon="3.57819">
        <ele>1067</ele>
        <time>2022-05-27T10:20:53Z</time>
      </trkpt>
      <trkpt lat="44.40571" lon="3.57818">
        <ele>1067</ele>
        <time>2022-05-27T10:20:54Z</time>
      </trkpt>
      <trkpt lat="44.40572" lon="3.57818">
        <ele>1067</ele>
        <time>2022-05-27T10:20:55Z</time>
      </trkpt>
      <trkpt lat="44.40572" lon="3.57817">
        <ele>1068</ele>
        <time>2022-05-27T10:20:56Z</time>
      </trkpt>
      <trkpt lat="44.40573" lon="3.57815">
        <ele>1068</ele>
        <time>2022-05-27T10:20:57Z</time>
      </trkpt>
      <trkpt lat="44.40574" lon="3.57813">
        <ele>1068</ele>
        <time>2022-05-27T10:20:58Z</time>
      </trkpt>
      <trkpt lat="44.40575" lon="3.57811">
        <ele>1069</ele>
        <time>2022-05-27T10:20:59Z</time>
      </trkpt>
      <trkpt lat="44.40577" lon="3.57809">
        <ele>1069</ele>
        <time>2022-05-27T10:21:00Z</time>
      </trkpt>
      <trkpt lat="44.40577" lon="3.57807">
        <ele>1069</ele>
        <time>2022-05-27T10:21:01Z</time>
      </trkpt>
      <trkpt lat="44.40578" lon="3.57805">
        <ele>1068</ele>
        <time>2022-05-27T10:21:02Z</time>
      </trkpt>
      <trkpt lat="44.40579" lon="3.57803">
        <ele>1068</ele>
        <time>2022-05-27T10:21:03Z</time>
      </trkpt>
      <trkpt lat="44.40579" lon="3.57801">
        <ele>1068</ele>
        <time>2022-05-27T10:21:04Z</time>
      </trkpt>
      <trkpt lat="44.4058" lon="3.57799">
        <ele>1069</ele>
        <time>2022-05-27T10:21:05Z</time>
      </trkpt>
      <trkpt lat="44.40581" lon="3.57798">
        <ele>1069</ele>
        <time>2022-05-27T10:21:06Z</time>
      </trkpt>
      <trkpt lat="44.40582" lon="3.57796">
        <ele>1070</ele>
        <time>2022-05-27T10:21:07Z</time>
      </trkpt>
      <trkpt lat="44.40582" lon="3.57795">
        <ele>1071</ele>
        <time>2022-05-27T10:21:08Z</time>
      </trkpt>
      <trkpt lat="44.40583" lon="3.57793">
        <ele>1072</ele>
        <time>2022-05-27T10:21:09Z</time>
      </trkpt>
      <trkpt lat="44.40583" lon="3.57791">
        <ele>1071</ele>
        <time>2022-05-27T10:21:10Z</time>
      </trkpt>
      <trkpt lat="44.40584" lon="3.57789">
        <ele>1072</ele>
        <time>2022-05-27T10:21:11Z</time>
      </trkpt>
      <trkpt lat="44.40584" lon="3.57786">
        <ele>1072</ele>
        <time>2022-05-27T10:21:12Z</time>
      </trkpt>
      <trkpt lat="44.40585" lon="3.57784">
        <ele>1072</ele>
        <time>2022-05-27T10:21:13Z</time>
      </trkpt>
      <trkpt lat="44.40585" lon="3.57782">
        <ele>1072</ele>
        <time>2022-05-27T10:21:14Z</time>
      </trkpt>
      <trkpt lat="44.40585" lon="3.5778">
        <ele>1071</ele>
        <time>2022-05-27T10:21:15Z</time>
      </trkpt>
      <trkpt lat="44.40585" lon="3.57777">
        <ele>1070</ele>
        <time>2022-05-27T10:21:16Z</time>
      </trkpt>
      <trkpt lat="44.40586" lon="3.57775">
        <ele>1070</ele>
        <time>2022-05-27T10:21:17Z</time>
      </trkpt>
      <trkpt lat="44.40586" lon="3.57773">
        <ele>1070</ele>
        <time>2022-05-27T10:21:18Z</time>
      </trkpt>
      <trkpt lat="44.40586" lon="3.57771">
        <ele>1070</ele>
        <time>2022-05-27T10:21:19Z</time>
      </trkpt>
      <trkpt lat="44.40587" lon="3.57769">
        <ele>1069</ele>
        <time>2022-05-27T10:21:20Z</time>
      </trkpt>
      <trkpt lat="44.40587" lon="3.57767">
        <ele>1069</ele>
        <time>2022-05-27T10:21:21Z</time>
      </trkpt>
      <trkpt lat="44.40587" lon="3.57765">
        <ele>1069</ele>
        <time>2022-05-27T10:21:22Z</time>
      </trkpt>
      <trkpt lat="44.40587" lon="3.57763">
        <ele>1068</ele>
        <time>2022-05-27T10:21:23Z</time>
      </trkpt>
      <trkpt lat="44.40587" lon="3.57761">
        <ele>1068</ele>
        <time>2022-05-27T10:21:24Z</time>
      </trkpt>
      <trkpt lat="44.40587" lon="3.57759">
        <ele>1068</ele>
        <time>2022-05-27T10:21:25Z</time>
      </trkpt>
      <trkpt lat="44.40587" lon="3.57757">
        <ele>1068</ele>
        <time>2022-05-27T10:21:26Z</time>
      </trkpt>
      <trkpt lat="44.40587" lon="3.57756">
        <ele>1067</ele>
        <time>2022-05-27T10:21:27Z</time>
      </trkpt>
      <trkpt lat="44.40587" lon="3.57755">
        <ele>1068</ele>
        <time>2022-05-27T10:21:28Z</time>
      </trkpt>
      <trkpt lat="44.40587" lon="3.57753">
        <ele>1068</ele>
        <time>2022-05-27T10:21:29Z</time>
      </trkpt>
      <trkpt lat="44.40587" lon="3.57751">
        <ele>1068</ele>
        <time>2022-05-27T10:21:30Z</time>
      </trkpt>
      <trkpt lat="44.40587" lon="3.57749">
        <ele>1068</ele>
        <time>2022-05-27T10:21:31Z</time>
      </trkpt>
      <trkpt lat="44.40587" lon="3.57747">
        <ele>1068</ele>
        <time>2022-05-27T10:21:32Z</time>
      </trkpt>
      <trkpt lat="44.40587" lon="3.57746">
        <ele>1068</ele>
        <time>2022-05-27T10:21:33Z</time>
      </trkpt>
      <trkpt lat="44.40587" lon="3.57744">
        <ele>1068</ele>
        <time>2022-05-27T10:21:34Z</time>
      </trkpt>
      <trkpt lat="44.40587" lon="3.57743">
        <ele>1068</ele>
        <time>2022-05-27T10:21:35Z</time>
      </trkpt>
      <trkpt lat="44.40586" lon="3.57741">
        <ele>1069</ele>
        <time>2022-05-27T10:21:36Z</time>
      </trkpt>
      <trkpt lat="44.40586" lon="3.57739">
        <ele>1069</ele>
        <time>2022-05-27T10:21:37Z</time>
      </trkpt>
      <trkpt lat="44.40585" lon="3.57738">
        <ele>1069</ele>
        <time>2022-05-27T10:21:38Z</time>
      </trkpt>
      <trkpt lat="44.40585" lon="3.57736">
        <ele>1070</ele>
        <time>2022-05-27T10:21:39Z</time>
      </trkpt>
      <trkpt lat="44.40585" lon="3.57734">
        <ele>1070</ele>
        <time>2022-05-27T10:21:40Z</time>
      </trkpt>
      <trkpt lat="44.40585" lon="3.57733">
        <ele>1070</ele>
        <time>2022-05-27T10:21:41Z</time>
      </trkpt>
      <trkpt lat="44.40585" lon="3.57731">
        <ele>1071</ele>
        <time>2022-05-27T10:21:42Z</time>
      </trkpt>
      <trkpt lat="44.40584" lon="3.5773">
        <ele>1071</ele>
        <time>2022-05-27T10:21:43Z</time>
      </trkpt>
      <trkpt lat="44.40583" lon="3.57728">
        <ele>1071</ele>
        <time>2022-05-27T10:21:44Z</time>
      </trkpt>
      <trkpt lat="44.40583" lon="3.57726">
        <ele>1071</ele>
        <time>2022-05-27T10:21:45Z</time>
      </trkpt>
      <trkpt lat="44.40583" lon="3.57725">
        <ele>1071</ele>
        <time>2022-05-27T10:21:46Z</time>
      </trkpt>
      <trkpt lat="44.40583" lon="3.57723">
        <ele>1071</ele>
        <time>2022-05-27T10:21:47Z</time>
      </trkpt>
      <trkpt lat="44.40583" lon="3.5772">
        <ele>1071</ele>
        <time>2022-05-27T10:21:48Z</time>
      </trkpt>
      <trkpt lat="44.40583" lon="3.57718">
        <ele>1072</ele>
        <time>2022-05-27T10:21:49Z</time>
      </trkpt>
      <trkpt lat="44.40583" lon="3.57716">
        <ele>1071</ele>
        <time>2022-05-27T10:21:50Z</time>
      </trkpt>
      <trkpt lat="44.40583" lon="3.57714">
        <ele>1071</ele>
        <time>2022-05-27T10:21:51Z</time>
      </trkpt>
      <trkpt lat="44.40583" lon="3.57712">
        <ele>1071</ele>
        <time>2022-05-27T10:21:52Z</time>
      </trkpt>
      <trkpt lat="44.40583" lon="3.5771">
        <ele>1071</ele>
        <time>2022-05-27T10:21:53Z</time>
      </trkpt>
      <trkpt lat="44.40582" lon="3.57708">
        <ele>1071</ele>
        <time>2022-05-27T10:21:54Z</time>
      </trkpt>
      <trkpt lat="44.40582" lon="3.57706">
        <ele>1071</ele>
        <time>2022-05-27T10:21:55Z</time>
      </trkpt>
      <trkpt lat="44.40582" lon="3.57704">
        <ele>1071</ele>
        <time>2022-05-27T10:21:56Z</time>
      </trkpt>
      <trkpt lat="44.40581" lon="3.57702">
        <ele>1071</ele>
        <time>2022-05-27T10:21:57Z</time>
      </trkpt>
      <trkpt lat="44.40581" lon="3.577">
        <ele>1070</ele>
        <time>2022-05-27T10:21:58Z</time>
      </trkpt>
      <trkpt lat="44.40581" lon="3.57698">
        <ele>1070</ele>
        <time>2022-05-27T10:21:59Z</time>
      </trkpt>
      <trkpt lat="44.4058" lon="3.57697">
        <ele>1070</ele>
        <time>2022-05-27T10:22:00Z</time>
      </trkpt>
      <trkpt lat="44.4058" lon="3.57695">
        <ele>1069</ele>
        <time>2022-05-27T10:22:01Z</time>
      </trkpt>
      <trkpt lat="44.4058" lon="3.57694">
        <ele>1069</ele>
        <time>2022-05-27T10:22:02Z</time>
      </trkpt>
      <trkpt lat="44.40579" lon="3.57692">
        <ele>1069</ele>
        <time>2022-05-27T10:22:03Z</time>
      </trkpt>
      <trkpt lat="44.40579" lon="3.5769">
        <ele>1069</ele>
        <time>2022-05-27T10:22:04Z</time>
      </trkpt>
      <trkpt lat="44.40579" lon="3.57689">
        <ele>1070</ele>
        <time>2022-05-27T10:22:05Z</time>
      </trkpt>
      <trkpt lat="44.40579" lon="3.57687">
        <ele>1069</ele>
        <time>2022-05-27T10:22:06Z</time>
      </trkpt>
      <trkpt lat="44.40579" lon="3.57685">
        <ele>1069</ele>
        <time>2022-05-27T10:22:07Z</time>
      </trkpt>
      <trkpt lat="44.40579" lon="3.57685">
        <ele>1069</ele>
        <time>2022-05-27T10:22:08Z</time>
      </trkpt>
      <trkpt lat="44.40579" lon="3.57684">
        <ele>1070</ele>
        <time>2022-05-27T10:22:09Z</time>
      </trkpt>
      <trkpt lat="44.40579" lon="3.57683">
        <ele>1070</ele>
        <time>2022-05-27T10:22:10Z</time>
      </trkpt>
      <trkpt lat="44.4058" lon="3.57682">
        <ele>1070</ele>
        <time>2022-05-27T10:22:11Z</time>
      </trkpt>
      <trkpt lat="44.4058" lon="3.57681">
        <ele>1070</ele>
        <time>2022-05-27T10:22:12Z</time>
      </trkpt>
      <trkpt lat="44.4058" lon="3.5768">
        <ele>1070</ele>
        <time>2022-05-27T10:22:13Z</time>
      </trkpt>
      <trkpt lat="44.4058" lon="3.57679">
        <ele>1069</ele>
        <time>2022-05-27T10:22:14Z</time>
      </trkpt>
      <trkpt lat="44.4058" lon="3.57678">
        <ele>1069</ele>
        <time>2022-05-27T10:22:15Z</time>
      </trkpt>
      <trkpt lat="44.40581" lon="3.57677">
        <ele>1068</ele>
        <time>2022-05-27T10:22:16Z</time>
      </trkpt>
      <trkpt lat="44.40582" lon="3.57677">
        <ele>1068</ele>
        <time>2022-05-27T10:22:17Z</time>
      </trkpt>
      <trkpt lat="44.40582" lon="3.57677">
        <ele>1068</ele>
        <time>2022-05-27T10:22:18Z</time>
      </trkpt>
      <trkpt lat="44.40583" lon="3.57677">
        <ele>1068</ele>
        <time>2022-05-27T10:22:19Z</time>
      </trkpt>
      <trkpt lat="44.40583" lon="3.57676">
        <ele>1068</ele>
        <time>2022-05-27T10:22:20Z</time>
      </trkpt>
      <trkpt lat="44.40583" lon="3.57676">
        <ele>1068</ele>
        <time>2022-05-27T10:22:21Z</time>
      </trkpt>
      <trkpt lat="44.40584" lon="3.57676">
        <ele>1067</ele>
        <time>2022-05-27T10:22:22Z</time>
      </trkpt>
      <trkpt lat="44.40585" lon="3.57675">
        <ele>1067</ele>
        <time>2022-05-27T10:22:23Z</time>
      </trkpt>
      <trkpt lat="44.40585" lon="3.57676">
        <ele>1067</ele>
        <time>2022-05-27T10:22:24Z</time>
      </trkpt>
      <trkpt lat="44.40586" lon="3.57675">
        <ele>1066</ele>
        <time>2022-05-27T10:22:25Z</time>
      </trkpt>
      <trkpt lat="44.40586" lon="3.57675">
        <ele>1066</ele>
        <time>2022-05-27T10:22:26Z</time>
      </trkpt>
      <trkpt lat="44.40586" lon="3.57675">
        <ele>1066</ele>
        <time>2022-05-27T10:22:27Z</time>
      </trkpt>
      <trkpt lat="44.40586" lon="3.57675">
        <ele>1066</ele>
        <time>2022-05-27T10:22:28Z</time>
      </trkpt>
      <trkpt lat="44.40586" lon="3.57675">
        <ele>1066</ele>
        <time>2022-05-27T10:22:29Z</time>
      </trkpt>
      <trkpt lat="44.40586" lon="3.57675">
        <ele>1066</ele>
        <time>2022-05-27T10:22:29Z</time>
      </trkpt>
      <trkpt lat="44.40586" lon="3.57675">
        <ele>1066</ele>
        <time>2022-05-27T10:22:29Z</time>
      </trkpt>
      <trkpt lat="44.40589" lon="3.57673">
        <ele>1066</ele>
        <time>2022-05-27T10:22:39Z</time>
      </trkpt>
      <trkpt lat="44.4059" lon="3.57673">
        <ele>1067</ele>
        <time>2022-05-27T10:22:40Z</time>
      </trkpt>
      <trkpt lat="44.4059" lon="3.57673">
        <ele>1067</ele>
        <time>2022-05-27T10:22:41Z</time>
      </trkpt>
      <trkpt lat="44.4059" lon="3.57674">
        <ele>1067</ele>
        <time>2022-05-27T10:22:42Z</time>
      </trkpt>
      <trkpt lat="44.4059" lon="3.57674">
        <ele>1066</ele>
        <time>2022-05-27T10:22:43Z</time>
      </trkpt>
      <trkpt lat="44.4059" lon="3.57674">
        <ele>1066</ele>
        <time>2022-05-27T10:22:43Z</time>
      </trkpt>
      <trkpt lat="44.4059" lon="3.57674">
        <ele>1066</ele>
        <time>2022-05-27T10:22:43Z</time>
      </trkpt>
      <trkpt lat="44.40593" lon="3.57677">
        <ele>1067</ele>
        <time>2022-05-27T10:22:54Z</time>
      </trkpt>
      <trkpt lat="44.40594" lon="3.57677">
        <ele>1068</ele>
        <time>2022-05-27T10:22:55Z</time>
      </trkpt>
      <trkpt lat="44.40595" lon="3.57677">
        <ele>1068</ele>
        <time>2022-05-27T10:22:56Z</time>
      </trkpt>
      <trkpt lat="44.40595" lon="3.57678">
        <ele>1068</ele>
        <time>2022-05-27T10:22:57Z</time>
      </trkpt>
      <trkpt lat="44.40596" lon="3.57678">
        <ele>1069</ele>
        <time>2022-05-27T10:22:58Z</time>
      </trkpt>
      <trkpt lat="44.40597" lon="3.57679">
        <ele>1069</ele>
        <time>2022-05-27T10:22:59Z</time>
      </trkpt>
      <trkpt lat="44.40598" lon="3.57679">
        <ele>1069</ele>
        <time>2022-05-27T10:23:00Z</time>
      </trkpt>
      <trkpt lat="44.40599" lon="3.5768">
        <ele>1069</ele>
        <time>2022-05-27T10:23:01Z</time>
      </trkpt>
      <trkpt lat="44.406" lon="3.5768">
        <ele>1069</ele>
        <time>2022-05-27T10:23:02Z</time>
      </trkpt>
      <trkpt lat="44.40601" lon="3.57681">
        <ele>1069</ele>
        <time>2022-05-27T10:23:03Z</time>
      </trkpt>
      <trkpt lat="44.40603" lon="3.57682">
        <ele>1070</ele>
        <time>2022-05-27T10:23:04Z</time>
      </trkpt>
      <trkpt lat="44.40604" lon="3.57682">
        <ele>1070</ele>
        <time>2022-05-27T10:23:05Z</time>
      </trkpt>
      <trkpt lat="44.40604" lon="3.57683">
        <ele>1070</ele>
        <time>2022-05-27T10:23:06Z</time>
      </trkpt>
      <trkpt lat="44.40606" lon="3.57683">
        <ele>1070</ele>
        <time>2022-05-27T10:23:07Z</time>
      </trkpt>
      <trkpt lat="44.40607" lon="3.57683">
        <ele>1069</ele>
        <time>2022-05-27T10:23:08Z</time>
      </trkpt>
      <trkpt lat="44.40608" lon="3.57683">
        <ele>1069</ele>
        <time>2022-05-27T10:23:09Z</time>
      </trkpt>
      <trkpt lat="44.40609" lon="3.57684">
        <ele>1069</ele>
        <time>2022-05-27T10:23:10Z</time>
      </trkpt>
      <trkpt lat="44.4061" lon="3.57684">
        <ele>1070</ele>
        <time>2022-05-27T10:23:11Z</time>
      </trkpt>
      <trkpt lat="44.40611" lon="3.57684">
        <ele>1070</ele>
        <time>2022-05-27T10:23:12Z</time>
      </trkpt>
      <trkpt lat="44.40613" lon="3.57685">
        <ele>1070</ele>
        <time>2022-05-27T10:23:13Z</time>
      </trkpt>
      <trkpt lat="44.40614" lon="3.57685">
        <ele>1070</ele>
        <time>2022-05-27T10:23:14Z</time>
      </trkpt>
      <trkpt lat="44.40615" lon="3.57686">
        <ele>1070</ele>
        <time>2022-05-27T10:23:15Z</time>
      </trkpt>
      <trkpt lat="44.40616" lon="3.57686">
        <ele>1070</ele>
        <time>2022-05-27T10:23:16Z</time>
      </trkpt>
      <trkpt lat="44.40617" lon="3.57686">
        <ele>1070</ele>
        <time>2022-05-27T10:23:17Z</time>
      </trkpt>
      <trkpt lat="44.40618" lon="3.57687">
        <ele>1071</ele>
        <time>2022-05-27T10:23:18Z</time>
      </trkpt>
      <trkpt lat="44.40619" lon="3.57687">
        <ele>1071</ele>
        <time>2022-05-27T10:23:19Z</time>
      </trkpt>
      <trkpt lat="44.4062" lon="3.57687">
        <ele>1071</ele>
        <time>2022-05-27T10:23:20Z</time>
      </trkpt>
      <trkpt lat="44.40621" lon="3.57687">
        <ele>1071</ele>
        <time>2022-05-27T10:23:21Z</time>
      </trkpt>
      <trkpt lat="44.40622" lon="3.57687">
        <ele>1071</ele>
        <time>2022-05-27T10:23:22Z</time>
      </trkpt>
      <trkpt lat="44.40623" lon="3.57688">
        <ele>1071</ele>
        <time>2022-05-27T10:23:23Z</time>
      </trkpt>
      <trkpt lat="44.40625" lon="3.57689">
        <ele>1071</ele>
        <time>2022-05-27T10:23:24Z</time>
      </trkpt>
      <trkpt lat="44.40626" lon="3.57688">
        <ele>1071</ele>
        <time>2022-05-27T10:23:25Z</time>
      </trkpt>
      <trkpt lat="44.40627" lon="3.57689">
        <ele>1071</ele>
        <time>2022-05-27T10:23:26Z</time>
      </trkpt>
      <trkpt lat="44.40628" lon="3.57689">
        <ele>1071</ele>
        <time>2022-05-27T10:23:27Z</time>
      </trkpt>
      <trkpt lat="44.4063" lon="3.57689">
        <ele>1071</ele>
        <time>2022-05-27T10:23:28Z</time>
      </trkpt>
      <trkpt lat="44.40631" lon="3.57689">
        <ele>1071</ele>
        <time>2022-05-27T10:23:29Z</time>
      </trkpt>
      <trkpt lat="44.40632" lon="3.57689">
        <ele>1071</ele>
        <time>2022-05-27T10:23:30Z</time>
      </trkpt>
      <trkpt lat="44.40633" lon="3.5769">
        <ele>1072</ele>
        <time>2022-05-27T10:23:31Z</time>
      </trkpt>
      <trkpt lat="44.40634" lon="3.5769">
        <ele>1072</ele>
        <time>2022-05-27T10:23:32Z</time>
      </trkpt>
      <trkpt lat="44.40635" lon="3.5769">
        <ele>1072</ele>
        <time>2022-05-27T10:23:33Z</time>
      </trkpt>
      <trkpt lat="44.40636" lon="3.57691">
        <ele>1072</ele>
        <time>2022-05-27T10:23:34Z</time>
      </trkpt>
      <trkpt lat="44.40638" lon="3.57691">
        <ele>1072</ele>
        <time>2022-05-27T10:23:35Z</time>
      </trkpt>
      <trkpt lat="44.40639" lon="3.57691">
        <ele>1072</ele>
        <time>2022-05-27T10:23:36Z</time>
      </trkpt>
      <trkpt lat="44.4064" lon="3.57691">
        <ele>1072</ele>
        <time>2022-05-27T10:23:37Z</time>
      </trkpt>
      <trkpt lat="44.40641" lon="3.57691">
        <ele>1072</ele>
        <time>2022-05-27T10:23:38Z</time>
      </trkpt>
      <trkpt lat="44.40642" lon="3.57691">
        <ele>1073</ele>
        <time>2022-05-27T10:23:39Z</time>
      </trkpt>
      <trkpt lat="44.40643" lon="3.57691">
        <ele>1073</ele>
        <time>2022-05-27T10:23:40Z</time>
      </trkpt>
      <trkpt lat="44.40645" lon="3.57691">
        <ele>1073</ele>
        <time>2022-05-27T10:23:41Z</time>
      </trkpt>
      <trkpt lat="44.40646" lon="3.57691">
        <ele>1073</ele>
        <time>2022-05-27T10:23:42Z</time>
      </trkpt>
      <trkpt lat="44.40647" lon="3.57691">
        <ele>1073</ele>
        <time>2022-05-27T10:23:43Z</time>
      </trkpt>
      <trkpt lat="44.40648" lon="3.5769">
        <ele>1073</ele>
        <time>2022-05-27T10:23:44Z</time>
      </trkpt>
      <trkpt lat="44.40649" lon="3.5769">
        <ele>1073</ele>
        <time>2022-05-27T10:23:45Z</time>
      </trkpt>
      <trkpt lat="44.4065" lon="3.5769">
        <ele>1073</ele>
        <time>2022-05-27T10:23:46Z</time>
      </trkpt>
      <trkpt lat="44.40651" lon="3.5769">
        <ele>1073</ele>
        <time>2022-05-27T10:23:47Z</time>
      </trkpt>
      <trkpt lat="44.40653" lon="3.5769">
        <ele>1074</ele>
        <time>2022-05-27T10:23:48Z</time>
      </trkpt>
      <trkpt lat="44.40654" lon="3.5769">
        <ele>1074</ele>
        <time>2022-05-27T10:23:49Z</time>
      </trkpt>
      <trkpt lat="44.40655" lon="3.5769">
        <ele>1074</ele>
        <time>2022-05-27T10:23:50Z</time>
      </trkpt>
      <trkpt lat="44.40656" lon="3.5769">
        <ele>1074</ele>
        <time>2022-05-27T10:23:51Z</time>
      </trkpt>
      <trkpt lat="44.40657" lon="3.57691">
        <ele>1075</ele>
        <time>2022-05-27T10:23:52Z</time>
      </trkpt>
      <trkpt lat="44.40658" lon="3.5769">
        <ele>1074</ele>
        <time>2022-05-27T10:23:53Z</time>
      </trkpt>
      <trkpt lat="44.4066" lon="3.5769">
        <ele>1074</ele>
        <time>2022-05-27T10:23:54Z</time>
      </trkpt>
      <trkpt lat="44.40661" lon="3.5769">
        <ele>1075</ele>
        <time>2022-05-27T10:23:55Z</time>
      </trkpt>
      <trkpt lat="44.40662" lon="3.5769">
        <ele>1074</ele>
        <time>2022-05-27T10:23:56Z</time>
      </trkpt>
      <trkpt lat="44.40662" lon="3.5769">
        <ele>1074</ele>
        <time>2022-05-27T10:23:57Z</time>
      </trkpt>
      <trkpt lat="44.40664" lon="3.5769">
        <ele>1074</ele>
        <time>2022-05-27T10:23:58Z</time>
      </trkpt>
      <trkpt lat="44.40665" lon="3.5769">
        <ele>1074</ele>
        <time>2022-05-27T10:23:59Z</time>
      </trkpt>
      <trkpt lat="44.40667" lon="3.5769">
        <ele>1074</ele>
        <time>2022-05-27T10:24:00Z</time>
      </trkpt>
      <trkpt lat="44.40667" lon="3.5769">
        <ele>1074</ele>
        <time>2022-05-27T10:24:01Z</time>
      </trkpt>
      <trkpt lat="44.40669" lon="3.5769">
        <ele>1074</ele>
        <time>2022-05-27T10:24:02Z</time>
      </trkpt>
      <trkpt lat="44.4067" lon="3.5769">
        <ele>1074</ele>
        <time>2022-05-27T10:24:03Z</time>
      </trkpt>
      <trkpt lat="44.40671" lon="3.57689">
        <ele>1073</ele>
        <time>2022-05-27T10:24:04Z</time>
      </trkpt>
      <trkpt lat="44.40672" lon="3.57688">
        <ele>1073</ele>
        <time>2022-05-27T10:24:05Z</time>
      </trkpt>
      <trkpt lat="44.40673" lon="3.57688">
        <ele>1073</ele>
        <time>2022-05-27T10:24:06Z</time>
      </trkpt>
      <trkpt lat="44.40674" lon="3.57687">
        <ele>1073</ele>
        <time>2022-05-27T10:24:07Z</time>
      </trkpt>
      <trkpt lat="44.40675" lon="3.57687">
        <ele>1073</ele>
        <time>2022-05-27T10:24:08Z</time>
      </trkpt>
      <trkpt lat="44.40677" lon="3.57687">
        <ele>1073</ele>
        <time>2022-05-27T10:24:09Z</time>
      </trkpt>
      <trkpt lat="44.40678" lon="3.57688">
        <ele>1073</ele>
        <time>2022-05-27T10:24:10Z</time>
      </trkpt>
      <trkpt lat="44.40679" lon="3.57687">
        <ele>1073</ele>
        <time>2022-05-27T10:24:11Z</time>
      </trkpt>
      <trkpt lat="44.4068" lon="3.57687">
        <ele>1073</ele>
        <time>2022-05-27T10:24:12Z</time>
      </trkpt>
      <trkpt lat="44.40682" lon="3.57687">
        <ele>1073</ele>
        <time>2022-05-27T10:24:13Z</time>
      </trkpt>
      <trkpt lat="44.40683" lon="3.57687">
        <ele>1073</ele>
        <time>2022-05-27T10:24:14Z</time>
      </trkpt>
      <trkpt lat="44.40684" lon="3.57687">
        <ele>1073</ele>
        <time>2022-05-27T10:24:15Z</time>
      </trkpt>
      <trkpt lat="44.40685" lon="3.57687">
        <ele>1073</ele>
        <time>2022-05-27T10:24:16Z</time>
      </trkpt>
      <trkpt lat="44.40686" lon="3.57687">
        <ele>1073</ele>
        <time>2022-05-27T10:24:17Z</time>
      </trkpt>
      <trkpt lat="44.40688" lon="3.57686">
        <ele>1074</ele>
        <time>2022-05-27T10:24:18Z</time>
      </trkpt>
      <trkpt lat="44.40689" lon="3.57686">
        <ele>1074</ele>
        <time>2022-05-27T10:24:19Z</time>
      </trkpt>
      <trkpt lat="44.4069" lon="3.57686">
        <ele>1074</ele>
        <time>2022-05-27T10:24:20Z</time>
      </trkpt>
      <trkpt lat="44.40691" lon="3.57685">
        <ele>1074</ele>
        <time>2022-05-27T10:24:21Z</time>
      </trkpt>
      <trkpt lat="44.40693" lon="3.57685">
        <ele>1074</ele>
        <time>2022-05-27T10:24:22Z</time>
      </trkpt>
      <trkpt lat="44.40694" lon="3.57684">
        <ele>1074</ele>
        <time>2022-05-27T10:24:23Z</time>
      </trkpt>
      <trkpt lat="44.40695" lon="3.57684">
        <ele>1074</ele>
        <time>2022-05-27T10:24:24Z</time>
      </trkpt>
      <trkpt lat="44.40696" lon="3.57684">
        <ele>1074</ele>
        <time>2022-05-27T10:24:25Z</time>
      </trkpt>
      <trkpt lat="44.40697" lon="3.57684">
        <ele>1074</ele>
        <time>2022-05-27T10:24:26Z</time>
      </trkpt>
      <trkpt lat="44.40698" lon="3.57683">
        <ele>1074</ele>
        <time>2022-05-27T10:24:27Z</time>
      </trkpt>
      <trkpt lat="44.40699" lon="3.57683">
        <ele>1074</ele>
        <time>2022-05-27T10:24:28Z</time>
      </trkpt>
      <trkpt lat="44.40701" lon="3.57682">
        <ele>1075</ele>
        <time>2022-05-27T10:24:29Z</time>
      </trkpt>
      <trkpt lat="44.40702" lon="3.57682">
        <ele>1075</ele>
        <time>2022-05-27T10:24:30Z</time>
      </trkpt>
      <trkpt lat="44.40703" lon="3.57682">
        <ele>1075</ele>
        <time>2022-05-27T10:24:31Z</time>
      </trkpt>
      <trkpt lat="44.40704" lon="3.57682">
        <ele>1075</ele>
        <time>2022-05-27T10:24:32Z</time>
      </trkpt>
      <trkpt lat="44.40704" lon="3.57681">
        <ele>1076</ele>
        <time>2022-05-27T10:24:33Z</time>
      </trkpt>
      <trkpt lat="44.40706" lon="3.57681">
        <ele>1076</ele>
        <time>2022-05-27T10:24:34Z</time>
      </trkpt>
      <trkpt lat="44.40707" lon="3.57681">
        <ele>1076</ele>
        <time>2022-05-27T10:24:35Z</time>
      </trkpt>
      <trkpt lat="44.40708" lon="3.57681">
        <ele>1076</ele>
        <time>2022-05-27T10:24:36Z</time>
      </trkpt>
      <trkpt lat="44.40709" lon="3.57681">
        <ele>1076</ele>
        <time>2022-05-27T10:24:37Z</time>
      </trkpt>
      <trkpt lat="44.4071" lon="3.57681">
        <ele>1076</ele>
        <time>2022-05-27T10:24:38Z</time>
      </trkpt>
      <trkpt lat="44.40712" lon="3.57681">
        <ele>1076</ele>
        <time>2022-05-27T10:24:39Z</time>
      </trkpt>
      <trkpt lat="44.40713" lon="3.5768">
        <ele>1076</ele>
        <time>2022-05-27T10:24:40Z</time>
      </trkpt>
      <trkpt lat="44.40714" lon="3.5768">
        <ele>1076</ele>
        <time>2022-05-27T10:24:41Z</time>
      </trkpt>
      <trkpt lat="44.40715" lon="3.5768">
        <ele>1077</ele>
        <time>2022-05-27T10:24:42Z</time>
      </trkpt>
      <trkpt lat="44.40715" lon="3.5768">
        <ele>1077</ele>
        <time>2022-05-27T10:24:43Z</time>
      </trkpt>
      <trkpt lat="44.40717" lon="3.5768">
        <ele>1077</ele>
        <time>2022-05-27T10:24:44Z</time>
      </trkpt>
      <trkpt lat="44.40717" lon="3.5768">
        <ele>1077</ele>
        <time>2022-05-27T10:24:45Z</time>
      </trkpt>
      <trkpt lat="44.40719" lon="3.57679">
        <ele>1077</ele>
        <time>2022-05-27T10:24:46Z</time>
      </trkpt>
      <trkpt lat="44.40719" lon="3.57679">
        <ele>1077</ele>
        <time>2022-05-27T10:24:47Z</time>
      </trkpt>
      <trkpt lat="44.4072" lon="3.57679">
        <ele>1077</ele>
        <time>2022-05-27T10:24:48Z</time>
      </trkpt>
      <trkpt lat="44.40721" lon="3.57679">
        <ele>1077</ele>
        <time>2022-05-27T10:24:49Z</time>
      </trkpt>
      <trkpt lat="44.40723" lon="3.57679">
        <ele>1078</ele>
        <time>2022-05-27T10:24:50Z</time>
      </trkpt>
      <trkpt lat="44.40723" lon="3.57679">
        <ele>1078</ele>
        <time>2022-05-27T10:24:51Z</time>
      </trkpt>
      <trkpt lat="44.40724" lon="3.57678">
        <ele>1078</ele>
        <time>2022-05-27T10:24:52Z</time>
      </trkpt>
      <trkpt lat="44.40725" lon="3.57678">
        <ele>1078</ele>
        <time>2022-05-27T10:24:53Z</time>
      </trkpt>
      <trkpt lat="44.40727" lon="3.57678">
        <ele>1078</ele>
        <time>2022-05-27T10:24:54Z</time>
      </trkpt>
      <trkpt lat="44.40728" lon="3.57677">
        <ele>1079</ele>
        <time>2022-05-27T10:24:55Z</time>
      </trkpt>
      <trkpt lat="44.40728" lon="3.57677">
        <ele>1079</ele>
        <time>2022-05-27T10:24:55Z</time>
      </trkpt>
      <trkpt lat="44.4073" lon="3.57677">
        <ele>1079</ele>
        <time>2022-05-27T10:24:57Z</time>
      </trkpt>
      <trkpt lat="44.4073" lon="3.57677">
        <ele>1079</ele>
        <time>2022-05-27T10:24:57Z</time>
      </trkpt>
      <trkpt lat="44.40731" lon="3.57676">
        <ele>1080</ele>
        <time>2022-05-27T10:24:59Z</time>
      </trkpt>
      <trkpt lat="44.40733" lon="3.57676">
        <ele>1080</ele>
        <time>2022-05-27T10:25:00Z</time>
      </trkpt>
      <trkpt lat="44.40734" lon="3.57675">
        <ele>1080</ele>
        <time>2022-05-27T10:25:01Z</time>
      </trkpt>
      <trkpt lat="44.40735" lon="3.57675">
        <ele>1080</ele>
        <time>2022-05-27T10:25:02Z</time>
      </trkpt>
      <trkpt lat="44.40736" lon="3.57675">
        <ele>1079</ele>
        <time>2022-05-27T10:25:03Z</time>
      </trkpt>
      <trkpt lat="44.40737" lon="3.57675">
        <ele>1079</ele>
        <time>2022-05-27T10:25:04Z</time>
      </trkpt>
      <trkpt lat="44.40738" lon="3.57674">
        <ele>1080</ele>
        <time>2022-05-27T10:25:05Z</time>
      </trkpt>
      <trkpt lat="44.40739" lon="3.57674">
        <ele>1080</ele>
        <time>2022-05-27T10:25:06Z</time>
      </trkpt>
      <trkpt lat="44.40741" lon="3.57675">
        <ele>1080</ele>
        <time>2022-05-27T10:25:07Z</time>
      </trkpt>
      <trkpt lat="44.40741" lon="3.57674">
        <ele>1079</ele>
        <time>2022-05-27T10:25:08Z</time>
      </trkpt>
      <trkpt lat="44.40742" lon="3.57674">
        <ele>1079</ele>
        <time>2022-05-27T10:25:09Z</time>
      </trkpt>
      <trkpt lat="44.40743" lon="3.57674">
        <ele>1080</ele>
        <time>2022-05-27T10:25:10Z</time>
      </trkpt>
      <trkpt lat="44.40744" lon="3.57673">
        <ele>1080</ele>
        <time>2022-05-27T10:25:11Z</time>
      </trkpt>
      <trkpt lat="44.40745" lon="3.57673">
        <ele>1080</ele>
        <time>2022-05-27T10:25:12Z</time>
      </trkpt>
      <trkpt lat="44.40746" lon="3.57672">
        <ele>1080</ele>
        <time>2022-05-27T10:25:13Z</time>
      </trkpt>
      <trkpt lat="44.40748" lon="3.57672">
        <ele>1080</ele>
        <time>2022-05-27T10:25:14Z</time>
      </trkpt>
      <trkpt lat="44.40749" lon="3.57672">
        <ele>1080</ele>
        <time>2022-05-27T10:25:15Z</time>
      </trkpt>
      <trkpt lat="44.4075" lon="3.57672">
        <ele>1080</ele>
        <time>2022-05-27T10:25:16Z</time>
      </trkpt>
      <trkpt lat="44.40751" lon="3.57673">
        <ele>1081</ele>
        <time>2022-05-27T10:25:17Z</time>
      </trkpt>
      <trkpt lat="44.40752" lon="3.57673">
        <ele>1081</ele>
        <time>2022-05-27T10:25:18Z</time>
      </trkpt>
      <trkpt lat="44.40753" lon="3.57673">
        <ele>1082</ele>
        <time>2022-05-27T10:25:19Z</time>
      </trkpt>
      <trkpt lat="44.40754" lon="3.57673">
        <ele>1082</ele>
        <time>2022-05-27T10:25:20Z</time>
      </trkpt>
      <trkpt lat="44.40755" lon="3.57673">
        <ele>1082</ele>
        <time>2022-05-27T10:25:21Z</time>
      </trkpt>
      <trkpt lat="44.40755" lon="3.57673">
        <ele>1082</ele>
        <time>2022-05-27T10:25:21Z</time>
      </trkpt>
      <trkpt lat="44.40757" lon="3.57673">
        <ele>1083</ele>
        <time>2022-05-27T10:25:23Z</time>
      </trkpt>
      <trkpt lat="44.40759" lon="3.57673">
        <ele>1083</ele>
        <time>2022-05-27T10:25:24Z</time>
      </trkpt>
      <trkpt lat="44.4076" lon="3.57672">
        <ele>1083</ele>
        <time>2022-05-27T10:25:25Z</time>
      </trkpt>
      <trkpt lat="44.40761" lon="3.57673">
        <ele>1083</ele>
        <time>2022-05-27T10:25:26Z</time>
      </trkpt>
      <trkpt lat="44.40762" lon="3.57672">
        <ele>1084</ele>
        <time>2022-05-27T10:25:27Z</time>
      </trkpt>
      <trkpt lat="44.40763" lon="3.57672">
        <ele>1084</ele>
        <time>2022-05-27T10:25:28Z</time>
      </trkpt>
      <trkpt lat="44.40764" lon="3.57672">
        <ele>1084</ele>
        <time>2022-05-27T10:25:29Z</time>
      </trkpt>
      <trkpt lat="44.40765" lon="3.57672">
        <ele>1083</ele>
        <time>2022-05-27T10:25:30Z</time>
      </trkpt>
      <trkpt lat="44.40767" lon="3.57671">
        <ele>1083</ele>
        <time>2022-05-27T10:25:31Z</time>
      </trkpt>
      <trkpt lat="44.40767" lon="3.57671">
        <ele>1084</ele>
        <time>2022-05-27T10:25:32Z</time>
      </trkpt>
      <trkpt lat="44.40768" lon="3.57671">
        <ele>1084</ele>
        <time>2022-05-27T10:25:33Z</time>
      </trkpt>
      <trkpt lat="44.4077" lon="3.57671">
        <ele>1084</ele>
        <time>2022-05-27T10:25:34Z</time>
      </trkpt>
      <trkpt lat="44.40771" lon="3.5767">
        <ele>1084</ele>
        <time>2022-05-27T10:25:35Z</time>
      </trkpt>
      <trkpt lat="44.40772" lon="3.5767">
        <ele>1083</ele>
        <time>2022-05-27T10:25:36Z</time>
      </trkpt>
      <trkpt lat="44.40773" lon="3.5767">
        <ele>1083</ele>
        <time>2022-05-27T10:25:37Z</time>
      </trkpt>
      <trkpt lat="44.40775" lon="3.5767">
        <ele>1083</ele>
        <time>2022-05-27T10:25:38Z</time>
      </trkpt>
      <trkpt lat="44.40775" lon="3.57669">
        <ele>1083</ele>
        <time>2022-05-27T10:25:39Z</time>
      </trkpt>
      <trkpt lat="44.40776" lon="3.57669">
        <ele>1084</ele>
        <time>2022-05-27T10:25:40Z</time>
      </trkpt>
      <trkpt lat="44.40778" lon="3.57669">
        <ele>1083</ele>
        <time>2022-05-27T10:25:41Z</time>
      </trkpt>
      <trkpt lat="44.40779" lon="3.57669">
        <ele>1083</ele>
        <time>2022-05-27T10:25:42Z</time>
      </trkpt>
      <trkpt lat="44.4078" lon="3.57668">
        <ele>1083</ele>
        <time>2022-05-27T10:25:43Z</time>
      </trkpt>
      <trkpt lat="44.40781" lon="3.57668">
        <ele>1083</ele>
        <time>2022-05-27T10:25:44Z</time>
      </trkpt>
      <trkpt lat="44.40782" lon="3.57667">
        <ele>1083</ele>
        <time>2022-05-27T10:25:45Z</time>
      </trkpt>
      <trkpt lat="44.40783" lon="3.57667">
        <ele>1083</ele>
        <time>2022-05-27T10:25:46Z</time>
      </trkpt>
      <trkpt lat="44.40784" lon="3.57667">
        <ele>1083</ele>
        <time>2022-05-27T10:25:47Z</time>
      </trkpt>
      <trkpt lat="44.40785" lon="3.57667">
        <ele>1083</ele>
        <time>2022-05-27T10:25:48Z</time>
      </trkpt>
      <trkpt lat="44.40786" lon="3.57666">
        <ele>1084</ele>
        <time>2022-05-27T10:25:49Z</time>
      </trkpt>
      <trkpt lat="44.40787" lon="3.57666">
        <ele>1084</ele>
        <time>2022-05-27T10:25:50Z</time>
      </trkpt>
      <trkpt lat="44.40788" lon="3.57666">
        <ele>1083</ele>
        <time>2022-05-27T10:25:51Z</time>
      </trkpt>
      <trkpt lat="44.40789" lon="3.57666">
        <ele>1084</ele>
        <time>2022-05-27T10:25:52Z</time>
      </trkpt>
      <trkpt lat="44.40789" lon="3.57666">
        <ele>1084</ele>
        <time>2022-05-27T10:25:53Z</time>
      </trkpt>
      <trkpt lat="44.4079" lon="3.57666">
        <ele>1084</ele>
        <time>2022-05-27T10:25:54Z</time>
      </trkpt>
      <trkpt lat="44.40791" lon="3.57666">
        <ele>1084</ele>
        <time>2022-05-27T10:25:55Z</time>
      </trkpt>
      <trkpt lat="44.40792" lon="3.57665">
        <ele>1084</ele>
        <time>2022-05-27T10:25:56Z</time>
      </trkpt>
      <trkpt lat="44.40793" lon="3.57665">
        <ele>1084</ele>
        <time>2022-05-27T10:25:57Z</time>
      </trkpt>
      <trkpt lat="44.40794" lon="3.57666">
        <ele>1084</ele>
        <time>2022-05-27T10:25:58Z</time>
      </trkpt>
      <trkpt lat="44.40795" lon="3.57665">
        <ele>1084</ele>
        <time>2022-05-27T10:25:59Z</time>
      </trkpt>
      <trkpt lat="44.40796" lon="3.57665">
        <ele>1084</ele>
        <time>2022-05-27T10:26:00Z</time>
      </trkpt>
      <trkpt lat="44.40797" lon="3.57665">
        <ele>1085</ele>
        <time>2022-05-27T10:26:01Z</time>
      </trkpt>
      <trkpt lat="44.40798" lon="3.57665">
        <ele>1085</ele>
        <time>2022-05-27T10:26:02Z</time>
      </trkpt>
      <trkpt lat="44.40799" lon="3.57665">
        <ele>1085</ele>
        <time>2022-05-27T10:26:03Z</time>
      </trkpt>
      <trkpt lat="44.408" lon="3.57664">
        <ele>1085</ele>
        <time>2022-05-27T10:26:04Z</time>
      </trkpt>
      <trkpt lat="44.40801" lon="3.57664">
        <ele>1085</ele>
        <time>2022-05-27T10:26:05Z</time>
      </trkpt>
      <trkpt lat="44.40802" lon="3.57664">
        <ele>1085</ele>
        <time>2022-05-27T10:26:06Z</time>
      </trkpt>
      <trkpt lat="44.40803" lon="3.57664">
        <ele>1085</ele>
        <time>2022-05-27T10:26:07Z</time>
      </trkpt>
      <trkpt lat="44.40804" lon="3.57663">
        <ele>1086</ele>
        <time>2022-05-27T10:26:08Z</time>
      </trkpt>
      <trkpt lat="44.40805" lon="3.57663">
        <ele>1086</ele>
        <time>2022-05-27T10:26:09Z</time>
      </trkpt>
      <trkpt lat="44.40805" lon="3.57664">
        <ele>1085</ele>
        <time>2022-05-27T10:26:10Z</time>
      </trkpt>
      <trkpt lat="44.40806" lon="3.57664">
        <ele>1085</ele>
        <time>2022-05-27T10:26:11Z</time>
      </trkpt>
      <trkpt lat="44.40806" lon="3.57664">
        <ele>1085</ele>
        <time>2022-05-27T10:26:12Z</time>
      </trkpt>
      <trkpt lat="44.40806" lon="3.57664">
        <ele>1085</ele>
        <time>2022-05-27T10:26:13Z</time>
      </trkpt>
      <trkpt lat="44.40806" lon="3.57664">
        <ele>1085</ele>
        <time>2022-05-27T10:26:14Z</time>
      </trkpt>
      <trkpt lat="44.40806" lon="3.57664">
        <ele>1085</ele>
        <time>2022-05-27T10:26:15Z</time>
      </trkpt>
      <trkpt lat="44.40806" lon="3.57664">
        <ele>1085</ele>
        <time>2022-05-27T10:26:16Z</time>
      </trkpt>
      <trkpt lat="44.40807" lon="3.57664">
        <ele>1085</ele>
        <time>2022-05-27T10:26:17Z</time>
      </trkpt>
      <trkpt lat="44.40808" lon="3.57664">
        <ele>1085</ele>
        <time>2022-05-27T10:26:18Z</time>
      </trkpt>
      <trkpt lat="44.40808" lon="3.57664">
        <ele>1085</ele>
        <time>2022-05-27T10:26:19Z</time>
      </trkpt>
      <trkpt lat="44.40808" lon="3.57663">
        <ele>1085</ele>
        <time>2022-05-27T10:26:20Z</time>
      </trkpt>
      <trkpt lat="44.40808" lon="3.57663">
        <ele>1085</ele>
        <time>2022-05-27T10:26:21Z</time>
      </trkpt>
      <trkpt lat="44.40808" lon="3.57663">
        <ele>1086</ele>
        <time>2022-05-27T10:26:22Z</time>
      </trkpt>
      <trkpt lat="44.40809" lon="3.57664">
        <ele>1086</ele>
        <time>2022-05-27T10:26:23Z</time>
      </trkpt>
      <trkpt lat="44.40809" lon="3.57665">
        <ele>1087</ele>
        <time>2022-05-27T10:26:24Z</time>
      </trkpt>
      <trkpt lat="44.4081" lon="3.57665">
        <ele>1087</ele>
        <time>2022-05-27T10:26:25Z</time>
      </trkpt>
      <trkpt lat="44.40811" lon="3.57665">
        <ele>1087</ele>
        <time>2022-05-27T10:26:26Z</time>
      </trkpt>
      <trkpt lat="44.40812" lon="3.57664">
        <ele>1087</ele>
        <time>2022-05-27T10:26:27Z</time>
      </trkpt>
      <trkpt lat="44.40813" lon="3.57664">
        <ele>1087</ele>
        <time>2022-05-27T10:26:28Z</time>
      </trkpt>
      <trkpt lat="44.40813" lon="3.57664">
        <ele>1088</ele>
        <time>2022-05-27T10:26:29Z</time>
      </trkpt>
      <trkpt lat="44.40814" lon="3.57665">
        <ele>1088</ele>
        <time>2022-05-27T10:26:30Z</time>
      </trkpt>
      <trkpt lat="44.40815" lon="3.57664">
        <ele>1089</ele>
        <time>2022-05-27T10:26:31Z</time>
      </trkpt>
      <trkpt lat="44.40816" lon="3.57665">
        <ele>1089</ele>
        <time>2022-05-27T10:26:32Z</time>
      </trkpt>
      <trkpt lat="44.40817" lon="3.57665">
        <ele>1089</ele>
        <time>2022-05-27T10:26:33Z</time>
      </trkpt>
      <trkpt lat="44.40818" lon="3.57665">
        <ele>1089</ele>
        <time>2022-05-27T10:26:34Z</time>
      </trkpt>
      <trkpt lat="44.40819" lon="3.57665">
        <ele>1088</ele>
        <time>2022-05-27T10:26:35Z</time>
      </trkpt>
      <trkpt lat="44.4082" lon="3.57666">
        <ele>1089</ele>
        <time>2022-05-27T10:26:36Z</time>
      </trkpt>
      <trkpt lat="44.4082" lon="3.57667">
        <ele>1089</ele>
        <time>2022-05-27T10:26:37Z</time>
      </trkpt>
      <trkpt lat="44.40821" lon="3.57668">
        <ele>1089</ele>
        <time>2022-05-27T10:26:38Z</time>
      </trkpt>
      <trkpt lat="44.40822" lon="3.57668">
        <ele>1089</ele>
        <time>2022-05-27T10:26:39Z</time>
      </trkpt>
      <trkpt lat="44.40823" lon="3.57668">
        <ele>1090</ele>
        <time>2022-05-27T10:26:40Z</time>
      </trkpt>
      <trkpt lat="44.40823" lon="3.57669">
        <ele>1091</ele>
        <time>2022-05-27T10:26:41Z</time>
      </trkpt>
      <trkpt lat="44.40824" lon="3.57669">
        <ele>1092</ele>
        <time>2022-05-27T10:26:42Z</time>
      </trkpt>
      <trkpt lat="44.40825" lon="3.5767">
        <ele>1092</ele>
        <time>2022-05-27T10:26:43Z</time>
      </trkpt>
      <trkpt lat="44.40826" lon="3.5767">
        <ele>1093</ele>
        <time>2022-05-27T10:26:44Z</time>
      </trkpt>
      <trkpt lat="44.40826" lon="3.5767">
        <ele>1093</ele>
        <time>2022-05-27T10:26:45Z</time>
      </trkpt>
      <trkpt lat="44.40827" lon="3.5767">
        <ele>1094</ele>
        <time>2022-05-27T10:26:46Z</time>
      </trkpt>
      <trkpt lat="44.40828" lon="3.5767">
        <ele>1094</ele>
        <time>2022-05-27T10:26:47Z</time>
      </trkpt>
      <trkpt lat="44.40828" lon="3.57671">
        <ele>1095</ele>
        <time>2022-05-27T10:26:48Z</time>
      </trkpt>
      <trkpt lat="44.4083" lon="3.57671">
        <ele>1095</ele>
        <time>2022-05-27T10:26:49Z</time>
      </trkpt>
      <trkpt lat="44.4083" lon="3.57671">
        <ele>1095</ele>
        <time>2022-05-27T10:26:50Z</time>
      </trkpt>
      <trkpt lat="44.40831" lon="3.57671">
        <ele>1096</ele>
        <time>2022-05-27T10:26:51Z</time>
      </trkpt>
      <trkpt lat="44.40832" lon="3.57671">
        <ele>1096</ele>
        <time>2022-05-27T10:26:52Z</time>
      </trkpt>
      <trkpt lat="44.40833" lon="3.57671">
        <ele>1097</ele>
        <time>2022-05-27T10:26:53Z</time>
      </trkpt>
      <trkpt lat="44.40834" lon="3.57671">
        <ele>1097</ele>
        <time>2022-05-27T10:26:54Z</time>
      </trkpt>
      <trkpt lat="44.40834" lon="3.57671">
        <ele>1097</ele>
        <time>2022-05-27T10:26:55Z</time>
      </trkpt>
      <trkpt lat="44.40835" lon="3.57671">
        <ele>1097</ele>
        <time>2022-05-27T10:26:56Z</time>
      </trkpt>
      <trkpt lat="44.40836" lon="3.57672">
        <ele>1098</ele>
        <time>2022-05-27T10:26:57Z</time>
      </trkpt>
      <trkpt lat="44.40837" lon="3.57672">
        <ele>1099</ele>
        <time>2022-05-27T10:26:58Z</time>
      </trkpt>
      <trkpt lat="44.40838" lon="3.57672">
        <ele>1099</ele>
        <time>2022-05-27T10:26:59Z</time>
      </trkpt>
      <trkpt lat="44.40838" lon="3.57673">
        <ele>1100</ele>
        <time>2022-05-27T10:27:00Z</time>
      </trkpt>
      <trkpt lat="44.40839" lon="3.57674">
        <ele>1101</ele>
        <time>2022-05-27T10:27:01Z</time>
      </trkpt>
      <trkpt lat="44.4084" lon="3.57675">
        <ele>1102</ele>
        <time>2022-05-27T10:27:02Z</time>
      </trkpt>
      <trkpt lat="44.4084" lon="3.57676">
        <ele>1103</ele>
        <time>2022-05-27T10:27:03Z</time>
      </trkpt>
      <trkpt lat="44.40841" lon="3.57677">
        <ele>1104</ele>
        <time>2022-05-27T10:27:04Z</time>
      </trkpt>
      <trkpt lat="44.40841" lon="3.57678">
        <ele>1105</ele>
        <time>2022-05-27T10:27:05Z</time>
      </trkpt>
      <trkpt lat="44.40842" lon="3.57678">
        <ele>1106</ele>
        <time>2022-05-27T10:27:06Z</time>
      </trkpt>
      <trkpt lat="44.40843" lon="3.57679">
        <ele>1107</ele>
        <time>2022-05-27T10:27:07Z</time>
      </trkpt>
      <trkpt lat="44.40844" lon="3.57679">
        <ele>1108</ele>
        <time>2022-05-27T10:27:08Z</time>
      </trkpt>
      <trkpt lat="44.40844" lon="3.57679">
        <ele>1108</ele>
        <time>2022-05-27T10:27:09Z</time>
      </trkpt>
      <trkpt lat="44.40846" lon="3.57679">
        <ele>1109</ele>
        <time>2022-05-27T10:27:10Z</time>
      </trkpt>
      <trkpt lat="44.40846" lon="3.5768">
        <ele>1109</ele>
        <time>2022-05-27T10:27:11Z</time>
      </trkpt>
      <trkpt lat="44.40847" lon="3.5768">
        <ele>1110</ele>
        <time>2022-05-27T10:27:12Z</time>
      </trkpt>
      <trkpt lat="44.40849" lon="3.5768">
        <ele>1110</ele>
        <time>2022-05-27T10:27:13Z</time>
      </trkpt>
      <trkpt lat="44.4085" lon="3.5768">
        <ele>1110</ele>
        <time>2022-05-27T10:27:14Z</time>
      </trkpt>
      <trkpt lat="44.40851" lon="3.57681">
        <ele>1110</ele>
        <time>2022-05-27T10:27:15Z</time>
      </trkpt>
      <trkpt lat="44.40852" lon="3.57681">
        <ele>1110</ele>
        <time>2022-05-27T10:27:16Z</time>
      </trkpt>
      <trkpt lat="44.40854" lon="3.57682">
        <ele>1110</ele>
        <time>2022-05-27T10:27:17Z</time>
      </trkpt>
      <trkpt lat="44.40855" lon="3.57682">
        <ele>1110</ele>
        <time>2022-05-27T10:27:18Z</time>
      </trkpt>
      <trkpt lat="44.40856" lon="3.57683">
        <ele>1110</ele>
        <time>2022-05-27T10:27:19Z</time>
      </trkpt>
      <trkpt lat="44.40857" lon="3.57683">
        <ele>1111</ele>
        <time>2022-05-27T10:27:20Z</time>
      </trkpt>
      <trkpt lat="44.40859" lon="3.57683">
        <ele>1111</ele>
        <time>2022-05-27T10:27:21Z</time>
      </trkpt>
      <trkpt lat="44.40859" lon="3.57684">
        <ele>1110</ele>
        <time>2022-05-27T10:27:22Z</time>
      </trkpt>
      <trkpt lat="44.4086" lon="3.57685">
        <ele>1110</ele>
        <time>2022-05-27T10:27:23Z</time>
      </trkpt>
      <trkpt lat="44.40861" lon="3.57685">
        <ele>1111</ele>
        <time>2022-05-27T10:27:24Z</time>
      </trkpt>
      <trkpt lat="44.40862" lon="3.57686">
        <ele>1110</ele>
        <time>2022-05-27T10:27:25Z</time>
      </trkpt>
      <trkpt lat="44.40863" lon="3.57686">
        <ele>1111</ele>
        <time>2022-05-27T10:27:26Z</time>
      </trkpt>
      <trkpt lat="44.40865" lon="3.57686">
        <ele>1111</ele>
        <time>2022-05-27T10:27:27Z</time>
      </trkpt>
      <trkpt lat="44.40865" lon="3.57687">
        <ele>1111</ele>
        <time>2022-05-27T10:27:28Z</time>
      </trkpt>
      <trkpt lat="44.40866" lon="3.57687">
        <ele>1110</ele>
        <time>2022-05-27T10:27:29Z</time>
      </trkpt>
      <trkpt lat="44.40867" lon="3.57687">
        <ele>1110</ele>
        <time>2022-05-27T10:27:30Z</time>
      </trkpt>
      <trkpt lat="44.40868" lon="3.57687">
        <ele>1111</ele>
        <time>2022-05-27T10:27:31Z</time>
      </trkpt>
      <trkpt lat="44.40869" lon="3.57687">
        <ele>1111</ele>
        <time>2022-05-27T10:27:32Z</time>
      </trkpt>
      <trkpt lat="44.4087" lon="3.57686">
        <ele>1111</ele>
        <time>2022-05-27T10:27:33Z</time>
      </trkpt>
      <trkpt lat="44.40871" lon="3.57687">
        <ele>1112</ele>
        <time>2022-05-27T10:27:34Z</time>
      </trkpt>
      <trkpt lat="44.40871" lon="3.57688">
        <ele>1112</ele>
        <time>2022-05-27T10:27:35Z</time>
      </trkpt>
      <trkpt lat="44.40873" lon="3.57689">
        <ele>1111</ele>
        <time>2022-05-27T10:27:36Z</time>
      </trkpt>
      <trkpt lat="44.40874" lon="3.5769">
        <ele>1110</ele>
        <time>2022-05-27T10:27:37Z</time>
      </trkpt>
      <trkpt lat="44.40875" lon="3.57691">
        <ele>1111</ele>
        <time>2022-05-27T10:27:38Z</time>
      </trkpt>
      <trkpt lat="44.40876" lon="3.57692">
        <ele>1112</ele>
        <time>2022-05-27T10:27:39Z</time>
      </trkpt>
      <trkpt lat="44.40877" lon="3.57693">
        <ele>1113</ele>
        <time>2022-05-27T10:27:40Z</time>
      </trkpt>
      <trkpt lat="44.40878" lon="3.57693">
        <ele>1113</ele>
        <time>2022-05-27T10:27:41Z</time>
      </trkpt>
      <trkpt lat="44.40878" lon="3.57694">
        <ele>1114</ele>
        <time>2022-05-27T10:27:42Z</time>
      </trkpt>
      <trkpt lat="44.40879" lon="3.57695">
        <ele>1114</ele>
        <time>2022-05-27T10:27:43Z</time>
      </trkpt>
      <trkpt lat="44.4088" lon="3.57695">
        <ele>1114</ele>
        <time>2022-05-27T10:27:44Z</time>
      </trkpt>
      <trkpt lat="44.40881" lon="3.57696">
        <ele>1114</ele>
        <time>2022-05-27T10:27:45Z</time>
      </trkpt>
      <trkpt lat="44.40882" lon="3.57697">
        <ele>1114</ele>
        <time>2022-05-27T10:27:46Z</time>
      </trkpt>
      <trkpt lat="44.40883" lon="3.57697">
        <ele>1114</ele>
        <time>2022-05-27T10:27:47Z</time>
      </trkpt>
      <trkpt lat="44.40884" lon="3.57698">
        <ele>1114</ele>
        <time>2022-05-27T10:27:48Z</time>
      </trkpt>
      <trkpt lat="44.40885" lon="3.57698">
        <ele>1115</ele>
        <time>2022-05-27T10:27:49Z</time>
      </trkpt>
      <trkpt lat="44.40886" lon="3.57699">
        <ele>1115</ele>
        <time>2022-05-27T10:27:50Z</time>
      </trkpt>
      <trkpt lat="44.40887" lon="3.577">
        <ele>1115</ele>
        <time>2022-05-27T10:27:51Z</time>
      </trkpt>
      <trkpt lat="44.40888" lon="3.577">
        <ele>1115</ele>
        <time>2022-05-27T10:27:52Z</time>
      </trkpt>
      <trkpt lat="44.40889" lon="3.57701">
        <ele>1116</ele>
        <time>2022-05-27T10:27:53Z</time>
      </trkpt>
      <trkpt lat="44.4089" lon="3.57701">
        <ele>1116</ele>
        <time>2022-05-27T10:27:54Z</time>
      </trkpt>
      <trkpt lat="44.40891" lon="3.57702">
        <ele>1117</ele>
        <time>2022-05-27T10:27:55Z</time>
      </trkpt>
      <trkpt lat="44.40892" lon="3.57703">
        <ele>1117</ele>
        <time>2022-05-27T10:27:56Z</time>
      </trkpt>
      <trkpt lat="44.40892" lon="3.57704">
        <ele>1117</ele>
        <time>2022-05-27T10:27:57Z</time>
      </trkpt>
      <trkpt lat="44.40894" lon="3.57704">
        <ele>1118</ele>
        <time>2022-05-27T10:27:58Z</time>
      </trkpt>
      <trkpt lat="44.40895" lon="3.57704">
        <ele>1119</ele>
        <time>2022-05-27T10:27:59Z</time>
      </trkpt>
      <trkpt lat="44.40896" lon="3.57705">
        <ele>1119</ele>
        <time>2022-05-27T10:28:00Z</time>
      </trkpt>
      <trkpt lat="44.40897" lon="3.57705">
        <ele>1119</ele>
        <time>2022-05-27T10:28:01Z</time>
      </trkpt>
      <trkpt lat="44.40898" lon="3.57705">
        <ele>1118</ele>
        <time>2022-05-27T10:28:02Z</time>
      </trkpt>
      <trkpt lat="44.40899" lon="3.57704">
        <ele>1118</ele>
        <time>2022-05-27T10:28:03Z</time>
      </trkpt>
      <trkpt lat="44.409" lon="3.57704">
        <ele>1118</ele>
        <time>2022-05-27T10:28:04Z</time>
      </trkpt>
      <trkpt lat="44.40901" lon="3.57704">
        <ele>1118</ele>
        <time>2022-05-27T10:28:05Z</time>
      </trkpt>
      <trkpt lat="44.40903" lon="3.57704">
        <ele>1118</ele>
        <time>2022-05-27T10:28:06Z</time>
      </trkpt>
      <trkpt lat="44.40904" lon="3.57704">
        <ele>1118</ele>
        <time>2022-05-27T10:28:07Z</time>
      </trkpt>
      <trkpt lat="44.40905" lon="3.57704">
        <ele>1118</ele>
        <time>2022-05-27T10:28:08Z</time>
      </trkpt>
      <trkpt lat="44.40906" lon="3.57704">
        <ele>1118</ele>
        <time>2022-05-27T10:28:09Z</time>
      </trkpt>
      <trkpt lat="44.40907" lon="3.57704">
        <ele>1118</ele>
        <time>2022-05-27T10:28:10Z</time>
      </trkpt>
      <trkpt lat="44.40908" lon="3.57704">
        <ele>1117</ele>
        <time>2022-05-27T10:28:11Z</time>
      </trkpt>
      <trkpt lat="44.40909" lon="3.57703">
        <ele>1117</ele>
        <time>2022-05-27T10:28:12Z</time>
      </trkpt>
      <trkpt lat="44.4091" lon="3.57703">
        <ele>1117</ele>
        <time>2022-05-27T10:28:13Z</time>
      </trkpt>
      <trkpt lat="44.40911" lon="3.57703">
        <ele>1117</ele>
        <time>2022-05-27T10:28:14Z</time>
      </trkpt>
      <trkpt lat="44.40912" lon="3.57703">
        <ele>1117</ele>
        <time>2022-05-27T10:28:15Z</time>
      </trkpt>
      <trkpt lat="44.40913" lon="3.57703">
        <ele>1117</ele>
        <time>2022-05-27T10:28:16Z</time>
      </trkpt>
      <trkpt lat="44.40915" lon="3.57704">
        <ele>1116</ele>
        <time>2022-05-27T10:28:17Z</time>
      </trkpt>
      <trkpt lat="44.40916" lon="3.57704">
        <ele>1116</ele>
        <time>2022-05-27T10:28:18Z</time>
      </trkpt>
      <trkpt lat="44.40917" lon="3.57705">
        <ele>1117</ele>
        <time>2022-05-27T10:28:19Z</time>
      </trkpt>
      <trkpt lat="44.40918" lon="3.57705">
        <ele>1117</ele>
        <time>2022-05-27T10:28:20Z</time>
      </trkpt>
      <trkpt lat="44.40919" lon="3.57705">
        <ele>1117</ele>
        <time>2022-05-27T10:28:21Z</time>
      </trkpt>
      <trkpt lat="44.4092" lon="3.57704">
        <ele>1118</ele>
        <time>2022-05-27T10:28:22Z</time>
      </trkpt>
      <trkpt lat="44.40921" lon="3.57705">
        <ele>1118</ele>
        <time>2022-05-27T10:28:23Z</time>
      </trkpt>
      <trkpt lat="44.40921" lon="3.57704">
        <ele>1117</ele>
        <time>2022-05-27T10:28:24Z</time>
      </trkpt>
      <trkpt lat="44.40923" lon="3.57704">
        <ele>1117</ele>
        <time>2022-05-27T10:28:25Z</time>
      </trkpt>
      <trkpt lat="44.40924" lon="3.57703">
        <ele>1117</ele>
        <time>2022-05-27T10:28:26Z</time>
      </trkpt>
      <trkpt lat="44.40925" lon="3.57704">
        <ele>1116</ele>
        <time>2022-05-27T10:28:27Z</time>
      </trkpt>
      <trkpt lat="44.40926" lon="3.57703">
        <ele>1117</ele>
        <time>2022-05-27T10:28:28Z</time>
      </trkpt>
      <trkpt lat="44.40926" lon="3.57705">
        <ele>1117</ele>
        <time>2022-05-27T10:28:29Z</time>
      </trkpt>
      <trkpt lat="44.40928" lon="3.57705">
        <ele>1118</ele>
        <time>2022-05-27T10:28:30Z</time>
      </trkpt>
      <trkpt lat="44.40929" lon="3.57706">
        <ele>1118</ele>
        <time>2022-05-27T10:28:31Z</time>
      </trkpt>
      <trkpt lat="44.4093" lon="3.57706">
        <ele>1119</ele>
        <time>2022-05-27T10:28:32Z</time>
      </trkpt>
      <trkpt lat="44.40931" lon="3.57706">
        <ele>1119</ele>
        <time>2022-05-27T10:28:33Z</time>
      </trkpt>
      <trkpt lat="44.40933" lon="3.57706">
        <ele>1119</ele>
        <time>2022-05-27T10:28:34Z</time>
      </trkpt>
      <trkpt lat="44.40934" lon="3.57706">
        <ele>1119</ele>
        <time>2022-05-27T10:28:35Z</time>
      </trkpt>
      <trkpt lat="44.40935" lon="3.57705">
        <ele>1119</ele>
        <time>2022-05-27T10:28:36Z</time>
      </trkpt>
      <trkpt lat="44.40936" lon="3.57705">
        <ele>1120</ele>
        <time>2022-05-27T10:28:37Z</time>
      </trkpt>
      <trkpt lat="44.40937" lon="3.57704">
        <ele>1120</ele>
        <time>2022-05-27T10:28:38Z</time>
      </trkpt>
      <trkpt lat="44.40938" lon="3.57703">
        <ele>1120</ele>
        <time>2022-05-27T10:28:39Z</time>
      </trkpt>
      <trkpt lat="44.4094" lon="3.57703">
        <ele>1119</ele>
        <time>2022-05-27T10:28:40Z</time>
      </trkpt>
      <trkpt lat="44.40941" lon="3.57703">
        <ele>1118</ele>
        <time>2022-05-27T10:28:41Z</time>
      </trkpt>
      <trkpt lat="44.40943" lon="3.57703">
        <ele>1118</ele>
        <time>2022-05-27T10:28:42Z</time>
      </trkpt>
      <trkpt lat="44.40944" lon="3.57704">
        <ele>1117</ele>
        <time>2022-05-27T10:28:43Z</time>
      </trkpt>
      <trkpt lat="44.40945" lon="3.57704">
        <ele>1117</ele>
        <time>2022-05-27T10:28:44Z</time>
      </trkpt>
      <trkpt lat="44.40946" lon="3.57704">
        <ele>1118</ele>
        <time>2022-05-27T10:28:45Z</time>
      </trkpt>
      <trkpt lat="44.40947" lon="3.57704">
        <ele>1118</ele>
        <time>2022-05-27T10:28:46Z</time>
      </trkpt>
      <trkpt lat="44.40948" lon="3.57703">
        <ele>1118</ele>
        <time>2022-05-27T10:28:47Z</time>
      </trkpt>
      <trkpt lat="44.40949" lon="3.57704">
        <ele>1118</ele>
        <time>2022-05-27T10:28:48Z</time>
      </trkpt>
      <trkpt lat="44.4095" lon="3.57704">
        <ele>1119</ele>
        <time>2022-05-27T10:28:49Z</time>
      </trkpt>
      <trkpt lat="44.40951" lon="3.57705">
        <ele>1119</ele>
        <time>2022-05-27T10:28:50Z</time>
      </trkpt>
      <trkpt lat="44.40952" lon="3.57704">
        <ele>1120</ele>
        <time>2022-05-27T10:28:51Z</time>
      </trkpt>
      <trkpt lat="44.40953" lon="3.57704">
        <ele>1120</ele>
        <time>2022-05-27T10:28:52Z</time>
      </trkpt>
      <trkpt lat="44.40953" lon="3.57704">
        <ele>1120</ele>
        <time>2022-05-27T10:28:53Z</time>
      </trkpt>
      <trkpt lat="44.40955" lon="3.57703">
        <ele>1120</ele>
        <time>2022-05-27T10:28:54Z</time>
      </trkpt>
      <trkpt lat="44.40957" lon="3.57703">
        <ele>1121</ele>
        <time>2022-05-27T10:28:55Z</time>
      </trkpt>
      <trkpt lat="44.40958" lon="3.57702">
        <ele>1121</ele>
        <time>2022-05-27T10:28:56Z</time>
      </trkpt>
      <trkpt lat="44.40959" lon="3.57701">
        <ele>1121</ele>
        <time>2022-05-27T10:28:57Z</time>
      </trkpt>
      <trkpt lat="44.4096" lon="3.57701">
        <ele>1121</ele>
        <time>2022-05-27T10:28:58Z</time>
      </trkpt>
      <trkpt lat="44.40962" lon="3.57701">
        <ele>1120</ele>
        <time>2022-05-27T10:28:59Z</time>
      </trkpt>
      <trkpt lat="44.40963" lon="3.577">
        <ele>1120</ele>
        <time>2022-05-27T10:29:00Z</time>
      </trkpt>
      <trkpt lat="44.40964" lon="3.57699">
        <ele>1120</ele>
        <time>2022-05-27T10:29:01Z</time>
      </trkpt>
      <trkpt lat="44.40965" lon="3.57699">
        <ele>1119</ele>
        <time>2022-05-27T10:29:02Z</time>
      </trkpt>
      <trkpt lat="44.40966" lon="3.57699">
        <ele>1119</ele>
        <time>2022-05-27T10:29:03Z</time>
      </trkpt>
      <trkpt lat="44.40967" lon="3.57699">
        <ele>1119</ele>
        <time>2022-05-27T10:29:04Z</time>
      </trkpt>
      <trkpt lat="44.40968" lon="3.57699">
        <ele>1120</ele>
        <time>2022-05-27T10:29:05Z</time>
      </trkpt>
      <trkpt lat="44.40969" lon="3.57699">
        <ele>1121</ele>
        <time>2022-05-27T10:29:06Z</time>
      </trkpt>
      <trkpt lat="44.40971" lon="3.57698">
        <ele>1122</ele>
        <time>2022-05-27T10:29:07Z</time>
      </trkpt>
      <trkpt lat="44.40972" lon="3.57698">
        <ele>1121</ele>
        <time>2022-05-27T10:29:08Z</time>
      </trkpt>
      <trkpt lat="44.40973" lon="3.57698">
        <ele>1122</ele>
        <time>2022-05-27T10:29:09Z</time>
      </trkpt>
      <trkpt lat="44.40974" lon="3.57698">
        <ele>1122</ele>
        <time>2022-05-27T10:29:10Z</time>
      </trkpt>
      <trkpt lat="44.40975" lon="3.57698">
        <ele>1122</ele>
        <time>2022-05-27T10:29:11Z</time>
      </trkpt>
      <trkpt lat="44.40976" lon="3.57697">
        <ele>1123</ele>
        <time>2022-05-27T10:29:12Z</time>
      </trkpt>
      <trkpt lat="44.40978" lon="3.57697">
        <ele>1123</ele>
        <time>2022-05-27T10:29:13Z</time>
      </trkpt>
      <trkpt lat="44.40979" lon="3.57696">
        <ele>1123</ele>
        <time>2022-05-27T10:29:14Z</time>
      </trkpt>
      <trkpt lat="44.4098" lon="3.57695">
        <ele>1123</ele>
        <time>2022-05-27T10:29:15Z</time>
      </trkpt>
      <trkpt lat="44.40981" lon="3.57694">
        <ele>1123</ele>
        <time>2022-05-27T10:29:16Z</time>
      </trkpt>
      <trkpt lat="44.40982" lon="3.57693">
        <ele>1123</ele>
        <time>2022-05-27T10:29:17Z</time>
      </trkpt>
      <trkpt lat="44.40984" lon="3.57693">
        <ele>1122</ele>
        <time>2022-05-27T10:29:18Z</time>
      </trkpt>
      <trkpt lat="44.40984" lon="3.57692">
        <ele>1122</ele>
        <time>2022-05-27T10:29:19Z</time>
      </trkpt>
      <trkpt lat="44.40986" lon="3.57691">
        <ele>1123</ele>
        <time>2022-05-27T10:29:20Z</time>
      </trkpt>
      <trkpt lat="44.40987" lon="3.5769">
        <ele>1123</ele>
        <time>2022-05-27T10:29:21Z</time>
      </trkpt>
      <trkpt lat="44.40988" lon="3.57689">
        <ele>1122</ele>
        <time>2022-05-27T10:29:22Z</time>
      </trkpt>
      <trkpt lat="44.40989" lon="3.57689">
        <ele>1121</ele>
        <time>2022-05-27T10:29:23Z</time>
      </trkpt>
      <trkpt lat="44.4099" lon="3.57689">
        <ele>1120</ele>
        <time>2022-05-27T10:29:24Z</time>
      </trkpt>
      <trkpt lat="44.40991" lon="3.57688">
        <ele>1120</ele>
        <time>2022-05-27T10:29:25Z</time>
      </trkpt>
      <trkpt lat="44.40993" lon="3.57687">
        <ele>1120</ele>
        <time>2022-05-27T10:29:26Z</time>
      </trkpt>
      <trkpt lat="44.40994" lon="3.57687">
        <ele>1120</ele>
        <time>2022-05-27T10:29:27Z</time>
      </trkpt>
      <trkpt lat="44.40994" lon="3.57686">
        <ele>1120</ele>
        <time>2022-05-27T10:29:28Z</time>
      </trkpt>
      <trkpt lat="44.40995" lon="3.57686">
        <ele>1119</ele>
        <time>2022-05-27T10:29:29Z</time>
      </trkpt>
      <trkpt lat="44.40996" lon="3.57686">
        <ele>1118</ele>
        <time>2022-05-27T10:29:30Z</time>
      </trkpt>
      <trkpt lat="44.40996" lon="3.57686">
        <ele>1118</ele>
        <time>2022-05-27T10:29:31Z</time>
      </trkpt>
      <trkpt lat="44.40996" lon="3.57686">
        <ele>1118</ele>
        <time>2022-05-27T10:29:32Z</time>
      </trkpt>
      <trkpt lat="44.40996" lon="3.57686">
        <ele>1118</ele>
        <time>2022-05-27T10:29:33Z</time>
      </trkpt>
      <trkpt lat="44.40996" lon="3.57686">
        <ele>1118</ele>
        <time>2022-05-27T10:29:34Z</time>
      </trkpt>
      <trkpt lat="44.40996" lon="3.57686">
        <ele>1118</ele>
        <time>2022-05-27T10:29:34Z</time>
      </trkpt>
      <trkpt lat="44.40996" lon="3.57686">
        <ele>1118</ele>
        <time>2022-05-27T10:29:34Z</time>
      </trkpt>
      <trkpt lat="44.41009" lon="3.57688">
        <ele>1114</ele>
        <time>2022-05-27T10:30:34Z</time>
      </trkpt>
      <trkpt lat="44.4101" lon="3.57688">
        <ele>1114</ele>
        <time>2022-05-27T10:30:35Z</time>
      </trkpt>
      <trkpt lat="44.4101" lon="3.57689">
        <ele>1115</ele>
        <time>2022-05-27T10:30:36Z</time>
      </trkpt>
      <trkpt lat="44.41011" lon="3.5769">
        <ele>1115</ele>
        <time>2022-05-27T10:30:37Z</time>
      </trkpt>
      <trkpt lat="44.41011" lon="3.57691">
        <ele>1115</ele>
        <time>2022-05-27T10:30:38Z</time>
      </trkpt>
      <trkpt lat="44.41012" lon="3.57691">
        <ele>1116</ele>
        <time>2022-05-27T10:30:39Z</time>
      </trkpt>
      <trkpt lat="44.41012" lon="3.57692">
        <ele>1117</ele>
        <time>2022-05-27T10:30:40Z</time>
      </trkpt>
      <trkpt lat="44.41013" lon="3.57693">
        <ele>1117</ele>
        <time>2022-05-27T10:30:41Z</time>
      </trkpt>
      <trkpt lat="44.41014" lon="3.57694">
        <ele>1117</ele>
        <time>2022-05-27T10:30:42Z</time>
      </trkpt>
      <trkpt lat="44.41014" lon="3.57695">
        <ele>1117</ele>
        <time>2022-05-27T10:30:43Z</time>
      </trkpt>
      <trkpt lat="44.41014" lon="3.57696">
        <ele>1117</ele>
        <time>2022-05-27T10:30:44Z</time>
      </trkpt>
      <trkpt lat="44.41014" lon="3.57697">
        <ele>1118</ele>
        <time>2022-05-27T10:30:45Z</time>
      </trkpt>
      <trkpt lat="44.41015" lon="3.57697">
        <ele>1118</ele>
        <time>2022-05-27T10:30:46Z</time>
      </trkpt>
      <trkpt lat="44.41015" lon="3.57697">
        <ele>1118</ele>
        <time>2022-05-27T10:30:47Z</time>
      </trkpt>
      <trkpt lat="44.41015" lon="3.57697">
        <ele>1117</ele>
        <time>2022-05-27T10:30:48Z</time>
      </trkpt>
      <trkpt lat="44.41016" lon="3.57698">
        <ele>1117</ele>
        <time>2022-05-27T10:30:49Z</time>
      </trkpt>
      <trkpt lat="44.41016" lon="3.57697">
        <ele>1117</ele>
        <time>2022-05-27T10:30:50Z</time>
      </trkpt>
      <trkpt lat="44.41016" lon="3.57695">
        <ele>1117</ele>
        <time>2022-05-27T10:30:51Z</time>
      </trkpt>
      <trkpt lat="44.41018" lon="3.57695">
        <ele>1117</ele>
        <time>2022-05-27T10:30:52Z</time>
      </trkpt>
      <trkpt lat="44.41018" lon="3.57695">
        <ele>1117</ele>
        <time>2022-05-27T10:30:53Z</time>
      </trkpt>
      <trkpt lat="44.41018" lon="3.57696">
        <ele>1116</ele>
        <time>2022-05-27T10:30:54Z</time>
      </trkpt>
      <trkpt lat="44.41018" lon="3.57697">
        <ele>1116</ele>
        <time>2022-05-27T10:30:55Z</time>
      </trkpt>
      <trkpt lat="44.41019" lon="3.57697">
        <ele>1115</ele>
        <time>2022-05-27T10:30:56Z</time>
      </trkpt>
      <trkpt lat="44.41019" lon="3.57697">
        <ele>1115</ele>
        <time>2022-05-27T10:30:56Z</time>
      </trkpt>
      <trkpt lat="44.41019" lon="3.57697">
        <ele>1115</ele>
        <time>2022-05-27T10:30:56Z</time>
      </trkpt>
      <trkpt lat="44.41021" lon="3.57689">
        <ele>1122</ele>
        <time>2022-05-27T11:17:11Z</time>
      </trkpt>
      <trkpt lat="44.41021" lon="3.57688">
        <ele>1122</ele>
        <time>2022-05-27T11:17:12Z</time>
      </trkpt>
      <trkpt lat="44.41021" lon="3.57688">
        <ele>1122</ele>
        <time>2022-05-27T11:17:13Z</time>
      </trkpt>
      <trkpt lat="44.41021" lon="3.57688">
        <ele>1121</ele>
        <time>2022-05-27T11:17:14Z</time>
      </trkpt>
      <trkpt lat="44.41021" lon="3.57688">
        <ele>1122</ele>
        <time>2022-05-27T11:17:15Z</time>
      </trkpt>
      <trkpt lat="44.41021" lon="3.57687">
        <ele>1122</ele>
        <time>2022-05-27T11:17:16Z</time>
      </trkpt>
      <trkpt lat="44.41021" lon="3.57686">
        <ele>1121</ele>
        <time>2022-05-27T11:17:17Z</time>
      </trkpt>
      <trkpt lat="44.4102" lon="3.57686">
        <ele>1121</ele>
        <time>2022-05-27T11:17:18Z</time>
      </trkpt>
      <trkpt lat="44.4102" lon="3.57685">
        <ele>1120</ele>
        <time>2022-05-27T11:17:19Z</time>
      </trkpt>
      <trkpt lat="44.41021" lon="3.57684">
        <ele>1120</ele>
        <time>2022-05-27T11:17:20Z</time>
      </trkpt>
      <trkpt lat="44.41021" lon="3.57684">
        <ele>1121</ele>
        <time>2022-05-27T11:17:21Z</time>
      </trkpt>
      <trkpt lat="44.41021" lon="3.57683">
        <ele>1121</ele>
        <time>2022-05-27T11:17:22Z</time>
      </trkpt>
      <trkpt lat="44.41021" lon="3.57683">
        <ele>1121</ele>
        <time>2022-05-27T11:17:23Z</time>
      </trkpt>
      <trkpt lat="44.41021" lon="3.57683">
        <ele>1121</ele>
        <time>2022-05-27T11:17:24Z</time>
      </trkpt>
      <trkpt lat="44.41021" lon="3.57683">
        <ele>1121</ele>
        <time>2022-05-27T11:17:24Z</time>
      </trkpt>
      <trkpt lat="44.41021" lon="3.57683">
        <ele>1121</ele>
        <time>2022-05-27T11:17:24Z</time>
      </trkpt>
      <trkpt lat="44.41023" lon="3.57676">
        <ele>1115</ele>
        <time>2022-05-27T11:17:54Z</time>
      </trkpt>
      <trkpt lat="44.41023" lon="3.57676">
        <ele>1115</ele>
        <time>2022-05-27T11:17:55Z</time>
      </trkpt>
      <trkpt lat="44.41023" lon="3.57675">
        <ele>1115</ele>
        <time>2022-05-27T11:17:56Z</time>
      </trkpt>
      <trkpt lat="44.41024" lon="3.57675">
        <ele>1115</ele>
        <time>2022-05-27T11:17:57Z</time>
      </trkpt>
      <trkpt lat="44.41024" lon="3.57674">
        <ele>1115</ele>
        <time>2022-05-27T11:17:58Z</time>
      </trkpt>
      <trkpt lat="44.41025" lon="3.57673">
        <ele>1115</ele>
        <time>2022-05-27T11:17:59Z</time>
      </trkpt>
      <trkpt lat="44.41025" lon="3.57673">
        <ele>1116</ele>
        <time>2022-05-27T11:18:00Z</time>
      </trkpt>
      <trkpt lat="44.41026" lon="3.57672">
        <ele>1116</ele>
        <time>2022-05-27T11:18:01Z</time>
      </trkpt>
      <trkpt lat="44.41026" lon="3.57672">
        <ele>1117</ele>
        <time>2022-05-27T11:18:02Z</time>
      </trkpt>
      <trkpt lat="44.41027" lon="3.57672">
        <ele>1117</ele>
        <time>2022-05-27T11:18:03Z</time>
      </trkpt>
      <trkpt lat="44.41028" lon="3.57672">
        <ele>1117</ele>
        <time>2022-05-27T11:18:04Z</time>
      </trkpt>
      <trkpt lat="44.41029" lon="3.57672">
        <ele>1117</ele>
        <time>2022-05-27T11:18:05Z</time>
      </trkpt>
      <trkpt lat="44.41029" lon="3.57672">
        <ele>1117</ele>
        <time>2022-05-27T11:18:06Z</time>
      </trkpt>
      <trkpt lat="44.4103" lon="3.57671">
        <ele>1117</ele>
        <time>2022-05-27T11:18:07Z</time>
      </trkpt>
      <trkpt lat="44.41031" lon="3.57671">
        <ele>1117</ele>
        <time>2022-05-27T11:18:08Z</time>
      </trkpt>
      <trkpt lat="44.41032" lon="3.57671">
        <ele>1118</ele>
        <time>2022-05-27T11:18:09Z</time>
      </trkpt>
      <trkpt lat="44.41032" lon="3.5767">
        <ele>1118</ele>
        <time>2022-05-27T11:18:10Z</time>
      </trkpt>
      <trkpt lat="44.41033" lon="3.5767">
        <ele>1118</ele>
        <time>2022-05-27T11:18:11Z</time>
      </trkpt>
      <trkpt lat="44.41033" lon="3.57669">
        <ele>1118</ele>
        <time>2022-05-27T11:18:12Z</time>
      </trkpt>
      <trkpt lat="44.41034" lon="3.57668">
        <ele>1117</ele>
        <time>2022-05-27T11:18:13Z</time>
      </trkpt>
      <trkpt lat="44.41034" lon="3.57668">
        <ele>1117</ele>
        <time>2022-05-27T11:18:14Z</time>
      </trkpt>
      <trkpt lat="44.41035" lon="3.57668">
        <ele>1117</ele>
        <time>2022-05-27T11:18:15Z</time>
      </trkpt>
      <trkpt lat="44.41036" lon="3.57667">
        <ele>1117</ele>
        <time>2022-05-27T11:18:16Z</time>
      </trkpt>
      <trkpt lat="44.41037" lon="3.57667">
        <ele>1117</ele>
        <time>2022-05-27T11:18:17Z</time>
      </trkpt>
      <trkpt lat="44.41038" lon="3.57667">
        <ele>1117</ele>
        <time>2022-05-27T11:18:18Z</time>
      </trkpt>
      <trkpt lat="44.41039" lon="3.57666">
        <ele>1116</ele>
        <time>2022-05-27T11:18:19Z</time>
      </trkpt>
      <trkpt lat="44.4104" lon="3.57665">
        <ele>1116</ele>
        <time>2022-05-27T11:18:20Z</time>
      </trkpt>
      <trkpt lat="44.4104" lon="3.57665">
        <ele>1116</ele>
        <time>2022-05-27T11:18:21Z</time>
      </trkpt>
      <trkpt lat="44.41041" lon="3.57664">
        <ele>1117</ele>
        <time>2022-05-27T11:18:22Z</time>
      </trkpt>
      <trkpt lat="44.41042" lon="3.57663">
        <ele>1117</ele>
        <time>2022-05-27T11:18:23Z</time>
      </trkpt>
      <trkpt lat="44.41042" lon="3.57663">
        <ele>1116</ele>
        <time>2022-05-27T11:18:24Z</time>
      </trkpt>
      <trkpt lat="44.41043" lon="3.57663">
        <ele>1116</ele>
        <time>2022-05-27T11:18:25Z</time>
      </trkpt>
      <trkpt lat="44.41044" lon="3.57663">
        <ele>1116</ele>
        <time>2022-05-27T11:18:26Z</time>
      </trkpt>
      <trkpt lat="44.41044" lon="3.57663">
        <ele>1116</ele>
        <time>2022-05-27T11:18:27Z</time>
      </trkpt>
      <trkpt lat="44.41044" lon="3.57663">
        <ele>1116</ele>
        <time>2022-05-27T11:18:28Z</time>
      </trkpt>
      <trkpt lat="44.41045" lon="3.57661">
        <ele>1115</ele>
        <time>2022-05-27T11:18:29Z</time>
      </trkpt>
      <trkpt lat="44.41046" lon="3.57659">
        <ele>1114</ele>
        <time>2022-05-27T11:18:30Z</time>
      </trkpt>
      <trkpt lat="44.41046" lon="3.57658">
        <ele>1114</ele>
        <time>2022-05-27T11:18:31Z</time>
      </trkpt>
      <trkpt lat="44.41047" lon="3.57657">
        <ele>1115</ele>
        <time>2022-05-27T11:18:32Z</time>
      </trkpt>
      <trkpt lat="44.41048" lon="3.57656">
        <ele>1114</ele>
        <time>2022-05-27T11:18:33Z</time>
      </trkpt>
      <trkpt lat="44.41049" lon="3.57655">
        <ele>1114</ele>
        <time>2022-05-27T11:18:34Z</time>
      </trkpt>
      <trkpt lat="44.4105" lon="3.57655">
        <ele>1113</ele>
        <time>2022-05-27T11:18:35Z</time>
      </trkpt>
      <trkpt lat="44.4105" lon="3.57654">
        <ele>1113</ele>
        <time>2022-05-27T11:18:36Z</time>
      </trkpt>
      <trkpt lat="44.41051" lon="3.57654">
        <ele>1113</ele>
        <time>2022-05-27T11:18:37Z</time>
      </trkpt>
      <trkpt lat="44.41052" lon="3.57653">
        <ele>1113</ele>
        <time>2022-05-27T11:18:38Z</time>
      </trkpt>
      <trkpt lat="44.41052" lon="3.57653">
        <ele>1114</ele>
        <time>2022-05-27T11:18:39Z</time>
      </trkpt>
      <trkpt lat="44.41053" lon="3.57652">
        <ele>1114</ele>
        <time>2022-05-27T11:18:40Z</time>
      </trkpt>
      <trkpt lat="44.41053" lon="3.57652">
        <ele>1114</ele>
        <time>2022-05-27T11:18:41Z</time>
      </trkpt>
      <trkpt lat="44.41054" lon="3.57651">
        <ele>1113</ele>
        <time>2022-05-27T11:18:42Z</time>
      </trkpt>
      <trkpt lat="44.41054" lon="3.5765">
        <ele>1113</ele>
        <time>2022-05-27T11:18:43Z</time>
      </trkpt>
      <trkpt lat="44.41055" lon="3.57649">
        <ele>1113</ele>
        <time>2022-05-27T11:18:44Z</time>
      </trkpt>
      <trkpt lat="44.41056" lon="3.57647">
        <ele>1113</ele>
        <time>2022-05-27T11:18:45Z</time>
      </trkpt>
      <trkpt lat="44.41057" lon="3.57646">
        <ele>1112</ele>
        <time>2022-05-27T11:18:46Z</time>
      </trkpt>
      <trkpt lat="44.41058" lon="3.57645">
        <ele>1112</ele>
        <time>2022-05-27T11:18:47Z</time>
      </trkpt>
      <trkpt lat="44.41058" lon="3.57644">
        <ele>1112</ele>
        <time>2022-05-27T11:18:48Z</time>
      </trkpt>
      <trkpt lat="44.41059" lon="3.57644">
        <ele>1111</ele>
        <time>2022-05-27T11:18:49Z</time>
      </trkpt>
      <trkpt lat="44.4106" lon="3.57643">
        <ele>1111</ele>
        <time>2022-05-27T11:18:50Z</time>
      </trkpt>
      <trkpt lat="44.41061" lon="3.57642">
        <ele>1110</ele>
        <time>2022-05-27T11:18:51Z</time>
      </trkpt>
      <trkpt lat="44.41062" lon="3.57642">
        <ele>1110</ele>
        <time>2022-05-27T11:18:52Z</time>
      </trkpt>
      <trkpt lat="44.41063" lon="3.57641">
        <ele>1109</ele>
        <time>2022-05-27T11:18:53Z</time>
      </trkpt>
      <trkpt lat="44.41065" lon="3.57641">
        <ele>1109</ele>
        <time>2022-05-27T11:18:54Z</time>
      </trkpt>
      <trkpt lat="44.41066" lon="3.57641">
        <ele>1108</ele>
        <time>2022-05-27T11:18:55Z</time>
      </trkpt>
      <trkpt lat="44.41067" lon="3.57642">
        <ele>1109</ele>
        <time>2022-05-27T11:18:56Z</time>
      </trkpt>
      <trkpt lat="44.41068" lon="3.57643">
        <ele>1108</ele>
        <time>2022-05-27T11:18:57Z</time>
      </trkpt>
      <trkpt lat="44.41068" lon="3.57642">
        <ele>1108</ele>
        <time>2022-05-27T11:18:58Z</time>
      </trkpt>
      <trkpt lat="44.41069" lon="3.57642">
        <ele>1107</ele>
        <time>2022-05-27T11:18:59Z</time>
      </trkpt>
      <trkpt lat="44.4107" lon="3.57643">
        <ele>1107</ele>
        <time>2022-05-27T11:19:00Z</time>
      </trkpt>
      <trkpt lat="44.4107" lon="3.57643">
        <ele>1107</ele>
        <time>2022-05-27T11:19:01Z</time>
      </trkpt>
      <trkpt lat="44.41071" lon="3.57642">
        <ele>1108</ele>
        <time>2022-05-27T11:19:02Z</time>
      </trkpt>
      <trkpt lat="44.41071" lon="3.57641">
        <ele>1108</ele>
        <time>2022-05-27T11:19:03Z</time>
      </trkpt>
      <trkpt lat="44.41071" lon="3.5764">
        <ele>1107</ele>
        <time>2022-05-27T11:19:04Z</time>
      </trkpt>
      <trkpt lat="44.41071" lon="3.5764">
        <ele>1106</ele>
        <time>2022-05-27T11:19:05Z</time>
      </trkpt>
      <trkpt lat="44.41071" lon="3.5764">
        <ele>1106</ele>
        <time>2022-05-27T11:19:06Z</time>
      </trkpt>
      <trkpt lat="44.41071" lon="3.5764">
        <ele>1106</ele>
        <time>2022-05-27T11:19:06Z</time>
      </trkpt>
      <trkpt lat="44.41071" lon="3.5764">
        <ele>1106</ele>
        <time>2022-05-27T11:19:06Z</time>
      </trkpt>
      <trkpt lat="44.41075" lon="3.57643">
        <ele>1105</ele>
        <time>2022-05-27T11:19:12Z</time>
      </trkpt>
      <trkpt lat="44.41076" lon="3.57642">
        <ele>1105</ele>
        <time>2022-05-27T11:19:13Z</time>
      </trkpt>
      <trkpt lat="44.41076" lon="3.57643">
        <ele>1104</ele>
        <time>2022-05-27T11:19:14Z</time>
      </trkpt>
      <trkpt lat="44.41077" lon="3.57643">
        <ele>1105</ele>
        <time>2022-05-27T11:19:15Z</time>
      </trkpt>
      <trkpt lat="44.41077" lon="3.57643">
        <ele>1106</ele>
        <time>2022-05-27T11:19:16Z</time>
      </trkpt>
      <trkpt lat="44.41077" lon="3.57643">
        <ele>1106</ele>
        <time>2022-05-27T11:19:17Z</time>
      </trkpt>
      <trkpt lat="44.41079" lon="3.57643">
        <ele>1106</ele>
        <time>2022-05-27T11:19:18Z</time>
      </trkpt>
      <trkpt lat="44.4108" lon="3.57644">
        <ele>1106</ele>
        <time>2022-05-27T11:19:19Z</time>
      </trkpt>
      <trkpt lat="44.41081" lon="3.57645">
        <ele>1106</ele>
        <time>2022-05-27T11:19:20Z</time>
      </trkpt>
      <trkpt lat="44.41081" lon="3.57645">
        <ele>1107</ele>
        <time>2022-05-27T11:19:21Z</time>
      </trkpt>
      <trkpt lat="44.41083" lon="3.57646">
        <ele>1107</ele>
        <time>2022-05-27T11:19:22Z</time>
      </trkpt>
      <trkpt lat="44.41084" lon="3.57647">
        <ele>1108</ele>
        <time>2022-05-27T11:19:23Z</time>
      </trkpt>
      <trkpt lat="44.41086" lon="3.57647">
        <ele>1108</ele>
        <time>2022-05-27T11:19:24Z</time>
      </trkpt>
      <trkpt lat="44.41087" lon="3.57647">
        <ele>1107</ele>
        <time>2022-05-27T11:19:25Z</time>
      </trkpt>
      <trkpt lat="44.41089" lon="3.57648">
        <ele>1108</ele>
        <time>2022-05-27T11:19:26Z</time>
      </trkpt>
      <trkpt lat="44.4109" lon="3.57649">
        <ele>1108</ele>
        <time>2022-05-27T11:19:27Z</time>
      </trkpt>
      <trkpt lat="44.41091" lon="3.57649">
        <ele>1108</ele>
        <time>2022-05-27T11:19:28Z</time>
      </trkpt>
      <trkpt lat="44.41092" lon="3.5765">
        <ele>1108</ele>
        <time>2022-05-27T11:19:29Z</time>
      </trkpt>
      <trkpt lat="44.41094" lon="3.5765">
        <ele>1108</ele>
        <time>2022-05-27T11:19:30Z</time>
      </trkpt>
      <trkpt lat="44.41095" lon="3.5765">
        <ele>1108</ele>
        <time>2022-05-27T11:19:31Z</time>
      </trkpt>
      <trkpt lat="44.41097" lon="3.5765">
        <ele>1108</ele>
        <time>2022-05-27T11:19:32Z</time>
      </trkpt>
      <trkpt lat="44.41098" lon="3.5765">
        <ele>1108</ele>
        <time>2022-05-27T11:19:33Z</time>
      </trkpt>
      <trkpt lat="44.41099" lon="3.5765">
        <ele>1108</ele>
        <time>2022-05-27T11:19:34Z</time>
      </trkpt>
      <trkpt lat="44.411" lon="3.5765">
        <ele>1108</ele>
        <time>2022-05-27T11:19:35Z</time>
      </trkpt>
      <trkpt lat="44.41101" lon="3.5765">
        <ele>1107</ele>
        <time>2022-05-27T11:19:36Z</time>
      </trkpt>
      <trkpt lat="44.41102" lon="3.57651">
        <ele>1107</ele>
        <time>2022-05-27T11:19:37Z</time>
      </trkpt>
      <trkpt lat="44.41103" lon="3.57651">
        <ele>1107</ele>
        <time>2022-05-27T11:19:38Z</time>
      </trkpt>
      <trkpt lat="44.41103" lon="3.57651">
        <ele>1107</ele>
        <time>2022-05-27T11:19:39Z</time>
      </trkpt>
      <trkpt lat="44.41104" lon="3.5765">
        <ele>1107</ele>
        <time>2022-05-27T11:19:40Z</time>
      </trkpt>
      <trkpt lat="44.41104" lon="3.5765">
        <ele>1107</ele>
        <time>2022-05-27T11:19:41Z</time>
      </trkpt>
      <trkpt lat="44.41103" lon="3.57649">
        <ele>1107</ele>
        <time>2022-05-27T11:19:42Z</time>
      </trkpt>
      <trkpt lat="44.41103" lon="3.57649">
        <ele>1107</ele>
        <time>2022-05-27T11:19:43Z</time>
      </trkpt>
      <trkpt lat="44.41103" lon="3.57649">
        <ele>1107</ele>
        <time>2022-05-27T11:19:44Z</time>
      </trkpt>
      <trkpt lat="44.41103" lon="3.57648">
        <ele>1107</ele>
        <time>2022-05-27T11:19:45Z</time>
      </trkpt>
      <trkpt lat="44.41103" lon="3.57648">
        <ele>1107</ele>
        <time>2022-05-27T11:19:46Z</time>
      </trkpt>
      <trkpt lat="44.41103" lon="3.57647">
        <ele>1107</ele>
        <time>2022-05-27T11:19:47Z</time>
      </trkpt>
      <trkpt lat="44.41103" lon="3.57647">
        <ele>1107</ele>
        <time>2022-05-27T11:19:48Z</time>
      </trkpt>
      <trkpt lat="44.41103" lon="3.57647">
        <ele>1107</ele>
        <time>2022-05-27T11:19:48Z</time>
      </trkpt>
      <trkpt lat="44.41103" lon="3.57647">
        <ele>1107</ele>
        <time>2022-05-27T11:19:50Z</time>
      </trkpt>
      <trkpt lat="44.41103" lon="3.57647">
        <ele>1107</ele>
        <time>2022-05-27T11:19:50Z</time>
      </trkpt>
      <trkpt lat="44.41103" lon="3.57647">
        <ele>1107</ele>
        <time>2022-05-27T11:19:52Z</time>
      </trkpt>
      <trkpt lat="44.41103" lon="3.57647">
        <ele>1107</ele>
        <time>2022-05-27T11:19:52Z</time>
      </trkpt>
      <trkpt lat="44.41103" lon="3.57647">
        <ele>1107</ele>
        <time>2022-05-27T11:19:52Z</time>
      </trkpt>
      <trkpt lat="44.41109" lon="3.57648">
        <ele>1108</ele>
        <time>2022-05-27T11:20:06Z</time>
      </trkpt>
      <trkpt lat="44.4111" lon="3.57648">
        <ele>1108</ele>
        <time>2022-05-27T11:20:07Z</time>
      </trkpt>
      <trkpt lat="44.41111" lon="3.57649">
        <ele>1108</ele>
        <time>2022-05-27T11:20:08Z</time>
      </trkpt>
      <trkpt lat="44.41112" lon="3.57649">
        <ele>1108</ele>
        <time>2022-05-27T11:20:09Z</time>
      </trkpt>
      <trkpt lat="44.41113" lon="3.57648">
        <ele>1108</ele>
        <time>2022-05-27T11:20:10Z</time>
      </trkpt>
      <trkpt lat="44.41114" lon="3.57649">
        <ele>1108</ele>
        <time>2022-05-27T11:20:11Z</time>
      </trkpt>
      <trkpt lat="44.41114" lon="3.57648">
        <ele>1108</ele>
        <time>2022-05-27T11:20:12Z</time>
      </trkpt>
      <trkpt lat="44.41115" lon="3.57648">
        <ele>1108</ele>
        <time>2022-05-27T11:20:13Z</time>
      </trkpt>
      <trkpt lat="44.41115" lon="3.57647">
        <ele>1107</ele>
        <time>2022-05-27T11:20:14Z</time>
      </trkpt>
      <trkpt lat="44.41116" lon="3.57647">
        <ele>1107</ele>
        <time>2022-05-27T11:20:15Z</time>
      </trkpt>
      <trkpt lat="44.41118" lon="3.57647">
        <ele>1107</ele>
        <time>2022-05-27T11:20:16Z</time>
      </trkpt>
      <trkpt lat="44.41119" lon="3.57647">
        <ele>1107</ele>
        <time>2022-05-27T11:20:17Z</time>
      </trkpt>
      <trkpt lat="44.41119" lon="3.57646">
        <ele>1106</ele>
        <time>2022-05-27T11:20:18Z</time>
      </trkpt>
      <trkpt lat="44.4112" lon="3.57646">
        <ele>1106</ele>
        <time>2022-05-27T11:20:19Z</time>
      </trkpt>
      <trkpt lat="44.41121" lon="3.57646">
        <ele>1106</ele>
        <time>2022-05-27T11:20:20Z</time>
      </trkpt>
      <trkpt lat="44.41122" lon="3.57645">
        <ele>1107</ele>
        <time>2022-05-27T11:20:21Z</time>
      </trkpt>
      <trkpt lat="44.41122" lon="3.57645">
        <ele>1107</ele>
        <time>2022-05-27T11:20:22Z</time>
      </trkpt>
      <trkpt lat="44.41123" lon="3.57645">
        <ele>1107</ele>
        <time>2022-05-27T11:20:23Z</time>
      </trkpt>
      <trkpt lat="44.41124" lon="3.57644">
        <ele>1107</ele>
        <time>2022-05-27T11:20:24Z</time>
      </trkpt>
      <trkpt lat="44.41124" lon="3.57643">
        <ele>1107</ele>
        <time>2022-05-27T11:20:25Z</time>
      </trkpt>
      <trkpt lat="44.41125" lon="3.57643">
        <ele>1107</ele>
        <time>2022-05-27T11:20:26Z</time>
      </trkpt>
      <trkpt lat="44.41126" lon="3.57642">
        <ele>1107</ele>
        <time>2022-05-27T11:20:27Z</time>
      </trkpt>
      <trkpt lat="44.41127" lon="3.57642">
        <ele>1106</ele>
        <time>2022-05-27T11:20:28Z</time>
      </trkpt>
      <trkpt lat="44.41128" lon="3.57642">
        <ele>1106</ele>
        <time>2022-05-27T11:20:29Z</time>
      </trkpt>
      <trkpt lat="44.41129" lon="3.57641">
        <ele>1106</ele>
        <time>2022-05-27T11:20:30Z</time>
      </trkpt>
      <trkpt lat="44.41129" lon="3.5764">
        <ele>1105</ele>
        <time>2022-05-27T11:20:31Z</time>
      </trkpt>
      <trkpt lat="44.4113" lon="3.57639">
        <ele>1105</ele>
        <time>2022-05-27T11:20:32Z</time>
      </trkpt>
      <trkpt lat="44.41131" lon="3.57638">
        <ele>1104</ele>
        <time>2022-05-27T11:20:33Z</time>
      </trkpt>
      <trkpt lat="44.41132" lon="3.57637">
        <ele>1104</ele>
        <time>2022-05-27T11:20:34Z</time>
      </trkpt>
      <trkpt lat="44.41133" lon="3.57636">
        <ele>1105</ele>
        <time>2022-05-27T11:20:35Z</time>
      </trkpt>
      <trkpt lat="44.41134" lon="3.57635">
        <ele>1104</ele>
        <time>2022-05-27T11:20:36Z</time>
      </trkpt>
      <trkpt lat="44.41134" lon="3.57633">
        <ele>1104</ele>
        <time>2022-05-27T11:20:37Z</time>
      </trkpt>
      <trkpt lat="44.41135" lon="3.57631">
        <ele>1103</ele>
        <time>2022-05-27T11:20:38Z</time>
      </trkpt>
      <trkpt lat="44.41135" lon="3.5763">
        <ele>1102</ele>
        <time>2022-05-27T11:20:39Z</time>
      </trkpt>
      <trkpt lat="44.41135" lon="3.57629">
        <ele>1102</ele>
        <time>2022-05-27T11:20:40Z</time>
      </trkpt>
      <trkpt lat="44.41136" lon="3.57628">
        <ele>1102</ele>
        <time>2022-05-27T11:20:41Z</time>
      </trkpt>
      <trkpt lat="44.41136" lon="3.57627">
        <ele>1102</ele>
        <time>2022-05-27T11:20:42Z</time>
      </trkpt>
      <trkpt lat="44.41137" lon="3.57625">
        <ele>1102</ele>
        <time>2022-05-27T11:20:43Z</time>
      </trkpt>
      <trkpt lat="44.41137" lon="3.57623">
        <ele>1102</ele>
        <time>2022-05-27T11:20:44Z</time>
      </trkpt>
      <trkpt lat="44.41138" lon="3.57622">
        <ele>1102</ele>
        <time>2022-05-27T11:20:45Z</time>
      </trkpt>
      <trkpt lat="44.41139" lon="3.57621">
        <ele>1101</ele>
        <time>2022-05-27T11:20:46Z</time>
      </trkpt>
      <trkpt lat="44.41139" lon="3.57619">
        <ele>1101</ele>
        <time>2022-05-27T11:20:47Z</time>
      </trkpt>
      <trkpt lat="44.4114" lon="3.57617">
        <ele>1101</ele>
        <time>2022-05-27T11:20:48Z</time>
      </trkpt>
      <trkpt lat="44.4114" lon="3.57615">
        <ele>1100</ele>
        <time>2022-05-27T11:20:49Z</time>
      </trkpt>
      <trkpt lat="44.4114" lon="3.57614">
        <ele>1100</ele>
        <time>2022-05-27T11:20:50Z</time>
      </trkpt>
      <trkpt lat="44.41141" lon="3.57613">
        <ele>1100</ele>
        <time>2022-05-27T11:20:51Z</time>
      </trkpt>
      <trkpt lat="44.41141" lon="3.57611">
        <ele>1100</ele>
        <time>2022-05-27T11:20:52Z</time>
      </trkpt>
      <trkpt lat="44.41141" lon="3.5761">
        <ele>1100</ele>
        <time>2022-05-27T11:20:53Z</time>
      </trkpt>
      <trkpt lat="44.41142" lon="3.57608">
        <ele>1101</ele>
        <time>2022-05-27T11:20:54Z</time>
      </trkpt>
      <trkpt lat="44.41142" lon="3.57607">
        <ele>1101</ele>
        <time>2022-05-27T11:20:55Z</time>
      </trkpt>
      <trkpt lat="44.41142" lon="3.57605">
        <ele>1101</ele>
        <time>2022-05-27T11:20:56Z</time>
      </trkpt>
      <trkpt lat="44.41143" lon="3.57602">
        <ele>1101</ele>
        <time>2022-05-27T11:20:57Z</time>
      </trkpt>
      <trkpt lat="44.41143" lon="3.57601">
        <ele>1102</ele>
        <time>2022-05-27T11:20:58Z</time>
      </trkpt>
      <trkpt lat="44.41143" lon="3.57599">
        <ele>1102</ele>
        <time>2022-05-27T11:20:59Z</time>
      </trkpt>
      <trkpt lat="44.41143" lon="3.57597">
        <ele>1102</ele>
        <time>2022-05-27T11:21:00Z</time>
      </trkpt>
      <trkpt lat="44.41143" lon="3.57595">
        <ele>1103</ele>
        <time>2022-05-27T11:21:01Z</time>
      </trkpt>
      <trkpt lat="44.41144" lon="3.57594">
        <ele>1103</ele>
        <time>2022-05-27T11:21:02Z</time>
      </trkpt>
      <trkpt lat="44.41144" lon="3.57593">
        <ele>1103</ele>
        <time>2022-05-27T11:21:03Z</time>
      </trkpt>
      <trkpt lat="44.41143" lon="3.57592">
        <ele>1102</ele>
        <time>2022-05-27T11:21:04Z</time>
      </trkpt>
      <trkpt lat="44.41143" lon="3.57591">
        <ele>1102</ele>
        <time>2022-05-27T11:21:05Z</time>
      </trkpt>
      <trkpt lat="44.41143" lon="3.5759">
        <ele>1102</ele>
        <time>2022-05-27T11:21:06Z</time>
      </trkpt>
      <trkpt lat="44.41143" lon="3.5759">
        <ele>1102</ele>
        <time>2022-05-27T11:21:07Z</time>
      </trkpt>
      <trkpt lat="44.41143" lon="3.57589">
        <ele>1102</ele>
        <time>2022-05-27T11:21:08Z</time>
      </trkpt>
      <trkpt lat="44.41143" lon="3.57588">
        <ele>1101</ele>
        <time>2022-05-27T11:21:09Z</time>
      </trkpt>
      <trkpt lat="44.41143" lon="3.57588">
        <ele>1101</ele>
        <time>2022-05-27T11:21:09Z</time>
      </trkpt>
      <trkpt lat="44.41143" lon="3.57588">
        <ele>1101</ele>
        <time>2022-05-27T11:21:09Z</time>
      </trkpt>
      <trkpt lat="44.41146" lon="3.57583">
        <ele>1100</ele>
        <time>2022-05-27T11:21:46Z</time>
      </trkpt>
      <trkpt lat="44.41146" lon="3.57581">
        <ele>1099</ele>
        <time>2022-05-27T11:21:47Z</time>
      </trkpt>
      <trkpt lat="44.41147" lon="3.5758">
        <ele>1099</ele>
        <time>2022-05-27T11:21:48Z</time>
      </trkpt>
      <trkpt lat="44.41147" lon="3.57579">
        <ele>1099</ele>
        <time>2022-05-27T11:21:49Z</time>
      </trkpt>
      <trkpt lat="44.41147" lon="3.57577">
        <ele>1099</ele>
        <time>2022-05-27T11:21:50Z</time>
      </trkpt>
      <trkpt lat="44.41148" lon="3.57575">
        <ele>1099</ele>
        <time>2022-05-27T11:21:51Z</time>
      </trkpt>
      <trkpt lat="44.41148" lon="3.57574">
        <ele>1099</ele>
        <time>2022-05-27T11:21:52Z</time>
      </trkpt>
      <trkpt lat="44.41148" lon="3.57572">
        <ele>1099</ele>
        <time>2022-05-27T11:21:53Z</time>
      </trkpt>
      <trkpt lat="44.41148" lon="3.57571">
        <ele>1099</ele>
        <time>2022-05-27T11:21:54Z</time>
      </trkpt>
      <trkpt lat="44.41149" lon="3.57569">
        <ele>1099</ele>
        <time>2022-05-27T11:21:55Z</time>
      </trkpt>
      <trkpt lat="44.41149" lon="3.57568">
        <ele>1099</ele>
        <time>2022-05-27T11:21:56Z</time>
      </trkpt>
      <trkpt lat="44.4115" lon="3.57567">
        <ele>1099</ele>
        <time>2022-05-27T11:21:57Z</time>
      </trkpt>
      <trkpt lat="44.4115" lon="3.57566">
        <ele>1099</ele>
        <time>2022-05-27T11:21:58Z</time>
      </trkpt>
      <trkpt lat="44.41151" lon="3.57564">
        <ele>1099</ele>
        <time>2022-05-27T11:21:59Z</time>
      </trkpt>
      <trkpt lat="44.41151" lon="3.57563">
        <ele>1099</ele>
        <time>2022-05-27T11:22:00Z</time>
      </trkpt>
      <trkpt lat="44.41151" lon="3.57562">
        <ele>1099</ele>
        <time>2022-05-27T11:22:01Z</time>
      </trkpt>
      <trkpt lat="44.41152" lon="3.5756">
        <ele>1098</ele>
        <time>2022-05-27T11:22:02Z</time>
      </trkpt>
      <trkpt lat="44.41153" lon="3.57559">
        <ele>1098</ele>
        <time>2022-05-27T11:22:03Z</time>
      </trkpt>
      <trkpt lat="44.41153" lon="3.57558">
        <ele>1097</ele>
        <time>2022-05-27T11:22:04Z</time>
      </trkpt>
      <trkpt lat="44.41153" lon="3.57557">
        <ele>1097</ele>
        <time>2022-05-27T11:22:05Z</time>
      </trkpt>
      <trkpt lat="44.41154" lon="3.57556">
        <ele>1097</ele>
        <time>2022-05-27T11:22:06Z</time>
      </trkpt>
      <trkpt lat="44.41154" lon="3.57555">
        <ele>1099</ele>
        <time>2022-05-27T11:22:07Z</time>
      </trkpt>
      <trkpt lat="44.41154" lon="3.57553">
        <ele>1099</ele>
        <time>2022-05-27T11:22:08Z</time>
      </trkpt>
      <trkpt lat="44.41155" lon="3.5755">
        <ele>1099</ele>
        <time>2022-05-27T11:22:09Z</time>
      </trkpt>
      <trkpt lat="44.41156" lon="3.57548">
        <ele>1100</ele>
        <time>2022-05-27T11:22:10Z</time>
      </trkpt>
      <trkpt lat="44.41156" lon="3.57546">
        <ele>1100</ele>
        <time>2022-05-27T11:22:11Z</time>
      </trkpt>
      <trkpt lat="44.41156" lon="3.57544">
        <ele>1099</ele>
        <time>2022-05-27T11:22:12Z</time>
      </trkpt>
      <trkpt lat="44.41156" lon="3.57543">
        <ele>1100</ele>
        <time>2022-05-27T11:22:13Z</time>
      </trkpt>
      <trkpt lat="44.41156" lon="3.57542">
        <ele>1101</ele>
        <time>2022-05-27T11:22:14Z</time>
      </trkpt>
      <trkpt lat="44.41155" lon="3.57541">
        <ele>1101</ele>
        <time>2022-05-27T11:22:15Z</time>
      </trkpt>
      <trkpt lat="44.41155" lon="3.57539">
        <ele>1101</ele>
        <time>2022-05-27T11:22:16Z</time>
      </trkpt>
      <trkpt lat="44.41155" lon="3.57538">
        <ele>1101</ele>
        <time>2022-05-27T11:22:17Z</time>
      </trkpt>
      <trkpt lat="44.41153" lon="3.57536">
        <ele>1102</ele>
        <time>2022-05-27T11:22:18Z</time>
      </trkpt>
      <trkpt lat="44.41153" lon="3.57535">
        <ele>1102</ele>
        <time>2022-05-27T11:22:19Z</time>
      </trkpt>
      <trkpt lat="44.41154" lon="3.57533">
        <ele>1101</ele>
        <time>2022-05-27T11:22:20Z</time>
      </trkpt>
      <trkpt lat="44.41154" lon="3.57531">
        <ele>1102</ele>
        <time>2022-05-27T11:22:21Z</time>
      </trkpt>
      <trkpt lat="44.41154" lon="3.57529">
        <ele>1102</ele>
        <time>2022-05-27T11:22:22Z</time>
      </trkpt>
      <trkpt lat="44.41154" lon="3.57527">
        <ele>1103</ele>
        <time>2022-05-27T11:22:23Z</time>
      </trkpt>
      <trkpt lat="44.41154" lon="3.57527">
        <ele>1103</ele>
        <time>2022-05-27T11:22:24Z</time>
      </trkpt>
      <trkpt lat="44.41155" lon="3.57525">
        <ele>1102</ele>
        <time>2022-05-27T11:22:25Z</time>
      </trkpt>
      <trkpt lat="44.41155" lon="3.57524">
        <ele>1101</ele>
        <time>2022-05-27T11:22:26Z</time>
      </trkpt>
      <trkpt lat="44.41156" lon="3.57522">
        <ele>1101</ele>
        <time>2022-05-27T11:22:27Z</time>
      </trkpt>
      <trkpt lat="44.41156" lon="3.57521">
        <ele>1101</ele>
        <time>2022-05-27T11:22:28Z</time>
      </trkpt>
      <trkpt lat="44.41155" lon="3.5752">
        <ele>1102</ele>
        <time>2022-05-27T11:22:29Z</time>
      </trkpt>
      <trkpt lat="44.41155" lon="3.5752">
        <ele>1102</ele>
        <time>2022-05-27T11:22:30Z</time>
      </trkpt>
      <trkpt lat="44.41155" lon="3.57519">
        <ele>1101</ele>
        <time>2022-05-27T11:22:31Z</time>
      </trkpt>
      <trkpt lat="44.41156" lon="3.57517">
        <ele>1099</ele>
        <time>2022-05-27T11:22:32Z</time>
      </trkpt>
      <trkpt lat="44.41156" lon="3.57516">
        <ele>1098</ele>
        <time>2022-05-27T11:22:33Z</time>
      </trkpt>
      <trkpt lat="44.41156" lon="3.57514">
        <ele>1099</ele>
        <time>2022-05-27T11:22:34Z</time>
      </trkpt>
      <trkpt lat="44.41158" lon="3.57512">
        <ele>1100</ele>
        <time>2022-05-27T11:22:35Z</time>
      </trkpt>
      <trkpt lat="44.41158" lon="3.57511">
        <ele>1099</ele>
        <time>2022-05-27T11:22:36Z</time>
      </trkpt>
      <trkpt lat="44.41158" lon="3.5751">
        <ele>1099</ele>
        <time>2022-05-27T11:22:37Z</time>
      </trkpt>
      <trkpt lat="44.41158" lon="3.57507">
        <ele>1098</ele>
        <time>2022-05-27T11:22:38Z</time>
      </trkpt>
      <trkpt lat="44.41159" lon="3.57505">
        <ele>1098</ele>
        <time>2022-05-27T11:22:39Z</time>
      </trkpt>
      <trkpt lat="44.41158" lon="3.57503">
        <ele>1098</ele>
        <time>2022-05-27T11:22:40Z</time>
      </trkpt>
      <trkpt lat="44.41158" lon="3.57502">
        <ele>1098</ele>
        <time>2022-05-27T11:22:41Z</time>
      </trkpt>
      <trkpt lat="44.41158" lon="3.57501">
        <ele>1099</ele>
        <time>2022-05-27T11:22:42Z</time>
      </trkpt>
      <trkpt lat="44.41158" lon="3.57499">
        <ele>1099</ele>
        <time>2022-05-27T11:22:43Z</time>
      </trkpt>
      <trkpt lat="44.41159" lon="3.57498">
        <ele>1099</ele>
        <time>2022-05-27T11:22:44Z</time>
      </trkpt>
      <trkpt lat="44.4116" lon="3.57496">
        <ele>1099</ele>
        <time>2022-05-27T11:22:45Z</time>
      </trkpt>
      <trkpt lat="44.41161" lon="3.57495">
        <ele>1100</ele>
        <time>2022-05-27T11:22:46Z</time>
      </trkpt>
      <trkpt lat="44.41161" lon="3.57494">
        <ele>1100</ele>
        <time>2022-05-27T11:22:47Z</time>
      </trkpt>
      <trkpt lat="44.41161" lon="3.57493">
        <ele>1101</ele>
        <time>2022-05-27T11:22:48Z</time>
      </trkpt>
      <trkpt lat="44.41161" lon="3.57491">
        <ele>1100</ele>
        <time>2022-05-27T11:22:49Z</time>
      </trkpt>
      <trkpt lat="44.41161" lon="3.57489">
        <ele>1100</ele>
        <time>2022-05-27T11:22:50Z</time>
      </trkpt>
      <trkpt lat="44.41162" lon="3.57487">
        <ele>1100</ele>
        <time>2022-05-27T11:22:51Z</time>
      </trkpt>
      <trkpt lat="44.41162" lon="3.57486">
        <ele>1099</ele>
        <time>2022-05-27T11:22:52Z</time>
      </trkpt>
      <trkpt lat="44.41163" lon="3.57485">
        <ele>1100</ele>
        <time>2022-05-27T11:22:53Z</time>
      </trkpt>
      <trkpt lat="44.41163" lon="3.57483">
        <ele>1099</ele>
        <time>2022-05-27T11:22:54Z</time>
      </trkpt>
      <trkpt lat="44.41163" lon="3.57481">
        <ele>1099</ele>
        <time>2022-05-27T11:22:55Z</time>
      </trkpt>
      <trkpt lat="44.41164" lon="3.5748">
        <ele>1099</ele>
        <time>2022-05-27T11:22:56Z</time>
      </trkpt>
      <trkpt lat="44.41165" lon="3.57478">
        <ele>1099</ele>
        <time>2022-05-27T11:22:57Z</time>
      </trkpt>
      <trkpt lat="44.41166" lon="3.57477">
        <ele>1098</ele>
        <time>2022-05-27T11:22:58Z</time>
      </trkpt>
      <trkpt lat="44.41167" lon="3.57476">
        <ele>1099</ele>
        <time>2022-05-27T11:22:59Z</time>
      </trkpt>
      <trkpt lat="44.41168" lon="3.57475">
        <ele>1099</ele>
        <time>2022-05-27T11:23:00Z</time>
      </trkpt>
      <trkpt lat="44.41169" lon="3.57473">
        <ele>1099</ele>
        <time>2022-05-27T11:23:01Z</time>
      </trkpt>
      <trkpt lat="44.4117" lon="3.57472">
        <ele>1098</ele>
        <time>2022-05-27T11:23:02Z</time>
      </trkpt>
      <trkpt lat="44.41171" lon="3.5747">
        <ele>1098</ele>
        <time>2022-05-27T11:23:03Z</time>
      </trkpt>
      <trkpt lat="44.41172" lon="3.57469">
        <ele>1098</ele>
        <time>2022-05-27T11:23:04Z</time>
      </trkpt>
      <trkpt lat="44.41173" lon="3.57467">
        <ele>1098</ele>
        <time>2022-05-27T11:23:05Z</time>
      </trkpt>
      <trkpt lat="44.41174" lon="3.57465">
        <ele>1098</ele>
        <time>2022-05-27T11:23:06Z</time>
      </trkpt>
      <trkpt lat="44.41174" lon="3.57464">
        <ele>1097</ele>
        <time>2022-05-27T11:23:07Z</time>
      </trkpt>
      <trkpt lat="44.41175" lon="3.57463">
        <ele>1097</ele>
        <time>2022-05-27T11:23:08Z</time>
      </trkpt>
      <trkpt lat="44.41176" lon="3.57463">
        <ele>1097</ele>
        <time>2022-05-27T11:23:09Z</time>
      </trkpt>
      <trkpt lat="44.41177" lon="3.57462">
        <ele>1097</ele>
        <time>2022-05-27T11:23:10Z</time>
      </trkpt>
      <trkpt lat="44.41177" lon="3.57461">
        <ele>1096</ele>
        <time>2022-05-27T11:23:11Z</time>
      </trkpt>
      <trkpt lat="44.41178" lon="3.5746">
        <ele>1096</ele>
        <time>2022-05-27T11:23:12Z</time>
      </trkpt>
      <trkpt lat="44.41178" lon="3.57459">
        <ele>1096</ele>
        <time>2022-05-27T11:23:13Z</time>
      </trkpt>
      <trkpt lat="44.41179" lon="3.57458">
        <ele>1096</ele>
        <time>2022-05-27T11:23:14Z</time>
      </trkpt>
      <trkpt lat="44.4118" lon="3.57457">
        <ele>1095</ele>
        <time>2022-05-27T11:23:15Z</time>
      </trkpt>
      <trkpt lat="44.41181" lon="3.57454">
        <ele>1095</ele>
        <time>2022-05-27T11:23:16Z</time>
      </trkpt>
      <trkpt lat="44.41182" lon="3.57453">
        <ele>1096</ele>
        <time>2022-05-27T11:23:17Z</time>
      </trkpt>
      <trkpt lat="44.41183" lon="3.57452">
        <ele>1097</ele>
        <time>2022-05-27T11:23:18Z</time>
      </trkpt>
      <trkpt lat="44.41184" lon="3.57451">
        <ele>1098</ele>
        <time>2022-05-27T11:23:19Z</time>
      </trkpt>
      <trkpt lat="44.41185" lon="3.57449">
        <ele>1098</ele>
        <time>2022-05-27T11:23:20Z</time>
      </trkpt>
      <trkpt lat="44.41186" lon="3.57448">
        <ele>1097</ele>
        <time>2022-05-27T11:23:21Z</time>
      </trkpt>
      <trkpt lat="44.41186" lon="3.57448">
        <ele>1097</ele>
        <time>2022-05-27T11:23:22Z</time>
      </trkpt>
      <trkpt lat="44.41187" lon="3.57447">
        <ele>1096</ele>
        <time>2022-05-27T11:23:23Z</time>
      </trkpt>
      <trkpt lat="44.41188" lon="3.57446">
        <ele>1096</ele>
        <time>2022-05-27T11:23:24Z</time>
      </trkpt>
      <trkpt lat="44.41188" lon="3.57445">
        <ele>1097</ele>
        <time>2022-05-27T11:23:25Z</time>
      </trkpt>
      <trkpt lat="44.41188" lon="3.57444">
        <ele>1096</ele>
        <time>2022-05-27T11:23:26Z</time>
      </trkpt>
      <trkpt lat="44.41189" lon="3.57443">
        <ele>1096</ele>
        <time>2022-05-27T11:23:27Z</time>
      </trkpt>
      <trkpt lat="44.41189" lon="3.57442">
        <ele>1097</ele>
        <time>2022-05-27T11:23:28Z</time>
      </trkpt>
      <trkpt lat="44.4119" lon="3.57441">
        <ele>1096</ele>
        <time>2022-05-27T11:23:29Z</time>
      </trkpt>
      <trkpt lat="44.4119" lon="3.57441">
        <ele>1097</ele>
        <time>2022-05-27T11:23:30Z</time>
      </trkpt>
      <trkpt lat="44.4119" lon="3.57441">
        <ele>1095</ele>
        <time>2022-05-27T11:23:31Z</time>
      </trkpt>
      <trkpt lat="44.4119" lon="3.57439">
        <ele>1095</ele>
        <time>2022-05-27T11:23:32Z</time>
      </trkpt>
      <trkpt lat="44.4119" lon="3.57438">
        <ele>1094</ele>
        <time>2022-05-27T11:23:33Z</time>
      </trkpt>
      <trkpt lat="44.41191" lon="3.57437">
        <ele>1094</ele>
        <time>2022-05-27T11:23:34Z</time>
      </trkpt>
      <trkpt lat="44.41192" lon="3.57436">
        <ele>1095</ele>
        <time>2022-05-27T11:23:35Z</time>
      </trkpt>
      <trkpt lat="44.41192" lon="3.57437">
        <ele>1096</ele>
        <time>2022-05-27T11:23:36Z</time>
      </trkpt>
      <trkpt lat="44.41192" lon="3.57435">
        <ele>1096</ele>
        <time>2022-05-27T11:23:37Z</time>
      </trkpt>
      <trkpt lat="44.41192" lon="3.57435">
        <ele>1096</ele>
        <time>2022-05-27T11:23:38Z</time>
      </trkpt>
      <trkpt lat="44.41192" lon="3.57435">
        <ele>1095</ele>
        <time>2022-05-27T11:23:39Z</time>
      </trkpt>
      <trkpt lat="44.41192" lon="3.57435">
        <ele>1095</ele>
        <time>2022-05-27T11:23:40Z</time>
      </trkpt>
      <trkpt lat="44.41193" lon="3.57435">
        <ele>1095</ele>
        <time>2022-05-27T11:23:41Z</time>
      </trkpt>
      <trkpt lat="44.41193" lon="3.57435">
        <ele>1095</ele>
        <time>2022-05-27T11:23:42Z</time>
      </trkpt>
      <trkpt lat="44.41194" lon="3.57433">
        <ele>1095</ele>
        <time>2022-05-27T11:23:43Z</time>
      </trkpt>
      <trkpt lat="44.41195" lon="3.57432">
        <ele>1095</ele>
        <time>2022-05-27T11:23:44Z</time>
      </trkpt>
      <trkpt lat="44.41196" lon="3.57431">
        <ele>1095</ele>
        <time>2022-05-27T11:23:45Z</time>
      </trkpt>
      <trkpt lat="44.41197" lon="3.57431">
        <ele>1095</ele>
        <time>2022-05-27T11:23:46Z</time>
      </trkpt>
      <trkpt lat="44.41198" lon="3.5743">
        <ele>1095</ele>
        <time>2022-05-27T11:23:47Z</time>
      </trkpt>
      <trkpt lat="44.41198" lon="3.57429">
        <ele>1096</ele>
        <time>2022-05-27T11:23:48Z</time>
      </trkpt>
      <trkpt lat="44.41198" lon="3.57428">
        <ele>1095</ele>
        <time>2022-05-27T11:23:49Z</time>
      </trkpt>
      <trkpt lat="44.412" lon="3.57427">
        <ele>1095</ele>
        <time>2022-05-27T11:23:50Z</time>
      </trkpt>
      <trkpt lat="44.412" lon="3.57425">
        <ele>1093</ele>
        <time>2022-05-27T11:23:51Z</time>
      </trkpt>
      <trkpt lat="44.41201" lon="3.57424">
        <ele>1092</ele>
        <time>2022-05-27T11:23:52Z</time>
      </trkpt>
      <trkpt lat="44.41201" lon="3.57423">
        <ele>1092</ele>
        <time>2022-05-27T11:23:53Z</time>
      </trkpt>
      <trkpt lat="44.41202" lon="3.57422">
        <ele>1092</ele>
        <time>2022-05-27T11:23:54Z</time>
      </trkpt>
      <trkpt lat="44.41203" lon="3.57421">
        <ele>1091</ele>
        <time>2022-05-27T11:23:55Z</time>
      </trkpt>
      <trkpt lat="44.41203" lon="3.5742">
        <ele>1091</ele>
        <time>2022-05-27T11:23:56Z</time>
      </trkpt>
      <trkpt lat="44.41203" lon="3.57419">
        <ele>1090</ele>
        <time>2022-05-27T11:23:57Z</time>
      </trkpt>
      <trkpt lat="44.41204" lon="3.57419">
        <ele>1091</ele>
        <time>2022-05-27T11:23:58Z</time>
      </trkpt>
      <trkpt lat="44.41204" lon="3.57418">
        <ele>1091</ele>
        <time>2022-05-27T11:23:59Z</time>
      </trkpt>
      <trkpt lat="44.41204" lon="3.57418">
        <ele>1091</ele>
        <time>2022-05-27T11:24:00Z</time>
      </trkpt>
      <trkpt lat="44.41203" lon="3.57419">
        <ele>1092</ele>
        <time>2022-05-27T11:24:01Z</time>
      </trkpt>
      <trkpt lat="44.41203" lon="3.57419">
        <ele>1092</ele>
        <time>2022-05-27T11:24:02Z</time>
      </trkpt>
      <trkpt lat="44.41204" lon="3.57418">
        <ele>1091</ele>
        <time>2022-05-27T11:24:03Z</time>
      </trkpt>
      <trkpt lat="44.41204" lon="3.57418">
        <ele>1091</ele>
        <time>2022-05-27T11:24:04Z</time>
      </trkpt>
      <trkpt lat="44.41204" lon="3.57418">
        <ele>1091</ele>
        <time>2022-05-27T11:24:05Z</time>
      </trkpt>
      <trkpt lat="44.41205" lon="3.57418">
        <ele>1091</ele>
        <time>2022-05-27T11:24:06Z</time>
      </trkpt>
      <trkpt lat="44.41205" lon="3.57416">
        <ele>1091</ele>
        <time>2022-05-27T11:24:07Z</time>
      </trkpt>
      <trkpt lat="44.41205" lon="3.57416">
        <ele>1092</ele>
        <time>2022-05-27T11:24:08Z</time>
      </trkpt>
      <trkpt lat="44.41206" lon="3.57414">
        <ele>1091</ele>
        <time>2022-05-27T11:24:09Z</time>
      </trkpt>
      <trkpt lat="44.41207" lon="3.57414">
        <ele>1090</ele>
        <time>2022-05-27T11:24:10Z</time>
      </trkpt>
      <trkpt lat="44.41208" lon="3.57412">
        <ele>1090</ele>
        <time>2022-05-27T11:24:11Z</time>
      </trkpt>
      <trkpt lat="44.41209" lon="3.57411">
        <ele>1090</ele>
        <time>2022-05-27T11:24:12Z</time>
      </trkpt>
      <trkpt lat="44.41209" lon="3.57411">
        <ele>1091</ele>
        <time>2022-05-27T11:24:13Z</time>
      </trkpt>
      <trkpt lat="44.41209" lon="3.5741">
        <ele>1092</ele>
        <time>2022-05-27T11:24:14Z</time>
      </trkpt>
      <trkpt lat="44.4121" lon="3.57409">
        <ele>1092</ele>
        <time>2022-05-27T11:24:15Z</time>
      </trkpt>
      <trkpt lat="44.41211" lon="3.57409">
        <ele>1091</ele>
        <time>2022-05-27T11:24:16Z</time>
      </trkpt>
      <trkpt lat="44.41211" lon="3.57407">
        <ele>1091</ele>
        <time>2022-05-27T11:24:17Z</time>
      </trkpt>
      <trkpt lat="44.41212" lon="3.57405">
        <ele>1091</ele>
        <time>2022-05-27T11:24:18Z</time>
      </trkpt>
      <trkpt lat="44.41212" lon="3.57404">
        <ele>1091</ele>
        <time>2022-05-27T11:24:19Z</time>
      </trkpt>
      <trkpt lat="44.41213" lon="3.57404">
        <ele>1090</ele>
        <time>2022-05-27T11:24:20Z</time>
      </trkpt>
      <trkpt lat="44.41213" lon="3.57403">
        <ele>1090</ele>
        <time>2022-05-27T11:24:21Z</time>
      </trkpt>
      <trkpt lat="44.41214" lon="3.57402">
        <ele>1089</ele>
        <time>2022-05-27T11:24:22Z</time>
      </trkpt>
      <trkpt lat="44.41215" lon="3.574">
        <ele>1089</ele>
        <time>2022-05-27T11:24:23Z</time>
      </trkpt>
      <trkpt lat="44.41216" lon="3.57398">
        <ele>1089</ele>
        <time>2022-05-27T11:24:24Z</time>
      </trkpt>
      <trkpt lat="44.41216" lon="3.57397">
        <ele>1090</ele>
        <time>2022-05-27T11:24:25Z</time>
      </trkpt>
      <trkpt lat="44.41216" lon="3.57397">
        <ele>1090</ele>
        <time>2022-05-27T11:24:26Z</time>
      </trkpt>
      <trkpt lat="44.41217" lon="3.57396">
        <ele>1089</ele>
        <time>2022-05-27T11:24:27Z</time>
      </trkpt>
      <trkpt lat="44.41218" lon="3.57394">
        <ele>1090</ele>
        <time>2022-05-27T11:24:28Z</time>
      </trkpt>
      <trkpt lat="44.41219" lon="3.57393">
        <ele>1089</ele>
        <time>2022-05-27T11:24:29Z</time>
      </trkpt>
      <trkpt lat="44.4122" lon="3.57392">
        <ele>1089</ele>
        <time>2022-05-27T11:24:30Z</time>
      </trkpt>
      <trkpt lat="44.41221" lon="3.57392">
        <ele>1089</ele>
        <time>2022-05-27T11:24:31Z</time>
      </trkpt>
      <trkpt lat="44.41223" lon="3.57392">
        <ele>1089</ele>
        <time>2022-05-27T11:24:32Z</time>
      </trkpt>
      <trkpt lat="44.41225" lon="3.5739">
        <ele>1088</ele>
        <time>2022-05-27T11:24:33Z</time>
      </trkpt>
      <trkpt lat="44.41225" lon="3.57388">
        <ele>1088</ele>
        <time>2022-05-27T11:24:34Z</time>
      </trkpt>
      <trkpt lat="44.41226" lon="3.57387">
        <ele>1088</ele>
        <time>2022-05-27T11:24:35Z</time>
      </trkpt>
      <trkpt lat="44.41227" lon="3.57385">
        <ele>1088</ele>
        <time>2022-05-27T11:24:36Z</time>
      </trkpt>
      <trkpt lat="44.41227" lon="3.57385">
        <ele>1089</ele>
        <time>2022-05-27T11:24:37Z</time>
      </trkpt>
      <trkpt lat="44.41227" lon="3.57382">
        <ele>1090</ele>
        <time>2022-05-27T11:24:38Z</time>
      </trkpt>
      <trkpt lat="44.41228" lon="3.57379">
        <ele>1091</ele>
        <time>2022-05-27T11:24:39Z</time>
      </trkpt>
      <trkpt lat="44.41229" lon="3.57377">
        <ele>1090</ele>
        <time>2022-05-27T11:24:40Z</time>
      </trkpt>
      <trkpt lat="44.41229" lon="3.57376">
        <ele>1090</ele>
        <time>2022-05-27T11:24:41Z</time>
      </trkpt>
      <trkpt lat="44.4123" lon="3.57375">
        <ele>1090</ele>
        <time>2022-05-27T11:24:42Z</time>
      </trkpt>
      <trkpt lat="44.4123" lon="3.57375">
        <ele>1091</ele>
        <time>2022-05-27T11:24:43Z</time>
      </trkpt>
      <trkpt lat="44.41232" lon="3.57375">
        <ele>1090</ele>
        <time>2022-05-27T11:24:44Z</time>
      </trkpt>
      <trkpt lat="44.41232" lon="3.57374">
        <ele>1090</ele>
        <time>2022-05-27T11:24:45Z</time>
      </trkpt>
      <trkpt lat="44.41233" lon="3.57374">
        <ele>1089</ele>
        <time>2022-05-27T11:24:46Z</time>
      </trkpt>
      <trkpt lat="44.41234" lon="3.57373">
        <ele>1088</ele>
        <time>2022-05-27T11:24:47Z</time>
      </trkpt>
      <trkpt lat="44.41235" lon="3.57371">
        <ele>1089</ele>
        <time>2022-05-27T11:24:48Z</time>
      </trkpt>
      <trkpt lat="44.41236" lon="3.57371">
        <ele>1088</ele>
        <time>2022-05-27T11:24:49Z</time>
      </trkpt>
      <trkpt lat="44.41236" lon="3.5737">
        <ele>1088</ele>
        <time>2022-05-27T11:24:50Z</time>
      </trkpt>
      <trkpt lat="44.41237" lon="3.5737">
        <ele>1088</ele>
        <time>2022-05-27T11:24:51Z</time>
      </trkpt>
      <trkpt lat="44.41238" lon="3.57368">
        <ele>1088</ele>
        <time>2022-05-27T11:24:52Z</time>
      </trkpt>
      <trkpt lat="44.41239" lon="3.57366">
        <ele>1087</ele>
        <time>2022-05-27T11:24:53Z</time>
      </trkpt>
      <trkpt lat="44.4124" lon="3.57364">
        <ele>1088</ele>
        <time>2022-05-27T11:24:54Z</time>
      </trkpt>
      <trkpt lat="44.4124" lon="3.57363">
        <ele>1087</ele>
        <time>2022-05-27T11:24:55Z</time>
      </trkpt>
      <trkpt lat="44.41241" lon="3.57362">
        <ele>1087</ele>
        <time>2022-05-27T11:24:56Z</time>
      </trkpt>
      <trkpt lat="44.41242" lon="3.57361">
        <ele>1087</ele>
        <time>2022-05-27T11:24:57Z</time>
      </trkpt>
      <trkpt lat="44.41243" lon="3.5736">
        <ele>1088</ele>
        <time>2022-05-27T11:24:58Z</time>
      </trkpt>
      <trkpt lat="44.41243" lon="3.57358">
        <ele>1087</ele>
        <time>2022-05-27T11:24:59Z</time>
      </trkpt>
      <trkpt lat="44.41244" lon="3.57357">
        <ele>1088</ele>
        <time>2022-05-27T11:25:00Z</time>
      </trkpt>
      <trkpt lat="44.41245" lon="3.57356">
        <ele>1087</ele>
        <time>2022-05-27T11:25:01Z</time>
      </trkpt>
      <trkpt lat="44.41246" lon="3.57355">
        <ele>1087</ele>
        <time>2022-05-27T11:25:02Z</time>
      </trkpt>
      <trkpt lat="44.41246" lon="3.57354">
        <ele>1088</ele>
        <time>2022-05-27T11:25:03Z</time>
      </trkpt>
      <trkpt lat="44.41248" lon="3.57353">
        <ele>1087</ele>
        <time>2022-05-27T11:25:04Z</time>
      </trkpt>
      <trkpt lat="44.41249" lon="3.57351">
        <ele>1086</ele>
        <time>2022-05-27T11:25:05Z</time>
      </trkpt>
      <trkpt lat="44.4125" lon="3.57349">
        <ele>1085</ele>
        <time>2022-05-27T11:25:06Z</time>
      </trkpt>
      <trkpt lat="44.4125" lon="3.57348">
        <ele>1085</ele>
        <time>2022-05-27T11:25:07Z</time>
      </trkpt>
      <trkpt lat="44.41251" lon="3.57347">
        <ele>1086</ele>
        <time>2022-05-27T11:25:08Z</time>
      </trkpt>
      <trkpt lat="44.41251" lon="3.57346">
        <ele>1087</ele>
        <time>2022-05-27T11:25:09Z</time>
      </trkpt>
      <trkpt lat="44.41251" lon="3.57344">
        <ele>1087</ele>
        <time>2022-05-27T11:25:10Z</time>
      </trkpt>
      <trkpt lat="44.41253" lon="3.57343">
        <ele>1087</ele>
        <time>2022-05-27T11:25:11Z</time>
      </trkpt>
      <trkpt lat="44.41253" lon="3.57343">
        <ele>1087</ele>
        <time>2022-05-27T11:25:12Z</time>
      </trkpt>
      <trkpt lat="44.41253" lon="3.57342">
        <ele>1087</ele>
        <time>2022-05-27T11:25:13Z</time>
      </trkpt>
      <trkpt lat="44.41253" lon="3.57342">
        <ele>1088</ele>
        <time>2022-05-27T11:25:14Z</time>
      </trkpt>
      <trkpt lat="44.41253" lon="3.57341">
        <ele>1089</ele>
        <time>2022-05-27T11:25:15Z</time>
      </trkpt>
      <trkpt lat="44.41253" lon="3.5734">
        <ele>1088</ele>
        <time>2022-05-27T11:25:16Z</time>
      </trkpt>
      <trkpt lat="44.41254" lon="3.57339">
        <ele>1088</ele>
        <time>2022-05-27T11:25:17Z</time>
      </trkpt>
      <trkpt lat="44.41255" lon="3.57337">
        <ele>1088</ele>
        <time>2022-05-27T11:25:18Z</time>
      </trkpt>
      <trkpt lat="44.41256" lon="3.57335">
        <ele>1089</ele>
        <time>2022-05-27T11:25:19Z</time>
      </trkpt>
      <trkpt lat="44.41256" lon="3.57335">
        <ele>1090</ele>
        <time>2022-05-27T11:25:20Z</time>
      </trkpt>
      <trkpt lat="44.41256" lon="3.57335">
        <ele>1090</ele>
        <time>2022-05-27T11:25:21Z</time>
      </trkpt>
      <trkpt lat="44.41256" lon="3.57333">
        <ele>1090</ele>
        <time>2022-05-27T11:25:22Z</time>
      </trkpt>
      <trkpt lat="44.41258" lon="3.57332">
        <ele>1090</ele>
        <time>2022-05-27T11:25:23Z</time>
      </trkpt>
      <trkpt lat="44.41258" lon="3.57331">
        <ele>1090</ele>
        <time>2022-05-27T11:25:24Z</time>
      </trkpt>
      <trkpt lat="44.41259" lon="3.5733">
        <ele>1090</ele>
        <time>2022-05-27T11:25:25Z</time>
      </trkpt>
      <trkpt lat="44.4126" lon="3.57329">
        <ele>1090</ele>
        <time>2022-05-27T11:25:26Z</time>
      </trkpt>
      <trkpt lat="44.4126" lon="3.57328">
        <ele>1090</ele>
        <time>2022-05-27T11:25:27Z</time>
      </trkpt>
      <trkpt lat="44.4126" lon="3.57326">
        <ele>1089</ele>
        <time>2022-05-27T11:25:28Z</time>
      </trkpt>
      <trkpt lat="44.41261" lon="3.57325">
        <ele>1088</ele>
        <time>2022-05-27T11:25:29Z</time>
      </trkpt>
      <trkpt lat="44.41261" lon="3.57323">
        <ele>1089</ele>
        <time>2022-05-27T11:25:30Z</time>
      </trkpt>
      <trkpt lat="44.41262" lon="3.57322">
        <ele>1089</ele>
        <time>2022-05-27T11:25:31Z</time>
      </trkpt>
      <trkpt lat="44.41263" lon="3.5732">
        <ele>1088</ele>
        <time>2022-05-27T11:25:32Z</time>
      </trkpt>
      <trkpt lat="44.41264" lon="3.57319">
        <ele>1088</ele>
        <time>2022-05-27T11:25:33Z</time>
      </trkpt>
      <trkpt lat="44.41264" lon="3.57317">
        <ele>1088</ele>
        <time>2022-05-27T11:25:34Z</time>
      </trkpt>
      <trkpt lat="44.41265" lon="3.57315">
        <ele>1087</ele>
        <time>2022-05-27T11:25:35Z</time>
      </trkpt>
      <trkpt lat="44.41265" lon="3.57313">
        <ele>1087</ele>
        <time>2022-05-27T11:25:36Z</time>
      </trkpt>
      <trkpt lat="44.41266" lon="3.57312">
        <ele>1087</ele>
        <time>2022-05-27T11:25:37Z</time>
      </trkpt>
      <trkpt lat="44.41267" lon="3.57311">
        <ele>1088</ele>
        <time>2022-05-27T11:25:38Z</time>
      </trkpt>
      <trkpt lat="44.41267" lon="3.5731">
        <ele>1087</ele>
        <time>2022-05-27T11:25:39Z</time>
      </trkpt>
      <trkpt lat="44.41268" lon="3.57309">
        <ele>1086</ele>
        <time>2022-05-27T11:25:40Z</time>
      </trkpt>
      <trkpt lat="44.41268" lon="3.57308">
        <ele>1086</ele>
        <time>2022-05-27T11:25:41Z</time>
      </trkpt>
      <trkpt lat="44.41268" lon="3.57308">
        <ele>1086</ele>
        <time>2022-05-27T11:25:42Z</time>
      </trkpt>
      <trkpt lat="44.41268" lon="3.57307">
        <ele>1086</ele>
        <time>2022-05-27T11:25:43Z</time>
      </trkpt>
      <trkpt lat="44.41268" lon="3.57307">
        <ele>1086</ele>
        <time>2022-05-27T11:25:44Z</time>
      </trkpt>
      <trkpt lat="44.41268" lon="3.57307">
        <ele>1086</ele>
        <time>2022-05-27T11:25:45Z</time>
      </trkpt>
      <trkpt lat="44.41269" lon="3.57305">
        <ele>1085</ele>
        <time>2022-05-27T11:25:46Z</time>
      </trkpt>
      <trkpt lat="44.4127" lon="3.57304">
        <ele>1086</ele>
        <time>2022-05-27T11:25:47Z</time>
      </trkpt>
      <trkpt lat="44.4127" lon="3.57302">
        <ele>1086</ele>
        <time>2022-05-27T11:25:48Z</time>
      </trkpt>
      <trkpt lat="44.4127" lon="3.573">
        <ele>1085</ele>
        <time>2022-05-27T11:25:49Z</time>
      </trkpt>
      <trkpt lat="44.4127" lon="3.57299">
        <ele>1085</ele>
        <time>2022-05-27T11:25:50Z</time>
      </trkpt>
      <trkpt lat="44.4127" lon="3.573">
        <ele>1086</ele>
        <time>2022-05-27T11:25:51Z</time>
      </trkpt>
      <trkpt lat="44.4127" lon="3.57299">
        <ele>1086</ele>
        <time>2022-05-27T11:25:52Z</time>
      </trkpt>
      <trkpt lat="44.41271" lon="3.57297">
        <ele>1085</ele>
        <time>2022-05-27T11:25:53Z</time>
      </trkpt>
      <trkpt lat="44.41272" lon="3.57295">
        <ele>1085</ele>
        <time>2022-05-27T11:25:54Z</time>
      </trkpt>
      <trkpt lat="44.41272" lon="3.57294">
        <ele>1086</ele>
        <time>2022-05-27T11:25:55Z</time>
      </trkpt>
      <trkpt lat="44.41273" lon="3.57293">
        <ele>1087</ele>
        <time>2022-05-27T11:25:56Z</time>
      </trkpt>
      <trkpt lat="44.41272" lon="3.57293">
        <ele>1088</ele>
        <time>2022-05-27T11:25:57Z</time>
      </trkpt>
      <trkpt lat="44.41272" lon="3.57292">
        <ele>1089</ele>
        <time>2022-05-27T11:25:58Z</time>
      </trkpt>
      <trkpt lat="44.41273" lon="3.57291">
        <ele>1088</ele>
        <time>2022-05-27T11:25:59Z</time>
      </trkpt>
      <trkpt lat="44.41274" lon="3.5729">
        <ele>1089</ele>
        <time>2022-05-27T11:26:00Z</time>
      </trkpt>
      <trkpt lat="44.41274" lon="3.57289">
        <ele>1088</ele>
        <time>2022-05-27T11:26:01Z</time>
      </trkpt>
      <trkpt lat="44.41274" lon="3.57287">
        <ele>1087</ele>
        <time>2022-05-27T11:26:02Z</time>
      </trkpt>
      <trkpt lat="44.41274" lon="3.57286">
        <ele>1089</ele>
        <time>2022-05-27T11:26:03Z</time>
      </trkpt>
      <trkpt lat="44.41274" lon="3.57285">
        <ele>1089</ele>
        <time>2022-05-27T11:26:04Z</time>
      </trkpt>
      <trkpt lat="44.41275" lon="3.57283">
        <ele>1089</ele>
        <time>2022-05-27T11:26:05Z</time>
      </trkpt>
      <trkpt lat="44.41275" lon="3.57282">
        <ele>1089</ele>
        <time>2022-05-27T11:26:06Z</time>
      </trkpt>
      <trkpt lat="44.41275" lon="3.57281">
        <ele>1088</ele>
        <time>2022-05-27T11:26:07Z</time>
      </trkpt>
      <trkpt lat="44.41276" lon="3.57279">
        <ele>1087</ele>
        <time>2022-05-27T11:26:08Z</time>
      </trkpt>
      <trkpt lat="44.41276" lon="3.57279">
        <ele>1089</ele>
        <time>2022-05-27T11:26:09Z</time>
      </trkpt>
      <trkpt lat="44.41276" lon="3.57277">
        <ele>1090</ele>
        <time>2022-05-27T11:26:10Z</time>
      </trkpt>
      <trkpt lat="44.41276" lon="3.57275">
        <ele>1090</ele>
        <time>2022-05-27T11:26:11Z</time>
      </trkpt>
      <trkpt lat="44.41277" lon="3.57273">
        <ele>1089</ele>
        <time>2022-05-27T11:26:12Z</time>
      </trkpt>
      <trkpt lat="44.41277" lon="3.57271">
        <ele>1089</ele>
        <time>2022-05-27T11:26:13Z</time>
      </trkpt>
      <trkpt lat="44.41278" lon="3.57269">
        <ele>1088</ele>
        <time>2022-05-27T11:26:14Z</time>
      </trkpt>
      <trkpt lat="44.41278" lon="3.57268">
        <ele>1089</ele>
        <time>2022-05-27T11:26:15Z</time>
      </trkpt>
      <trkpt lat="44.41279" lon="3.57268">
        <ele>1090</ele>
        <time>2022-05-27T11:26:16Z</time>
      </trkpt>
      <trkpt lat="44.41279" lon="3.57266">
        <ele>1090</ele>
        <time>2022-05-27T11:26:17Z</time>
      </trkpt>
      <trkpt lat="44.41279" lon="3.57265">
        <ele>1090</ele>
        <time>2022-05-27T11:26:18Z</time>
      </trkpt>
      <trkpt lat="44.4128" lon="3.57262">
        <ele>1090</ele>
        <time>2022-05-27T11:26:19Z</time>
      </trkpt>
      <trkpt lat="44.4128" lon="3.57261">
        <ele>1090</ele>
        <time>2022-05-27T11:26:20Z</time>
      </trkpt>
      <trkpt lat="44.4128" lon="3.5726">
        <ele>1090</ele>
        <time>2022-05-27T11:26:21Z</time>
      </trkpt>
      <trkpt lat="44.41281" lon="3.5726">
        <ele>1091</ele>
        <time>2022-05-27T11:26:22Z</time>
      </trkpt>
      <trkpt lat="44.41281" lon="3.57258">
        <ele>1090</ele>
        <time>2022-05-27T11:26:23Z</time>
      </trkpt>
      <trkpt lat="44.41282" lon="3.57256">
        <ele>1090</ele>
        <time>2022-05-27T11:26:24Z</time>
      </trkpt>
      <trkpt lat="44.41282" lon="3.57254">
        <ele>1090</ele>
        <time>2022-05-27T11:26:25Z</time>
      </trkpt>
      <trkpt lat="44.41283" lon="3.57253">
        <ele>1090</ele>
        <time>2022-05-27T11:26:26Z</time>
      </trkpt>
      <trkpt lat="44.41283" lon="3.57252">
        <ele>1091</ele>
        <time>2022-05-27T11:26:27Z</time>
      </trkpt>
      <trkpt lat="44.41283" lon="3.5725">
        <ele>1091</ele>
        <time>2022-05-27T11:26:28Z</time>
      </trkpt>
      <trkpt lat="44.41284" lon="3.57248">
        <ele>1091</ele>
        <time>2022-05-27T11:26:29Z</time>
      </trkpt>
      <trkpt lat="44.41285" lon="3.57246">
        <ele>1091</ele>
        <time>2022-05-27T11:26:30Z</time>
      </trkpt>
      <trkpt lat="44.41285" lon="3.57244">
        <ele>1091</ele>
        <time>2022-05-27T11:26:31Z</time>
      </trkpt>
      <trkpt lat="44.41286" lon="3.57243">
        <ele>1091</ele>
        <time>2022-05-27T11:26:32Z</time>
      </trkpt>
      <trkpt lat="44.41287" lon="3.57243">
        <ele>1092</ele>
        <time>2022-05-27T11:26:33Z</time>
      </trkpt>
      <trkpt lat="44.41288" lon="3.57241">
        <ele>1092</ele>
        <time>2022-05-27T11:26:34Z</time>
      </trkpt>
      <trkpt lat="44.41289" lon="3.57239">
        <ele>1091</ele>
        <time>2022-05-27T11:26:35Z</time>
      </trkpt>
      <trkpt lat="44.4129" lon="3.57237">
        <ele>1090</ele>
        <time>2022-05-27T11:26:36Z</time>
      </trkpt>
      <trkpt lat="44.41291" lon="3.57236">
        <ele>1089</ele>
        <time>2022-05-27T11:26:37Z</time>
      </trkpt>
      <trkpt lat="44.41291" lon="3.57235">
        <ele>1089</ele>
        <time>2022-05-27T11:26:38Z</time>
      </trkpt>
      <trkpt lat="44.41291" lon="3.57234">
        <ele>1091</ele>
        <time>2022-05-27T11:26:39Z</time>
      </trkpt>
      <trkpt lat="44.41291" lon="3.57233">
        <ele>1091</ele>
        <time>2022-05-27T11:26:40Z</time>
      </trkpt>
      <trkpt lat="44.41291" lon="3.5723">
        <ele>1092</ele>
        <time>2022-05-27T11:26:41Z</time>
      </trkpt>
      <trkpt lat="44.41292" lon="3.57227">
        <ele>1092</ele>
        <time>2022-05-27T11:26:42Z</time>
      </trkpt>
      <trkpt lat="44.41292" lon="3.57225">
        <ele>1092</ele>
        <time>2022-05-27T11:26:43Z</time>
      </trkpt>
      <trkpt lat="44.41293" lon="3.57223">
        <ele>1091</ele>
        <time>2022-05-27T11:26:44Z</time>
      </trkpt>
      <trkpt lat="44.41293" lon="3.57221">
        <ele>1091</ele>
        <time>2022-05-27T11:26:45Z</time>
      </trkpt>
      <trkpt lat="44.41294" lon="3.5722">
        <ele>1090</ele>
        <time>2022-05-27T11:26:46Z</time>
      </trkpt>
      <trkpt lat="44.41294" lon="3.57219">
        <ele>1090</ele>
        <time>2022-05-27T11:26:47Z</time>
      </trkpt>
      <trkpt lat="44.41294" lon="3.57217">
        <ele>1090</ele>
        <time>2022-05-27T11:26:48Z</time>
      </trkpt>
      <trkpt lat="44.41295" lon="3.57215">
        <ele>1090</ele>
        <time>2022-05-27T11:26:49Z</time>
      </trkpt>
      <trkpt lat="44.41295" lon="3.57213">
        <ele>1091</ele>
        <time>2022-05-27T11:26:50Z</time>
      </trkpt>
      <trkpt lat="44.41295" lon="3.57211">
        <ele>1091</ele>
        <time>2022-05-27T11:26:51Z</time>
      </trkpt>
      <trkpt lat="44.41295" lon="3.5721">
        <ele>1091</ele>
        <time>2022-05-27T11:26:52Z</time>
      </trkpt>
      <trkpt lat="44.41295" lon="3.57208">
        <ele>1092</ele>
        <time>2022-05-27T11:26:53Z</time>
      </trkpt>
      <trkpt lat="44.41295" lon="3.57206">
        <ele>1091</ele>
        <time>2022-05-27T11:26:54Z</time>
      </trkpt>
      <trkpt lat="44.41295" lon="3.57204">
        <ele>1091</ele>
        <time>2022-05-27T11:26:55Z</time>
      </trkpt>
      <trkpt lat="44.41296" lon="3.57202">
        <ele>1091</ele>
        <time>2022-05-27T11:26:56Z</time>
      </trkpt>
      <trkpt lat="44.41296" lon="3.57199">
        <ele>1091</ele>
        <time>2022-05-27T11:26:57Z</time>
      </trkpt>
      <trkpt lat="44.41296" lon="3.57197">
        <ele>1092</ele>
        <time>2022-05-27T11:26:58Z</time>
      </trkpt>
      <trkpt lat="44.41296" lon="3.57195">
        <ele>1092</ele>
        <time>2022-05-27T11:26:59Z</time>
      </trkpt>
      <trkpt lat="44.41297" lon="3.57193">
        <ele>1091</ele>
        <time>2022-05-27T11:27:00Z</time>
      </trkpt>
      <trkpt lat="44.41298" lon="3.57192">
        <ele>1091</ele>
        <time>2022-05-27T11:27:01Z</time>
      </trkpt>
      <trkpt lat="44.41298" lon="3.57189">
        <ele>1091</ele>
        <time>2022-05-27T11:27:02Z</time>
      </trkpt>
      <trkpt lat="44.41298" lon="3.57188">
        <ele>1091</ele>
        <time>2022-05-27T11:27:03Z</time>
      </trkpt>
      <trkpt lat="44.41298" lon="3.57187">
        <ele>1091</ele>
        <time>2022-05-27T11:27:04Z</time>
      </trkpt>
      <trkpt lat="44.41298" lon="3.57186">
        <ele>1092</ele>
        <time>2022-05-27T11:27:05Z</time>
      </trkpt>
      <trkpt lat="44.41299" lon="3.57184">
        <ele>1091</ele>
        <time>2022-05-27T11:27:06Z</time>
      </trkpt>
      <trkpt lat="44.41299" lon="3.57183">
        <ele>1091</ele>
        <time>2022-05-27T11:27:07Z</time>
      </trkpt>
      <trkpt lat="44.413" lon="3.57181">
        <ele>1091</ele>
        <time>2022-05-27T11:27:08Z</time>
      </trkpt>
      <trkpt lat="44.413" lon="3.57179">
        <ele>1091</ele>
        <time>2022-05-27T11:27:09Z</time>
      </trkpt>
      <trkpt lat="44.413" lon="3.57177">
        <ele>1091</ele>
        <time>2022-05-27T11:27:10Z</time>
      </trkpt>
      <trkpt lat="44.413" lon="3.57175">
        <ele>1091</ele>
        <time>2022-05-27T11:27:11Z</time>
      </trkpt>
      <trkpt lat="44.413" lon="3.57173">
        <ele>1091</ele>
        <time>2022-05-27T11:27:12Z</time>
      </trkpt>
      <trkpt lat="44.41301" lon="3.57171">
        <ele>1091</ele>
        <time>2022-05-27T11:27:13Z</time>
      </trkpt>
      <trkpt lat="44.41301" lon="3.57169">
        <ele>1091</ele>
        <time>2022-05-27T11:27:14Z</time>
      </trkpt>
      <trkpt lat="44.41301" lon="3.57167">
        <ele>1092</ele>
        <time>2022-05-27T11:27:15Z</time>
      </trkpt>
      <trkpt lat="44.41301" lon="3.57166">
        <ele>1092</ele>
        <time>2022-05-27T11:27:16Z</time>
      </trkpt>
      <trkpt lat="44.41301" lon="3.57164">
        <ele>1092</ele>
        <time>2022-05-27T11:27:17Z</time>
      </trkpt>
      <trkpt lat="44.41301" lon="3.57163">
        <ele>1092</ele>
        <time>2022-05-27T11:27:18Z</time>
      </trkpt>
      <trkpt lat="44.41301" lon="3.57162">
        <ele>1091</ele>
        <time>2022-05-27T11:27:19Z</time>
      </trkpt>
      <trkpt lat="44.41301" lon="3.57161">
        <ele>1090</ele>
        <time>2022-05-27T11:27:20Z</time>
      </trkpt>
      <trkpt lat="44.41301" lon="3.57159">
        <ele>1090</ele>
        <time>2022-05-27T11:27:21Z</time>
      </trkpt>
      <trkpt lat="44.413" lon="3.57157">
        <ele>1091</ele>
        <time>2022-05-27T11:27:22Z</time>
      </trkpt>
      <trkpt lat="44.413" lon="3.57156">
        <ele>1091</ele>
        <time>2022-05-27T11:27:23Z</time>
      </trkpt>
      <trkpt lat="44.413" lon="3.57154">
        <ele>1091</ele>
        <time>2022-05-27T11:27:24Z</time>
      </trkpt>
      <trkpt lat="44.413" lon="3.57152">
        <ele>1090</ele>
        <time>2022-05-27T11:27:25Z</time>
      </trkpt>
      <trkpt lat="44.413" lon="3.5715">
        <ele>1089</ele>
        <time>2022-05-27T11:27:26Z</time>
      </trkpt>
      <trkpt lat="44.413" lon="3.57149">
        <ele>1088</ele>
        <time>2022-05-27T11:27:27Z</time>
      </trkpt>
      <trkpt lat="44.413" lon="3.57147">
        <ele>1088</ele>
        <time>2022-05-27T11:27:28Z</time>
      </trkpt>
      <trkpt lat="44.41299" lon="3.57147">
        <ele>1088</ele>
        <time>2022-05-27T11:27:29Z</time>
      </trkpt>
      <trkpt lat="44.41299" lon="3.57147">
        <ele>1088</ele>
        <time>2022-05-27T11:27:30Z</time>
      </trkpt>
      <trkpt lat="44.41298" lon="3.57147">
        <ele>1088</ele>
        <time>2022-05-27T11:27:31Z</time>
      </trkpt>
      <trkpt lat="44.41297" lon="3.57146">
        <ele>1088</ele>
        <time>2022-05-27T11:27:32Z</time>
      </trkpt>
      <trkpt lat="44.41297" lon="3.57147">
        <ele>1088</ele>
        <time>2022-05-27T11:27:33Z</time>
      </trkpt>
      <trkpt lat="44.41297" lon="3.57146">
        <ele>1088</ele>
        <time>2022-05-27T11:27:34Z</time>
      </trkpt>
      <trkpt lat="44.41297" lon="3.57147">
        <ele>1088</ele>
        <time>2022-05-27T11:27:35Z</time>
      </trkpt>
      <trkpt lat="44.41297" lon="3.57147">
        <ele>1088</ele>
        <time>2022-05-27T11:27:36Z</time>
      </trkpt>
      <trkpt lat="44.41297" lon="3.57147">
        <ele>1088</ele>
        <time>2022-05-27T11:27:37Z</time>
      </trkpt>
      <trkpt lat="44.41297" lon="3.57147">
        <ele>1088</ele>
        <time>2022-05-27T11:27:38Z</time>
      </trkpt>
      <trkpt lat="44.41295" lon="3.57145">
        <ele>1087</ele>
        <time>2022-05-27T11:27:39Z</time>
      </trkpt>
      <trkpt lat="44.41293" lon="3.57145">
        <ele>1087</ele>
        <time>2022-05-27T11:27:40Z</time>
      </trkpt>
      <trkpt lat="44.41292" lon="3.57145">
        <ele>1087</ele>
        <time>2022-05-27T11:27:41Z</time>
      </trkpt>
      <trkpt lat="44.41291" lon="3.57145">
        <ele>1088</ele>
        <time>2022-05-27T11:27:42Z</time>
      </trkpt>
      <trkpt lat="44.4129" lon="3.57145">
        <ele>1087</ele>
        <time>2022-05-27T11:27:43Z</time>
      </trkpt>
      <trkpt lat="44.41288" lon="3.57145">
        <ele>1087</ele>
        <time>2022-05-27T11:27:44Z</time>
      </trkpt>
      <trkpt lat="44.41288" lon="3.57145">
        <ele>1087</ele>
        <time>2022-05-27T11:27:45Z</time>
      </trkpt>
      <trkpt lat="44.41288" lon="3.57146">
        <ele>1087</ele>
        <time>2022-05-27T11:27:46Z</time>
      </trkpt>
      <trkpt lat="44.41288" lon="3.57146">
        <ele>1087</ele>
        <time>2022-05-27T11:27:47Z</time>
      </trkpt>
      <trkpt lat="44.41288" lon="3.57146">
        <ele>1087</ele>
        <time>2022-05-27T11:27:47Z</time>
      </trkpt>
      <trkpt lat="44.41288" lon="3.57146">
        <ele>1087</ele>
        <time>2022-05-27T11:27:47Z</time>
      </trkpt>
      <trkpt lat="44.4128" lon="3.57145">
        <ele>1087</ele>
        <time>2022-05-27T11:27:57Z</time>
      </trkpt>
      <trkpt lat="44.41279" lon="3.57146">
        <ele>1087</ele>
        <time>2022-05-27T11:27:58Z</time>
      </trkpt>
      <trkpt lat="44.41278" lon="3.57146">
        <ele>1087</ele>
        <time>2022-05-27T11:27:59Z</time>
      </trkpt>
      <trkpt lat="44.41277" lon="3.57146">
        <ele>1087</ele>
        <time>2022-05-27T11:28:00Z</time>
      </trkpt>
      <trkpt lat="44.41276" lon="3.57146">
        <ele>1086</ele>
        <time>2022-05-27T11:28:01Z</time>
      </trkpt>
      <trkpt lat="44.41275" lon="3.57146">
        <ele>1086</ele>
        <time>2022-05-27T11:28:02Z</time>
      </trkpt>
      <trkpt lat="44.41274" lon="3.57145">
        <ele>1086</ele>
        <time>2022-05-27T11:28:03Z</time>
      </trkpt>
      <trkpt lat="44.41273" lon="3.57145">
        <ele>1086</ele>
        <time>2022-05-27T11:28:04Z</time>
      </trkpt>
      <trkpt lat="44.41272" lon="3.57146">
        <ele>1086</ele>
        <time>2022-05-27T11:28:05Z</time>
      </trkpt>
      <trkpt lat="44.41271" lon="3.57146">
        <ele>1086</ele>
        <time>2022-05-27T11:28:06Z</time>
      </trkpt>
      <trkpt lat="44.4127" lon="3.57145">
        <ele>1087</ele>
        <time>2022-05-27T11:28:07Z</time>
      </trkpt>
      <trkpt lat="44.41269" lon="3.57145">
        <ele>1086</ele>
        <time>2022-05-27T11:28:08Z</time>
      </trkpt>
      <trkpt lat="44.41268" lon="3.57145">
        <ele>1087</ele>
        <time>2022-05-27T11:28:09Z</time>
      </trkpt>
      <trkpt lat="44.41267" lon="3.57144">
        <ele>1087</ele>
        <time>2022-05-27T11:28:10Z</time>
      </trkpt>
      <trkpt lat="44.41266" lon="3.57144">
        <ele>1087</ele>
        <time>2022-05-27T11:28:11Z</time>
      </trkpt>
      <trkpt lat="44.41264" lon="3.57145">
        <ele>1087</ele>
        <time>2022-05-27T11:28:12Z</time>
      </trkpt>
      <trkpt lat="44.41263" lon="3.57145">
        <ele>1087</ele>
        <time>2022-05-27T11:28:13Z</time>
      </trkpt>
      <trkpt lat="44.41262" lon="3.57145">
        <ele>1087</ele>
        <time>2022-05-27T11:28:14Z</time>
      </trkpt>
      <trkpt lat="44.4126" lon="3.57144">
        <ele>1087</ele>
        <time>2022-05-27T11:28:15Z</time>
      </trkpt>
      <trkpt lat="44.41259" lon="3.57144">
        <ele>1087</ele>
        <time>2022-05-27T11:28:16Z</time>
      </trkpt>
      <trkpt lat="44.41258" lon="3.57144">
        <ele>1087</ele>
        <time>2022-05-27T11:28:17Z</time>
      </trkpt>
      <trkpt lat="44.41256" lon="3.57144">
        <ele>1087</ele>
        <time>2022-05-27T11:28:18Z</time>
      </trkpt>
      <trkpt lat="44.41254" lon="3.57144">
        <ele>1087</ele>
        <time>2022-05-27T11:28:19Z</time>
      </trkpt>
      <trkpt lat="44.41253" lon="3.57145">
        <ele>1087</ele>
        <time>2022-05-27T11:28:20Z</time>
      </trkpt>
      <trkpt lat="44.41253" lon="3.57145">
        <ele>1088</ele>
        <time>2022-05-27T11:28:21Z</time>
      </trkpt>
      <trkpt lat="44.41251" lon="3.57145">
        <ele>1088</ele>
        <time>2022-05-27T11:28:22Z</time>
      </trkpt>
      <trkpt lat="44.4125" lon="3.57145">
        <ele>1088</ele>
        <time>2022-05-27T11:28:23Z</time>
      </trkpt>
      <trkpt lat="44.41249" lon="3.57145">
        <ele>1087</ele>
        <time>2022-05-27T11:28:24Z</time>
      </trkpt>
      <trkpt lat="44.41247" lon="3.57144">
        <ele>1088</ele>
        <time>2022-05-27T11:28:25Z</time>
      </trkpt>
      <trkpt lat="44.41246" lon="3.57144">
        <ele>1088</ele>
        <time>2022-05-27T11:28:26Z</time>
      </trkpt>
      <trkpt lat="44.41245" lon="3.57144">
        <ele>1088</ele>
        <time>2022-05-27T11:28:27Z</time>
      </trkpt>
      <trkpt lat="44.41243" lon="3.57144">
        <ele>1088</ele>
        <time>2022-05-27T11:28:28Z</time>
      </trkpt>
      <trkpt lat="44.41243" lon="3.57144">
        <ele>1088</ele>
        <time>2022-05-27T11:28:29Z</time>
      </trkpt>
      <trkpt lat="44.41241" lon="3.57143">
        <ele>1088</ele>
        <time>2022-05-27T11:28:30Z</time>
      </trkpt>
      <trkpt lat="44.4124" lon="3.57143">
        <ele>1088</ele>
        <time>2022-05-27T11:28:31Z</time>
      </trkpt>
      <trkpt lat="44.41238" lon="3.57143">
        <ele>1088</ele>
        <time>2022-05-27T11:28:32Z</time>
      </trkpt>
      <trkpt lat="44.41238" lon="3.57142">
        <ele>1087</ele>
        <time>2022-05-27T11:28:33Z</time>
      </trkpt>
      <trkpt lat="44.41237" lon="3.57142">
        <ele>1087</ele>
        <time>2022-05-27T11:28:34Z</time>
      </trkpt>
      <trkpt lat="44.41235" lon="3.57142">
        <ele>1087</ele>
        <time>2022-05-27T11:28:35Z</time>
      </trkpt>
      <trkpt lat="44.41233" lon="3.57142">
        <ele>1088</ele>
        <time>2022-05-27T11:28:36Z</time>
      </trkpt>
      <trkpt lat="44.41233" lon="3.57142">
        <ele>1088</ele>
        <time>2022-05-27T11:28:37Z</time>
      </trkpt>
      <trkpt lat="44.41232" lon="3.57141">
        <ele>1088</ele>
        <time>2022-05-27T11:28:38Z</time>
      </trkpt>
      <trkpt lat="44.41231" lon="3.57141">
        <ele>1087</ele>
        <time>2022-05-27T11:28:39Z</time>
      </trkpt>
      <trkpt lat="44.4123" lon="3.57142">
        <ele>1087</ele>
        <time>2022-05-27T11:28:40Z</time>
      </trkpt>
      <trkpt lat="44.41229" lon="3.57142">
        <ele>1087</ele>
        <time>2022-05-27T11:28:41Z</time>
      </trkpt>
      <trkpt lat="44.41227" lon="3.57143">
        <ele>1087</ele>
        <time>2022-05-27T11:28:42Z</time>
      </trkpt>
      <trkpt lat="44.41226" lon="3.57143">
        <ele>1086</ele>
        <time>2022-05-27T11:28:43Z</time>
      </trkpt>
      <trkpt lat="44.41225" lon="3.57143">
        <ele>1086</ele>
        <time>2022-05-27T11:28:44Z</time>
      </trkpt>
      <trkpt lat="44.41223" lon="3.57143">
        <ele>1086</ele>
        <time>2022-05-27T11:28:45Z</time>
      </trkpt>
      <trkpt lat="44.41222" lon="3.57143">
        <ele>1085</ele>
        <time>2022-05-27T11:28:46Z</time>
      </trkpt>
      <trkpt lat="44.41221" lon="3.57143">
        <ele>1086</ele>
        <time>2022-05-27T11:28:47Z</time>
      </trkpt>
      <trkpt lat="44.4122" lon="3.57143">
        <ele>1086</ele>
        <time>2022-05-27T11:28:48Z</time>
      </trkpt>
      <trkpt lat="44.41219" lon="3.57143">
        <ele>1086</ele>
        <time>2022-05-27T11:28:49Z</time>
      </trkpt>
      <trkpt lat="44.41218" lon="3.57144">
        <ele>1086</ele>
        <time>2022-05-27T11:28:50Z</time>
      </trkpt>
      <trkpt lat="44.41217" lon="3.57145">
        <ele>1086</ele>
        <time>2022-05-27T11:28:51Z</time>
      </trkpt>
      <trkpt lat="44.41216" lon="3.57145">
        <ele>1085</ele>
        <time>2022-05-27T11:28:52Z</time>
      </trkpt>
      <trkpt lat="44.41214" lon="3.57145">
        <ele>1085</ele>
        <time>2022-05-27T11:28:53Z</time>
      </trkpt>
      <trkpt lat="44.41213" lon="3.57145">
        <ele>1085</ele>
        <time>2022-05-27T11:28:54Z</time>
      </trkpt>
      <trkpt lat="44.41212" lon="3.57145">
        <ele>1084</ele>
        <time>2022-05-27T11:28:55Z</time>
      </trkpt>
      <trkpt lat="44.41211" lon="3.57144">
        <ele>1084</ele>
        <time>2022-05-27T11:28:56Z</time>
      </trkpt>
      <trkpt lat="44.41211" lon="3.57144">
        <ele>1083</ele>
        <time>2022-05-27T11:28:57Z</time>
      </trkpt>
      <trkpt lat="44.41209" lon="3.57144">
        <ele>1083</ele>
        <time>2022-05-27T11:28:58Z</time>
      </trkpt>
      <trkpt lat="44.41209" lon="3.57144">
        <ele>1083</ele>
        <time>2022-05-27T11:28:59Z</time>
      </trkpt>
      <trkpt lat="44.41208" lon="3.57145">
        <ele>1083</ele>
        <time>2022-05-27T11:29:00Z</time>
      </trkpt>
      <trkpt lat="44.41207" lon="3.57145">
        <ele>1083</ele>
        <time>2022-05-27T11:29:01Z</time>
      </trkpt>
      <trkpt lat="44.41206" lon="3.57146">
        <ele>1083</ele>
        <time>2022-05-27T11:29:02Z</time>
      </trkpt>
      <trkpt lat="44.41205" lon="3.57145">
        <ele>1083</ele>
        <time>2022-05-27T11:29:03Z</time>
      </trkpt>
      <trkpt lat="44.41204" lon="3.57145">
        <ele>1083</ele>
        <time>2022-05-27T11:29:04Z</time>
      </trkpt>
      <trkpt lat="44.41203" lon="3.57145">
        <ele>1083</ele>
        <time>2022-05-27T11:29:05Z</time>
      </trkpt>
      <trkpt lat="44.41202" lon="3.57144">
        <ele>1083</ele>
        <time>2022-05-27T11:29:06Z</time>
      </trkpt>
      <trkpt lat="44.41201" lon="3.57144">
        <ele>1083</ele>
        <time>2022-05-27T11:29:07Z</time>
      </trkpt>
      <trkpt lat="44.412" lon="3.57143">
        <ele>1083</ele>
        <time>2022-05-27T11:29:08Z</time>
      </trkpt>
      <trkpt lat="44.41199" lon="3.57141">
        <ele>1083</ele>
        <time>2022-05-27T11:29:09Z</time>
      </trkpt>
      <trkpt lat="44.41198" lon="3.5714">
        <ele>1082</ele>
        <time>2022-05-27T11:29:10Z</time>
      </trkpt>
      <trkpt lat="44.41197" lon="3.5714">
        <ele>1082</ele>
        <time>2022-05-27T11:29:11Z</time>
      </trkpt>
      <trkpt lat="44.41197" lon="3.5714">
        <ele>1082</ele>
        <time>2022-05-27T11:29:12Z</time>
      </trkpt>
      <trkpt lat="44.41196" lon="3.57139">
        <ele>1083</ele>
        <time>2022-05-27T11:29:13Z</time>
      </trkpt>
      <trkpt lat="44.41196" lon="3.57138">
        <ele>1083</ele>
        <time>2022-05-27T11:29:14Z</time>
      </trkpt>
      <trkpt lat="44.41195" lon="3.57138">
        <ele>1082</ele>
        <time>2022-05-27T11:29:15Z</time>
      </trkpt>
      <trkpt lat="44.41195" lon="3.57136">
        <ele>1082</ele>
        <time>2022-05-27T11:29:16Z</time>
      </trkpt>
      <trkpt lat="44.41194" lon="3.57134">
        <ele>1083</ele>
        <time>2022-05-27T11:29:17Z</time>
      </trkpt>
      <trkpt lat="44.41193" lon="3.57133">
        <ele>1083</ele>
        <time>2022-05-27T11:29:18Z</time>
      </trkpt>
      <trkpt lat="44.41193" lon="3.57133">
        <ele>1083</ele>
        <time>2022-05-27T11:29:19Z</time>
      </trkpt>
      <trkpt lat="44.41193" lon="3.57133">
        <ele>1083</ele>
        <time>2022-05-27T11:29:20Z</time>
      </trkpt>
      <trkpt lat="44.41192" lon="3.57133">
        <ele>1083</ele>
        <time>2022-05-27T11:29:21Z</time>
      </trkpt>
      <trkpt lat="44.41191" lon="3.57133">
        <ele>1082</ele>
        <time>2022-05-27T11:29:22Z</time>
      </trkpt>
      <trkpt lat="44.4119" lon="3.57132">
        <ele>1082</ele>
        <time>2022-05-27T11:29:23Z</time>
      </trkpt>
      <trkpt lat="44.41188" lon="3.57131">
        <ele>1082</ele>
        <time>2022-05-27T11:29:24Z</time>
      </trkpt>
      <trkpt lat="44.41188" lon="3.5713">
        <ele>1082</ele>
        <time>2022-05-27T11:29:25Z</time>
      </trkpt>
      <trkpt lat="44.41187" lon="3.57129">
        <ele>1081</ele>
        <time>2022-05-27T11:29:26Z</time>
      </trkpt>
      <trkpt lat="44.41186" lon="3.57127">
        <ele>1081</ele>
        <time>2022-05-27T11:29:27Z</time>
      </trkpt>
      <trkpt lat="44.41185" lon="3.57126">
        <ele>1082</ele>
        <time>2022-05-27T11:29:28Z</time>
      </trkpt>
      <trkpt lat="44.41184" lon="3.57126">
        <ele>1081</ele>
        <time>2022-05-27T11:29:29Z</time>
      </trkpt>
      <trkpt lat="44.41182" lon="3.57125">
        <ele>1081</ele>
        <time>2022-05-27T11:29:30Z</time>
      </trkpt>
      <trkpt lat="44.41182" lon="3.57125">
        <ele>1081</ele>
        <time>2022-05-27T11:29:31Z</time>
      </trkpt>
      <trkpt lat="44.41182" lon="3.57125">
        <ele>1082</ele>
        <time>2022-05-27T11:29:32Z</time>
      </trkpt>
      <trkpt lat="44.4118" lon="3.57126">
        <ele>1081</ele>
        <time>2022-05-27T11:29:33Z</time>
      </trkpt>
      <trkpt lat="44.41179" lon="3.57126">
        <ele>1081</ele>
        <time>2022-05-27T11:29:34Z</time>
      </trkpt>
      <trkpt lat="44.41178" lon="3.57127">
        <ele>1081</ele>
        <time>2022-05-27T11:29:35Z</time>
      </trkpt>
      <trkpt lat="44.41176" lon="3.57126">
        <ele>1080</ele>
        <time>2022-05-27T11:29:36Z</time>
      </trkpt>
      <trkpt lat="44.41175" lon="3.57125">
        <ele>1080</ele>
        <time>2022-05-27T11:29:37Z</time>
      </trkpt>
      <trkpt lat="44.41174" lon="3.57124">
        <ele>1080</ele>
        <time>2022-05-27T11:29:38Z</time>
      </trkpt>
      <trkpt lat="44.41173" lon="3.57123">
        <ele>1080</ele>
        <time>2022-05-27T11:29:39Z</time>
      </trkpt>
      <trkpt lat="44.41173" lon="3.57122">
        <ele>1080</ele>
        <time>2022-05-27T11:29:40Z</time>
      </trkpt>
      <trkpt lat="44.41172" lon="3.57122">
        <ele>1080</ele>
        <time>2022-05-27T11:29:41Z</time>
      </trkpt>
      <trkpt lat="44.41171" lon="3.57121">
        <ele>1080</ele>
        <time>2022-05-27T11:29:42Z</time>
      </trkpt>
      <trkpt lat="44.41171" lon="3.57121">
        <ele>1080</ele>
        <time>2022-05-27T11:29:43Z</time>
      </trkpt>
      <trkpt lat="44.41171" lon="3.57121">
        <ele>1080</ele>
        <time>2022-05-27T11:29:44Z</time>
      </trkpt>
      <trkpt lat="44.4117" lon="3.57121">
        <ele>1080</ele>
        <time>2022-05-27T11:29:45Z</time>
      </trkpt>
      <trkpt lat="44.4117" lon="3.57121">
        <ele>1080</ele>
        <time>2022-05-27T11:29:46Z</time>
      </trkpt>
      <trkpt lat="44.4117" lon="3.57121">
        <ele>1080</ele>
        <time>2022-05-27T11:29:47Z</time>
      </trkpt>
      <trkpt lat="44.41168" lon="3.5712">
        <ele>1080</ele>
        <time>2022-05-27T11:29:48Z</time>
      </trkpt>
      <trkpt lat="44.41167" lon="3.5712">
        <ele>1080</ele>
        <time>2022-05-27T11:29:49Z</time>
      </trkpt>
      <trkpt lat="44.41166" lon="3.5712">
        <ele>1081</ele>
        <time>2022-05-27T11:29:50Z</time>
      </trkpt>
      <trkpt lat="44.41166" lon="3.5712">
        <ele>1080</ele>
        <time>2022-05-27T11:29:51Z</time>
      </trkpt>
      <trkpt lat="44.41166" lon="3.5712">
        <ele>1080</ele>
        <time>2022-05-27T11:29:52Z</time>
      </trkpt>
      <trkpt lat="44.41164" lon="3.57119">
        <ele>1079</ele>
        <time>2022-05-27T11:29:53Z</time>
      </trkpt>
      <trkpt lat="44.41164" lon="3.57118">
        <ele>1078</ele>
        <time>2022-05-27T11:29:54Z</time>
      </trkpt>
      <trkpt lat="44.41163" lon="3.57117">
        <ele>1078</ele>
        <time>2022-05-27T11:29:55Z</time>
      </trkpt>
      <trkpt lat="44.41163" lon="3.57115">
        <ele>1077</ele>
        <time>2022-05-27T11:29:56Z</time>
      </trkpt>
      <trkpt lat="44.41162" lon="3.57115">
        <ele>1076</ele>
        <time>2022-05-27T11:29:57Z</time>
      </trkpt>
      <trkpt lat="44.41161" lon="3.57115">
        <ele>1075</ele>
        <time>2022-05-27T11:29:58Z</time>
      </trkpt>
      <trkpt lat="44.41161" lon="3.57114">
        <ele>1075</ele>
        <time>2022-05-27T11:29:59Z</time>
      </trkpt>
      <trkpt lat="44.4116" lon="3.57114">
        <ele>1075</ele>
        <time>2022-05-27T11:30:00Z</time>
      </trkpt>
      <trkpt lat="44.41159" lon="3.57113">
        <ele>1075</ele>
        <time>2022-05-27T11:30:01Z</time>
      </trkpt>
      <trkpt lat="44.41159" lon="3.57112">
        <ele>1074</ele>
        <time>2022-05-27T11:30:02Z</time>
      </trkpt>
      <trkpt lat="44.41158" lon="3.57111">
        <ele>1074</ele>
        <time>2022-05-27T11:30:03Z</time>
      </trkpt>
      <trkpt lat="44.41156" lon="3.5711">
        <ele>1074</ele>
        <time>2022-05-27T11:30:04Z</time>
      </trkpt>
      <trkpt lat="44.41156" lon="3.5711">
        <ele>1074</ele>
        <time>2022-05-27T11:30:05Z</time>
      </trkpt>
      <trkpt lat="44.41155" lon="3.5711">
        <ele>1074</ele>
        <time>2022-05-27T11:30:06Z</time>
      </trkpt>
      <trkpt lat="44.41154" lon="3.57109">
        <ele>1074</ele>
        <time>2022-05-27T11:30:07Z</time>
      </trkpt>
      <trkpt lat="44.41154" lon="3.57108">
        <ele>1074</ele>
        <time>2022-05-27T11:30:08Z</time>
      </trkpt>
      <trkpt lat="44.41153" lon="3.57107">
        <ele>1074</ele>
        <time>2022-05-27T11:30:09Z</time>
      </trkpt>
      <trkpt lat="44.41152" lon="3.57106">
        <ele>1074</ele>
        <time>2022-05-27T11:30:10Z</time>
      </trkpt>
      <trkpt lat="44.41151" lon="3.57105">
        <ele>1074</ele>
        <time>2022-05-27T11:30:11Z</time>
      </trkpt>
      <trkpt lat="44.41151" lon="3.57104">
        <ele>1074</ele>
        <time>2022-05-27T11:30:12Z</time>
      </trkpt>
      <trkpt lat="44.4115" lon="3.57103">
        <ele>1074</ele>
        <time>2022-05-27T11:30:13Z</time>
      </trkpt>
      <trkpt lat="44.4115" lon="3.57103">
        <ele>1074</ele>
        <time>2022-05-27T11:30:14Z</time>
      </trkpt>
      <trkpt lat="44.41149" lon="3.57102">
        <ele>1073</ele>
        <time>2022-05-27T11:30:15Z</time>
      </trkpt>
      <trkpt lat="44.41148" lon="3.57101">
        <ele>1073</ele>
        <time>2022-05-27T11:30:16Z</time>
      </trkpt>
      <trkpt lat="44.41148" lon="3.571">
        <ele>1073</ele>
        <time>2022-05-27T11:30:17Z</time>
      </trkpt>
      <trkpt lat="44.41147" lon="3.571">
        <ele>1073</ele>
        <time>2022-05-27T11:30:18Z</time>
      </trkpt>
      <trkpt lat="44.41146" lon="3.57101">
        <ele>1073</ele>
        <time>2022-05-27T11:30:19Z</time>
      </trkpt>
      <trkpt lat="44.41145" lon="3.57101">
        <ele>1073</ele>
        <time>2022-05-27T11:30:20Z</time>
      </trkpt>
      <trkpt lat="44.41144" lon="3.57101">
        <ele>1074</ele>
        <time>2022-05-27T11:30:21Z</time>
      </trkpt>
      <trkpt lat="44.41143" lon="3.57102">
        <ele>1074</ele>
        <time>2022-05-27T11:30:22Z</time>
      </trkpt>
      <trkpt lat="44.41143" lon="3.57102">
        <ele>1073</ele>
        <time>2022-05-27T11:30:23Z</time>
      </trkpt>
      <trkpt lat="44.41142" lon="3.57102">
        <ele>1073</ele>
        <time>2022-05-27T11:30:24Z</time>
      </trkpt>
      <trkpt lat="44.41142" lon="3.57102">
        <ele>1073</ele>
        <time>2022-05-27T11:30:25Z</time>
      </trkpt>
      <trkpt lat="44.41141" lon="3.57102">
        <ele>1073</ele>
        <time>2022-05-27T11:30:26Z</time>
      </trkpt>
      <trkpt lat="44.41141" lon="3.57102">
        <ele>1073</ele>
        <time>2022-05-27T11:30:27Z</time>
      </trkpt>
      <trkpt lat="44.4114" lon="3.57101">
        <ele>1073</ele>
        <time>2022-05-27T11:30:28Z</time>
      </trkpt>
      <trkpt lat="44.41139" lon="3.57101">
        <ele>1073</ele>
        <time>2022-05-27T11:30:29Z</time>
      </trkpt>
      <trkpt lat="44.41138" lon="3.57102">
        <ele>1073</ele>
        <time>2022-05-27T11:30:30Z</time>
      </trkpt>
      <trkpt lat="44.41137" lon="3.57103">
        <ele>1073</ele>
        <time>2022-05-27T11:30:31Z</time>
      </trkpt>
      <trkpt lat="44.41136" lon="3.57102">
        <ele>1074</ele>
        <time>2022-05-27T11:30:32Z</time>
      </trkpt>
      <trkpt lat="44.41136" lon="3.57102">
        <ele>1074</ele>
        <time>2022-05-27T11:30:33Z</time>
      </trkpt>
      <trkpt lat="44.41135" lon="3.57102">
        <ele>1073</ele>
        <time>2022-05-27T11:30:34Z</time>
      </trkpt>
      <trkpt lat="44.41135" lon="3.57102">
        <ele>1073</ele>
        <time>2022-05-27T11:30:34Z</time>
      </trkpt>
      <trkpt lat="44.41135" lon="3.57102">
        <ele>1073</ele>
        <time>2022-05-27T11:30:34Z</time>
      </trkpt>
      <trkpt lat="44.41131" lon="3.57099">
        <ele>1072</ele>
        <time>2022-05-27T11:30:44Z</time>
      </trkpt>
      <trkpt lat="44.4113" lon="3.57098">
        <ele>1072</ele>
        <time>2022-05-27T11:30:45Z</time>
      </trkpt>
      <trkpt lat="44.4113" lon="3.57097">
        <ele>1072</ele>
        <time>2022-05-27T11:30:46Z</time>
      </trkpt>
      <trkpt lat="44.41129" lon="3.57096">
        <ele>1072</ele>
        <time>2022-05-27T11:30:47Z</time>
      </trkpt>
      <trkpt lat="44.41128" lon="3.57095">
        <ele>1072</ele>
        <time>2022-05-27T11:30:48Z</time>
      </trkpt>
      <trkpt lat="44.41127" lon="3.57094">
        <ele>1072</ele>
        <time>2022-05-27T11:30:49Z</time>
      </trkpt>
      <trkpt lat="44.41126" lon="3.57094">
        <ele>1072</ele>
        <time>2022-05-27T11:30:50Z</time>
      </trkpt>
      <trkpt lat="44.41126" lon="3.57092">
        <ele>1072</ele>
        <time>2022-05-27T11:30:51Z</time>
      </trkpt>
      <trkpt lat="44.41125" lon="3.57091">
        <ele>1072</ele>
        <time>2022-05-27T11:30:52Z</time>
      </trkpt>
      <trkpt lat="44.41124" lon="3.57091">
        <ele>1072</ele>
        <time>2022-05-27T11:30:53Z</time>
      </trkpt>
      <trkpt lat="44.41124" lon="3.5709">
        <ele>1072</ele>
        <time>2022-05-27T11:30:54Z</time>
      </trkpt>
      <trkpt lat="44.41123" lon="3.57089">
        <ele>1072</ele>
        <time>2022-05-27T11:30:55Z</time>
      </trkpt>
      <trkpt lat="44.41122" lon="3.57089">
        <ele>1072</ele>
        <time>2022-05-27T11:30:56Z</time>
      </trkpt>
      <trkpt lat="44.41121" lon="3.57088">
        <ele>1073</ele>
        <time>2022-05-27T11:30:57Z</time>
      </trkpt>
      <trkpt lat="44.41119" lon="3.57088">
        <ele>1073</ele>
        <time>2022-05-27T11:30:58Z</time>
      </trkpt>
      <trkpt lat="44.41118" lon="3.57087">
        <ele>1073</ele>
        <time>2022-05-27T11:30:59Z</time>
      </trkpt>
      <trkpt lat="44.41117" lon="3.57086">
        <ele>1073</ele>
        <time>2022-05-27T11:31:00Z</time>
      </trkpt>
      <trkpt lat="44.41116" lon="3.57086">
        <ele>1074</ele>
        <time>2022-05-27T11:31:01Z</time>
      </trkpt>
      <trkpt lat="44.41116" lon="3.57086">
        <ele>1074</ele>
        <time>2022-05-27T11:31:02Z</time>
      </trkpt>
      <trkpt lat="44.41115" lon="3.57086">
        <ele>1074</ele>
        <time>2022-05-27T11:31:03Z</time>
      </trkpt>
      <trkpt lat="44.41114" lon="3.57086">
        <ele>1074</ele>
        <time>2022-05-27T11:31:04Z</time>
      </trkpt>
      <trkpt lat="44.41113" lon="3.57085">
        <ele>1074</ele>
        <time>2022-05-27T11:31:05Z</time>
      </trkpt>
      <trkpt lat="44.41113" lon="3.57085">
        <ele>1074</ele>
        <time>2022-05-27T11:31:06Z</time>
      </trkpt>
      <trkpt lat="44.41113" lon="3.57085">
        <ele>1074</ele>
        <time>2022-05-27T11:31:07Z</time>
      </trkpt>
      <trkpt lat="44.41113" lon="3.57085">
        <ele>1074</ele>
        <time>2022-05-27T11:31:08Z</time>
      </trkpt>
      <trkpt lat="44.41112" lon="3.57085">
        <ele>1074</ele>
        <time>2022-05-27T11:31:09Z</time>
      </trkpt>
      <trkpt lat="44.41112" lon="3.57085">
        <ele>1074</ele>
        <time>2022-05-27T11:31:09Z</time>
      </trkpt>
      <trkpt lat="44.41112" lon="3.57085">
        <ele>1074</ele>
        <time>2022-05-27T11:31:09Z</time>
      </trkpt>
      <trkpt lat="44.41106" lon="3.57085">
        <ele>1076</ele>
        <time>2022-05-27T11:31:17Z</time>
      </trkpt>
      <trkpt lat="44.41105" lon="3.57085">
        <ele>1076</ele>
        <time>2022-05-27T11:31:18Z</time>
      </trkpt>
      <trkpt lat="44.41104" lon="3.57085">
        <ele>1076</ele>
        <time>2022-05-27T11:31:19Z</time>
      </trkpt>
      <trkpt lat="44.41103" lon="3.57085">
        <ele>1076</ele>
        <time>2022-05-27T11:31:20Z</time>
      </trkpt>
      <trkpt lat="44.41103" lon="3.57085">
        <ele>1076</ele>
        <time>2022-05-27T11:31:21Z</time>
      </trkpt>
      <trkpt lat="44.41102" lon="3.57084">
        <ele>1075</ele>
        <time>2022-05-27T11:31:22Z</time>
      </trkpt>
      <trkpt lat="44.41101" lon="3.57083">
        <ele>1076</ele>
        <time>2022-05-27T11:31:23Z</time>
      </trkpt>
      <trkpt lat="44.411" lon="3.57083">
        <ele>1076</ele>
        <time>2022-05-27T11:31:24Z</time>
      </trkpt>
      <trkpt lat="44.41098" lon="3.57082">
        <ele>1076</ele>
        <time>2022-05-27T11:31:25Z</time>
      </trkpt>
      <trkpt lat="44.41097" lon="3.57082">
        <ele>1076</ele>
        <time>2022-05-27T11:31:26Z</time>
      </trkpt>
      <trkpt lat="44.41097" lon="3.57081">
        <ele>1077</ele>
        <time>2022-05-27T11:31:27Z</time>
      </trkpt>
      <trkpt lat="44.41096" lon="3.57081">
        <ele>1077</ele>
        <time>2022-05-27T11:31:28Z</time>
      </trkpt>
      <trkpt lat="44.41095" lon="3.5708">
        <ele>1078</ele>
        <time>2022-05-27T11:31:29Z</time>
      </trkpt>
      <trkpt lat="44.41094" lon="3.57079">
        <ele>1077</ele>
        <time>2022-05-27T11:31:30Z</time>
      </trkpt>
      <trkpt lat="44.41093" lon="3.57079">
        <ele>1077</ele>
        <time>2022-05-27T11:31:31Z</time>
      </trkpt>
      <trkpt lat="44.41092" lon="3.57078">
        <ele>1077</ele>
        <time>2022-05-27T11:31:32Z</time>
      </trkpt>
      <trkpt lat="44.41091" lon="3.57078">
        <ele>1077</ele>
        <time>2022-05-27T11:31:33Z</time>
      </trkpt>
      <trkpt lat="44.4109" lon="3.57077">
        <ele>1077</ele>
        <time>2022-05-27T11:31:34Z</time>
      </trkpt>
      <trkpt lat="44.41089" lon="3.57077">
        <ele>1077</ele>
        <time>2022-05-27T11:31:35Z</time>
      </trkpt>
      <trkpt lat="44.41087" lon="3.57077">
        <ele>1077</ele>
        <time>2022-05-27T11:31:36Z</time>
      </trkpt>
      <trkpt lat="44.41086" lon="3.57077">
        <ele>1077</ele>
        <time>2022-05-27T11:31:37Z</time>
      </trkpt>
      <trkpt lat="44.41085" lon="3.57077">
        <ele>1077</ele>
        <time>2022-05-27T11:31:38Z</time>
      </trkpt>
      <trkpt lat="44.41084" lon="3.57077">
        <ele>1076</ele>
        <time>2022-05-27T11:31:39Z</time>
      </trkpt>
      <trkpt lat="44.41083" lon="3.57076">
        <ele>1076</ele>
        <time>2022-05-27T11:31:40Z</time>
      </trkpt>
      <trkpt lat="44.41081" lon="3.57075">
        <ele>1076</ele>
        <time>2022-05-27T11:31:41Z</time>
      </trkpt>
      <trkpt lat="44.4108" lon="3.57075">
        <ele>1076</ele>
        <time>2022-05-27T11:31:42Z</time>
      </trkpt>
      <trkpt lat="44.41079" lon="3.57075">
        <ele>1076</ele>
        <time>2022-05-27T11:31:43Z</time>
      </trkpt>
      <trkpt lat="44.41077" lon="3.57074">
        <ele>1075</ele>
        <time>2022-05-27T11:31:44Z</time>
      </trkpt>
      <trkpt lat="44.41076" lon="3.57074">
        <ele>1075</ele>
        <time>2022-05-27T11:31:45Z</time>
      </trkpt>
      <trkpt lat="44.41075" lon="3.57073">
        <ele>1075</ele>
        <time>2022-05-27T11:31:46Z</time>
      </trkpt>
      <trkpt lat="44.41074" lon="3.57072">
        <ele>1075</ele>
        <time>2022-05-27T11:31:47Z</time>
      </trkpt>
      <trkpt lat="44.41073" lon="3.57071">
        <ele>1075</ele>
        <time>2022-05-27T11:31:48Z</time>
      </trkpt>
      <trkpt lat="44.41072" lon="3.5707">
        <ele>1074</ele>
        <time>2022-05-27T11:31:49Z</time>
      </trkpt>
      <trkpt lat="44.41071" lon="3.5707">
        <ele>1073</ele>
        <time>2022-05-27T11:31:50Z</time>
      </trkpt>
      <trkpt lat="44.4107" lon="3.57069">
        <ele>1074</ele>
        <time>2022-05-27T11:31:51Z</time>
      </trkpt>
      <trkpt lat="44.41069" lon="3.57068">
        <ele>1074</ele>
        <time>2022-05-27T11:31:52Z</time>
      </trkpt>
      <trkpt lat="44.41069" lon="3.57067">
        <ele>1075</ele>
        <time>2022-05-27T11:31:53Z</time>
      </trkpt>
      <trkpt lat="44.41068" lon="3.57066">
        <ele>1074</ele>
        <time>2022-05-27T11:31:54Z</time>
      </trkpt>
      <trkpt lat="44.41067" lon="3.57065">
        <ele>1075</ele>
        <time>2022-05-27T11:31:55Z</time>
      </trkpt>
      <trkpt lat="44.41066" lon="3.57064">
        <ele>1075</ele>
        <time>2022-05-27T11:31:56Z</time>
      </trkpt>
      <trkpt lat="44.41065" lon="3.57063">
        <ele>1075</ele>
        <time>2022-05-27T11:31:57Z</time>
      </trkpt>
      <trkpt lat="44.41064" lon="3.57061">
        <ele>1075</ele>
        <time>2022-05-27T11:31:58Z</time>
      </trkpt>
      <trkpt lat="44.41063" lon="3.5706">
        <ele>1075</ele>
        <time>2022-05-27T11:31:59Z</time>
      </trkpt>
      <trkpt lat="44.41062" lon="3.57058">
        <ele>1074</ele>
        <time>2022-05-27T11:32:00Z</time>
      </trkpt>
      <trkpt lat="44.41061" lon="3.57057">
        <ele>1074</ele>
        <time>2022-05-27T11:32:01Z</time>
      </trkpt>
      <trkpt lat="44.4106" lon="3.57055">
        <ele>1074</ele>
        <time>2022-05-27T11:32:02Z</time>
      </trkpt>
      <trkpt lat="44.4106" lon="3.57054">
        <ele>1075</ele>
        <time>2022-05-27T11:32:03Z</time>
      </trkpt>
      <trkpt lat="44.41058" lon="3.57051">
        <ele>1075</ele>
        <time>2022-05-27T11:32:04Z</time>
      </trkpt>
      <trkpt lat="44.41058" lon="3.57049">
        <ele>1075</ele>
        <time>2022-05-27T11:32:05Z</time>
      </trkpt>
      <trkpt lat="44.41057" lon="3.57048">
        <ele>1074</ele>
        <time>2022-05-27T11:32:06Z</time>
      </trkpt>
      <trkpt lat="44.41056" lon="3.57047">
        <ele>1075</ele>
        <time>2022-05-27T11:32:07Z</time>
      </trkpt>
      <trkpt lat="44.41055" lon="3.57046">
        <ele>1074</ele>
        <time>2022-05-27T11:32:08Z</time>
      </trkpt>
      <trkpt lat="44.41054" lon="3.57045">
        <ele>1074</ele>
        <time>2022-05-27T11:32:09Z</time>
      </trkpt>
      <trkpt lat="44.41053" lon="3.57044">
        <ele>1074</ele>
        <time>2022-05-27T11:32:10Z</time>
      </trkpt>
      <trkpt lat="44.41052" lon="3.57043">
        <ele>1073</ele>
        <time>2022-05-27T11:32:11Z</time>
      </trkpt>
      <trkpt lat="44.41051" lon="3.57042">
        <ele>1073</ele>
        <time>2022-05-27T11:32:12Z</time>
      </trkpt>
      <trkpt lat="44.4105" lon="3.57041">
        <ele>1074</ele>
        <time>2022-05-27T11:32:13Z</time>
      </trkpt>
      <trkpt lat="44.41049" lon="3.5704">
        <ele>1074</ele>
        <time>2022-05-27T11:32:14Z</time>
      </trkpt>
      <trkpt lat="44.41048" lon="3.57039">
        <ele>1073</ele>
        <time>2022-05-27T11:32:15Z</time>
      </trkpt>
      <trkpt lat="44.41048" lon="3.57038">
        <ele>1073</ele>
        <time>2022-05-27T11:32:16Z</time>
      </trkpt>
      <trkpt lat="44.41047" lon="3.57037">
        <ele>1073</ele>
        <time>2022-05-27T11:32:17Z</time>
      </trkpt>
      <trkpt lat="44.41046" lon="3.57036">
        <ele>1072</ele>
        <time>2022-05-27T11:32:18Z</time>
      </trkpt>
      <trkpt lat="44.41045" lon="3.57034">
        <ele>1073</ele>
        <time>2022-05-27T11:32:19Z</time>
      </trkpt>
      <trkpt lat="44.41043" lon="3.57033">
        <ele>1073</ele>
        <time>2022-05-27T11:32:20Z</time>
      </trkpt>
      <trkpt lat="44.41042" lon="3.57031">
        <ele>1073</ele>
        <time>2022-05-27T11:32:21Z</time>
      </trkpt>
      <trkpt lat="44.41041" lon="3.5703">
        <ele>1072</ele>
        <time>2022-05-27T11:32:22Z</time>
      </trkpt>
      <trkpt lat="44.41041" lon="3.57027">
        <ele>1072</ele>
        <time>2022-05-27T11:32:23Z</time>
      </trkpt>
      <trkpt lat="44.4104" lon="3.57026">
        <ele>1072</ele>
        <time>2022-05-27T11:32:24Z</time>
      </trkpt>
      <trkpt lat="44.41039" lon="3.57024">
        <ele>1073</ele>
        <time>2022-05-27T11:32:25Z</time>
      </trkpt>
      <trkpt lat="44.41039" lon="3.57023">
        <ele>1073</ele>
        <time>2022-05-27T11:32:26Z</time>
      </trkpt>
      <trkpt lat="44.41038" lon="3.57022">
        <ele>1072</ele>
        <time>2022-05-27T11:32:27Z</time>
      </trkpt>
      <trkpt lat="44.41037" lon="3.57021">
        <ele>1072</ele>
        <time>2022-05-27T11:32:28Z</time>
      </trkpt>
      <trkpt lat="44.41036" lon="3.57019">
        <ele>1072</ele>
        <time>2022-05-27T11:32:29Z</time>
      </trkpt>
      <trkpt lat="44.41035" lon="3.57018">
        <ele>1071</ele>
        <time>2022-05-27T11:32:30Z</time>
      </trkpt>
      <trkpt lat="44.41034" lon="3.57017">
        <ele>1071</ele>
        <time>2022-05-27T11:32:31Z</time>
      </trkpt>
      <trkpt lat="44.41034" lon="3.57015">
        <ele>1071</ele>
        <time>2022-05-27T11:32:32Z</time>
      </trkpt>
      <trkpt lat="44.41033" lon="3.57014">
        <ele>1071</ele>
        <time>2022-05-27T11:32:33Z</time>
      </trkpt>
      <trkpt lat="44.41032" lon="3.57012">
        <ele>1071</ele>
        <time>2022-05-27T11:32:34Z</time>
      </trkpt>
      <trkpt lat="44.41031" lon="3.57011">
        <ele>1071</ele>
        <time>2022-05-27T11:32:35Z</time>
      </trkpt>
      <trkpt lat="44.4103" lon="3.5701">
        <ele>1072</ele>
        <time>2022-05-27T11:32:36Z</time>
      </trkpt>
      <trkpt lat="44.41029" lon="3.57009">
        <ele>1072</ele>
        <time>2022-05-27T11:32:37Z</time>
      </trkpt>
      <trkpt lat="44.41028" lon="3.57007">
        <ele>1073</ele>
        <time>2022-05-27T11:32:38Z</time>
      </trkpt>
      <trkpt lat="44.41027" lon="3.57005">
        <ele>1072</ele>
        <time>2022-05-27T11:32:39Z</time>
      </trkpt>
      <trkpt lat="44.41027" lon="3.57004">
        <ele>1072</ele>
        <time>2022-05-27T11:32:40Z</time>
      </trkpt>
      <trkpt lat="44.41026" lon="3.57002">
        <ele>1072</ele>
        <time>2022-05-27T11:32:41Z</time>
      </trkpt>
      <trkpt lat="44.41026" lon="3.57001">
        <ele>1073</ele>
        <time>2022-05-27T11:32:42Z</time>
      </trkpt>
      <trkpt lat="44.41024" lon="3.57">
        <ele>1073</ele>
        <time>2022-05-27T11:32:43Z</time>
      </trkpt>
      <trkpt lat="44.41024" lon="3.56999">
        <ele>1073</ele>
        <time>2022-05-27T11:32:44Z</time>
      </trkpt>
      <trkpt lat="44.41024" lon="3.56998">
        <ele>1073</ele>
        <time>2022-05-27T11:32:45Z</time>
      </trkpt>
      <trkpt lat="44.41023" lon="3.56996">
        <ele>1073</ele>
        <time>2022-05-27T11:32:46Z</time>
      </trkpt>
      <trkpt lat="44.41023" lon="3.56995">
        <ele>1073</ele>
        <time>2022-05-27T11:32:47Z</time>
      </trkpt>
      <trkpt lat="44.41023" lon="3.56993">
        <ele>1073</ele>
        <time>2022-05-27T11:32:48Z</time>
      </trkpt>
      <trkpt lat="44.41023" lon="3.56991">
        <ele>1072</ele>
        <time>2022-05-27T11:32:49Z</time>
      </trkpt>
      <trkpt lat="44.41023" lon="3.5699">
        <ele>1071</ele>
        <time>2022-05-27T11:32:50Z</time>
      </trkpt>
      <trkpt lat="44.41023" lon="3.56988">
        <ele>1071</ele>
        <time>2022-05-27T11:32:51Z</time>
      </trkpt>
      <trkpt lat="44.41023" lon="3.56987">
        <ele>1071</ele>
        <time>2022-05-27T11:32:52Z</time>
      </trkpt>
      <trkpt lat="44.41023" lon="3.56985">
        <ele>1071</ele>
        <time>2022-05-27T11:32:53Z</time>
      </trkpt>
      <trkpt lat="44.41023" lon="3.56983">
        <ele>1070</ele>
        <time>2022-05-27T11:32:54Z</time>
      </trkpt>
      <trkpt lat="44.41023" lon="3.56981">
        <ele>1070</ele>
        <time>2022-05-27T11:32:55Z</time>
      </trkpt>
      <trkpt lat="44.41023" lon="3.56979">
        <ele>1070</ele>
        <time>2022-05-27T11:32:56Z</time>
      </trkpt>
      <trkpt lat="44.41023" lon="3.56977">
        <ele>1070</ele>
        <time>2022-05-27T11:32:57Z</time>
      </trkpt>
      <trkpt lat="44.41023" lon="3.56975">
        <ele>1069</ele>
        <time>2022-05-27T11:32:58Z</time>
      </trkpt>
      <trkpt lat="44.41022" lon="3.56973">
        <ele>1069</ele>
        <time>2022-05-27T11:32:59Z</time>
      </trkpt>
      <trkpt lat="44.41023" lon="3.56972">
        <ele>1069</ele>
        <time>2022-05-27T11:33:00Z</time>
      </trkpt>
      <trkpt lat="44.41023" lon="3.5697">
        <ele>1069</ele>
        <time>2022-05-27T11:33:01Z</time>
      </trkpt>
      <trkpt lat="44.41023" lon="3.56968">
        <ele>1069</ele>
        <time>2022-05-27T11:33:02Z</time>
      </trkpt>
      <trkpt lat="44.41023" lon="3.56966">
        <ele>1069</ele>
        <time>2022-05-27T11:33:03Z</time>
      </trkpt>
      <trkpt lat="44.41023" lon="3.56964">
        <ele>1069</ele>
        <time>2022-05-27T11:33:04Z</time>
      </trkpt>
      <trkpt lat="44.41024" lon="3.56963">
        <ele>1070</ele>
        <time>2022-05-27T11:33:05Z</time>
      </trkpt>
      <trkpt lat="44.41024" lon="3.5696">
        <ele>1070</ele>
        <time>2022-05-27T11:33:06Z</time>
      </trkpt>
      <trkpt lat="44.41024" lon="3.56958">
        <ele>1071</ele>
        <time>2022-05-27T11:33:07Z</time>
      </trkpt>
      <trkpt lat="44.41025" lon="3.56956">
        <ele>1072</ele>
        <time>2022-05-27T11:33:08Z</time>
      </trkpt>
      <trkpt lat="44.41026" lon="3.56954">
        <ele>1072</ele>
        <time>2022-05-27T11:33:09Z</time>
      </trkpt>
      <trkpt lat="44.41026" lon="3.56951">
        <ele>1072</ele>
        <time>2022-05-27T11:33:10Z</time>
      </trkpt>
      <trkpt lat="44.41027" lon="3.5695">
        <ele>1072</ele>
        <time>2022-05-27T11:33:11Z</time>
      </trkpt>
      <trkpt lat="44.41028" lon="3.56948">
        <ele>1071</ele>
        <time>2022-05-27T11:33:12Z</time>
      </trkpt>
      <trkpt lat="44.41028" lon="3.56946">
        <ele>1070</ele>
        <time>2022-05-27T11:33:13Z</time>
      </trkpt>
      <trkpt lat="44.41028" lon="3.56944">
        <ele>1070</ele>
        <time>2022-05-27T11:33:14Z</time>
      </trkpt>
      <trkpt lat="44.41029" lon="3.56942">
        <ele>1070</ele>
        <time>2022-05-27T11:33:15Z</time>
      </trkpt>
      <trkpt lat="44.41029" lon="3.5694">
        <ele>1070</ele>
        <time>2022-05-27T11:33:16Z</time>
      </trkpt>
      <trkpt lat="44.41029" lon="3.56938">
        <ele>1070</ele>
        <time>2022-05-27T11:33:17Z</time>
      </trkpt>
      <trkpt lat="44.41029" lon="3.56937">
        <ele>1070</ele>
        <time>2022-05-27T11:33:18Z</time>
      </trkpt>
      <trkpt lat="44.41029" lon="3.56935">
        <ele>1070</ele>
        <time>2022-05-27T11:33:19Z</time>
      </trkpt>
      <trkpt lat="44.41029" lon="3.56934">
        <ele>1069</ele>
        <time>2022-05-27T11:33:20Z</time>
      </trkpt>
      <trkpt lat="44.41028" lon="3.56932">
        <ele>1069</ele>
        <time>2022-05-27T11:33:21Z</time>
      </trkpt>
      <trkpt lat="44.41029" lon="3.5693">
        <ele>1069</ele>
        <time>2022-05-27T11:33:22Z</time>
      </trkpt>
      <trkpt lat="44.41029" lon="3.56928">
        <ele>1070</ele>
        <time>2022-05-27T11:33:23Z</time>
      </trkpt>
      <trkpt lat="44.41029" lon="3.56925">
        <ele>1070</ele>
        <time>2022-05-27T11:33:24Z</time>
      </trkpt>
      <trkpt lat="44.41029" lon="3.56924">
        <ele>1069</ele>
        <time>2022-05-27T11:33:25Z</time>
      </trkpt>
      <trkpt lat="44.41029" lon="3.56922">
        <ele>1069</ele>
        <time>2022-05-27T11:33:26Z</time>
      </trkpt>
      <trkpt lat="44.41029" lon="3.5692">
        <ele>1068</ele>
        <time>2022-05-27T11:33:27Z</time>
      </trkpt>
      <trkpt lat="44.41029" lon="3.56918">
        <ele>1069</ele>
        <time>2022-05-27T11:33:28Z</time>
      </trkpt>
      <trkpt lat="44.41028" lon="3.56916">
        <ele>1069</ele>
        <time>2022-05-27T11:33:29Z</time>
      </trkpt>
      <trkpt lat="44.41028" lon="3.56914">
        <ele>1070</ele>
        <time>2022-05-27T11:33:30Z</time>
      </trkpt>
      <trkpt lat="44.41028" lon="3.56912">
        <ele>1070</ele>
        <time>2022-05-27T11:33:31Z</time>
      </trkpt>
      <trkpt lat="44.41028" lon="3.5691">
        <ele>1071</ele>
        <time>2022-05-27T11:33:32Z</time>
      </trkpt>
      <trkpt lat="44.41028" lon="3.56908">
        <ele>1071</ele>
        <time>2022-05-27T11:33:33Z</time>
      </trkpt>
      <trkpt lat="44.41027" lon="3.56907">
        <ele>1070</ele>
        <time>2022-05-27T11:33:34Z</time>
      </trkpt>
      <trkpt lat="44.41026" lon="3.56905">
        <ele>1070</ele>
        <time>2022-05-27T11:33:35Z</time>
      </trkpt>
      <trkpt lat="44.41026" lon="3.56903">
        <ele>1071</ele>
        <time>2022-05-27T11:33:36Z</time>
      </trkpt>
      <trkpt lat="44.41026" lon="3.56902">
        <ele>1071</ele>
        <time>2022-05-27T11:33:37Z</time>
      </trkpt>
      <trkpt lat="44.41025" lon="3.569">
        <ele>1071</ele>
        <time>2022-05-27T11:33:38Z</time>
      </trkpt>
      <trkpt lat="44.41025" lon="3.56898">
        <ele>1072</ele>
        <time>2022-05-27T11:33:39Z</time>
      </trkpt>
      <trkpt lat="44.41024" lon="3.56897">
        <ele>1071</ele>
        <time>2022-05-27T11:33:40Z</time>
      </trkpt>
      <trkpt lat="44.41023" lon="3.56896">
        <ele>1072</ele>
        <time>2022-05-27T11:33:41Z</time>
      </trkpt>
      <trkpt lat="44.41023" lon="3.56894">
        <ele>1071</ele>
        <time>2022-05-27T11:33:42Z</time>
      </trkpt>
      <trkpt lat="44.41022" lon="3.56893">
        <ele>1071</ele>
        <time>2022-05-27T11:33:43Z</time>
      </trkpt>
      <trkpt lat="44.41021" lon="3.56891">
        <ele>1071</ele>
        <time>2022-05-27T11:33:44Z</time>
      </trkpt>
      <trkpt lat="44.41021" lon="3.56889">
        <ele>1071</ele>
        <time>2022-05-27T11:33:45Z</time>
      </trkpt>
      <trkpt lat="44.41021" lon="3.56888">
        <ele>1071</ele>
        <time>2022-05-27T11:33:46Z</time>
      </trkpt>
      <trkpt lat="44.4102" lon="3.56887">
        <ele>1071</ele>
        <time>2022-05-27T11:33:47Z</time>
      </trkpt>
      <trkpt lat="44.4102" lon="3.56885">
        <ele>1071</ele>
        <time>2022-05-27T11:33:48Z</time>
      </trkpt>
      <trkpt lat="44.41019" lon="3.56883">
        <ele>1072</ele>
        <time>2022-05-27T11:33:49Z</time>
      </trkpt>
      <trkpt lat="44.41019" lon="3.56882">
        <ele>1072</ele>
        <time>2022-05-27T11:33:50Z</time>
      </trkpt>
      <trkpt lat="44.41018" lon="3.5688">
        <ele>1072</ele>
        <time>2022-05-27T11:33:51Z</time>
      </trkpt>
      <trkpt lat="44.41018" lon="3.56878">
        <ele>1072</ele>
        <time>2022-05-27T11:33:52Z</time>
      </trkpt>
      <trkpt lat="44.41017" lon="3.56876">
        <ele>1072</ele>
        <time>2022-05-27T11:33:53Z</time>
      </trkpt>
      <trkpt lat="44.41017" lon="3.56874">
        <ele>1071</ele>
        <time>2022-05-27T11:33:54Z</time>
      </trkpt>
      <trkpt lat="44.41016" lon="3.56872">
        <ele>1071</ele>
        <time>2022-05-27T11:33:55Z</time>
      </trkpt>
      <trkpt lat="44.41016" lon="3.5687">
        <ele>1071</ele>
        <time>2022-05-27T11:33:56Z</time>
      </trkpt>
      <trkpt lat="44.41015" lon="3.56869">
        <ele>1070</ele>
        <time>2022-05-27T11:33:57Z</time>
      </trkpt>
      <trkpt lat="44.41015" lon="3.56867">
        <ele>1070</ele>
        <time>2022-05-27T11:33:58Z</time>
      </trkpt>
      <trkpt lat="44.41013" lon="3.56866">
        <ele>1070</ele>
        <time>2022-05-27T11:33:59Z</time>
      </trkpt>
      <trkpt lat="44.41012" lon="3.56865">
        <ele>1070</ele>
        <time>2022-05-27T11:34:00Z</time>
      </trkpt>
      <trkpt lat="44.41011" lon="3.56863">
        <ele>1069</ele>
        <time>2022-05-27T11:34:01Z</time>
      </trkpt>
      <trkpt lat="44.4101" lon="3.56862">
        <ele>1069</ele>
        <time>2022-05-27T11:34:02Z</time>
      </trkpt>
      <trkpt lat="44.41009" lon="3.56861">
        <ele>1068</ele>
        <time>2022-05-27T11:34:03Z</time>
      </trkpt>
      <trkpt lat="44.41008" lon="3.5686">
        <ele>1068</ele>
        <time>2022-05-27T11:34:04Z</time>
      </trkpt>
      <trkpt lat="44.41007" lon="3.56859">
        <ele>1068</ele>
        <time>2022-05-27T11:34:05Z</time>
      </trkpt>
      <trkpt lat="44.41007" lon="3.56858">
        <ele>1067</ele>
        <time>2022-05-27T11:34:06Z</time>
      </trkpt>
      <trkpt lat="44.41005" lon="3.56857">
        <ele>1067</ele>
        <time>2022-05-27T11:34:07Z</time>
      </trkpt>
      <trkpt lat="44.41005" lon="3.56856">
        <ele>1067</ele>
        <time>2022-05-27T11:34:08Z</time>
      </trkpt>
      <trkpt lat="44.41003" lon="3.56855">
        <ele>1066</ele>
        <time>2022-05-27T11:34:09Z</time>
      </trkpt>
      <trkpt lat="44.41002" lon="3.56854">
        <ele>1066</ele>
        <time>2022-05-27T11:34:10Z</time>
      </trkpt>
      <trkpt lat="44.41002" lon="3.56853">
        <ele>1066</ele>
        <time>2022-05-27T11:34:11Z</time>
      </trkpt>
      <trkpt lat="44.41001" lon="3.56852">
        <ele>1066</ele>
        <time>2022-05-27T11:34:12Z</time>
      </trkpt>
      <trkpt lat="44.41" lon="3.56851">
        <ele>1066</ele>
        <time>2022-05-27T11:34:13Z</time>
      </trkpt>
      <trkpt lat="44.41" lon="3.56851">
        <ele>1065</ele>
        <time>2022-05-27T11:34:14Z</time>
      </trkpt>
      <trkpt lat="44.40999" lon="3.56849">
        <ele>1065</ele>
        <time>2022-05-27T11:34:15Z</time>
      </trkpt>
      <trkpt lat="44.40998" lon="3.56848">
        <ele>1065</ele>
        <time>2022-05-27T11:34:16Z</time>
      </trkpt>
      <trkpt lat="44.40997" lon="3.56847">
        <ele>1065</ele>
        <time>2022-05-27T11:34:17Z</time>
      </trkpt>
      <trkpt lat="44.40996" lon="3.56847">
        <ele>1064</ele>
        <time>2022-05-27T11:34:18Z</time>
      </trkpt>
      <trkpt lat="44.40994" lon="3.56846">
        <ele>1064</ele>
        <time>2022-05-27T11:34:19Z</time>
      </trkpt>
      <trkpt lat="44.40993" lon="3.56846">
        <ele>1063</ele>
        <time>2022-05-27T11:34:20Z</time>
      </trkpt>
      <trkpt lat="44.40992" lon="3.56845">
        <ele>1063</ele>
        <time>2022-05-27T11:34:21Z</time>
      </trkpt>
      <trkpt lat="44.40991" lon="3.56845">
        <ele>1063</ele>
        <time>2022-05-27T11:34:22Z</time>
      </trkpt>
      <trkpt lat="44.40989" lon="3.56845">
        <ele>1062</ele>
        <time>2022-05-27T11:34:23Z</time>
      </trkpt>
      <trkpt lat="44.40988" lon="3.56844">
        <ele>1061</ele>
        <time>2022-05-27T11:34:24Z</time>
      </trkpt>
      <trkpt lat="44.40987" lon="3.56844">
        <ele>1061</ele>
        <time>2022-05-27T11:34:25Z</time>
      </trkpt>
      <trkpt lat="44.40986" lon="3.56844">
        <ele>1061</ele>
        <time>2022-05-27T11:34:26Z</time>
      </trkpt>
      <trkpt lat="44.40984" lon="3.56844">
        <ele>1061</ele>
        <time>2022-05-27T11:34:27Z</time>
      </trkpt>
      <trkpt lat="44.40983" lon="3.56844">
        <ele>1061</ele>
        <time>2022-05-27T11:34:28Z</time>
      </trkpt>
      <trkpt lat="44.40981" lon="3.56844">
        <ele>1061</ele>
        <time>2022-05-27T11:34:29Z</time>
      </trkpt>
      <trkpt lat="44.4098" lon="3.56845">
        <ele>1060</ele>
        <time>2022-05-27T11:34:30Z</time>
      </trkpt>
      <trkpt lat="44.40979" lon="3.56846">
        <ele>1060</ele>
        <time>2022-05-27T11:34:31Z</time>
      </trkpt>
      <trkpt lat="44.40978" lon="3.56845">
        <ele>1060</ele>
        <time>2022-05-27T11:34:32Z</time>
      </trkpt>
      <trkpt lat="44.40977" lon="3.56845">
        <ele>1060</ele>
        <time>2022-05-27T11:34:33Z</time>
      </trkpt>
      <trkpt lat="44.40975" lon="3.56845">
        <ele>1059</ele>
        <time>2022-05-27T11:34:34Z</time>
      </trkpt>
      <trkpt lat="44.40974" lon="3.56845">
        <ele>1059</ele>
        <time>2022-05-27T11:34:35Z</time>
      </trkpt>
      <trkpt lat="44.40973" lon="3.56845">
        <ele>1059</ele>
        <time>2022-05-27T11:34:36Z</time>
      </trkpt>
      <trkpt lat="44.40972" lon="3.56845">
        <ele>1059</ele>
        <time>2022-05-27T11:34:37Z</time>
      </trkpt>
      <trkpt lat="44.40971" lon="3.56843">
        <ele>1059</ele>
        <time>2022-05-27T11:34:38Z</time>
      </trkpt>
      <trkpt lat="44.4097" lon="3.56843">
        <ele>1058</ele>
        <time>2022-05-27T11:34:39Z</time>
      </trkpt>
      <trkpt lat="44.40968" lon="3.56842">
        <ele>1058</ele>
        <time>2022-05-27T11:34:40Z</time>
      </trkpt>
      <trkpt lat="44.40967" lon="3.56841">
        <ele>1058</ele>
        <time>2022-05-27T11:34:41Z</time>
      </trkpt>
      <trkpt lat="44.40966" lon="3.5684">
        <ele>1057</ele>
        <time>2022-05-27T11:34:42Z</time>
      </trkpt>
      <trkpt lat="44.40965" lon="3.5684">
        <ele>1056</ele>
        <time>2022-05-27T11:34:43Z</time>
      </trkpt>
      <trkpt lat="44.40964" lon="3.56839">
        <ele>1056</ele>
        <time>2022-05-27T11:34:44Z</time>
      </trkpt>
      <trkpt lat="44.40963" lon="3.56838">
        <ele>1055</ele>
        <time>2022-05-27T11:34:45Z</time>
      </trkpt>
      <trkpt lat="44.40961" lon="3.56838">
        <ele>1055</ele>
        <time>2022-05-27T11:34:46Z</time>
      </trkpt>
      <trkpt lat="44.4096" lon="3.56837">
        <ele>1055</ele>
        <time>2022-05-27T11:34:47Z</time>
      </trkpt>
      <trkpt lat="44.40958" lon="3.56838">
        <ele>1055</ele>
        <time>2022-05-27T11:34:48Z</time>
      </trkpt>
      <trkpt lat="44.40957" lon="3.56838">
        <ele>1055</ele>
        <time>2022-05-27T11:34:49Z</time>
      </trkpt>
      <trkpt lat="44.40956" lon="3.56837">
        <ele>1055</ele>
        <time>2022-05-27T11:34:50Z</time>
      </trkpt>
      <trkpt lat="44.40955" lon="3.56836">
        <ele>1055</ele>
        <time>2022-05-27T11:34:51Z</time>
      </trkpt>
      <trkpt lat="44.40953" lon="3.56836">
        <ele>1055</ele>
        <time>2022-05-27T11:34:52Z</time>
      </trkpt>
      <trkpt lat="44.40953" lon="3.56835">
        <ele>1054</ele>
        <time>2022-05-27T11:34:53Z</time>
      </trkpt>
      <trkpt lat="44.40952" lon="3.56834">
        <ele>1054</ele>
        <time>2022-05-27T11:34:54Z</time>
      </trkpt>
      <trkpt lat="44.4095" lon="3.56833">
        <ele>1054</ele>
        <time>2022-05-27T11:34:55Z</time>
      </trkpt>
      <trkpt lat="44.40949" lon="3.56832">
        <ele>1054</ele>
        <time>2022-05-27T11:34:56Z</time>
      </trkpt>
      <trkpt lat="44.40949" lon="3.56831">
        <ele>1055</ele>
        <time>2022-05-27T11:34:57Z</time>
      </trkpt>
      <trkpt lat="44.40948" lon="3.56831">
        <ele>1055</ele>
        <time>2022-05-27T11:34:58Z</time>
      </trkpt>
      <trkpt lat="44.40947" lon="3.5683">
        <ele>1055</ele>
        <time>2022-05-27T11:34:59Z</time>
      </trkpt>
      <trkpt lat="44.40946" lon="3.5683">
        <ele>1055</ele>
        <time>2022-05-27T11:35:00Z</time>
      </trkpt>
      <trkpt lat="44.40945" lon="3.56829">
        <ele>1054</ele>
        <time>2022-05-27T11:35:01Z</time>
      </trkpt>
      <trkpt lat="44.40945" lon="3.56828">
        <ele>1054</ele>
        <time>2022-05-27T11:35:02Z</time>
      </trkpt>
      <trkpt lat="44.40944" lon="3.56828">
        <ele>1054</ele>
        <time>2022-05-27T11:35:03Z</time>
      </trkpt>
      <trkpt lat="44.40942" lon="3.56827">
        <ele>1054</ele>
        <time>2022-05-27T11:35:04Z</time>
      </trkpt>
      <trkpt lat="44.40941" lon="3.56827">
        <ele>1054</ele>
        <time>2022-05-27T11:35:05Z</time>
      </trkpt>
      <trkpt lat="44.4094" lon="3.56827">
        <ele>1054</ele>
        <time>2022-05-27T11:35:06Z</time>
      </trkpt>
      <trkpt lat="44.40939" lon="3.56828">
        <ele>1054</ele>
        <time>2022-05-27T11:35:07Z</time>
      </trkpt>
      <trkpt lat="44.40939" lon="3.56828">
        <ele>1054</ele>
        <time>2022-05-27T11:35:08Z</time>
      </trkpt>
      <trkpt lat="44.40939" lon="3.56828">
        <ele>1054</ele>
        <time>2022-05-27T11:35:09Z</time>
      </trkpt>
      <trkpt lat="44.40939" lon="3.56828">
        <ele>1054</ele>
        <time>2022-05-27T11:35:10Z</time>
      </trkpt>
      <trkpt lat="44.40938" lon="3.56829">
        <ele>1054</ele>
        <time>2022-05-27T11:35:11Z</time>
      </trkpt>
      <trkpt lat="44.40937" lon="3.56829">
        <ele>1054</ele>
        <time>2022-05-27T11:35:12Z</time>
      </trkpt>
      <trkpt lat="44.40936" lon="3.56828">
        <ele>1054</ele>
        <time>2022-05-27T11:35:13Z</time>
      </trkpt>
      <trkpt lat="44.40935" lon="3.56828">
        <ele>1054</ele>
        <time>2022-05-27T11:35:14Z</time>
      </trkpt>
      <trkpt lat="44.40935" lon="3.56827">
        <ele>1054</ele>
        <time>2022-05-27T11:35:15Z</time>
      </trkpt>
      <trkpt lat="44.40934" lon="3.56826">
        <ele>1054</ele>
        <time>2022-05-27T11:35:16Z</time>
      </trkpt>
      <trkpt lat="44.40933" lon="3.56825">
        <ele>1054</ele>
        <time>2022-05-27T11:35:17Z</time>
      </trkpt>
      <trkpt lat="44.40932" lon="3.56824">
        <ele>1054</ele>
        <time>2022-05-27T11:35:18Z</time>
      </trkpt>
      <trkpt lat="44.4093" lon="3.56823">
        <ele>1053</ele>
        <time>2022-05-27T11:35:19Z</time>
      </trkpt>
      <trkpt lat="44.40929" lon="3.56822">
        <ele>1053</ele>
        <time>2022-05-27T11:35:20Z</time>
      </trkpt>
      <trkpt lat="44.40928" lon="3.56821">
        <ele>1053</ele>
        <time>2022-05-27T11:35:21Z</time>
      </trkpt>
      <trkpt lat="44.40927" lon="3.5682">
        <ele>1053</ele>
        <time>2022-05-27T11:35:22Z</time>
      </trkpt>
      <trkpt lat="44.40926" lon="3.5682">
        <ele>1053</ele>
        <time>2022-05-27T11:35:23Z</time>
      </trkpt>
      <trkpt lat="44.40925" lon="3.5682">
        <ele>1054</ele>
        <time>2022-05-27T11:35:24Z</time>
      </trkpt>
      <trkpt lat="44.40925" lon="3.56818">
        <ele>1053</ele>
        <time>2022-05-27T11:35:25Z</time>
      </trkpt>
      <trkpt lat="44.40923" lon="3.56818">
        <ele>1054</ele>
        <time>2022-05-27T11:35:26Z</time>
      </trkpt>
      <trkpt lat="44.40922" lon="3.56817">
        <ele>1053</ele>
        <time>2022-05-27T11:35:27Z</time>
      </trkpt>
      <trkpt lat="44.40921" lon="3.56817">
        <ele>1054</ele>
        <time>2022-05-27T11:35:28Z</time>
      </trkpt>
      <trkpt lat="44.4092" lon="3.56817">
        <ele>1054</ele>
        <time>2022-05-27T11:35:29Z</time>
      </trkpt>
      <trkpt lat="44.40919" lon="3.56817">
        <ele>1054</ele>
        <time>2022-05-27T11:35:30Z</time>
      </trkpt>
      <trkpt lat="44.40917" lon="3.56817">
        <ele>1053</ele>
        <time>2022-05-27T11:35:31Z</time>
      </trkpt>
      <trkpt lat="44.40916" lon="3.56817">
        <ele>1053</ele>
        <time>2022-05-27T11:35:32Z</time>
      </trkpt>
      <trkpt lat="44.40915" lon="3.56816">
        <ele>1053</ele>
        <time>2022-05-27T11:35:33Z</time>
      </trkpt>
      <trkpt lat="44.40914" lon="3.56816">
        <ele>1053</ele>
        <time>2022-05-27T11:35:34Z</time>
      </trkpt>
      <trkpt lat="44.40913" lon="3.56816">
        <ele>1053</ele>
        <time>2022-05-27T11:35:35Z</time>
      </trkpt>
      <trkpt lat="44.40911" lon="3.56817">
        <ele>1053</ele>
        <time>2022-05-27T11:35:36Z</time>
      </trkpt>
      <trkpt lat="44.4091" lon="3.56818">
        <ele>1053</ele>
        <time>2022-05-27T11:35:37Z</time>
      </trkpt>
      <trkpt lat="44.4091" lon="3.56819">
        <ele>1053</ele>
        <time>2022-05-27T11:35:38Z</time>
      </trkpt>
      <trkpt lat="44.40908" lon="3.56819">
        <ele>1053</ele>
        <time>2022-05-27T11:35:39Z</time>
      </trkpt>
      <trkpt lat="44.40907" lon="3.56819">
        <ele>1053</ele>
        <time>2022-05-27T11:35:40Z</time>
      </trkpt>
      <trkpt lat="44.40905" lon="3.56819">
        <ele>1052</ele>
        <time>2022-05-27T11:35:41Z</time>
      </trkpt>
      <trkpt lat="44.40904" lon="3.56819">
        <ele>1052</ele>
        <time>2022-05-27T11:35:42Z</time>
      </trkpt>
      <trkpt lat="44.40903" lon="3.56819">
        <ele>1052</ele>
        <time>2022-05-27T11:35:43Z</time>
      </trkpt>
      <trkpt lat="44.40902" lon="3.56819">
        <ele>1053</ele>
        <time>2022-05-27T11:35:44Z</time>
      </trkpt>
      <trkpt lat="44.409" lon="3.56819">
        <ele>1052</ele>
        <time>2022-05-27T11:35:45Z</time>
      </trkpt>
      <trkpt lat="44.40899" lon="3.56818">
        <ele>1052</ele>
        <time>2022-05-27T11:35:46Z</time>
      </trkpt>
      <trkpt lat="44.40897" lon="3.56818">
        <ele>1051</ele>
        <time>2022-05-27T11:35:47Z</time>
      </trkpt>
      <trkpt lat="44.40896" lon="3.56817">
        <ele>1051</ele>
        <time>2022-05-27T11:35:48Z</time>
      </trkpt>
      <trkpt lat="44.40895" lon="3.56816">
        <ele>1051</ele>
        <time>2022-05-27T11:35:49Z</time>
      </trkpt>
      <trkpt lat="44.40893" lon="3.56815">
        <ele>1051</ele>
        <time>2022-05-27T11:35:50Z</time>
      </trkpt>
      <trkpt lat="44.40892" lon="3.56815">
        <ele>1051</ele>
        <time>2022-05-27T11:35:51Z</time>
      </trkpt>
      <trkpt lat="44.40891" lon="3.56814">
        <ele>1051</ele>
        <time>2022-05-27T11:35:52Z</time>
      </trkpt>
      <trkpt lat="44.4089" lon="3.56814">
        <ele>1050</ele>
        <time>2022-05-27T11:35:53Z</time>
      </trkpt>
      <trkpt lat="44.40888" lon="3.56814">
        <ele>1050</ele>
        <time>2022-05-27T11:35:54Z</time>
      </trkpt>
      <trkpt lat="44.40888" lon="3.56813">
        <ele>1051</ele>
        <time>2022-05-27T11:35:55Z</time>
      </trkpt>
      <trkpt lat="44.40886" lon="3.56813">
        <ele>1051</ele>
        <time>2022-05-27T11:35:56Z</time>
      </trkpt>
      <trkpt lat="44.40884" lon="3.56813">
        <ele>1050</ele>
        <time>2022-05-27T11:35:57Z</time>
      </trkpt>
      <trkpt lat="44.40883" lon="3.56813">
        <ele>1049</ele>
        <time>2022-05-27T11:35:58Z</time>
      </trkpt>
      <trkpt lat="44.40882" lon="3.56813">
        <ele>1049</ele>
        <time>2022-05-27T11:35:59Z</time>
      </trkpt>
      <trkpt lat="44.4088" lon="3.56812">
        <ele>1049</ele>
        <time>2022-05-27T11:36:00Z</time>
      </trkpt>
      <trkpt lat="44.40879" lon="3.56812">
        <ele>1049</ele>
        <time>2022-05-27T11:36:01Z</time>
      </trkpt>
      <trkpt lat="44.40878" lon="3.56811">
        <ele>1049</ele>
        <time>2022-05-27T11:36:02Z</time>
      </trkpt>
      <trkpt lat="44.40877" lon="3.56811">
        <ele>1049</ele>
        <time>2022-05-27T11:36:03Z</time>
      </trkpt>
      <trkpt lat="44.40876" lon="3.56811">
        <ele>1050</ele>
        <time>2022-05-27T11:36:04Z</time>
      </trkpt>
      <trkpt lat="44.40875" lon="3.56811">
        <ele>1050</ele>
        <time>2022-05-27T11:36:05Z</time>
      </trkpt>
      <trkpt lat="44.40873" lon="3.56811">
        <ele>1050</ele>
        <time>2022-05-27T11:36:06Z</time>
      </trkpt>
      <trkpt lat="44.40871" lon="3.56811">
        <ele>1050</ele>
        <time>2022-05-27T11:36:07Z</time>
      </trkpt>
      <trkpt lat="44.4087" lon="3.56811">
        <ele>1050</ele>
        <time>2022-05-27T11:36:08Z</time>
      </trkpt>
      <trkpt lat="44.40868" lon="3.56811">
        <ele>1050</ele>
        <time>2022-05-27T11:36:09Z</time>
      </trkpt>
      <trkpt lat="44.40868" lon="3.5681">
        <ele>1049</ele>
        <time>2022-05-27T11:36:10Z</time>
      </trkpt>
      <trkpt lat="44.40866" lon="3.5681">
        <ele>1049</ele>
        <time>2022-05-27T11:36:11Z</time>
      </trkpt>
      <trkpt lat="44.40865" lon="3.5681">
        <ele>1049</ele>
        <time>2022-05-27T11:36:12Z</time>
      </trkpt>
      <trkpt lat="44.40863" lon="3.5681">
        <ele>1050</ele>
        <time>2022-05-27T11:36:13Z</time>
      </trkpt>
      <trkpt lat="44.40862" lon="3.5681">
        <ele>1049</ele>
        <time>2022-05-27T11:36:14Z</time>
      </trkpt>
      <trkpt lat="44.40862" lon="3.5681">
        <ele>1049</ele>
        <time>2022-05-27T11:36:15Z</time>
      </trkpt>
      <trkpt lat="44.4086" lon="3.5681">
        <ele>1049</ele>
        <time>2022-05-27T11:36:16Z</time>
      </trkpt>
      <trkpt lat="44.40859" lon="3.5681">
        <ele>1048</ele>
        <time>2022-05-27T11:36:17Z</time>
      </trkpt>
      <trkpt lat="44.40858" lon="3.5681">
        <ele>1047</ele>
        <time>2022-05-27T11:36:18Z</time>
      </trkpt>
      <trkpt lat="44.40857" lon="3.5681">
        <ele>1046</ele>
        <time>2022-05-27T11:36:19Z</time>
      </trkpt>
      <trkpt lat="44.40856" lon="3.5681">
        <ele>1046</ele>
        <time>2022-05-27T11:36:20Z</time>
      </trkpt>
      <trkpt lat="44.40855" lon="3.56809">
        <ele>1045</ele>
        <time>2022-05-27T11:36:21Z</time>
      </trkpt>
      <trkpt lat="44.40854" lon="3.56809">
        <ele>1045</ele>
        <time>2022-05-27T11:36:22Z</time>
      </trkpt>
      <trkpt lat="44.40853" lon="3.56808">
        <ele>1045</ele>
        <time>2022-05-27T11:36:23Z</time>
      </trkpt>
      <trkpt lat="44.40852" lon="3.56808">
        <ele>1046</ele>
        <time>2022-05-27T11:36:24Z</time>
      </trkpt>
      <trkpt lat="44.40851" lon="3.56807">
        <ele>1046</ele>
        <time>2022-05-27T11:36:25Z</time>
      </trkpt>
      <trkpt lat="44.4085" lon="3.56807">
        <ele>1046</ele>
        <time>2022-05-27T11:36:26Z</time>
      </trkpt>
      <trkpt lat="44.40849" lon="3.56806">
        <ele>1046</ele>
        <time>2022-05-27T11:36:27Z</time>
      </trkpt>
      <trkpt lat="44.40847" lon="3.56806">
        <ele>1047</ele>
        <time>2022-05-27T11:36:28Z</time>
      </trkpt>
      <trkpt lat="44.40845" lon="3.56807">
        <ele>1047</ele>
        <time>2022-05-27T11:36:29Z</time>
      </trkpt>
      <trkpt lat="44.40843" lon="3.56807">
        <ele>1047</ele>
        <time>2022-05-27T11:36:30Z</time>
      </trkpt>
      <trkpt lat="44.40842" lon="3.56808">
        <ele>1047</ele>
        <time>2022-05-27T11:36:31Z</time>
      </trkpt>
      <trkpt lat="44.40841" lon="3.56808">
        <ele>1047</ele>
        <time>2022-05-27T11:36:32Z</time>
      </trkpt>
      <trkpt lat="44.4084" lon="3.56808">
        <ele>1047</ele>
        <time>2022-05-27T11:36:33Z</time>
      </trkpt>
      <trkpt lat="44.40839" lon="3.56808">
        <ele>1047</ele>
        <time>2022-05-27T11:36:34Z</time>
      </trkpt>
      <trkpt lat="44.40838" lon="3.56807">
        <ele>1046</ele>
        <time>2022-05-27T11:36:35Z</time>
      </trkpt>
      <trkpt lat="44.40837" lon="3.56807">
        <ele>1046</ele>
        <time>2022-05-27T11:36:36Z</time>
      </trkpt>
      <trkpt lat="44.40837" lon="3.56806">
        <ele>1046</ele>
        <time>2022-05-27T11:36:37Z</time>
      </trkpt>
      <trkpt lat="44.40837" lon="3.56807">
        <ele>1046</ele>
        <time>2022-05-27T11:36:38Z</time>
      </trkpt>
      <trkpt lat="44.40837" lon="3.56807">
        <ele>1047</ele>
        <time>2022-05-27T11:36:39Z</time>
      </trkpt>
      <trkpt lat="44.40836" lon="3.56806">
        <ele>1047</ele>
        <time>2022-05-27T11:36:40Z</time>
      </trkpt>
      <trkpt lat="44.40835" lon="3.56806">
        <ele>1048</ele>
        <time>2022-05-27T11:36:41Z</time>
      </trkpt>
      <trkpt lat="44.40834" lon="3.56806">
        <ele>1048</ele>
        <time>2022-05-27T11:36:42Z</time>
      </trkpt>
      <trkpt lat="44.40834" lon="3.56805">
        <ele>1048</ele>
        <time>2022-05-27T11:36:43Z</time>
      </trkpt>
      <trkpt lat="44.40834" lon="3.56805">
        <ele>1048</ele>
        <time>2022-05-27T11:36:44Z</time>
      </trkpt>
      <trkpt lat="44.40834" lon="3.56805">
        <ele>1048</ele>
        <time>2022-05-27T11:36:45Z</time>
      </trkpt>
      <trkpt lat="44.40834" lon="3.56805">
        <ele>1048</ele>
        <time>2022-05-27T11:36:45Z</time>
      </trkpt>
      <trkpt lat="44.40834" lon="3.56805">
        <ele>1048</ele>
        <time>2022-05-27T11:36:45Z</time>
      </trkpt>
      <trkpt lat="44.40828" lon="3.56813">
        <ele>1040</ele>
        <time>2022-05-27T11:39:32Z</time>
      </trkpt>
      <trkpt lat="44.40828" lon="3.56813">
        <ele>1040</ele>
        <time>2022-05-27T11:39:33Z</time>
      </trkpt>
      <trkpt lat="44.40826" lon="3.56814">
        <ele>1039</ele>
        <time>2022-05-27T11:39:34Z</time>
      </trkpt>
      <trkpt lat="44.40825" lon="3.56814">
        <ele>1039</ele>
        <time>2022-05-27T11:39:35Z</time>
      </trkpt>
      <trkpt lat="44.40825" lon="3.56814">
        <ele>1039</ele>
        <time>2022-05-27T11:39:36Z</time>
      </trkpt>
      <trkpt lat="44.40824" lon="3.56814">
        <ele>1039</ele>
        <time>2022-05-27T11:39:37Z</time>
      </trkpt>
      <trkpt lat="44.40823" lon="3.56815">
        <ele>1039</ele>
        <time>2022-05-27T11:39:38Z</time>
      </trkpt>
      <trkpt lat="44.40822" lon="3.56815">
        <ele>1039</ele>
        <time>2022-05-27T11:39:39Z</time>
      </trkpt>
      <trkpt lat="44.40822" lon="3.56816">
        <ele>1039</ele>
        <time>2022-05-27T11:39:40Z</time>
      </trkpt>
      <trkpt lat="44.40821" lon="3.56817">
        <ele>1038</ele>
        <time>2022-05-27T11:39:41Z</time>
      </trkpt>
      <trkpt lat="44.40821" lon="3.56818">
        <ele>1038</ele>
        <time>2022-05-27T11:39:42Z</time>
      </trkpt>
      <trkpt lat="44.4082" lon="3.56819">
        <ele>1038</ele>
        <time>2022-05-27T11:39:43Z</time>
      </trkpt>
      <trkpt lat="44.4082" lon="3.56819">
        <ele>1038</ele>
        <time>2022-05-27T11:39:44Z</time>
      </trkpt>
      <trkpt lat="44.40819" lon="3.5682">
        <ele>1038</ele>
        <time>2022-05-27T11:39:45Z</time>
      </trkpt>
      <trkpt lat="44.40818" lon="3.56821">
        <ele>1037</ele>
        <time>2022-05-27T11:39:46Z</time>
      </trkpt>
      <trkpt lat="44.40818" lon="3.56822">
        <ele>1038</ele>
        <time>2022-05-27T11:39:47Z</time>
      </trkpt>
      <trkpt lat="44.40817" lon="3.56823">
        <ele>1038</ele>
        <time>2022-05-27T11:39:48Z</time>
      </trkpt>
      <trkpt lat="44.40817" lon="3.56823">
        <ele>1038</ele>
        <time>2022-05-27T11:39:49Z</time>
      </trkpt>
      <trkpt lat="44.40817" lon="3.56823">
        <ele>1038</ele>
        <time>2022-05-27T11:39:50Z</time>
      </trkpt>
      <trkpt lat="44.40816" lon="3.56825">
        <ele>1038</ele>
        <time>2022-05-27T11:39:51Z</time>
      </trkpt>
      <trkpt lat="44.40815" lon="3.56825">
        <ele>1038</ele>
        <time>2022-05-27T11:39:52Z</time>
      </trkpt>
      <trkpt lat="44.40815" lon="3.56825">
        <ele>1038</ele>
        <time>2022-05-27T11:39:53Z</time>
      </trkpt>
      <trkpt lat="44.40814" lon="3.56826">
        <ele>1039</ele>
        <time>2022-05-27T11:39:54Z</time>
      </trkpt>
      <trkpt lat="44.40813" lon="3.56826">
        <ele>1039</ele>
        <time>2022-05-27T11:39:55Z</time>
      </trkpt>
      <trkpt lat="44.40812" lon="3.56827">
        <ele>1039</ele>
        <time>2022-05-27T11:39:56Z</time>
      </trkpt>
      <trkpt lat="44.40812" lon="3.56827">
        <ele>1039</ele>
        <time>2022-05-27T11:39:57Z</time>
      </trkpt>
      <trkpt lat="44.40811" lon="3.56827">
        <ele>1039</ele>
        <time>2022-05-27T11:39:58Z</time>
      </trkpt>
      <trkpt lat="44.4081" lon="3.56828">
        <ele>1039</ele>
        <time>2022-05-27T11:39:59Z</time>
      </trkpt>
      <trkpt lat="44.4081" lon="3.56829">
        <ele>1039</ele>
        <time>2022-05-27T11:40:00Z</time>
      </trkpt>
      <trkpt lat="44.40809" lon="3.56829">
        <ele>1038</ele>
        <time>2022-05-27T11:40:01Z</time>
      </trkpt>
      <trkpt lat="44.40808" lon="3.5683">
        <ele>1038</ele>
        <time>2022-05-27T11:40:02Z</time>
      </trkpt>
      <trkpt lat="44.40808" lon="3.5683">
        <ele>1038</ele>
        <time>2022-05-27T11:40:03Z</time>
      </trkpt>
      <trkpt lat="44.40807" lon="3.56831">
        <ele>1038</ele>
        <time>2022-05-27T11:40:04Z</time>
      </trkpt>
      <trkpt lat="44.40807" lon="3.56831">
        <ele>1038</ele>
        <time>2022-05-27T11:40:05Z</time>
      </trkpt>
      <trkpt lat="44.40805" lon="3.56832">
        <ele>1038</ele>
        <time>2022-05-27T11:40:06Z</time>
      </trkpt>
      <trkpt lat="44.40805" lon="3.56832">
        <ele>1039</ele>
        <time>2022-05-27T11:40:07Z</time>
      </trkpt>
      <trkpt lat="44.40804" lon="3.56833">
        <ele>1039</ele>
        <time>2022-05-27T11:40:08Z</time>
      </trkpt>
      <trkpt lat="44.40803" lon="3.56834">
        <ele>1040</ele>
        <time>2022-05-27T11:40:09Z</time>
      </trkpt>
      <trkpt lat="44.40802" lon="3.56835">
        <ele>1040</ele>
        <time>2022-05-27T11:40:10Z</time>
      </trkpt>
      <trkpt lat="44.40801" lon="3.56836">
        <ele>1040</ele>
        <time>2022-05-27T11:40:11Z</time>
      </trkpt>
      <trkpt lat="44.408" lon="3.56837">
        <ele>1040</ele>
        <time>2022-05-27T11:40:12Z</time>
      </trkpt>
      <trkpt lat="44.408" lon="3.56839">
        <ele>1039</ele>
        <time>2022-05-27T11:40:13Z</time>
      </trkpt>
      <trkpt lat="44.408" lon="3.56841">
        <ele>1039</ele>
        <time>2022-05-27T11:40:14Z</time>
      </trkpt>
      <trkpt lat="44.40799" lon="3.56843">
        <ele>1038</ele>
        <time>2022-05-27T11:40:15Z</time>
      </trkpt>
      <trkpt lat="44.40799" lon="3.56844">
        <ele>1038</ele>
        <time>2022-05-27T11:40:16Z</time>
      </trkpt>
      <trkpt lat="44.40799" lon="3.56846">
        <ele>1038</ele>
        <time>2022-05-27T11:40:17Z</time>
      </trkpt>
      <trkpt lat="44.40799" lon="3.56847">
        <ele>1038</ele>
        <time>2022-05-27T11:40:18Z</time>
      </trkpt>
      <trkpt lat="44.40799" lon="3.56848">
        <ele>1037</ele>
        <time>2022-05-27T11:40:19Z</time>
      </trkpt>
      <trkpt lat="44.40799" lon="3.56849">
        <ele>1037</ele>
        <time>2022-05-27T11:40:20Z</time>
      </trkpt>
      <trkpt lat="44.40798" lon="3.56851">
        <ele>1038</ele>
        <time>2022-05-27T11:40:21Z</time>
      </trkpt>
      <trkpt lat="44.40798" lon="3.56853">
        <ele>1038</ele>
        <time>2022-05-27T11:40:22Z</time>
      </trkpt>
      <trkpt lat="44.40797" lon="3.56854">
        <ele>1038</ele>
        <time>2022-05-27T11:40:23Z</time>
      </trkpt>
      <trkpt lat="44.40797" lon="3.56856">
        <ele>1038</ele>
        <time>2022-05-27T11:40:24Z</time>
      </trkpt>
      <trkpt lat="44.40796" lon="3.56857">
        <ele>1038</ele>
        <time>2022-05-27T11:40:25Z</time>
      </trkpt>
      <trkpt lat="44.40796" lon="3.56858">
        <ele>1038</ele>
        <time>2022-05-27T11:40:26Z</time>
      </trkpt>
      <trkpt lat="44.40795" lon="3.5686">
        <ele>1038</ele>
        <time>2022-05-27T11:40:27Z</time>
      </trkpt>
      <trkpt lat="44.40795" lon="3.56861">
        <ele>1038</ele>
        <time>2022-05-27T11:40:28Z</time>
      </trkpt>
      <trkpt lat="44.40794" lon="3.56863">
        <ele>1038</ele>
        <time>2022-05-27T11:40:29Z</time>
      </trkpt>
      <trkpt lat="44.40794" lon="3.56865">
        <ele>1038</ele>
        <time>2022-05-27T11:40:30Z</time>
      </trkpt>
      <trkpt lat="44.40793" lon="3.56866">
        <ele>1038</ele>
        <time>2022-05-27T11:40:31Z</time>
      </trkpt>
      <trkpt lat="44.40793" lon="3.56868">
        <ele>1038</ele>
        <time>2022-05-27T11:40:32Z</time>
      </trkpt>
      <trkpt lat="44.40793" lon="3.5687">
        <ele>1038</ele>
        <time>2022-05-27T11:40:33Z</time>
      </trkpt>
      <trkpt lat="44.40793" lon="3.56871">
        <ele>1037</ele>
        <time>2022-05-27T11:40:34Z</time>
      </trkpt>
      <trkpt lat="44.40793" lon="3.56873">
        <ele>1037</ele>
        <time>2022-05-27T11:40:35Z</time>
      </trkpt>
      <trkpt lat="44.40792" lon="3.56874">
        <ele>1037</ele>
        <time>2022-05-27T11:40:36Z</time>
      </trkpt>
      <trkpt lat="44.40792" lon="3.56876">
        <ele>1037</ele>
        <time>2022-05-27T11:40:37Z</time>
      </trkpt>
      <trkpt lat="44.40791" lon="3.56877">
        <ele>1037</ele>
        <time>2022-05-27T11:40:38Z</time>
      </trkpt>
      <trkpt lat="44.40792" lon="3.56879">
        <ele>1037</ele>
        <time>2022-05-27T11:40:39Z</time>
      </trkpt>
      <trkpt lat="44.40792" lon="3.56881">
        <ele>1037</ele>
        <time>2022-05-27T11:40:40Z</time>
      </trkpt>
      <trkpt lat="44.40792" lon="3.56882">
        <ele>1036</ele>
        <time>2022-05-27T11:40:41Z</time>
      </trkpt>
      <trkpt lat="44.40791" lon="3.56883">
        <ele>1037</ele>
        <time>2022-05-27T11:40:42Z</time>
      </trkpt>
      <trkpt lat="44.40791" lon="3.56884">
        <ele>1037</ele>
        <time>2022-05-27T11:40:43Z</time>
      </trkpt>
      <trkpt lat="44.40791" lon="3.56886">
        <ele>1037</ele>
        <time>2022-05-27T11:40:44Z</time>
      </trkpt>
      <trkpt lat="44.40791" lon="3.56887">
        <ele>1037</ele>
        <time>2022-05-27T11:40:45Z</time>
      </trkpt>
      <trkpt lat="44.40791" lon="3.5689">
        <ele>1037</ele>
        <time>2022-05-27T11:40:46Z</time>
      </trkpt>
      <trkpt lat="44.40791" lon="3.56891">
        <ele>1037</ele>
        <time>2022-05-27T11:40:47Z</time>
      </trkpt>
      <trkpt lat="44.40791" lon="3.56893">
        <ele>1038</ele>
        <time>2022-05-27T11:40:48Z</time>
      </trkpt>
      <trkpt lat="44.40791" lon="3.56894">
        <ele>1038</ele>
        <time>2022-05-27T11:40:49Z</time>
      </trkpt>
      <trkpt lat="44.40791" lon="3.56895">
        <ele>1038</ele>
        <time>2022-05-27T11:40:50Z</time>
      </trkpt>
      <trkpt lat="44.40791" lon="3.56897">
        <ele>1038</ele>
        <time>2022-05-27T11:40:51Z</time>
      </trkpt>
      <trkpt lat="44.40791" lon="3.56897">
        <ele>1038</ele>
        <time>2022-05-27T11:40:52Z</time>
      </trkpt>
      <trkpt lat="44.4079" lon="3.56899">
        <ele>1038</ele>
        <time>2022-05-27T11:40:53Z</time>
      </trkpt>
      <trkpt lat="44.4079" lon="3.569">
        <ele>1037</ele>
        <time>2022-05-27T11:40:54Z</time>
      </trkpt>
      <trkpt lat="44.4079" lon="3.56902">
        <ele>1037</ele>
        <time>2022-05-27T11:40:55Z</time>
      </trkpt>
      <trkpt lat="44.4079" lon="3.56903">
        <ele>1037</ele>
        <time>2022-05-27T11:40:56Z</time>
      </trkpt>
      <trkpt lat="44.4079" lon="3.56905">
        <ele>1037</ele>
        <time>2022-05-27T11:40:57Z</time>
      </trkpt>
      <trkpt lat="44.4079" lon="3.56906">
        <ele>1038</ele>
        <time>2022-05-27T11:40:58Z</time>
      </trkpt>
      <trkpt lat="44.40789" lon="3.56907">
        <ele>1038</ele>
        <time>2022-05-27T11:40:59Z</time>
      </trkpt>
      <trkpt lat="44.40789" lon="3.56907">
        <ele>1037</ele>
        <time>2022-05-27T11:41:00Z</time>
      </trkpt>
      <trkpt lat="44.40789" lon="3.56908">
        <ele>1037</ele>
        <time>2022-05-27T11:41:01Z</time>
      </trkpt>
      <trkpt lat="44.40788" lon="3.56909">
        <ele>1037</ele>
        <time>2022-05-27T11:41:02Z</time>
      </trkpt>
      <trkpt lat="44.40788" lon="3.5691">
        <ele>1037</ele>
        <time>2022-05-27T11:41:03Z</time>
      </trkpt>
      <trkpt lat="44.40787" lon="3.56911">
        <ele>1036</ele>
        <time>2022-05-27T11:41:04Z</time>
      </trkpt>
      <trkpt lat="44.40787" lon="3.56911">
        <ele>1036</ele>
        <time>2022-05-27T11:41:05Z</time>
      </trkpt>
      <trkpt lat="44.40787" lon="3.56912">
        <ele>1036</ele>
        <time>2022-05-27T11:41:06Z</time>
      </trkpt>
      <trkpt lat="44.40787" lon="3.56912">
        <ele>1036</ele>
        <time>2022-05-27T11:41:07Z</time>
      </trkpt>
      <trkpt lat="44.40787" lon="3.56912">
        <ele>1036</ele>
        <time>2022-05-27T11:41:08Z</time>
      </trkpt>
      <trkpt lat="44.40786" lon="3.56915">
        <ele>1036</ele>
        <time>2022-05-27T11:41:09Z</time>
      </trkpt>
      <trkpt lat="44.40786" lon="3.56916">
        <ele>1036</ele>
        <time>2022-05-27T11:41:10Z</time>
      </trkpt>
      <trkpt lat="44.40785" lon="3.56917">
        <ele>1036</ele>
        <time>2022-05-27T11:41:11Z</time>
      </trkpt>
      <trkpt lat="44.40784" lon="3.56918">
        <ele>1036</ele>
        <time>2022-05-27T11:41:12Z</time>
      </trkpt>
      <trkpt lat="44.40783" lon="3.5692">
        <ele>1036</ele>
        <time>2022-05-27T11:41:13Z</time>
      </trkpt>
      <trkpt lat="44.40783" lon="3.56921">
        <ele>1036</ele>
        <time>2022-05-27T11:41:14Z</time>
      </trkpt>
      <trkpt lat="44.40782" lon="3.56922">
        <ele>1036</ele>
        <time>2022-05-27T11:41:15Z</time>
      </trkpt>
      <trkpt lat="44.40781" lon="3.56923">
        <ele>1037</ele>
        <time>2022-05-27T11:41:16Z</time>
      </trkpt>
      <trkpt lat="44.4078" lon="3.56924">
        <ele>1037</ele>
        <time>2022-05-27T11:41:17Z</time>
      </trkpt>
      <trkpt lat="44.4078" lon="3.56925">
        <ele>1037</ele>
        <time>2022-05-27T11:41:18Z</time>
      </trkpt>
      <trkpt lat="44.40779" lon="3.56926">
        <ele>1037</ele>
        <time>2022-05-27T11:41:19Z</time>
      </trkpt>
      <trkpt lat="44.40779" lon="3.56928">
        <ele>1037</ele>
        <time>2022-05-27T11:41:20Z</time>
      </trkpt>
      <trkpt lat="44.40778" lon="3.56929">
        <ele>1037</ele>
        <time>2022-05-27T11:41:21Z</time>
      </trkpt>
      <trkpt lat="44.40778" lon="3.5693">
        <ele>1037</ele>
        <time>2022-05-27T11:41:22Z</time>
      </trkpt>
      <trkpt lat="44.40778" lon="3.56931">
        <ele>1036</ele>
        <time>2022-05-27T11:41:23Z</time>
      </trkpt>
      <trkpt lat="44.40778" lon="3.56931">
        <ele>1036</ele>
        <time>2022-05-27T11:41:24Z</time>
      </trkpt>
      <trkpt lat="44.40778" lon="3.56931">
        <ele>1036</ele>
        <time>2022-05-27T11:41:25Z</time>
      </trkpt>
      <trkpt lat="44.40777" lon="3.56933">
        <ele>1035</ele>
        <time>2022-05-27T11:41:26Z</time>
      </trkpt>
      <trkpt lat="44.40776" lon="3.56935">
        <ele>1035</ele>
        <time>2022-05-27T11:41:27Z</time>
      </trkpt>
      <trkpt lat="44.40776" lon="3.56936">
        <ele>1036</ele>
        <time>2022-05-27T11:41:28Z</time>
      </trkpt>
      <trkpt lat="44.40776" lon="3.56936">
        <ele>1035</ele>
        <time>2022-05-27T11:41:29Z</time>
      </trkpt>
      <trkpt lat="44.40776" lon="3.56936">
        <ele>1035</ele>
        <time>2022-05-27T11:41:30Z</time>
      </trkpt>
      <trkpt lat="44.40775" lon="3.56937">
        <ele>1034</ele>
        <time>2022-05-27T11:41:31Z</time>
      </trkpt>
      <trkpt lat="44.40775" lon="3.56939">
        <ele>1035</ele>
        <time>2022-05-27T11:41:32Z</time>
      </trkpt>
      <trkpt lat="44.40774" lon="3.5694">
        <ele>1035</ele>
        <time>2022-05-27T11:41:33Z</time>
      </trkpt>
      <trkpt lat="44.40774" lon="3.5694">
        <ele>1036</ele>
        <time>2022-05-27T11:41:34Z</time>
      </trkpt>
      <trkpt lat="44.40773" lon="3.56941">
        <ele>1035</ele>
        <time>2022-05-27T11:41:35Z</time>
      </trkpt>
      <trkpt lat="44.40773" lon="3.56941">
        <ele>1035</ele>
        <time>2022-05-27T11:41:36Z</time>
      </trkpt>
      <trkpt lat="44.40773" lon="3.56941">
        <ele>1035</ele>
        <time>2022-05-27T11:41:37Z</time>
      </trkpt>
      <trkpt lat="44.40773" lon="3.56941">
        <ele>1035</ele>
        <time>2022-05-27T11:41:38Z</time>
      </trkpt>
      <trkpt lat="44.40773" lon="3.56943">
        <ele>1034</ele>
        <time>2022-05-27T11:41:39Z</time>
      </trkpt>
      <trkpt lat="44.40773" lon="3.56944">
        <ele>1033</ele>
        <time>2022-05-27T11:41:40Z</time>
      </trkpt>
      <trkpt lat="44.40772" lon="3.56944">
        <ele>1033</ele>
        <time>2022-05-27T11:41:41Z</time>
      </trkpt>
      <trkpt lat="44.40771" lon="3.56945">
        <ele>1032</ele>
        <time>2022-05-27T11:41:42Z</time>
      </trkpt>
      <trkpt lat="44.40771" lon="3.56945">
        <ele>1032</ele>
        <time>2022-05-27T11:41:43Z</time>
      </trkpt>
      <trkpt lat="44.4077" lon="3.56945">
        <ele>1032</ele>
        <time>2022-05-27T11:41:44Z</time>
      </trkpt>
      <trkpt lat="44.40769" lon="3.56946">
        <ele>1032</ele>
        <time>2022-05-27T11:41:45Z</time>
      </trkpt>
      <trkpt lat="44.40768" lon="3.56946">
        <ele>1032</ele>
        <time>2022-05-27T11:41:46Z</time>
      </trkpt>
      <trkpt lat="44.40768" lon="3.56946">
        <ele>1031</ele>
        <time>2022-05-27T11:41:47Z</time>
      </trkpt>
      <trkpt lat="44.40767" lon="3.56946">
        <ele>1030</ele>
        <time>2022-05-27T11:41:48Z</time>
      </trkpt>
      <trkpt lat="44.40766" lon="3.56945">
        <ele>1031</ele>
        <time>2022-05-27T11:41:49Z</time>
      </trkpt>
      <trkpt lat="44.40766" lon="3.56945">
        <ele>1030</ele>
        <time>2022-05-27T11:41:50Z</time>
      </trkpt>
      <trkpt lat="44.40765" lon="3.56944">
        <ele>1030</ele>
        <time>2022-05-27T11:41:51Z</time>
      </trkpt>
      <trkpt lat="44.40765" lon="3.56943">
        <ele>1030</ele>
        <time>2022-05-27T11:41:52Z</time>
      </trkpt>
      <trkpt lat="44.40765" lon="3.56943">
        <ele>1030</ele>
        <time>2022-05-27T11:41:53Z</time>
      </trkpt>
      <trkpt lat="44.40765" lon="3.56942">
        <ele>1030</ele>
        <time>2022-05-27T11:41:54Z</time>
      </trkpt>
      <trkpt lat="44.40764" lon="3.56941">
        <ele>1030</ele>
        <time>2022-05-27T11:41:55Z</time>
      </trkpt>
      <trkpt lat="44.40764" lon="3.56941">
        <ele>1030</ele>
        <time>2022-05-27T11:41:56Z</time>
      </trkpt>
      <trkpt lat="44.40763" lon="3.5694">
        <ele>1030</ele>
        <time>2022-05-27T11:41:57Z</time>
      </trkpt>
      <trkpt lat="44.40763" lon="3.56939">
        <ele>1030</ele>
        <time>2022-05-27T11:41:58Z</time>
      </trkpt>
      <trkpt lat="44.40762" lon="3.56937">
        <ele>1030</ele>
        <time>2022-05-27T11:41:59Z</time>
      </trkpt>
      <trkpt lat="44.40762" lon="3.56936">
        <ele>1030</ele>
        <time>2022-05-27T11:42:00Z</time>
      </trkpt>
      <trkpt lat="44.40762" lon="3.56934">
        <ele>1031</ele>
        <time>2022-05-27T11:42:01Z</time>
      </trkpt>
      <trkpt lat="44.40763" lon="3.56933">
        <ele>1030</ele>
        <time>2022-05-27T11:42:02Z</time>
      </trkpt>
      <trkpt lat="44.40763" lon="3.56932">
        <ele>1030</ele>
        <time>2022-05-27T11:42:03Z</time>
      </trkpt>
      <trkpt lat="44.40763" lon="3.56931">
        <ele>1030</ele>
        <time>2022-05-27T11:42:04Z</time>
      </trkpt>
      <trkpt lat="44.40763" lon="3.5693">
        <ele>1029</ele>
        <time>2022-05-27T11:42:05Z</time>
      </trkpt>
      <trkpt lat="44.40763" lon="3.56929">
        <ele>1029</ele>
        <time>2022-05-27T11:42:06Z</time>
      </trkpt>
      <trkpt lat="44.40763" lon="3.56928">
        <ele>1029</ele>
        <time>2022-05-27T11:42:07Z</time>
      </trkpt>
      <trkpt lat="44.40762" lon="3.56927">
        <ele>1028</ele>
        <time>2022-05-27T11:42:08Z</time>
      </trkpt>
      <trkpt lat="44.40762" lon="3.56926">
        <ele>1028</ele>
        <time>2022-05-27T11:42:09Z</time>
      </trkpt>
      <trkpt lat="44.40762" lon="3.56924">
        <ele>1028</ele>
        <time>2022-05-27T11:42:10Z</time>
      </trkpt>
      <trkpt lat="44.40762" lon="3.56922">
        <ele>1028</ele>
        <time>2022-05-27T11:42:11Z</time>
      </trkpt>
      <trkpt lat="44.40761" lon="3.5692">
        <ele>1028</ele>
        <time>2022-05-27T11:42:12Z</time>
      </trkpt>
      <trkpt lat="44.40761" lon="3.56918">
        <ele>1028</ele>
        <time>2022-05-27T11:42:13Z</time>
      </trkpt>
      <trkpt lat="44.40761" lon="3.56916">
        <ele>1029</ele>
        <time>2022-05-27T11:42:14Z</time>
      </trkpt>
      <trkpt lat="44.4076" lon="3.56914">
        <ele>1029</ele>
        <time>2022-05-27T11:42:15Z</time>
      </trkpt>
      <trkpt lat="44.4076" lon="3.56913">
        <ele>1028</ele>
        <time>2022-05-27T11:42:16Z</time>
      </trkpt>
      <trkpt lat="44.4076" lon="3.56911">
        <ele>1028</ele>
        <time>2022-05-27T11:42:17Z</time>
      </trkpt>
      <trkpt lat="44.4076" lon="3.5691">
        <ele>1028</ele>
        <time>2022-05-27T11:42:18Z</time>
      </trkpt>
      <trkpt lat="44.40759" lon="3.56908">
        <ele>1029</ele>
        <time>2022-05-27T11:42:19Z</time>
      </trkpt>
      <trkpt lat="44.40759" lon="3.56907">
        <ele>1028</ele>
        <time>2022-05-27T11:42:20Z</time>
      </trkpt>
      <trkpt lat="44.40758" lon="3.56906">
        <ele>1028</ele>
        <time>2022-05-27T11:42:21Z</time>
      </trkpt>
      <trkpt lat="44.40758" lon="3.56904">
        <ele>1028</ele>
        <time>2022-05-27T11:42:22Z</time>
      </trkpt>
      <trkpt lat="44.40758" lon="3.56903">
        <ele>1028</ele>
        <time>2022-05-27T11:42:23Z</time>
      </trkpt>
      <trkpt lat="44.40758" lon="3.56902">
        <ele>1029</ele>
        <time>2022-05-27T11:42:24Z</time>
      </trkpt>
      <trkpt lat="44.40757" lon="3.56901">
        <ele>1029</ele>
        <time>2022-05-27T11:42:25Z</time>
      </trkpt>
      <trkpt lat="44.40756" lon="3.56901">
        <ele>1029</ele>
        <time>2022-05-27T11:42:26Z</time>
      </trkpt>
      <trkpt lat="44.40756" lon="3.569">
        <ele>1029</ele>
        <time>2022-05-27T11:42:27Z</time>
      </trkpt>
      <trkpt lat="44.40756" lon="3.56899">
        <ele>1029</ele>
        <time>2022-05-27T11:42:28Z</time>
      </trkpt>
      <trkpt lat="44.40755" lon="3.56897">
        <ele>1028</ele>
        <time>2022-05-27T11:42:29Z</time>
      </trkpt>
      <trkpt lat="44.40754" lon="3.56896">
        <ele>1027</ele>
        <time>2022-05-27T11:42:30Z</time>
      </trkpt>
      <trkpt lat="44.40753" lon="3.56895">
        <ele>1027</ele>
        <time>2022-05-27T11:42:31Z</time>
      </trkpt>
      <trkpt lat="44.40752" lon="3.56893">
        <ele>1026</ele>
        <time>2022-05-27T11:42:32Z</time>
      </trkpt>
      <trkpt lat="44.40752" lon="3.56892">
        <ele>1026</ele>
        <time>2022-05-27T11:42:33Z</time>
      </trkpt>
      <trkpt lat="44.40752" lon="3.56891">
        <ele>1026</ele>
        <time>2022-05-27T11:42:34Z</time>
      </trkpt>
      <trkpt lat="44.40751" lon="3.56889">
        <ele>1025</ele>
        <time>2022-05-27T11:42:35Z</time>
      </trkpt>
      <trkpt lat="44.40751" lon="3.56888">
        <ele>1025</ele>
        <time>2022-05-27T11:42:36Z</time>
      </trkpt>
      <trkpt lat="44.40751" lon="3.56886">
        <ele>1025</ele>
        <time>2022-05-27T11:42:37Z</time>
      </trkpt>
      <trkpt lat="44.40751" lon="3.56884">
        <ele>1025</ele>
        <time>2022-05-27T11:42:38Z</time>
      </trkpt>
      <trkpt lat="44.40749" lon="3.56883">
        <ele>1024</ele>
        <time>2022-05-27T11:42:39Z</time>
      </trkpt>
      <trkpt lat="44.40749" lon="3.56882">
        <ele>1024</ele>
        <time>2022-05-27T11:42:40Z</time>
      </trkpt>
      <trkpt lat="44.40748" lon="3.56881">
        <ele>1025</ele>
        <time>2022-05-27T11:42:41Z</time>
      </trkpt>
      <trkpt lat="44.40746" lon="3.56879">
        <ele>1024</ele>
        <time>2022-05-27T11:42:42Z</time>
      </trkpt>
      <trkpt lat="44.40746" lon="3.56878">
        <ele>1024</ele>
        <time>2022-05-27T11:42:43Z</time>
      </trkpt>
      <trkpt lat="44.40745" lon="3.56877">
        <ele>1024</ele>
        <time>2022-05-27T11:42:44Z</time>
      </trkpt>
      <trkpt lat="44.40744" lon="3.56876">
        <ele>1024</ele>
        <time>2022-05-27T11:42:45Z</time>
      </trkpt>
      <trkpt lat="44.40744" lon="3.56874">
        <ele>1023</ele>
        <time>2022-05-27T11:42:46Z</time>
      </trkpt>
      <trkpt lat="44.40744" lon="3.56873">
        <ele>1023</ele>
        <time>2022-05-27T11:42:47Z</time>
      </trkpt>
      <trkpt lat="44.40743" lon="3.56873">
        <ele>1023</ele>
        <time>2022-05-27T11:42:48Z</time>
      </trkpt>
      <trkpt lat="44.40741" lon="3.56873">
        <ele>1022</ele>
        <time>2022-05-27T11:42:49Z</time>
      </trkpt>
      <trkpt lat="44.4074" lon="3.56874">
        <ele>1022</ele>
        <time>2022-05-27T11:42:50Z</time>
      </trkpt>
      <trkpt lat="44.4074" lon="3.56874">
        <ele>1022</ele>
        <time>2022-05-27T11:42:51Z</time>
      </trkpt>
      <trkpt lat="44.4074" lon="3.56874">
        <ele>1022</ele>
        <time>2022-05-27T11:42:52Z</time>
      </trkpt>
      <trkpt lat="44.40738" lon="3.56877">
        <ele>1021</ele>
        <time>2022-05-27T11:42:53Z</time>
      </trkpt>
      <trkpt lat="44.40738" lon="3.56878">
        <ele>1021</ele>
        <time>2022-05-27T11:42:54Z</time>
      </trkpt>
      <trkpt lat="44.40738" lon="3.56879">
        <ele>1021</ele>
        <time>2022-05-27T11:42:55Z</time>
      </trkpt>
      <trkpt lat="44.40737" lon="3.5688">
        <ele>1020</ele>
        <time>2022-05-27T11:42:56Z</time>
      </trkpt>
      <trkpt lat="44.40737" lon="3.56881">
        <ele>1020</ele>
        <time>2022-05-27T11:42:57Z</time>
      </trkpt>
      <trkpt lat="44.40736" lon="3.56882">
        <ele>1020</ele>
        <time>2022-05-27T11:42:58Z</time>
      </trkpt>
      <trkpt lat="44.40735" lon="3.56883">
        <ele>1020</ele>
        <time>2022-05-27T11:42:59Z</time>
      </trkpt>
      <trkpt lat="44.40735" lon="3.56884">
        <ele>1019</ele>
        <time>2022-05-27T11:43:00Z</time>
      </trkpt>
      <trkpt lat="44.40735" lon="3.56884">
        <ele>1019</ele>
        <time>2022-05-27T11:43:01Z</time>
      </trkpt>
      <trkpt lat="44.40735" lon="3.56884">
        <ele>1019</ele>
        <time>2022-05-27T11:43:02Z</time>
      </trkpt>
      <trkpt lat="44.40733" lon="3.56888">
        <ele>1020</ele>
        <time>2022-05-27T11:43:03Z</time>
      </trkpt>
      <trkpt lat="44.40733" lon="3.5689">
        <ele>1021</ele>
        <time>2022-05-27T11:43:04Z</time>
      </trkpt>
      <trkpt lat="44.40733" lon="3.56891">
        <ele>1021</ele>
        <time>2022-05-27T11:43:05Z</time>
      </trkpt>
      <trkpt lat="44.40732" lon="3.56893">
        <ele>1021</ele>
        <time>2022-05-27T11:43:06Z</time>
      </trkpt>
      <trkpt lat="44.40732" lon="3.56893">
        <ele>1021</ele>
        <time>2022-05-27T11:43:07Z</time>
      </trkpt>
      <trkpt lat="44.40732" lon="3.56894">
        <ele>1020</ele>
        <time>2022-05-27T11:43:08Z</time>
      </trkpt>
      <trkpt lat="44.40731" lon="3.56895">
        <ele>1021</ele>
        <time>2022-05-27T11:43:09Z</time>
      </trkpt>
      <trkpt lat="44.40731" lon="3.56895">
        <ele>1021</ele>
        <time>2022-05-27T11:43:10Z</time>
      </trkpt>
      <trkpt lat="44.40731" lon="3.56896">
        <ele>1021</ele>
        <time>2022-05-27T11:43:11Z</time>
      </trkpt>
      <trkpt lat="44.40731" lon="3.56896">
        <ele>1020</ele>
        <time>2022-05-27T11:43:12Z</time>
      </trkpt>
      <trkpt lat="44.4073" lon="3.56897">
        <ele>1019</ele>
        <time>2022-05-27T11:43:13Z</time>
      </trkpt>
      <trkpt lat="44.4073" lon="3.56897">
        <ele>1019</ele>
        <time>2022-05-27T11:43:14Z</time>
      </trkpt>
      <trkpt lat="44.4073" lon="3.56897">
        <ele>1019</ele>
        <time>2022-05-27T11:43:15Z</time>
      </trkpt>
      <trkpt lat="44.40728" lon="3.56898">
        <ele>1018</ele>
        <time>2022-05-27T11:43:16Z</time>
      </trkpt>
      <trkpt lat="44.40728" lon="3.56899">
        <ele>1018</ele>
        <time>2022-05-27T11:43:17Z</time>
      </trkpt>
      <trkpt lat="44.40727" lon="3.56899">
        <ele>1018</ele>
        <time>2022-05-27T11:43:18Z</time>
      </trkpt>
      <trkpt lat="44.40726" lon="3.569">
        <ele>1018</ele>
        <time>2022-05-27T11:43:19Z</time>
      </trkpt>
      <trkpt lat="44.40726" lon="3.569">
        <ele>1018</ele>
        <time>2022-05-27T11:43:20Z</time>
      </trkpt>
      <trkpt lat="44.40726" lon="3.569">
        <ele>1018</ele>
        <time>2022-05-27T11:43:21Z</time>
      </trkpt>
      <trkpt lat="44.40725" lon="3.56902">
        <ele>1017</ele>
        <time>2022-05-27T11:43:22Z</time>
      </trkpt>
      <trkpt lat="44.40724" lon="3.56903">
        <ele>1017</ele>
        <time>2022-05-27T11:43:23Z</time>
      </trkpt>
      <trkpt lat="44.40722" lon="3.56904">
        <ele>1017</ele>
        <time>2022-05-27T11:43:24Z</time>
      </trkpt>
      <trkpt lat="44.40721" lon="3.56905">
        <ele>1017</ele>
        <time>2022-05-27T11:43:25Z</time>
      </trkpt>
      <trkpt lat="44.4072" lon="3.56906">
        <ele>1018</ele>
        <time>2022-05-27T11:43:26Z</time>
      </trkpt>
      <trkpt lat="44.40719" lon="3.56907">
        <ele>1017</ele>
        <time>2022-05-27T11:43:27Z</time>
      </trkpt>
      <trkpt lat="44.40718" lon="3.56907">
        <ele>1018</ele>
        <time>2022-05-27T11:43:28Z</time>
      </trkpt>
      <trkpt lat="44.40717" lon="3.56908">
        <ele>1018</ele>
        <time>2022-05-27T11:43:29Z</time>
      </trkpt>
      <trkpt lat="44.40717" lon="3.56908">
        <ele>1018</ele>
        <time>2022-05-27T11:43:30Z</time>
      </trkpt>
      <trkpt lat="44.40715" lon="3.5691">
        <ele>1018</ele>
        <time>2022-05-27T11:43:31Z</time>
      </trkpt>
      <trkpt lat="44.40714" lon="3.56911">
        <ele>1017</ele>
        <time>2022-05-27T11:43:32Z</time>
      </trkpt>
      <trkpt lat="44.40714" lon="3.56912">
        <ele>1017</ele>
        <time>2022-05-27T11:43:33Z</time>
      </trkpt>
      <trkpt lat="44.40713" lon="3.56913">
        <ele>1016</ele>
        <time>2022-05-27T11:43:34Z</time>
      </trkpt>
      <trkpt lat="44.40712" lon="3.56915">
        <ele>1015</ele>
        <time>2022-05-27T11:43:35Z</time>
      </trkpt>
      <trkpt lat="44.40712" lon="3.56915">
        <ele>1015</ele>
        <time>2022-05-27T11:43:36Z</time>
      </trkpt>
      <trkpt lat="44.40712" lon="3.56916">
        <ele>1015</ele>
        <time>2022-05-27T11:43:37Z</time>
      </trkpt>
      <trkpt lat="44.40711" lon="3.56918">
        <ele>1015</ele>
        <time>2022-05-27T11:43:38Z</time>
      </trkpt>
      <trkpt lat="44.4071" lon="3.56919">
        <ele>1014</ele>
        <time>2022-05-27T11:43:39Z</time>
      </trkpt>
      <trkpt lat="44.40709" lon="3.5692">
        <ele>1014</ele>
        <time>2022-05-27T11:43:40Z</time>
      </trkpt>
      <trkpt lat="44.40708" lon="3.5692">
        <ele>1014</ele>
        <time>2022-05-27T11:43:41Z</time>
      </trkpt>
      <trkpt lat="44.40707" lon="3.56921">
        <ele>1014</ele>
        <time>2022-05-27T11:43:42Z</time>
      </trkpt>
      <trkpt lat="44.40707" lon="3.56921">
        <ele>1014</ele>
        <time>2022-05-27T11:43:43Z</time>
      </trkpt>
      <trkpt lat="44.40706" lon="3.56922">
        <ele>1014</ele>
        <time>2022-05-27T11:43:44Z</time>
      </trkpt>
      <trkpt lat="44.40705" lon="3.56922">
        <ele>1013</ele>
        <time>2022-05-27T11:43:45Z</time>
      </trkpt>
      <trkpt lat="44.40704" lon="3.56922">
        <ele>1013</ele>
        <time>2022-05-27T11:43:46Z</time>
      </trkpt>
      <trkpt lat="44.40703" lon="3.56923">
        <ele>1013</ele>
        <time>2022-05-27T11:43:47Z</time>
      </trkpt>
      <trkpt lat="44.40702" lon="3.56923">
        <ele>1013</ele>
        <time>2022-05-27T11:43:48Z</time>
      </trkpt>
      <trkpt lat="44.40702" lon="3.56923">
        <ele>1013</ele>
        <time>2022-05-27T11:43:49Z</time>
      </trkpt>
      <trkpt lat="44.40702" lon="3.56923">
        <ele>1013</ele>
        <time>2022-05-27T11:43:50Z</time>
      </trkpt>
      <trkpt lat="44.40701" lon="3.56924">
        <ele>1013</ele>
        <time>2022-05-27T11:43:51Z</time>
      </trkpt>
      <trkpt lat="44.407" lon="3.56924">
        <ele>1012</ele>
        <time>2022-05-27T11:43:52Z</time>
      </trkpt>
      <trkpt lat="44.40699" lon="3.56924">
        <ele>1012</ele>
        <time>2022-05-27T11:43:53Z</time>
      </trkpt>
      <trkpt lat="44.40699" lon="3.56923">
        <ele>1012</ele>
        <time>2022-05-27T11:43:54Z</time>
      </trkpt>
      <trkpt lat="44.40698" lon="3.56923">
        <ele>1012</ele>
        <time>2022-05-27T11:43:55Z</time>
      </trkpt>
      <trkpt lat="44.40698" lon="3.56923">
        <ele>1011</ele>
        <time>2022-05-27T11:43:56Z</time>
      </trkpt>
      <trkpt lat="44.40696" lon="3.56923">
        <ele>1011</ele>
        <time>2022-05-27T11:43:57Z</time>
      </trkpt>
      <trkpt lat="44.40695" lon="3.56922">
        <ele>1011</ele>
        <time>2022-05-27T11:43:58Z</time>
      </trkpt>
      <trkpt lat="44.40695" lon="3.56922">
        <ele>1010</ele>
        <time>2022-05-27T11:43:59Z</time>
      </trkpt>
      <trkpt lat="44.40694" lon="3.56921">
        <ele>1010</ele>
        <time>2022-05-27T11:44:00Z</time>
      </trkpt>
      <trkpt lat="44.40693" lon="3.5692">
        <ele>1010</ele>
        <time>2022-05-27T11:44:01Z</time>
      </trkpt>
      <trkpt lat="44.40692" lon="3.5692">
        <ele>1010</ele>
        <time>2022-05-27T11:44:02Z</time>
      </trkpt>
      <trkpt lat="44.40691" lon="3.56919">
        <ele>1010</ele>
        <time>2022-05-27T11:44:03Z</time>
      </trkpt>
      <trkpt lat="44.4069" lon="3.56919">
        <ele>1010</ele>
        <time>2022-05-27T11:44:04Z</time>
      </trkpt>
      <trkpt lat="44.4069" lon="3.56918">
        <ele>1009</ele>
        <time>2022-05-27T11:44:05Z</time>
      </trkpt>
      <trkpt lat="44.40688" lon="3.56918">
        <ele>1010</ele>
        <time>2022-05-27T11:44:06Z</time>
      </trkpt>
      <trkpt lat="44.40688" lon="3.56917">
        <ele>1009</ele>
        <time>2022-05-27T11:44:07Z</time>
      </trkpt>
      <trkpt lat="44.40688" lon="3.56916">
        <ele>1009</ele>
        <time>2022-05-27T11:44:08Z</time>
      </trkpt>
      <trkpt lat="44.40687" lon="3.56915">
        <ele>1009</ele>
        <time>2022-05-27T11:44:09Z</time>
      </trkpt>
      <trkpt lat="44.40687" lon="3.56914">
        <ele>1009</ele>
        <time>2022-05-27T11:44:10Z</time>
      </trkpt>
      <trkpt lat="44.40686" lon="3.56914">
        <ele>1009</ele>
        <time>2022-05-27T11:44:11Z</time>
      </trkpt>
      <trkpt lat="44.40686" lon="3.56914">
        <ele>1009</ele>
        <time>2022-05-27T11:44:12Z</time>
      </trkpt>
      <trkpt lat="44.40685" lon="3.56914">
        <ele>1009</ele>
        <time>2022-05-27T11:44:13Z</time>
      </trkpt>
      <trkpt lat="44.40685" lon="3.56913">
        <ele>1009</ele>
        <time>2022-05-27T11:44:14Z</time>
      </trkpt>
      <trkpt lat="44.40684" lon="3.56912">
        <ele>1009</ele>
        <time>2022-05-27T11:44:15Z</time>
      </trkpt>
      <trkpt lat="44.40683" lon="3.56912">
        <ele>1008</ele>
        <time>2022-05-27T11:44:16Z</time>
      </trkpt>
      <trkpt lat="44.40682" lon="3.56911">
        <ele>1008</ele>
        <time>2022-05-27T11:44:17Z</time>
      </trkpt>
      <trkpt lat="44.40681" lon="3.56911">
        <ele>1009</ele>
        <time>2022-05-27T11:44:18Z</time>
      </trkpt>
      <trkpt lat="44.4068" lon="3.56911">
        <ele>1009</ele>
        <time>2022-05-27T11:44:19Z</time>
      </trkpt>
      <trkpt lat="44.40678" lon="3.5691">
        <ele>1009</ele>
        <time>2022-05-27T11:44:20Z</time>
      </trkpt>
      <trkpt lat="44.40677" lon="3.5691">
        <ele>1009</ele>
        <time>2022-05-27T11:44:21Z</time>
      </trkpt>
      <trkpt lat="44.40675" lon="3.5691">
        <ele>1008</ele>
        <time>2022-05-27T11:44:22Z</time>
      </trkpt>
      <trkpt lat="44.40674" lon="3.5691">
        <ele>1008</ele>
        <time>2022-05-27T11:44:23Z</time>
      </trkpt>
      <trkpt lat="44.40673" lon="3.56909">
        <ele>1009</ele>
        <time>2022-05-27T11:44:24Z</time>
      </trkpt>
      <trkpt lat="44.40672" lon="3.56909">
        <ele>1009</ele>
        <time>2022-05-27T11:44:25Z</time>
      </trkpt>
      <trkpt lat="44.40671" lon="3.56909">
        <ele>1008</ele>
        <time>2022-05-27T11:44:26Z</time>
      </trkpt>
      <trkpt lat="44.4067" lon="3.56909">
        <ele>1007</ele>
        <time>2022-05-27T11:44:27Z</time>
      </trkpt>
      <trkpt lat="44.40669" lon="3.56908">
        <ele>1006</ele>
        <time>2022-05-27T11:44:28Z</time>
      </trkpt>
      <trkpt lat="44.40667" lon="3.56907">
        <ele>1005</ele>
        <time>2022-05-27T11:44:29Z</time>
      </trkpt>
      <trkpt lat="44.40666" lon="3.56906">
        <ele>1006</ele>
        <time>2022-05-27T11:44:30Z</time>
      </trkpt>
      <trkpt lat="44.40665" lon="3.56906">
        <ele>1006</ele>
        <time>2022-05-27T11:44:31Z</time>
      </trkpt>
      <trkpt lat="44.40665" lon="3.56906">
        <ele>1006</ele>
        <time>2022-05-27T11:44:32Z</time>
      </trkpt>
      <trkpt lat="44.40664" lon="3.56906">
        <ele>1005</ele>
        <time>2022-05-27T11:44:33Z</time>
      </trkpt>
      <trkpt lat="44.40662" lon="3.56906">
        <ele>1004</ele>
        <time>2022-05-27T11:44:34Z</time>
      </trkpt>
      <trkpt lat="44.40662" lon="3.56906">
        <ele>1003</ele>
        <time>2022-05-27T11:44:35Z</time>
      </trkpt>
      <trkpt lat="44.40661" lon="3.56905">
        <ele>1003</ele>
        <time>2022-05-27T11:44:36Z</time>
      </trkpt>
      <trkpt lat="44.4066" lon="3.56906">
        <ele>1003</ele>
        <time>2022-05-27T11:44:37Z</time>
      </trkpt>
      <trkpt lat="44.40659" lon="3.56906">
        <ele>1003</ele>
        <time>2022-05-27T11:44:38Z</time>
      </trkpt>
      <trkpt lat="44.40657" lon="3.56906">
        <ele>1003</ele>
        <time>2022-05-27T11:44:39Z</time>
      </trkpt>
      <trkpt lat="44.40656" lon="3.56906">
        <ele>1003</ele>
        <time>2022-05-27T11:44:40Z</time>
      </trkpt>
      <trkpt lat="44.40655" lon="3.56907">
        <ele>1003</ele>
        <time>2022-05-27T11:44:41Z</time>
      </trkpt>
      <trkpt lat="44.40653" lon="3.56906">
        <ele>1002</ele>
        <time>2022-05-27T11:44:42Z</time>
      </trkpt>
      <trkpt lat="44.40653" lon="3.56906">
        <ele>1003</ele>
        <time>2022-05-27T11:44:43Z</time>
      </trkpt>
      <trkpt lat="44.40652" lon="3.56905">
        <ele>1003</ele>
        <time>2022-05-27T11:44:44Z</time>
      </trkpt>
      <trkpt lat="44.40651" lon="3.56904">
        <ele>1003</ele>
        <time>2022-05-27T11:44:45Z</time>
      </trkpt>
      <trkpt lat="44.40649" lon="3.56904">
        <ele>1002</ele>
        <time>2022-05-27T11:44:46Z</time>
      </trkpt>
      <trkpt lat="44.40649" lon="3.56903">
        <ele>1002</ele>
        <time>2022-05-27T11:44:47Z</time>
      </trkpt>
      <trkpt lat="44.40648" lon="3.56903">
        <ele>1001</ele>
        <time>2022-05-27T11:44:48Z</time>
      </trkpt>
      <trkpt lat="44.40647" lon="3.56902">
        <ele>1002</ele>
        <time>2022-05-27T11:44:49Z</time>
      </trkpt>
      <trkpt lat="44.40646" lon="3.56902">
        <ele>1002</ele>
        <time>2022-05-27T11:44:50Z</time>
      </trkpt>
      <trkpt lat="44.40645" lon="3.56901">
        <ele>1002</ele>
        <time>2022-05-27T11:44:51Z</time>
      </trkpt>
      <trkpt lat="44.40645" lon="3.56901">
        <ele>1002</ele>
        <time>2022-05-27T11:44:52Z</time>
      </trkpt>
      <trkpt lat="44.40644" lon="3.56901">
        <ele>1002</ele>
        <time>2022-05-27T11:44:53Z</time>
      </trkpt>
      <trkpt lat="44.40643" lon="3.56901">
        <ele>1002</ele>
        <time>2022-05-27T11:44:54Z</time>
      </trkpt>
      <trkpt lat="44.40642" lon="3.56901">
        <ele>1001</ele>
        <time>2022-05-27T11:44:55Z</time>
      </trkpt>
      <trkpt lat="44.40641" lon="3.56901">
        <ele>1001</ele>
        <time>2022-05-27T11:44:56Z</time>
      </trkpt>
      <trkpt lat="44.40639" lon="3.56901">
        <ele>1000</ele>
        <time>2022-05-27T11:44:57Z</time>
      </trkpt>
      <trkpt lat="44.40638" lon="3.56901">
        <ele>1000</ele>
        <time>2022-05-27T11:44:58Z</time>
      </trkpt>
      <trkpt lat="44.40637" lon="3.56902">
        <ele>999</ele>
        <time>2022-05-27T11:44:59Z</time>
      </trkpt>
      <trkpt lat="44.40636" lon="3.56901">
        <ele>1000</ele>
        <time>2022-05-27T11:45:00Z</time>
      </trkpt>
      <trkpt lat="44.40635" lon="3.56901">
        <ele>999</ele>
        <time>2022-05-27T11:45:01Z</time>
      </trkpt>
      <trkpt lat="44.40634" lon="3.56902">
        <ele>998</ele>
        <time>2022-05-27T11:45:02Z</time>
      </trkpt>
      <trkpt lat="44.40633" lon="3.56902">
        <ele>997</ele>
        <time>2022-05-27T11:45:03Z</time>
      </trkpt>
      <trkpt lat="44.40632" lon="3.56902">
        <ele>996</ele>
        <time>2022-05-27T11:45:04Z</time>
      </trkpt>
      <trkpt lat="44.40632" lon="3.56903">
        <ele>996</ele>
        <time>2022-05-27T11:45:05Z</time>
      </trkpt>
      <trkpt lat="44.40633" lon="3.56902">
        <ele>996</ele>
        <time>2022-05-27T11:45:06Z</time>
      </trkpt>
      <trkpt lat="44.40633" lon="3.56902">
        <ele>995</ele>
        <time>2022-05-27T11:45:07Z</time>
      </trkpt>
      <trkpt lat="44.40634" lon="3.56902">
        <ele>994</ele>
        <time>2022-05-27T11:45:08Z</time>
      </trkpt>
      <trkpt lat="44.40634" lon="3.56902">
        <ele>994</ele>
        <time>2022-05-27T11:45:09Z</time>
      </trkpt>
      <trkpt lat="44.40635" lon="3.56901">
        <ele>994</ele>
        <time>2022-05-27T11:45:10Z</time>
      </trkpt>
      <trkpt lat="44.40636" lon="3.56901">
        <ele>995</ele>
        <time>2022-05-27T11:45:11Z</time>
      </trkpt>
      <trkpt lat="44.40637" lon="3.56901">
        <ele>995</ele>
        <time>2022-05-27T11:45:12Z</time>
      </trkpt>
      <trkpt lat="44.40638" lon="3.569">
        <ele>996</ele>
        <time>2022-05-27T11:45:13Z</time>
      </trkpt>
      <trkpt lat="44.40638" lon="3.569">
        <ele>996</ele>
        <time>2022-05-27T11:45:14Z</time>
      </trkpt>
      <trkpt lat="44.40639" lon="3.56899">
        <ele>996</ele>
        <time>2022-05-27T11:45:15Z</time>
      </trkpt>
      <trkpt lat="44.40639" lon="3.56898">
        <ele>997</ele>
        <time>2022-05-27T11:45:16Z</time>
      </trkpt>
      <trkpt lat="44.40639" lon="3.56898">
        <ele>997</ele>
        <time>2022-05-27T11:45:17Z</time>
      </trkpt>
      <trkpt lat="44.40639" lon="3.56898">
        <ele>997</ele>
        <time>2022-05-27T11:45:18Z</time>
      </trkpt>
      <trkpt lat="44.40641" lon="3.56896">
        <ele>995</ele>
        <time>2022-05-27T11:45:19Z</time>
      </trkpt>
      <trkpt lat="44.40641" lon="3.56895">
        <ele>994</ele>
        <time>2022-05-27T11:45:20Z</time>
      </trkpt>
      <trkpt lat="44.40642" lon="3.56895">
        <ele>994</ele>
        <time>2022-05-27T11:45:21Z</time>
      </trkpt>
      <trkpt lat="44.40643" lon="3.56895">
        <ele>993</ele>
        <time>2022-05-27T11:45:22Z</time>
      </trkpt>
      <trkpt lat="44.40644" lon="3.56894">
        <ele>993</ele>
        <time>2022-05-27T11:45:23Z</time>
      </trkpt>
      <trkpt lat="44.40644" lon="3.56894">
        <ele>993</ele>
        <time>2022-05-27T11:45:24Z</time>
      </trkpt>
      <trkpt lat="44.40645" lon="3.56893">
        <ele>993</ele>
        <time>2022-05-27T11:45:25Z</time>
      </trkpt>
      <trkpt lat="44.40645" lon="3.56892">
        <ele>992</ele>
        <time>2022-05-27T11:45:26Z</time>
      </trkpt>
      <trkpt lat="44.40645" lon="3.56891">
        <ele>992</ele>
        <time>2022-05-27T11:45:27Z</time>
      </trkpt>
      <trkpt lat="44.40645" lon="3.56891">
        <ele>992</ele>
        <time>2022-05-27T11:45:28Z</time>
      </trkpt>
      <trkpt lat="44.40647" lon="3.56889">
        <ele>993</ele>
        <time>2022-05-27T11:45:29Z</time>
      </trkpt>
      <trkpt lat="44.40647" lon="3.56889">
        <ele>992</ele>
        <time>2022-05-27T11:45:30Z</time>
      </trkpt>
      <trkpt lat="44.40648" lon="3.56888">
        <ele>992</ele>
        <time>2022-05-27T11:45:31Z</time>
      </trkpt>
      <trkpt lat="44.40649" lon="3.56888">
        <ele>992</ele>
        <time>2022-05-27T11:45:32Z</time>
      </trkpt>
      <trkpt lat="44.40649" lon="3.56887">
        <ele>991</ele>
        <time>2022-05-27T11:45:33Z</time>
      </trkpt>
      <trkpt lat="44.40651" lon="3.56886">
        <ele>991</ele>
        <time>2022-05-27T11:45:34Z</time>
      </trkpt>
      <trkpt lat="44.40651" lon="3.56886">
        <ele>991</ele>
        <time>2022-05-27T11:45:35Z</time>
      </trkpt>
      <trkpt lat="44.40652" lon="3.56886">
        <ele>991</ele>
        <time>2022-05-27T11:45:36Z</time>
      </trkpt>
      <trkpt lat="44.40653" lon="3.56885">
        <ele>991</ele>
        <time>2022-05-27T11:45:37Z</time>
      </trkpt>
      <trkpt lat="44.40654" lon="3.56884">
        <ele>990</ele>
        <time>2022-05-27T11:45:38Z</time>
      </trkpt>
      <trkpt lat="44.40654" lon="3.56883">
        <ele>990</ele>
        <time>2022-05-27T11:45:39Z</time>
      </trkpt>
      <trkpt lat="44.40655" lon="3.56882">
        <ele>990</ele>
        <time>2022-05-27T11:45:40Z</time>
      </trkpt>
      <trkpt lat="44.40656" lon="3.56881">
        <ele>990</ele>
        <time>2022-05-27T11:45:41Z</time>
      </trkpt>
      <trkpt lat="44.40657" lon="3.5688">
        <ele>990</ele>
        <time>2022-05-27T11:45:42Z</time>
      </trkpt>
      <trkpt lat="44.40658" lon="3.56879">
        <ele>990</ele>
        <time>2022-05-27T11:45:43Z</time>
      </trkpt>
      <trkpt lat="44.40659" lon="3.56878">
        <ele>990</ele>
        <time>2022-05-27T11:45:44Z</time>
      </trkpt>
      <trkpt lat="44.4066" lon="3.56877">
        <ele>990</ele>
        <time>2022-05-27T11:45:45Z</time>
      </trkpt>
      <trkpt lat="44.40661" lon="3.56875">
        <ele>990</ele>
        <time>2022-05-27T11:45:46Z</time>
      </trkpt>
      <trkpt lat="44.40661" lon="3.56874">
        <ele>989</ele>
        <time>2022-05-27T11:45:47Z</time>
      </trkpt>
      <trkpt lat="44.40662" lon="3.56873">
        <ele>989</ele>
        <time>2022-05-27T11:45:48Z</time>
      </trkpt>
      <trkpt lat="44.40662" lon="3.56871">
        <ele>989</ele>
        <time>2022-05-27T11:45:49Z</time>
      </trkpt>
      <trkpt lat="44.40663" lon="3.56869">
        <ele>989</ele>
        <time>2022-05-27T11:45:50Z</time>
      </trkpt>
      <trkpt lat="44.40663" lon="3.56867">
        <ele>989</ele>
        <time>2022-05-27T11:45:51Z</time>
      </trkpt>
      <trkpt lat="44.40663" lon="3.56866">
        <ele>988</ele>
        <time>2022-05-27T11:45:52Z</time>
      </trkpt>
      <trkpt lat="44.40663" lon="3.56864">
        <ele>988</ele>
        <time>2022-05-27T11:45:53Z</time>
      </trkpt>
      <trkpt lat="44.40662" lon="3.56863">
        <ele>988</ele>
        <time>2022-05-27T11:45:54Z</time>
      </trkpt>
      <trkpt lat="44.40663" lon="3.56862">
        <ele>987</ele>
        <time>2022-05-27T11:45:55Z</time>
      </trkpt>
      <trkpt lat="44.40663" lon="3.56861">
        <ele>987</ele>
        <time>2022-05-27T11:45:56Z</time>
      </trkpt>
      <trkpt lat="44.40663" lon="3.56859">
        <ele>987</ele>
        <time>2022-05-27T11:45:57Z</time>
      </trkpt>
      <trkpt lat="44.40663" lon="3.56857">
        <ele>987</ele>
        <time>2022-05-27T11:45:58Z</time>
      </trkpt>
      <trkpt lat="44.40663" lon="3.56855">
        <ele>987</ele>
        <time>2022-05-27T11:45:59Z</time>
      </trkpt>
      <trkpt lat="44.40663" lon="3.56853">
        <ele>987</ele>
        <time>2022-05-27T11:46:00Z</time>
      </trkpt>
      <trkpt lat="44.40663" lon="3.56851">
        <ele>987</ele>
        <time>2022-05-27T11:46:01Z</time>
      </trkpt>
      <trkpt lat="44.40663" lon="3.56849">
        <ele>986</ele>
        <time>2022-05-27T11:46:02Z</time>
      </trkpt>
      <trkpt lat="44.40663" lon="3.56847">
        <ele>986</ele>
        <time>2022-05-27T11:46:03Z</time>
      </trkpt>
      <trkpt lat="44.40662" lon="3.56846">
        <ele>986</ele>
        <time>2022-05-27T11:46:04Z</time>
      </trkpt>
      <trkpt lat="44.40662" lon="3.56845">
        <ele>986</ele>
        <time>2022-05-27T11:46:05Z</time>
      </trkpt>
      <trkpt lat="44.40661" lon="3.56843">
        <ele>985</ele>
        <time>2022-05-27T11:46:06Z</time>
      </trkpt>
      <trkpt lat="44.40661" lon="3.56842">
        <ele>985</ele>
        <time>2022-05-27T11:46:07Z</time>
      </trkpt>
      <trkpt lat="44.40661" lon="3.56841">
        <ele>985</ele>
        <time>2022-05-27T11:46:08Z</time>
      </trkpt>
      <trkpt lat="44.4066" lon="3.5684">
        <ele>985</ele>
        <time>2022-05-27T11:46:09Z</time>
      </trkpt>
      <trkpt lat="44.4066" lon="3.56838">
        <ele>985</ele>
        <time>2022-05-27T11:46:10Z</time>
      </trkpt>
      <trkpt lat="44.40661" lon="3.56836">
        <ele>985</ele>
        <time>2022-05-27T11:46:11Z</time>
      </trkpt>
      <trkpt lat="44.40661" lon="3.56835">
        <ele>985</ele>
        <time>2022-05-27T11:46:12Z</time>
      </trkpt>
      <trkpt lat="44.40661" lon="3.56833">
        <ele>985</ele>
        <time>2022-05-27T11:46:13Z</time>
      </trkpt>
      <trkpt lat="44.40661" lon="3.56831">
        <ele>985</ele>
        <time>2022-05-27T11:46:14Z</time>
      </trkpt>
      <trkpt lat="44.4066" lon="3.5683">
        <ele>985</ele>
        <time>2022-05-27T11:46:15Z</time>
      </trkpt>
      <trkpt lat="44.4066" lon="3.56828">
        <ele>985</ele>
        <time>2022-05-27T11:46:16Z</time>
      </trkpt>
      <trkpt lat="44.40659" lon="3.56827">
        <ele>985</ele>
        <time>2022-05-27T11:46:17Z</time>
      </trkpt>
      <trkpt lat="44.40659" lon="3.56825">
        <ele>985</ele>
        <time>2022-05-27T11:46:18Z</time>
      </trkpt>
      <trkpt lat="44.40659" lon="3.56823">
        <ele>985</ele>
        <time>2022-05-27T11:46:19Z</time>
      </trkpt>
      <trkpt lat="44.40658" lon="3.56822">
        <ele>985</ele>
        <time>2022-05-27T11:46:20Z</time>
      </trkpt>
      <trkpt lat="44.40657" lon="3.56821">
        <ele>985</ele>
        <time>2022-05-27T11:46:21Z</time>
      </trkpt>
      <trkpt lat="44.40657" lon="3.5682">
        <ele>985</ele>
        <time>2022-05-27T11:46:22Z</time>
      </trkpt>
      <trkpt lat="44.40656" lon="3.56819">
        <ele>985</ele>
        <time>2022-05-27T11:46:23Z</time>
      </trkpt>
      <trkpt lat="44.40656" lon="3.56818">
        <ele>984</ele>
        <time>2022-05-27T11:46:24Z</time>
      </trkpt>
      <trkpt lat="44.40655" lon="3.56817">
        <ele>984</ele>
        <time>2022-05-27T11:46:25Z</time>
      </trkpt>
      <trkpt lat="44.40654" lon="3.56816">
        <ele>984</ele>
        <time>2022-05-27T11:46:26Z</time>
      </trkpt>
      <trkpt lat="44.40654" lon="3.56815">
        <ele>985</ele>
        <time>2022-05-27T11:46:27Z</time>
      </trkpt>
      <trkpt lat="44.40653" lon="3.56814">
        <ele>985</ele>
        <time>2022-05-27T11:46:28Z</time>
      </trkpt>
      <trkpt lat="44.40653" lon="3.56814">
        <ele>985</ele>
        <time>2022-05-27T11:46:29Z</time>
      </trkpt>
      <trkpt lat="44.40652" lon="3.56813">
        <ele>984</ele>
        <time>2022-05-27T11:46:30Z</time>
      </trkpt>
      <trkpt lat="44.40651" lon="3.56812">
        <ele>984</ele>
        <time>2022-05-27T11:46:31Z</time>
      </trkpt>
      <trkpt lat="44.40651" lon="3.56811">
        <ele>985</ele>
        <time>2022-05-27T11:46:32Z</time>
      </trkpt>
      <trkpt lat="44.4065" lon="3.56811">
        <ele>985</ele>
        <time>2022-05-27T11:46:33Z</time>
      </trkpt>
      <trkpt lat="44.40649" lon="3.56809">
        <ele>985</ele>
        <time>2022-05-27T11:46:34Z</time>
      </trkpt>
      <trkpt lat="44.40649" lon="3.56808">
        <ele>985</ele>
        <time>2022-05-27T11:46:35Z</time>
      </trkpt>
      <trkpt lat="44.40648" lon="3.56806">
        <ele>985</ele>
        <time>2022-05-27T11:46:36Z</time>
      </trkpt>
      <trkpt lat="44.40647" lon="3.56804">
        <ele>985</ele>
        <time>2022-05-27T11:46:37Z</time>
      </trkpt>
      <trkpt lat="44.40647" lon="3.56802">
        <ele>985</ele>
        <time>2022-05-27T11:46:38Z</time>
      </trkpt>
      <trkpt lat="44.40646" lon="3.56801">
        <ele>984</ele>
        <time>2022-05-27T11:46:39Z</time>
      </trkpt>
      <trkpt lat="44.40646" lon="3.56799">
        <ele>984</ele>
        <time>2022-05-27T11:46:40Z</time>
      </trkpt>
      <trkpt lat="44.40646" lon="3.56797">
        <ele>984</ele>
        <time>2022-05-27T11:46:41Z</time>
      </trkpt>
      <trkpt lat="44.40646" lon="3.56796">
        <ele>983</ele>
        <time>2022-05-27T11:46:42Z</time>
      </trkpt>
      <trkpt lat="44.40646" lon="3.56795">
        <ele>984</ele>
        <time>2022-05-27T11:46:43Z</time>
      </trkpt>
      <trkpt lat="44.40646" lon="3.56793">
        <ele>983</ele>
        <time>2022-05-27T11:46:44Z</time>
      </trkpt>
      <trkpt lat="44.40646" lon="3.56791">
        <ele>983</ele>
        <time>2022-05-27T11:46:45Z</time>
      </trkpt>
      <trkpt lat="44.40645" lon="3.5679">
        <ele>983</ele>
        <time>2022-05-27T11:46:46Z</time>
      </trkpt>
      <trkpt lat="44.40645" lon="3.56788">
        <ele>982</ele>
        <time>2022-05-27T11:46:47Z</time>
      </trkpt>
      <trkpt lat="44.40644" lon="3.56788">
        <ele>983</ele>
        <time>2022-05-27T11:46:48Z</time>
      </trkpt>
      <trkpt lat="44.40643" lon="3.56786">
        <ele>983</ele>
        <time>2022-05-27T11:46:49Z</time>
      </trkpt>
      <trkpt lat="44.40643" lon="3.56785">
        <ele>982</ele>
        <time>2022-05-27T11:46:50Z</time>
      </trkpt>
      <trkpt lat="44.40643" lon="3.56784">
        <ele>981</ele>
        <time>2022-05-27T11:46:51Z</time>
      </trkpt>
      <trkpt lat="44.40642" lon="3.56783">
        <ele>980</ele>
        <time>2022-05-27T11:46:52Z</time>
      </trkpt>
      <trkpt lat="44.40641" lon="3.56781">
        <ele>980</ele>
        <time>2022-05-27T11:46:53Z</time>
      </trkpt>
      <trkpt lat="44.40641" lon="3.5678">
        <ele>981</ele>
        <time>2022-05-27T11:46:54Z</time>
      </trkpt>
      <trkpt lat="44.40641" lon="3.56779">
        <ele>981</ele>
        <time>2022-05-27T11:46:55Z</time>
      </trkpt>
      <trkpt lat="44.4064" lon="3.56778">
        <ele>980</ele>
        <time>2022-05-27T11:46:56Z</time>
      </trkpt>
      <trkpt lat="44.4064" lon="3.56776">
        <ele>981</ele>
        <time>2022-05-27T11:46:57Z</time>
      </trkpt>
      <trkpt lat="44.40639" lon="3.56775">
        <ele>981</ele>
        <time>2022-05-27T11:46:58Z</time>
      </trkpt>
      <trkpt lat="44.40638" lon="3.56774">
        <ele>980</ele>
        <time>2022-05-27T11:46:59Z</time>
      </trkpt>
      <trkpt lat="44.40638" lon="3.56773">
        <ele>979</ele>
        <time>2022-05-27T11:47:00Z</time>
      </trkpt>
      <trkpt lat="44.40638" lon="3.56771">
        <ele>979</ele>
        <time>2022-05-27T11:47:01Z</time>
      </trkpt>
      <trkpt lat="44.40638" lon="3.56771">
        <ele>979</ele>
        <time>2022-05-27T11:47:02Z</time>
      </trkpt>
      <trkpt lat="44.40638" lon="3.56771">
        <ele>979</ele>
        <time>2022-05-27T11:47:03Z</time>
      </trkpt>
      <trkpt lat="44.40638" lon="3.56771">
        <ele>979</ele>
        <time>2022-05-27T11:47:04Z</time>
      </trkpt>
      <trkpt lat="44.40637" lon="3.56768">
        <ele>977</ele>
        <time>2022-05-27T11:47:05Z</time>
      </trkpt>
      <trkpt lat="44.40636" lon="3.56767">
        <ele>977</ele>
        <time>2022-05-27T11:47:06Z</time>
      </trkpt>
      <trkpt lat="44.40636" lon="3.56766">
        <ele>977</ele>
        <time>2022-05-27T11:47:07Z</time>
      </trkpt>
      <trkpt lat="44.40636" lon="3.56764">
        <ele>977</ele>
        <time>2022-05-27T11:47:08Z</time>
      </trkpt>
      <trkpt lat="44.40635" lon="3.56763">
        <ele>977</ele>
        <time>2022-05-27T11:47:09Z</time>
      </trkpt>
      <trkpt lat="44.40635" lon="3.56762">
        <ele>976</ele>
        <time>2022-05-27T11:47:10Z</time>
      </trkpt>
      <trkpt lat="44.40633" lon="3.56763">
        <ele>975</ele>
        <time>2022-05-27T11:47:11Z</time>
      </trkpt>
      <trkpt lat="44.40632" lon="3.56764">
        <ele>974</ele>
        <time>2022-05-27T11:47:12Z</time>
      </trkpt>
      <trkpt lat="44.40631" lon="3.56764">
        <ele>974</ele>
        <time>2022-05-27T11:47:13Z</time>
      </trkpt>
      <trkpt lat="44.4063" lon="3.56765">
        <ele>973</ele>
        <time>2022-05-27T11:47:14Z</time>
      </trkpt>
      <trkpt lat="44.4063" lon="3.56765">
        <ele>973</ele>
        <time>2022-05-27T11:47:15Z</time>
      </trkpt>
      <trkpt lat="44.40629" lon="3.56764">
        <ele>972</ele>
        <time>2022-05-27T11:47:16Z</time>
      </trkpt>
      <trkpt lat="44.40628" lon="3.56765">
        <ele>972</ele>
        <time>2022-05-27T11:47:17Z</time>
      </trkpt>
      <trkpt lat="44.40628" lon="3.56767">
        <ele>972</ele>
        <time>2022-05-27T11:47:18Z</time>
      </trkpt>
      <trkpt lat="44.40628" lon="3.56768">
        <ele>973</ele>
        <time>2022-05-27T11:47:19Z</time>
      </trkpt>
      <trkpt lat="44.40627" lon="3.5677">
        <ele>972</ele>
        <time>2022-05-27T11:47:20Z</time>
      </trkpt>
      <trkpt lat="44.40627" lon="3.5677">
        <ele>972</ele>
        <time>2022-05-27T11:47:21Z</time>
      </trkpt>
      <trkpt lat="44.40627" lon="3.5677">
        <ele>972</ele>
        <time>2022-05-27T11:47:22Z</time>
      </trkpt>
      <trkpt lat="44.40627" lon="3.5677">
        <ele>972</ele>
        <time>2022-05-27T11:47:23Z</time>
      </trkpt>
      <trkpt lat="44.40625" lon="3.56771">
        <ele>972</ele>
        <time>2022-05-27T11:47:24Z</time>
      </trkpt>
      <trkpt lat="44.40625" lon="3.56773">
        <ele>971</ele>
        <time>2022-05-27T11:47:25Z</time>
      </trkpt>
      <trkpt lat="44.40625" lon="3.56774">
        <ele>970</ele>
        <time>2022-05-27T11:47:26Z</time>
      </trkpt>
      <trkpt lat="44.40624" lon="3.56775">
        <ele>970</ele>
        <time>2022-05-27T11:47:27Z</time>
      </trkpt>
      <trkpt lat="44.40624" lon="3.56776">
        <ele>969</ele>
        <time>2022-05-27T11:47:28Z</time>
      </trkpt>
      <trkpt lat="44.40624" lon="3.56778">
        <ele>969</ele>
        <time>2022-05-27T11:47:29Z</time>
      </trkpt>
      <trkpt lat="44.40623" lon="3.56779">
        <ele>968</ele>
        <time>2022-05-27T11:47:30Z</time>
      </trkpt>
      <trkpt lat="44.40623" lon="3.56779">
        <ele>969</ele>
        <time>2022-05-27T11:47:31Z</time>
      </trkpt>
      <trkpt lat="44.40622" lon="3.5678">
        <ele>969</ele>
        <time>2022-05-27T11:47:32Z</time>
      </trkpt>
      <trkpt lat="44.40621" lon="3.56781">
        <ele>968</ele>
        <time>2022-05-27T11:47:33Z</time>
      </trkpt>
      <trkpt lat="44.4062" lon="3.56782">
        <ele>968</ele>
        <time>2022-05-27T11:47:34Z</time>
      </trkpt>
      <trkpt lat="44.4062" lon="3.56783">
        <ele>969</ele>
        <time>2022-05-27T11:47:35Z</time>
      </trkpt>
      <trkpt lat="44.40619" lon="3.56784">
        <ele>969</ele>
        <time>2022-05-27T11:47:36Z</time>
      </trkpt>
      <trkpt lat="44.40618" lon="3.56785">
        <ele>969</ele>
        <time>2022-05-27T11:47:37Z</time>
      </trkpt>
      <trkpt lat="44.40618" lon="3.56786">
        <ele>969</ele>
        <time>2022-05-27T11:47:38Z</time>
      </trkpt>
      <trkpt lat="44.40617" lon="3.56788">
        <ele>968</ele>
        <time>2022-05-27T11:47:39Z</time>
      </trkpt>
      <trkpt lat="44.40616" lon="3.56789">
        <ele>969</ele>
        <time>2022-05-27T11:47:40Z</time>
      </trkpt>
      <trkpt lat="44.40616" lon="3.56791">
        <ele>969</ele>
        <time>2022-05-27T11:47:41Z</time>
      </trkpt>
      <trkpt lat="44.40616" lon="3.56792">
        <ele>970</ele>
        <time>2022-05-27T11:47:42Z</time>
      </trkpt>
      <trkpt lat="44.40616" lon="3.56794">
        <ele>970</ele>
        <time>2022-05-27T11:47:43Z</time>
      </trkpt>
      <trkpt lat="44.40616" lon="3.56794">
        <ele>970</ele>
        <time>2022-05-27T11:47:44Z</time>
      </trkpt>
      <trkpt lat="44.40616" lon="3.56794">
        <ele>970</ele>
        <time>2022-05-27T11:47:45Z</time>
      </trkpt>
      <trkpt lat="44.40616" lon="3.56797">
        <ele>969</ele>
        <time>2022-05-27T11:47:46Z</time>
      </trkpt>
      <trkpt lat="44.40616" lon="3.56798">
        <ele>968</ele>
        <time>2022-05-27T11:47:47Z</time>
      </trkpt>
      <trkpt lat="44.40616" lon="3.568">
        <ele>969</ele>
        <time>2022-05-27T11:47:48Z</time>
      </trkpt>
      <trkpt lat="44.40616" lon="3.56802">
        <ele>969</ele>
        <time>2022-05-27T11:47:49Z</time>
      </trkpt>
      <trkpt lat="44.40615" lon="3.56804">
        <ele>969</ele>
        <time>2022-05-27T11:47:50Z</time>
      </trkpt>
      <trkpt lat="44.40615" lon="3.56804">
        <ele>969</ele>
        <time>2022-05-27T11:47:51Z</time>
      </trkpt>
      <trkpt lat="44.40615" lon="3.56804">
        <ele>969</ele>
        <time>2022-05-27T11:47:52Z</time>
      </trkpt>
      <trkpt lat="44.40615" lon="3.56804">
        <ele>969</ele>
        <time>2022-05-27T11:47:53Z</time>
      </trkpt>
      <trkpt lat="44.40615" lon="3.56804">
        <ele>969</ele>
        <time>2022-05-27T11:47:54Z</time>
      </trkpt>
      <trkpt lat="44.40614" lon="3.56807">
        <ele>968</ele>
        <time>2022-05-27T11:47:55Z</time>
      </trkpt>
      <trkpt lat="44.40614" lon="3.56808">
        <ele>968</ele>
        <time>2022-05-27T11:47:56Z</time>
      </trkpt>
      <trkpt lat="44.40613" lon="3.56808">
        <ele>968</ele>
        <time>2022-05-27T11:47:57Z</time>
      </trkpt>
      <trkpt lat="44.40611" lon="3.56809">
        <ele>968</ele>
        <time>2022-05-27T11:47:58Z</time>
      </trkpt>
      <trkpt lat="44.40611" lon="3.5681">
        <ele>968</ele>
        <time>2022-05-27T11:47:59Z</time>
      </trkpt>
      <trkpt lat="44.4061" lon="3.5681">
        <ele>968</ele>
        <time>2022-05-27T11:48:00Z</time>
      </trkpt>
      <trkpt lat="44.4061" lon="3.5681">
        <ele>968</ele>
        <time>2022-05-27T11:48:01Z</time>
      </trkpt>
      <trkpt lat="44.40609" lon="3.5681">
        <ele>969</ele>
        <time>2022-05-27T11:48:02Z</time>
      </trkpt>
      <trkpt lat="44.40608" lon="3.56811">
        <ele>968</ele>
        <time>2022-05-27T11:48:03Z</time>
      </trkpt>
      <trkpt lat="44.40608" lon="3.5681">
        <ele>968</ele>
        <time>2022-05-27T11:48:04Z</time>
      </trkpt>
      <trkpt lat="44.40607" lon="3.5681">
        <ele>968</ele>
        <time>2022-05-27T11:48:05Z</time>
      </trkpt>
      <trkpt lat="44.40606" lon="3.5681">
        <ele>968</ele>
        <time>2022-05-27T11:48:06Z</time>
      </trkpt>
      <trkpt lat="44.40605" lon="3.5681">
        <ele>969</ele>
        <time>2022-05-27T11:48:07Z</time>
      </trkpt>
      <trkpt lat="44.40604" lon="3.5681">
        <ele>969</ele>
        <time>2022-05-27T11:48:08Z</time>
      </trkpt>
      <trkpt lat="44.40604" lon="3.5681">
        <ele>970</ele>
        <time>2022-05-27T11:48:09Z</time>
      </trkpt>
      <trkpt lat="44.40603" lon="3.5681">
        <ele>970</ele>
        <time>2022-05-27T11:48:10Z</time>
      </trkpt>
      <trkpt lat="44.40602" lon="3.5681">
        <ele>969</ele>
        <time>2022-05-27T11:48:11Z</time>
      </trkpt>
      <trkpt lat="44.40601" lon="3.5681">
        <ele>969</ele>
        <time>2022-05-27T11:48:12Z</time>
      </trkpt>
      <trkpt lat="44.406" lon="3.56809">
        <ele>969</ele>
        <time>2022-05-27T11:48:13Z</time>
      </trkpt>
      <trkpt lat="44.40599" lon="3.56809">
        <ele>969</ele>
        <time>2022-05-27T11:48:14Z</time>
      </trkpt>
      <trkpt lat="44.40598" lon="3.56809">
        <ele>969</ele>
        <time>2022-05-27T11:48:15Z</time>
      </trkpt>
      <trkpt lat="44.40596" lon="3.56807">
        <ele>968</ele>
        <time>2022-05-27T11:48:16Z</time>
      </trkpt>
      <trkpt lat="44.40596" lon="3.56807">
        <ele>969</ele>
        <time>2022-05-27T11:48:17Z</time>
      </trkpt>
      <trkpt lat="44.40595" lon="3.56807">
        <ele>968</ele>
        <time>2022-05-27T11:48:18Z</time>
      </trkpt>
      <trkpt lat="44.40593" lon="3.56806">
        <ele>968</ele>
        <time>2022-05-27T11:48:19Z</time>
      </trkpt>
      <trkpt lat="44.40593" lon="3.56805">
        <ele>968</ele>
        <time>2022-05-27T11:48:20Z</time>
      </trkpt>
      <trkpt lat="44.40592" lon="3.56805">
        <ele>967</ele>
        <time>2022-05-27T11:48:21Z</time>
      </trkpt>
      <trkpt lat="44.40591" lon="3.56805">
        <ele>967</ele>
        <time>2022-05-27T11:48:22Z</time>
      </trkpt>
      <trkpt lat="44.4059" lon="3.56805">
        <ele>967</ele>
        <time>2022-05-27T11:48:23Z</time>
      </trkpt>
      <trkpt lat="44.40588" lon="3.56805">
        <ele>966</ele>
        <time>2022-05-27T11:48:24Z</time>
      </trkpt>
      <trkpt lat="44.40587" lon="3.56805">
        <ele>966</ele>
        <time>2022-05-27T11:48:25Z</time>
      </trkpt>
      <trkpt lat="44.40585" lon="3.56806">
        <ele>964</ele>
        <time>2022-05-27T11:48:26Z</time>
      </trkpt>
      <trkpt lat="44.40583" lon="3.56806">
        <ele>963</ele>
        <time>2022-05-27T11:48:27Z</time>
      </trkpt>
      <trkpt lat="44.40582" lon="3.56805">
        <ele>962</ele>
        <time>2022-05-27T11:48:28Z</time>
      </trkpt>
      <trkpt lat="44.40582" lon="3.56805">
        <ele>962</ele>
        <time>2022-05-27T11:48:29Z</time>
      </trkpt>
      <trkpt lat="44.40581" lon="3.56805">
        <ele>961</ele>
        <time>2022-05-27T11:48:30Z</time>
      </trkpt>
      <trkpt lat="44.4058" lon="3.56806">
        <ele>960</ele>
        <time>2022-05-27T11:48:31Z</time>
      </trkpt>
      <trkpt lat="44.4058" lon="3.56806">
        <ele>959</ele>
        <time>2022-05-27T11:48:32Z</time>
      </trkpt>
      <trkpt lat="44.40578" lon="3.56806">
        <ele>959</ele>
        <time>2022-05-27T11:48:33Z</time>
      </trkpt>
      <trkpt lat="44.40577" lon="3.56805">
        <ele>959</ele>
        <time>2022-05-27T11:48:34Z</time>
      </trkpt>
      <trkpt lat="44.40577" lon="3.56805">
        <ele>959</ele>
        <time>2022-05-27T11:48:35Z</time>
      </trkpt>
      <trkpt lat="44.40575" lon="3.56804">
        <ele>958</ele>
        <time>2022-05-27T11:48:36Z</time>
      </trkpt>
      <trkpt lat="44.40575" lon="3.56803">
        <ele>957</ele>
        <time>2022-05-27T11:48:37Z</time>
      </trkpt>
      <trkpt lat="44.40573" lon="3.56802">
        <ele>957</ele>
        <time>2022-05-27T11:48:38Z</time>
      </trkpt>
      <trkpt lat="44.40572" lon="3.56802">
        <ele>957</ele>
        <time>2022-05-27T11:48:39Z</time>
      </trkpt>
      <trkpt lat="44.40571" lon="3.56802">
        <ele>957</ele>
        <time>2022-05-27T11:48:40Z</time>
      </trkpt>
      <trkpt lat="44.4057" lon="3.56802">
        <ele>957</ele>
        <time>2022-05-27T11:48:41Z</time>
      </trkpt>
      <trkpt lat="44.40569" lon="3.568">
        <ele>957</ele>
        <time>2022-05-27T11:48:42Z</time>
      </trkpt>
      <trkpt lat="44.40568" lon="3.56799">
        <ele>956</ele>
        <time>2022-05-27T11:48:43Z</time>
      </trkpt>
      <trkpt lat="44.40567" lon="3.56799">
        <ele>956</ele>
        <time>2022-05-27T11:48:44Z</time>
      </trkpt>
      <trkpt lat="44.40566" lon="3.56799">
        <ele>957</ele>
        <time>2022-05-27T11:48:45Z</time>
      </trkpt>
      <trkpt lat="44.40565" lon="3.56799">
        <ele>956</ele>
        <time>2022-05-27T11:48:46Z</time>
      </trkpt>
      <trkpt lat="44.40564" lon="3.56799">
        <ele>956</ele>
        <time>2022-05-27T11:48:47Z</time>
      </trkpt>
      <trkpt lat="44.40563" lon="3.56798">
        <ele>956</ele>
        <time>2022-05-27T11:48:48Z</time>
      </trkpt>
      <trkpt lat="44.40562" lon="3.56798">
        <ele>956</ele>
        <time>2022-05-27T11:48:49Z</time>
      </trkpt>
      <trkpt lat="44.40561" lon="3.56797">
        <ele>955</ele>
        <time>2022-05-27T11:48:50Z</time>
      </trkpt>
      <trkpt lat="44.4056" lon="3.56797">
        <ele>955</ele>
        <time>2022-05-27T11:48:51Z</time>
      </trkpt>
      <trkpt lat="44.40559" lon="3.56797">
        <ele>955</ele>
        <time>2022-05-27T11:48:52Z</time>
      </trkpt>
      <trkpt lat="44.40558" lon="3.56796">
        <ele>955</ele>
        <time>2022-05-27T11:48:53Z</time>
      </trkpt>
      <trkpt lat="44.40557" lon="3.56795">
        <ele>955</ele>
        <time>2022-05-27T11:48:54Z</time>
      </trkpt>
      <trkpt lat="44.40556" lon="3.56795">
        <ele>955</ele>
        <time>2022-05-27T11:48:55Z</time>
      </trkpt>
      <trkpt lat="44.40555" lon="3.56794">
        <ele>955</ele>
        <time>2022-05-27T11:48:56Z</time>
      </trkpt>
      <trkpt lat="44.40554" lon="3.56794">
        <ele>955</ele>
        <time>2022-05-27T11:48:57Z</time>
      </trkpt>
      <trkpt lat="44.40553" lon="3.56794">
        <ele>955</ele>
        <time>2022-05-27T11:48:58Z</time>
      </trkpt>
      <trkpt lat="44.40552" lon="3.56793">
        <ele>955</ele>
        <time>2022-05-27T11:48:59Z</time>
      </trkpt>
      <trkpt lat="44.40551" lon="3.56792">
        <ele>954</ele>
        <time>2022-05-27T11:49:00Z</time>
      </trkpt>
      <trkpt lat="44.4055" lon="3.56791">
        <ele>954</ele>
        <time>2022-05-27T11:49:01Z</time>
      </trkpt>
      <trkpt lat="44.40549" lon="3.56791">
        <ele>954</ele>
        <time>2022-05-27T11:49:02Z</time>
      </trkpt>
      <trkpt lat="44.40548" lon="3.5679">
        <ele>954</ele>
        <time>2022-05-27T11:49:03Z</time>
      </trkpt>
      <trkpt lat="44.40547" lon="3.56789">
        <ele>954</ele>
        <time>2022-05-27T11:49:04Z</time>
      </trkpt>
      <trkpt lat="44.40546" lon="3.56789">
        <ele>953</ele>
        <time>2022-05-27T11:49:05Z</time>
      </trkpt>
      <trkpt lat="44.40545" lon="3.56788">
        <ele>952</ele>
        <time>2022-05-27T11:49:06Z</time>
      </trkpt>
      <trkpt lat="44.40544" lon="3.56787">
        <ele>952</ele>
        <time>2022-05-27T11:49:07Z</time>
      </trkpt>
      <trkpt lat="44.40544" lon="3.56786">
        <ele>952</ele>
        <time>2022-05-27T11:49:08Z</time>
      </trkpt>
      <trkpt lat="44.40543" lon="3.56786">
        <ele>952</ele>
        <time>2022-05-27T11:49:09Z</time>
      </trkpt>
      <trkpt lat="44.40542" lon="3.56785">
        <ele>952</ele>
        <time>2022-05-27T11:49:10Z</time>
      </trkpt>
      <trkpt lat="44.40542" lon="3.56785">
        <ele>952</ele>
        <time>2022-05-27T11:49:11Z</time>
      </trkpt>
      <trkpt lat="44.40541" lon="3.56785">
        <ele>952</ele>
        <time>2022-05-27T11:49:12Z</time>
      </trkpt>
      <trkpt lat="44.4054" lon="3.56785">
        <ele>951</ele>
        <time>2022-05-27T11:49:13Z</time>
      </trkpt>
      <trkpt lat="44.40539" lon="3.56785">
        <ele>951</ele>
        <time>2022-05-27T11:49:14Z</time>
      </trkpt>
      <trkpt lat="44.40539" lon="3.56785">
        <ele>951</ele>
        <time>2022-05-27T11:49:15Z</time>
      </trkpt>
      <trkpt lat="44.40538" lon="3.56785">
        <ele>951</ele>
        <time>2022-05-27T11:49:16Z</time>
      </trkpt>
      <trkpt lat="44.40537" lon="3.56784">
        <ele>950</ele>
        <time>2022-05-27T11:49:17Z</time>
      </trkpt>
      <trkpt lat="44.40537" lon="3.56783">
        <ele>951</ele>
        <time>2022-05-27T11:49:18Z</time>
      </trkpt>
      <trkpt lat="44.40536" lon="3.56782">
        <ele>951</ele>
        <time>2022-05-27T11:49:19Z</time>
      </trkpt>
      <trkpt lat="44.40535" lon="3.56782">
        <ele>951</ele>
        <time>2022-05-27T11:49:20Z</time>
      </trkpt>
      <trkpt lat="44.40533" lon="3.56781">
        <ele>950</ele>
        <time>2022-05-27T11:49:21Z</time>
      </trkpt>
      <trkpt lat="44.40532" lon="3.56781">
        <ele>950</ele>
        <time>2022-05-27T11:49:22Z</time>
      </trkpt>
      <trkpt lat="44.40532" lon="3.56781">
        <ele>949</ele>
        <time>2022-05-27T11:49:23Z</time>
      </trkpt>
      <trkpt lat="44.40531" lon="3.5678">
        <ele>949</ele>
        <time>2022-05-27T11:49:24Z</time>
      </trkpt>
      <trkpt lat="44.4053" lon="3.56779">
        <ele>948</ele>
        <time>2022-05-27T11:49:25Z</time>
      </trkpt>
      <trkpt lat="44.40529" lon="3.56778">
        <ele>947</ele>
        <time>2022-05-27T11:49:26Z</time>
      </trkpt>
      <trkpt lat="44.40527" lon="3.56778">
        <ele>946</ele>
        <time>2022-05-27T11:49:27Z</time>
      </trkpt>
      <trkpt lat="44.40527" lon="3.56777">
        <ele>947</ele>
        <time>2022-05-27T11:49:28Z</time>
      </trkpt>
      <trkpt lat="44.40526" lon="3.56778">
        <ele>947</ele>
        <time>2022-05-27T11:49:29Z</time>
      </trkpt>
      <trkpt lat="44.40525" lon="3.56778">
        <ele>947</ele>
        <time>2022-05-27T11:49:30Z</time>
      </trkpt>
      <trkpt lat="44.40524" lon="3.56777">
        <ele>947</ele>
        <time>2022-05-27T11:49:31Z</time>
      </trkpt>
      <trkpt lat="44.40524" lon="3.56776">
        <ele>946</ele>
        <time>2022-05-27T11:49:32Z</time>
      </trkpt>
      <trkpt lat="44.40522" lon="3.56776">
        <ele>946</ele>
        <time>2022-05-27T11:49:33Z</time>
      </trkpt>
      <trkpt lat="44.40522" lon="3.56775">
        <ele>947</ele>
        <time>2022-05-27T11:49:34Z</time>
      </trkpt>
      <trkpt lat="44.40521" lon="3.56774">
        <ele>946</ele>
        <time>2022-05-27T11:49:35Z</time>
      </trkpt>
      <trkpt lat="44.4052" lon="3.56774">
        <ele>946</ele>
        <time>2022-05-27T11:49:36Z</time>
      </trkpt>
      <trkpt lat="44.40519" lon="3.56774">
        <ele>946</ele>
        <time>2022-05-27T11:49:37Z</time>
      </trkpt>
      <trkpt lat="44.40519" lon="3.56773">
        <ele>946</ele>
        <time>2022-05-27T11:49:38Z</time>
      </trkpt>
      <trkpt lat="44.40517" lon="3.56772">
        <ele>946</ele>
        <time>2022-05-27T11:49:39Z</time>
      </trkpt>
      <trkpt lat="44.40516" lon="3.56772">
        <ele>945</ele>
        <time>2022-05-27T11:49:40Z</time>
      </trkpt>
      <trkpt lat="44.40516" lon="3.5677">
        <ele>944</ele>
        <time>2022-05-27T11:49:41Z</time>
      </trkpt>
      <trkpt lat="44.40515" lon="3.56769">
        <ele>944</ele>
        <time>2022-05-27T11:49:42Z</time>
      </trkpt>
      <trkpt lat="44.40514" lon="3.56768">
        <ele>944</ele>
        <time>2022-05-27T11:49:43Z</time>
      </trkpt>
      <trkpt lat="44.40513" lon="3.56767">
        <ele>944</ele>
        <time>2022-05-27T11:49:44Z</time>
      </trkpt>
      <trkpt lat="44.40511" lon="3.56766">
        <ele>944</ele>
        <time>2022-05-27T11:49:45Z</time>
      </trkpt>
      <trkpt lat="44.4051" lon="3.56766">
        <ele>945</ele>
        <time>2022-05-27T11:49:46Z</time>
      </trkpt>
      <trkpt lat="44.40509" lon="3.56766">
        <ele>945</ele>
        <time>2022-05-27T11:49:47Z</time>
      </trkpt>
      <trkpt lat="44.40508" lon="3.56765">
        <ele>945</ele>
        <time>2022-05-27T11:49:48Z</time>
      </trkpt>
      <trkpt lat="44.40508" lon="3.56765">
        <ele>945</ele>
        <time>2022-05-27T11:49:49Z</time>
      </trkpt>
      <trkpt lat="44.40506" lon="3.56764">
        <ele>946</ele>
        <time>2022-05-27T11:49:50Z</time>
      </trkpt>
      <trkpt lat="44.40506" lon="3.56763">
        <ele>946</ele>
        <time>2022-05-27T11:49:51Z</time>
      </trkpt>
      <trkpt lat="44.40505" lon="3.56763">
        <ele>945</ele>
        <time>2022-05-27T11:49:52Z</time>
      </trkpt>
      <trkpt lat="44.40503" lon="3.56762">
        <ele>945</ele>
        <time>2022-05-27T11:49:53Z</time>
      </trkpt>
      <trkpt lat="44.40503" lon="3.56761">
        <ele>945</ele>
        <time>2022-05-27T11:49:54Z</time>
      </trkpt>
      <trkpt lat="44.40502" lon="3.56761">
        <ele>944</ele>
        <time>2022-05-27T11:49:55Z</time>
      </trkpt>
      <trkpt lat="44.40501" lon="3.5676">
        <ele>944</ele>
        <time>2022-05-27T11:49:56Z</time>
      </trkpt>
      <trkpt lat="44.40501" lon="3.56759">
        <ele>944</ele>
        <time>2022-05-27T11:49:57Z</time>
      </trkpt>
      <trkpt lat="44.40501" lon="3.56758">
        <ele>944</ele>
        <time>2022-05-27T11:49:58Z</time>
      </trkpt>
      <trkpt lat="44.40501" lon="3.56758">
        <ele>943</ele>
        <time>2022-05-27T11:49:59Z</time>
      </trkpt>
      <trkpt lat="44.40502" lon="3.56758">
        <ele>943</ele>
        <time>2022-05-27T11:50:00Z</time>
      </trkpt>
      <trkpt lat="44.40503" lon="3.56758">
        <ele>943</ele>
        <time>2022-05-27T11:50:01Z</time>
      </trkpt>
      <trkpt lat="44.40503" lon="3.56758">
        <ele>942</ele>
        <time>2022-05-27T11:50:02Z</time>
      </trkpt>
      <trkpt lat="44.40504" lon="3.56758">
        <ele>942</ele>
        <time>2022-05-27T11:50:03Z</time>
      </trkpt>
      <trkpt lat="44.40505" lon="3.56758">
        <ele>942</ele>
        <time>2022-05-27T11:50:04Z</time>
      </trkpt>
      <trkpt lat="44.40506" lon="3.56758">
        <ele>941</ele>
        <time>2022-05-27T11:50:05Z</time>
      </trkpt>
      <trkpt lat="44.40506" lon="3.56758">
        <ele>941</ele>
        <time>2022-05-27T11:50:06Z</time>
      </trkpt>
      <trkpt lat="44.40507" lon="3.56759">
        <ele>941</ele>
        <time>2022-05-27T11:50:07Z</time>
      </trkpt>
      <trkpt lat="44.40508" lon="3.56759">
        <ele>940</ele>
        <time>2022-05-27T11:50:08Z</time>
      </trkpt>
      <trkpt lat="44.40509" lon="3.56759">
        <ele>940</ele>
        <time>2022-05-27T11:50:09Z</time>
      </trkpt>
      <trkpt lat="44.40509" lon="3.56759">
        <ele>940</ele>
        <time>2022-05-27T11:50:10Z</time>
      </trkpt>
      <trkpt lat="44.40511" lon="3.56759">
        <ele>941</ele>
        <time>2022-05-27T11:50:11Z</time>
      </trkpt>
      <trkpt lat="44.40512" lon="3.5676">
        <ele>941</ele>
        <time>2022-05-27T11:50:12Z</time>
      </trkpt>
      <trkpt lat="44.40513" lon="3.5676">
        <ele>941</ele>
        <time>2022-05-27T11:50:13Z</time>
      </trkpt>
      <trkpt lat="44.40514" lon="3.5676">
        <ele>941</ele>
        <time>2022-05-27T11:50:14Z</time>
      </trkpt>
      <trkpt lat="44.40514" lon="3.56759">
        <ele>940</ele>
        <time>2022-05-27T11:50:15Z</time>
      </trkpt>
      <trkpt lat="44.40516" lon="3.56759">
        <ele>940</ele>
        <time>2022-05-27T11:50:16Z</time>
      </trkpt>
      <trkpt lat="44.40516" lon="3.56758">
        <ele>940</ele>
        <time>2022-05-27T11:50:17Z</time>
      </trkpt>
      <trkpt lat="44.40517" lon="3.56758">
        <ele>940</ele>
        <time>2022-05-27T11:50:18Z</time>
      </trkpt>
      <trkpt lat="44.40518" lon="3.56758">
        <ele>939</ele>
        <time>2022-05-27T11:50:19Z</time>
      </trkpt>
      <trkpt lat="44.40519" lon="3.56759">
        <ele>938</ele>
        <time>2022-05-27T11:50:20Z</time>
      </trkpt>
      <trkpt lat="44.40521" lon="3.56758">
        <ele>938</ele>
        <time>2022-05-27T11:50:21Z</time>
      </trkpt>
      <trkpt lat="44.40522" lon="3.56758">
        <ele>937</ele>
        <time>2022-05-27T11:50:22Z</time>
      </trkpt>
      <trkpt lat="44.40522" lon="3.56758">
        <ele>937</ele>
        <time>2022-05-27T11:50:23Z</time>
      </trkpt>
      <trkpt lat="44.40524" lon="3.56757">
        <ele>937</ele>
        <time>2022-05-27T11:50:24Z</time>
      </trkpt>
      <trkpt lat="44.40525" lon="3.56758">
        <ele>937</ele>
        <time>2022-05-27T11:50:25Z</time>
      </trkpt>
      <trkpt lat="44.40525" lon="3.56758">
        <ele>938</ele>
        <time>2022-05-27T11:50:26Z</time>
      </trkpt>
      <trkpt lat="44.40526" lon="3.56758">
        <ele>937</ele>
        <time>2022-05-27T11:50:27Z</time>
      </trkpt>
      <trkpt lat="44.40527" lon="3.56758">
        <ele>937</ele>
        <time>2022-05-27T11:50:28Z</time>
      </trkpt>
      <trkpt lat="44.40528" lon="3.56757">
        <ele>937</ele>
        <time>2022-05-27T11:50:29Z</time>
      </trkpt>
      <trkpt lat="44.40529" lon="3.56757">
        <ele>937</ele>
        <time>2022-05-27T11:50:30Z</time>
      </trkpt>
      <trkpt lat="44.4053" lon="3.56757">
        <ele>937</ele>
        <time>2022-05-27T11:50:31Z</time>
      </trkpt>
      <trkpt lat="44.40531" lon="3.56757">
        <ele>937</ele>
        <time>2022-05-27T11:50:32Z</time>
      </trkpt>
      <trkpt lat="44.40532" lon="3.56758">
        <ele>937</ele>
        <time>2022-05-27T11:50:33Z</time>
      </trkpt>
      <trkpt lat="44.40533" lon="3.56759">
        <ele>938</ele>
        <time>2022-05-27T11:50:34Z</time>
      </trkpt>
      <trkpt lat="44.40535" lon="3.56759">
        <ele>938</ele>
        <time>2022-05-27T11:50:35Z</time>
      </trkpt>
      <trkpt lat="44.40536" lon="3.56759">
        <ele>938</ele>
        <time>2022-05-27T11:50:36Z</time>
      </trkpt>
      <trkpt lat="44.40537" lon="3.56759">
        <ele>937</ele>
        <time>2022-05-27T11:50:37Z</time>
      </trkpt>
      <trkpt lat="44.40537" lon="3.56759">
        <ele>937</ele>
        <time>2022-05-27T11:50:38Z</time>
      </trkpt>
      <trkpt lat="44.40538" lon="3.5676">
        <ele>936</ele>
        <time>2022-05-27T11:50:39Z</time>
      </trkpt>
      <trkpt lat="44.4054" lon="3.56759">
        <ele>937</ele>
        <time>2022-05-27T11:50:40Z</time>
      </trkpt>
      <trkpt lat="44.40541" lon="3.56758">
        <ele>936</ele>
        <time>2022-05-27T11:50:41Z</time>
      </trkpt>
      <trkpt lat="44.40542" lon="3.56757">
        <ele>936</ele>
        <time>2022-05-27T11:50:42Z</time>
      </trkpt>
      <trkpt lat="44.40543" lon="3.56757">
        <ele>935</ele>
        <time>2022-05-27T11:50:43Z</time>
      </trkpt>
      <trkpt lat="44.40543" lon="3.56756">
        <ele>935</ele>
        <time>2022-05-27T11:50:44Z</time>
      </trkpt>
      <trkpt lat="44.40544" lon="3.56756">
        <ele>934</ele>
        <time>2022-05-27T11:50:45Z</time>
      </trkpt>
      <trkpt lat="44.40545" lon="3.56756">
        <ele>935</ele>
        <time>2022-05-27T11:50:46Z</time>
      </trkpt>
      <trkpt lat="44.40546" lon="3.56756">
        <ele>935</ele>
        <time>2022-05-27T11:50:47Z</time>
      </trkpt>
      <trkpt lat="44.40546" lon="3.56755">
        <ele>934</ele>
        <time>2022-05-27T11:50:48Z</time>
      </trkpt>
      <trkpt lat="44.40547" lon="3.56755">
        <ele>935</ele>
        <time>2022-05-27T11:50:49Z</time>
      </trkpt>
      <trkpt lat="44.40548" lon="3.56753">
        <ele>935</ele>
        <time>2022-05-27T11:50:50Z</time>
      </trkpt>
      <trkpt lat="44.40548" lon="3.56752">
        <ele>935</ele>
        <time>2022-05-27T11:50:51Z</time>
      </trkpt>
      <trkpt lat="44.40548" lon="3.56751">
        <ele>935</ele>
        <time>2022-05-27T11:50:52Z</time>
      </trkpt>
      <trkpt lat="44.40548" lon="3.56751">
        <ele>935</ele>
        <time>2022-05-27T11:50:53Z</time>
      </trkpt>
      <trkpt lat="44.40549" lon="3.5675">
        <ele>934</ele>
        <time>2022-05-27T11:50:54Z</time>
      </trkpt>
      <trkpt lat="44.40549" lon="3.56751">
        <ele>934</ele>
        <time>2022-05-27T11:50:55Z</time>
      </trkpt>
      <trkpt lat="44.40549" lon="3.56751">
        <ele>934</ele>
        <time>2022-05-27T11:50:56Z</time>
      </trkpt>
      <trkpt lat="44.40549" lon="3.56751">
        <ele>934</ele>
        <time>2022-05-27T11:50:56Z</time>
      </trkpt>
      <trkpt lat="44.40549" lon="3.56751">
        <ele>934</ele>
        <time>2022-05-27T11:50:56Z</time>
      </trkpt>
      <trkpt lat="44.40545" lon="3.5675">
        <ele>932</ele>
        <time>2022-05-27T11:52:54Z</time>
      </trkpt>
      <trkpt lat="44.40544" lon="3.56749">
        <ele>932</ele>
        <time>2022-05-27T11:52:55Z</time>
      </trkpt>
      <trkpt lat="44.40543" lon="3.56749">
        <ele>931</ele>
        <time>2022-05-27T11:52:56Z</time>
      </trkpt>
      <trkpt lat="44.40542" lon="3.56748">
        <ele>931</ele>
        <time>2022-05-27T11:52:57Z</time>
      </trkpt>
      <trkpt lat="44.40541" lon="3.56747">
        <ele>931</ele>
        <time>2022-05-27T11:52:58Z</time>
      </trkpt>
      <trkpt lat="44.4054" lon="3.56747">
        <ele>930</ele>
        <time>2022-05-27T11:52:59Z</time>
      </trkpt>
      <trkpt lat="44.40539" lon="3.56746">
        <ele>930</ele>
        <time>2022-05-27T11:53:00Z</time>
      </trkpt>
      <trkpt lat="44.40538" lon="3.56745">
        <ele>929</ele>
        <time>2022-05-27T11:53:01Z</time>
      </trkpt>
      <trkpt lat="44.40537" lon="3.56745">
        <ele>928</ele>
        <time>2022-05-27T11:53:02Z</time>
      </trkpt>
      <trkpt lat="44.40536" lon="3.56744">
        <ele>928</ele>
        <time>2022-05-27T11:53:03Z</time>
      </trkpt>
      <trkpt lat="44.40535" lon="3.56743">
        <ele>928</ele>
        <time>2022-05-27T11:53:04Z</time>
      </trkpt>
      <trkpt lat="44.40534" lon="3.56743">
        <ele>927</ele>
        <time>2022-05-27T11:53:05Z</time>
      </trkpt>
      <trkpt lat="44.40533" lon="3.56742">
        <ele>926</ele>
        <time>2022-05-27T11:53:06Z</time>
      </trkpt>
      <trkpt lat="44.40531" lon="3.56742">
        <ele>925</ele>
        <time>2022-05-27T11:53:07Z</time>
      </trkpt>
      <trkpt lat="44.4053" lon="3.56741">
        <ele>925</ele>
        <time>2022-05-27T11:53:08Z</time>
      </trkpt>
      <trkpt lat="44.40529" lon="3.56741">
        <ele>926</ele>
        <time>2022-05-27T11:53:09Z</time>
      </trkpt>
      <trkpt lat="44.40527" lon="3.56741">
        <ele>926</ele>
        <time>2022-05-27T11:53:10Z</time>
      </trkpt>
      <trkpt lat="44.40526" lon="3.56741">
        <ele>925</ele>
        <time>2022-05-27T11:53:11Z</time>
      </trkpt>
      <trkpt lat="44.40525" lon="3.5674">
        <ele>925</ele>
        <time>2022-05-27T11:53:12Z</time>
      </trkpt>
      <trkpt lat="44.40524" lon="3.5674">
        <ele>925</ele>
        <time>2022-05-27T11:53:13Z</time>
      </trkpt>
      <trkpt lat="44.40524" lon="3.5674">
        <ele>925</ele>
        <time>2022-05-27T11:53:14Z</time>
      </trkpt>
      <trkpt lat="44.40522" lon="3.56739">
        <ele>925</ele>
        <time>2022-05-27T11:53:15Z</time>
      </trkpt>
      <trkpt lat="44.40521" lon="3.56739">
        <ele>925</ele>
        <time>2022-05-27T11:53:16Z</time>
      </trkpt>
      <trkpt lat="44.4052" lon="3.56739">
        <ele>925</ele>
        <time>2022-05-27T11:53:17Z</time>
      </trkpt>
      <trkpt lat="44.40519" lon="3.56738">
        <ele>925</ele>
        <time>2022-05-27T11:53:18Z</time>
      </trkpt>
      <trkpt lat="44.40517" lon="3.56738">
        <ele>926</ele>
        <time>2022-05-27T11:53:19Z</time>
      </trkpt>
      <trkpt lat="44.40516" lon="3.56738">
        <ele>926</ele>
        <time>2022-05-27T11:53:20Z</time>
      </trkpt>
      <trkpt lat="44.40515" lon="3.56738">
        <ele>926</ele>
        <time>2022-05-27T11:53:21Z</time>
      </trkpt>
      <trkpt lat="44.40514" lon="3.56737">
        <ele>926</ele>
        <time>2022-05-27T11:53:22Z</time>
      </trkpt>
      <trkpt lat="44.40513" lon="3.56737">
        <ele>926</ele>
        <time>2022-05-27T11:53:23Z</time>
      </trkpt>
      <trkpt lat="44.40512" lon="3.56737">
        <ele>925</ele>
        <time>2022-05-27T11:53:24Z</time>
      </trkpt>
      <trkpt lat="44.40511" lon="3.56736">
        <ele>925</ele>
        <time>2022-05-27T11:53:25Z</time>
      </trkpt>
      <trkpt lat="44.40511" lon="3.56734">
        <ele>926</ele>
        <time>2022-05-27T11:53:26Z</time>
      </trkpt>
      <trkpt lat="44.40509" lon="3.56732">
        <ele>926</ele>
        <time>2022-05-27T11:53:27Z</time>
      </trkpt>
      <trkpt lat="44.40508" lon="3.56731">
        <ele>926</ele>
        <time>2022-05-27T11:53:28Z</time>
      </trkpt>
      <trkpt lat="44.40506" lon="3.5673">
        <ele>925</ele>
        <time>2022-05-27T11:53:29Z</time>
      </trkpt>
      <trkpt lat="44.40506" lon="3.56729">
        <ele>926</ele>
        <time>2022-05-27T11:53:30Z</time>
      </trkpt>
      <trkpt lat="44.40505" lon="3.56728">
        <ele>926</ele>
        <time>2022-05-27T11:53:31Z</time>
      </trkpt>
      <trkpt lat="44.40505" lon="3.56727">
        <ele>927</ele>
        <time>2022-05-27T11:53:32Z</time>
      </trkpt>
      <trkpt lat="44.40505" lon="3.56727">
        <ele>927</ele>
        <time>2022-05-27T11:53:33Z</time>
      </trkpt>
      <trkpt lat="44.40506" lon="3.56727">
        <ele>927</ele>
        <time>2022-05-27T11:53:34Z</time>
      </trkpt>
      <trkpt lat="44.40506" lon="3.56727">
        <ele>927</ele>
        <time>2022-05-27T11:53:35Z</time>
      </trkpt>
      <trkpt lat="44.40507" lon="3.56727">
        <ele>927</ele>
        <time>2022-05-27T11:53:36Z</time>
      </trkpt>
      <trkpt lat="44.40508" lon="3.56727">
        <ele>927</ele>
        <time>2022-05-27T11:53:37Z</time>
      </trkpt>
      <trkpt lat="44.40508" lon="3.56727">
        <ele>927</ele>
        <time>2022-05-27T11:53:38Z</time>
      </trkpt>
      <trkpt lat="44.40508" lon="3.56727">
        <ele>927</ele>
        <time>2022-05-27T11:53:39Z</time>
      </trkpt>
      <trkpt lat="44.40508" lon="3.56727">
        <ele>927</ele>
        <time>2022-05-27T11:53:40Z</time>
      </trkpt>
      <trkpt lat="44.40508" lon="3.56727">
        <ele>927</ele>
        <time>2022-05-27T11:53:41Z</time>
      </trkpt>
      <trkpt lat="44.40508" lon="3.56727">
        <ele>927</ele>
        <time>2022-05-27T11:53:42Z</time>
      </trkpt>
      <trkpt lat="44.40508" lon="3.56726">
        <ele>927</ele>
        <time>2022-05-27T11:53:43Z</time>
      </trkpt>
      <trkpt lat="44.40509" lon="3.56727">
        <ele>928</ele>
        <time>2022-05-27T11:53:44Z</time>
      </trkpt>
      <trkpt lat="44.40509" lon="3.56727">
        <ele>928</ele>
        <time>2022-05-27T11:53:45Z</time>
      </trkpt>
      <trkpt lat="44.4051" lon="3.56726">
        <ele>928</ele>
        <time>2022-05-27T11:53:46Z</time>
      </trkpt>
      <trkpt lat="44.4051" lon="3.56726">
        <ele>929</ele>
        <time>2022-05-27T11:53:47Z</time>
      </trkpt>
      <trkpt lat="44.40511" lon="3.56725">
        <ele>929</ele>
        <time>2022-05-27T11:53:48Z</time>
      </trkpt>
      <trkpt lat="44.40511" lon="3.56725">
        <ele>929</ele>
        <time>2022-05-27T11:53:49Z</time>
      </trkpt>
      <trkpt lat="44.40511" lon="3.56725">
        <ele>929</ele>
        <time>2022-05-27T11:53:50Z</time>
      </trkpt>
      <trkpt lat="44.40511" lon="3.56725">
        <ele>929</ele>
        <time>2022-05-27T11:53:51Z</time>
      </trkpt>
      <trkpt lat="44.40511" lon="3.56725">
        <ele>929</ele>
        <time>2022-05-27T11:53:52Z</time>
      </trkpt>
      <trkpt lat="44.40511" lon="3.56725">
        <ele>929</ele>
        <time>2022-05-27T11:53:53Z</time>
      </trkpt>
      <trkpt lat="44.40511" lon="3.56725">
        <ele>929</ele>
        <time>2022-05-27T11:53:53Z</time>
      </trkpt>
      <trkpt lat="44.40511" lon="3.56725">
        <ele>929</ele>
        <time>2022-05-27T11:53:53Z</time>
      </trkpt>
      <trkpt lat="44.40516" lon="3.56726">
        <ele>928</ele>
        <time>2022-05-27T11:54:00Z</time>
      </trkpt>
      <trkpt lat="44.40517" lon="3.56727">
        <ele>928</ele>
        <time>2022-05-27T11:54:01Z</time>
      </trkpt>
      <trkpt lat="44.40519" lon="3.56727">
        <ele>927</ele>
        <time>2022-05-27T11:54:02Z</time>
      </trkpt>
      <trkpt lat="44.4052" lon="3.56728">
        <ele>927</ele>
        <time>2022-05-27T11:54:03Z</time>
      </trkpt>
      <trkpt lat="44.40521" lon="3.56728">
        <ele>927</ele>
        <time>2022-05-27T11:54:04Z</time>
      </trkpt>
      <trkpt lat="44.40522" lon="3.56728">
        <ele>927</ele>
        <time>2022-05-27T11:54:05Z</time>
      </trkpt>
      <trkpt lat="44.40523" lon="3.56728">
        <ele>927</ele>
        <time>2022-05-27T11:54:06Z</time>
      </trkpt>
      <trkpt lat="44.40524" lon="3.56728">
        <ele>927</ele>
        <time>2022-05-27T11:54:07Z</time>
      </trkpt>
      <trkpt lat="44.40525" lon="3.56728">
        <ele>928</ele>
        <time>2022-05-27T11:54:08Z</time>
      </trkpt>
      <trkpt lat="44.40526" lon="3.5673">
        <ele>928</ele>
        <time>2022-05-27T11:54:09Z</time>
      </trkpt>
      <trkpt lat="44.40526" lon="3.5673">
        <ele>928</ele>
        <time>2022-05-27T11:54:10Z</time>
      </trkpt>
      <trkpt lat="44.40527" lon="3.5673">
        <ele>928</ele>
        <time>2022-05-27T11:54:11Z</time>
      </trkpt>
      <trkpt lat="44.40527" lon="3.56729">
        <ele>927</ele>
        <time>2022-05-27T11:54:12Z</time>
      </trkpt>
      <trkpt lat="44.40527" lon="3.56729">
        <ele>927</ele>
        <time>2022-05-27T11:54:13Z</time>
      </trkpt>
      <trkpt lat="44.40526" lon="3.56728">
        <ele>927</ele>
        <time>2022-05-27T11:54:14Z</time>
      </trkpt>
      <trkpt lat="44.40526" lon="3.56726">
        <ele>926</ele>
        <time>2022-05-27T11:54:15Z</time>
      </trkpt>
      <trkpt lat="44.40525" lon="3.56725">
        <ele>926</ele>
        <time>2022-05-27T11:54:16Z</time>
      </trkpt>
      <trkpt lat="44.40525" lon="3.56724">
        <ele>926</ele>
        <time>2022-05-27T11:54:17Z</time>
      </trkpt>
      <trkpt lat="44.40524" lon="3.56723">
        <ele>926</ele>
        <time>2022-05-27T11:54:18Z</time>
      </trkpt>
      <trkpt lat="44.40524" lon="3.56722">
        <ele>925</ele>
        <time>2022-05-27T11:54:19Z</time>
      </trkpt>
      <trkpt lat="44.40524" lon="3.56721">
        <ele>925</ele>
        <time>2022-05-27T11:54:20Z</time>
      </trkpt>
      <trkpt lat="44.40523" lon="3.5672">
        <ele>924</ele>
        <time>2022-05-27T11:54:21Z</time>
      </trkpt>
      <trkpt lat="44.40523" lon="3.56719">
        <ele>924</ele>
        <time>2022-05-27T11:54:22Z</time>
      </trkpt>
      <trkpt lat="44.40522" lon="3.56718">
        <ele>924</ele>
        <time>2022-05-27T11:54:23Z</time>
      </trkpt>
      <trkpt lat="44.40522" lon="3.56717">
        <ele>924</ele>
        <time>2022-05-27T11:54:24Z</time>
      </trkpt>
      <trkpt lat="44.40521" lon="3.56716">
        <ele>923</ele>
        <time>2022-05-27T11:54:25Z</time>
      </trkpt>
      <trkpt lat="44.40521" lon="3.56716">
        <ele>922</ele>
        <time>2022-05-27T11:54:26Z</time>
      </trkpt>
      <trkpt lat="44.4052" lon="3.56716">
        <ele>922</ele>
        <time>2022-05-27T11:54:27Z</time>
      </trkpt>
      <trkpt lat="44.4052" lon="3.56716">
        <ele>922</ele>
        <time>2022-05-27T11:54:28Z</time>
      </trkpt>
      <trkpt lat="44.4052" lon="3.56716">
        <ele>922</ele>
        <time>2022-05-27T11:54:29Z</time>
      </trkpt>
      <trkpt lat="44.40518" lon="3.56713">
        <ele>921</ele>
        <time>2022-05-27T11:54:30Z</time>
      </trkpt>
      <trkpt lat="44.40518" lon="3.56712">
        <ele>921</ele>
        <time>2022-05-27T11:54:31Z</time>
      </trkpt>
      <trkpt lat="44.40517" lon="3.56712">
        <ele>920</ele>
        <time>2022-05-27T11:54:32Z</time>
      </trkpt>
      <trkpt lat="44.40516" lon="3.56712">
        <ele>920</ele>
        <time>2022-05-27T11:54:33Z</time>
      </trkpt>
      <trkpt lat="44.40516" lon="3.56711">
        <ele>919</ele>
        <time>2022-05-27T11:54:34Z</time>
      </trkpt>
      <trkpt lat="44.40514" lon="3.5671">
        <ele>919</ele>
        <time>2022-05-27T11:54:35Z</time>
      </trkpt>
      <trkpt lat="44.40513" lon="3.56709">
        <ele>919</ele>
        <time>2022-05-27T11:54:36Z</time>
      </trkpt>
      <trkpt lat="44.40512" lon="3.56707">
        <ele>918</ele>
        <time>2022-05-27T11:54:37Z</time>
      </trkpt>
      <trkpt lat="44.40511" lon="3.56706">
        <ele>918</ele>
        <time>2022-05-27T11:54:38Z</time>
      </trkpt>
      <trkpt lat="44.40511" lon="3.56705">
        <ele>918</ele>
        <time>2022-05-27T11:54:39Z</time>
      </trkpt>
      <trkpt lat="44.4051" lon="3.56704">
        <ele>918</ele>
        <time>2022-05-27T11:54:40Z</time>
      </trkpt>
      <trkpt lat="44.40509" lon="3.56703">
        <ele>919</ele>
        <time>2022-05-27T11:54:41Z</time>
      </trkpt>
      <trkpt lat="44.40508" lon="3.56703">
        <ele>919</ele>
        <time>2022-05-27T11:54:42Z</time>
      </trkpt>
      <trkpt lat="44.40507" lon="3.56702">
        <ele>919</ele>
        <time>2022-05-27T11:54:43Z</time>
      </trkpt>
      <trkpt lat="44.40506" lon="3.56702">
        <ele>919</ele>
        <time>2022-05-27T11:54:45Z</time>
      </trkpt>
      <trkpt lat="44.40506" lon="3.56701">
        <ele>918</ele>
        <time>2022-05-27T11:54:45Z</time>
      </trkpt>
      <trkpt lat="44.40505" lon="3.56701">
        <ele>918</ele>
        <time>2022-05-27T11:54:46Z</time>
      </trkpt>
      <trkpt lat="44.40503" lon="3.56699">
        <ele>917</ele>
        <time>2022-05-27T11:54:47Z</time>
      </trkpt>
      <trkpt lat="44.40502" lon="3.56699">
        <ele>917</ele>
        <time>2022-05-27T11:54:48Z</time>
      </trkpt>
      <trkpt lat="44.40501" lon="3.56699">
        <ele>916</ele>
        <time>2022-05-27T11:54:50Z</time>
      </trkpt>
      <trkpt lat="44.405" lon="3.56698">
        <ele>915</ele>
        <time>2022-05-27T11:54:51Z</time>
      </trkpt>
      <trkpt lat="44.40499" lon="3.56697">
        <ele>915</ele>
        <time>2022-05-27T11:54:52Z</time>
      </trkpt>
      <trkpt lat="44.40497" lon="3.56696">
        <ele>915</ele>
        <time>2022-05-27T11:54:53Z</time>
      </trkpt>
      <trkpt lat="44.40495" lon="3.56696">
        <ele>915</ele>
        <time>2022-05-27T11:54:54Z</time>
      </trkpt>
      <trkpt lat="44.40494" lon="3.56695">
        <ele>915</ele>
        <time>2022-05-27T11:54:55Z</time>
      </trkpt>
      <trkpt lat="44.40493" lon="3.56694">
        <ele>914</ele>
        <time>2022-05-27T11:54:56Z</time>
      </trkpt>
      <trkpt lat="44.40491" lon="3.56694">
        <ele>914</ele>
        <time>2022-05-27T11:54:57Z</time>
      </trkpt>
      <trkpt lat="44.4049" lon="3.56692">
        <ele>913</ele>
        <time>2022-05-27T11:54:58Z</time>
      </trkpt>
      <trkpt lat="44.40489" lon="3.56691">
        <ele>912</ele>
        <time>2022-05-27T11:54:59Z</time>
      </trkpt>
      <trkpt lat="44.40488" lon="3.5669">
        <ele>913</ele>
        <time>2022-05-27T11:55:00Z</time>
      </trkpt>
      <trkpt lat="44.40488" lon="3.56689">
        <ele>912</ele>
        <time>2022-05-27T11:55:01Z</time>
      </trkpt>
      <trkpt lat="44.40487" lon="3.56688">
        <ele>911</ele>
        <time>2022-05-27T11:55:02Z</time>
      </trkpt>
      <trkpt lat="44.40486" lon="3.56687">
        <ele>911</ele>
        <time>2022-05-27T11:55:03Z</time>
      </trkpt>
      <trkpt lat="44.40485" lon="3.56687">
        <ele>911</ele>
        <time>2022-05-27T11:55:04Z</time>
      </trkpt>
      <trkpt lat="44.40484" lon="3.56686">
        <ele>910</ele>
        <time>2022-05-27T11:55:05Z</time>
      </trkpt>
      <trkpt lat="44.40482" lon="3.56685">
        <ele>909</ele>
        <time>2022-05-27T11:55:06Z</time>
      </trkpt>
      <trkpt lat="44.40482" lon="3.56685">
        <ele>909</ele>
        <time>2022-05-27T11:55:07Z</time>
      </trkpt>
      <trkpt lat="44.4048" lon="3.56684">
        <ele>908</ele>
        <time>2022-05-27T11:55:08Z</time>
      </trkpt>
      <trkpt lat="44.40479" lon="3.56684">
        <ele>908</ele>
        <time>2022-05-27T11:55:09Z</time>
      </trkpt>
      <trkpt lat="44.40478" lon="3.56683">
        <ele>908</ele>
        <time>2022-05-27T11:55:10Z</time>
      </trkpt>
      <trkpt lat="44.40476" lon="3.56683">
        <ele>908</ele>
        <time>2022-05-27T11:55:11Z</time>
      </trkpt>
      <trkpt lat="44.40475" lon="3.56682">
        <ele>908</ele>
        <time>2022-05-27T11:55:12Z</time>
      </trkpt>
      <trkpt lat="44.40473" lon="3.56682">
        <ele>907</ele>
        <time>2022-05-27T11:55:13Z</time>
      </trkpt>
      <trkpt lat="44.40472" lon="3.56682">
        <ele>907</ele>
        <time>2022-05-27T11:55:14Z</time>
      </trkpt>
      <trkpt lat="44.40472" lon="3.56681">
        <ele>908</ele>
        <time>2022-05-27T11:55:15Z</time>
      </trkpt>
      <trkpt lat="44.40471" lon="3.56681">
        <ele>907</ele>
        <time>2022-05-27T11:55:16Z</time>
      </trkpt>
      <trkpt lat="44.40471" lon="3.5668">
        <ele>907</ele>
        <time>2022-05-27T11:55:17Z</time>
      </trkpt>
      <trkpt lat="44.40469" lon="3.5668">
        <ele>906</ele>
        <time>2022-05-27T11:55:18Z</time>
      </trkpt>
      <trkpt lat="44.40468" lon="3.56679">
        <ele>906</ele>
        <time>2022-05-27T11:55:19Z</time>
      </trkpt>
      <trkpt lat="44.40468" lon="3.56679">
        <ele>906</ele>
        <time>2022-05-27T11:55:20Z</time>
      </trkpt>
      <trkpt lat="44.40467" lon="3.56679">
        <ele>906</ele>
        <time>2022-05-27T11:55:21Z</time>
      </trkpt>
      <trkpt lat="44.40467" lon="3.56679">
        <ele>906</ele>
        <time>2022-05-27T11:55:22Z</time>
      </trkpt>
      <trkpt lat="44.40465" lon="3.56678">
        <ele>906</ele>
        <time>2022-05-27T11:55:23Z</time>
      </trkpt>
      <trkpt lat="44.40464" lon="3.56678">
        <ele>906</ele>
        <time>2022-05-27T11:55:24Z</time>
      </trkpt>
      <trkpt lat="44.40463" lon="3.56677">
        <ele>906</ele>
        <time>2022-05-27T11:55:25Z</time>
      </trkpt>
      <trkpt lat="44.40462" lon="3.56676">
        <ele>905</ele>
        <time>2022-05-27T11:55:26Z</time>
      </trkpt>
      <trkpt lat="44.40461" lon="3.56675">
        <ele>905</ele>
        <time>2022-05-27T11:55:27Z</time>
      </trkpt>
      <trkpt lat="44.4046" lon="3.56675">
        <ele>905</ele>
        <time>2022-05-27T11:55:28Z</time>
      </trkpt>
      <trkpt lat="44.40459" lon="3.56674">
        <ele>905</ele>
        <time>2022-05-27T11:55:29Z</time>
      </trkpt>
      <trkpt lat="44.40458" lon="3.56674">
        <ele>905</ele>
        <time>2022-05-27T11:55:30Z</time>
      </trkpt>
      <trkpt lat="44.40457" lon="3.56675">
        <ele>905</ele>
        <time>2022-05-27T11:55:31Z</time>
      </trkpt>
      <trkpt lat="44.40456" lon="3.56674">
        <ele>904</ele>
        <time>2022-05-27T11:55:32Z</time>
      </trkpt>
      <trkpt lat="44.40455" lon="3.56674">
        <ele>904</ele>
        <time>2022-05-27T11:55:33Z</time>
      </trkpt>
      <trkpt lat="44.40454" lon="3.56674">
        <ele>904</ele>
        <time>2022-05-27T11:55:34Z</time>
      </trkpt>
      <trkpt lat="44.40453" lon="3.56674">
        <ele>904</ele>
        <time>2022-05-27T11:55:35Z</time>
      </trkpt>
      <trkpt lat="44.40452" lon="3.56674">
        <ele>904</ele>
        <time>2022-05-27T11:55:36Z</time>
      </trkpt>
      <trkpt lat="44.40451" lon="3.56674">
        <ele>904</ele>
        <time>2022-05-27T11:55:37Z</time>
      </trkpt>
      <trkpt lat="44.4045" lon="3.56673">
        <ele>902</ele>
        <time>2022-05-27T11:55:38Z</time>
      </trkpt>
      <trkpt lat="44.40449" lon="3.56673">
        <ele>902</ele>
        <time>2022-05-27T11:55:39Z</time>
      </trkpt>
      <trkpt lat="44.40449" lon="3.56672">
        <ele>902</ele>
        <time>2022-05-27T11:55:40Z</time>
      </trkpt>
      <trkpt lat="44.40449" lon="3.56672">
        <ele>902</ele>
        <time>2022-05-27T11:55:41Z</time>
      </trkpt>
      <trkpt lat="44.4045" lon="3.5667">
        <ele>902</ele>
        <time>2022-05-27T11:55:42Z</time>
      </trkpt>
      <trkpt lat="44.40451" lon="3.56669">
        <ele>903</ele>
        <time>2022-05-27T11:55:43Z</time>
      </trkpt>
      <trkpt lat="44.40451" lon="3.56668">
        <ele>903</ele>
        <time>2022-05-27T11:55:44Z</time>
      </trkpt>
      <trkpt lat="44.40453" lon="3.56667">
        <ele>903</ele>
        <time>2022-05-27T11:55:45Z</time>
      </trkpt>
      <trkpt lat="44.40454" lon="3.56667">
        <ele>903</ele>
        <time>2022-05-27T11:55:46Z</time>
      </trkpt>
      <trkpt lat="44.40455" lon="3.56666">
        <ele>903</ele>
        <time>2022-05-27T11:55:47Z</time>
      </trkpt>
      <trkpt lat="44.40456" lon="3.56665">
        <ele>902</ele>
        <time>2022-05-27T11:55:48Z</time>
      </trkpt>
      <trkpt lat="44.40456" lon="3.56664">
        <ele>902</ele>
        <time>2022-05-27T11:55:49Z</time>
      </trkpt>
      <trkpt lat="44.40457" lon="3.56663">
        <ele>902</ele>
        <time>2022-05-27T11:55:50Z</time>
      </trkpt>
      <trkpt lat="44.40458" lon="3.56662">
        <ele>903</ele>
        <time>2022-05-27T11:55:51Z</time>
      </trkpt>
      <trkpt lat="44.40459" lon="3.56661">
        <ele>903</ele>
        <time>2022-05-27T11:55:52Z</time>
      </trkpt>
      <trkpt lat="44.4046" lon="3.56661">
        <ele>903</ele>
        <time>2022-05-27T11:55:53Z</time>
      </trkpt>
      <trkpt lat="44.40461" lon="3.5666">
        <ele>903</ele>
        <time>2022-05-27T11:55:54Z</time>
      </trkpt>
      <trkpt lat="44.40462" lon="3.5666">
        <ele>903</ele>
        <time>2022-05-27T11:55:55Z</time>
      </trkpt>
      <trkpt lat="44.40462" lon="3.56659">
        <ele>903</ele>
        <time>2022-05-27T11:55:56Z</time>
      </trkpt>
      <trkpt lat="44.40463" lon="3.56658">
        <ele>902</ele>
        <time>2022-05-27T11:55:57Z</time>
      </trkpt>
      <trkpt lat="44.40464" lon="3.56658">
        <ele>902</ele>
        <time>2022-05-27T11:55:58Z</time>
      </trkpt>
      <trkpt lat="44.40465" lon="3.56657">
        <ele>903</ele>
        <time>2022-05-27T11:55:59Z</time>
      </trkpt>
      <trkpt lat="44.40466" lon="3.56657">
        <ele>903</ele>
        <time>2022-05-27T11:56:00Z</time>
      </trkpt>
      <trkpt lat="44.40466" lon="3.56656">
        <ele>903</ele>
        <time>2022-05-27T11:56:01Z</time>
      </trkpt>
      <trkpt lat="44.40467" lon="3.56656">
        <ele>903</ele>
        <time>2022-05-27T11:56:02Z</time>
      </trkpt>
      <trkpt lat="44.40468" lon="3.56656">
        <ele>904</ele>
        <time>2022-05-27T11:56:03Z</time>
      </trkpt>
      <trkpt lat="44.40469" lon="3.56656">
        <ele>904</ele>
        <time>2022-05-27T11:56:04Z</time>
      </trkpt>
      <trkpt lat="44.40469" lon="3.56655">
        <ele>905</ele>
        <time>2022-05-27T11:56:05Z</time>
      </trkpt>
      <trkpt lat="44.4047" lon="3.56655">
        <ele>904</ele>
        <time>2022-05-27T11:56:06Z</time>
      </trkpt>
      <trkpt lat="44.40471" lon="3.56655">
        <ele>905</ele>
        <time>2022-05-27T11:56:07Z</time>
      </trkpt>
      <trkpt lat="44.40473" lon="3.56654">
        <ele>905</ele>
        <time>2022-05-27T11:56:08Z</time>
      </trkpt>
      <trkpt lat="44.40474" lon="3.56653">
        <ele>905</ele>
        <time>2022-05-27T11:56:09Z</time>
      </trkpt>
      <trkpt lat="44.40476" lon="3.56654">
        <ele>906</ele>
        <time>2022-05-27T11:56:10Z</time>
      </trkpt>
      <trkpt lat="44.40477" lon="3.56653">
        <ele>906</ele>
        <time>2022-05-27T11:56:11Z</time>
      </trkpt>
      <trkpt lat="44.40479" lon="3.56653">
        <ele>906</ele>
        <time>2022-05-27T11:56:12Z</time>
      </trkpt>
      <trkpt lat="44.4048" lon="3.56653">
        <ele>907</ele>
        <time>2022-05-27T11:56:13Z</time>
      </trkpt>
      <trkpt lat="44.40481" lon="3.56652">
        <ele>906</ele>
        <time>2022-05-27T11:56:14Z</time>
      </trkpt>
      <trkpt lat="44.40482" lon="3.56652">
        <ele>906</ele>
        <time>2022-05-27T11:56:15Z</time>
      </trkpt>
      <trkpt lat="44.40483" lon="3.56652">
        <ele>906</ele>
        <time>2022-05-27T11:56:16Z</time>
      </trkpt>
      <trkpt lat="44.40484" lon="3.56652">
        <ele>906</ele>
        <time>2022-05-27T11:56:17Z</time>
      </trkpt>
      <trkpt lat="44.40485" lon="3.56652">
        <ele>906</ele>
        <time>2022-05-27T11:56:18Z</time>
      </trkpt>
      <trkpt lat="44.40487" lon="3.56651">
        <ele>905</ele>
        <time>2022-05-27T11:56:19Z</time>
      </trkpt>
      <trkpt lat="44.40488" lon="3.56651">
        <ele>905</ele>
        <time>2022-05-27T11:56:20Z</time>
      </trkpt>
      <trkpt lat="44.40489" lon="3.5665">
        <ele>905</ele>
        <time>2022-05-27T11:56:21Z</time>
      </trkpt>
      <trkpt lat="44.4049" lon="3.56649">
        <ele>905</ele>
        <time>2022-05-27T11:56:22Z</time>
      </trkpt>
      <trkpt lat="44.40492" lon="3.56649">
        <ele>904</ele>
        <time>2022-05-27T11:56:23Z</time>
      </trkpt>
      <trkpt lat="44.40493" lon="3.56648">
        <ele>904</ele>
        <time>2022-05-27T11:56:24Z</time>
      </trkpt>
      <trkpt lat="44.40495" lon="3.56648">
        <ele>905</ele>
        <time>2022-05-27T11:56:25Z</time>
      </trkpt>
      <trkpt lat="44.40496" lon="3.56647">
        <ele>905</ele>
        <time>2022-05-27T11:56:26Z</time>
      </trkpt>
      <trkpt lat="44.40496" lon="3.56647">
        <ele>905</ele>
        <time>2022-05-27T11:56:27Z</time>
      </trkpt>
      <trkpt lat="44.40498" lon="3.56647">
        <ele>905</ele>
        <time>2022-05-27T11:56:28Z</time>
      </trkpt>
      <trkpt lat="44.40499" lon="3.56647">
        <ele>905</ele>
        <time>2022-05-27T11:56:29Z</time>
      </trkpt>
      <trkpt lat="44.405" lon="3.56647">
        <ele>905</ele>
        <time>2022-05-27T11:56:30Z</time>
      </trkpt>
      <trkpt lat="44.405" lon="3.56646">
        <ele>904</ele>
        <time>2022-05-27T11:56:31Z</time>
      </trkpt>
      <trkpt lat="44.40501" lon="3.56645">
        <ele>905</ele>
        <time>2022-05-27T11:56:32Z</time>
      </trkpt>
      <trkpt lat="44.40501" lon="3.56644">
        <ele>905</ele>
        <time>2022-05-27T11:56:33Z</time>
      </trkpt>
      <trkpt lat="44.40501" lon="3.56643">
        <ele>904</ele>
        <time>2022-05-27T11:56:34Z</time>
      </trkpt>
      <trkpt lat="44.405" lon="3.56643">
        <ele>904</ele>
        <time>2022-05-27T11:56:35Z</time>
      </trkpt>
      <trkpt lat="44.405" lon="3.56643">
        <ele>904</ele>
        <time>2022-05-27T11:56:36Z</time>
      </trkpt>
      <trkpt lat="44.405" lon="3.56643">
        <ele>904</ele>
        <time>2022-05-27T11:56:37Z</time>
      </trkpt>
      <trkpt lat="44.405" lon="3.56642">
        <ele>902</ele>
        <time>2022-05-27T11:56:38Z</time>
      </trkpt>
      <trkpt lat="44.405" lon="3.56642">
        <ele>901</ele>
        <time>2022-05-27T11:56:39Z</time>
      </trkpt>
      <trkpt lat="44.40499" lon="3.56642">
        <ele>900</ele>
        <time>2022-05-27T11:56:40Z</time>
      </trkpt>
      <trkpt lat="44.40499" lon="3.56641">
        <ele>900</ele>
        <time>2022-05-27T11:56:41Z</time>
      </trkpt>
      <trkpt lat="44.40499" lon="3.56641">
        <ele>899</ele>
        <time>2022-05-27T11:56:42Z</time>
      </trkpt>
      <trkpt lat="44.40498" lon="3.56641">
        <ele>899</ele>
        <time>2022-05-27T11:56:43Z</time>
      </trkpt>
      <trkpt lat="44.40498" lon="3.56641">
        <ele>898</ele>
        <time>2022-05-27T11:56:44Z</time>
      </trkpt>
      <trkpt lat="44.40497" lon="3.5664">
        <ele>898</ele>
        <time>2022-05-27T11:56:45Z</time>
      </trkpt>
      <trkpt lat="44.40497" lon="3.5664">
        <ele>898</ele>
        <time>2022-05-27T11:56:46Z</time>
      </trkpt>
      <trkpt lat="44.40497" lon="3.5664">
        <ele>898</ele>
        <time>2022-05-27T11:56:47Z</time>
      </trkpt>
      <trkpt lat="44.40497" lon="3.5664">
        <ele>898</ele>
        <time>2022-05-27T11:56:48Z</time>
      </trkpt>
      <trkpt lat="44.40496" lon="3.56638">
        <ele>896</ele>
        <time>2022-05-27T11:56:49Z</time>
      </trkpt>
      <trkpt lat="44.40495" lon="3.56637">
        <ele>896</ele>
        <time>2022-05-27T11:56:50Z</time>
      </trkpt>
      <trkpt lat="44.40495" lon="3.56636">
        <ele>896</ele>
        <time>2022-05-27T11:56:51Z</time>
      </trkpt>
      <trkpt lat="44.40494" lon="3.56636">
        <ele>896</ele>
        <time>2022-05-27T11:56:52Z</time>
      </trkpt>
      <trkpt lat="44.40494" lon="3.56636">
        <ele>896</ele>
        <time>2022-05-27T11:56:53Z</time>
      </trkpt>
      <trkpt lat="44.40494" lon="3.56636">
        <ele>896</ele>
        <time>2022-05-27T11:56:54Z</time>
      </trkpt>
      <trkpt lat="44.40493" lon="3.56634">
        <ele>894</ele>
        <time>2022-05-27T11:56:55Z</time>
      </trkpt>
      <trkpt lat="44.40492" lon="3.56634">
        <ele>894</ele>
        <time>2022-05-27T11:56:56Z</time>
      </trkpt>
      <trkpt lat="44.40491" lon="3.56633">
        <ele>894</ele>
        <time>2022-05-27T11:56:57Z</time>
      </trkpt>
      <trkpt lat="44.4049" lon="3.56633">
        <ele>895</ele>
        <time>2022-05-27T11:56:58Z</time>
      </trkpt>
      <trkpt lat="44.4049" lon="3.56633">
        <ele>895</ele>
        <time>2022-05-27T11:56:59Z</time>
      </trkpt>
      <trkpt lat="44.4049" lon="3.56633">
        <ele>895</ele>
        <time>2022-05-27T11:57:00Z</time>
      </trkpt>
      <trkpt lat="44.40488" lon="3.56632">
        <ele>894</ele>
        <time>2022-05-27T11:57:01Z</time>
      </trkpt>
      <trkpt lat="44.40487" lon="3.56632">
        <ele>893</ele>
        <time>2022-05-27T11:57:02Z</time>
      </trkpt>
      <trkpt lat="44.40486" lon="3.56631">
        <ele>893</ele>
        <time>2022-05-27T11:57:03Z</time>
      </trkpt>
      <trkpt lat="44.40485" lon="3.5663">
        <ele>893</ele>
        <time>2022-05-27T11:57:04Z</time>
      </trkpt>
      <trkpt lat="44.40485" lon="3.56629">
        <ele>892</ele>
        <time>2022-05-27T11:57:05Z</time>
      </trkpt>
      <trkpt lat="44.40484" lon="3.56628">
        <ele>892</ele>
        <time>2022-05-27T11:57:06Z</time>
      </trkpt>
      <trkpt lat="44.40483" lon="3.56627">
        <ele>891</ele>
        <time>2022-05-27T11:57:07Z</time>
      </trkpt>
      <trkpt lat="44.40482" lon="3.56627">
        <ele>891</ele>
        <time>2022-05-27T11:57:08Z</time>
      </trkpt>
      <trkpt lat="44.40481" lon="3.56626">
        <ele>891</ele>
        <time>2022-05-27T11:57:10Z</time>
      </trkpt>
      <trkpt lat="44.40481" lon="3.56626">
        <ele>891</ele>
        <time>2022-05-27T11:57:10Z</time>
      </trkpt>
      <trkpt lat="44.4048" lon="3.56626">
        <ele>891</ele>
        <time>2022-05-27T11:57:11Z</time>
      </trkpt>
      <trkpt lat="44.40478" lon="3.56624">
        <ele>889</ele>
        <time>2022-05-27T11:57:13Z</time>
      </trkpt>
      <trkpt lat="44.40477" lon="3.56624">
        <ele>889</ele>
        <time>2022-05-27T11:57:14Z</time>
      </trkpt>
      <trkpt lat="44.40476" lon="3.56623">
        <ele>888</ele>
        <time>2022-05-27T11:57:15Z</time>
      </trkpt>
      <trkpt lat="44.40476" lon="3.56623">
        <ele>888</ele>
        <time>2022-05-27T11:57:15Z</time>
      </trkpt>
      <trkpt lat="44.40474" lon="3.56622">
        <ele>887</ele>
        <time>2022-05-27T11:57:17Z</time>
      </trkpt>
      <trkpt lat="44.40473" lon="3.56621">
        <ele>888</ele>
        <time>2022-05-27T11:57:18Z</time>
      </trkpt>
      <trkpt lat="44.40472" lon="3.5662">
        <ele>888</ele>
        <time>2022-05-27T11:57:19Z</time>
      </trkpt>
      <trkpt lat="44.40471" lon="3.56618">
        <ele>888</ele>
        <time>2022-05-27T11:57:20Z</time>
      </trkpt>
      <trkpt lat="44.40471" lon="3.56617">
        <ele>887</ele>
        <time>2022-05-27T11:57:21Z</time>
      </trkpt>
      <trkpt lat="44.4047" lon="3.56616">
        <ele>887</ele>
        <time>2022-05-27T11:57:22Z</time>
      </trkpt>
      <trkpt lat="44.40469" lon="3.56615">
        <ele>886</ele>
        <time>2022-05-27T11:57:23Z</time>
      </trkpt>
      <trkpt lat="44.40468" lon="3.56614">
        <ele>886</ele>
        <time>2022-05-27T11:57:24Z</time>
      </trkpt>
      <trkpt lat="44.40467" lon="3.56613">
        <ele>885</ele>
        <time>2022-05-27T11:57:25Z</time>
      </trkpt>
      <trkpt lat="44.40466" lon="3.56612">
        <ele>884</ele>
        <time>2022-05-27T11:57:26Z</time>
      </trkpt>
      <trkpt lat="44.40465" lon="3.56611">
        <ele>884</ele>
        <time>2022-05-27T11:57:27Z</time>
      </trkpt>
      <trkpt lat="44.40465" lon="3.5661">
        <ele>883</ele>
        <time>2022-05-27T11:57:28Z</time>
      </trkpt>
      <trkpt lat="44.40463" lon="3.56609">
        <ele>883</ele>
        <time>2022-05-27T11:57:29Z</time>
      </trkpt>
      <trkpt lat="44.40462" lon="3.56608">
        <ele>883</ele>
        <time>2022-05-27T11:57:30Z</time>
      </trkpt>
      <trkpt lat="44.40461" lon="3.56607">
        <ele>883</ele>
        <time>2022-05-27T11:57:31Z</time>
      </trkpt>
      <trkpt lat="44.40461" lon="3.56607">
        <ele>882</ele>
        <time>2022-05-27T11:57:32Z</time>
      </trkpt>
      <trkpt lat="44.4046" lon="3.56607">
        <ele>881</ele>
        <time>2022-05-27T11:57:33Z</time>
      </trkpt>
      <trkpt lat="44.40459" lon="3.56608">
        <ele>880</ele>
        <time>2022-05-27T11:57:34Z</time>
      </trkpt>
      <trkpt lat="44.40458" lon="3.56608">
        <ele>880</ele>
        <time>2022-05-27T11:57:35Z</time>
      </trkpt>
      <trkpt lat="44.40457" lon="3.56607">
        <ele>880</ele>
        <time>2022-05-27T11:57:36Z</time>
      </trkpt>
      <trkpt lat="44.40456" lon="3.56606">
        <ele>880</ele>
        <time>2022-05-27T11:57:37Z</time>
      </trkpt>
      <trkpt lat="44.40456" lon="3.56605">
        <ele>880</ele>
        <time>2022-05-27T11:57:38Z</time>
      </trkpt>
      <trkpt lat="44.40455" lon="3.56605">
        <ele>879</ele>
        <time>2022-05-27T11:57:39Z</time>
      </trkpt>
      <trkpt lat="44.40454" lon="3.56604">
        <ele>878</ele>
        <time>2022-05-27T11:57:40Z</time>
      </trkpt>
      <trkpt lat="44.40453" lon="3.56603">
        <ele>878</ele>
        <time>2022-05-27T11:57:41Z</time>
      </trkpt>
      <trkpt lat="44.40452" lon="3.56603">
        <ele>877</ele>
        <time>2022-05-27T11:57:42Z</time>
      </trkpt>
      <trkpt lat="44.40451" lon="3.56603">
        <ele>877</ele>
        <time>2022-05-27T11:57:43Z</time>
      </trkpt>
      <trkpt lat="44.4045" lon="3.56603">
        <ele>877</ele>
        <time>2022-05-27T11:57:44Z</time>
      </trkpt>
      <trkpt lat="44.40449" lon="3.56604">
        <ele>877</ele>
        <time>2022-05-27T11:57:45Z</time>
      </trkpt>
      <trkpt lat="44.40447" lon="3.56604">
        <ele>876</ele>
        <time>2022-05-27T11:57:46Z</time>
      </trkpt>
      <trkpt lat="44.40446" lon="3.56604">
        <ele>875</ele>
        <time>2022-05-27T11:57:47Z</time>
      </trkpt>
      <trkpt lat="44.40444" lon="3.56604">
        <ele>875</ele>
        <time>2022-05-27T11:57:48Z</time>
      </trkpt>
      <trkpt lat="44.40443" lon="3.56603">
        <ele>876</ele>
        <time>2022-05-27T11:57:49Z</time>
      </trkpt>
      <trkpt lat="44.40443" lon="3.56603">
        <ele>875</ele>
        <time>2022-05-27T11:57:50Z</time>
      </trkpt>
      <trkpt lat="44.40442" lon="3.56603">
        <ele>876</ele>
        <time>2022-05-27T11:57:51Z</time>
      </trkpt>
      <trkpt lat="44.40441" lon="3.56603">
        <ele>877</ele>
        <time>2022-05-27T11:57:52Z</time>
      </trkpt>
      <trkpt lat="44.4044" lon="3.56603">
        <ele>876</ele>
        <time>2022-05-27T11:57:53Z</time>
      </trkpt>
      <trkpt lat="44.40439" lon="3.56602">
        <ele>876</ele>
        <time>2022-05-27T11:57:54Z</time>
      </trkpt>
      <trkpt lat="44.40438" lon="3.56602">
        <ele>876</ele>
        <time>2022-05-27T11:57:55Z</time>
      </trkpt>
      <trkpt lat="44.40437" lon="3.56602">
        <ele>876</ele>
        <time>2022-05-27T11:57:56Z</time>
      </trkpt>
      <trkpt lat="44.40437" lon="3.56602">
        <ele>876</ele>
        <time>2022-05-27T11:57:56Z</time>
      </trkpt>
      <trkpt lat="44.40436" lon="3.56602">
        <ele>876</ele>
        <time>2022-05-27T11:57:58Z</time>
      </trkpt>
      <trkpt lat="44.40436" lon="3.56602">
        <ele>876</ele>
        <time>2022-05-27T11:57:58Z</time>
      </trkpt>
      <trkpt lat="44.40434" lon="3.566">
        <ele>877</ele>
        <time>2022-05-27T11:58:00Z</time>
      </trkpt>
      <trkpt lat="44.40435" lon="3.56599">
        <ele>877</ele>
        <time>2022-05-27T11:58:01Z</time>
      </trkpt>
      <trkpt lat="44.40434" lon="3.56599">
        <ele>877</ele>
        <time>2022-05-27T11:58:02Z</time>
      </trkpt>
      <trkpt lat="44.40434" lon="3.56598">
        <ele>877</ele>
        <time>2022-05-27T11:58:03Z</time>
      </trkpt>
      <trkpt lat="44.40435" lon="3.56598">
        <ele>877</ele>
        <time>2022-05-27T11:58:04Z</time>
      </trkpt>
      <trkpt lat="44.40435" lon="3.56597">
        <ele>877</ele>
        <time>2022-05-27T11:58:05Z</time>
      </trkpt>
      <trkpt lat="44.40435" lon="3.56595">
        <ele>877</ele>
        <time>2022-05-27T11:58:06Z</time>
      </trkpt>
      <trkpt lat="44.40435" lon="3.56594">
        <ele>877</ele>
        <time>2022-05-27T11:58:07Z</time>
      </trkpt>
      <trkpt lat="44.40436" lon="3.56593">
        <ele>877</ele>
        <time>2022-05-27T11:58:08Z</time>
      </trkpt>
      <trkpt lat="44.40437" lon="3.56592">
        <ele>876</ele>
        <time>2022-05-27T11:58:09Z</time>
      </trkpt>
      <trkpt lat="44.40437" lon="3.56591">
        <ele>876</ele>
        <time>2022-05-27T11:58:10Z</time>
      </trkpt>
      <trkpt lat="44.40438" lon="3.5659">
        <ele>876</ele>
        <time>2022-05-27T11:58:11Z</time>
      </trkpt>
      <trkpt lat="44.40439" lon="3.56588">
        <ele>876</ele>
        <time>2022-05-27T11:58:12Z</time>
      </trkpt>
      <trkpt lat="44.40439" lon="3.56587">
        <ele>877</ele>
        <time>2022-05-27T11:58:13Z</time>
      </trkpt>
      <trkpt lat="44.40439" lon="3.56586">
        <ele>877</ele>
        <time>2022-05-27T11:58:14Z</time>
      </trkpt>
      <trkpt lat="44.40439" lon="3.56585">
        <ele>878</ele>
        <time>2022-05-27T11:58:15Z</time>
      </trkpt>
      <trkpt lat="44.40439" lon="3.56584">
        <ele>877</ele>
        <time>2022-05-27T11:58:16Z</time>
      </trkpt>
      <trkpt lat="44.40439" lon="3.56582">
        <ele>877</ele>
        <time>2022-05-27T11:58:17Z</time>
      </trkpt>
      <trkpt lat="44.4044" lon="3.56581">
        <ele>876</ele>
        <time>2022-05-27T11:58:18Z</time>
      </trkpt>
      <trkpt lat="44.4044" lon="3.56579">
        <ele>876</ele>
        <time>2022-05-27T11:58:19Z</time>
      </trkpt>
      <trkpt lat="44.40439" lon="3.56578">
        <ele>875</ele>
        <time>2022-05-27T11:58:20Z</time>
      </trkpt>
      <trkpt lat="44.40439" lon="3.56576">
        <ele>874</ele>
        <time>2022-05-27T11:58:21Z</time>
      </trkpt>
      <trkpt lat="44.40439" lon="3.56575">
        <ele>874</ele>
        <time>2022-05-27T11:58:22Z</time>
      </trkpt>
      <trkpt lat="44.40438" lon="3.56574">
        <ele>874</ele>
        <time>2022-05-27T11:58:23Z</time>
      </trkpt>
      <trkpt lat="44.40437" lon="3.56573">
        <ele>873</ele>
        <time>2022-05-27T11:58:24Z</time>
      </trkpt>
      <trkpt lat="44.40437" lon="3.56573">
        <ele>873</ele>
        <time>2022-05-27T11:58:25Z</time>
      </trkpt>
      <trkpt lat="44.40436" lon="3.56573">
        <ele>872</ele>
        <time>2022-05-27T11:58:26Z</time>
      </trkpt>
      <trkpt lat="44.40435" lon="3.56573">
        <ele>872</ele>
        <time>2022-05-27T11:58:27Z</time>
      </trkpt>
      <trkpt lat="44.40435" lon="3.56572">
        <ele>871</ele>
        <time>2022-05-27T11:58:28Z</time>
      </trkpt>
      <trkpt lat="44.40434" lon="3.56572">
        <ele>871</ele>
        <time>2022-05-27T11:58:29Z</time>
      </trkpt>
      <trkpt lat="44.40434" lon="3.56571">
        <ele>870</ele>
        <time>2022-05-27T11:58:30Z</time>
      </trkpt>
      <trkpt lat="44.40433" lon="3.56571">
        <ele>869</ele>
        <time>2022-05-27T11:58:31Z</time>
      </trkpt>
      <trkpt lat="44.40432" lon="3.5657">
        <ele>868</ele>
        <time>2022-05-27T11:58:32Z</time>
      </trkpt>
      <trkpt lat="44.40431" lon="3.5657">
        <ele>869</ele>
        <time>2022-05-27T11:58:33Z</time>
      </trkpt>
      <trkpt lat="44.40431" lon="3.5657">
        <ele>869</ele>
        <time>2022-05-27T11:58:34Z</time>
      </trkpt>
      <trkpt lat="44.40429" lon="3.56569">
        <ele>869</ele>
        <time>2022-05-27T11:58:35Z</time>
      </trkpt>
      <trkpt lat="44.40429" lon="3.56569">
        <ele>868</ele>
        <time>2022-05-27T11:58:36Z</time>
      </trkpt>
      <trkpt lat="44.40427" lon="3.56568">
        <ele>868</ele>
        <time>2022-05-27T11:58:37Z</time>
      </trkpt>
      <trkpt lat="44.40426" lon="3.56568">
        <ele>867</ele>
        <time>2022-05-27T11:58:38Z</time>
      </trkpt>
      <trkpt lat="44.40426" lon="3.56567">
        <ele>867</ele>
        <time>2022-05-27T11:58:39Z</time>
      </trkpt>
      <trkpt lat="44.40425" lon="3.56567">
        <ele>867</ele>
        <time>2022-05-27T11:58:40Z</time>
      </trkpt>
      <trkpt lat="44.40424" lon="3.56566">
        <ele>867</ele>
        <time>2022-05-27T11:58:41Z</time>
      </trkpt>
      <trkpt lat="44.40424" lon="3.56565">
        <ele>868</ele>
        <time>2022-05-27T11:58:42Z</time>
      </trkpt>
      <trkpt lat="44.40423" lon="3.56564">
        <ele>867</ele>
        <time>2022-05-27T11:58:43Z</time>
      </trkpt>
      <trkpt lat="44.40422" lon="3.56564">
        <ele>867</ele>
        <time>2022-05-27T11:58:44Z</time>
      </trkpt>
      <trkpt lat="44.40421" lon="3.56563">
        <ele>867</ele>
        <time>2022-05-27T11:58:45Z</time>
      </trkpt>
      <trkpt lat="44.40419" lon="3.56563">
        <ele>867</ele>
        <time>2022-05-27T11:58:46Z</time>
      </trkpt>
      <trkpt lat="44.40418" lon="3.56562">
        <ele>867</ele>
        <time>2022-05-27T11:58:47Z</time>
      </trkpt>
      <trkpt lat="44.40418" lon="3.56561">
        <ele>868</ele>
        <time>2022-05-27T11:58:48Z</time>
      </trkpt>
      <trkpt lat="44.40418" lon="3.56561">
        <ele>867</ele>
        <time>2022-05-27T11:58:49Z</time>
      </trkpt>
      <trkpt lat="44.40416" lon="3.5656">
        <ele>867</ele>
        <time>2022-05-27T11:58:50Z</time>
      </trkpt>
      <trkpt lat="44.40415" lon="3.56559">
        <ele>868</ele>
        <time>2022-05-27T11:58:51Z</time>
      </trkpt>
      <trkpt lat="44.40414" lon="3.56558">
        <ele>868</ele>
        <time>2022-05-27T11:58:52Z</time>
      </trkpt>
      <trkpt lat="44.40413" lon="3.56557">
        <ele>867</ele>
        <time>2022-05-27T11:58:53Z</time>
      </trkpt>
      <trkpt lat="44.40413" lon="3.56557">
        <ele>867</ele>
        <time>2022-05-27T11:58:54Z</time>
      </trkpt>
      <trkpt lat="44.40411" lon="3.56556">
        <ele>867</ele>
        <time>2022-05-27T11:58:55Z</time>
      </trkpt>
      <trkpt lat="44.40411" lon="3.56555">
        <ele>866</ele>
        <time>2022-05-27T11:58:56Z</time>
      </trkpt>
      <trkpt lat="44.4041" lon="3.56553">
        <ele>866</ele>
        <time>2022-05-27T11:58:57Z</time>
      </trkpt>
      <trkpt lat="44.40409" lon="3.56552">
        <ele>866</ele>
        <time>2022-05-27T11:58:58Z</time>
      </trkpt>
      <trkpt lat="44.40409" lon="3.56552">
        <ele>865</ele>
        <time>2022-05-27T11:58:59Z</time>
      </trkpt>
      <trkpt lat="44.40408" lon="3.56551">
        <ele>866</ele>
        <time>2022-05-27T11:59:00Z</time>
      </trkpt>
      <trkpt lat="44.40407" lon="3.56549">
        <ele>865</ele>
        <time>2022-05-27T11:59:01Z</time>
      </trkpt>
      <trkpt lat="44.40406" lon="3.56548">
        <ele>865</ele>
        <time>2022-05-27T11:59:02Z</time>
      </trkpt>
      <trkpt lat="44.40406" lon="3.56547">
        <ele>865</ele>
        <time>2022-05-27T11:59:03Z</time>
      </trkpt>
      <trkpt lat="44.40405" lon="3.56546">
        <ele>864</ele>
        <time>2022-05-27T11:59:04Z</time>
      </trkpt>
      <trkpt lat="44.40404" lon="3.56545">
        <ele>864</ele>
        <time>2022-05-27T11:59:05Z</time>
      </trkpt>
      <trkpt lat="44.40403" lon="3.56545">
        <ele>863</ele>
        <time>2022-05-27T11:59:06Z</time>
      </trkpt>
      <trkpt lat="44.40402" lon="3.56544">
        <ele>864</ele>
        <time>2022-05-27T11:59:07Z</time>
      </trkpt>
      <trkpt lat="44.40401" lon="3.56544">
        <ele>864</ele>
        <time>2022-05-27T11:59:08Z</time>
      </trkpt>
      <trkpt lat="44.404" lon="3.56543">
        <ele>863</ele>
        <time>2022-05-27T11:59:09Z</time>
      </trkpt>
      <trkpt lat="44.40399" lon="3.56542">
        <ele>863</ele>
        <time>2022-05-27T11:59:10Z</time>
      </trkpt>
      <trkpt lat="44.40398" lon="3.56541">
        <ele>862</ele>
        <time>2022-05-27T11:59:11Z</time>
      </trkpt>
      <trkpt lat="44.40398" lon="3.5654">
        <ele>861</ele>
        <time>2022-05-27T11:59:12Z</time>
      </trkpt>
      <trkpt lat="44.40397" lon="3.56539">
        <ele>861</ele>
        <time>2022-05-27T11:59:13Z</time>
      </trkpt>
      <trkpt lat="44.40396" lon="3.56538">
        <ele>861</ele>
        <time>2022-05-27T11:59:14Z</time>
      </trkpt>
      <trkpt lat="44.40395" lon="3.56537">
        <ele>860</ele>
        <time>2022-05-27T11:59:15Z</time>
      </trkpt>
      <trkpt lat="44.40395" lon="3.56536">
        <ele>860</ele>
        <time>2022-05-27T11:59:16Z</time>
      </trkpt>
      <trkpt lat="44.40394" lon="3.56536">
        <ele>859</ele>
        <time>2022-05-27T11:59:17Z</time>
      </trkpt>
      <trkpt lat="44.40393" lon="3.56535">
        <ele>859</ele>
        <time>2022-05-27T11:59:18Z</time>
      </trkpt>
      <trkpt lat="44.40392" lon="3.56534">
        <ele>858</ele>
        <time>2022-05-27T11:59:19Z</time>
      </trkpt>
      <trkpt lat="44.40392" lon="3.56534">
        <ele>857</ele>
        <time>2022-05-27T11:59:20Z</time>
      </trkpt>
      <trkpt lat="44.40392" lon="3.56534">
        <ele>858</ele>
        <time>2022-05-27T11:59:21Z</time>
      </trkpt>
      <trkpt lat="44.40391" lon="3.56535">
        <ele>857</ele>
        <time>2022-05-27T11:59:22Z</time>
      </trkpt>
      <trkpt lat="44.40391" lon="3.56535">
        <ele>857</ele>
        <time>2022-05-27T11:59:23Z</time>
      </trkpt>
      <trkpt lat="44.40391" lon="3.56535">
        <ele>857</ele>
        <time>2022-05-27T11:59:24Z</time>
      </trkpt>
      <trkpt lat="44.40389" lon="3.56534">
        <ele>856</ele>
        <time>2022-05-27T11:59:25Z</time>
      </trkpt>
      <trkpt lat="44.40389" lon="3.56533">
        <ele>855</ele>
        <time>2022-05-27T11:59:26Z</time>
      </trkpt>
      <trkpt lat="44.40389" lon="3.56532">
        <ele>856</ele>
        <time>2022-05-27T11:59:27Z</time>
      </trkpt>
      <trkpt lat="44.40389" lon="3.56532">
        <ele>856</ele>
        <time>2022-05-27T11:59:28Z</time>
      </trkpt>
      <trkpt lat="44.40389" lon="3.56531">
        <ele>856</ele>
        <time>2022-05-27T11:59:29Z</time>
      </trkpt>
      <trkpt lat="44.40389" lon="3.56531">
        <ele>856</ele>
        <time>2022-05-27T11:59:30Z</time>
      </trkpt>
      <trkpt lat="44.4039" lon="3.5653">
        <ele>855</ele>
        <time>2022-05-27T11:59:31Z</time>
      </trkpt>
      <trkpt lat="44.4039" lon="3.5653">
        <ele>855</ele>
        <time>2022-05-27T11:59:32Z</time>
      </trkpt>
      <trkpt lat="44.40391" lon="3.56529">
        <ele>855</ele>
        <time>2022-05-27T11:59:33Z</time>
      </trkpt>
      <trkpt lat="44.40391" lon="3.56529">
        <ele>855</ele>
        <time>2022-05-27T11:59:34Z</time>
      </trkpt>
      <trkpt lat="44.40392" lon="3.56529">
        <ele>855</ele>
        <time>2022-05-27T11:59:35Z</time>
      </trkpt>
      <trkpt lat="44.40392" lon="3.56529">
        <ele>855</ele>
        <time>2022-05-27T11:59:36Z</time>
      </trkpt>
      <trkpt lat="44.40393" lon="3.56529">
        <ele>855</ele>
        <time>2022-05-27T11:59:37Z</time>
      </trkpt>
      <trkpt lat="44.40394" lon="3.56529">
        <ele>855</ele>
        <time>2022-05-27T11:59:38Z</time>
      </trkpt>
      <trkpt lat="44.40395" lon="3.56529">
        <ele>854</ele>
        <time>2022-05-27T11:59:39Z</time>
      </trkpt>
      <trkpt lat="44.40396" lon="3.56528">
        <ele>854</ele>
        <time>2022-05-27T11:59:40Z</time>
      </trkpt>
      <trkpt lat="44.40397" lon="3.56529">
        <ele>854</ele>
        <time>2022-05-27T11:59:41Z</time>
      </trkpt>
      <trkpt lat="44.40397" lon="3.56529">
        <ele>853</ele>
        <time>2022-05-27T11:59:42Z</time>
      </trkpt>
      <trkpt lat="44.40396" lon="3.5653">
        <ele>854</ele>
        <time>2022-05-27T11:59:43Z</time>
      </trkpt>
      <trkpt lat="44.40397" lon="3.56531">
        <ele>854</ele>
        <time>2022-05-27T11:59:44Z</time>
      </trkpt>
      <trkpt lat="44.40397" lon="3.56532">
        <ele>854</ele>
        <time>2022-05-27T11:59:45Z</time>
      </trkpt>
      <trkpt lat="44.40397" lon="3.56532">
        <ele>854</ele>
        <time>2022-05-27T11:59:46Z</time>
      </trkpt>
      <trkpt lat="44.40398" lon="3.56532">
        <ele>854</ele>
        <time>2022-05-27T11:59:47Z</time>
      </trkpt>
      <trkpt lat="44.404" lon="3.56532">
        <ele>854</ele>
        <time>2022-05-27T11:59:48Z</time>
      </trkpt>
      <trkpt lat="44.40401" lon="3.56533">
        <ele>853</ele>
        <time>2022-05-27T11:59:49Z</time>
      </trkpt>
      <trkpt lat="44.40402" lon="3.56533">
        <ele>853</ele>
        <time>2022-05-27T11:59:50Z</time>
      </trkpt>
      <trkpt lat="44.40403" lon="3.56532">
        <ele>854</ele>
        <time>2022-05-27T11:59:51Z</time>
      </trkpt>
      <trkpt lat="44.40404" lon="3.56532">
        <ele>854</ele>
        <time>2022-05-27T11:59:52Z</time>
      </trkpt>
      <trkpt lat="44.40405" lon="3.56532">
        <ele>854</ele>
        <time>2022-05-27T11:59:53Z</time>
      </trkpt>
      <trkpt lat="44.40406" lon="3.56531">
        <ele>854</ele>
        <time>2022-05-27T11:59:54Z</time>
      </trkpt>
      <trkpt lat="44.40407" lon="3.5653">
        <ele>854</ele>
        <time>2022-05-27T11:59:55Z</time>
      </trkpt>
      <trkpt lat="44.40408" lon="3.56529">
        <ele>854</ele>
        <time>2022-05-27T11:59:56Z</time>
      </trkpt>
      <trkpt lat="44.40409" lon="3.56529">
        <ele>854</ele>
        <time>2022-05-27T11:59:57Z</time>
      </trkpt>
      <trkpt lat="44.4041" lon="3.56529">
        <ele>854</ele>
        <time>2022-05-27T11:59:58Z</time>
      </trkpt>
      <trkpt lat="44.40411" lon="3.56529">
        <ele>854</ele>
        <time>2022-05-27T11:59:59Z</time>
      </trkpt>
      <trkpt lat="44.40411" lon="3.56528">
        <ele>854</ele>
        <time>2022-05-27T12:00:00Z</time>
      </trkpt>
      <trkpt lat="44.40412" lon="3.56527">
        <ele>855</ele>
        <time>2022-05-27T12:00:01Z</time>
      </trkpt>
      <trkpt lat="44.40413" lon="3.56527">
        <ele>854</ele>
        <time>2022-05-27T12:00:02Z</time>
      </trkpt>
      <trkpt lat="44.40413" lon="3.56526">
        <ele>854</ele>
        <time>2022-05-27T12:00:03Z</time>
      </trkpt>
      <trkpt lat="44.40413" lon="3.56525">
        <ele>854</ele>
        <time>2022-05-27T12:00:04Z</time>
      </trkpt>
      <trkpt lat="44.40413" lon="3.56525">
        <ele>854</ele>
        <time>2022-05-27T12:00:05Z</time>
      </trkpt>
      <trkpt lat="44.40413" lon="3.56525">
        <ele>854</ele>
        <time>2022-05-27T12:00:06Z</time>
      </trkpt>
      <trkpt lat="44.40414" lon="3.56523">
        <ele>852</ele>
        <time>2022-05-27T12:00:07Z</time>
      </trkpt>
      <trkpt lat="44.40414" lon="3.56523">
        <ele>852</ele>
        <time>2022-05-27T12:00:08Z</time>
      </trkpt>
      <trkpt lat="44.40414" lon="3.56523">
        <ele>851</ele>
        <time>2022-05-27T12:00:09Z</time>
      </trkpt>
      <trkpt lat="44.40414" lon="3.56523">
        <ele>851</ele>
        <time>2022-05-27T12:00:10Z</time>
      </trkpt>
      <trkpt lat="44.40414" lon="3.56523">
        <ele>851</ele>
        <time>2022-05-27T12:00:11Z</time>
      </trkpt>
      <trkpt lat="44.40414" lon="3.56523">
        <ele>851</ele>
        <time>2022-05-27T12:00:12Z</time>
      </trkpt>
      <trkpt lat="44.40413" lon="3.56522">
        <ele>850</ele>
        <time>2022-05-27T12:00:13Z</time>
      </trkpt>
      <trkpt lat="44.40413" lon="3.56521">
        <ele>850</ele>
        <time>2022-05-27T12:00:14Z</time>
      </trkpt>
      <trkpt lat="44.40411" lon="3.5652">
        <ele>849</ele>
        <time>2022-05-27T12:00:15Z</time>
      </trkpt>
      <trkpt lat="44.40411" lon="3.5652">
        <ele>849</ele>
        <time>2022-05-27T12:00:16Z</time>
      </trkpt>
      <trkpt lat="44.40411" lon="3.5652">
        <ele>849</ele>
        <time>2022-05-27T12:00:17Z</time>
      </trkpt>
      <trkpt lat="44.40409" lon="3.5652">
        <ele>848</ele>
        <time>2022-05-27T12:00:18Z</time>
      </trkpt>
      <trkpt lat="44.40408" lon="3.56519">
        <ele>848</ele>
        <time>2022-05-27T12:00:19Z</time>
      </trkpt>
      <trkpt lat="44.40407" lon="3.56518">
        <ele>848</ele>
        <time>2022-05-27T12:00:20Z</time>
      </trkpt>
      <trkpt lat="44.40406" lon="3.56517">
        <ele>848</ele>
        <time>2022-05-27T12:00:21Z</time>
      </trkpt>
      <trkpt lat="44.40405" lon="3.56516">
        <ele>848</ele>
        <time>2022-05-27T12:00:22Z</time>
      </trkpt>
      <trkpt lat="44.40405" lon="3.56515">
        <ele>848</ele>
        <time>2022-05-27T12:00:23Z</time>
      </trkpt>
      <trkpt lat="44.40404" lon="3.56514">
        <ele>849</ele>
        <time>2022-05-27T12:00:24Z</time>
      </trkpt>
      <trkpt lat="44.40403" lon="3.56513">
        <ele>849</ele>
        <time>2022-05-27T12:00:25Z</time>
      </trkpt>
      <trkpt lat="44.40402" lon="3.56511">
        <ele>849</ele>
        <time>2022-05-27T12:00:26Z</time>
      </trkpt>
      <trkpt lat="44.40401" lon="3.5651">
        <ele>848</ele>
        <time>2022-05-27T12:00:27Z</time>
      </trkpt>
      <trkpt lat="44.404" lon="3.56509">
        <ele>848</ele>
        <time>2022-05-27T12:00:28Z</time>
      </trkpt>
      <trkpt lat="44.40399" lon="3.56509">
        <ele>847</ele>
        <time>2022-05-27T12:00:29Z</time>
      </trkpt>
      <trkpt lat="44.40399" lon="3.56509">
        <ele>846</ele>
        <time>2022-05-27T12:00:30Z</time>
      </trkpt>
      <trkpt lat="44.40399" lon="3.56508">
        <ele>847</ele>
        <time>2022-05-27T12:00:31Z</time>
      </trkpt>
      <trkpt lat="44.40398" lon="3.56508">
        <ele>847</ele>
        <time>2022-05-27T12:00:32Z</time>
      </trkpt>
      <trkpt lat="44.40398" lon="3.56507">
        <ele>846</ele>
        <time>2022-05-27T12:00:33Z</time>
      </trkpt>
      <trkpt lat="44.40398" lon="3.56507">
        <ele>846</ele>
        <time>2022-05-27T12:00:34Z</time>
      </trkpt>
      <trkpt lat="44.40397" lon="3.56507">
        <ele>846</ele>
        <time>2022-05-27T12:00:35Z</time>
      </trkpt>
      <trkpt lat="44.40397" lon="3.56506">
        <ele>846</ele>
        <time>2022-05-27T12:00:36Z</time>
      </trkpt>
      <trkpt lat="44.40396" lon="3.56506">
        <ele>846</ele>
        <time>2022-05-27T12:00:37Z</time>
      </trkpt>
      <trkpt lat="44.40396" lon="3.56506">
        <ele>845</ele>
        <time>2022-05-27T12:00:38Z</time>
      </trkpt>
      <trkpt lat="44.40396" lon="3.56506">
        <ele>845</ele>
        <time>2022-05-27T12:00:39Z</time>
      </trkpt>
      <trkpt lat="44.40396" lon="3.56506">
        <ele>845</ele>
        <time>2022-05-27T12:00:40Z</time>
      </trkpt>
      <trkpt lat="44.40396" lon="3.56505">
        <ele>846</ele>
        <time>2022-05-27T12:00:41Z</time>
      </trkpt>
      <trkpt lat="44.40395" lon="3.56505">
        <ele>845</ele>
        <time>2022-05-27T12:00:42Z</time>
      </trkpt>
      <trkpt lat="44.40395" lon="3.56506">
        <ele>845</ele>
        <time>2022-05-27T12:00:43Z</time>
      </trkpt>
      <trkpt lat="44.40395" lon="3.56505">
        <ele>845</ele>
        <time>2022-05-27T12:00:44Z</time>
      </trkpt>
      <trkpt lat="44.40395" lon="3.56505">
        <ele>845</ele>
        <time>2022-05-27T12:00:45Z</time>
      </trkpt>
      <trkpt lat="44.40395" lon="3.56505">
        <ele>845</ele>
        <time>2022-05-27T12:00:46Z</time>
      </trkpt>
      <trkpt lat="44.40395" lon="3.56505">
        <ele>845</ele>
        <time>2022-05-27T12:00:47Z</time>
      </trkpt>
      <trkpt lat="44.40393" lon="3.56505">
        <ele>845</ele>
        <time>2022-05-27T12:00:48Z</time>
      </trkpt>
      <trkpt lat="44.40392" lon="3.56505">
        <ele>845</ele>
        <time>2022-05-27T12:00:49Z</time>
      </trkpt>
      <trkpt lat="44.40391" lon="3.56505">
        <ele>845</ele>
        <time>2022-05-27T12:00:50Z</time>
      </trkpt>
      <trkpt lat="44.4039" lon="3.56504">
        <ele>845</ele>
        <time>2022-05-27T12:00:51Z</time>
      </trkpt>
      <trkpt lat="44.4039" lon="3.56504">
        <ele>845</ele>
        <time>2022-05-27T12:00:52Z</time>
      </trkpt>
      <trkpt lat="44.4039" lon="3.56504">
        <ele>845</ele>
        <time>2022-05-27T12:00:53Z</time>
      </trkpt>
      <trkpt lat="44.40388" lon="3.56504">
        <ele>847</ele>
        <time>2022-05-27T12:00:54Z</time>
      </trkpt>
      <trkpt lat="44.40387" lon="3.56503">
        <ele>847</ele>
        <time>2022-05-27T12:00:55Z</time>
      </trkpt>
      <trkpt lat="44.40386" lon="3.56503">
        <ele>847</ele>
        <time>2022-05-27T12:00:56Z</time>
      </trkpt>
      <trkpt lat="44.40386" lon="3.56503">
        <ele>848</ele>
        <time>2022-05-27T12:00:57Z</time>
      </trkpt>
      <trkpt lat="44.40385" lon="3.56503">
        <ele>848</ele>
        <time>2022-05-27T12:00:58Z</time>
      </trkpt>
      <trkpt lat="44.40384" lon="3.56503">
        <ele>848</ele>
        <time>2022-05-27T12:00:59Z</time>
      </trkpt>
      <trkpt lat="44.40384" lon="3.56502">
        <ele>848</ele>
        <time>2022-05-27T12:01:00Z</time>
      </trkpt>
      <trkpt lat="44.40383" lon="3.56501">
        <ele>848</ele>
        <time>2022-05-27T12:01:01Z</time>
      </trkpt>
      <trkpt lat="44.40382" lon="3.56501">
        <ele>847</ele>
        <time>2022-05-27T12:01:02Z</time>
      </trkpt>
      <trkpt lat="44.40382" lon="3.565">
        <ele>847</ele>
        <time>2022-05-27T12:01:03Z</time>
      </trkpt>
      <trkpt lat="44.40382" lon="3.565">
        <ele>846</ele>
        <time>2022-05-27T12:01:04Z</time>
      </trkpt>
      <trkpt lat="44.40382" lon="3.56499">
        <ele>846</ele>
        <time>2022-05-27T12:01:05Z</time>
      </trkpt>
      <trkpt lat="44.40382" lon="3.56498">
        <ele>846</ele>
        <time>2022-05-27T12:01:06Z</time>
      </trkpt>
      <trkpt lat="44.40382" lon="3.56497">
        <ele>846</ele>
        <time>2022-05-27T12:01:07Z</time>
      </trkpt>
      <trkpt lat="44.40383" lon="3.56496">
        <ele>846</ele>
        <time>2022-05-27T12:01:08Z</time>
      </trkpt>
      <trkpt lat="44.40383" lon="3.56495">
        <ele>847</ele>
        <time>2022-05-27T12:01:09Z</time>
      </trkpt>
      <trkpt lat="44.40382" lon="3.56495">
        <ele>846</ele>
        <time>2022-05-27T12:01:10Z</time>
      </trkpt>
      <trkpt lat="44.40382" lon="3.56495">
        <ele>846</ele>
        <time>2022-05-27T12:01:11Z</time>
      </trkpt>
      <trkpt lat="44.40382" lon="3.56495">
        <ele>846</ele>
        <time>2022-05-27T12:01:12Z</time>
      </trkpt>
      <trkpt lat="44.40381" lon="3.56495">
        <ele>846</ele>
        <time>2022-05-27T12:01:13Z</time>
      </trkpt>
      <trkpt lat="44.4038" lon="3.56495">
        <ele>845</ele>
        <time>2022-05-27T12:01:14Z</time>
      </trkpt>
      <trkpt lat="44.4038" lon="3.56494">
        <ele>845</ele>
        <time>2022-05-27T12:01:15Z</time>
      </trkpt>
      <trkpt lat="44.4038" lon="3.56493">
        <ele>845</ele>
        <time>2022-05-27T12:01:16Z</time>
      </trkpt>
      <trkpt lat="44.4038" lon="3.56493">
        <ele>845</ele>
        <time>2022-05-27T12:01:17Z</time>
      </trkpt>
      <trkpt lat="44.40379" lon="3.56493">
        <ele>845</ele>
        <time>2022-05-27T12:01:18Z</time>
      </trkpt>
      <trkpt lat="44.40378" lon="3.56492">
        <ele>845</ele>
        <time>2022-05-27T12:01:19Z</time>
      </trkpt>
      <trkpt lat="44.40377" lon="3.56491">
        <ele>845</ele>
        <time>2022-05-27T12:01:20Z</time>
      </trkpt>
      <trkpt lat="44.40377" lon="3.56491">
        <ele>845</ele>
        <time>2022-05-27T12:01:21Z</time>
      </trkpt>
      <trkpt lat="44.40376" lon="3.5649">
        <ele>846</ele>
        <time>2022-05-27T12:01:22Z</time>
      </trkpt>
      <trkpt lat="44.40375" lon="3.56489">
        <ele>845</ele>
        <time>2022-05-27T12:01:23Z</time>
      </trkpt>
      <trkpt lat="44.40374" lon="3.56488">
        <ele>845</ele>
        <time>2022-05-27T12:01:24Z</time>
      </trkpt>
      <trkpt lat="44.40374" lon="3.56487">
        <ele>844</ele>
        <time>2022-05-27T12:01:25Z</time>
      </trkpt>
      <trkpt lat="44.40373" lon="3.56486">
        <ele>843</ele>
        <time>2022-05-27T12:01:26Z</time>
      </trkpt>
      <trkpt lat="44.40373" lon="3.56485">
        <ele>843</ele>
        <time>2022-05-27T12:01:27Z</time>
      </trkpt>
      <trkpt lat="44.40372" lon="3.56484">
        <ele>843</ele>
        <time>2022-05-27T12:01:28Z</time>
      </trkpt>
      <trkpt lat="44.40372" lon="3.56482">
        <ele>843</ele>
        <time>2022-05-27T12:01:29Z</time>
      </trkpt>
      <trkpt lat="44.40371" lon="3.56481">
        <ele>843</ele>
        <time>2022-05-27T12:01:30Z</time>
      </trkpt>
      <trkpt lat="44.40372" lon="3.56479">
        <ele>844</ele>
        <time>2022-05-27T12:01:31Z</time>
      </trkpt>
      <trkpt lat="44.40372" lon="3.56478">
        <ele>845</ele>
        <time>2022-05-27T12:01:32Z</time>
      </trkpt>
      <trkpt lat="44.40372" lon="3.56477">
        <ele>844</ele>
        <time>2022-05-27T12:01:33Z</time>
      </trkpt>
      <trkpt lat="44.40372" lon="3.56476">
        <ele>844</ele>
        <time>2022-05-27T12:01:34Z</time>
      </trkpt>
      <trkpt lat="44.40373" lon="3.56475">
        <ele>845</ele>
        <time>2022-05-27T12:01:35Z</time>
      </trkpt>
      <trkpt lat="44.40373" lon="3.56475">
        <ele>845</ele>
        <time>2022-05-27T12:01:36Z</time>
      </trkpt>
      <trkpt lat="44.40372" lon="3.56472">
        <ele>845</ele>
        <time>2022-05-27T12:01:37Z</time>
      </trkpt>
      <trkpt lat="44.40371" lon="3.56469">
        <ele>846</ele>
        <time>2022-05-27T12:01:38Z</time>
      </trkpt>
      <trkpt lat="44.40371" lon="3.56467">
        <ele>846</ele>
        <time>2022-05-27T12:01:39Z</time>
      </trkpt>
      <trkpt lat="44.40371" lon="3.56465">
        <ele>846</ele>
        <time>2022-05-27T12:01:40Z</time>
      </trkpt>
      <trkpt lat="44.40371" lon="3.56463">
        <ele>846</ele>
        <time>2022-05-27T12:01:41Z</time>
      </trkpt>
      <trkpt lat="44.40371" lon="3.56462">
        <ele>846</ele>
        <time>2022-05-27T12:01:42Z</time>
      </trkpt>
      <trkpt lat="44.40371" lon="3.56461">
        <ele>846</ele>
        <time>2022-05-27T12:01:43Z</time>
      </trkpt>
      <trkpt lat="44.4037" lon="3.5646">
        <ele>846</ele>
        <time>2022-05-27T12:01:44Z</time>
      </trkpt>
      <trkpt lat="44.4037" lon="3.5646">
        <ele>846</ele>
        <time>2022-05-27T12:01:45Z</time>
      </trkpt>
      <trkpt lat="44.4037" lon="3.5646">
        <ele>846</ele>
        <time>2022-05-27T12:01:46Z</time>
      </trkpt>
      <trkpt lat="44.4037" lon="3.5646">
        <ele>846</ele>
        <time>2022-05-27T12:01:46Z</time>
      </trkpt>
      <trkpt lat="44.4037" lon="3.5646">
        <ele>846</ele>
        <time>2022-05-27T12:01:46Z</time>
      </trkpt>
      <trkpt lat="44.4037" lon="3.5646">
        <ele>846</ele>
        <time>2022-05-27T12:01:46Z</time>
      </trkpt>
      <trkpt lat="44.40363" lon="3.5645">
        <ele>844</ele>
        <time>2022-05-27T12:02:11Z</time>
      </trkpt>
      <trkpt lat="44.40362" lon="3.56448">
        <ele>844</ele>
        <time>2022-05-27T12:02:12Z</time>
      </trkpt>
      <trkpt lat="44.40362" lon="3.56446">
        <ele>845</ele>
        <time>2022-05-27T12:02:13Z</time>
      </trkpt>
      <trkpt lat="44.40362" lon="3.56445">
        <ele>845</ele>
        <time>2022-05-27T12:02:14Z</time>
      </trkpt>
      <trkpt lat="44.40362" lon="3.56444">
        <ele>845</ele>
        <time>2022-05-27T12:02:15Z</time>
      </trkpt>
      <trkpt lat="44.40362" lon="3.56443">
        <ele>845</ele>
        <time>2022-05-27T12:02:16Z</time>
      </trkpt>
      <trkpt lat="44.40363" lon="3.56441">
        <ele>845</ele>
        <time>2022-05-27T12:02:17Z</time>
      </trkpt>
      <trkpt lat="44.40363" lon="3.56439">
        <ele>845</ele>
        <time>2022-05-27T12:02:18Z</time>
      </trkpt>
      <trkpt lat="44.40363" lon="3.56438">
        <ele>845</ele>
        <time>2022-05-27T12:02:19Z</time>
      </trkpt>
      <trkpt lat="44.40364" lon="3.56437">
        <ele>845</ele>
        <time>2022-05-27T12:02:20Z</time>
      </trkpt>
      <trkpt lat="44.40364" lon="3.56436">
        <ele>844</ele>
        <time>2022-05-27T12:02:21Z</time>
      </trkpt>
      <trkpt lat="44.40365" lon="3.56434">
        <ele>844</ele>
        <time>2022-05-27T12:02:22Z</time>
      </trkpt>
      <trkpt lat="44.40365" lon="3.56433">
        <ele>844</ele>
        <time>2022-05-27T12:02:23Z</time>
      </trkpt>
      <trkpt lat="44.40364" lon="3.56431">
        <ele>845</ele>
        <time>2022-05-27T12:02:24Z</time>
      </trkpt>
      <trkpt lat="44.40364" lon="3.56429">
        <ele>844</ele>
        <time>2022-05-27T12:02:25Z</time>
      </trkpt>
      <trkpt lat="44.40364" lon="3.56428">
        <ele>844</ele>
        <time>2022-05-27T12:02:26Z</time>
      </trkpt>
      <trkpt lat="44.40363" lon="3.56425">
        <ele>844</ele>
        <time>2022-05-27T12:02:27Z</time>
      </trkpt>
      <trkpt lat="44.40363" lon="3.56424">
        <ele>844</ele>
        <time>2022-05-27T12:02:28Z</time>
      </trkpt>
      <trkpt lat="44.40363" lon="3.56422">
        <ele>843</ele>
        <time>2022-05-27T12:02:29Z</time>
      </trkpt>
      <trkpt lat="44.40363" lon="3.5642">
        <ele>843</ele>
        <time>2022-05-27T12:02:30Z</time>
      </trkpt>
      <trkpt lat="44.40363" lon="3.56419">
        <ele>843</ele>
        <time>2022-05-27T12:02:31Z</time>
      </trkpt>
      <trkpt lat="44.40362" lon="3.56417">
        <ele>842</ele>
        <time>2022-05-27T12:02:32Z</time>
      </trkpt>
      <trkpt lat="44.40362" lon="3.56416">
        <ele>841</ele>
        <time>2022-05-27T12:02:33Z</time>
      </trkpt>
      <trkpt lat="44.40361" lon="3.56415">
        <ele>840</ele>
        <time>2022-05-27T12:02:34Z</time>
      </trkpt>
      <trkpt lat="44.40361" lon="3.56414">
        <ele>841</ele>
        <time>2022-05-27T12:02:35Z</time>
      </trkpt>
      <trkpt lat="44.4036" lon="3.56413">
        <ele>841</ele>
        <time>2022-05-27T12:02:36Z</time>
      </trkpt>
      <trkpt lat="44.40359" lon="3.56412">
        <ele>842</ele>
        <time>2022-05-27T12:02:37Z</time>
      </trkpt>
      <trkpt lat="44.40358" lon="3.56411">
        <ele>842</ele>
        <time>2022-05-27T12:02:38Z</time>
      </trkpt>
      <trkpt lat="44.40357" lon="3.56411">
        <ele>841</ele>
        <time>2022-05-27T12:02:39Z</time>
      </trkpt>
      <trkpt lat="44.40356" lon="3.5641">
        <ele>841</ele>
        <time>2022-05-27T12:02:40Z</time>
      </trkpt>
      <trkpt lat="44.40355" lon="3.5641">
        <ele>841</ele>
        <time>2022-05-27T12:02:41Z</time>
      </trkpt>
      <trkpt lat="44.40355" lon="3.56409">
        <ele>841</ele>
        <time>2022-05-27T12:02:42Z</time>
      </trkpt>
      <trkpt lat="44.40353" lon="3.56409">
        <ele>841</ele>
        <time>2022-05-27T12:02:43Z</time>
      </trkpt>
      <trkpt lat="44.40353" lon="3.56407">
        <ele>840</ele>
        <time>2022-05-27T12:02:44Z</time>
      </trkpt>
      <trkpt lat="44.40352" lon="3.56407">
        <ele>840</ele>
        <time>2022-05-27T12:02:45Z</time>
      </trkpt>
      <trkpt lat="44.4035" lon="3.56406">
        <ele>840</ele>
        <time>2022-05-27T12:02:46Z</time>
      </trkpt>
      <trkpt lat="44.40349" lon="3.56405">
        <ele>841</ele>
        <time>2022-05-27T12:02:47Z</time>
      </trkpt>
      <trkpt lat="44.40348" lon="3.56404">
        <ele>840</ele>
        <time>2022-05-27T12:02:48Z</time>
      </trkpt>
      <trkpt lat="44.40348" lon="3.56403">
        <ele>839</ele>
        <time>2022-05-27T12:02:49Z</time>
      </trkpt>
      <trkpt lat="44.40347" lon="3.56402">
        <ele>839</ele>
        <time>2022-05-27T12:02:50Z</time>
      </trkpt>
      <trkpt lat="44.40346" lon="3.56401">
        <ele>839</ele>
        <time>2022-05-27T12:02:51Z</time>
      </trkpt>
      <trkpt lat="44.40345" lon="3.564">
        <ele>839</ele>
        <time>2022-05-27T12:02:52Z</time>
      </trkpt>
      <trkpt lat="44.40344" lon="3.564">
        <ele>838</ele>
        <time>2022-05-27T12:02:53Z</time>
      </trkpt>
      <trkpt lat="44.40342" lon="3.564">
        <ele>838</ele>
        <time>2022-05-27T12:02:54Z</time>
      </trkpt>
      <trkpt lat="44.40342" lon="3.564">
        <ele>837</ele>
        <time>2022-05-27T12:02:55Z</time>
      </trkpt>
      <trkpt lat="44.40342" lon="3.56399">
        <ele>837</ele>
        <time>2022-05-27T12:02:56Z</time>
      </trkpt>
      <trkpt lat="44.4034" lon="3.56398">
        <ele>836</ele>
        <time>2022-05-27T12:02:57Z</time>
      </trkpt>
      <trkpt lat="44.40339" lon="3.56398">
        <ele>835</ele>
        <time>2022-05-27T12:02:58Z</time>
      </trkpt>
      <trkpt lat="44.40338" lon="3.56397">
        <ele>834</ele>
        <time>2022-05-27T12:02:59Z</time>
      </trkpt>
      <trkpt lat="44.40337" lon="3.56396">
        <ele>833</ele>
        <time>2022-05-27T12:03:00Z</time>
      </trkpt>
      <trkpt lat="44.40337" lon="3.56396">
        <ele>833</ele>
        <time>2022-05-27T12:03:01Z</time>
      </trkpt>
      <trkpt lat="44.40336" lon="3.56395">
        <ele>833</ele>
        <time>2022-05-27T12:03:02Z</time>
      </trkpt>
      <trkpt lat="44.40335" lon="3.56395">
        <ele>833</ele>
        <time>2022-05-27T12:03:03Z</time>
      </trkpt>
      <trkpt lat="44.40334" lon="3.56394">
        <ele>833</ele>
        <time>2022-05-27T12:03:04Z</time>
      </trkpt>
      <trkpt lat="44.40334" lon="3.56393">
        <ele>834</ele>
        <time>2022-05-27T12:03:05Z</time>
      </trkpt>
      <trkpt lat="44.40333" lon="3.56392">
        <ele>833</ele>
        <time>2022-05-27T12:03:06Z</time>
      </trkpt>
      <trkpt lat="44.40332" lon="3.56393">
        <ele>833</ele>
        <time>2022-05-27T12:03:07Z</time>
      </trkpt>
      <trkpt lat="44.40331" lon="3.56394">
        <ele>833</ele>
        <time>2022-05-27T12:03:08Z</time>
      </trkpt>
      <trkpt lat="44.4033" lon="3.56395">
        <ele>834</ele>
        <time>2022-05-27T12:03:09Z</time>
      </trkpt>
      <trkpt lat="44.4033" lon="3.56395">
        <ele>834</ele>
        <time>2022-05-27T12:03:10Z</time>
      </trkpt>
      <trkpt lat="44.4033" lon="3.56395">
        <ele>834</ele>
        <time>2022-05-27T12:03:11Z</time>
      </trkpt>
      <trkpt lat="44.40329" lon="3.56397">
        <ele>835</ele>
        <time>2022-05-27T12:03:12Z</time>
      </trkpt>
      <trkpt lat="44.40329" lon="3.56397">
        <ele>835</ele>
        <time>2022-05-27T12:03:13Z</time>
      </trkpt>
      <trkpt lat="44.40329" lon="3.56397">
        <ele>835</ele>
        <time>2022-05-27T12:03:13Z</time>
      </trkpt>
      <trkpt lat="44.40329" lon="3.56397">
        <ele>835</ele>
        <time>2022-05-27T12:03:13Z</time>
      </trkpt>
      <trkpt lat="44.40326" lon="3.56399">
        <ele>837</ele>
        <time>2022-05-27T12:03:57Z</time>
      </trkpt>
      <trkpt lat="44.40325" lon="3.564">
        <ele>837</ele>
        <time>2022-05-27T12:03:58Z</time>
      </trkpt>
      <trkpt lat="44.40326" lon="3.56402">
        <ele>837</ele>
        <time>2022-05-27T12:03:59Z</time>
      </trkpt>
      <trkpt lat="44.40326" lon="3.56404">
        <ele>837</ele>
        <time>2022-05-27T12:04:00Z</time>
      </trkpt>
      <trkpt lat="44.40325" lon="3.56404">
        <ele>837</ele>
        <time>2022-05-27T12:04:01Z</time>
      </trkpt>
      <trkpt lat="44.40325" lon="3.56405">
        <ele>836</ele>
        <time>2022-05-27T12:04:02Z</time>
      </trkpt>
      <trkpt lat="44.40325" lon="3.56405">
        <ele>836</ele>
        <time>2022-05-27T12:04:03Z</time>
      </trkpt>
      <trkpt lat="44.40325" lon="3.56405">
        <ele>835</ele>
        <time>2022-05-27T12:04:04Z</time>
      </trkpt>
      <trkpt lat="44.40325" lon="3.56405">
        <ele>835</ele>
        <time>2022-05-27T12:04:05Z</time>
      </trkpt>
      <trkpt lat="44.40325" lon="3.56404">
        <ele>835</ele>
        <time>2022-05-27T12:04:06Z</time>
      </trkpt>
      <trkpt lat="44.40325" lon="3.56402">
        <ele>836</ele>
        <time>2022-05-27T12:04:07Z</time>
      </trkpt>
      <trkpt lat="44.40326" lon="3.56401">
        <ele>837</ele>
        <time>2022-05-27T12:04:08Z</time>
      </trkpt>
      <trkpt lat="44.40326" lon="3.564">
        <ele>836</ele>
        <time>2022-05-27T12:04:09Z</time>
      </trkpt>
      <trkpt lat="44.40325" lon="3.56399">
        <ele>836</ele>
        <time>2022-05-27T12:04:10Z</time>
      </trkpt>
      <trkpt lat="44.40325" lon="3.56397">
        <ele>836</ele>
        <time>2022-05-27T12:04:11Z</time>
      </trkpt>
      <trkpt lat="44.40324" lon="3.56397">
        <ele>835</ele>
        <time>2022-05-27T12:04:12Z</time>
      </trkpt>
      <trkpt lat="44.40324" lon="3.56395">
        <ele>835</ele>
        <time>2022-05-27T12:04:13Z</time>
      </trkpt>
      <trkpt lat="44.40323" lon="3.56395">
        <ele>835</ele>
        <time>2022-05-27T12:04:14Z</time>
      </trkpt>
      <trkpt lat="44.40323" lon="3.56394">
        <ele>835</ele>
        <time>2022-05-27T12:04:15Z</time>
      </trkpt>
      <trkpt lat="44.40323" lon="3.56395">
        <ele>835</ele>
        <time>2022-05-27T12:04:16Z</time>
      </trkpt>
      <trkpt lat="44.40323" lon="3.56395">
        <ele>836</ele>
        <time>2022-05-27T12:04:17Z</time>
      </trkpt>
      <trkpt lat="44.40323" lon="3.56395">
        <ele>836</ele>
        <time>2022-05-27T12:04:18Z</time>
      </trkpt>
      <trkpt lat="44.40323" lon="3.56395">
        <ele>837</ele>
        <time>2022-05-27T12:04:19Z</time>
      </trkpt>
      <trkpt lat="44.40323" lon="3.56395">
        <ele>837</ele>
        <time>2022-05-27T12:04:19Z</time>
      </trkpt>
      <trkpt lat="44.40323" lon="3.56395">
        <ele>837</ele>
        <time>2022-05-27T12:04:19Z</time>
      </trkpt>
      <trkpt lat="44.40317" lon="3.56392">
        <ele>836</ele>
        <time>2022-05-27T12:04:29Z</time>
      </trkpt>
      <trkpt lat="44.40316" lon="3.56391">
        <ele>835</ele>
        <time>2022-05-27T12:04:30Z</time>
      </trkpt>
      <trkpt lat="44.40315" lon="3.56391">
        <ele>836</ele>
        <time>2022-05-27T12:04:31Z</time>
      </trkpt>
      <trkpt lat="44.40314" lon="3.5639">
        <ele>837</ele>
        <time>2022-05-27T12:04:32Z</time>
      </trkpt>
      <trkpt lat="44.40313" lon="3.56389">
        <ele>836</ele>
        <time>2022-05-27T12:04:33Z</time>
      </trkpt>
      <trkpt lat="44.40312" lon="3.56389">
        <ele>836</ele>
        <time>2022-05-27T12:04:34Z</time>
      </trkpt>
      <trkpt lat="44.40312" lon="3.5639">
        <ele>836</ele>
        <time>2022-05-27T12:04:35Z</time>
      </trkpt>
      <trkpt lat="44.40311" lon="3.56391">
        <ele>836</ele>
        <time>2022-05-27T12:04:36Z</time>
      </trkpt>
      <trkpt lat="44.4031" lon="3.56392">
        <ele>836</ele>
        <time>2022-05-27T12:04:37Z</time>
      </trkpt>
      <trkpt lat="44.40308" lon="3.56393">
        <ele>836</ele>
        <time>2022-05-27T12:04:38Z</time>
      </trkpt>
      <trkpt lat="44.40307" lon="3.56394">
        <ele>837</ele>
        <time>2022-05-27T12:04:39Z</time>
      </trkpt>
      <trkpt lat="44.40306" lon="3.56394">
        <ele>836</ele>
        <time>2022-05-27T12:04:40Z</time>
      </trkpt>
      <trkpt lat="44.40305" lon="3.56395">
        <ele>835</ele>
        <time>2022-05-27T12:04:41Z</time>
      </trkpt>
      <trkpt lat="44.40305" lon="3.56397">
        <ele>836</ele>
        <time>2022-05-27T12:04:42Z</time>
      </trkpt>
      <trkpt lat="44.40304" lon="3.56398">
        <ele>835</ele>
        <time>2022-05-27T12:04:43Z</time>
      </trkpt>
      <trkpt lat="44.40304" lon="3.564">
        <ele>834</ele>
        <time>2022-05-27T12:04:44Z</time>
      </trkpt>
      <trkpt lat="44.40303" lon="3.56401">
        <ele>833</ele>
        <time>2022-05-27T12:04:45Z</time>
      </trkpt>
      <trkpt lat="44.40303" lon="3.56403">
        <ele>832</ele>
        <time>2022-05-27T12:04:46Z</time>
      </trkpt>
      <trkpt lat="44.40302" lon="3.56405">
        <ele>832</ele>
        <time>2022-05-27T12:04:47Z</time>
      </trkpt>
      <trkpt lat="44.40302" lon="3.56406">
        <ele>832</ele>
        <time>2022-05-27T12:04:48Z</time>
      </trkpt>
      <trkpt lat="44.40301" lon="3.56407">
        <ele>831</ele>
        <time>2022-05-27T12:04:49Z</time>
      </trkpt>
      <trkpt lat="44.403" lon="3.56409">
        <ele>832</ele>
        <time>2022-05-27T12:04:50Z</time>
      </trkpt>
      <trkpt lat="44.403" lon="3.5641">
        <ele>832</ele>
        <time>2022-05-27T12:04:51Z</time>
      </trkpt>
      <trkpt lat="44.40299" lon="3.56412">
        <ele>831</ele>
        <time>2022-05-27T12:04:52Z</time>
      </trkpt>
      <trkpt lat="44.40299" lon="3.56412">
        <ele>831</ele>
        <time>2022-05-27T12:04:53Z</time>
      </trkpt>
      <trkpt lat="44.40297" lon="3.56413">
        <ele>831</ele>
        <time>2022-05-27T12:04:54Z</time>
      </trkpt>
      <trkpt lat="44.40297" lon="3.56413">
        <ele>831</ele>
        <time>2022-05-27T12:04:55Z</time>
      </trkpt>
      <trkpt lat="44.40296" lon="3.56414">
        <ele>831</ele>
        <time>2022-05-27T12:04:56Z</time>
      </trkpt>
      <trkpt lat="44.40295" lon="3.56414">
        <ele>832</ele>
        <time>2022-05-27T12:04:57Z</time>
      </trkpt>
      <trkpt lat="44.40294" lon="3.56414">
        <ele>832</ele>
        <time>2022-05-27T12:04:58Z</time>
      </trkpt>
      <trkpt lat="44.40294" lon="3.56415">
        <ele>832</ele>
        <time>2022-05-27T12:04:59Z</time>
      </trkpt>
      <trkpt lat="44.40294" lon="3.56414">
        <ele>831</ele>
        <time>2022-05-27T12:05:00Z</time>
      </trkpt>
      <trkpt lat="44.40293" lon="3.56414">
        <ele>831</ele>
        <time>2022-05-27T12:05:01Z</time>
      </trkpt>
      <trkpt lat="44.40292" lon="3.56414">
        <ele>830</ele>
        <time>2022-05-27T12:05:02Z</time>
      </trkpt>
      <trkpt lat="44.40292" lon="3.56415">
        <ele>830</ele>
        <time>2022-05-27T12:05:03Z</time>
      </trkpt>
      <trkpt lat="44.40292" lon="3.56415">
        <ele>830</ele>
        <time>2022-05-27T12:05:04Z</time>
      </trkpt>
      <trkpt lat="44.40292" lon="3.56415">
        <ele>830</ele>
        <time>2022-05-27T12:05:05Z</time>
      </trkpt>
      <trkpt lat="44.40292" lon="3.56415">
        <ele>830</ele>
        <time>2022-05-27T12:05:06Z</time>
      </trkpt>
      <trkpt lat="44.40292" lon="3.56415">
        <ele>830</ele>
        <time>2022-05-27T12:05:07Z</time>
      </trkpt>
      <trkpt lat="44.40292" lon="3.56415">
        <ele>830</ele>
        <time>2022-05-27T12:05:08Z</time>
      </trkpt>
      <trkpt lat="44.40292" lon="3.56415">
        <ele>830</ele>
        <time>2022-05-27T12:05:09Z</time>
      </trkpt>
      <trkpt lat="44.40289" lon="3.56416">
        <ele>831</ele>
        <time>2022-05-27T12:05:10Z</time>
      </trkpt>
      <trkpt lat="44.40287" lon="3.56417">
        <ele>830</ele>
        <time>2022-05-27T12:05:11Z</time>
      </trkpt>
      <trkpt lat="44.40286" lon="3.56418">
        <ele>830</ele>
        <time>2022-05-27T12:05:12Z</time>
      </trkpt>
      <trkpt lat="44.40286" lon="3.56418">
        <ele>830</ele>
        <time>2022-05-27T12:05:13Z</time>
      </trkpt>
      <trkpt lat="44.40285" lon="3.56418">
        <ele>830</ele>
        <time>2022-05-27T12:05:14Z</time>
      </trkpt>
      <trkpt lat="44.40284" lon="3.56418">
        <ele>830</ele>
        <time>2022-05-27T12:05:15Z</time>
      </trkpt>
      <trkpt lat="44.40283" lon="3.56418">
        <ele>830</ele>
        <time>2022-05-27T12:05:16Z</time>
      </trkpt>
      <trkpt lat="44.40283" lon="3.56418">
        <ele>830</ele>
        <time>2022-05-27T12:05:17Z</time>
      </trkpt>
      <trkpt lat="44.40283" lon="3.56418">
        <ele>830</ele>
        <time>2022-05-27T12:05:18Z</time>
      </trkpt>
      <trkpt lat="44.40281" lon="3.56417">
        <ele>830</ele>
        <time>2022-05-27T12:05:19Z</time>
      </trkpt>
      <trkpt lat="44.4028" lon="3.56416">
        <ele>830</ele>
        <time>2022-05-27T12:05:20Z</time>
      </trkpt>
      <trkpt lat="44.40279" lon="3.56416">
        <ele>829</ele>
        <time>2022-05-27T12:05:21Z</time>
      </trkpt>
      <trkpt lat="44.40278" lon="3.56415">
        <ele>829</ele>
        <time>2022-05-27T12:05:22Z</time>
      </trkpt>
      <trkpt lat="44.40277" lon="3.56415">
        <ele>830</ele>
        <time>2022-05-27T12:05:23Z</time>
      </trkpt>
      <trkpt lat="44.40276" lon="3.56414">
        <ele>830</ele>
        <time>2022-05-27T12:05:24Z</time>
      </trkpt>
      <trkpt lat="44.40275" lon="3.56413">
        <ele>830</ele>
        <time>2022-05-27T12:05:25Z</time>
      </trkpt>
      <trkpt lat="44.40274" lon="3.56411">
        <ele>830</ele>
        <time>2022-05-27T12:05:26Z</time>
      </trkpt>
      <trkpt lat="44.40274" lon="3.56411">
        <ele>830</ele>
        <time>2022-05-27T12:05:27Z</time>
      </trkpt>
      <trkpt lat="44.40274" lon="3.56409">
        <ele>829</ele>
        <time>2022-05-27T12:05:28Z</time>
      </trkpt>
      <trkpt lat="44.40274" lon="3.56408">
        <ele>830</ele>
        <time>2022-05-27T12:05:29Z</time>
      </trkpt>
      <trkpt lat="44.40273" lon="3.56408">
        <ele>829</ele>
        <time>2022-05-27T12:05:30Z</time>
      </trkpt>
      <trkpt lat="44.40273" lon="3.56407">
        <ele>830</ele>
        <time>2022-05-27T12:05:31Z</time>
      </trkpt>
      <trkpt lat="44.40273" lon="3.56406">
        <ele>830</ele>
        <time>2022-05-27T12:05:32Z</time>
      </trkpt>
      <trkpt lat="44.40273" lon="3.56406">
        <ele>830</ele>
        <time>2022-05-27T12:05:33Z</time>
      </trkpt>
      <trkpt lat="44.40273" lon="3.56405">
        <ele>829</ele>
        <time>2022-05-27T12:05:34Z</time>
      </trkpt>
      <trkpt lat="44.40272" lon="3.56404">
        <ele>829</ele>
        <time>2022-05-27T12:05:35Z</time>
      </trkpt>
      <trkpt lat="44.40272" lon="3.56404">
        <ele>829</ele>
        <time>2022-05-27T12:05:36Z</time>
      </trkpt>
      <trkpt lat="44.40272" lon="3.56404">
        <ele>829</ele>
        <time>2022-05-27T12:05:37Z</time>
      </trkpt>
      <trkpt lat="44.40272" lon="3.56404">
        <ele>829</ele>
        <time>2022-05-27T12:05:38Z</time>
      </trkpt>
      <trkpt lat="44.40272" lon="3.56404">
        <ele>829</ele>
        <time>2022-05-27T12:05:39Z</time>
      </trkpt>
      <trkpt lat="44.40272" lon="3.56404">
        <ele>829</ele>
        <time>2022-05-27T12:05:40Z</time>
      </trkpt>
      <trkpt lat="44.40271" lon="3.56401">
        <ele>827</ele>
        <time>2022-05-27T12:05:41Z</time>
      </trkpt>
      <trkpt lat="44.40271" lon="3.564">
        <ele>827</ele>
        <time>2022-05-27T12:05:42Z</time>
      </trkpt>
      <trkpt lat="44.40271" lon="3.56399">
        <ele>827</ele>
        <time>2022-05-27T12:05:43Z</time>
      </trkpt>
      <trkpt lat="44.40271" lon="3.56398">
        <ele>828</ele>
        <time>2022-05-27T12:05:44Z</time>
      </trkpt>
      <trkpt lat="44.40271" lon="3.56398">
        <ele>828</ele>
        <time>2022-05-27T12:05:45Z</time>
      </trkpt>
      <trkpt lat="44.40271" lon="3.56398">
        <ele>828</ele>
        <time>2022-05-27T12:05:46Z</time>
      </trkpt>
      <trkpt lat="44.40271" lon="3.56395">
        <ele>828</ele>
        <time>2022-05-27T12:05:47Z</time>
      </trkpt>
      <trkpt lat="44.40271" lon="3.56394">
        <ele>829</ele>
        <time>2022-05-27T12:05:48Z</time>
      </trkpt>
      <trkpt lat="44.40271" lon="3.56394">
        <ele>828</ele>
        <time>2022-05-27T12:05:49Z</time>
      </trkpt>
      <trkpt lat="44.40271" lon="3.56394">
        <ele>828</ele>
        <time>2022-05-27T12:05:50Z</time>
      </trkpt>
      <trkpt lat="44.4027" lon="3.56393">
        <ele>827</ele>
        <time>2022-05-27T12:05:51Z</time>
      </trkpt>
      <trkpt lat="44.40269" lon="3.56393">
        <ele>827</ele>
        <time>2022-05-27T12:05:52Z</time>
      </trkpt>
      <trkpt lat="44.40268" lon="3.56394">
        <ele>826</ele>
        <time>2022-05-27T12:05:53Z</time>
      </trkpt>
      <trkpt lat="44.40267" lon="3.56394">
        <ele>825</ele>
        <time>2022-05-27T12:05:54Z</time>
      </trkpt>
      <trkpt lat="44.40266" lon="3.56394">
        <ele>826</ele>
        <time>2022-05-27T12:05:55Z</time>
      </trkpt>
      <trkpt lat="44.40266" lon="3.56394">
        <ele>826</ele>
        <time>2022-05-27T12:05:56Z</time>
      </trkpt>
      <trkpt lat="44.40265" lon="3.56393">
        <ele>826</ele>
        <time>2022-05-27T12:05:57Z</time>
      </trkpt>
      <trkpt lat="44.40265" lon="3.56392">
        <ele>826</ele>
        <time>2022-05-27T12:05:58Z</time>
      </trkpt>
      <trkpt lat="44.40264" lon="3.56392">
        <ele>825</ele>
        <time>2022-05-27T12:05:59Z</time>
      </trkpt>
      <trkpt lat="44.40263" lon="3.56391">
        <ele>824</ele>
        <time>2022-05-27T12:06:00Z</time>
      </trkpt>
      <trkpt lat="44.40262" lon="3.5639">
        <ele>824</ele>
        <time>2022-05-27T12:06:01Z</time>
      </trkpt>
      <trkpt lat="44.40262" lon="3.5639">
        <ele>824</ele>
        <time>2022-05-27T12:06:02Z</time>
      </trkpt>
      <trkpt lat="44.40261" lon="3.5639">
        <ele>824</ele>
        <time>2022-05-27T12:06:03Z</time>
      </trkpt>
      <trkpt lat="44.40261" lon="3.56389">
        <ele>824</ele>
        <time>2022-05-27T12:06:04Z</time>
      </trkpt>
      <trkpt lat="44.40261" lon="3.56389">
        <ele>824</ele>
        <time>2022-05-27T12:06:04Z</time>
      </trkpt>
      <trkpt lat="44.40261" lon="3.56389">
        <ele>824</ele>
        <time>2022-05-27T12:06:04Z</time>
      </trkpt>
      <trkpt lat="44.40262" lon="3.56381">
        <ele>820</ele>
        <time>2022-05-27T12:06:12Z</time>
      </trkpt>
      <trkpt lat="44.40263" lon="3.5638">
        <ele>820</ele>
        <time>2022-05-27T12:06:13Z</time>
      </trkpt>
      <trkpt lat="44.40263" lon="3.56379">
        <ele>820</ele>
        <time>2022-05-27T12:06:14Z</time>
      </trkpt>
      <trkpt lat="44.40263" lon="3.56378">
        <ele>820</ele>
        <time>2022-05-27T12:06:15Z</time>
      </trkpt>
      <trkpt lat="44.40263" lon="3.56377">
        <ele>820</ele>
        <time>2022-05-27T12:06:16Z</time>
      </trkpt>
      <trkpt lat="44.40264" lon="3.56376">
        <ele>820</ele>
        <time>2022-05-27T12:06:17Z</time>
      </trkpt>
      <trkpt lat="44.40264" lon="3.56375">
        <ele>821</ele>
        <time>2022-05-27T12:06:18Z</time>
      </trkpt>
      <trkpt lat="44.40264" lon="3.56374">
        <ele>821</ele>
        <time>2022-05-27T12:06:19Z</time>
      </trkpt>
      <trkpt lat="44.40265" lon="3.56373">
        <ele>820</ele>
        <time>2022-05-27T12:06:20Z</time>
      </trkpt>
      <trkpt lat="44.40265" lon="3.56372">
        <ele>820</ele>
        <time>2022-05-27T12:06:21Z</time>
      </trkpt>
      <trkpt lat="44.40265" lon="3.5637">
        <ele>819</ele>
        <time>2022-05-27T12:06:22Z</time>
      </trkpt>
      <trkpt lat="44.40265" lon="3.56369">
        <ele>819</ele>
        <time>2022-05-27T12:06:23Z</time>
      </trkpt>
      <trkpt lat="44.40265" lon="3.56368">
        <ele>819</ele>
        <time>2022-05-27T12:06:24Z</time>
      </trkpt>
      <trkpt lat="44.40266" lon="3.56367">
        <ele>820</ele>
        <time>2022-05-27T12:06:25Z</time>
      </trkpt>
      <trkpt lat="44.40266" lon="3.56365">
        <ele>820</ele>
        <time>2022-05-27T12:06:26Z</time>
      </trkpt>
      <trkpt lat="44.40266" lon="3.56364">
        <ele>820</ele>
        <time>2022-05-27T12:06:27Z</time>
      </trkpt>
      <trkpt lat="44.40266" lon="3.56363">
        <ele>820</ele>
        <time>2022-05-27T12:06:28Z</time>
      </trkpt>
      <trkpt lat="44.40266" lon="3.56361">
        <ele>820</ele>
        <time>2022-05-27T12:06:29Z</time>
      </trkpt>
      <trkpt lat="44.40266" lon="3.5636">
        <ele>820</ele>
        <time>2022-05-27T12:06:30Z</time>
      </trkpt>
      <trkpt lat="44.40266" lon="3.56358">
        <ele>820</ele>
        <time>2022-05-27T12:06:31Z</time>
      </trkpt>
      <trkpt lat="44.40266" lon="3.56356">
        <ele>821</ele>
        <time>2022-05-27T12:06:32Z</time>
      </trkpt>
      <trkpt lat="44.40265" lon="3.56355">
        <ele>821</ele>
        <time>2022-05-27T12:06:33Z</time>
      </trkpt>
      <trkpt lat="44.40265" lon="3.56354">
        <ele>821</ele>
        <time>2022-05-27T12:06:34Z</time>
      </trkpt>
      <trkpt lat="44.40265" lon="3.56353">
        <ele>821</ele>
        <time>2022-05-27T12:06:35Z</time>
      </trkpt>
      <trkpt lat="44.40265" lon="3.56352">
        <ele>822</ele>
        <time>2022-05-27T12:06:36Z</time>
      </trkpt>
      <trkpt lat="44.40265" lon="3.56352">
        <ele>822</ele>
        <time>2022-05-27T12:06:37Z</time>
      </trkpt>
      <trkpt lat="44.40266" lon="3.5635">
        <ele>822</ele>
        <time>2022-05-27T12:06:38Z</time>
      </trkpt>
      <trkpt lat="44.40266" lon="3.5635">
        <ele>821</ele>
        <time>2022-05-27T12:06:39Z</time>
      </trkpt>
      <trkpt lat="44.40266" lon="3.56349">
        <ele>821</ele>
        <time>2022-05-27T12:06:40Z</time>
      </trkpt>
      <trkpt lat="44.40266" lon="3.56348">
        <ele>821</ele>
        <time>2022-05-27T12:06:41Z</time>
      </trkpt>
      <trkpt lat="44.40266" lon="3.56348">
        <ele>821</ele>
        <time>2022-05-27T12:06:42Z</time>
      </trkpt>
      <trkpt lat="44.40265" lon="3.56347">
        <ele>821</ele>
        <time>2022-05-27T12:06:43Z</time>
      </trkpt>
      <trkpt lat="44.40265" lon="3.56347">
        <ele>820</ele>
        <time>2022-05-27T12:06:44Z</time>
      </trkpt>
      <trkpt lat="44.40264" lon="3.56346">
        <ele>820</ele>
        <time>2022-05-27T12:06:45Z</time>
      </trkpt>
      <trkpt lat="44.40263" lon="3.56344">
        <ele>820</ele>
        <time>2022-05-27T12:06:46Z</time>
      </trkpt>
      <trkpt lat="44.40262" lon="3.56343">
        <ele>820</ele>
        <time>2022-05-27T12:06:47Z</time>
      </trkpt>
      <trkpt lat="44.40261" lon="3.56343">
        <ele>820</ele>
        <time>2022-05-27T12:06:48Z</time>
      </trkpt>
      <trkpt lat="44.4026" lon="3.56342">
        <ele>819</ele>
        <time>2022-05-27T12:06:49Z</time>
      </trkpt>
      <trkpt lat="44.4026" lon="3.56341">
        <ele>819</ele>
        <time>2022-05-27T12:06:50Z</time>
      </trkpt>
      <trkpt lat="44.40259" lon="3.5634">
        <ele>819</ele>
        <time>2022-05-27T12:06:51Z</time>
      </trkpt>
      <trkpt lat="44.40259" lon="3.56339">
        <ele>819</ele>
        <time>2022-05-27T12:06:52Z</time>
      </trkpt>
      <trkpt lat="44.40259" lon="3.56338">
        <ele>819</ele>
        <time>2022-05-27T12:06:53Z</time>
      </trkpt>
      <trkpt lat="44.40258" lon="3.56337">
        <ele>819</ele>
        <time>2022-05-27T12:06:54Z</time>
      </trkpt>
      <trkpt lat="44.40258" lon="3.56336">
        <ele>819</ele>
        <time>2022-05-27T12:06:55Z</time>
      </trkpt>
      <trkpt lat="44.40257" lon="3.56335">
        <ele>819</ele>
        <time>2022-05-27T12:06:56Z</time>
      </trkpt>
      <trkpt lat="44.40257" lon="3.56334">
        <ele>820</ele>
        <time>2022-05-27T12:06:57Z</time>
      </trkpt>
      <trkpt lat="44.40256" lon="3.56333">
        <ele>819</ele>
        <time>2022-05-27T12:06:58Z</time>
      </trkpt>
      <trkpt lat="44.40255" lon="3.56331">
        <ele>820</ele>
        <time>2022-05-27T12:06:59Z</time>
      </trkpt>
      <trkpt lat="44.40255" lon="3.5633">
        <ele>820</ele>
        <time>2022-05-27T12:07:00Z</time>
      </trkpt>
      <trkpt lat="44.40255" lon="3.56329">
        <ele>819</ele>
        <time>2022-05-27T12:07:01Z</time>
      </trkpt>
      <trkpt lat="44.40254" lon="3.56328">
        <ele>819</ele>
        <time>2022-05-27T12:07:02Z</time>
      </trkpt>
      <trkpt lat="44.40254" lon="3.56327">
        <ele>820</ele>
        <time>2022-05-27T12:07:03Z</time>
      </trkpt>
      <trkpt lat="44.40253" lon="3.56326">
        <ele>819</ele>
        <time>2022-05-27T12:07:04Z</time>
      </trkpt>
      <trkpt lat="44.40252" lon="3.56326">
        <ele>820</ele>
        <time>2022-05-27T12:07:05Z</time>
      </trkpt>
      <trkpt lat="44.40252" lon="3.56325">
        <ele>820</ele>
        <time>2022-05-27T12:07:06Z</time>
      </trkpt>
      <trkpt lat="44.40251" lon="3.56324">
        <ele>820</ele>
        <time>2022-05-27T12:07:07Z</time>
      </trkpt>
      <trkpt lat="44.4025" lon="3.56323">
        <ele>820</ele>
        <time>2022-05-27T12:07:08Z</time>
      </trkpt>
      <trkpt lat="44.4025" lon="3.56322">
        <ele>820</ele>
        <time>2022-05-27T12:07:09Z</time>
      </trkpt>
      <trkpt lat="44.40249" lon="3.5632">
        <ele>820</ele>
        <time>2022-05-27T12:07:10Z</time>
      </trkpt>
      <trkpt lat="44.40249" lon="3.56319">
        <ele>820</ele>
        <time>2022-05-27T12:07:11Z</time>
      </trkpt>
      <trkpt lat="44.40249" lon="3.56318">
        <ele>819</ele>
        <time>2022-05-27T12:07:12Z</time>
      </trkpt>
      <trkpt lat="44.40249" lon="3.56318">
        <ele>819</ele>
        <time>2022-05-27T12:07:13Z</time>
      </trkpt>
      <trkpt lat="44.40249" lon="3.56318">
        <ele>819</ele>
        <time>2022-05-27T12:07:14Z</time>
      </trkpt>
      <trkpt lat="44.40247" lon="3.56318">
        <ele>819</ele>
        <time>2022-05-27T12:07:15Z</time>
      </trkpt>
      <trkpt lat="44.40245" lon="3.56318">
        <ele>820</ele>
        <time>2022-05-27T12:07:16Z</time>
      </trkpt>
      <trkpt lat="44.40245" lon="3.56318">
        <ele>820</ele>
        <time>2022-05-27T12:07:17Z</time>
      </trkpt>
      <trkpt lat="44.40244" lon="3.56318">
        <ele>819</ele>
        <time>2022-05-27T12:07:18Z</time>
      </trkpt>
      <trkpt lat="44.40242" lon="3.56317">
        <ele>818</ele>
        <time>2022-05-27T12:07:19Z</time>
      </trkpt>
      <trkpt lat="44.40241" lon="3.56318">
        <ele>818</ele>
        <time>2022-05-27T12:07:20Z</time>
      </trkpt>
      <trkpt lat="44.40239" lon="3.56318">
        <ele>818</ele>
        <time>2022-05-27T12:07:21Z</time>
      </trkpt>
      <trkpt lat="44.40237" lon="3.56318">
        <ele>817</ele>
        <time>2022-05-27T12:07:22Z</time>
      </trkpt>
      <trkpt lat="44.40236" lon="3.56319">
        <ele>817</ele>
        <time>2022-05-27T12:07:23Z</time>
      </trkpt>
      <trkpt lat="44.40235" lon="3.56319">
        <ele>818</ele>
        <time>2022-05-27T12:07:24Z</time>
      </trkpt>
      <trkpt lat="44.40234" lon="3.5632">
        <ele>818</ele>
        <time>2022-05-27T12:07:25Z</time>
      </trkpt>
      <trkpt lat="44.40233" lon="3.5632">
        <ele>819</ele>
        <time>2022-05-27T12:07:26Z</time>
      </trkpt>
      <trkpt lat="44.40232" lon="3.5632">
        <ele>819</ele>
        <time>2022-05-27T12:07:27Z</time>
      </trkpt>
      <trkpt lat="44.40231" lon="3.56319">
        <ele>818</ele>
        <time>2022-05-27T12:07:28Z</time>
      </trkpt>
      <trkpt lat="44.40231" lon="3.56319">
        <ele>818</ele>
        <time>2022-05-27T12:07:29Z</time>
      </trkpt>
      <trkpt lat="44.40231" lon="3.56319">
        <ele>818</ele>
        <time>2022-05-27T12:07:30Z</time>
      </trkpt>
      <trkpt lat="44.40228" lon="3.56317">
        <ele>818</ele>
        <time>2022-05-27T12:07:31Z</time>
      </trkpt>
      <trkpt lat="44.40227" lon="3.56317">
        <ele>818</ele>
        <time>2022-05-27T12:07:32Z</time>
      </trkpt>
      <trkpt lat="44.40226" lon="3.56316">
        <ele>818</ele>
        <time>2022-05-27T12:07:33Z</time>
      </trkpt>
      <trkpt lat="44.40225" lon="3.56316">
        <ele>819</ele>
        <time>2022-05-27T12:07:34Z</time>
      </trkpt>
      <trkpt lat="44.40225" lon="3.56316">
        <ele>819</ele>
        <time>2022-05-27T12:07:35Z</time>
      </trkpt>
      <trkpt lat="44.40225" lon="3.56316">
        <ele>819</ele>
        <time>2022-05-27T12:07:36Z</time>
      </trkpt>
      <trkpt lat="44.40223" lon="3.56317">
        <ele>818</ele>
        <time>2022-05-27T12:07:37Z</time>
      </trkpt>
      <trkpt lat="44.40221" lon="3.56318">
        <ele>817</ele>
        <time>2022-05-27T12:07:38Z</time>
      </trkpt>
      <trkpt lat="44.40221" lon="3.56318">
        <ele>817</ele>
        <time>2022-05-27T12:07:39Z</time>
      </trkpt>
      <trkpt lat="44.4022" lon="3.56319">
        <ele>818</ele>
        <time>2022-05-27T12:07:40Z</time>
      </trkpt>
      <trkpt lat="44.40219" lon="3.5632">
        <ele>818</ele>
        <time>2022-05-27T12:07:41Z</time>
      </trkpt>
      <trkpt lat="44.40217" lon="3.56321">
        <ele>819</ele>
        <time>2022-05-27T12:07:42Z</time>
      </trkpt>
      <trkpt lat="44.40216" lon="3.56322">
        <ele>819</ele>
        <time>2022-05-27T12:07:43Z</time>
      </trkpt>
      <trkpt lat="44.40215" lon="3.56323">
        <ele>820</ele>
        <time>2022-05-27T12:07:44Z</time>
      </trkpt>
      <trkpt lat="44.40214" lon="3.56324">
        <ele>820</ele>
        <time>2022-05-27T12:07:45Z</time>
      </trkpt>
      <trkpt lat="44.40214" lon="3.56324">
        <ele>820</ele>
        <time>2022-05-27T12:07:46Z</time>
      </trkpt>
      <trkpt lat="44.40213" lon="3.56325">
        <ele>820</ele>
        <time>2022-05-27T12:07:47Z</time>
      </trkpt>
      <trkpt lat="44.40212" lon="3.56326">
        <ele>820</ele>
        <time>2022-05-27T12:07:48Z</time>
      </trkpt>
      <trkpt lat="44.4021" lon="3.56326">
        <ele>821</ele>
        <time>2022-05-27T12:07:49Z</time>
      </trkpt>
      <trkpt lat="44.40209" lon="3.56326">
        <ele>821</ele>
        <time>2022-05-27T12:07:50Z</time>
      </trkpt>
      <trkpt lat="44.40208" lon="3.56325">
        <ele>821</ele>
        <time>2022-05-27T12:07:51Z</time>
      </trkpt>
      <trkpt lat="44.40208" lon="3.56325">
        <ele>821</ele>
        <time>2022-05-27T12:07:51Z</time>
      </trkpt>
      <trkpt lat="44.40208" lon="3.56325">
        <ele>821</ele>
        <time>2022-05-27T12:07:51Z</time>
      </trkpt>
      <trkpt lat="44.40208" lon="3.56325">
        <ele>821</ele>
        <time>2022-05-27T12:07:51Z</time>
      </trkpt>
      <trkpt lat="44.40208" lon="3.56327">
        <ele>821</ele>
        <time>2022-05-27T12:07:58Z</time>
      </trkpt>
      <trkpt lat="44.40208" lon="3.56328">
        <ele>821</ele>
        <time>2022-05-27T12:07:59Z</time>
      </trkpt>
      <trkpt lat="44.40207" lon="3.56329">
        <ele>820</ele>
        <time>2022-05-27T12:08:00Z</time>
      </trkpt>
      <trkpt lat="44.40207" lon="3.56329">
        <ele>820</ele>
        <time>2022-05-27T12:08:01Z</time>
      </trkpt>
      <trkpt lat="44.40207" lon="3.56329">
        <ele>820</ele>
        <time>2022-05-27T12:08:02Z</time>
      </trkpt>
      <trkpt lat="44.40205" lon="3.56333">
        <ele>822</ele>
        <time>2022-05-27T12:08:03Z</time>
      </trkpt>
      <trkpt lat="44.40204" lon="3.56333">
        <ele>823</ele>
        <time>2022-05-27T12:08:04Z</time>
      </trkpt>
      <trkpt lat="44.40204" lon="3.56334">
        <ele>824</ele>
        <time>2022-05-27T12:08:05Z</time>
      </trkpt>
      <trkpt lat="44.40203" lon="3.56334">
        <ele>824</ele>
        <time>2022-05-27T12:08:06Z</time>
      </trkpt>
      <trkpt lat="44.40203" lon="3.56334">
        <ele>824</ele>
        <time>2022-05-27T12:08:07Z</time>
      </trkpt>
      <trkpt lat="44.40203" lon="3.56334">
        <ele>824</ele>
        <time>2022-05-27T12:08:08Z</time>
      </trkpt>
      <trkpt lat="44.402" lon="3.56337">
        <ele>824</ele>
        <time>2022-05-27T12:08:09Z</time>
      </trkpt>
      <trkpt lat="44.40199" lon="3.56337">
        <ele>824</ele>
        <time>2022-05-27T12:08:10Z</time>
      </trkpt>
      <trkpt lat="44.40198" lon="3.56339">
        <ele>824</ele>
        <time>2022-05-27T12:08:11Z</time>
      </trkpt>
      <trkpt lat="44.40197" lon="3.5634">
        <ele>824</ele>
        <time>2022-05-27T12:08:12Z</time>
      </trkpt>
      <trkpt lat="44.40196" lon="3.56341">
        <ele>824</ele>
        <time>2022-05-27T12:08:13Z</time>
      </trkpt>
      <trkpt lat="44.40195" lon="3.56343">
        <ele>823</ele>
        <time>2022-05-27T12:08:14Z</time>
      </trkpt>
      <trkpt lat="44.40194" lon="3.56344">
        <ele>823</ele>
        <time>2022-05-27T12:08:15Z</time>
      </trkpt>
      <trkpt lat="44.40193" lon="3.56345">
        <ele>823</ele>
        <time>2022-05-27T12:08:16Z</time>
      </trkpt>
      <trkpt lat="44.40192" lon="3.56345">
        <ele>824</ele>
        <time>2022-05-27T12:08:17Z</time>
      </trkpt>
      <trkpt lat="44.40191" lon="3.56347">
        <ele>823</ele>
        <time>2022-05-27T12:08:18Z</time>
      </trkpt>
      <trkpt lat="44.40189" lon="3.56348">
        <ele>823</ele>
        <time>2022-05-27T12:08:19Z</time>
      </trkpt>
      <trkpt lat="44.40188" lon="3.56349">
        <ele>822</ele>
        <time>2022-05-27T12:08:20Z</time>
      </trkpt>
      <trkpt lat="44.40188" lon="3.56351">
        <ele>822</ele>
        <time>2022-05-27T12:08:21Z</time>
      </trkpt>
      <trkpt lat="44.40187" lon="3.56352">
        <ele>822</ele>
        <time>2022-05-27T12:08:22Z</time>
      </trkpt>
      <trkpt lat="44.40186" lon="3.56353">
        <ele>821</ele>
        <time>2022-05-27T12:08:23Z</time>
      </trkpt>
      <trkpt lat="44.40185" lon="3.56354">
        <ele>821</ele>
        <time>2022-05-27T12:08:24Z</time>
      </trkpt>
      <trkpt lat="44.40184" lon="3.56355">
        <ele>821</ele>
        <time>2022-05-27T12:08:25Z</time>
      </trkpt>
      <trkpt lat="44.40184" lon="3.56356">
        <ele>821</ele>
        <time>2022-05-27T12:08:26Z</time>
      </trkpt>
      <trkpt lat="44.40183" lon="3.56356">
        <ele>821</ele>
        <time>2022-05-27T12:08:27Z</time>
      </trkpt>
      <trkpt lat="44.40183" lon="3.56356">
        <ele>821</ele>
        <time>2022-05-27T12:08:28Z</time>
      </trkpt>
      <trkpt lat="44.40183" lon="3.56356">
        <ele>821</ele>
        <time>2022-05-27T12:08:29Z</time>
      </trkpt>
      <trkpt lat="44.40182" lon="3.56358">
        <ele>819</ele>
        <time>2022-05-27T12:08:30Z</time>
      </trkpt>
      <trkpt lat="44.40181" lon="3.56359">
        <ele>819</ele>
        <time>2022-05-27T12:08:31Z</time>
      </trkpt>
      <trkpt lat="44.4018" lon="3.56359">
        <ele>819</ele>
        <time>2022-05-27T12:08:32Z</time>
      </trkpt>
      <trkpt lat="44.4018" lon="3.56361">
        <ele>819</ele>
        <time>2022-05-27T12:08:33Z</time>
      </trkpt>
      <trkpt lat="44.4018" lon="3.56361">
        <ele>819</ele>
        <time>2022-05-27T12:08:34Z</time>
      </trkpt>
      <trkpt lat="44.4018" lon="3.56361">
        <ele>819</ele>
        <time>2022-05-27T12:08:35Z</time>
      </trkpt>
      <trkpt lat="44.40177" lon="3.56364">
        <ele>819</ele>
        <time>2022-05-27T12:08:36Z</time>
      </trkpt>
      <trkpt lat="44.40177" lon="3.56365">
        <ele>819</ele>
        <time>2022-05-27T12:08:37Z</time>
      </trkpt>
      <trkpt lat="44.40177" lon="3.56365">
        <ele>819</ele>
        <time>2022-05-27T12:08:37Z</time>
      </trkpt>
      <trkpt lat="44.40175" lon="3.56366">
        <ele>819</ele>
        <time>2022-05-27T12:08:39Z</time>
      </trkpt>
      <trkpt lat="44.40175" lon="3.56366">
        <ele>819</ele>
        <time>2022-05-27T12:08:39Z</time>
      </trkpt>
      <trkpt lat="44.40173" lon="3.56367">
        <ele>817</ele>
        <time>2022-05-27T12:08:41Z</time>
      </trkpt>
      <trkpt lat="44.40172" lon="3.56368">
        <ele>816</ele>
        <time>2022-05-27T12:08:42Z</time>
      </trkpt>
      <trkpt lat="44.40171" lon="3.56368">
        <ele>817</ele>
        <time>2022-05-27T12:08:43Z</time>
      </trkpt>
      <trkpt lat="44.4017" lon="3.56369">
        <ele>817</ele>
        <time>2022-05-27T12:08:44Z</time>
      </trkpt>
      <trkpt lat="44.4017" lon="3.56369">
        <ele>817</ele>
        <time>2022-05-27T12:08:44Z</time>
      </trkpt>
      <trkpt lat="44.40168" lon="3.5637">
        <ele>817</ele>
        <time>2022-05-27T12:08:46Z</time>
      </trkpt>
      <trkpt lat="44.40168" lon="3.5637">
        <ele>817</ele>
        <time>2022-05-27T12:08:46Z</time>
      </trkpt>
      <trkpt lat="44.40166" lon="3.56372">
        <ele>817</ele>
        <time>2022-05-27T12:08:48Z</time>
      </trkpt>
      <trkpt lat="44.40165" lon="3.56372">
        <ele>817</ele>
        <time>2022-05-27T12:08:49Z</time>
      </trkpt>
      <trkpt lat="44.40164" lon="3.56372">
        <ele>818</ele>
        <time>2022-05-27T12:08:50Z</time>
      </trkpt>
      <trkpt lat="44.40162" lon="3.56373">
        <ele>817</ele>
        <time>2022-05-27T12:08:51Z</time>
      </trkpt>
      <trkpt lat="44.40161" lon="3.56373">
        <ele>817</ele>
        <time>2022-05-27T12:08:52Z</time>
      </trkpt>
      <trkpt lat="44.4016" lon="3.56373">
        <ele>817</ele>
        <time>2022-05-27T12:08:53Z</time>
      </trkpt>
      <trkpt lat="44.40157" lon="3.56374">
        <ele>816</ele>
        <time>2022-05-27T12:08:54Z</time>
      </trkpt>
      <trkpt lat="44.40157" lon="3.56374">
        <ele>816</ele>
        <time>2022-05-27T12:08:54Z</time>
      </trkpt>
      <trkpt lat="44.40156" lon="3.56374">
        <ele>815</ele>
        <time>2022-05-27T12:08:56Z</time>
      </trkpt>
      <trkpt lat="44.40155" lon="3.56374">
        <ele>816</ele>
        <time>2022-05-27T12:08:57Z</time>
      </trkpt>
      <trkpt lat="44.40154" lon="3.56375">
        <ele>816</ele>
        <time>2022-05-27T12:08:58Z</time>
      </trkpt>
      <trkpt lat="44.40153" lon="3.56375">
        <ele>815</ele>
        <time>2022-05-27T12:08:59Z</time>
      </trkpt>
      <trkpt lat="44.40152" lon="3.56375">
        <ele>814</ele>
        <time>2022-05-27T12:09:00Z</time>
      </trkpt>
      <trkpt lat="44.40151" lon="3.56375">
        <ele>813</ele>
        <time>2022-05-27T12:09:01Z</time>
      </trkpt>
      <trkpt lat="44.4015" lon="3.56375">
        <ele>812</ele>
        <time>2022-05-27T12:09:02Z</time>
      </trkpt>
      <trkpt lat="44.4015" lon="3.56375">
        <ele>812</ele>
        <time>2022-05-27T12:09:02Z</time>
      </trkpt>
      <trkpt lat="44.4015" lon="3.56375">
        <ele>812</ele>
        <time>2022-05-27T12:09:04Z</time>
      </trkpt>
      <trkpt lat="44.40146" lon="3.56376">
        <ele>810</ele>
        <time>2022-05-27T12:09:05Z</time>
      </trkpt>
      <trkpt lat="44.40145" lon="3.56376">
        <ele>810</ele>
        <time>2022-05-27T12:09:06Z</time>
      </trkpt>
      <trkpt lat="44.40145" lon="3.56376">
        <ele>810</ele>
        <time>2022-05-27T12:09:06Z</time>
      </trkpt>
      <trkpt lat="44.40143" lon="3.56377">
        <ele>810</ele>
        <time>2022-05-27T12:09:08Z</time>
      </trkpt>
      <trkpt lat="44.40143" lon="3.56377">
        <ele>810</ele>
        <time>2022-05-27T12:09:08Z</time>
      </trkpt>
      <trkpt lat="44.40142" lon="3.56377">
        <ele>809</ele>
        <time>2022-05-27T12:09:09Z</time>
      </trkpt>
      <trkpt lat="44.40142" lon="3.56378">
        <ele>809</ele>
        <time>2022-05-27T12:09:10Z</time>
      </trkpt>
      <trkpt lat="44.40141" lon="3.56378">
        <ele>809</ele>
        <time>2022-05-27T12:09:11Z</time>
      </trkpt>
      <trkpt lat="44.40141" lon="3.56378">
        <ele>809</ele>
        <time>2022-05-27T12:09:13Z</time>
      </trkpt>
      <trkpt lat="44.4014" lon="3.56378">
        <ele>810</ele>
        <time>2022-05-27T12:09:14Z</time>
      </trkpt>
      <trkpt lat="44.40141" lon="3.56378">
        <ele>810</ele>
        <time>2022-05-27T12:09:15Z</time>
      </trkpt>
      <trkpt lat="44.40141" lon="3.56378">
        <ele>810</ele>
        <time>2022-05-27T12:09:15Z</time>
      </trkpt>
      <trkpt lat="44.4014" lon="3.56378">
        <ele>809</ele>
        <time>2022-05-27T12:09:16Z</time>
      </trkpt>
      <trkpt lat="44.40139" lon="3.56377">
        <ele>807</ele>
        <time>2022-05-27T12:09:17Z</time>
      </trkpt>
      <trkpt lat="44.40138" lon="3.56377">
        <ele>807</ele>
        <time>2022-05-27T12:09:18Z</time>
      </trkpt>
      <trkpt lat="44.40136" lon="3.56378">
        <ele>806</ele>
        <time>2022-05-27T12:09:19Z</time>
      </trkpt>
      <trkpt lat="44.40136" lon="3.56378">
        <ele>806</ele>
        <time>2022-05-27T12:09:19Z</time>
      </trkpt>
      <trkpt lat="44.40134" lon="3.56378">
        <ele>805</ele>
        <time>2022-05-27T12:09:21Z</time>
      </trkpt>
      <trkpt lat="44.40133" lon="3.56379">
        <ele>805</ele>
        <time>2022-05-27T12:09:22Z</time>
      </trkpt>
      <trkpt lat="44.40131" lon="3.5638">
        <ele>805</ele>
        <time>2022-05-27T12:09:23Z</time>
      </trkpt>
      <trkpt lat="44.4013" lon="3.5638">
        <ele>804</ele>
        <time>2022-05-27T12:09:24Z</time>
      </trkpt>
      <trkpt lat="44.4013" lon="3.56382">
        <ele>804</ele>
        <time>2022-05-27T12:09:25Z</time>
      </trkpt>
      <trkpt lat="44.40129" lon="3.56383">
        <ele>803</ele>
        <time>2022-05-27T12:09:26Z</time>
      </trkpt>
      <trkpt lat="44.40128" lon="3.56384">
        <ele>803</ele>
        <time>2022-05-27T12:09:27Z</time>
      </trkpt>
      <trkpt lat="44.40127" lon="3.56385">
        <ele>804</ele>
        <time>2022-05-27T12:09:28Z</time>
      </trkpt>
      <trkpt lat="44.40126" lon="3.56386">
        <ele>804</ele>
        <time>2022-05-27T12:09:29Z</time>
      </trkpt>
      <trkpt lat="44.40125" lon="3.56387">
        <ele>804</ele>
        <time>2022-05-27T12:09:30Z</time>
      </trkpt>
      <trkpt lat="44.40124" lon="3.56388">
        <ele>804</ele>
        <time>2022-05-27T12:09:31Z</time>
      </trkpt>
      <trkpt lat="44.40123" lon="3.56389">
        <ele>805</ele>
        <time>2022-05-27T12:09:32Z</time>
      </trkpt>
      <trkpt lat="44.40123" lon="3.5639">
        <ele>805</ele>
        <time>2022-05-27T12:09:33Z</time>
      </trkpt>
      <trkpt lat="44.40122" lon="3.5639">
        <ele>805</ele>
        <time>2022-05-27T12:09:34Z</time>
      </trkpt>
      <trkpt lat="44.40122" lon="3.5639">
        <ele>805</ele>
        <time>2022-05-27T12:09:35Z</time>
      </trkpt>
      <trkpt lat="44.40122" lon="3.5639">
        <ele>805</ele>
        <time>2022-05-27T12:09:36Z</time>
      </trkpt>
      <trkpt lat="44.40121" lon="3.56392">
        <ele>805</ele>
        <time>2022-05-27T12:09:37Z</time>
      </trkpt>
      <trkpt lat="44.4012" lon="3.56393">
        <ele>806</ele>
        <time>2022-05-27T12:09:38Z</time>
      </trkpt>
      <trkpt lat="44.4012" lon="3.56394">
        <ele>806</ele>
        <time>2022-05-27T12:09:39Z</time>
      </trkpt>
      <trkpt lat="44.40119" lon="3.56395">
        <ele>806</ele>
        <time>2022-05-27T12:09:40Z</time>
      </trkpt>
      <trkpt lat="44.40119" lon="3.56395">
        <ele>806</ele>
        <time>2022-05-27T12:09:41Z</time>
      </trkpt>
      <trkpt lat="44.40119" lon="3.56395">
        <ele>806</ele>
        <time>2022-05-27T12:09:42Z</time>
      </trkpt>
      <trkpt lat="44.40117" lon="3.56398">
        <ele>806</ele>
        <time>2022-05-27T12:09:43Z</time>
      </trkpt>
      <trkpt lat="44.40115" lon="3.56399">
        <ele>807</ele>
        <time>2022-05-27T12:09:44Z</time>
      </trkpt>
      <trkpt lat="44.40115" lon="3.56401">
        <ele>808</ele>
        <time>2022-05-27T12:09:45Z</time>
      </trkpt>
      <trkpt lat="44.40115" lon="3.56402">
        <ele>808</ele>
        <time>2022-05-27T12:09:46Z</time>
      </trkpt>
      <trkpt lat="44.40115" lon="3.56402">
        <ele>808</ele>
        <time>2022-05-27T12:09:47Z</time>
      </trkpt>
      <trkpt lat="44.40115" lon="3.56402">
        <ele>808</ele>
        <time>2022-05-27T12:09:48Z</time>
      </trkpt>
      <trkpt lat="44.40113" lon="3.56405">
        <ele>808</ele>
        <time>2022-05-27T12:09:49Z</time>
      </trkpt>
      <trkpt lat="44.40113" lon="3.56407">
        <ele>808</ele>
        <time>2022-05-27T12:09:50Z</time>
      </trkpt>
      <trkpt lat="44.40112" lon="3.56409">
        <ele>810</ele>
        <time>2022-05-27T12:09:51Z</time>
      </trkpt>
      <trkpt lat="44.40112" lon="3.5641">
        <ele>810</ele>
        <time>2022-05-27T12:09:52Z</time>
      </trkpt>
      <trkpt lat="44.40111" lon="3.56412">
        <ele>810</ele>
        <time>2022-05-27T12:09:53Z</time>
      </trkpt>
      <trkpt lat="44.40111" lon="3.56414">
        <ele>811</ele>
        <time>2022-05-27T12:09:54Z</time>
      </trkpt>
      <trkpt lat="44.4011" lon="3.56416">
        <ele>811</ele>
        <time>2022-05-27T12:09:55Z</time>
      </trkpt>
      <trkpt lat="44.4011" lon="3.56418">
        <ele>811</ele>
        <time>2022-05-27T12:09:56Z</time>
      </trkpt>
      <trkpt lat="44.4011" lon="3.56419">
        <ele>810</ele>
        <time>2022-05-27T12:09:57Z</time>
      </trkpt>
      <trkpt lat="44.40109" lon="3.56421">
        <ele>809</ele>
        <time>2022-05-27T12:09:58Z</time>
      </trkpt>
      <trkpt lat="44.40108" lon="3.56422">
        <ele>808</ele>
        <time>2022-05-27T12:09:59Z</time>
      </trkpt>
      <trkpt lat="44.40107" lon="3.56424">
        <ele>807</ele>
        <time>2022-05-27T12:10:00Z</time>
      </trkpt>
      <trkpt lat="44.40106" lon="3.56425">
        <ele>806</ele>
        <time>2022-05-27T12:10:01Z</time>
      </trkpt>
      <trkpt lat="44.40105" lon="3.56426">
        <ele>805</ele>
        <time>2022-05-27T12:10:02Z</time>
      </trkpt>
      <trkpt lat="44.40104" lon="3.56427">
        <ele>805</ele>
        <time>2022-05-27T12:10:03Z</time>
      </trkpt>
      <trkpt lat="44.40103" lon="3.56428">
        <ele>804</ele>
        <time>2022-05-27T12:10:04Z</time>
      </trkpt>
      <trkpt lat="44.40102" lon="3.56429">
        <ele>804</ele>
        <time>2022-05-27T12:10:05Z</time>
      </trkpt>
      <trkpt lat="44.40101" lon="3.56429">
        <ele>804</ele>
        <time>2022-05-27T12:10:06Z</time>
      </trkpt>
      <trkpt lat="44.401" lon="3.56429">
        <ele>804</ele>
        <time>2022-05-27T12:10:07Z</time>
      </trkpt>
      <trkpt lat="44.40099" lon="3.56429">
        <ele>803</ele>
        <time>2022-05-27T12:10:08Z</time>
      </trkpt>
      <trkpt lat="44.40097" lon="3.5643">
        <ele>803</ele>
        <time>2022-05-27T12:10:09Z</time>
      </trkpt>
      <trkpt lat="44.40097" lon="3.5643">
        <ele>803</ele>
        <time>2022-05-27T12:10:10Z</time>
      </trkpt>
      <trkpt lat="44.40095" lon="3.5643">
        <ele>802</ele>
        <time>2022-05-27T12:10:11Z</time>
      </trkpt>
      <trkpt lat="44.40093" lon="3.5643">
        <ele>802</ele>
        <time>2022-05-27T12:10:12Z</time>
      </trkpt>
      <trkpt lat="44.40092" lon="3.56431">
        <ele>802</ele>
        <time>2022-05-27T12:10:13Z</time>
      </trkpt>
      <trkpt lat="44.40091" lon="3.56431">
        <ele>803</ele>
        <time>2022-05-27T12:10:14Z</time>
      </trkpt>
      <trkpt lat="44.40089" lon="3.56431">
        <ele>803</ele>
        <time>2022-05-27T12:10:15Z</time>
      </trkpt>
      <trkpt lat="44.40086" lon="3.56432">
        <ele>802</ele>
        <time>2022-05-27T12:10:16Z</time>
      </trkpt>
      <trkpt lat="44.40085" lon="3.56432">
        <ele>802</ele>
        <time>2022-05-27T12:10:17Z</time>
      </trkpt>
      <trkpt lat="44.40084" lon="3.56432">
        <ele>804</ele>
        <time>2022-05-27T12:10:18Z</time>
      </trkpt>
      <trkpt lat="44.40083" lon="3.56431">
        <ele>805</ele>
        <time>2022-05-27T12:10:19Z</time>
      </trkpt>
      <trkpt lat="44.40081" lon="3.56431">
        <ele>805</ele>
        <time>2022-05-27T12:10:20Z</time>
      </trkpt>
      <trkpt lat="44.4008" lon="3.56432">
        <ele>805</ele>
        <time>2022-05-27T12:10:21Z</time>
      </trkpt>
      <trkpt lat="44.40079" lon="3.56432">
        <ele>805</ele>
        <time>2022-05-27T12:10:22Z</time>
      </trkpt>
      <trkpt lat="44.40078" lon="3.56432">
        <ele>805</ele>
        <time>2022-05-27T12:10:23Z</time>
      </trkpt>
      <trkpt lat="44.40077" lon="3.56432">
        <ele>804</ele>
        <time>2022-05-27T12:10:24Z</time>
      </trkpt>
      <trkpt lat="44.40076" lon="3.56433">
        <ele>805</ele>
        <time>2022-05-27T12:10:25Z</time>
      </trkpt>
      <trkpt lat="44.40075" lon="3.56433">
        <ele>806</ele>
        <time>2022-05-27T12:10:26Z</time>
      </trkpt>
      <trkpt lat="44.40075" lon="3.56435">
        <ele>807</ele>
        <time>2022-05-27T12:10:27Z</time>
      </trkpt>
      <trkpt lat="44.40074" lon="3.56436">
        <ele>806</ele>
        <time>2022-05-27T12:10:28Z</time>
      </trkpt>
      <trkpt lat="44.40074" lon="3.56436">
        <ele>806</ele>
        <time>2022-05-27T12:10:29Z</time>
      </trkpt>
      <trkpt lat="44.40074" lon="3.56436">
        <ele>806</ele>
        <time>2022-05-27T12:10:30Z</time>
      </trkpt>
      <trkpt lat="44.40073" lon="3.56437">
        <ele>806</ele>
        <time>2022-05-27T12:10:31Z</time>
      </trkpt>
      <trkpt lat="44.40072" lon="3.56438">
        <ele>804</ele>
        <time>2022-05-27T12:10:32Z</time>
      </trkpt>
      <trkpt lat="44.40071" lon="3.56438">
        <ele>804</ele>
        <time>2022-05-27T12:10:33Z</time>
      </trkpt>
      <trkpt lat="44.4007" lon="3.56438">
        <ele>803</ele>
        <time>2022-05-27T12:10:34Z</time>
      </trkpt>
      <trkpt lat="44.4007" lon="3.56438">
        <ele>803</ele>
        <time>2022-05-27T12:10:35Z</time>
      </trkpt>
      <trkpt lat="44.4007" lon="3.56438">
        <ele>803</ele>
        <time>2022-05-27T12:10:36Z</time>
      </trkpt>
      <trkpt lat="44.40067" lon="3.5644">
        <ele>803</ele>
        <time>2022-05-27T12:10:37Z</time>
      </trkpt>
      <trkpt lat="44.40066" lon="3.5644">
        <ele>803</ele>
        <time>2022-05-27T12:10:38Z</time>
      </trkpt>
      <trkpt lat="44.40064" lon="3.5644">
        <ele>802</ele>
        <time>2022-05-27T12:10:39Z</time>
      </trkpt>
      <trkpt lat="44.40062" lon="3.5644">
        <ele>802</ele>
        <time>2022-05-27T12:10:40Z</time>
      </trkpt>
      <trkpt lat="44.40061" lon="3.5644">
        <ele>802</ele>
        <time>2022-05-27T12:10:41Z</time>
      </trkpt>
      <trkpt lat="44.4006" lon="3.5644">
        <ele>802</ele>
        <time>2022-05-27T12:10:42Z</time>
      </trkpt>
      <trkpt lat="44.40058" lon="3.5644">
        <ele>802</ele>
        <time>2022-05-27T12:10:43Z</time>
      </trkpt>
      <trkpt lat="44.40057" lon="3.5644">
        <ele>801</ele>
        <time>2022-05-27T12:10:44Z</time>
      </trkpt>
      <trkpt lat="44.40056" lon="3.56439">
        <ele>801</ele>
        <time>2022-05-27T12:10:45Z</time>
      </trkpt>
      <trkpt lat="44.40054" lon="3.56439">
        <ele>801</ele>
        <time>2022-05-27T12:10:46Z</time>
      </trkpt>
      <trkpt lat="44.40052" lon="3.56438">
        <ele>801</ele>
        <time>2022-05-27T12:10:47Z</time>
      </trkpt>
      <trkpt lat="44.40051" lon="3.56437">
        <ele>800</ele>
        <time>2022-05-27T12:10:48Z</time>
      </trkpt>
      <trkpt lat="44.4005" lon="3.56437">
        <ele>799</ele>
        <time>2022-05-27T12:10:49Z</time>
      </trkpt>
      <trkpt lat="44.40049" lon="3.56437">
        <ele>800</ele>
        <time>2022-05-27T12:10:50Z</time>
      </trkpt>
      <trkpt lat="44.40047" lon="3.56436">
        <ele>801</ele>
        <time>2022-05-27T12:10:51Z</time>
      </trkpt>
      <trkpt lat="44.40046" lon="3.56435">
        <ele>801</ele>
        <time>2022-05-27T12:10:52Z</time>
      </trkpt>
      <trkpt lat="44.40044" lon="3.56433">
        <ele>801</ele>
        <time>2022-05-27T12:10:53Z</time>
      </trkpt>
      <trkpt lat="44.40043" lon="3.56432">
        <ele>801</ele>
        <time>2022-05-27T12:10:54Z</time>
      </trkpt>
      <trkpt lat="44.40041" lon="3.56431">
        <ele>800</ele>
        <time>2022-05-27T12:10:55Z</time>
      </trkpt>
      <trkpt lat="44.40039" lon="3.5643">
        <ele>800</ele>
        <time>2022-05-27T12:10:56Z</time>
      </trkpt>
      <trkpt lat="44.40038" lon="3.5643">
        <ele>800</ele>
        <time>2022-05-27T12:10:57Z</time>
      </trkpt>
      <trkpt lat="44.40037" lon="3.56429">
        <ele>801</ele>
        <time>2022-05-27T12:10:58Z</time>
      </trkpt>
      <trkpt lat="44.40036" lon="3.56428">
        <ele>800</ele>
        <time>2022-05-27T12:10:59Z</time>
      </trkpt>
      <trkpt lat="44.40035" lon="3.56427">
        <ele>800</ele>
        <time>2022-05-27T12:11:00Z</time>
      </trkpt>
      <trkpt lat="44.40034" lon="3.56425">
        <ele>800</ele>
        <time>2022-05-27T12:11:01Z</time>
      </trkpt>
      <trkpt lat="44.40033" lon="3.56424">
        <ele>800</ele>
        <time>2022-05-27T12:11:02Z</time>
      </trkpt>
      <trkpt lat="44.40032" lon="3.56423">
        <ele>799</ele>
        <time>2022-05-27T12:11:03Z</time>
      </trkpt>
      <trkpt lat="44.40031" lon="3.56423">
        <ele>799</ele>
        <time>2022-05-27T12:11:04Z</time>
      </trkpt>
      <trkpt lat="44.4003" lon="3.56422">
        <ele>798</ele>
        <time>2022-05-27T12:11:05Z</time>
      </trkpt>
      <trkpt lat="44.40029" lon="3.56421">
        <ele>797</ele>
        <time>2022-05-27T12:11:06Z</time>
      </trkpt>
      <trkpt lat="44.40028" lon="3.5642">
        <ele>797</ele>
        <time>2022-05-27T12:11:07Z</time>
      </trkpt>
      <trkpt lat="44.40028" lon="3.5642">
        <ele>796</ele>
        <time>2022-05-27T12:11:08Z</time>
      </trkpt>
      <trkpt lat="44.40027" lon="3.56419">
        <ele>796</ele>
        <time>2022-05-27T12:11:09Z</time>
      </trkpt>
      <trkpt lat="44.40025" lon="3.56417">
        <ele>796</ele>
        <time>2022-05-27T12:11:10Z</time>
      </trkpt>
      <trkpt lat="44.40024" lon="3.56416">
        <ele>796</ele>
        <time>2022-05-27T12:11:11Z</time>
      </trkpt>
      <trkpt lat="44.40023" lon="3.56415">
        <ele>795</ele>
        <time>2022-05-27T12:11:12Z</time>
      </trkpt>
      <trkpt lat="44.40022" lon="3.56414">
        <ele>795</ele>
        <time>2022-05-27T12:11:13Z</time>
      </trkpt>
      <trkpt lat="44.4002" lon="3.56413">
        <ele>795</ele>
        <time>2022-05-27T12:11:14Z</time>
      </trkpt>
      <trkpt lat="44.40019" lon="3.56413">
        <ele>795</ele>
        <time>2022-05-27T12:11:15Z</time>
      </trkpt>
      <trkpt lat="44.40017" lon="3.56412">
        <ele>795</ele>
        <time>2022-05-27T12:11:16Z</time>
      </trkpt>
      <trkpt lat="44.40015" lon="3.56412">
        <ele>794</ele>
        <time>2022-05-27T12:11:17Z</time>
      </trkpt>
      <trkpt lat="44.40014" lon="3.56412">
        <ele>794</ele>
        <time>2022-05-27T12:11:18Z</time>
      </trkpt>
      <trkpt lat="44.40013" lon="3.56412">
        <ele>794</ele>
        <time>2022-05-27T12:11:19Z</time>
      </trkpt>
      <trkpt lat="44.40012" lon="3.56413">
        <ele>793</ele>
        <time>2022-05-27T12:11:20Z</time>
      </trkpt>
      <trkpt lat="44.40011" lon="3.56413">
        <ele>793</ele>
        <time>2022-05-27T12:11:21Z</time>
      </trkpt>
      <trkpt lat="44.4001" lon="3.56412">
        <ele>792</ele>
        <time>2022-05-27T12:11:22Z</time>
      </trkpt>
      <trkpt lat="44.40009" lon="3.56411">
        <ele>792</ele>
        <time>2022-05-27T12:11:23Z</time>
      </trkpt>
      <trkpt lat="44.40007" lon="3.56411">
        <ele>793</ele>
        <time>2022-05-27T12:11:24Z</time>
      </trkpt>
      <trkpt lat="44.40007" lon="3.5641">
        <ele>792</ele>
        <time>2022-05-27T12:11:25Z</time>
      </trkpt>
      <trkpt lat="44.40006" lon="3.56409">
        <ele>791</ele>
        <time>2022-05-27T12:11:26Z</time>
      </trkpt>
      <trkpt lat="44.40005" lon="3.56407">
        <ele>790</ele>
        <time>2022-05-27T12:11:27Z</time>
      </trkpt>
      <trkpt lat="44.40004" lon="3.56407">
        <ele>791</ele>
        <time>2022-05-27T12:11:28Z</time>
      </trkpt>
      <trkpt lat="44.40003" lon="3.56406">
        <ele>791</ele>
        <time>2022-05-27T12:11:29Z</time>
      </trkpt>
      <trkpt lat="44.40002" lon="3.56406">
        <ele>792</ele>
        <time>2022-05-27T12:11:30Z</time>
      </trkpt>
      <trkpt lat="44.40002" lon="3.56406">
        <ele>792</ele>
        <time>2022-05-27T12:11:31Z</time>
      </trkpt>
      <trkpt lat="44.40001" lon="3.56405">
        <ele>792</ele>
        <time>2022-05-27T12:11:32Z</time>
      </trkpt>
      <trkpt lat="44.40001" lon="3.56405">
        <ele>792</ele>
        <time>2022-05-27T12:11:33Z</time>
      </trkpt>
      <trkpt lat="44.39999" lon="3.56405">
        <ele>793</ele>
        <time>2022-05-27T12:11:34Z</time>
      </trkpt>
      <trkpt lat="44.39999" lon="3.56405">
        <ele>793</ele>
        <time>2022-05-27T12:11:35Z</time>
      </trkpt>
      <trkpt lat="44.39998" lon="3.56404">
        <ele>793</ele>
        <time>2022-05-27T12:11:36Z</time>
      </trkpt>
      <trkpt lat="44.39996" lon="3.56404">
        <ele>794</ele>
        <time>2022-05-27T12:11:37Z</time>
      </trkpt>
      <trkpt lat="44.39996" lon="3.56404">
        <ele>794</ele>
        <time>2022-05-27T12:11:38Z</time>
      </trkpt>
      <trkpt lat="44.39994" lon="3.56404">
        <ele>793</ele>
        <time>2022-05-27T12:11:39Z</time>
      </trkpt>
      <trkpt lat="44.39993" lon="3.56403">
        <ele>793</ele>
        <time>2022-05-27T12:11:40Z</time>
      </trkpt>
      <trkpt lat="44.39993" lon="3.56403">
        <ele>792</ele>
        <time>2022-05-27T12:11:41Z</time>
      </trkpt>
      <trkpt lat="44.39991" lon="3.56402">
        <ele>792</ele>
        <time>2022-05-27T12:11:42Z</time>
      </trkpt>
      <trkpt lat="44.39991" lon="3.56402">
        <ele>793</ele>
        <time>2022-05-27T12:11:43Z</time>
      </trkpt>
      <trkpt lat="44.3999" lon="3.56401">
        <ele>793</ele>
        <time>2022-05-27T12:11:44Z</time>
      </trkpt>
      <trkpt lat="44.39989" lon="3.564">
        <ele>792</ele>
        <time>2022-05-27T12:11:45Z</time>
      </trkpt>
      <trkpt lat="44.39988" lon="3.56399">
        <ele>793</ele>
        <time>2022-05-27T12:11:46Z</time>
      </trkpt>
      <trkpt lat="44.39987" lon="3.56398">
        <ele>793</ele>
        <time>2022-05-27T12:11:47Z</time>
      </trkpt>
      <trkpt lat="44.39986" lon="3.56397">
        <ele>792</ele>
        <time>2022-05-27T12:11:48Z</time>
      </trkpt>
      <trkpt lat="44.39985" lon="3.56396">
        <ele>792</ele>
        <time>2022-05-27T12:11:49Z</time>
      </trkpt>
      <trkpt lat="44.39984" lon="3.56394">
        <ele>792</ele>
        <time>2022-05-27T12:11:50Z</time>
      </trkpt>
      <trkpt lat="44.39983" lon="3.56394">
        <ele>793</ele>
        <time>2022-05-27T12:11:51Z</time>
      </trkpt>
      <trkpt lat="44.39982" lon="3.56393">
        <ele>793</ele>
        <time>2022-05-27T12:11:52Z</time>
      </trkpt>
      <trkpt lat="44.39981" lon="3.56393">
        <ele>793</ele>
        <time>2022-05-27T12:11:53Z</time>
      </trkpt>
      <trkpt lat="44.3998" lon="3.56393">
        <ele>792</ele>
        <time>2022-05-27T12:11:54Z</time>
      </trkpt>
      <trkpt lat="44.3998" lon="3.56392">
        <ele>792</ele>
        <time>2022-05-27T12:11:55Z</time>
      </trkpt>
      <trkpt lat="44.39979" lon="3.56392">
        <ele>792</ele>
        <time>2022-05-27T12:11:56Z</time>
      </trkpt>
      <trkpt lat="44.39978" lon="3.56392">
        <ele>793</ele>
        <time>2022-05-27T12:11:57Z</time>
      </trkpt>
      <trkpt lat="44.39977" lon="3.56391">
        <ele>793</ele>
        <time>2022-05-27T12:11:58Z</time>
      </trkpt>
      <trkpt lat="44.39975" lon="3.5639">
        <ele>793</ele>
        <time>2022-05-27T12:11:59Z</time>
      </trkpt>
      <trkpt lat="44.39974" lon="3.56389">
        <ele>793</ele>
        <time>2022-05-27T12:12:00Z</time>
      </trkpt>
      <trkpt lat="44.39973" lon="3.56388">
        <ele>793</ele>
        <time>2022-05-27T12:12:01Z</time>
      </trkpt>
      <trkpt lat="44.39972" lon="3.56386">
        <ele>792</ele>
        <time>2022-05-27T12:12:02Z</time>
      </trkpt>
      <trkpt lat="44.39971" lon="3.56385">
        <ele>791</ele>
        <time>2022-05-27T12:12:03Z</time>
      </trkpt>
      <trkpt lat="44.3997" lon="3.56384">
        <ele>791</ele>
        <time>2022-05-27T12:12:04Z</time>
      </trkpt>
      <trkpt lat="44.39969" lon="3.56384">
        <ele>791</ele>
        <time>2022-05-27T12:12:05Z</time>
      </trkpt>
      <trkpt lat="44.39968" lon="3.56384">
        <ele>791</ele>
        <time>2022-05-27T12:12:06Z</time>
      </trkpt>
      <trkpt lat="44.39967" lon="3.56384">
        <ele>791</ele>
        <time>2022-05-27T12:12:07Z</time>
      </trkpt>
      <trkpt lat="44.39967" lon="3.56383">
        <ele>790</ele>
        <time>2022-05-27T12:12:08Z</time>
      </trkpt>
      <trkpt lat="44.39967" lon="3.56383">
        <ele>788</ele>
        <time>2022-05-27T12:12:09Z</time>
      </trkpt>
      <trkpt lat="44.39967" lon="3.56383">
        <ele>788</ele>
        <time>2022-05-27T12:12:10Z</time>
      </trkpt>
      <trkpt lat="44.39967" lon="3.56383">
        <ele>788</ele>
        <time>2022-05-27T12:12:10Z</time>
      </trkpt>
      <trkpt lat="44.39967" lon="3.56383">
        <ele>788</ele>
        <time>2022-05-27T12:12:10Z</time>
      </trkpt>
      <trkpt lat="44.39961" lon="3.5638">
        <ele>787</ele>
        <time>2022-05-27T12:12:17Z</time>
      </trkpt>
      <trkpt lat="44.3996" lon="3.56379">
        <ele>786</ele>
        <time>2022-05-27T12:12:18Z</time>
      </trkpt>
      <trkpt lat="44.39959" lon="3.56379">
        <ele>787</ele>
        <time>2022-05-27T12:12:19Z</time>
      </trkpt>
      <trkpt lat="44.39958" lon="3.56378">
        <ele>787</ele>
        <time>2022-05-27T12:12:20Z</time>
      </trkpt>
      <trkpt lat="44.39957" lon="3.56378">
        <ele>787</ele>
        <time>2022-05-27T12:12:21Z</time>
      </trkpt>
      <trkpt lat="44.39956" lon="3.56378">
        <ele>787</ele>
        <time>2022-05-27T12:12:22Z</time>
      </trkpt>
      <trkpt lat="44.39956" lon="3.56378">
        <ele>787</ele>
        <time>2022-05-27T12:12:23Z</time>
      </trkpt>
      <trkpt lat="44.39954" lon="3.56377">
        <ele>787</ele>
        <time>2022-05-27T12:12:24Z</time>
      </trkpt>
      <trkpt lat="44.39953" lon="3.56377">
        <ele>787</ele>
        <time>2022-05-27T12:12:25Z</time>
      </trkpt>
      <trkpt lat="44.39951" lon="3.56377">
        <ele>786</ele>
        <time>2022-05-27T12:12:26Z</time>
      </trkpt>
      <trkpt lat="44.3995" lon="3.56376">
        <ele>785</ele>
        <time>2022-05-27T12:12:27Z</time>
      </trkpt>
      <trkpt lat="44.39948" lon="3.56375">
        <ele>785</ele>
        <time>2022-05-27T12:12:28Z</time>
      </trkpt>
      <trkpt lat="44.39946" lon="3.56375">
        <ele>785</ele>
        <time>2022-05-27T12:12:29Z</time>
      </trkpt>
      <trkpt lat="44.39946" lon="3.56374">
        <ele>786</ele>
        <time>2022-05-27T12:12:30Z</time>
      </trkpt>
      <trkpt lat="44.39945" lon="3.56373">
        <ele>787</ele>
        <time>2022-05-27T12:12:31Z</time>
      </trkpt>
      <trkpt lat="44.39944" lon="3.56372">
        <ele>786</ele>
        <time>2022-05-27T12:12:32Z</time>
      </trkpt>
      <trkpt lat="44.39943" lon="3.5637">
        <ele>786</ele>
        <time>2022-05-27T12:12:33Z</time>
      </trkpt>
      <trkpt lat="44.39942" lon="3.56369">
        <ele>785</ele>
        <time>2022-05-27T12:12:34Z</time>
      </trkpt>
      <trkpt lat="44.39941" lon="3.56367">
        <ele>784</ele>
        <time>2022-05-27T12:12:35Z</time>
      </trkpt>
      <trkpt lat="44.3994" lon="3.56365">
        <ele>783</ele>
        <time>2022-05-27T12:12:36Z</time>
      </trkpt>
      <trkpt lat="44.39939" lon="3.56364">
        <ele>782</ele>
        <time>2022-05-27T12:12:37Z</time>
      </trkpt>
      <trkpt lat="44.39937" lon="3.56363">
        <ele>782</ele>
        <time>2022-05-27T12:12:38Z</time>
      </trkpt>
      <trkpt lat="44.39936" lon="3.56362">
        <ele>782</ele>
        <time>2022-05-27T12:12:39Z</time>
      </trkpt>
      <trkpt lat="44.39935" lon="3.56361">
        <ele>782</ele>
        <time>2022-05-27T12:12:40Z</time>
      </trkpt>
      <trkpt lat="44.39934" lon="3.5636">
        <ele>781</ele>
        <time>2022-05-27T12:12:41Z</time>
      </trkpt>
      <trkpt lat="44.39933" lon="3.56358">
        <ele>781</ele>
        <time>2022-05-27T12:12:42Z</time>
      </trkpt>
      <trkpt lat="44.39932" lon="3.56357">
        <ele>780</ele>
        <time>2022-05-27T12:12:43Z</time>
      </trkpt>
      <trkpt lat="44.39931" lon="3.56356">
        <ele>780</ele>
        <time>2022-05-27T12:12:44Z</time>
      </trkpt>
      <trkpt lat="44.3993" lon="3.56355">
        <ele>780</ele>
        <time>2022-05-27T12:12:45Z</time>
      </trkpt>
      <trkpt lat="44.39929" lon="3.56354">
        <ele>780</ele>
        <time>2022-05-27T12:12:46Z</time>
      </trkpt>
      <trkpt lat="44.39928" lon="3.56353">
        <ele>780</ele>
        <time>2022-05-27T12:12:47Z</time>
      </trkpt>
      <trkpt lat="44.39927" lon="3.56351">
        <ele>781</ele>
        <time>2022-05-27T12:12:48Z</time>
      </trkpt>
      <trkpt lat="44.39927" lon="3.5635">
        <ele>780</ele>
        <time>2022-05-27T12:12:49Z</time>
      </trkpt>
      <trkpt lat="44.39926" lon="3.56348">
        <ele>780</ele>
        <time>2022-05-27T12:12:50Z</time>
      </trkpt>
      <trkpt lat="44.39925" lon="3.56347">
        <ele>780</ele>
        <time>2022-05-27T12:12:51Z</time>
      </trkpt>
      <trkpt lat="44.39924" lon="3.56346">
        <ele>781</ele>
        <time>2022-05-27T12:12:52Z</time>
      </trkpt>
      <trkpt lat="44.39923" lon="3.56344">
        <ele>781</ele>
        <time>2022-05-27T12:12:53Z</time>
      </trkpt>
      <trkpt lat="44.39922" lon="3.56342">
        <ele>781</ele>
        <time>2022-05-27T12:12:54Z</time>
      </trkpt>
      <trkpt lat="44.39921" lon="3.56341">
        <ele>780</ele>
        <time>2022-05-27T12:12:55Z</time>
      </trkpt>
      <trkpt lat="44.3992" lon="3.56339">
        <ele>780</ele>
        <time>2022-05-27T12:12:56Z</time>
      </trkpt>
      <trkpt lat="44.39919" lon="3.56338">
        <ele>780</ele>
        <time>2022-05-27T12:12:57Z</time>
      </trkpt>
      <trkpt lat="44.39918" lon="3.56337">
        <ele>780</ele>
        <time>2022-05-27T12:12:58Z</time>
      </trkpt>
      <trkpt lat="44.39917" lon="3.56335">
        <ele>780</ele>
        <time>2022-05-27T12:12:59Z</time>
      </trkpt>
      <trkpt lat="44.39918" lon="3.56333">
        <ele>779</ele>
        <time>2022-05-27T12:13:00Z</time>
      </trkpt>
      <trkpt lat="44.39917" lon="3.56331">
        <ele>778</ele>
        <time>2022-05-27T12:13:01Z</time>
      </trkpt>
      <trkpt lat="44.39917" lon="3.5633">
        <ele>778</ele>
        <time>2022-05-27T12:13:02Z</time>
      </trkpt>
      <trkpt lat="44.39916" lon="3.56329">
        <ele>779</ele>
        <time>2022-05-27T12:13:03Z</time>
      </trkpt>
      <trkpt lat="44.39915" lon="3.56328">
        <ele>778</ele>
        <time>2022-05-27T12:13:04Z</time>
      </trkpt>
      <trkpt lat="44.39914" lon="3.56326">
        <ele>778</ele>
        <time>2022-05-27T12:13:05Z</time>
      </trkpt>
      <trkpt lat="44.39913" lon="3.56325">
        <ele>778</ele>
        <time>2022-05-27T12:13:06Z</time>
      </trkpt>
      <trkpt lat="44.39912" lon="3.56324">
        <ele>778</ele>
        <time>2022-05-27T12:13:07Z</time>
      </trkpt>
      <trkpt lat="44.39912" lon="3.56323">
        <ele>778</ele>
        <time>2022-05-27T12:13:08Z</time>
      </trkpt>
      <trkpt lat="44.39911" lon="3.56322">
        <ele>779</ele>
        <time>2022-05-27T12:13:09Z</time>
      </trkpt>
      <trkpt lat="44.39911" lon="3.56321">
        <ele>780</ele>
        <time>2022-05-27T12:13:10Z</time>
      </trkpt>
      <trkpt lat="44.39911" lon="3.5632">
        <ele>780</ele>
        <time>2022-05-27T12:13:11Z</time>
      </trkpt>
      <trkpt lat="44.39911" lon="3.56319">
        <ele>780</ele>
        <time>2022-05-27T12:13:12Z</time>
      </trkpt>
      <trkpt lat="44.3991" lon="3.56318">
        <ele>780</ele>
        <time>2022-05-27T12:13:13Z</time>
      </trkpt>
      <trkpt lat="44.3991" lon="3.56316">
        <ele>780</ele>
        <time>2022-05-27T12:13:14Z</time>
      </trkpt>
      <trkpt lat="44.3991" lon="3.56315">
        <ele>780</ele>
        <time>2022-05-27T12:13:15Z</time>
      </trkpt>
      <trkpt lat="44.39909" lon="3.56314">
        <ele>781</ele>
        <time>2022-05-27T12:13:16Z</time>
      </trkpt>
      <trkpt lat="44.39909" lon="3.56312">
        <ele>781</ele>
        <time>2022-05-27T12:13:17Z</time>
      </trkpt>
      <trkpt lat="44.39909" lon="3.56311">
        <ele>781</ele>
        <time>2022-05-27T12:13:18Z</time>
      </trkpt>
      <trkpt lat="44.39908" lon="3.5631">
        <ele>781</ele>
        <time>2022-05-27T12:13:19Z</time>
      </trkpt>
      <trkpt lat="44.39908" lon="3.56309">
        <ele>781</ele>
        <time>2022-05-27T12:13:20Z</time>
      </trkpt>
      <trkpt lat="44.39908" lon="3.56307">
        <ele>781</ele>
        <time>2022-05-27T12:13:21Z</time>
      </trkpt>
      <trkpt lat="44.39907" lon="3.56306">
        <ele>781</ele>
        <time>2022-05-27T12:13:22Z</time>
      </trkpt>
      <trkpt lat="44.39906" lon="3.56305">
        <ele>780</ele>
        <time>2022-05-27T12:13:23Z</time>
      </trkpt>
      <trkpt lat="44.39906" lon="3.56303">
        <ele>780</ele>
        <time>2022-05-27T12:13:24Z</time>
      </trkpt>
      <trkpt lat="44.39905" lon="3.56302">
        <ele>781</ele>
        <time>2022-05-27T12:13:25Z</time>
      </trkpt>
      <trkpt lat="44.39905" lon="3.563">
        <ele>781</ele>
        <time>2022-05-27T12:13:26Z</time>
      </trkpt>
      <trkpt lat="44.39904" lon="3.56298">
        <ele>781</ele>
        <time>2022-05-27T12:13:27Z</time>
      </trkpt>
      <trkpt lat="44.39904" lon="3.56297">
        <ele>781</ele>
        <time>2022-05-27T12:13:28Z</time>
      </trkpt>
      <trkpt lat="44.39903" lon="3.56295">
        <ele>781</ele>
        <time>2022-05-27T12:13:29Z</time>
      </trkpt>
      <trkpt lat="44.39903" lon="3.56293">
        <ele>781</ele>
        <time>2022-05-27T12:13:30Z</time>
      </trkpt>
      <trkpt lat="44.39902" lon="3.56291">
        <ele>781</ele>
        <time>2022-05-27T12:13:31Z</time>
      </trkpt>
      <trkpt lat="44.39902" lon="3.5629">
        <ele>781</ele>
        <time>2022-05-27T12:13:32Z</time>
      </trkpt>
      <trkpt lat="44.39902" lon="3.56288">
        <ele>782</ele>
        <time>2022-05-27T12:13:33Z</time>
      </trkpt>
      <trkpt lat="44.39902" lon="3.56287">
        <ele>782</ele>
        <time>2022-05-27T12:13:34Z</time>
      </trkpt>
      <trkpt lat="44.39903" lon="3.56285">
        <ele>782</ele>
        <time>2022-05-27T12:13:35Z</time>
      </trkpt>
      <trkpt lat="44.39903" lon="3.56284">
        <ele>782</ele>
        <time>2022-05-27T12:13:36Z</time>
      </trkpt>
      <trkpt lat="44.39903" lon="3.56282">
        <ele>782</ele>
        <time>2022-05-27T12:13:37Z</time>
      </trkpt>
      <trkpt lat="44.39902" lon="3.5628">
        <ele>782</ele>
        <time>2022-05-27T12:13:38Z</time>
      </trkpt>
      <trkpt lat="44.39903" lon="3.56278">
        <ele>782</ele>
        <time>2022-05-27T12:13:39Z</time>
      </trkpt>
      <trkpt lat="44.39903" lon="3.56277">
        <ele>781</ele>
        <time>2022-05-27T12:13:40Z</time>
      </trkpt>
      <trkpt lat="44.39902" lon="3.56275">
        <ele>781</ele>
        <time>2022-05-27T12:13:41Z</time>
      </trkpt>
      <trkpt lat="44.39902" lon="3.56273">
        <ele>781</ele>
        <time>2022-05-27T12:13:42Z</time>
      </trkpt>
      <trkpt lat="44.39902" lon="3.56272">
        <ele>782</ele>
        <time>2022-05-27T12:13:43Z</time>
      </trkpt>
      <trkpt lat="44.39902" lon="3.5627">
        <ele>782</ele>
        <time>2022-05-27T12:13:44Z</time>
      </trkpt>
      <trkpt lat="44.39902" lon="3.56268">
        <ele>782</ele>
        <time>2022-05-27T12:13:45Z</time>
      </trkpt>
      <trkpt lat="44.39902" lon="3.56266">
        <ele>782</ele>
        <time>2022-05-27T12:13:46Z</time>
      </trkpt>
      <trkpt lat="44.39902" lon="3.56264">
        <ele>782</ele>
        <time>2022-05-27T12:13:47Z</time>
      </trkpt>
      <trkpt lat="44.39902" lon="3.56263">
        <ele>781</ele>
        <time>2022-05-27T12:13:48Z</time>
      </trkpt>
      <trkpt lat="44.39901" lon="3.56262">
        <ele>781</ele>
        <time>2022-05-27T12:13:49Z</time>
      </trkpt>
      <trkpt lat="44.39901" lon="3.5626">
        <ele>781</ele>
        <time>2022-05-27T12:13:50Z</time>
      </trkpt>
      <trkpt lat="44.39901" lon="3.56259">
        <ele>781</ele>
        <time>2022-05-27T12:13:51Z</time>
      </trkpt>
      <trkpt lat="44.39901" lon="3.56257">
        <ele>781</ele>
        <time>2022-05-27T12:13:52Z</time>
      </trkpt>
      <trkpt lat="44.399" lon="3.56256">
        <ele>781</ele>
        <time>2022-05-27T12:13:53Z</time>
      </trkpt>
      <trkpt lat="44.399" lon="3.56255">
        <ele>782</ele>
        <time>2022-05-27T12:13:54Z</time>
      </trkpt>
      <trkpt lat="44.399" lon="3.56253">
        <ele>782</ele>
        <time>2022-05-27T12:13:55Z</time>
      </trkpt>
      <trkpt lat="44.39899" lon="3.56252">
        <ele>782</ele>
        <time>2022-05-27T12:13:56Z</time>
      </trkpt>
      <trkpt lat="44.39899" lon="3.5625">
        <ele>783</ele>
        <time>2022-05-27T12:13:57Z</time>
      </trkpt>
      <trkpt lat="44.39899" lon="3.56249">
        <ele>783</ele>
        <time>2022-05-27T12:13:58Z</time>
      </trkpt>
      <trkpt lat="44.39899" lon="3.56247">
        <ele>784</ele>
        <time>2022-05-27T12:13:59Z</time>
      </trkpt>
      <trkpt lat="44.39899" lon="3.56245">
        <ele>785</ele>
        <time>2022-05-27T12:14:00Z</time>
      </trkpt>
      <trkpt lat="44.39899" lon="3.56243">
        <ele>785</ele>
        <time>2022-05-27T12:14:01Z</time>
      </trkpt>
      <trkpt lat="44.39899" lon="3.56241">
        <ele>785</ele>
        <time>2022-05-27T12:14:02Z</time>
      </trkpt>
      <trkpt lat="44.39899" lon="3.56239">
        <ele>785</ele>
        <time>2022-05-27T12:14:03Z</time>
      </trkpt>
      <trkpt lat="44.39898" lon="3.56238">
        <ele>785</ele>
        <time>2022-05-27T12:14:04Z</time>
      </trkpt>
      <trkpt lat="44.39898" lon="3.56236">
        <ele>786</ele>
        <time>2022-05-27T12:14:05Z</time>
      </trkpt>
      <trkpt lat="44.39898" lon="3.56235">
        <ele>785</ele>
        <time>2022-05-27T12:14:06Z</time>
      </trkpt>
      <trkpt lat="44.39898" lon="3.56233">
        <ele>786</ele>
        <time>2022-05-27T12:14:07Z</time>
      </trkpt>
      <trkpt lat="44.39897" lon="3.56232">
        <ele>786</ele>
        <time>2022-05-27T12:14:08Z</time>
      </trkpt>
      <trkpt lat="44.39897" lon="3.5623">
        <ele>786</ele>
        <time>2022-05-27T12:14:09Z</time>
      </trkpt>
      <trkpt lat="44.39897" lon="3.56228">
        <ele>786</ele>
        <time>2022-05-27T12:14:10Z</time>
      </trkpt>
      <trkpt lat="44.39897" lon="3.56226">
        <ele>786</ele>
        <time>2022-05-27T12:14:11Z</time>
      </trkpt>
      <trkpt lat="44.39896" lon="3.56225">
        <ele>787</ele>
        <time>2022-05-27T12:14:12Z</time>
      </trkpt>
      <trkpt lat="44.39896" lon="3.56223">
        <ele>787</ele>
        <time>2022-05-27T12:14:13Z</time>
      </trkpt>
      <trkpt lat="44.39895" lon="3.56222">
        <ele>786</ele>
        <time>2022-05-27T12:14:14Z</time>
      </trkpt>
      <trkpt lat="44.39895" lon="3.56221">
        <ele>786</ele>
        <time>2022-05-27T12:14:15Z</time>
      </trkpt>
      <trkpt lat="44.39895" lon="3.5622">
        <ele>786</ele>
        <time>2022-05-27T12:14:16Z</time>
      </trkpt>
      <trkpt lat="44.39894" lon="3.56218">
        <ele>786</ele>
        <time>2022-05-27T12:14:17Z</time>
      </trkpt>
      <trkpt lat="44.39893" lon="3.56217">
        <ele>786</ele>
        <time>2022-05-27T12:14:18Z</time>
      </trkpt>
      <trkpt lat="44.39894" lon="3.56216">
        <ele>786</ele>
        <time>2022-05-27T12:14:19Z</time>
      </trkpt>
      <trkpt lat="44.39893" lon="3.56215">
        <ele>786</ele>
        <time>2022-05-27T12:14:20Z</time>
      </trkpt>
      <trkpt lat="44.39893" lon="3.56213">
        <ele>785</ele>
        <time>2022-05-27T12:14:21Z</time>
      </trkpt>
      <trkpt lat="44.39892" lon="3.56211">
        <ele>785</ele>
        <time>2022-05-27T12:14:22Z</time>
      </trkpt>
      <trkpt lat="44.39892" lon="3.56209">
        <ele>785</ele>
        <time>2022-05-27T12:14:23Z</time>
      </trkpt>
      <trkpt lat="44.39892" lon="3.56207">
        <ele>785</ele>
        <time>2022-05-27T12:14:24Z</time>
      </trkpt>
      <trkpt lat="44.39891" lon="3.56205">
        <ele>785</ele>
        <time>2022-05-27T12:14:25Z</time>
      </trkpt>
      <trkpt lat="44.39891" lon="3.56204">
        <ele>785</ele>
        <time>2022-05-27T12:14:26Z</time>
      </trkpt>
      <trkpt lat="44.3989" lon="3.56203">
        <ele>785</ele>
        <time>2022-05-27T12:14:27Z</time>
      </trkpt>
      <trkpt lat="44.39889" lon="3.562">
        <ele>785</ele>
        <time>2022-05-27T12:14:29Z</time>
      </trkpt>
      <trkpt lat="44.39889" lon="3.562">
        <ele>785</ele>
        <time>2022-05-27T12:14:29Z</time>
      </trkpt>
      <trkpt lat="44.39888" lon="3.56198">
        <ele>785</ele>
        <time>2022-05-27T12:14:30Z</time>
      </trkpt>
      <trkpt lat="44.39888" lon="3.56198">
        <ele>784</ele>
        <time>2022-05-27T12:14:31Z</time>
      </trkpt>
      <trkpt lat="44.39887" lon="3.56196">
        <ele>784</ele>
        <time>2022-05-27T12:14:32Z</time>
      </trkpt>
      <trkpt lat="44.39886" lon="3.56193">
        <ele>785</ele>
        <time>2022-05-27T12:14:34Z</time>
      </trkpt>
      <trkpt lat="44.39886" lon="3.56193">
        <ele>785</ele>
        <time>2022-05-27T12:14:34Z</time>
      </trkpt>
      <trkpt lat="44.39885" lon="3.56191">
        <ele>785</ele>
        <time>2022-05-27T12:14:35Z</time>
      </trkpt>
      <trkpt lat="44.39885" lon="3.5619">
        <ele>785</ele>
        <time>2022-05-27T12:14:36Z</time>
      </trkpt>
      <trkpt lat="44.39884" lon="3.56188">
        <ele>785</ele>
        <time>2022-05-27T12:14:37Z</time>
      </trkpt>
      <trkpt lat="44.39884" lon="3.56186">
        <ele>785</ele>
        <time>2022-05-27T12:14:38Z</time>
      </trkpt>
      <trkpt lat="44.39883" lon="3.56184">
        <ele>785</ele>
        <time>2022-05-27T12:14:39Z</time>
      </trkpt>
      <trkpt lat="44.39883" lon="3.56182">
        <ele>785</ele>
        <time>2022-05-27T12:14:40Z</time>
      </trkpt>
      <trkpt lat="44.39882" lon="3.5618">
        <ele>785</ele>
        <time>2022-05-27T12:14:41Z</time>
      </trkpt>
      <trkpt lat="44.39882" lon="3.56178">
        <ele>785</ele>
        <time>2022-05-27T12:14:42Z</time>
      </trkpt>
      <trkpt lat="44.39882" lon="3.56176">
        <ele>785</ele>
        <time>2022-05-27T12:14:43Z</time>
      </trkpt>
      <trkpt lat="44.39881" lon="3.56172">
        <ele>785</ele>
        <time>2022-05-27T12:14:45Z</time>
      </trkpt>
      <trkpt lat="44.39881" lon="3.56172">
        <ele>785</ele>
        <time>2022-05-27T12:14:45Z</time>
      </trkpt>
      <trkpt lat="44.39881" lon="3.5617">
        <ele>785</ele>
        <time>2022-05-27T12:14:46Z</time>
      </trkpt>
      <trkpt lat="44.39881" lon="3.56166">
        <ele>784</ele>
        <time>2022-05-27T12:14:48Z</time>
      </trkpt>
      <trkpt lat="44.39881" lon="3.56166">
        <ele>784</ele>
        <time>2022-05-27T12:14:48Z</time>
      </trkpt>
      <trkpt lat="44.39881" lon="3.56164">
        <ele>783</ele>
        <time>2022-05-27T12:14:49Z</time>
      </trkpt>
      <trkpt lat="44.39881" lon="3.56164">
        <ele>782</ele>
        <time>2022-05-27T12:14:50Z</time>
      </trkpt>
      <trkpt lat="44.39881" lon="3.56163">
        <ele>781</ele>
        <time>2022-05-27T12:14:51Z</time>
      </trkpt>
      <trkpt lat="44.39881" lon="3.56163">
        <ele>781</ele>
        <time>2022-05-27T12:14:51Z</time>
      </trkpt>
      <trkpt lat="44.39881" lon="3.56163">
        <ele>781</ele>
        <time>2022-05-27T12:14:51Z</time>
      </trkpt>
      <trkpt lat="44.39881" lon="3.56154">
        <ele>773</ele>
        <time>2022-05-27T12:15:08Z</time>
      </trkpt>
      <trkpt lat="44.3988" lon="3.56152">
        <ele>774</ele>
        <time>2022-05-27T12:15:09Z</time>
      </trkpt>
      <trkpt lat="44.3988" lon="3.56152">
        <ele>774</ele>
        <time>2022-05-27T12:15:10Z</time>
      </trkpt>
      <trkpt lat="44.3988" lon="3.56151">
        <ele>776</ele>
        <time>2022-05-27T12:15:12Z</time>
      </trkpt>
      <trkpt lat="44.3988" lon="3.56151">
        <ele>776</ele>
        <time>2022-05-27T12:15:12Z</time>
      </trkpt>
      <trkpt lat="44.3988" lon="3.5615">
        <ele>776</ele>
        <time>2022-05-27T12:15:13Z</time>
      </trkpt>
      <trkpt lat="44.3988" lon="3.56149">
        <ele>777</ele>
        <time>2022-05-27T12:15:14Z</time>
      </trkpt>
      <trkpt lat="44.39879" lon="3.56148">
        <ele>777</ele>
        <time>2022-05-27T12:15:15Z</time>
      </trkpt>
      <trkpt lat="44.39879" lon="3.56148">
        <ele>777</ele>
        <time>2022-05-27T12:15:16Z</time>
      </trkpt>
      <trkpt lat="44.39879" lon="3.56148">
        <ele>777</ele>
        <time>2022-05-27T12:15:17Z</time>
      </trkpt>
      <trkpt lat="44.39877" lon="3.56149">
        <ele>779</ele>
        <time>2022-05-27T12:15:18Z</time>
      </trkpt>
      <trkpt lat="44.39877" lon="3.56149">
        <ele>779</ele>
        <time>2022-05-27T12:15:19Z</time>
      </trkpt>
      <trkpt lat="44.39877" lon="3.56149">
        <ele>779</ele>
        <time>2022-05-27T12:15:19Z</time>
      </trkpt>
      <trkpt lat="44.39877" lon="3.56149">
        <ele>779</ele>
        <time>2022-05-27T12:15:19Z</time>
      </trkpt>
      <trkpt lat="44.39878" lon="3.56151">
        <ele>784</ele>
        <time>2022-05-27T12:15:36Z</time>
      </trkpt>
      <trkpt lat="44.39877" lon="3.56149">
        <ele>783</ele>
        <time>2022-05-27T12:15:38Z</time>
      </trkpt>
      <trkpt lat="44.39877" lon="3.56148">
        <ele>784</ele>
        <time>2022-05-27T12:15:39Z</time>
      </trkpt>
      <trkpt lat="44.39877" lon="3.56148">
        <ele>784</ele>
        <time>2022-05-27T12:15:39Z</time>
      </trkpt>
      <trkpt lat="44.39876" lon="3.56146">
        <ele>784</ele>
        <time>2022-05-27T12:15:41Z</time>
      </trkpt>
      <trkpt lat="44.39876" lon="3.56146">
        <ele>784</ele>
        <time>2022-05-27T12:15:41Z</time>
      </trkpt>
      <trkpt lat="44.39875" lon="3.56144">
        <ele>784</ele>
        <time>2022-05-27T12:15:43Z</time>
      </trkpt>
      <trkpt lat="44.39874" lon="3.56144">
        <ele>783</ele>
        <time>2022-05-27T12:15:44Z</time>
      </trkpt>
      <trkpt lat="44.39873" lon="3.56143">
        <ele>783</ele>
        <time>2022-05-27T12:15:45Z</time>
      </trkpt>
      <trkpt lat="44.39873" lon="3.56141">
        <ele>783</ele>
        <time>2022-05-27T12:15:46Z</time>
      </trkpt>
      <trkpt lat="44.39872" lon="3.56139">
        <ele>783</ele>
        <time>2022-05-27T12:15:47Z</time>
      </trkpt>
      <trkpt lat="44.39871" lon="3.56138">
        <ele>783</ele>
        <time>2022-05-27T12:15:48Z</time>
      </trkpt>
      <trkpt lat="44.39871" lon="3.56136">
        <ele>783</ele>
        <time>2022-05-27T12:15:49Z</time>
      </trkpt>
      <trkpt lat="44.39872" lon="3.56134">
        <ele>783</ele>
        <time>2022-05-27T12:15:50Z</time>
      </trkpt>
      <trkpt lat="44.39872" lon="3.56132">
        <ele>784</ele>
        <time>2022-05-27T12:15:51Z</time>
      </trkpt>
      <trkpt lat="44.39872" lon="3.56132">
        <ele>784</ele>
        <time>2022-05-27T12:15:51Z</time>
      </trkpt>
      <trkpt lat="44.39872" lon="3.56131">
        <ele>784</ele>
        <time>2022-05-27T12:15:52Z</time>
      </trkpt>
      <trkpt lat="44.39872" lon="3.56129">
        <ele>784</ele>
        <time>2022-05-27T12:15:53Z</time>
      </trkpt>
      <trkpt lat="44.39871" lon="3.56125">
        <ele>783</ele>
        <time>2022-05-27T12:15:55Z</time>
      </trkpt>
      <trkpt lat="44.39871" lon="3.56124">
        <ele>783</ele>
        <time>2022-05-27T12:15:56Z</time>
      </trkpt>
      <trkpt lat="44.39871" lon="3.56123">
        <ele>783</ele>
        <time>2022-05-27T12:15:57Z</time>
      </trkpt>
      <trkpt lat="44.39871" lon="3.56123">
        <ele>783</ele>
        <time>2022-05-27T12:15:57Z</time>
      </trkpt>
      <trkpt lat="44.3987" lon="3.5612">
        <ele>782</ele>
        <time>2022-05-27T12:15:59Z</time>
      </trkpt>
      <trkpt lat="44.3987" lon="3.5612">
        <ele>782</ele>
        <time>2022-05-27T12:15:59Z</time>
      </trkpt>
      <trkpt lat="44.39871" lon="3.5612">
        <ele>781</ele>
        <time>2022-05-27T12:16:00Z</time>
      </trkpt>
      <trkpt lat="44.39869" lon="3.56116">
        <ele>781</ele>
        <time>2022-05-27T12:16:02Z</time>
      </trkpt>
      <trkpt lat="44.39869" lon="3.56114">
        <ele>781</ele>
        <time>2022-05-27T12:16:03Z</time>
      </trkpt>
      <trkpt lat="44.39869" lon="3.56113">
        <ele>781</ele>
        <time>2022-05-27T12:16:04Z</time>
      </trkpt>
      <trkpt lat="44.39869" lon="3.56113">
        <ele>781</ele>
        <time>2022-05-27T12:16:04Z</time>
      </trkpt>
      <trkpt lat="44.39869" lon="3.56112">
        <ele>781</ele>
        <time>2022-05-27T12:16:05Z</time>
      </trkpt>
      <trkpt lat="44.39869" lon="3.56111">
        <ele>782</ele>
        <time>2022-05-27T12:16:06Z</time>
      </trkpt>
      <trkpt lat="44.39867" lon="3.56107">
        <ele>781</ele>
        <time>2022-05-27T12:16:08Z</time>
      </trkpt>
      <trkpt lat="44.39866" lon="3.56107">
        <ele>781</ele>
        <time>2022-05-27T12:16:09Z</time>
      </trkpt>
      <trkpt lat="44.39866" lon="3.56107">
        <ele>781</ele>
        <time>2022-05-27T12:16:10Z</time>
      </trkpt>
      <trkpt lat="44.39866" lon="3.56105">
        <ele>780</ele>
        <time>2022-05-27T12:16:11Z</time>
      </trkpt>
      <trkpt lat="44.39865" lon="3.56104">
        <ele>780</ele>
        <time>2022-05-27T12:16:12Z</time>
      </trkpt>
      <trkpt lat="44.39865" lon="3.56104">
        <ele>780</ele>
        <time>2022-05-27T12:16:12Z</time>
      </trkpt>
      <trkpt lat="44.39864" lon="3.56101">
        <ele>780</ele>
        <time>2022-05-27T12:16:14Z</time>
      </trkpt>
      <trkpt lat="44.39863" lon="3.56099">
        <ele>779</ele>
        <time>2022-05-27T12:16:15Z</time>
      </trkpt>
      <trkpt lat="44.39862" lon="3.56098">
        <ele>779</ele>
        <time>2022-05-27T12:16:16Z</time>
      </trkpt>
      <trkpt lat="44.39862" lon="3.56098">
        <ele>779</ele>
        <time>2022-05-27T12:16:16Z</time>
      </trkpt>
      <trkpt lat="44.39861" lon="3.56095">
        <ele>779</ele>
        <time>2022-05-27T12:16:18Z</time>
      </trkpt>
      <trkpt lat="44.39861" lon="3.56095">
        <ele>779</ele>
        <time>2022-05-27T12:16:18Z</time>
      </trkpt>
      <trkpt lat="44.39861" lon="3.56091">
        <ele>779</ele>
        <time>2022-05-27T12:16:20Z</time>
      </trkpt>
      <trkpt lat="44.3986" lon="3.56089">
        <ele>778</ele>
        <time>2022-05-27T12:16:21Z</time>
      </trkpt>
      <trkpt lat="44.3986" lon="3.56089">
        <ele>778</ele>
        <time>2022-05-27T12:16:21Z</time>
      </trkpt>
      <trkpt lat="44.39859" lon="3.56088">
        <ele>778</ele>
        <time>2022-05-27T12:16:22Z</time>
      </trkpt>
      <trkpt lat="44.39858" lon="3.56085">
        <ele>779</ele>
        <time>2022-05-27T12:16:24Z</time>
      </trkpt>
      <trkpt lat="44.39857" lon="3.56084">
        <ele>780</ele>
        <time>2022-05-27T12:16:25Z</time>
      </trkpt>
      <trkpt lat="44.39856" lon="3.56083">
        <ele>779</ele>
        <time>2022-05-27T12:16:26Z</time>
      </trkpt>
      <trkpt lat="44.39856" lon="3.56083">
        <ele>779</ele>
        <time>2022-05-27T12:16:26Z</time>
      </trkpt>
      <trkpt lat="44.39856" lon="3.56082">
        <ele>779</ele>
        <time>2022-05-27T12:16:27Z</time>
      </trkpt>
      <trkpt lat="44.39856" lon="3.5608">
        <ele>779</ele>
        <time>2022-05-27T12:16:28Z</time>
      </trkpt>
      <trkpt lat="44.39854" lon="3.56077">
        <ele>777</ele>
        <time>2022-05-27T12:16:30Z</time>
      </trkpt>
      <trkpt lat="44.39853" lon="3.56076">
        <ele>776</ele>
        <time>2022-05-27T12:16:31Z</time>
      </trkpt>
      <trkpt lat="44.39852" lon="3.56075">
        <ele>776</ele>
        <time>2022-05-27T12:16:32Z</time>
      </trkpt>
      <trkpt lat="44.39851" lon="3.56074">
        <ele>775</ele>
        <time>2022-05-27T12:16:33Z</time>
      </trkpt>
      <trkpt lat="44.3985" lon="3.56072">
        <ele>775</ele>
        <time>2022-05-27T12:16:34Z</time>
      </trkpt>
      <trkpt lat="44.39849" lon="3.56071">
        <ele>775</ele>
        <time>2022-05-27T12:16:35Z</time>
      </trkpt>
      <trkpt lat="44.39848" lon="3.5607">
        <ele>775</ele>
        <time>2022-05-27T12:16:36Z</time>
      </trkpt>
      <trkpt lat="44.39847" lon="3.56069">
        <ele>775</ele>
        <time>2022-05-27T12:16:37Z</time>
      </trkpt>
      <trkpt lat="44.39846" lon="3.56068">
        <ele>775</ele>
        <time>2022-05-27T12:16:38Z</time>
      </trkpt>
      <trkpt lat="44.39845" lon="3.56066">
        <ele>775</ele>
        <time>2022-05-27T12:16:39Z</time>
      </trkpt>
      <trkpt lat="44.39845" lon="3.56065">
        <ele>774</ele>
        <time>2022-05-27T12:16:40Z</time>
      </trkpt>
      <trkpt lat="44.39844" lon="3.56063">
        <ele>774</ele>
        <time>2022-05-27T12:16:41Z</time>
      </trkpt>
      <trkpt lat="44.39844" lon="3.56061">
        <ele>774</ele>
        <time>2022-05-27T12:16:42Z</time>
      </trkpt>
      <trkpt lat="44.39843" lon="3.56059">
        <ele>775</ele>
        <time>2022-05-27T12:16:43Z</time>
      </trkpt>
      <trkpt lat="44.39843" lon="3.56057">
        <ele>775</ele>
        <time>2022-05-27T12:16:44Z</time>
      </trkpt>
      <trkpt lat="44.39843" lon="3.56057">
        <ele>775</ele>
        <time>2022-05-27T12:16:45Z</time>
      </trkpt>
      <trkpt lat="44.39842" lon="3.56056">
        <ele>774</ele>
        <time>2022-05-27T12:16:46Z</time>
      </trkpt>
      <trkpt lat="44.39841" lon="3.56054">
        <ele>774</ele>
        <time>2022-05-27T12:16:47Z</time>
      </trkpt>
      <trkpt lat="44.39841" lon="3.56053">
        <ele>774</ele>
        <time>2022-05-27T12:16:48Z</time>
      </trkpt>
      <trkpt lat="44.39841" lon="3.56052">
        <ele>773</ele>
        <time>2022-05-27T12:16:49Z</time>
      </trkpt>
      <trkpt lat="44.3984" lon="3.56051">
        <ele>773</ele>
        <time>2022-05-27T12:16:50Z</time>
      </trkpt>
      <trkpt lat="44.39838" lon="3.5605">
        <ele>773</ele>
        <time>2022-05-27T12:16:51Z</time>
      </trkpt>
      <trkpt lat="44.39838" lon="3.56049">
        <ele>772</ele>
        <time>2022-05-27T12:16:52Z</time>
      </trkpt>
      <trkpt lat="44.39837" lon="3.56047">
        <ele>772</ele>
        <time>2022-05-27T12:16:53Z</time>
      </trkpt>
      <trkpt lat="44.39835" lon="3.56046">
        <ele>772</ele>
        <time>2022-05-27T12:16:54Z</time>
      </trkpt>
      <trkpt lat="44.39835" lon="3.56045">
        <ele>773</ele>
        <time>2022-05-27T12:16:55Z</time>
      </trkpt>
      <trkpt lat="44.39834" lon="3.56044">
        <ele>773</ele>
        <time>2022-05-27T12:16:56Z</time>
      </trkpt>
      <trkpt lat="44.39834" lon="3.56043">
        <ele>773</ele>
        <time>2022-05-27T12:16:57Z</time>
      </trkpt>
      <trkpt lat="44.39833" lon="3.56042">
        <ele>773</ele>
        <time>2022-05-27T12:16:58Z</time>
      </trkpt>
      <trkpt lat="44.39832" lon="3.5604">
        <ele>773</ele>
        <time>2022-05-27T12:16:59Z</time>
      </trkpt>
      <trkpt lat="44.39832" lon="3.56039">
        <ele>774</ele>
        <time>2022-05-27T12:17:00Z</time>
      </trkpt>
      <trkpt lat="44.39831" lon="3.56038">
        <ele>774</ele>
        <time>2022-05-27T12:17:01Z</time>
      </trkpt>
      <trkpt lat="44.3983" lon="3.56037">
        <ele>774</ele>
        <time>2022-05-27T12:17:02Z</time>
      </trkpt>
      <trkpt lat="44.3983" lon="3.56037">
        <ele>774</ele>
        <time>2022-05-27T12:17:03Z</time>
      </trkpt>
      <trkpt lat="44.39828" lon="3.56035">
        <ele>774</ele>
        <time>2022-05-27T12:17:04Z</time>
      </trkpt>
      <trkpt lat="44.39827" lon="3.56034">
        <ele>773</ele>
        <time>2022-05-27T12:17:05Z</time>
      </trkpt>
      <trkpt lat="44.39827" lon="3.56033">
        <ele>773</ele>
        <time>2022-05-27T12:17:06Z</time>
      </trkpt>
      <trkpt lat="44.39825" lon="3.56033">
        <ele>773</ele>
        <time>2022-05-27T12:17:07Z</time>
      </trkpt>
      <trkpt lat="44.39824" lon="3.56032">
        <ele>773</ele>
        <time>2022-05-27T12:17:08Z</time>
      </trkpt>
      <trkpt lat="44.39824" lon="3.56032">
        <ele>774</ele>
        <time>2022-05-27T12:17:09Z</time>
      </trkpt>
      <trkpt lat="44.39824" lon="3.56032">
        <ele>774</ele>
        <time>2022-05-27T12:17:10Z</time>
      </trkpt>
      <trkpt lat="44.39821" lon="3.5603">
        <ele>773</ele>
        <time>2022-05-27T12:17:11Z</time>
      </trkpt>
      <trkpt lat="44.3982" lon="3.56029">
        <ele>774</ele>
        <time>2022-05-27T12:17:12Z</time>
      </trkpt>
      <trkpt lat="44.39819" lon="3.56028">
        <ele>774</ele>
        <time>2022-05-27T12:17:13Z</time>
      </trkpt>
      <trkpt lat="44.39818" lon="3.56027">
        <ele>773</ele>
        <time>2022-05-27T12:17:14Z</time>
      </trkpt>
      <trkpt lat="44.39817" lon="3.56026">
        <ele>773</ele>
        <time>2022-05-27T12:17:15Z</time>
      </trkpt>
      <trkpt lat="44.39816" lon="3.56025">
        <ele>773</ele>
        <time>2022-05-27T12:17:16Z</time>
      </trkpt>
      <trkpt lat="44.39814" lon="3.56024">
        <ele>773</ele>
        <time>2022-05-27T12:17:17Z</time>
      </trkpt>
      <trkpt lat="44.39813" lon="3.56023">
        <ele>773</ele>
        <time>2022-05-27T12:17:18Z</time>
      </trkpt>
      <trkpt lat="44.39812" lon="3.56022">
        <ele>773</ele>
        <time>2022-05-27T12:17:19Z</time>
      </trkpt>
      <trkpt lat="44.39811" lon="3.56021">
        <ele>772</ele>
        <time>2022-05-27T12:17:20Z</time>
      </trkpt>
      <trkpt lat="44.3981" lon="3.56021">
        <ele>772</ele>
        <time>2022-05-27T12:17:21Z</time>
      </trkpt>
      <trkpt lat="44.3981" lon="3.56019">
        <ele>772</ele>
        <time>2022-05-27T12:17:22Z</time>
      </trkpt>
      <trkpt lat="44.39808" lon="3.56018">
        <ele>772</ele>
        <time>2022-05-27T12:17:23Z</time>
      </trkpt>
      <trkpt lat="44.39808" lon="3.56017">
        <ele>772</ele>
        <time>2022-05-27T12:17:24Z</time>
      </trkpt>
      <trkpt lat="44.39806" lon="3.56016">
        <ele>772</ele>
        <time>2022-05-27T12:17:25Z</time>
      </trkpt>
      <trkpt lat="44.39805" lon="3.56016">
        <ele>772</ele>
        <time>2022-05-27T12:17:26Z</time>
      </trkpt>
      <trkpt lat="44.39804" lon="3.56015">
        <ele>772</ele>
        <time>2022-05-27T12:17:27Z</time>
      </trkpt>
      <trkpt lat="44.39803" lon="3.56014">
        <ele>772</ele>
        <time>2022-05-27T12:17:28Z</time>
      </trkpt>
      <trkpt lat="44.39801" lon="3.56013">
        <ele>772</ele>
        <time>2022-05-27T12:17:29Z</time>
      </trkpt>
      <trkpt lat="44.398" lon="3.56012">
        <ele>771</ele>
        <time>2022-05-27T12:17:30Z</time>
      </trkpt>
      <trkpt lat="44.39798" lon="3.56011">
        <ele>771</ele>
        <time>2022-05-27T12:17:31Z</time>
      </trkpt>
      <trkpt lat="44.39797" lon="3.5601">
        <ele>772</ele>
        <time>2022-05-27T12:17:32Z</time>
      </trkpt>
      <trkpt lat="44.39796" lon="3.56009">
        <ele>772</ele>
        <time>2022-05-27T12:17:33Z</time>
      </trkpt>
      <trkpt lat="44.39795" lon="3.56008">
        <ele>772</ele>
        <time>2022-05-27T12:17:34Z</time>
      </trkpt>
      <trkpt lat="44.39794" lon="3.56006">
        <ele>772</ele>
        <time>2022-05-27T12:17:35Z</time>
      </trkpt>
      <trkpt lat="44.39793" lon="3.56005">
        <ele>772</ele>
        <time>2022-05-27T12:17:36Z</time>
      </trkpt>
      <trkpt lat="44.39793" lon="3.56004">
        <ele>772</ele>
        <time>2022-05-27T12:17:37Z</time>
      </trkpt>
      <trkpt lat="44.39792" lon="3.56003">
        <ele>772</ele>
        <time>2022-05-27T12:17:38Z</time>
      </trkpt>
      <trkpt lat="44.39791" lon="3.56001">
        <ele>773</ele>
        <time>2022-05-27T12:17:39Z</time>
      </trkpt>
      <trkpt lat="44.3979" lon="3.56">
        <ele>773</ele>
        <time>2022-05-27T12:17:40Z</time>
      </trkpt>
      <trkpt lat="44.39789" lon="3.55999">
        <ele>772</ele>
        <time>2022-05-27T12:17:41Z</time>
      </trkpt>
      <trkpt lat="44.39789" lon="3.55998">
        <ele>771</ele>
        <time>2022-05-27T12:17:42Z</time>
      </trkpt>
      <trkpt lat="44.39788" lon="3.55997">
        <ele>772</ele>
        <time>2022-05-27T12:17:43Z</time>
      </trkpt>
      <trkpt lat="44.39787" lon="3.55996">
        <ele>773</ele>
        <time>2022-05-27T12:17:44Z</time>
      </trkpt>
      <trkpt lat="44.39787" lon="3.55994">
        <ele>773</ele>
        <time>2022-05-27T12:17:45Z</time>
      </trkpt>
      <trkpt lat="44.39786" lon="3.55993">
        <ele>773</ele>
        <time>2022-05-27T12:17:46Z</time>
      </trkpt>
      <trkpt lat="44.39785" lon="3.55991">
        <ele>773</ele>
        <time>2022-05-27T12:17:47Z</time>
      </trkpt>
      <trkpt lat="44.39784" lon="3.5599">
        <ele>773</ele>
        <time>2022-05-27T12:17:48Z</time>
      </trkpt>
      <trkpt lat="44.39784" lon="3.55989">
        <ele>774</ele>
        <time>2022-05-27T12:17:49Z</time>
      </trkpt>
      <trkpt lat="44.39782" lon="3.55987">
        <ele>773</ele>
        <time>2022-05-27T12:17:50Z</time>
      </trkpt>
      <trkpt lat="44.39781" lon="3.55986">
        <ele>773</ele>
        <time>2022-05-27T12:17:51Z</time>
      </trkpt>
      <trkpt lat="44.3978" lon="3.55985">
        <ele>773</ele>
        <time>2022-05-27T12:17:52Z</time>
      </trkpt>
      <trkpt lat="44.39779" lon="3.55983">
        <ele>774</ele>
        <time>2022-05-27T12:17:53Z</time>
      </trkpt>
      <trkpt lat="44.39778" lon="3.55982">
        <ele>774</ele>
        <time>2022-05-27T12:17:54Z</time>
      </trkpt>
      <trkpt lat="44.39777" lon="3.55982">
        <ele>774</ele>
        <time>2022-05-27T12:17:55Z</time>
      </trkpt>
      <trkpt lat="44.39776" lon="3.55981">
        <ele>774</ele>
        <time>2022-05-27T12:17:56Z</time>
      </trkpt>
      <trkpt lat="44.39775" lon="3.55979">
        <ele>774</ele>
        <time>2022-05-27T12:17:57Z</time>
      </trkpt>
      <trkpt lat="44.39774" lon="3.55979">
        <ele>775</ele>
        <time>2022-05-27T12:17:58Z</time>
      </trkpt>
      <trkpt lat="44.39773" lon="3.55978">
        <ele>776</ele>
        <time>2022-05-27T12:17:59Z</time>
      </trkpt>
      <trkpt lat="44.39772" lon="3.55977">
        <ele>776</ele>
        <time>2022-05-27T12:18:00Z</time>
      </trkpt>
      <trkpt lat="44.39771" lon="3.55976">
        <ele>776</ele>
        <time>2022-05-27T12:18:01Z</time>
      </trkpt>
      <trkpt lat="44.39771" lon="3.55976">
        <ele>777</ele>
        <time>2022-05-27T12:18:02Z</time>
      </trkpt>
      <trkpt lat="44.3977" lon="3.55975">
        <ele>776</ele>
        <time>2022-05-27T12:18:03Z</time>
      </trkpt>
      <trkpt lat="44.39769" lon="3.55975">
        <ele>776</ele>
        <time>2022-05-27T12:18:04Z</time>
      </trkpt>
      <trkpt lat="44.39768" lon="3.55974">
        <ele>775</ele>
        <time>2022-05-27T12:18:05Z</time>
      </trkpt>
      <trkpt lat="44.39767" lon="3.55973">
        <ele>775</ele>
        <time>2022-05-27T12:18:06Z</time>
      </trkpt>
      <trkpt lat="44.39766" lon="3.55972">
        <ele>775</ele>
        <time>2022-05-27T12:18:07Z</time>
      </trkpt>
      <trkpt lat="44.39764" lon="3.55971">
        <ele>774</ele>
        <time>2022-05-27T12:18:08Z</time>
      </trkpt>
      <trkpt lat="44.39763" lon="3.5597">
        <ele>775</ele>
        <time>2022-05-27T12:18:09Z</time>
      </trkpt>
      <trkpt lat="44.39762" lon="3.55969">
        <ele>775</ele>
        <time>2022-05-27T12:18:10Z</time>
      </trkpt>
      <trkpt lat="44.39761" lon="3.55969">
        <ele>774</ele>
        <time>2022-05-27T12:18:11Z</time>
      </trkpt>
      <trkpt lat="44.39759" lon="3.55968">
        <ele>774</ele>
        <time>2022-05-27T12:18:12Z</time>
      </trkpt>
      <trkpt lat="44.39759" lon="3.55967">
        <ele>774</ele>
        <time>2022-05-27T12:18:13Z</time>
      </trkpt>
      <trkpt lat="44.39758" lon="3.55966">
        <ele>775</ele>
        <time>2022-05-27T12:18:14Z</time>
      </trkpt>
      <trkpt lat="44.39756" lon="3.55965">
        <ele>775</ele>
        <time>2022-05-27T12:18:15Z</time>
      </trkpt>
      <trkpt lat="44.39755" lon="3.55964">
        <ele>776</ele>
        <time>2022-05-27T12:18:16Z</time>
      </trkpt>
      <trkpt lat="44.39755" lon="3.55963">
        <ele>777</ele>
        <time>2022-05-27T12:18:17Z</time>
      </trkpt>
      <trkpt lat="44.39754" lon="3.55961">
        <ele>777</ele>
        <time>2022-05-27T12:18:18Z</time>
      </trkpt>
      <trkpt lat="44.39753" lon="3.55959">
        <ele>776</ele>
        <time>2022-05-27T12:18:19Z</time>
      </trkpt>
      <trkpt lat="44.39752" lon="3.55958">
        <ele>775</ele>
        <time>2022-05-27T12:18:20Z</time>
      </trkpt>
      <trkpt lat="44.39751" lon="3.55956">
        <ele>774</ele>
        <time>2022-05-27T12:18:21Z</time>
      </trkpt>
      <trkpt lat="44.3975" lon="3.55955">
        <ele>774</ele>
        <time>2022-05-27T12:18:22Z</time>
      </trkpt>
      <trkpt lat="44.39749" lon="3.55953">
        <ele>774</ele>
        <time>2022-05-27T12:18:23Z</time>
      </trkpt>
      <trkpt lat="44.39748" lon="3.55951">
        <ele>774</ele>
        <time>2022-05-27T12:18:24Z</time>
      </trkpt>
      <trkpt lat="44.39748" lon="3.5595">
        <ele>773</ele>
        <time>2022-05-27T12:18:25Z</time>
      </trkpt>
      <trkpt lat="44.39747" lon="3.55948">
        <ele>774</ele>
        <time>2022-05-27T12:18:26Z</time>
      </trkpt>
      <trkpt lat="44.39746" lon="3.55947">
        <ele>774</ele>
        <time>2022-05-27T12:18:27Z</time>
      </trkpt>
      <trkpt lat="44.39745" lon="3.55945">
        <ele>774</ele>
        <time>2022-05-27T12:18:28Z</time>
      </trkpt>
      <trkpt lat="44.39744" lon="3.55944">
        <ele>775</ele>
        <time>2022-05-27T12:18:29Z</time>
      </trkpt>
      <trkpt lat="44.39744" lon="3.55943">
        <ele>775</ele>
        <time>2022-05-27T12:18:30Z</time>
      </trkpt>
      <trkpt lat="44.39743" lon="3.55942">
        <ele>774</ele>
        <time>2022-05-27T12:18:31Z</time>
      </trkpt>
      <trkpt lat="44.39743" lon="3.55941">
        <ele>774</ele>
        <time>2022-05-27T12:18:32Z</time>
      </trkpt>
      <trkpt lat="44.39742" lon="3.55939">
        <ele>774</ele>
        <time>2022-05-27T12:18:33Z</time>
      </trkpt>
      <trkpt lat="44.39742" lon="3.55939">
        <ele>774</ele>
        <time>2022-05-27T12:18:34Z</time>
      </trkpt>
      <trkpt lat="44.39742" lon="3.55938">
        <ele>774</ele>
        <time>2022-05-27T12:18:35Z</time>
      </trkpt>
      <trkpt lat="44.39741" lon="3.55937">
        <ele>775</ele>
        <time>2022-05-27T12:18:36Z</time>
      </trkpt>
      <trkpt lat="44.3974" lon="3.55936">
        <ele>774</ele>
        <time>2022-05-27T12:18:37Z</time>
      </trkpt>
      <trkpt lat="44.39739" lon="3.55935">
        <ele>774</ele>
        <time>2022-05-27T12:18:38Z</time>
      </trkpt>
      <trkpt lat="44.39738" lon="3.55932">
        <ele>774</ele>
        <time>2022-05-27T12:18:39Z</time>
      </trkpt>
      <trkpt lat="44.39737" lon="3.55931">
        <ele>774</ele>
        <time>2022-05-27T12:18:40Z</time>
      </trkpt>
      <trkpt lat="44.39736" lon="3.55929">
        <ele>773</ele>
        <time>2022-05-27T12:18:41Z</time>
      </trkpt>
      <trkpt lat="44.39735" lon="3.55928">
        <ele>774</ele>
        <time>2022-05-27T12:18:42Z</time>
      </trkpt>
      <trkpt lat="44.39735" lon="3.55927">
        <ele>775</ele>
        <time>2022-05-27T12:18:43Z</time>
      </trkpt>
      <trkpt lat="44.39734" lon="3.55926">
        <ele>775</ele>
        <time>2022-05-27T12:18:44Z</time>
      </trkpt>
      <trkpt lat="44.39733" lon="3.55925">
        <ele>775</ele>
        <time>2022-05-27T12:18:45Z</time>
      </trkpt>
      <trkpt lat="44.39732" lon="3.55923">
        <ele>775</ele>
        <time>2022-05-27T12:18:46Z</time>
      </trkpt>
      <trkpt lat="44.39731" lon="3.55922">
        <ele>774</ele>
        <time>2022-05-27T12:18:47Z</time>
      </trkpt>
      <trkpt lat="44.3973" lon="3.5592">
        <ele>774</ele>
        <time>2022-05-27T12:18:48Z</time>
      </trkpt>
      <trkpt lat="44.39729" lon="3.55919">
        <ele>774</ele>
        <time>2022-05-27T12:18:49Z</time>
      </trkpt>
      <trkpt lat="44.39728" lon="3.55918">
        <ele>774</ele>
        <time>2022-05-27T12:18:50Z</time>
      </trkpt>
      <trkpt lat="44.39727" lon="3.55916">
        <ele>774</ele>
        <time>2022-05-27T12:18:51Z</time>
      </trkpt>
      <trkpt lat="44.39727" lon="3.55915">
        <ele>775</ele>
        <time>2022-05-27T12:18:52Z</time>
      </trkpt>
      <trkpt lat="44.39726" lon="3.55915">
        <ele>775</ele>
        <time>2022-05-27T12:18:53Z</time>
      </trkpt>
      <trkpt lat="44.39725" lon="3.55913">
        <ele>774</ele>
        <time>2022-05-27T12:18:54Z</time>
      </trkpt>
      <trkpt lat="44.39724" lon="3.55912">
        <ele>774</ele>
        <time>2022-05-27T12:18:55Z</time>
      </trkpt>
      <trkpt lat="44.39724" lon="3.55909">
        <ele>774</ele>
        <time>2022-05-27T12:18:56Z</time>
      </trkpt>
      <trkpt lat="44.39723" lon="3.55908">
        <ele>773</ele>
        <time>2022-05-27T12:18:57Z</time>
      </trkpt>
      <trkpt lat="44.39722" lon="3.55907">
        <ele>773</ele>
        <time>2022-05-27T12:18:58Z</time>
      </trkpt>
      <trkpt lat="44.39721" lon="3.55905">
        <ele>772</ele>
        <time>2022-05-27T12:18:59Z</time>
      </trkpt>
      <trkpt lat="44.39721" lon="3.55904">
        <ele>773</ele>
        <time>2022-05-27T12:19:00Z</time>
      </trkpt>
      <trkpt lat="44.39721" lon="3.55903">
        <ele>772</ele>
        <time>2022-05-27T12:19:01Z</time>
      </trkpt>
      <trkpt lat="44.3972" lon="3.55902">
        <ele>772</ele>
        <time>2022-05-27T12:19:02Z</time>
      </trkpt>
      <trkpt lat="44.39719" lon="3.55901">
        <ele>772</ele>
        <time>2022-05-27T12:19:03Z</time>
      </trkpt>
      <trkpt lat="44.39719" lon="3.559">
        <ele>771</ele>
        <time>2022-05-27T12:19:04Z</time>
      </trkpt>
      <trkpt lat="44.39718" lon="3.55899">
        <ele>771</ele>
        <time>2022-05-27T12:19:05Z</time>
      </trkpt>
      <trkpt lat="44.39718" lon="3.55898">
        <ele>771</ele>
        <time>2022-05-27T12:19:06Z</time>
      </trkpt>
      <trkpt lat="44.39717" lon="3.55897">
        <ele>770</ele>
        <time>2022-05-27T12:19:07Z</time>
      </trkpt>
      <trkpt lat="44.39717" lon="3.55897">
        <ele>770</ele>
        <time>2022-05-27T12:19:08Z</time>
      </trkpt>
      <trkpt lat="44.39716" lon="3.55896">
        <ele>770</ele>
        <time>2022-05-27T12:19:09Z</time>
      </trkpt>
      <trkpt lat="44.39715" lon="3.55894">
        <ele>770</ele>
        <time>2022-05-27T12:19:10Z</time>
      </trkpt>
      <trkpt lat="44.39714" lon="3.55893">
        <ele>770</ele>
        <time>2022-05-27T12:19:11Z</time>
      </trkpt>
      <trkpt lat="44.39714" lon="3.55892">
        <ele>769</ele>
        <time>2022-05-27T12:19:12Z</time>
      </trkpt>
      <trkpt lat="44.39713" lon="3.55891">
        <ele>769</ele>
        <time>2022-05-27T12:19:13Z</time>
      </trkpt>
      <trkpt lat="44.39712" lon="3.5589">
        <ele>769</ele>
        <time>2022-05-27T12:19:14Z</time>
      </trkpt>
      <trkpt lat="44.39711" lon="3.55889">
        <ele>768</ele>
        <time>2022-05-27T12:19:15Z</time>
      </trkpt>
      <trkpt lat="44.3971" lon="3.55887">
        <ele>767</ele>
        <time>2022-05-27T12:19:16Z</time>
      </trkpt>
      <trkpt lat="44.39709" lon="3.55886">
        <ele>768</ele>
        <time>2022-05-27T12:19:17Z</time>
      </trkpt>
      <trkpt lat="44.39708" lon="3.55885">
        <ele>768</ele>
        <time>2022-05-27T12:19:18Z</time>
      </trkpt>
      <trkpt lat="44.39707" lon="3.55883">
        <ele>768</ele>
        <time>2022-05-27T12:19:19Z</time>
      </trkpt>
      <trkpt lat="44.39705" lon="3.55882">
        <ele>769</ele>
        <time>2022-05-27T12:19:20Z</time>
      </trkpt>
      <trkpt lat="44.39705" lon="3.55881">
        <ele>769</ele>
        <time>2022-05-27T12:19:21Z</time>
      </trkpt>
      <trkpt lat="44.39703" lon="3.5588">
        <ele>769</ele>
        <time>2022-05-27T12:19:22Z</time>
      </trkpt>
      <trkpt lat="44.39703" lon="3.55878">
        <ele>770</ele>
        <time>2022-05-27T12:19:23Z</time>
      </trkpt>
      <trkpt lat="44.39702" lon="3.55877">
        <ele>770</ele>
        <time>2022-05-27T12:19:24Z</time>
      </trkpt>
      <trkpt lat="44.39701" lon="3.55875">
        <ele>770</ele>
        <time>2022-05-27T12:19:25Z</time>
      </trkpt>
      <trkpt lat="44.39701" lon="3.55874">
        <ele>770</ele>
        <time>2022-05-27T12:19:26Z</time>
      </trkpt>
      <trkpt lat="44.397" lon="3.55872">
        <ele>770</ele>
        <time>2022-05-27T12:19:27Z</time>
      </trkpt>
      <trkpt lat="44.39699" lon="3.55871">
        <ele>770</ele>
        <time>2022-05-27T12:19:28Z</time>
      </trkpt>
      <trkpt lat="44.39698" lon="3.5587">
        <ele>770</ele>
        <time>2022-05-27T12:19:29Z</time>
      </trkpt>
      <trkpt lat="44.39697" lon="3.55868">
        <ele>771</ele>
        <time>2022-05-27T12:19:30Z</time>
      </trkpt>
      <trkpt lat="44.39697" lon="3.55867">
        <ele>771</ele>
        <time>2022-05-27T12:19:31Z</time>
      </trkpt>
      <trkpt lat="44.39696" lon="3.55866">
        <ele>771</ele>
        <time>2022-05-27T12:19:32Z</time>
      </trkpt>
      <trkpt lat="44.39695" lon="3.55865">
        <ele>771</ele>
        <time>2022-05-27T12:19:33Z</time>
      </trkpt>
      <trkpt lat="44.39694" lon="3.55864">
        <ele>771</ele>
        <time>2022-05-27T12:19:34Z</time>
      </trkpt>
      <trkpt lat="44.39693" lon="3.55864">
        <ele>771</ele>
        <time>2022-05-27T12:19:35Z</time>
      </trkpt>
      <trkpt lat="44.39692" lon="3.55863">
        <ele>771</ele>
        <time>2022-05-27T12:19:36Z</time>
      </trkpt>
      <trkpt lat="44.3969" lon="3.55862">
        <ele>771</ele>
        <time>2022-05-27T12:19:37Z</time>
      </trkpt>
      <trkpt lat="44.39689" lon="3.55861">
        <ele>771</ele>
        <time>2022-05-27T12:19:38Z</time>
      </trkpt>
      <trkpt lat="44.39687" lon="3.5586">
        <ele>771</ele>
        <time>2022-05-27T12:19:39Z</time>
      </trkpt>
      <trkpt lat="44.39686" lon="3.55859">
        <ele>771</ele>
        <time>2022-05-27T12:19:40Z</time>
      </trkpt>
      <trkpt lat="44.39685" lon="3.55859">
        <ele>771</ele>
        <time>2022-05-27T12:19:41Z</time>
      </trkpt>
      <trkpt lat="44.39683" lon="3.55858">
        <ele>772</ele>
        <time>2022-05-27T12:19:42Z</time>
      </trkpt>
      <trkpt lat="44.39682" lon="3.55857">
        <ele>771</ele>
        <time>2022-05-27T12:19:43Z</time>
      </trkpt>
      <trkpt lat="44.3968" lon="3.55857">
        <ele>771</ele>
        <time>2022-05-27T12:19:44Z</time>
      </trkpt>
      <trkpt lat="44.39678" lon="3.55856">
        <ele>771</ele>
        <time>2022-05-27T12:19:45Z</time>
      </trkpt>
      <trkpt lat="44.39677" lon="3.55855">
        <ele>771</ele>
        <time>2022-05-27T12:19:46Z</time>
      </trkpt>
      <trkpt lat="44.39676" lon="3.55854">
        <ele>771</ele>
        <time>2022-05-27T12:19:47Z</time>
      </trkpt>
      <trkpt lat="44.39675" lon="3.55853">
        <ele>772</ele>
        <time>2022-05-27T12:19:48Z</time>
      </trkpt>
      <trkpt lat="44.39674" lon="3.55852">
        <ele>772</ele>
        <time>2022-05-27T12:19:49Z</time>
      </trkpt>
      <trkpt lat="44.39673" lon="3.55851">
        <ele>772</ele>
        <time>2022-05-27T12:19:50Z</time>
      </trkpt>
      <trkpt lat="44.39672" lon="3.5585">
        <ele>771</ele>
        <time>2022-05-27T12:19:51Z</time>
      </trkpt>
      <trkpt lat="44.39671" lon="3.55849">
        <ele>771</ele>
        <time>2022-05-27T12:19:52Z</time>
      </trkpt>
      <trkpt lat="44.39669" lon="3.55847">
        <ele>771</ele>
        <time>2022-05-27T12:19:53Z</time>
      </trkpt>
      <trkpt lat="44.39668" lon="3.55846">
        <ele>770</ele>
        <time>2022-05-27T12:19:54Z</time>
      </trkpt>
      <trkpt lat="44.39667" lon="3.55844">
        <ele>771</ele>
        <time>2022-05-27T12:19:55Z</time>
      </trkpt>
      <trkpt lat="44.39666" lon="3.55843">
        <ele>771</ele>
        <time>2022-05-27T12:19:56Z</time>
      </trkpt>
      <trkpt lat="44.39665" lon="3.55841">
        <ele>770</ele>
        <time>2022-05-27T12:19:57Z</time>
      </trkpt>
      <trkpt lat="44.39664" lon="3.5584">
        <ele>769</ele>
        <time>2022-05-27T12:19:58Z</time>
      </trkpt>
      <trkpt lat="44.39664" lon="3.55839">
        <ele>769</ele>
        <time>2022-05-27T12:19:59Z</time>
      </trkpt>
      <trkpt lat="44.39663" lon="3.55838">
        <ele>769</ele>
        <time>2022-05-27T12:20:00Z</time>
      </trkpt>
      <trkpt lat="44.39662" lon="3.55837">
        <ele>769</ele>
        <time>2022-05-27T12:20:01Z</time>
      </trkpt>
      <trkpt lat="44.3966" lon="3.55836">
        <ele>769</ele>
        <time>2022-05-27T12:20:02Z</time>
      </trkpt>
      <trkpt lat="44.39659" lon="3.55835">
        <ele>769</ele>
        <time>2022-05-27T12:20:03Z</time>
      </trkpt>
      <trkpt lat="44.39658" lon="3.55834">
        <ele>769</ele>
        <time>2022-05-27T12:20:04Z</time>
      </trkpt>
      <trkpt lat="44.39657" lon="3.55832">
        <ele>769</ele>
        <time>2022-05-27T12:20:05Z</time>
      </trkpt>
      <trkpt lat="44.39655" lon="3.55832">
        <ele>769</ele>
        <time>2022-05-27T12:20:06Z</time>
      </trkpt>
      <trkpt lat="44.39654" lon="3.55831">
        <ele>770</ele>
        <time>2022-05-27T12:20:07Z</time>
      </trkpt>
      <trkpt lat="44.39653" lon="3.55831">
        <ele>769</ele>
        <time>2022-05-27T12:20:08Z</time>
      </trkpt>
      <trkpt lat="44.39652" lon="3.5583">
        <ele>769</ele>
        <time>2022-05-27T12:20:09Z</time>
      </trkpt>
      <trkpt lat="44.39651" lon="3.55829">
        <ele>768</ele>
        <time>2022-05-27T12:20:10Z</time>
      </trkpt>
      <trkpt lat="44.3965" lon="3.55828">
        <ele>768</ele>
        <time>2022-05-27T12:20:11Z</time>
      </trkpt>
      <trkpt lat="44.39648" lon="3.55826">
        <ele>768</ele>
        <time>2022-05-27T12:20:12Z</time>
      </trkpt>
      <trkpt lat="44.39647" lon="3.55825">
        <ele>767</ele>
        <time>2022-05-27T12:20:13Z</time>
      </trkpt>
      <trkpt lat="44.39647" lon="3.55823">
        <ele>767</ele>
        <time>2022-05-27T12:20:14Z</time>
      </trkpt>
      <trkpt lat="44.39646" lon="3.55822">
        <ele>766</ele>
        <time>2022-05-27T12:20:15Z</time>
      </trkpt>
      <trkpt lat="44.39645" lon="3.5582">
        <ele>766</ele>
        <time>2022-05-27T12:20:16Z</time>
      </trkpt>
      <trkpt lat="44.39644" lon="3.55819">
        <ele>765</ele>
        <time>2022-05-27T12:20:17Z</time>
      </trkpt>
      <trkpt lat="44.39642" lon="3.55817">
        <ele>765</ele>
        <time>2022-05-27T12:20:18Z</time>
      </trkpt>
      <trkpt lat="44.39641" lon="3.55817">
        <ele>765</ele>
        <time>2022-05-27T12:20:19Z</time>
      </trkpt>
      <trkpt lat="44.3964" lon="3.55816">
        <ele>764</ele>
        <time>2022-05-27T12:20:20Z</time>
      </trkpt>
      <trkpt lat="44.39639" lon="3.55814">
        <ele>764</ele>
        <time>2022-05-27T12:20:21Z</time>
      </trkpt>
      <trkpt lat="44.39638" lon="3.55813">
        <ele>762</ele>
        <time>2022-05-27T12:20:22Z</time>
      </trkpt>
      <trkpt lat="44.39637" lon="3.55812">
        <ele>762</ele>
        <time>2022-05-27T12:20:23Z</time>
      </trkpt>
      <trkpt lat="44.39636" lon="3.5581">
        <ele>761</ele>
        <time>2022-05-27T12:20:24Z</time>
      </trkpt>
      <trkpt lat="44.39636" lon="3.55809">
        <ele>761</ele>
        <time>2022-05-27T12:20:25Z</time>
      </trkpt>
      <trkpt lat="44.39636" lon="3.55808">
        <ele>760</ele>
        <time>2022-05-27T12:20:26Z</time>
      </trkpt>
      <trkpt lat="44.39636" lon="3.55808">
        <ele>761</ele>
        <time>2022-05-27T12:20:27Z</time>
      </trkpt>
      <trkpt lat="44.39635" lon="3.55807">
        <ele>760</ele>
        <time>2022-05-27T12:20:28Z</time>
      </trkpt>
      <trkpt lat="44.39634" lon="3.55806">
        <ele>760</ele>
        <time>2022-05-27T12:20:29Z</time>
      </trkpt>
      <trkpt lat="44.39634" lon="3.55805">
        <ele>759</ele>
        <time>2022-05-27T12:20:30Z</time>
      </trkpt>
      <trkpt lat="44.39633" lon="3.55804">
        <ele>758</ele>
        <time>2022-05-27T12:20:31Z</time>
      </trkpt>
      <trkpt lat="44.39632" lon="3.55802">
        <ele>757</ele>
        <time>2022-05-27T12:20:32Z</time>
      </trkpt>
      <trkpt lat="44.39632" lon="3.558">
        <ele>757</ele>
        <time>2022-05-27T12:20:33Z</time>
      </trkpt>
      <trkpt lat="44.39632" lon="3.55799">
        <ele>758</ele>
        <time>2022-05-27T12:20:34Z</time>
      </trkpt>
      <trkpt lat="44.39632" lon="3.55798">
        <ele>757</ele>
        <time>2022-05-27T12:20:35Z</time>
      </trkpt>
      <trkpt lat="44.39632" lon="3.55796">
        <ele>757</ele>
        <time>2022-05-27T12:20:36Z</time>
      </trkpt>
      <trkpt lat="44.39632" lon="3.55795">
        <ele>757</ele>
        <time>2022-05-27T12:20:37Z</time>
      </trkpt>
      <trkpt lat="44.39632" lon="3.55794">
        <ele>757</ele>
        <time>2022-05-27T12:20:38Z</time>
      </trkpt>
      <trkpt lat="44.39632" lon="3.55793">
        <ele>757</ele>
        <time>2022-05-27T12:20:39Z</time>
      </trkpt>
      <trkpt lat="44.39632" lon="3.55793">
        <ele>757</ele>
        <time>2022-05-27T12:20:40Z</time>
      </trkpt>
      <trkpt lat="44.39633" lon="3.55792">
        <ele>757</ele>
        <time>2022-05-27T12:20:41Z</time>
      </trkpt>
      <trkpt lat="44.39633" lon="3.55791">
        <ele>757</ele>
        <time>2022-05-27T12:20:42Z</time>
      </trkpt>
      <trkpt lat="44.39633" lon="3.5579">
        <ele>757</ele>
        <time>2022-05-27T12:20:43Z</time>
      </trkpt>
      <trkpt lat="44.39634" lon="3.55788">
        <ele>757</ele>
        <time>2022-05-27T12:20:44Z</time>
      </trkpt>
      <trkpt lat="44.39634" lon="3.55787">
        <ele>757</ele>
        <time>2022-05-27T12:20:45Z</time>
      </trkpt>
      <trkpt lat="44.39635" lon="3.55786">
        <ele>757</ele>
        <time>2022-05-27T12:20:46Z</time>
      </trkpt>
      <trkpt lat="44.39636" lon="3.55785">
        <ele>757</ele>
        <time>2022-05-27T12:20:47Z</time>
      </trkpt>
      <trkpt lat="44.39636" lon="3.55784">
        <ele>757</ele>
        <time>2022-05-27T12:20:48Z</time>
      </trkpt>
      <trkpt lat="44.39636" lon="3.55782">
        <ele>756</ele>
        <time>2022-05-27T12:20:49Z</time>
      </trkpt>
      <trkpt lat="44.39637" lon="3.55781">
        <ele>756</ele>
        <time>2022-05-27T12:20:50Z</time>
      </trkpt>
      <trkpt lat="44.39637" lon="3.5578">
        <ele>757</ele>
        <time>2022-05-27T12:20:51Z</time>
      </trkpt>
      <trkpt lat="44.39637" lon="3.55778">
        <ele>757</ele>
        <time>2022-05-27T12:20:52Z</time>
      </trkpt>
      <trkpt lat="44.39638" lon="3.55777">
        <ele>757</ele>
        <time>2022-05-27T12:20:53Z</time>
      </trkpt>
      <trkpt lat="44.39639" lon="3.55776">
        <ele>758</ele>
        <time>2022-05-27T12:20:54Z</time>
      </trkpt>
      <trkpt lat="44.39639" lon="3.55775">
        <ele>758</ele>
        <time>2022-05-27T12:20:55Z</time>
      </trkpt>
      <trkpt lat="44.3964" lon="3.55774">
        <ele>758</ele>
        <time>2022-05-27T12:20:56Z</time>
      </trkpt>
      <trkpt lat="44.39641" lon="3.55772">
        <ele>757</ele>
        <time>2022-05-27T12:20:57Z</time>
      </trkpt>
      <trkpt lat="44.39642" lon="3.55771">
        <ele>757</ele>
        <time>2022-05-27T12:20:58Z</time>
      </trkpt>
      <trkpt lat="44.39643" lon="3.5577">
        <ele>757</ele>
        <time>2022-05-27T12:20:59Z</time>
      </trkpt>
      <trkpt lat="44.39644" lon="3.55768">
        <ele>757</ele>
        <time>2022-05-27T12:21:00Z</time>
      </trkpt>
      <trkpt lat="44.39645" lon="3.55767">
        <ele>757</ele>
        <time>2022-05-27T12:21:01Z</time>
      </trkpt>
      <trkpt lat="44.39645" lon="3.55766">
        <ele>757</ele>
        <time>2022-05-27T12:21:02Z</time>
      </trkpt>
      <trkpt lat="44.39646" lon="3.55765">
        <ele>757</ele>
        <time>2022-05-27T12:21:03Z</time>
      </trkpt>
      <trkpt lat="44.39647" lon="3.55764">
        <ele>757</ele>
        <time>2022-05-27T12:21:04Z</time>
      </trkpt>
      <trkpt lat="44.39648" lon="3.55764">
        <ele>757</ele>
        <time>2022-05-27T12:21:05Z</time>
      </trkpt>
      <trkpt lat="44.39649" lon="3.55763">
        <ele>757</ele>
        <time>2022-05-27T12:21:06Z</time>
      </trkpt>
      <trkpt lat="44.3965" lon="3.55762">
        <ele>757</ele>
        <time>2022-05-27T12:21:07Z</time>
      </trkpt>
      <trkpt lat="44.3965" lon="3.55762">
        <ele>757</ele>
        <time>2022-05-27T12:21:07Z</time>
      </trkpt>
      <trkpt lat="44.39651" lon="3.55761">
        <ele>756</ele>
        <time>2022-05-27T12:21:08Z</time>
      </trkpt>
      <trkpt lat="44.39653" lon="3.55758">
        <ele>756</ele>
        <time>2022-05-27T12:21:10Z</time>
      </trkpt>
      <trkpt lat="44.39653" lon="3.55758">
        <ele>756</ele>
        <time>2022-05-27T12:21:10Z</time>
      </trkpt>
      <trkpt lat="44.39655" lon="3.55756">
        <ele>756</ele>
        <time>2022-05-27T12:21:12Z</time>
      </trkpt>
      <trkpt lat="44.39655" lon="3.55756">
        <ele>756</ele>
        <time>2022-05-27T12:21:12Z</time>
      </trkpt>
      <trkpt lat="44.39656" lon="3.55753">
        <ele>756</ele>
        <time>2022-05-27T12:21:14Z</time>
      </trkpt>
      <trkpt lat="44.39656" lon="3.55753">
        <ele>756</ele>
        <time>2022-05-27T12:21:14Z</time>
      </trkpt>
      <trkpt lat="44.39658" lon="3.5575">
        <ele>756</ele>
        <time>2022-05-27T12:21:16Z</time>
      </trkpt>
      <trkpt lat="44.39658" lon="3.5575">
        <ele>756</ele>
        <time>2022-05-27T12:21:16Z</time>
      </trkpt>
      <trkpt lat="44.39659" lon="3.55747">
        <ele>756</ele>
        <time>2022-05-27T12:21:18Z</time>
      </trkpt>
      <trkpt lat="44.39659" lon="3.55747">
        <ele>756</ele>
        <time>2022-05-27T12:21:18Z</time>
      </trkpt>
      <trkpt lat="44.39659" lon="3.55745">
        <ele>755</ele>
        <time>2022-05-27T12:21:19Z</time>
      </trkpt>
      <trkpt lat="44.39659" lon="3.55744">
        <ele>755</ele>
        <time>2022-05-27T12:21:20Z</time>
      </trkpt>
      <trkpt lat="44.39658" lon="3.5574">
        <ele>754</ele>
        <time>2022-05-27T12:21:22Z</time>
      </trkpt>
      <trkpt lat="44.39659" lon="3.55738">
        <ele>754</ele>
        <time>2022-05-27T12:21:23Z</time>
      </trkpt>
      <trkpt lat="44.39659" lon="3.55736">
        <ele>754</ele>
        <time>2022-05-27T12:21:24Z</time>
      </trkpt>
      <trkpt lat="44.3966" lon="3.55735">
        <ele>754</ele>
        <time>2022-05-27T12:21:25Z</time>
      </trkpt>
      <trkpt lat="44.3966" lon="3.55735">
        <ele>754</ele>
        <time>2022-05-27T12:21:25Z</time>
      </trkpt>
      <trkpt lat="44.3966" lon="3.55735">
        <ele>754</ele>
        <time>2022-05-27T12:21:27Z</time>
      </trkpt>
      <trkpt lat="44.3966" lon="3.55735">
        <ele>754</ele>
        <time>2022-05-27T12:21:27Z</time>
      </trkpt>
      <trkpt lat="44.39661" lon="3.55733">
        <ele>752</ele>
        <time>2022-05-27T12:21:29Z</time>
      </trkpt>
      <trkpt lat="44.39661" lon="3.55732">
        <ele>751</ele>
        <time>2022-05-27T12:21:30Z</time>
      </trkpt>
      <trkpt lat="44.39661" lon="3.55731">
        <ele>751</ele>
        <time>2022-05-27T12:21:31Z</time>
      </trkpt>
      <trkpt lat="44.39661" lon="3.5573">
        <ele>751</ele>
        <time>2022-05-27T12:21:32Z</time>
      </trkpt>
      <trkpt lat="44.39661" lon="3.5573">
        <ele>751</ele>
        <time>2022-05-27T12:21:32Z</time>
      </trkpt>
      <trkpt lat="44.39663" lon="3.55729">
        <ele>750</ele>
        <time>2022-05-27T12:21:34Z</time>
      </trkpt>
      <trkpt lat="44.39663" lon="3.55729">
        <ele>750</ele>
        <time>2022-05-27T12:21:34Z</time>
      </trkpt>
      <trkpt lat="44.39663" lon="3.55728">
        <ele>749</ele>
        <time>2022-05-27T12:21:35Z</time>
      </trkpt>
      <trkpt lat="44.39663" lon="3.55728">
        <ele>749</ele>
        <time>2022-05-27T12:21:36Z</time>
      </trkpt>
      <trkpt lat="44.39663" lon="3.55728">
        <ele>749</ele>
        <time>2022-05-27T12:21:37Z</time>
      </trkpt>
      <trkpt lat="44.39663" lon="3.55728">
        <ele>749</ele>
        <time>2022-05-27T12:21:38Z</time>
      </trkpt>
      <trkpt lat="44.39663" lon="3.55728">
        <ele>749</ele>
        <time>2022-05-27T12:21:38Z</time>
      </trkpt>
      <trkpt lat="44.39663" lon="3.55728">
        <ele>749</ele>
        <time>2022-05-27T12:21:38Z</time>
      </trkpt>
      <trkpt lat="44.39665" lon="3.55723">
        <ele>746</ele>
        <time>2022-05-27T12:23:59Z</time>
      </trkpt>
      <trkpt lat="44.39665" lon="3.55723">
        <ele>747</ele>
        <time>2022-05-27T12:24:00Z</time>
      </trkpt>
      <trkpt lat="44.39665" lon="3.55721">
        <ele>747</ele>
        <time>2022-05-27T12:24:01Z</time>
      </trkpt>
      <trkpt lat="44.39666" lon="3.5572">
        <ele>748</ele>
        <time>2022-05-27T12:24:02Z</time>
      </trkpt>
      <trkpt lat="44.39666" lon="3.55719">
        <ele>748</ele>
        <time>2022-05-27T12:24:03Z</time>
      </trkpt>
      <trkpt lat="44.39665" lon="3.55719">
        <ele>748</ele>
        <time>2022-05-27T12:24:04Z</time>
      </trkpt>
      <trkpt lat="44.39665" lon="3.55719">
        <ele>748</ele>
        <time>2022-05-27T12:24:04Z</time>
      </trkpt>
      <trkpt lat="44.39665" lon="3.55719">
        <ele>748</ele>
        <time>2022-05-27T12:24:04Z</time>
      </trkpt>
      <trkpt lat="44.39667" lon="3.5571">
        <ele>747</ele>
        <time>2022-05-27T12:25:49Z</time>
      </trkpt>
      <trkpt lat="44.39668" lon="3.55708">
        <ele>746</ele>
        <time>2022-05-27T12:25:51Z</time>
      </trkpt>
      <trkpt lat="44.39669" lon="3.55707">
        <ele>746</ele>
        <time>2022-05-27T12:25:52Z</time>
      </trkpt>
      <trkpt lat="44.39669" lon="3.55707">
        <ele>746</ele>
        <time>2022-05-27T12:25:53Z</time>
      </trkpt>
      <trkpt lat="44.39671" lon="3.55707">
        <ele>745</ele>
        <time>2022-05-27T12:25:54Z</time>
      </trkpt>
      <trkpt lat="44.39671" lon="3.55706">
        <ele>744</ele>
        <time>2022-05-27T12:25:55Z</time>
      </trkpt>
      <trkpt lat="44.39672" lon="3.55706">
        <ele>745</ele>
        <time>2022-05-27T12:25:56Z</time>
      </trkpt>
      <trkpt lat="44.39673" lon="3.55706">
        <ele>745</ele>
        <time>2022-05-27T12:25:57Z</time>
      </trkpt>
      <trkpt lat="44.39673" lon="3.55705">
        <ele>745</ele>
        <time>2022-05-27T12:25:58Z</time>
      </trkpt>
      <trkpt lat="44.39674" lon="3.55705">
        <ele>744</ele>
        <time>2022-05-27T12:25:59Z</time>
      </trkpt>
      <trkpt lat="44.39674" lon="3.55704">
        <ele>744</ele>
        <time>2022-05-27T12:26:00Z</time>
      </trkpt>
      <trkpt lat="44.39674" lon="3.55703">
        <ele>744</ele>
        <time>2022-05-27T12:26:01Z</time>
      </trkpt>
      <trkpt lat="44.39675" lon="3.55702">
        <ele>745</ele>
        <time>2022-05-27T12:26:02Z</time>
      </trkpt>
      <trkpt lat="44.39675" lon="3.55702">
        <ele>745</ele>
        <time>2022-05-27T12:26:02Z</time>
      </trkpt>
      <trkpt lat="44.39677" lon="3.557">
        <ele>747</ele>
        <time>2022-05-27T12:26:04Z</time>
      </trkpt>
      <trkpt lat="44.39678" lon="3.55699">
        <ele>746</ele>
        <time>2022-05-27T12:26:05Z</time>
      </trkpt>
      <trkpt lat="44.39679" lon="3.55699">
        <ele>747</ele>
        <time>2022-05-27T12:26:06Z</time>
      </trkpt>
      <trkpt lat="44.39679" lon="3.55697">
        <ele>746</ele>
        <time>2022-05-27T12:26:07Z</time>
      </trkpt>
      <trkpt lat="44.3968" lon="3.55697">
        <ele>746</ele>
        <time>2022-05-27T12:26:08Z</time>
      </trkpt>
      <trkpt lat="44.3968" lon="3.55695">
        <ele>747</ele>
        <time>2022-05-27T12:26:09Z</time>
      </trkpt>
      <trkpt lat="44.39681" lon="3.55694">
        <ele>748</ele>
        <time>2022-05-27T12:26:10Z</time>
      </trkpt>
      <trkpt lat="44.39682" lon="3.55693">
        <ele>747</ele>
        <time>2022-05-27T12:26:11Z</time>
      </trkpt>
      <trkpt lat="44.39682" lon="3.55692">
        <ele>747</ele>
        <time>2022-05-27T12:26:12Z</time>
      </trkpt>
      <trkpt lat="44.39684" lon="3.55691">
        <ele>747</ele>
        <time>2022-05-27T12:26:13Z</time>
      </trkpt>
      <trkpt lat="44.39684" lon="3.55691">
        <ele>747</ele>
        <time>2022-05-27T12:26:14Z</time>
      </trkpt>
      <trkpt lat="44.39684" lon="3.5569">
        <ele>747</ele>
        <time>2022-05-27T12:26:15Z</time>
      </trkpt>
      <trkpt lat="44.39684" lon="3.55689">
        <ele>746</ele>
        <time>2022-05-27T12:26:16Z</time>
      </trkpt>
      <trkpt lat="44.39684" lon="3.55687">
        <ele>746</ele>
        <time>2022-05-27T12:26:17Z</time>
      </trkpt>
      <trkpt lat="44.39685" lon="3.55686">
        <ele>746</ele>
        <time>2022-05-27T12:26:18Z</time>
      </trkpt>
      <trkpt lat="44.39685" lon="3.55685">
        <ele>746</ele>
        <time>2022-05-27T12:26:19Z</time>
      </trkpt>
      <trkpt lat="44.39685" lon="3.55683">
        <ele>746</ele>
        <time>2022-05-27T12:26:20Z</time>
      </trkpt>
      <trkpt lat="44.39685" lon="3.55682">
        <ele>747</ele>
        <time>2022-05-27T12:26:21Z</time>
      </trkpt>
      <trkpt lat="44.39685" lon="3.5568">
        <ele>748</ele>
        <time>2022-05-27T12:26:22Z</time>
      </trkpt>
      <trkpt lat="44.39685" lon="3.55678">
        <ele>747</ele>
        <time>2022-05-27T12:26:23Z</time>
      </trkpt>
      <trkpt lat="44.39685" lon="3.55676">
        <ele>747</ele>
        <time>2022-05-27T12:26:24Z</time>
      </trkpt>
      <trkpt lat="44.39686" lon="3.55674">
        <ele>747</ele>
        <time>2022-05-27T12:26:25Z</time>
      </trkpt>
      <trkpt lat="44.39686" lon="3.55673">
        <ele>746</ele>
        <time>2022-05-27T12:26:26Z</time>
      </trkpt>
      <trkpt lat="44.39687" lon="3.55672">
        <ele>747</ele>
        <time>2022-05-27T12:26:27Z</time>
      </trkpt>
      <trkpt lat="44.39689" lon="3.55672">
        <ele>748</ele>
        <time>2022-05-27T12:26:28Z</time>
      </trkpt>
      <trkpt lat="44.3969" lon="3.55671">
        <ele>748</ele>
        <time>2022-05-27T12:26:29Z</time>
      </trkpt>
      <trkpt lat="44.39691" lon="3.5567">
        <ele>747</ele>
        <time>2022-05-27T12:26:30Z</time>
      </trkpt>
      <trkpt lat="44.39692" lon="3.55669">
        <ele>746</ele>
        <time>2022-05-27T12:26:31Z</time>
      </trkpt>
      <trkpt lat="44.39692" lon="3.55668">
        <ele>746</ele>
        <time>2022-05-27T12:26:32Z</time>
      </trkpt>
      <trkpt lat="44.39693" lon="3.55667">
        <ele>744</ele>
        <time>2022-05-27T12:26:33Z</time>
      </trkpt>
      <trkpt lat="44.39693" lon="3.55665">
        <ele>744</ele>
        <time>2022-05-27T12:26:34Z</time>
      </trkpt>
      <trkpt lat="44.39693" lon="3.55664">
        <ele>743</ele>
        <time>2022-05-27T12:26:35Z</time>
      </trkpt>
      <trkpt lat="44.39693" lon="3.55663">
        <ele>744</ele>
        <time>2022-05-27T12:26:36Z</time>
      </trkpt>
      <trkpt lat="44.39693" lon="3.55661">
        <ele>744</ele>
        <time>2022-05-27T12:26:37Z</time>
      </trkpt>
      <trkpt lat="44.39694" lon="3.55659">
        <ele>744</ele>
        <time>2022-05-27T12:26:38Z</time>
      </trkpt>
      <trkpt lat="44.39694" lon="3.55658">
        <ele>743</ele>
        <time>2022-05-27T12:26:39Z</time>
      </trkpt>
      <trkpt lat="44.39695" lon="3.55656">
        <ele>744</ele>
        <time>2022-05-27T12:26:40Z</time>
      </trkpt>
      <trkpt lat="44.39696" lon="3.55655">
        <ele>744</ele>
        <time>2022-05-27T12:26:41Z</time>
      </trkpt>
      <trkpt lat="44.39697" lon="3.55653">
        <ele>744</ele>
        <time>2022-05-27T12:26:42Z</time>
      </trkpt>
      <trkpt lat="44.39698" lon="3.55652">
        <ele>743</ele>
        <time>2022-05-27T12:26:43Z</time>
      </trkpt>
      <trkpt lat="44.39699" lon="3.55651">
        <ele>742</ele>
        <time>2022-05-27T12:26:44Z</time>
      </trkpt>
      <trkpt lat="44.397" lon="3.5565">
        <ele>742</ele>
        <time>2022-05-27T12:26:45Z</time>
      </trkpt>
      <trkpt lat="44.39702" lon="3.55648">
        <ele>743</ele>
        <time>2022-05-27T12:26:46Z</time>
      </trkpt>
      <trkpt lat="44.39702" lon="3.55647">
        <ele>744</ele>
        <time>2022-05-27T12:26:47Z</time>
      </trkpt>
      <trkpt lat="44.39704" lon="3.55647">
        <ele>743</ele>
        <time>2022-05-27T12:26:48Z</time>
      </trkpt>
      <trkpt lat="44.39705" lon="3.55647">
        <ele>742</ele>
        <time>2022-05-27T12:26:49Z</time>
      </trkpt>
      <trkpt lat="44.39706" lon="3.55646">
        <ele>741</ele>
        <time>2022-05-27T12:26:50Z</time>
      </trkpt>
      <trkpt lat="44.39707" lon="3.55646">
        <ele>741</ele>
        <time>2022-05-27T12:26:51Z</time>
      </trkpt>
      <trkpt lat="44.39708" lon="3.55644">
        <ele>742</ele>
        <time>2022-05-27T12:26:52Z</time>
      </trkpt>
      <trkpt lat="44.39708" lon="3.55643">
        <ele>742</ele>
        <time>2022-05-27T12:26:53Z</time>
      </trkpt>
      <trkpt lat="44.3971" lon="3.55641">
        <ele>743</ele>
        <time>2022-05-27T12:26:54Z</time>
      </trkpt>
      <trkpt lat="44.3971" lon="3.55639">
        <ele>743</ele>
        <time>2022-05-27T12:26:55Z</time>
      </trkpt>
      <trkpt lat="44.39711" lon="3.55638">
        <ele>743</ele>
        <time>2022-05-27T12:26:56Z</time>
      </trkpt>
      <trkpt lat="44.39711" lon="3.55636">
        <ele>743</ele>
        <time>2022-05-27T12:26:57Z</time>
      </trkpt>
      <trkpt lat="44.39712" lon="3.55635">
        <ele>743</ele>
        <time>2022-05-27T12:26:58Z</time>
      </trkpt>
      <trkpt lat="44.39712" lon="3.55633">
        <ele>744</ele>
        <time>2022-05-27T12:26:59Z</time>
      </trkpt>
      <trkpt lat="44.39713" lon="3.55631">
        <ele>743</ele>
        <time>2022-05-27T12:27:00Z</time>
      </trkpt>
      <trkpt lat="44.39713" lon="3.55629">
        <ele>743</ele>
        <time>2022-05-27T12:27:01Z</time>
      </trkpt>
      <trkpt lat="44.39713" lon="3.55627">
        <ele>743</ele>
        <time>2022-05-27T12:27:02Z</time>
      </trkpt>
      <trkpt lat="44.39714" lon="3.55625">
        <ele>743</ele>
        <time>2022-05-27T12:27:03Z</time>
      </trkpt>
      <trkpt lat="44.39714" lon="3.55623">
        <ele>743</ele>
        <time>2022-05-27T12:27:04Z</time>
      </trkpt>
      <trkpt lat="44.39714" lon="3.55622">
        <ele>745</ele>
        <time>2022-05-27T12:27:05Z</time>
      </trkpt>
      <trkpt lat="44.39715" lon="3.55621">
        <ele>744</ele>
        <time>2022-05-27T12:27:06Z</time>
      </trkpt>
      <trkpt lat="44.39716" lon="3.5562">
        <ele>743</ele>
        <time>2022-05-27T12:27:07Z</time>
      </trkpt>
      <trkpt lat="44.39718" lon="3.55619">
        <ele>743</ele>
        <time>2022-05-27T12:27:08Z</time>
      </trkpt>
      <trkpt lat="44.39719" lon="3.55618">
        <ele>743</ele>
        <time>2022-05-27T12:27:09Z</time>
      </trkpt>
      <trkpt lat="44.3972" lon="3.55616">
        <ele>743</ele>
        <time>2022-05-27T12:27:10Z</time>
      </trkpt>
      <trkpt lat="44.39721" lon="3.55614">
        <ele>743</ele>
        <time>2022-05-27T12:27:11Z</time>
      </trkpt>
      <trkpt lat="44.39722" lon="3.55613">
        <ele>743</ele>
        <time>2022-05-27T12:27:12Z</time>
      </trkpt>
      <trkpt lat="44.39724" lon="3.55613">
        <ele>743</ele>
        <time>2022-05-27T12:27:13Z</time>
      </trkpt>
      <trkpt lat="44.39726" lon="3.55611">
        <ele>742</ele>
        <time>2022-05-27T12:27:14Z</time>
      </trkpt>
      <trkpt lat="44.39727" lon="3.5561">
        <ele>743</ele>
        <time>2022-05-27T12:27:15Z</time>
      </trkpt>
      <trkpt lat="44.39727" lon="3.5561">
        <ele>743</ele>
        <time>2022-05-27T12:27:16Z</time>
      </trkpt>
      <trkpt lat="44.39729" lon="3.5561">
        <ele>743</ele>
        <time>2022-05-27T12:27:17Z</time>
      </trkpt>
      <trkpt lat="44.3973" lon="3.55609">
        <ele>743</ele>
        <time>2022-05-27T12:27:18Z</time>
      </trkpt>
      <trkpt lat="44.39731" lon="3.55608">
        <ele>741</ele>
        <time>2022-05-27T12:27:19Z</time>
      </trkpt>
      <trkpt lat="44.39732" lon="3.55608">
        <ele>741</ele>
        <time>2022-05-27T12:27:20Z</time>
      </trkpt>
      <trkpt lat="44.39732" lon="3.55607">
        <ele>741</ele>
        <time>2022-05-27T12:27:21Z</time>
      </trkpt>
      <trkpt lat="44.39733" lon="3.55606">
        <ele>740</ele>
        <time>2022-05-27T12:27:22Z</time>
      </trkpt>
      <trkpt lat="44.39733" lon="3.55603">
        <ele>741</ele>
        <time>2022-05-27T12:27:23Z</time>
      </trkpt>
      <trkpt lat="44.39732" lon="3.55602">
        <ele>741</ele>
        <time>2022-05-27T12:27:24Z</time>
      </trkpt>
      <trkpt lat="44.39732" lon="3.55601">
        <ele>740</ele>
        <time>2022-05-27T12:27:25Z</time>
      </trkpt>
      <trkpt lat="44.39732" lon="3.556">
        <ele>740</ele>
        <time>2022-05-27T12:27:26Z</time>
      </trkpt>
      <trkpt lat="44.39732" lon="3.55601">
        <ele>740</ele>
        <time>2022-05-27T12:27:27Z</time>
      </trkpt>
      <trkpt lat="44.39732" lon="3.55601">
        <ele>740</ele>
        <time>2022-05-27T12:27:27Z</time>
      </trkpt>
      <trkpt lat="44.39732" lon="3.55601">
        <ele>740</ele>
        <time>2022-05-27T12:27:27Z</time>
      </trkpt>
      <trkpt lat="44.39732" lon="3.55601">
        <ele>740</ele>
        <time>2022-05-27T12:27:27Z</time>
      </trkpt>
      <trkpt lat="44.39737" lon="3.55592">
        <ele>739</ele>
        <time>2022-05-27T12:27:35Z</time>
      </trkpt>
      <trkpt lat="44.39737" lon="3.55592">
        <ele>740</ele>
        <time>2022-05-27T12:27:36Z</time>
      </trkpt>
      <trkpt lat="44.39738" lon="3.55591">
        <ele>740</ele>
        <time>2022-05-27T12:27:37Z</time>
      </trkpt>
      <trkpt lat="44.39738" lon="3.5559">
        <ele>739</ele>
        <time>2022-05-27T12:27:38Z</time>
      </trkpt>
      <trkpt lat="44.39739" lon="3.55588">
        <ele>739</ele>
        <time>2022-05-27T12:27:39Z</time>
      </trkpt>
      <trkpt lat="44.39739" lon="3.55587">
        <ele>738</ele>
        <time>2022-05-27T12:27:40Z</time>
      </trkpt>
      <trkpt lat="44.3974" lon="3.55585">
        <ele>739</ele>
        <time>2022-05-27T12:27:41Z</time>
      </trkpt>
      <trkpt lat="44.39742" lon="3.55585">
        <ele>740</ele>
        <time>2022-05-27T12:27:42Z</time>
      </trkpt>
      <trkpt lat="44.39742" lon="3.55584">
        <ele>739</ele>
        <time>2022-05-27T12:27:43Z</time>
      </trkpt>
      <trkpt lat="44.39743" lon="3.55583">
        <ele>738</ele>
        <time>2022-05-27T12:27:44Z</time>
      </trkpt>
      <trkpt lat="44.39743" lon="3.55582">
        <ele>738</ele>
        <time>2022-05-27T12:27:45Z</time>
      </trkpt>
      <trkpt lat="44.39744" lon="3.55581">
        <ele>738</ele>
        <time>2022-05-27T12:27:46Z</time>
      </trkpt>
      <trkpt lat="44.39745" lon="3.5558">
        <ele>738</ele>
        <time>2022-05-27T12:27:47Z</time>
      </trkpt>
      <trkpt lat="44.39745" lon="3.55579">
        <ele>737</ele>
        <time>2022-05-27T12:27:48Z</time>
      </trkpt>
      <trkpt lat="44.39747" lon="3.55578">
        <ele>737</ele>
        <time>2022-05-27T12:27:49Z</time>
      </trkpt>
      <trkpt lat="44.39748" lon="3.55576">
        <ele>737</ele>
        <time>2022-05-27T12:27:50Z</time>
      </trkpt>
      <trkpt lat="44.39749" lon="3.55575">
        <ele>736</ele>
        <time>2022-05-27T12:27:51Z</time>
      </trkpt>
      <trkpt lat="44.3975" lon="3.55574">
        <ele>737</ele>
        <time>2022-05-27T12:27:52Z</time>
      </trkpt>
      <trkpt lat="44.39751" lon="3.55573">
        <ele>738</ele>
        <time>2022-05-27T12:27:53Z</time>
      </trkpt>
      <trkpt lat="44.39751" lon="3.55572">
        <ele>738</ele>
        <time>2022-05-27T12:27:54Z</time>
      </trkpt>
      <trkpt lat="44.39751" lon="3.5557">
        <ele>739</ele>
        <time>2022-05-27T12:27:55Z</time>
      </trkpt>
      <trkpt lat="44.39751" lon="3.55569">
        <ele>739</ele>
        <time>2022-05-27T12:27:56Z</time>
      </trkpt>
      <trkpt lat="44.39752" lon="3.55567">
        <ele>739</ele>
        <time>2022-05-27T12:27:57Z</time>
      </trkpt>
      <trkpt lat="44.39753" lon="3.55566">
        <ele>739</ele>
        <time>2022-05-27T12:27:58Z</time>
      </trkpt>
      <trkpt lat="44.39753" lon="3.55565">
        <ele>739</ele>
        <time>2022-05-27T12:27:59Z</time>
      </trkpt>
      <trkpt lat="44.39754" lon="3.55563">
        <ele>740</ele>
        <time>2022-05-27T12:28:00Z</time>
      </trkpt>
      <trkpt lat="44.39755" lon="3.55562">
        <ele>740</ele>
        <time>2022-05-27T12:28:01Z</time>
      </trkpt>
      <trkpt lat="44.39755" lon="3.55561">
        <ele>739</ele>
        <time>2022-05-27T12:28:02Z</time>
      </trkpt>
      <trkpt lat="44.39756" lon="3.55559">
        <ele>739</ele>
        <time>2022-05-27T12:28:03Z</time>
      </trkpt>
      <trkpt lat="44.39756" lon="3.55558">
        <ele>739</ele>
        <time>2022-05-27T12:28:04Z</time>
      </trkpt>
      <trkpt lat="44.39756" lon="3.55557">
        <ele>739</ele>
        <time>2022-05-27T12:28:05Z</time>
      </trkpt>
      <trkpt lat="44.39756" lon="3.55557">
        <ele>739</ele>
        <time>2022-05-27T12:28:06Z</time>
      </trkpt>
      <trkpt lat="44.39756" lon="3.55556">
        <ele>740</ele>
        <time>2022-05-27T12:28:07Z</time>
      </trkpt>
      <trkpt lat="44.39756" lon="3.55554">
        <ele>739</ele>
        <time>2022-05-27T12:28:08Z</time>
      </trkpt>
      <trkpt lat="44.39757" lon="3.55553">
        <ele>739</ele>
        <time>2022-05-27T12:28:09Z</time>
      </trkpt>
      <trkpt lat="44.39758" lon="3.5555">
        <ele>738</ele>
        <time>2022-05-27T12:28:10Z</time>
      </trkpt>
      <trkpt lat="44.39758" lon="3.55547">
        <ele>738</ele>
        <time>2022-05-27T12:28:11Z</time>
      </trkpt>
      <trkpt lat="44.39759" lon="3.55545">
        <ele>739</ele>
        <time>2022-05-27T12:28:12Z</time>
      </trkpt>
      <trkpt lat="44.39759" lon="3.55543">
        <ele>739</ele>
        <time>2022-05-27T12:28:13Z</time>
      </trkpt>
      <trkpt lat="44.39759" lon="3.55541">
        <ele>739</ele>
        <time>2022-05-27T12:28:14Z</time>
      </trkpt>
      <trkpt lat="44.39759" lon="3.55539">
        <ele>738</ele>
        <time>2022-05-27T12:28:15Z</time>
      </trkpt>
      <trkpt lat="44.3976" lon="3.55538">
        <ele>738</ele>
        <time>2022-05-27T12:28:16Z</time>
      </trkpt>
      <trkpt lat="44.3976" lon="3.55538">
        <ele>738</ele>
        <time>2022-05-27T12:28:17Z</time>
      </trkpt>
      <trkpt lat="44.3976" lon="3.55536">
        <ele>737</ele>
        <time>2022-05-27T12:28:18Z</time>
      </trkpt>
      <trkpt lat="44.39761" lon="3.55534">
        <ele>737</ele>
        <time>2022-05-27T12:28:19Z</time>
      </trkpt>
      <trkpt lat="44.39762" lon="3.55532">
        <ele>736</ele>
        <time>2022-05-27T12:28:20Z</time>
      </trkpt>
      <trkpt lat="44.39763" lon="3.55531">
        <ele>735</ele>
        <time>2022-05-27T12:28:21Z</time>
      </trkpt>
      <trkpt lat="44.39763" lon="3.55529">
        <ele>735</ele>
        <time>2022-05-27T12:28:22Z</time>
      </trkpt>
      <trkpt lat="44.39764" lon="3.55529">
        <ele>735</ele>
        <time>2022-05-27T12:28:23Z</time>
      </trkpt>
      <trkpt lat="44.39765" lon="3.55527">
        <ele>736</ele>
        <time>2022-05-27T12:28:24Z</time>
      </trkpt>
      <trkpt lat="44.39766" lon="3.55526">
        <ele>736</ele>
        <time>2022-05-27T12:28:25Z</time>
      </trkpt>
      <trkpt lat="44.39766" lon="3.55523">
        <ele>736</ele>
        <time>2022-05-27T12:28:26Z</time>
      </trkpt>
      <trkpt lat="44.39766" lon="3.55521">
        <ele>736</ele>
        <time>2022-05-27T12:28:27Z</time>
      </trkpt>
      <trkpt lat="44.39766" lon="3.5552">
        <ele>736</ele>
        <time>2022-05-27T12:28:28Z</time>
      </trkpt>
      <trkpt lat="44.39767" lon="3.55518">
        <ele>735</ele>
        <time>2022-05-27T12:28:29Z</time>
      </trkpt>
      <trkpt lat="44.39768" lon="3.55517">
        <ele>736</ele>
        <time>2022-05-27T12:28:30Z</time>
      </trkpt>
      <trkpt lat="44.39769" lon="3.55517">
        <ele>736</ele>
        <time>2022-05-27T12:28:31Z</time>
      </trkpt>
      <trkpt lat="44.3977" lon="3.55515">
        <ele>736</ele>
        <time>2022-05-27T12:28:32Z</time>
      </trkpt>
      <trkpt lat="44.39771" lon="3.55513">
        <ele>736</ele>
        <time>2022-05-27T12:28:33Z</time>
      </trkpt>
      <trkpt lat="44.39771" lon="3.55511">
        <ele>735</ele>
        <time>2022-05-27T12:28:34Z</time>
      </trkpt>
      <trkpt lat="44.39772" lon="3.55509">
        <ele>735</ele>
        <time>2022-05-27T12:28:35Z</time>
      </trkpt>
      <trkpt lat="44.39774" lon="3.55507">
        <ele>736</ele>
        <time>2022-05-27T12:28:36Z</time>
      </trkpt>
      <trkpt lat="44.39774" lon="3.55506">
        <ele>736</ele>
        <time>2022-05-27T12:28:37Z</time>
      </trkpt>
      <trkpt lat="44.39775" lon="3.55504">
        <ele>736</ele>
        <time>2022-05-27T12:28:38Z</time>
      </trkpt>
      <trkpt lat="44.39776" lon="3.55502">
        <ele>735</ele>
        <time>2022-05-27T12:28:39Z</time>
      </trkpt>
      <trkpt lat="44.39777" lon="3.555">
        <ele>735</ele>
        <time>2022-05-27T12:28:40Z</time>
      </trkpt>
      <trkpt lat="44.39777" lon="3.55499">
        <ele>734</ele>
        <time>2022-05-27T12:28:41Z</time>
      </trkpt>
      <trkpt lat="44.39778" lon="3.55498">
        <ele>734</ele>
        <time>2022-05-27T12:28:42Z</time>
      </trkpt>
      <trkpt lat="44.39779" lon="3.55496">
        <ele>735</ele>
        <time>2022-05-27T12:28:43Z</time>
      </trkpt>
      <trkpt lat="44.39779" lon="3.55494">
        <ele>735</ele>
        <time>2022-05-27T12:28:44Z</time>
      </trkpt>
      <trkpt lat="44.39779" lon="3.55493">
        <ele>734</ele>
        <time>2022-05-27T12:28:45Z</time>
      </trkpt>
      <trkpt lat="44.3978" lon="3.55492">
        <ele>733</ele>
        <time>2022-05-27T12:28:46Z</time>
      </trkpt>
      <trkpt lat="44.39781" lon="3.55491">
        <ele>733</ele>
        <time>2022-05-27T12:28:47Z</time>
      </trkpt>
      <trkpt lat="44.39782" lon="3.5549">
        <ele>733</ele>
        <time>2022-05-27T12:28:48Z</time>
      </trkpt>
      <trkpt lat="44.39782" lon="3.55489">
        <ele>734</ele>
        <time>2022-05-27T12:28:49Z</time>
      </trkpt>
      <trkpt lat="44.39783" lon="3.55489">
        <ele>735</ele>
        <time>2022-05-27T12:28:50Z</time>
      </trkpt>
      <trkpt lat="44.39784" lon="3.55488">
        <ele>735</ele>
        <time>2022-05-27T12:28:51Z</time>
      </trkpt>
      <trkpt lat="44.39784" lon="3.55486">
        <ele>734</ele>
        <time>2022-05-27T12:28:52Z</time>
      </trkpt>
      <trkpt lat="44.39786" lon="3.55485">
        <ele>734</ele>
        <time>2022-05-27T12:28:53Z</time>
      </trkpt>
      <trkpt lat="44.39787" lon="3.55484">
        <ele>734</ele>
        <time>2022-05-27T12:28:54Z</time>
      </trkpt>
      <trkpt lat="44.39788" lon="3.55483">
        <ele>734</ele>
        <time>2022-05-27T12:28:55Z</time>
      </trkpt>
      <trkpt lat="44.39789" lon="3.55482">
        <ele>734</ele>
        <time>2022-05-27T12:28:56Z</time>
      </trkpt>
      <trkpt lat="44.3979" lon="3.55481">
        <ele>734</ele>
        <time>2022-05-27T12:28:57Z</time>
      </trkpt>
      <trkpt lat="44.39792" lon="3.5548">
        <ele>734</ele>
        <time>2022-05-27T12:28:58Z</time>
      </trkpt>
      <trkpt lat="44.39793" lon="3.55479">
        <ele>733</ele>
        <time>2022-05-27T12:28:59Z</time>
      </trkpt>
      <trkpt lat="44.39794" lon="3.55477">
        <ele>733</ele>
        <time>2022-05-27T12:29:00Z</time>
      </trkpt>
      <trkpt lat="44.39795" lon="3.55476">
        <ele>734</ele>
        <time>2022-05-27T12:29:01Z</time>
      </trkpt>
      <trkpt lat="44.39796" lon="3.55476">
        <ele>734</ele>
        <time>2022-05-27T12:29:02Z</time>
      </trkpt>
      <trkpt lat="44.39797" lon="3.55475">
        <ele>733</ele>
        <time>2022-05-27T12:29:03Z</time>
      </trkpt>
      <trkpt lat="44.39797" lon="3.55475">
        <ele>733</ele>
        <time>2022-05-27T12:29:04Z</time>
      </trkpt>
      <trkpt lat="44.39798" lon="3.55474">
        <ele>732</ele>
        <time>2022-05-27T12:29:05Z</time>
      </trkpt>
      <trkpt lat="44.39799" lon="3.55474">
        <ele>732</ele>
        <time>2022-05-27T12:29:06Z</time>
      </trkpt>
      <trkpt lat="44.398" lon="3.55473">
        <ele>732</ele>
        <time>2022-05-27T12:29:07Z</time>
      </trkpt>
      <trkpt lat="44.398" lon="3.55474">
        <ele>732</ele>
        <time>2022-05-27T12:29:08Z</time>
      </trkpt>
      <trkpt lat="44.398" lon="3.55474">
        <ele>731</ele>
        <time>2022-05-27T12:29:09Z</time>
      </trkpt>
      <trkpt lat="44.39801" lon="3.55474">
        <ele>731</ele>
        <time>2022-05-27T12:29:10Z</time>
      </trkpt>
      <trkpt lat="44.39801" lon="3.55474">
        <ele>731</ele>
        <time>2022-05-27T12:29:11Z</time>
      </trkpt>
      <trkpt lat="44.39801" lon="3.55474">
        <ele>731</ele>
        <time>2022-05-27T12:29:12Z</time>
      </trkpt>
      <trkpt lat="44.39802" lon="3.55473">
        <ele>731</ele>
        <time>2022-05-27T12:29:13Z</time>
      </trkpt>
      <trkpt lat="44.39803" lon="3.55472">
        <ele>732</ele>
        <time>2022-05-27T12:29:14Z</time>
      </trkpt>
      <trkpt lat="44.39803" lon="3.55472">
        <ele>732</ele>
        <time>2022-05-27T12:29:15Z</time>
      </trkpt>
      <trkpt lat="44.39804" lon="3.55471">
        <ele>732</ele>
        <time>2022-05-27T12:29:16Z</time>
      </trkpt>
      <trkpt lat="44.39804" lon="3.55471">
        <ele>732</ele>
        <time>2022-05-27T12:29:17Z</time>
      </trkpt>
      <trkpt lat="44.39804" lon="3.55471">
        <ele>732</ele>
        <time>2022-05-27T12:29:18Z</time>
      </trkpt>
      <trkpt lat="44.39805" lon="3.5547">
        <ele>731</ele>
        <time>2022-05-27T12:29:19Z</time>
      </trkpt>
      <trkpt lat="44.39805" lon="3.55471">
        <ele>731</ele>
        <time>2022-05-27T12:29:20Z</time>
      </trkpt>
      <trkpt lat="44.39805" lon="3.55471">
        <ele>731</ele>
        <time>2022-05-27T12:29:20Z</time>
      </trkpt>
      <trkpt lat="44.39805" lon="3.55471">
        <ele>731</ele>
        <time>2022-05-27T12:29:20Z</time>
      </trkpt>
      <trkpt lat="44.39805" lon="3.55471">
        <ele>731</ele>
        <time>2022-05-27T12:29:20Z</time>
      </trkpt>
      <trkpt lat="44.39809" lon="3.55469">
        <ele>731</ele>
        <time>2022-05-27T12:29:37Z</time>
      </trkpt>
      <trkpt lat="44.39809" lon="3.55469">
        <ele>732</ele>
        <time>2022-05-27T12:29:38Z</time>
      </trkpt>
      <trkpt lat="44.39809" lon="3.55468">
        <ele>732</ele>
        <time>2022-05-27T12:29:39Z</time>
      </trkpt>
      <trkpt lat="44.3981" lon="3.55468">
        <ele>732</ele>
        <time>2022-05-27T12:29:40Z</time>
      </trkpt>
      <trkpt lat="44.39811" lon="3.55468">
        <ele>732</ele>
        <time>2022-05-27T12:29:41Z</time>
      </trkpt>
      <trkpt lat="44.39812" lon="3.55467">
        <ele>732</ele>
        <time>2022-05-27T12:29:42Z</time>
      </trkpt>
      <trkpt lat="44.39812" lon="3.55467">
        <ele>733</ele>
        <time>2022-05-27T12:29:43Z</time>
      </trkpt>
      <trkpt lat="44.39812" lon="3.55466">
        <ele>732</ele>
        <time>2022-05-27T12:29:44Z</time>
      </trkpt>
      <trkpt lat="44.39813" lon="3.55465">
        <ele>733</ele>
        <time>2022-05-27T12:29:45Z</time>
      </trkpt>
      <trkpt lat="44.39813" lon="3.55465">
        <ele>734</ele>
        <time>2022-05-27T12:29:46Z</time>
      </trkpt>
      <trkpt lat="44.39814" lon="3.55464">
        <ele>734</ele>
        <time>2022-05-27T12:29:47Z</time>
      </trkpt>
      <trkpt lat="44.39814" lon="3.55462">
        <ele>734</ele>
        <time>2022-05-27T12:29:48Z</time>
      </trkpt>
      <trkpt lat="44.39816" lon="3.55462">
        <ele>735</ele>
        <time>2022-05-27T12:29:49Z</time>
      </trkpt>
      <trkpt lat="44.39816" lon="3.55461">
        <ele>735</ele>
        <time>2022-05-27T12:29:50Z</time>
      </trkpt>
      <trkpt lat="44.39817" lon="3.5546">
        <ele>735</ele>
        <time>2022-05-27T12:29:51Z</time>
      </trkpt>
      <trkpt lat="44.39817" lon="3.5546">
        <ele>735</ele>
        <time>2022-05-27T12:29:52Z</time>
      </trkpt>
      <trkpt lat="44.39819" lon="3.55459">
        <ele>734</ele>
        <time>2022-05-27T12:29:53Z</time>
      </trkpt>
      <trkpt lat="44.39819" lon="3.55458">
        <ele>734</ele>
        <time>2022-05-27T12:29:54Z</time>
      </trkpt>
      <trkpt lat="44.3982" lon="3.55457">
        <ele>734</ele>
        <time>2022-05-27T12:29:55Z</time>
      </trkpt>
      <trkpt lat="44.39821" lon="3.55455">
        <ele>733</ele>
        <time>2022-05-27T12:29:56Z</time>
      </trkpt>
      <trkpt lat="44.39821" lon="3.55454">
        <ele>733</ele>
        <time>2022-05-27T12:29:57Z</time>
      </trkpt>
      <trkpt lat="44.39821" lon="3.55452">
        <ele>733</ele>
        <time>2022-05-27T12:29:58Z</time>
      </trkpt>
      <trkpt lat="44.39821" lon="3.55451">
        <ele>732</ele>
        <time>2022-05-27T12:29:59Z</time>
      </trkpt>
      <trkpt lat="44.39821" lon="3.55449">
        <ele>732</ele>
        <time>2022-05-27T12:30:00Z</time>
      </trkpt>
      <trkpt lat="44.39821" lon="3.55447">
        <ele>732</ele>
        <time>2022-05-27T12:30:01Z</time>
      </trkpt>
      <trkpt lat="44.39821" lon="3.55447">
        <ele>733</ele>
        <time>2022-05-27T12:30:02Z</time>
      </trkpt>
      <trkpt lat="44.3982" lon="3.55445">
        <ele>732</ele>
        <time>2022-05-27T12:30:03Z</time>
      </trkpt>
      <trkpt lat="44.3982" lon="3.55444">
        <ele>732</ele>
        <time>2022-05-27T12:30:04Z</time>
      </trkpt>
      <trkpt lat="44.39819" lon="3.55443">
        <ele>732</ele>
        <time>2022-05-27T12:30:05Z</time>
      </trkpt>
      <trkpt lat="44.39819" lon="3.55442">
        <ele>732</ele>
        <time>2022-05-27T12:30:06Z</time>
      </trkpt>
      <trkpt lat="44.39819" lon="3.55442">
        <ele>732</ele>
        <time>2022-05-27T12:30:07Z</time>
      </trkpt>
      <trkpt lat="44.39819" lon="3.5544">
        <ele>733</ele>
        <time>2022-05-27T12:30:08Z</time>
      </trkpt>
      <trkpt lat="44.39818" lon="3.55438">
        <ele>733</ele>
        <time>2022-05-27T12:30:09Z</time>
      </trkpt>
      <trkpt lat="44.39818" lon="3.55437">
        <ele>734</ele>
        <time>2022-05-27T12:30:10Z</time>
      </trkpt>
      <trkpt lat="44.39817" lon="3.55435">
        <ele>734</ele>
        <time>2022-05-27T12:30:11Z</time>
      </trkpt>
      <trkpt lat="44.39817" lon="3.55434">
        <ele>735</ele>
        <time>2022-05-27T12:30:12Z</time>
      </trkpt>
      <trkpt lat="44.39818" lon="3.55433">
        <ele>734</ele>
        <time>2022-05-27T12:30:13Z</time>
      </trkpt>
      <trkpt lat="44.39818" lon="3.55433">
        <ele>734</ele>
        <time>2022-05-27T12:30:14Z</time>
      </trkpt>
      <trkpt lat="44.39818" lon="3.55432">
        <ele>735</ele>
        <time>2022-05-27T12:30:15Z</time>
      </trkpt>
      <trkpt lat="44.39818" lon="3.55431">
        <ele>735</ele>
        <time>2022-05-27T12:30:16Z</time>
      </trkpt>
      <trkpt lat="44.39818" lon="3.55431">
        <ele>735</ele>
        <time>2022-05-27T12:30:17Z</time>
      </trkpt>
      <trkpt lat="44.39817" lon="3.55431">
        <ele>734</ele>
        <time>2022-05-27T12:30:18Z</time>
      </trkpt>
      <trkpt lat="44.39818" lon="3.55431">
        <ele>734</ele>
        <time>2022-05-27T12:30:19Z</time>
      </trkpt>
      <trkpt lat="44.39818" lon="3.55431">
        <ele>734</ele>
        <time>2022-05-27T12:30:20Z</time>
      </trkpt>
      <trkpt lat="44.39818" lon="3.55431">
        <ele>734</ele>
        <time>2022-05-27T12:30:20Z</time>
      </trkpt>
      <trkpt lat="44.39818" lon="3.55431">
        <ele>734</ele>
        <time>2022-05-27T12:30:20Z</time>
      </trkpt>
      <trkpt lat="44.39818" lon="3.55431">
        <ele>734</ele>
        <time>2022-05-27T12:30:20Z</time>
      </trkpt>
      <trkpt lat="44.39818" lon="3.55426">
        <ele>734</ele>
        <time>2022-05-27T12:30:28Z</time>
      </trkpt>
      <trkpt lat="44.39819" lon="3.55425">
        <ele>734</ele>
        <time>2022-05-27T12:30:29Z</time>
      </trkpt>
      <trkpt lat="44.39819" lon="3.55424">
        <ele>735</ele>
        <time>2022-05-27T12:30:30Z</time>
      </trkpt>
      <trkpt lat="44.39819" lon="3.55423">
        <ele>735</ele>
        <time>2022-05-27T12:30:31Z</time>
      </trkpt>
      <trkpt lat="44.39819" lon="3.55423">
        <ele>735</ele>
        <time>2022-05-27T12:30:32Z</time>
      </trkpt>
      <trkpt lat="44.39818" lon="3.55422">
        <ele>734</ele>
        <time>2022-05-27T12:30:33Z</time>
      </trkpt>
      <trkpt lat="44.39819" lon="3.5542">
        <ele>734</ele>
        <time>2022-05-27T12:30:34Z</time>
      </trkpt>
      <trkpt lat="44.39819" lon="3.5542">
        <ele>734</ele>
        <time>2022-05-27T12:30:35Z</time>
      </trkpt>
      <trkpt lat="44.39819" lon="3.55419">
        <ele>735</ele>
        <time>2022-05-27T12:30:36Z</time>
      </trkpt>
      <trkpt lat="44.39819" lon="3.55418">
        <ele>735</ele>
        <time>2022-05-27T12:30:37Z</time>
      </trkpt>
      <trkpt lat="44.39819" lon="3.55418">
        <ele>735</ele>
        <time>2022-05-27T12:30:38Z</time>
      </trkpt>
      <trkpt lat="44.39819" lon="3.55418">
        <ele>735</ele>
        <time>2022-05-27T12:30:39Z</time>
      </trkpt>
      <trkpt lat="44.39819" lon="3.55417">
        <ele>733</ele>
        <time>2022-05-27T12:30:40Z</time>
      </trkpt>
      <trkpt lat="44.39819" lon="3.55417">
        <ele>733</ele>
        <time>2022-05-27T12:30:41Z</time>
      </trkpt>
      <trkpt lat="44.39819" lon="3.55416">
        <ele>733</ele>
        <time>2022-05-27T12:30:42Z</time>
      </trkpt>
      <trkpt lat="44.3982" lon="3.55415">
        <ele>733</ele>
        <time>2022-05-27T12:30:43Z</time>
      </trkpt>
      <trkpt lat="44.39821" lon="3.55415">
        <ele>734</ele>
        <time>2022-05-27T12:30:44Z</time>
      </trkpt>
      <trkpt lat="44.39822" lon="3.55414">
        <ele>735</ele>
        <time>2022-05-27T12:30:45Z</time>
      </trkpt>
      <trkpt lat="44.39822" lon="3.55413">
        <ele>735</ele>
        <time>2022-05-27T12:30:46Z</time>
      </trkpt>
      <trkpt lat="44.39823" lon="3.55412">
        <ele>734</ele>
        <time>2022-05-27T12:30:47Z</time>
      </trkpt>
      <trkpt lat="44.39824" lon="3.55411">
        <ele>734</ele>
        <time>2022-05-27T12:30:48Z</time>
      </trkpt>
      <trkpt lat="44.39825" lon="3.5541">
        <ele>733</ele>
        <time>2022-05-27T12:30:49Z</time>
      </trkpt>
      <trkpt lat="44.39826" lon="3.55409">
        <ele>734</ele>
        <time>2022-05-27T12:30:50Z</time>
      </trkpt>
      <trkpt lat="44.39827" lon="3.55409">
        <ele>734</ele>
        <time>2022-05-27T12:30:51Z</time>
      </trkpt>
      <trkpt lat="44.39827" lon="3.55407">
        <ele>734</ele>
        <time>2022-05-27T12:30:52Z</time>
      </trkpt>
      <trkpt lat="44.39828" lon="3.55407">
        <ele>734</ele>
        <time>2022-05-27T12:30:53Z</time>
      </trkpt>
      <trkpt lat="44.39829" lon="3.55405">
        <ele>734</ele>
        <time>2022-05-27T12:30:54Z</time>
      </trkpt>
      <trkpt lat="44.39829" lon="3.55405">
        <ele>734</ele>
        <time>2022-05-27T12:30:55Z</time>
      </trkpt>
      <trkpt lat="44.3983" lon="3.55404">
        <ele>734</ele>
        <time>2022-05-27T12:30:56Z</time>
      </trkpt>
      <trkpt lat="44.3983" lon="3.55403">
        <ele>734</ele>
        <time>2022-05-27T12:30:57Z</time>
      </trkpt>
      <trkpt lat="44.39832" lon="3.55402">
        <ele>734</ele>
        <time>2022-05-27T12:30:58Z</time>
      </trkpt>
      <trkpt lat="44.39832" lon="3.554">
        <ele>734</ele>
        <time>2022-05-27T12:30:59Z</time>
      </trkpt>
      <trkpt lat="44.39833" lon="3.554">
        <ele>734</ele>
        <time>2022-05-27T12:31:00Z</time>
      </trkpt>
      <trkpt lat="44.39834" lon="3.55399">
        <ele>735</ele>
        <time>2022-05-27T12:31:01Z</time>
      </trkpt>
      <trkpt lat="44.39834" lon="3.55398">
        <ele>735</ele>
        <time>2022-05-27T12:31:02Z</time>
      </trkpt>
      <trkpt lat="44.39834" lon="3.55396">
        <ele>735</ele>
        <time>2022-05-27T12:31:03Z</time>
      </trkpt>
      <trkpt lat="44.39833" lon="3.55394">
        <ele>736</ele>
        <time>2022-05-27T12:31:04Z</time>
      </trkpt>
      <trkpt lat="44.39833" lon="3.55393">
        <ele>736</ele>
        <time>2022-05-27T12:31:05Z</time>
      </trkpt>
      <trkpt lat="44.39833" lon="3.55391">
        <ele>735</ele>
        <time>2022-05-27T12:31:06Z</time>
      </trkpt>
      <trkpt lat="44.39832" lon="3.5539">
        <ele>735</ele>
        <time>2022-05-27T12:31:07Z</time>
      </trkpt>
      <trkpt lat="44.39832" lon="3.55389">
        <ele>735</ele>
        <time>2022-05-27T12:31:08Z</time>
      </trkpt>
      <trkpt lat="44.39832" lon="3.55387">
        <ele>736</ele>
        <time>2022-05-27T12:31:09Z</time>
      </trkpt>
      <trkpt lat="44.39832" lon="3.55387">
        <ele>736</ele>
        <time>2022-05-27T12:31:10Z</time>
      </trkpt>
      <trkpt lat="44.39831" lon="3.55386">
        <ele>736</ele>
        <time>2022-05-27T12:31:11Z</time>
      </trkpt>
      <trkpt lat="44.3983" lon="3.55384">
        <ele>736</ele>
        <time>2022-05-27T12:31:12Z</time>
      </trkpt>
      <trkpt lat="44.3983" lon="3.55383">
        <ele>735</ele>
        <time>2022-05-27T12:31:13Z</time>
      </trkpt>
      <trkpt lat="44.39829" lon="3.55382">
        <ele>735</ele>
        <time>2022-05-27T12:31:14Z</time>
      </trkpt>
      <trkpt lat="44.39828" lon="3.55382">
        <ele>736</ele>
        <time>2022-05-27T12:31:15Z</time>
      </trkpt>
      <trkpt lat="44.39828" lon="3.55381">
        <ele>737</ele>
        <time>2022-05-27T12:31:16Z</time>
      </trkpt>
      <trkpt lat="44.39827" lon="3.55381">
        <ele>737</ele>
        <time>2022-05-27T12:31:17Z</time>
      </trkpt>
      <trkpt lat="44.39827" lon="3.55381">
        <ele>737</ele>
        <time>2022-05-27T12:31:18Z</time>
      </trkpt>
      <trkpt lat="44.39827" lon="3.55381">
        <ele>737</ele>
        <time>2022-05-27T12:31:19Z</time>
      </trkpt>
      <trkpt lat="44.39826" lon="3.5538">
        <ele>737</ele>
        <time>2022-05-27T12:31:20Z</time>
      </trkpt>
      <trkpt lat="44.39826" lon="3.5538">
        <ele>738</ele>
        <time>2022-05-27T12:31:21Z</time>
      </trkpt>
      <trkpt lat="44.39825" lon="3.55379">
        <ele>738</ele>
        <time>2022-05-27T12:31:22Z</time>
      </trkpt>
      <trkpt lat="44.39825" lon="3.55379">
        <ele>737</ele>
        <time>2022-05-27T12:31:23Z</time>
      </trkpt>
      <trkpt lat="44.39825" lon="3.55379">
        <ele>737</ele>
        <time>2022-05-27T12:31:24Z</time>
      </trkpt>
      <trkpt lat="44.39825" lon="3.5538">
        <ele>738</ele>
        <time>2022-05-27T12:31:25Z</time>
      </trkpt>
      <trkpt lat="44.39825" lon="3.55381">
        <ele>738</ele>
        <time>2022-05-27T12:31:26Z</time>
      </trkpt>
      <trkpt lat="44.39825" lon="3.55381">
        <ele>738</ele>
        <time>2022-05-27T12:31:27Z</time>
      </trkpt>
      <trkpt lat="44.39825" lon="3.55381">
        <ele>738</ele>
        <time>2022-05-27T12:31:28Z</time>
      </trkpt>
      <trkpt lat="44.39825" lon="3.55381">
        <ele>738</ele>
        <time>2022-05-27T12:31:28Z</time>
      </trkpt>
      <trkpt lat="44.39825" lon="3.55381">
        <ele>738</ele>
        <time>2022-05-27T12:31:28Z</time>
      </trkpt>
      <trkpt lat="44.39827" lon="3.55381">
        <ele>739</ele>
        <time>2022-05-27T12:31:40Z</time>
      </trkpt>
      <trkpt lat="44.39827" lon="3.55382">
        <ele>738</ele>
        <time>2022-05-27T12:31:41Z</time>
      </trkpt>
      <trkpt lat="44.39827" lon="3.55381">
        <ele>739</ele>
        <time>2022-05-27T12:31:42Z</time>
      </trkpt>
      <trkpt lat="44.39827" lon="3.55381">
        <ele>739</ele>
        <time>2022-05-27T12:31:42Z</time>
      </trkpt>
      <trkpt lat="44.39827" lon="3.55381">
        <ele>739</ele>
        <time>2022-05-27T12:31:42Z</time>
      </trkpt>
      <trkpt lat="44.39822" lon="3.55386">
        <ele>738</ele>
        <time>2022-05-27T12:33:35Z</time>
      </trkpt>
      <trkpt lat="44.39821" lon="3.55386">
        <ele>738</ele>
        <time>2022-05-27T12:33:36Z</time>
      </trkpt>
      <trkpt lat="44.39821" lon="3.55387">
        <ele>739</ele>
        <time>2022-05-27T12:33:37Z</time>
      </trkpt>
      <trkpt lat="44.3982" lon="3.55388">
        <ele>739</ele>
        <time>2022-05-27T12:33:38Z</time>
      </trkpt>
      <trkpt lat="44.39819" lon="3.55388">
        <ele>739</ele>
        <time>2022-05-27T12:33:39Z</time>
      </trkpt>
      <trkpt lat="44.39817" lon="3.55389">
        <ele>738</ele>
        <time>2022-05-27T12:33:40Z</time>
      </trkpt>
      <trkpt lat="44.39817" lon="3.5539">
        <ele>738</ele>
        <time>2022-05-27T12:33:41Z</time>
      </trkpt>
      <trkpt lat="44.39816" lon="3.5539">
        <ele>737</ele>
        <time>2022-05-27T12:33:42Z</time>
      </trkpt>
      <trkpt lat="44.39814" lon="3.5539">
        <ele>736</ele>
        <time>2022-05-27T12:33:43Z</time>
      </trkpt>
      <trkpt lat="44.39813" lon="3.55391">
        <ele>736</ele>
        <time>2022-05-27T12:33:44Z</time>
      </trkpt>
      <trkpt lat="44.39812" lon="3.55391">
        <ele>736</ele>
        <time>2022-05-27T12:33:45Z</time>
      </trkpt>
      <trkpt lat="44.39811" lon="3.55392">
        <ele>736</ele>
        <time>2022-05-27T12:33:46Z</time>
      </trkpt>
      <trkpt lat="44.39809" lon="3.55392">
        <ele>737</ele>
        <time>2022-05-27T12:33:47Z</time>
      </trkpt>
      <trkpt lat="44.39808" lon="3.55393">
        <ele>737</ele>
        <time>2022-05-27T12:33:48Z</time>
      </trkpt>
      <trkpt lat="44.39807" lon="3.55394">
        <ele>737</ele>
        <time>2022-05-27T12:33:49Z</time>
      </trkpt>
      <trkpt lat="44.39805" lon="3.55394">
        <ele>736</ele>
        <time>2022-05-27T12:33:50Z</time>
      </trkpt>
      <trkpt lat="44.39804" lon="3.55395">
        <ele>735</ele>
        <time>2022-05-27T12:33:51Z</time>
      </trkpt>
      <trkpt lat="44.39803" lon="3.55396">
        <ele>735</ele>
        <time>2022-05-27T12:33:52Z</time>
      </trkpt>
      <trkpt lat="44.39802" lon="3.55397">
        <ele>735</ele>
        <time>2022-05-27T12:33:53Z</time>
      </trkpt>
      <trkpt lat="44.39801" lon="3.55397">
        <ele>734</ele>
        <time>2022-05-27T12:33:54Z</time>
      </trkpt>
      <trkpt lat="44.398" lon="3.55397">
        <ele>733</ele>
        <time>2022-05-27T12:33:55Z</time>
      </trkpt>
      <trkpt lat="44.39798" lon="3.55398">
        <ele>733</ele>
        <time>2022-05-27T12:33:56Z</time>
      </trkpt>
      <trkpt lat="44.39797" lon="3.55398">
        <ele>732</ele>
        <time>2022-05-27T12:33:57Z</time>
      </trkpt>
      <trkpt lat="44.39796" lon="3.55398">
        <ele>731</ele>
        <time>2022-05-27T12:33:58Z</time>
      </trkpt>
      <trkpt lat="44.39795" lon="3.55399">
        <ele>731</ele>
        <time>2022-05-27T12:33:59Z</time>
      </trkpt>
      <trkpt lat="44.39794" lon="3.55399">
        <ele>731</ele>
        <time>2022-05-27T12:34:00Z</time>
      </trkpt>
      <trkpt lat="44.39793" lon="3.55399">
        <ele>731</ele>
        <time>2022-05-27T12:34:01Z</time>
      </trkpt>
      <trkpt lat="44.39791" lon="3.55399">
        <ele>731</ele>
        <time>2022-05-27T12:34:02Z</time>
      </trkpt>
      <trkpt lat="44.3979" lon="3.55399">
        <ele>731</ele>
        <time>2022-05-27T12:34:03Z</time>
      </trkpt>
      <trkpt lat="44.3979" lon="3.554">
        <ele>731</ele>
        <time>2022-05-27T12:34:04Z</time>
      </trkpt>
      <trkpt lat="44.39789" lon="3.554">
        <ele>732</ele>
        <time>2022-05-27T12:34:05Z</time>
      </trkpt>
      <trkpt lat="44.39788" lon="3.55401">
        <ele>731</ele>
        <time>2022-05-27T12:34:06Z</time>
      </trkpt>
      <trkpt lat="44.39787" lon="3.55402">
        <ele>731</ele>
        <time>2022-05-27T12:34:07Z</time>
      </trkpt>
      <trkpt lat="44.39786" lon="3.55402">
        <ele>732</ele>
        <time>2022-05-27T12:34:08Z</time>
      </trkpt>
      <trkpt lat="44.39785" lon="3.55403">
        <ele>732</ele>
        <time>2022-05-27T12:34:09Z</time>
      </trkpt>
      <trkpt lat="44.39784" lon="3.55404">
        <ele>732</ele>
        <time>2022-05-27T12:34:10Z</time>
      </trkpt>
      <trkpt lat="44.39783" lon="3.55405">
        <ele>733</ele>
        <time>2022-05-27T12:34:11Z</time>
      </trkpt>
      <trkpt lat="44.39782" lon="3.55406">
        <ele>734</ele>
        <time>2022-05-27T12:34:12Z</time>
      </trkpt>
      <trkpt lat="44.39781" lon="3.55406">
        <ele>734</ele>
        <time>2022-05-27T12:34:13Z</time>
      </trkpt>
      <trkpt lat="44.3978" lon="3.55408">
        <ele>733</ele>
        <time>2022-05-27T12:34:14Z</time>
      </trkpt>
      <trkpt lat="44.3978" lon="3.55409">
        <ele>733</ele>
        <time>2022-05-27T12:34:15Z</time>
      </trkpt>
      <trkpt lat="44.39778" lon="3.5541">
        <ele>733</ele>
        <time>2022-05-27T12:34:16Z</time>
      </trkpt>
      <trkpt lat="44.39777" lon="3.55411">
        <ele>733</ele>
        <time>2022-05-27T12:34:17Z</time>
      </trkpt>
      <trkpt lat="44.39777" lon="3.55412">
        <ele>733</ele>
        <time>2022-05-27T12:34:18Z</time>
      </trkpt>
      <trkpt lat="44.39776" lon="3.55413">
        <ele>733</ele>
        <time>2022-05-27T12:34:19Z</time>
      </trkpt>
      <trkpt lat="44.39775" lon="3.55414">
        <ele>733</ele>
        <time>2022-05-27T12:34:20Z</time>
      </trkpt>
      <trkpt lat="44.39774" lon="3.55414">
        <ele>733</ele>
        <time>2022-05-27T12:34:21Z</time>
      </trkpt>
      <trkpt lat="44.39773" lon="3.55415">
        <ele>734</ele>
        <time>2022-05-27T12:34:22Z</time>
      </trkpt>
      <trkpt lat="44.39772" lon="3.55417">
        <ele>735</ele>
        <time>2022-05-27T12:34:23Z</time>
      </trkpt>
      <trkpt lat="44.39771" lon="3.55417">
        <ele>735</ele>
        <time>2022-05-27T12:34:24Z</time>
      </trkpt>
      <trkpt lat="44.39769" lon="3.55418">
        <ele>735</ele>
        <time>2022-05-27T12:34:25Z</time>
      </trkpt>
      <trkpt lat="44.39768" lon="3.55418">
        <ele>735</ele>
        <time>2022-05-27T12:34:26Z</time>
      </trkpt>
      <trkpt lat="44.39767" lon="3.5542">
        <ele>736</ele>
        <time>2022-05-27T12:34:27Z</time>
      </trkpt>
      <trkpt lat="44.39766" lon="3.55421">
        <ele>736</ele>
        <time>2022-05-27T12:34:28Z</time>
      </trkpt>
      <trkpt lat="44.39765" lon="3.55422">
        <ele>737</ele>
        <time>2022-05-27T12:34:29Z</time>
      </trkpt>
      <trkpt lat="44.39764" lon="3.55423">
        <ele>737</ele>
        <time>2022-05-27T12:34:30Z</time>
      </trkpt>
      <trkpt lat="44.39763" lon="3.55424">
        <ele>738</ele>
        <time>2022-05-27T12:34:31Z</time>
      </trkpt>
      <trkpt lat="44.39761" lon="3.55424">
        <ele>738</ele>
        <time>2022-05-27T12:34:32Z</time>
      </trkpt>
      <trkpt lat="44.3976" lon="3.55425">
        <ele>738</ele>
        <time>2022-05-27T12:34:33Z</time>
      </trkpt>
      <trkpt lat="44.39759" lon="3.55426">
        <ele>738</ele>
        <time>2022-05-27T12:34:34Z</time>
      </trkpt>
      <trkpt lat="44.39757" lon="3.55427">
        <ele>738</ele>
        <time>2022-05-27T12:34:35Z</time>
      </trkpt>
      <trkpt lat="44.39756" lon="3.55428">
        <ele>738</ele>
        <time>2022-05-27T12:34:36Z</time>
      </trkpt>
      <trkpt lat="44.39755" lon="3.55428">
        <ele>738</ele>
        <time>2022-05-27T12:34:37Z</time>
      </trkpt>
      <trkpt lat="44.39753" lon="3.55429">
        <ele>738</ele>
        <time>2022-05-27T12:34:38Z</time>
      </trkpt>
      <trkpt lat="44.39752" lon="3.55431">
        <ele>738</ele>
        <time>2022-05-27T12:34:39Z</time>
      </trkpt>
      <trkpt lat="44.3975" lon="3.55432">
        <ele>738</ele>
        <time>2022-05-27T12:34:40Z</time>
      </trkpt>
      <trkpt lat="44.3975" lon="3.55433">
        <ele>738</ele>
        <time>2022-05-27T12:34:41Z</time>
      </trkpt>
      <trkpt lat="44.39749" lon="3.55435">
        <ele>738</ele>
        <time>2022-05-27T12:34:42Z</time>
      </trkpt>
      <trkpt lat="44.39748" lon="3.55436">
        <ele>737</ele>
        <time>2022-05-27T12:34:43Z</time>
      </trkpt>
      <trkpt lat="44.39747" lon="3.55437">
        <ele>737</ele>
        <time>2022-05-27T12:34:44Z</time>
      </trkpt>
      <trkpt lat="44.39746" lon="3.55438">
        <ele>737</ele>
        <time>2022-05-27T12:34:45Z</time>
      </trkpt>
      <trkpt lat="44.39745" lon="3.55439">
        <ele>737</ele>
        <time>2022-05-27T12:34:46Z</time>
      </trkpt>
      <trkpt lat="44.39743" lon="3.5544">
        <ele>738</ele>
        <time>2022-05-27T12:34:47Z</time>
      </trkpt>
      <trkpt lat="44.39742" lon="3.55441">
        <ele>738</ele>
        <time>2022-05-27T12:34:48Z</time>
      </trkpt>
      <trkpt lat="44.39741" lon="3.55441">
        <ele>738</ele>
        <time>2022-05-27T12:34:49Z</time>
      </trkpt>
      <trkpt lat="44.3974" lon="3.55442">
        <ele>737</ele>
        <time>2022-05-27T12:34:50Z</time>
      </trkpt>
      <trkpt lat="44.39739" lon="3.55444">
        <ele>737</ele>
        <time>2022-05-27T12:34:51Z</time>
      </trkpt>
      <trkpt lat="44.39737" lon="3.55445">
        <ele>736</ele>
        <time>2022-05-27T12:34:52Z</time>
      </trkpt>
      <trkpt lat="44.39736" lon="3.55447">
        <ele>736</ele>
        <time>2022-05-27T12:34:53Z</time>
      </trkpt>
      <trkpt lat="44.39735" lon="3.55449">
        <ele>736</ele>
        <time>2022-05-27T12:34:54Z</time>
      </trkpt>
      <trkpt lat="44.39734" lon="3.5545">
        <ele>737</ele>
        <time>2022-05-27T12:34:55Z</time>
      </trkpt>
      <trkpt lat="44.39733" lon="3.55452">
        <ele>737</ele>
        <time>2022-05-27T12:34:56Z</time>
      </trkpt>
      <trkpt lat="44.39732" lon="3.55454">
        <ele>737</ele>
        <time>2022-05-27T12:34:57Z</time>
      </trkpt>
      <trkpt lat="44.39732" lon="3.55455">
        <ele>738</ele>
        <time>2022-05-27T12:34:58Z</time>
      </trkpt>
      <trkpt lat="44.39731" lon="3.55457">
        <ele>738</ele>
        <time>2022-05-27T12:34:59Z</time>
      </trkpt>
      <trkpt lat="44.3973" lon="3.55459">
        <ele>738</ele>
        <time>2022-05-27T12:35:00Z</time>
      </trkpt>
      <trkpt lat="44.39729" lon="3.5546">
        <ele>738</ele>
        <time>2022-05-27T12:35:01Z</time>
      </trkpt>
      <trkpt lat="44.39728" lon="3.55461">
        <ele>738</ele>
        <time>2022-05-27T12:35:02Z</time>
      </trkpt>
      <trkpt lat="44.39727" lon="3.55463">
        <ele>738</ele>
        <time>2022-05-27T12:35:03Z</time>
      </trkpt>
      <trkpt lat="44.39727" lon="3.55464">
        <ele>739</ele>
        <time>2022-05-27T12:35:04Z</time>
      </trkpt>
      <trkpt lat="44.39726" lon="3.55466">
        <ele>739</ele>
        <time>2022-05-27T12:35:05Z</time>
      </trkpt>
      <trkpt lat="44.39725" lon="3.55467">
        <ele>739</ele>
        <time>2022-05-27T12:35:06Z</time>
      </trkpt>
      <trkpt lat="44.39724" lon="3.55468">
        <ele>739</ele>
        <time>2022-05-27T12:35:07Z</time>
      </trkpt>
      <trkpt lat="44.39723" lon="3.5547">
        <ele>739</ele>
        <time>2022-05-27T12:35:08Z</time>
      </trkpt>
      <trkpt lat="44.39722" lon="3.55472">
        <ele>739</ele>
        <time>2022-05-27T12:35:09Z</time>
      </trkpt>
      <trkpt lat="44.39721" lon="3.55473">
        <ele>739</ele>
        <time>2022-05-27T12:35:10Z</time>
      </trkpt>
      <trkpt lat="44.39721" lon="3.55475">
        <ele>739</ele>
        <time>2022-05-27T12:35:11Z</time>
      </trkpt>
      <trkpt lat="44.3972" lon="3.55477">
        <ele>739</ele>
        <time>2022-05-27T12:35:12Z</time>
      </trkpt>
      <trkpt lat="44.39719" lon="3.55478">
        <ele>739</ele>
        <time>2022-05-27T12:35:13Z</time>
      </trkpt>
      <trkpt lat="44.39718" lon="3.5548">
        <ele>739</ele>
        <time>2022-05-27T12:35:14Z</time>
      </trkpt>
      <trkpt lat="44.39717" lon="3.55481">
        <ele>739</ele>
        <time>2022-05-27T12:35:15Z</time>
      </trkpt>
      <trkpt lat="44.39716" lon="3.55483">
        <ele>739</ele>
        <time>2022-05-27T12:35:16Z</time>
      </trkpt>
      <trkpt lat="44.39715" lon="3.55484">
        <ele>739</ele>
        <time>2022-05-27T12:35:17Z</time>
      </trkpt>
      <trkpt lat="44.39714" lon="3.55486">
        <ele>739</ele>
        <time>2022-05-27T12:35:18Z</time>
      </trkpt>
      <trkpt lat="44.39713" lon="3.55487">
        <ele>739</ele>
        <time>2022-05-27T12:35:19Z</time>
      </trkpt>
      <trkpt lat="44.39711" lon="3.55488">
        <ele>739</ele>
        <time>2022-05-27T12:35:20Z</time>
      </trkpt>
      <trkpt lat="44.3971" lon="3.55489">
        <ele>739</ele>
        <time>2022-05-27T12:35:21Z</time>
      </trkpt>
      <trkpt lat="44.39709" lon="3.55491">
        <ele>739</ele>
        <time>2022-05-27T12:35:22Z</time>
      </trkpt>
      <trkpt lat="44.39708" lon="3.55492">
        <ele>738</ele>
        <time>2022-05-27T12:35:23Z</time>
      </trkpt>
      <trkpt lat="44.39706" lon="3.55493">
        <ele>738</ele>
        <time>2022-05-27T12:35:24Z</time>
      </trkpt>
      <trkpt lat="44.39706" lon="3.55495">
        <ele>738</ele>
        <time>2022-05-27T12:35:25Z</time>
      </trkpt>
      <trkpt lat="44.39705" lon="3.55496">
        <ele>738</ele>
        <time>2022-05-27T12:35:26Z</time>
      </trkpt>
      <trkpt lat="44.39705" lon="3.55497">
        <ele>738</ele>
        <time>2022-05-27T12:35:27Z</time>
      </trkpt>
      <trkpt lat="44.39704" lon="3.55499">
        <ele>738</ele>
        <time>2022-05-27T12:35:28Z</time>
      </trkpt>
      <trkpt lat="44.39703" lon="3.55499">
        <ele>737</ele>
        <time>2022-05-27T12:35:29Z</time>
      </trkpt>
      <trkpt lat="44.39702" lon="3.55501">
        <ele>737</ele>
        <time>2022-05-27T12:35:30Z</time>
      </trkpt>
      <trkpt lat="44.39701" lon="3.55502">
        <ele>737</ele>
        <time>2022-05-27T12:35:31Z</time>
      </trkpt>
      <trkpt lat="44.397" lon="3.55504">
        <ele>737</ele>
        <time>2022-05-27T12:35:32Z</time>
      </trkpt>
      <trkpt lat="44.39699" lon="3.55505">
        <ele>736</ele>
        <time>2022-05-27T12:35:33Z</time>
      </trkpt>
      <trkpt lat="44.39698" lon="3.55506">
        <ele>736</ele>
        <time>2022-05-27T12:35:34Z</time>
      </trkpt>
      <trkpt lat="44.39698" lon="3.55507">
        <ele>736</ele>
        <time>2022-05-27T12:35:35Z</time>
      </trkpt>
      <trkpt lat="44.39698" lon="3.55508">
        <ele>736</ele>
        <time>2022-05-27T12:35:36Z</time>
      </trkpt>
      <trkpt lat="44.39697" lon="3.55509">
        <ele>736</ele>
        <time>2022-05-27T12:35:37Z</time>
      </trkpt>
      <trkpt lat="44.39697" lon="3.55511">
        <ele>736</ele>
        <time>2022-05-27T12:35:38Z</time>
      </trkpt>
      <trkpt lat="44.39695" lon="3.55513">
        <ele>736</ele>
        <time>2022-05-27T12:35:39Z</time>
      </trkpt>
      <trkpt lat="44.39694" lon="3.55514">
        <ele>736</ele>
        <time>2022-05-27T12:35:40Z</time>
      </trkpt>
      <trkpt lat="44.39692" lon="3.55515">
        <ele>736</ele>
        <time>2022-05-27T12:35:41Z</time>
      </trkpt>
      <trkpt lat="44.39691" lon="3.55516">
        <ele>736</ele>
        <time>2022-05-27T12:35:42Z</time>
      </trkpt>
      <trkpt lat="44.3969" lon="3.55518">
        <ele>737</ele>
        <time>2022-05-27T12:35:43Z</time>
      </trkpt>
      <trkpt lat="44.39689" lon="3.5552">
        <ele>737</ele>
        <time>2022-05-27T12:35:44Z</time>
      </trkpt>
      <trkpt lat="44.39688" lon="3.55521">
        <ele>737</ele>
        <time>2022-05-27T12:35:45Z</time>
      </trkpt>
      <trkpt lat="44.39686" lon="3.55523">
        <ele>737</ele>
        <time>2022-05-27T12:35:46Z</time>
      </trkpt>
      <trkpt lat="44.39685" lon="3.55525">
        <ele>736</ele>
        <time>2022-05-27T12:35:47Z</time>
      </trkpt>
      <trkpt lat="44.39684" lon="3.55526">
        <ele>736</ele>
        <time>2022-05-27T12:35:48Z</time>
      </trkpt>
      <trkpt lat="44.39684" lon="3.55526">
        <ele>736</ele>
        <time>2022-05-27T12:35:49Z</time>
      </trkpt>
      <trkpt lat="44.39684" lon="3.55527">
        <ele>736</ele>
        <time>2022-05-27T12:35:50Z</time>
      </trkpt>
      <trkpt lat="44.39682" lon="3.55529">
        <ele>736</ele>
        <time>2022-05-27T12:35:51Z</time>
      </trkpt>
      <trkpt lat="44.39681" lon="3.5553">
        <ele>736</ele>
        <time>2022-05-27T12:35:52Z</time>
      </trkpt>
      <trkpt lat="44.3968" lon="3.55531">
        <ele>736</ele>
        <time>2022-05-27T12:35:53Z</time>
      </trkpt>
      <trkpt lat="44.39679" lon="3.55533">
        <ele>736</ele>
        <time>2022-05-27T12:35:54Z</time>
      </trkpt>
      <trkpt lat="44.39677" lon="3.55535">
        <ele>736</ele>
        <time>2022-05-27T12:35:55Z</time>
      </trkpt>
      <trkpt lat="44.39676" lon="3.55536">
        <ele>735</ele>
        <time>2022-05-27T12:35:56Z</time>
      </trkpt>
      <trkpt lat="44.39675" lon="3.55538">
        <ele>734</ele>
        <time>2022-05-27T12:35:57Z</time>
      </trkpt>
      <trkpt lat="44.39674" lon="3.55539">
        <ele>734</ele>
        <time>2022-05-27T12:35:58Z</time>
      </trkpt>
      <trkpt lat="44.39672" lon="3.5554">
        <ele>733</ele>
        <time>2022-05-27T12:35:59Z</time>
      </trkpt>
      <trkpt lat="44.39671" lon="3.55542">
        <ele>733</ele>
        <time>2022-05-27T12:36:00Z</time>
      </trkpt>
      <trkpt lat="44.3967" lon="3.55543">
        <ele>733</ele>
        <time>2022-05-27T12:36:01Z</time>
      </trkpt>
      <trkpt lat="44.39669" lon="3.55545">
        <ele>733</ele>
        <time>2022-05-27T12:36:02Z</time>
      </trkpt>
      <trkpt lat="44.39668" lon="3.55546">
        <ele>732</ele>
        <time>2022-05-27T12:36:03Z</time>
      </trkpt>
      <trkpt lat="44.39666" lon="3.55547">
        <ele>731</ele>
        <time>2022-05-27T12:36:04Z</time>
      </trkpt>
      <trkpt lat="44.39665" lon="3.55548">
        <ele>731</ele>
        <time>2022-05-27T12:36:05Z</time>
      </trkpt>
      <trkpt lat="44.39664" lon="3.55549">
        <ele>731</ele>
        <time>2022-05-27T12:36:06Z</time>
      </trkpt>
      <trkpt lat="44.39663" lon="3.55551">
        <ele>731</ele>
        <time>2022-05-27T12:36:07Z</time>
      </trkpt>
      <trkpt lat="44.39661" lon="3.55552">
        <ele>731</ele>
        <time>2022-05-27T12:36:08Z</time>
      </trkpt>
      <trkpt lat="44.39661" lon="3.55553">
        <ele>731</ele>
        <time>2022-05-27T12:36:09Z</time>
      </trkpt>
      <trkpt lat="44.3966" lon="3.55554">
        <ele>731</ele>
        <time>2022-05-27T12:36:10Z</time>
      </trkpt>
      <trkpt lat="44.39659" lon="3.55555">
        <ele>731</ele>
        <time>2022-05-27T12:36:11Z</time>
      </trkpt>
      <trkpt lat="44.39658" lon="3.55556">
        <ele>731</ele>
        <time>2022-05-27T12:36:12Z</time>
      </trkpt>
      <trkpt lat="44.39657" lon="3.55557">
        <ele>731</ele>
        <time>2022-05-27T12:36:13Z</time>
      </trkpt>
      <trkpt lat="44.39656" lon="3.55559">
        <ele>731</ele>
        <time>2022-05-27T12:36:14Z</time>
      </trkpt>
      <trkpt lat="44.39654" lon="3.5556">
        <ele>732</ele>
        <time>2022-05-27T12:36:15Z</time>
      </trkpt>
      <trkpt lat="44.39653" lon="3.55561">
        <ele>732</ele>
        <time>2022-05-27T12:36:16Z</time>
      </trkpt>
      <trkpt lat="44.39652" lon="3.55562">
        <ele>732</ele>
        <time>2022-05-27T12:36:17Z</time>
      </trkpt>
      <trkpt lat="44.39651" lon="3.55563">
        <ele>732</ele>
        <time>2022-05-27T12:36:18Z</time>
      </trkpt>
      <trkpt lat="44.3965" lon="3.55565">
        <ele>732</ele>
        <time>2022-05-27T12:36:19Z</time>
      </trkpt>
      <trkpt lat="44.39649" lon="3.55566">
        <ele>731</ele>
        <time>2022-05-27T12:36:20Z</time>
      </trkpt>
      <trkpt lat="44.39648" lon="3.55567">
        <ele>731</ele>
        <time>2022-05-27T12:36:21Z</time>
      </trkpt>
      <trkpt lat="44.39647" lon="3.55568">
        <ele>730</ele>
        <time>2022-05-27T12:36:22Z</time>
      </trkpt>
      <trkpt lat="44.39647" lon="3.55569">
        <ele>730</ele>
        <time>2022-05-27T12:36:23Z</time>
      </trkpt>
      <trkpt lat="44.39645" lon="3.55571">
        <ele>729</ele>
        <time>2022-05-27T12:36:24Z</time>
      </trkpt>
      <trkpt lat="44.39644" lon="3.55572">
        <ele>729</ele>
        <time>2022-05-27T12:36:25Z</time>
      </trkpt>
      <trkpt lat="44.39642" lon="3.55574">
        <ele>728</ele>
        <time>2022-05-27T12:36:26Z</time>
      </trkpt>
      <trkpt lat="44.3964" lon="3.55575">
        <ele>728</ele>
        <time>2022-05-27T12:36:27Z</time>
      </trkpt>
      <trkpt lat="44.39639" lon="3.55576">
        <ele>728</ele>
        <time>2022-05-27T12:36:28Z</time>
      </trkpt>
      <trkpt lat="44.39639" lon="3.55577">
        <ele>727</ele>
        <time>2022-05-27T12:36:29Z</time>
      </trkpt>
      <trkpt lat="44.39637" lon="3.55578">
        <ele>727</ele>
        <time>2022-05-27T12:36:30Z</time>
      </trkpt>
      <trkpt lat="44.39636" lon="3.55579">
        <ele>728</ele>
        <time>2022-05-27T12:36:31Z</time>
      </trkpt>
      <trkpt lat="44.39635" lon="3.5558">
        <ele>728</ele>
        <time>2022-05-27T12:36:32Z</time>
      </trkpt>
      <trkpt lat="44.39634" lon="3.55582">
        <ele>727</ele>
        <time>2022-05-27T12:36:33Z</time>
      </trkpt>
      <trkpt lat="44.39633" lon="3.55582">
        <ele>728</ele>
        <time>2022-05-27T12:36:34Z</time>
      </trkpt>
      <trkpt lat="44.39632" lon="3.55584">
        <ele>728</ele>
        <time>2022-05-27T12:36:35Z</time>
      </trkpt>
      <trkpt lat="44.39631" lon="3.55585">
        <ele>727</ele>
        <time>2022-05-27T12:36:36Z</time>
      </trkpt>
      <trkpt lat="44.3963" lon="3.55585">
        <ele>727</ele>
        <time>2022-05-27T12:36:37Z</time>
      </trkpt>
      <trkpt lat="44.39629" lon="3.55587">
        <ele>727</ele>
        <time>2022-05-27T12:36:38Z</time>
      </trkpt>
      <trkpt lat="44.39628" lon="3.55588">
        <ele>727</ele>
        <time>2022-05-27T12:36:39Z</time>
      </trkpt>
      <trkpt lat="44.39628" lon="3.55589">
        <ele>727</ele>
        <time>2022-05-27T12:36:40Z</time>
      </trkpt>
      <trkpt lat="44.39627" lon="3.5559">
        <ele>727</ele>
        <time>2022-05-27T12:36:41Z</time>
      </trkpt>
      <trkpt lat="44.39627" lon="3.55592">
        <ele>727</ele>
        <time>2022-05-27T12:36:42Z</time>
      </trkpt>
      <trkpt lat="44.39626" lon="3.55593">
        <ele>727</ele>
        <time>2022-05-27T12:36:43Z</time>
      </trkpt>
      <trkpt lat="44.39625" lon="3.55594">
        <ele>727</ele>
        <time>2022-05-27T12:36:44Z</time>
      </trkpt>
      <trkpt lat="44.39624" lon="3.55596">
        <ele>728</ele>
        <time>2022-05-27T12:36:45Z</time>
      </trkpt>
      <trkpt lat="44.39623" lon="3.55596">
        <ele>728</ele>
        <time>2022-05-27T12:36:46Z</time>
      </trkpt>
      <trkpt lat="44.39622" lon="3.55597">
        <ele>727</ele>
        <time>2022-05-27T12:36:47Z</time>
      </trkpt>
      <trkpt lat="44.39621" lon="3.55598">
        <ele>727</ele>
        <time>2022-05-27T12:36:48Z</time>
      </trkpt>
      <trkpt lat="44.3962" lon="3.556">
        <ele>727</ele>
        <time>2022-05-27T12:36:49Z</time>
      </trkpt>
      <trkpt lat="44.39619" lon="3.55602">
        <ele>727</ele>
        <time>2022-05-27T12:36:50Z</time>
      </trkpt>
      <trkpt lat="44.39618" lon="3.55604">
        <ele>727</ele>
        <time>2022-05-27T12:36:51Z</time>
      </trkpt>
      <trkpt lat="44.39617" lon="3.55605">
        <ele>728</ele>
        <time>2022-05-27T12:36:52Z</time>
      </trkpt>
      <trkpt lat="44.39616" lon="3.55606">
        <ele>728</ele>
        <time>2022-05-27T12:36:53Z</time>
      </trkpt>
      <trkpt lat="44.39616" lon="3.55607">
        <ele>729</ele>
        <time>2022-05-27T12:36:54Z</time>
      </trkpt>
      <trkpt lat="44.39615" lon="3.55609">
        <ele>729</ele>
        <time>2022-05-27T12:36:55Z</time>
      </trkpt>
      <trkpt lat="44.39614" lon="3.5561">
        <ele>729</ele>
        <time>2022-05-27T12:36:56Z</time>
      </trkpt>
      <trkpt lat="44.39613" lon="3.55611">
        <ele>729</ele>
        <time>2022-05-27T12:36:57Z</time>
      </trkpt>
      <trkpt lat="44.39613" lon="3.55612">
        <ele>728</ele>
        <time>2022-05-27T12:36:58Z</time>
      </trkpt>
      <trkpt lat="44.39611" lon="3.55613">
        <ele>728</ele>
        <time>2022-05-27T12:36:59Z</time>
      </trkpt>
      <trkpt lat="44.39611" lon="3.55613">
        <ele>728</ele>
        <time>2022-05-27T12:37:00Z</time>
      </trkpt>
      <trkpt lat="44.3961" lon="3.55614">
        <ele>728</ele>
        <time>2022-05-27T12:37:01Z</time>
      </trkpt>
      <trkpt lat="44.39608" lon="3.55616">
        <ele>728</ele>
        <time>2022-05-27T12:37:02Z</time>
      </trkpt>
      <trkpt lat="44.39607" lon="3.55617">
        <ele>728</ele>
        <time>2022-05-27T12:37:03Z</time>
      </trkpt>
      <trkpt lat="44.39606" lon="3.55618">
        <ele>728</ele>
        <time>2022-05-27T12:37:04Z</time>
      </trkpt>
      <trkpt lat="44.39605" lon="3.5562">
        <ele>727</ele>
        <time>2022-05-27T12:37:05Z</time>
      </trkpt>
      <trkpt lat="44.39605" lon="3.55621">
        <ele>726</ele>
        <time>2022-05-27T12:37:06Z</time>
      </trkpt>
      <trkpt lat="44.39603" lon="3.55622">
        <ele>726</ele>
        <time>2022-05-27T12:37:07Z</time>
      </trkpt>
      <trkpt lat="44.39602" lon="3.55623">
        <ele>726</ele>
        <time>2022-05-27T12:37:08Z</time>
      </trkpt>
      <trkpt lat="44.39601" lon="3.55625">
        <ele>725</ele>
        <time>2022-05-27T12:37:09Z</time>
      </trkpt>
      <trkpt lat="44.396" lon="3.55626">
        <ele>725</ele>
        <time>2022-05-27T12:37:10Z</time>
      </trkpt>
      <trkpt lat="44.396" lon="3.55627">
        <ele>725</ele>
        <time>2022-05-27T12:37:11Z</time>
      </trkpt>
      <trkpt lat="44.39599" lon="3.55629">
        <ele>725</ele>
        <time>2022-05-27T12:37:12Z</time>
      </trkpt>
      <trkpt lat="44.39598" lon="3.55631">
        <ele>726</ele>
        <time>2022-05-27T12:37:13Z</time>
      </trkpt>
      <trkpt lat="44.39597" lon="3.55632">
        <ele>726</ele>
        <time>2022-05-27T12:37:14Z</time>
      </trkpt>
      <trkpt lat="44.39596" lon="3.55633">
        <ele>726</ele>
        <time>2022-05-27T12:37:15Z</time>
      </trkpt>
      <trkpt lat="44.39595" lon="3.55635">
        <ele>725</ele>
        <time>2022-05-27T12:37:16Z</time>
      </trkpt>
      <trkpt lat="44.39592" lon="3.55636">
        <ele>725</ele>
        <time>2022-05-27T12:37:17Z</time>
      </trkpt>
      <trkpt lat="44.39591" lon="3.55637">
        <ele>725</ele>
        <time>2022-05-27T12:37:18Z</time>
      </trkpt>
      <trkpt lat="44.3959" lon="3.55637">
        <ele>725</ele>
        <time>2022-05-27T12:37:19Z</time>
      </trkpt>
      <trkpt lat="44.39588" lon="3.55639">
        <ele>725</ele>
        <time>2022-05-27T12:37:20Z</time>
      </trkpt>
      <trkpt lat="44.39587" lon="3.5564">
        <ele>726</ele>
        <time>2022-05-27T12:37:21Z</time>
      </trkpt>
      <trkpt lat="44.39585" lon="3.55641">
        <ele>726</ele>
        <time>2022-05-27T12:37:22Z</time>
      </trkpt>
      <trkpt lat="44.39584" lon="3.55643">
        <ele>726</ele>
        <time>2022-05-27T12:37:23Z</time>
      </trkpt>
      <trkpt lat="44.39582" lon="3.55644">
        <ele>727</ele>
        <time>2022-05-27T12:37:24Z</time>
      </trkpt>
      <trkpt lat="44.39581" lon="3.55645">
        <ele>726</ele>
        <time>2022-05-27T12:37:25Z</time>
      </trkpt>
      <trkpt lat="44.39579" lon="3.55646">
        <ele>726</ele>
        <time>2022-05-27T12:37:26Z</time>
      </trkpt>
      <trkpt lat="44.39578" lon="3.55647">
        <ele>725</ele>
        <time>2022-05-27T12:37:27Z</time>
      </trkpt>
      <trkpt lat="44.39577" lon="3.55649">
        <ele>725</ele>
        <time>2022-05-27T12:37:28Z</time>
      </trkpt>
      <trkpt lat="44.39576" lon="3.5565">
        <ele>725</ele>
        <time>2022-05-27T12:37:29Z</time>
      </trkpt>
      <trkpt lat="44.39575" lon="3.55651">
        <ele>726</ele>
        <time>2022-05-27T12:37:30Z</time>
      </trkpt>
      <trkpt lat="44.39573" lon="3.55652">
        <ele>725</ele>
        <time>2022-05-27T12:37:31Z</time>
      </trkpt>
      <trkpt lat="44.39572" lon="3.55653">
        <ele>726</ele>
        <time>2022-05-27T12:37:32Z</time>
      </trkpt>
      <trkpt lat="44.39571" lon="3.55654">
        <ele>725</ele>
        <time>2022-05-27T12:37:33Z</time>
      </trkpt>
      <trkpt lat="44.3957" lon="3.55655">
        <ele>725</ele>
        <time>2022-05-27T12:37:34Z</time>
      </trkpt>
      <trkpt lat="44.39569" lon="3.55656">
        <ele>724</ele>
        <time>2022-05-27T12:37:35Z</time>
      </trkpt>
      <trkpt lat="44.39568" lon="3.55657">
        <ele>724</ele>
        <time>2022-05-27T12:37:36Z</time>
      </trkpt>
      <trkpt lat="44.39566" lon="3.55657">
        <ele>724</ele>
        <time>2022-05-27T12:37:37Z</time>
      </trkpt>
      <trkpt lat="44.39565" lon="3.55658">
        <ele>724</ele>
        <time>2022-05-27T12:37:38Z</time>
      </trkpt>
      <trkpt lat="44.39564" lon="3.55658">
        <ele>725</ele>
        <time>2022-05-27T12:37:39Z</time>
      </trkpt>
      <trkpt lat="44.39562" lon="3.55659">
        <ele>724</ele>
        <time>2022-05-27T12:37:40Z</time>
      </trkpt>
      <trkpt lat="44.3956" lon="3.5566">
        <ele>724</ele>
        <time>2022-05-27T12:37:41Z</time>
      </trkpt>
      <trkpt lat="44.39558" lon="3.5566">
        <ele>724</ele>
        <time>2022-05-27T12:37:42Z</time>
      </trkpt>
      <trkpt lat="44.39557" lon="3.5566">
        <ele>724</ele>
        <time>2022-05-27T12:37:43Z</time>
      </trkpt>
      <trkpt lat="44.39556" lon="3.5566">
        <ele>723</ele>
        <time>2022-05-27T12:37:44Z</time>
      </trkpt>
      <trkpt lat="44.39554" lon="3.55661">
        <ele>723</ele>
        <time>2022-05-27T12:37:45Z</time>
      </trkpt>
      <trkpt lat="44.39552" lon="3.55661">
        <ele>723</ele>
        <time>2022-05-27T12:37:46Z</time>
      </trkpt>
      <trkpt lat="44.39551" lon="3.5566">
        <ele>723</ele>
        <time>2022-05-27T12:37:47Z</time>
      </trkpt>
      <trkpt lat="44.39549" lon="3.55659">
        <ele>722</ele>
        <time>2022-05-27T12:37:48Z</time>
      </trkpt>
      <trkpt lat="44.39548" lon="3.55659">
        <ele>723</ele>
        <time>2022-05-27T12:37:49Z</time>
      </trkpt>
      <trkpt lat="44.39546" lon="3.55658">
        <ele>723</ele>
        <time>2022-05-27T12:37:50Z</time>
      </trkpt>
      <trkpt lat="44.39545" lon="3.55657">
        <ele>724</ele>
        <time>2022-05-27T12:37:51Z</time>
      </trkpt>
      <trkpt lat="44.39543" lon="3.55657">
        <ele>725</ele>
        <time>2022-05-27T12:37:52Z</time>
      </trkpt>
      <trkpt lat="44.39542" lon="3.55656">
        <ele>725</ele>
        <time>2022-05-27T12:37:53Z</time>
      </trkpt>
      <trkpt lat="44.39541" lon="3.55654">
        <ele>726</ele>
        <time>2022-05-27T12:37:54Z</time>
      </trkpt>
      <trkpt lat="44.3954" lon="3.55653">
        <ele>726</ele>
        <time>2022-05-27T12:37:55Z</time>
      </trkpt>
      <trkpt lat="44.39539" lon="3.55652">
        <ele>726</ele>
        <time>2022-05-27T12:37:56Z</time>
      </trkpt>
      <trkpt lat="44.39538" lon="3.55651">
        <ele>726</ele>
        <time>2022-05-27T12:37:57Z</time>
      </trkpt>
      <trkpt lat="44.39537" lon="3.55649">
        <ele>727</ele>
        <time>2022-05-27T12:37:58Z</time>
      </trkpt>
      <trkpt lat="44.39536" lon="3.55648">
        <ele>727</ele>
        <time>2022-05-27T12:37:59Z</time>
      </trkpt>
      <trkpt lat="44.39536" lon="3.55646">
        <ele>727</ele>
        <time>2022-05-27T12:38:00Z</time>
      </trkpt>
      <trkpt lat="44.39534" lon="3.55645">
        <ele>726</ele>
        <time>2022-05-27T12:38:01Z</time>
      </trkpt>
      <trkpt lat="44.39534" lon="3.55643">
        <ele>726</ele>
        <time>2022-05-27T12:38:02Z</time>
      </trkpt>
      <trkpt lat="44.39533" lon="3.55642">
        <ele>726</ele>
        <time>2022-05-27T12:38:03Z</time>
      </trkpt>
      <trkpt lat="44.39532" lon="3.5564">
        <ele>726</ele>
        <time>2022-05-27T12:38:04Z</time>
      </trkpt>
      <trkpt lat="44.39531" lon="3.55639">
        <ele>726</ele>
        <time>2022-05-27T12:38:05Z</time>
      </trkpt>
      <trkpt lat="44.3953" lon="3.55637">
        <ele>727</ele>
        <time>2022-05-27T12:38:06Z</time>
      </trkpt>
      <trkpt lat="44.39529" lon="3.55636">
        <ele>727</ele>
        <time>2022-05-27T12:38:07Z</time>
      </trkpt>
      <trkpt lat="44.39528" lon="3.55635">
        <ele>728</ele>
        <time>2022-05-27T12:38:08Z</time>
      </trkpt>
      <trkpt lat="44.39527" lon="3.55633">
        <ele>728</ele>
        <time>2022-05-27T12:38:09Z</time>
      </trkpt>
      <trkpt lat="44.39526" lon="3.55632">
        <ele>728</ele>
        <time>2022-05-27T12:38:10Z</time>
      </trkpt>
      <trkpt lat="44.39525" lon="3.55631">
        <ele>727</ele>
        <time>2022-05-27T12:38:11Z</time>
      </trkpt>
      <trkpt lat="44.39524" lon="3.5563">
        <ele>728</ele>
        <time>2022-05-27T12:38:12Z</time>
      </trkpt>
      <trkpt lat="44.39523" lon="3.55629">
        <ele>728</ele>
        <time>2022-05-27T12:38:13Z</time>
      </trkpt>
      <trkpt lat="44.39522" lon="3.55628">
        <ele>728</ele>
        <time>2022-05-27T12:38:14Z</time>
      </trkpt>
      <trkpt lat="44.39521" lon="3.55627">
        <ele>728</ele>
        <time>2022-05-27T12:38:15Z</time>
      </trkpt>
      <trkpt lat="44.3952" lon="3.55626">
        <ele>728</ele>
        <time>2022-05-27T12:38:16Z</time>
      </trkpt>
      <trkpt lat="44.39519" lon="3.55624">
        <ele>729</ele>
        <time>2022-05-27T12:38:17Z</time>
      </trkpt>
      <trkpt lat="44.39518" lon="3.55622">
        <ele>729</ele>
        <time>2022-05-27T12:38:18Z</time>
      </trkpt>
      <trkpt lat="44.39518" lon="3.5562">
        <ele>729</ele>
        <time>2022-05-27T12:38:19Z</time>
      </trkpt>
      <trkpt lat="44.39517" lon="3.55619">
        <ele>729</ele>
        <time>2022-05-27T12:38:20Z</time>
      </trkpt>
      <trkpt lat="44.39516" lon="3.55617">
        <ele>729</ele>
        <time>2022-05-27T12:38:21Z</time>
      </trkpt>
      <trkpt lat="44.39516" lon="3.55616">
        <ele>729</ele>
        <time>2022-05-27T12:38:22Z</time>
      </trkpt>
      <trkpt lat="44.39515" lon="3.55614">
        <ele>728</ele>
        <time>2022-05-27T12:38:23Z</time>
      </trkpt>
      <trkpt lat="44.39515" lon="3.55612">
        <ele>728</ele>
        <time>2022-05-27T12:38:24Z</time>
      </trkpt>
      <trkpt lat="44.39514" lon="3.55611">
        <ele>727</ele>
        <time>2022-05-27T12:38:25Z</time>
      </trkpt>
      <trkpt lat="44.39514" lon="3.55609">
        <ele>727</ele>
        <time>2022-05-27T12:38:26Z</time>
      </trkpt>
      <trkpt lat="44.39513" lon="3.55607">
        <ele>726</ele>
        <time>2022-05-27T12:38:27Z</time>
      </trkpt>
      <trkpt lat="44.39513" lon="3.55605">
        <ele>727</ele>
        <time>2022-05-27T12:38:28Z</time>
      </trkpt>
      <trkpt lat="44.39513" lon="3.55604">
        <ele>726</ele>
        <time>2022-05-27T12:38:29Z</time>
      </trkpt>
      <trkpt lat="44.39513" lon="3.55602">
        <ele>726</ele>
        <time>2022-05-27T12:38:30Z</time>
      </trkpt>
      <trkpt lat="44.39513" lon="3.556">
        <ele>727</ele>
        <time>2022-05-27T12:38:31Z</time>
      </trkpt>
      <trkpt lat="44.39513" lon="3.55599">
        <ele>726</ele>
        <time>2022-05-27T12:38:32Z</time>
      </trkpt>
      <trkpt lat="44.39513" lon="3.55597">
        <ele>726</ele>
        <time>2022-05-27T12:38:33Z</time>
      </trkpt>
      <trkpt lat="44.39513" lon="3.55596">
        <ele>726</ele>
        <time>2022-05-27T12:38:34Z</time>
      </trkpt>
      <trkpt lat="44.39513" lon="3.55594">
        <ele>726</ele>
        <time>2022-05-27T12:38:35Z</time>
      </trkpt>
      <trkpt lat="44.39513" lon="3.55593">
        <ele>726</ele>
        <time>2022-05-27T12:38:36Z</time>
      </trkpt>
      <trkpt lat="44.39513" lon="3.55591">
        <ele>727</ele>
        <time>2022-05-27T12:38:37Z</time>
      </trkpt>
      <trkpt lat="44.39513" lon="3.55589">
        <ele>727</ele>
        <time>2022-05-27T12:38:38Z</time>
      </trkpt>
      <trkpt lat="44.39513" lon="3.55587">
        <ele>726</ele>
        <time>2022-05-27T12:38:39Z</time>
      </trkpt>
      <trkpt lat="44.39513" lon="3.55586">
        <ele>726</ele>
        <time>2022-05-27T12:38:40Z</time>
      </trkpt>
      <trkpt lat="44.39513" lon="3.55584">
        <ele>727</ele>
        <time>2022-05-27T12:38:41Z</time>
      </trkpt>
      <trkpt lat="44.39513" lon="3.55582">
        <ele>727</ele>
        <time>2022-05-27T12:38:42Z</time>
      </trkpt>
      <trkpt lat="44.39514" lon="3.55579">
        <ele>727</ele>
        <time>2022-05-27T12:38:43Z</time>
      </trkpt>
      <trkpt lat="44.39514" lon="3.55577">
        <ele>727</ele>
        <time>2022-05-27T12:38:44Z</time>
      </trkpt>
      <trkpt lat="44.39514" lon="3.55576">
        <ele>726</ele>
        <time>2022-05-27T12:38:45Z</time>
      </trkpt>
      <trkpt lat="44.39514" lon="3.55574">
        <ele>726</ele>
        <time>2022-05-27T12:38:46Z</time>
      </trkpt>
      <trkpt lat="44.39514" lon="3.55572">
        <ele>726</ele>
        <time>2022-05-27T12:38:47Z</time>
      </trkpt>
      <trkpt lat="44.39514" lon="3.5557">
        <ele>726</ele>
        <time>2022-05-27T12:38:48Z</time>
      </trkpt>
      <trkpt lat="44.39513" lon="3.55568">
        <ele>726</ele>
        <time>2022-05-27T12:38:49Z</time>
      </trkpt>
      <trkpt lat="44.39513" lon="3.55566">
        <ele>726</ele>
        <time>2022-05-27T12:38:50Z</time>
      </trkpt>
      <trkpt lat="44.39513" lon="3.55565">
        <ele>726</ele>
        <time>2022-05-27T12:38:51Z</time>
      </trkpt>
      <trkpt lat="44.39513" lon="3.55563">
        <ele>725</ele>
        <time>2022-05-27T12:38:52Z</time>
      </trkpt>
      <trkpt lat="44.39513" lon="3.55562">
        <ele>725</ele>
        <time>2022-05-27T12:38:53Z</time>
      </trkpt>
      <trkpt lat="44.39513" lon="3.55561">
        <ele>725</ele>
        <time>2022-05-27T12:38:54Z</time>
      </trkpt>
      <trkpt lat="44.39513" lon="3.5556">
        <ele>725</ele>
        <time>2022-05-27T12:38:55Z</time>
      </trkpt>
      <trkpt lat="44.39512" lon="3.55558">
        <ele>725</ele>
        <time>2022-05-27T12:38:56Z</time>
      </trkpt>
      <trkpt lat="44.39512" lon="3.55557">
        <ele>725</ele>
        <time>2022-05-27T12:38:57Z</time>
      </trkpt>
      <trkpt lat="44.39511" lon="3.55556">
        <ele>725</ele>
        <time>2022-05-27T12:38:58Z</time>
      </trkpt>
      <trkpt lat="44.3951" lon="3.55555">
        <ele>725</ele>
        <time>2022-05-27T12:38:59Z</time>
      </trkpt>
      <trkpt lat="44.39509" lon="3.55554">
        <ele>725</ele>
        <time>2022-05-27T12:39:00Z</time>
      </trkpt>
      <trkpt lat="44.39508" lon="3.55553">
        <ele>725</ele>
        <time>2022-05-27T12:39:01Z</time>
      </trkpt>
      <trkpt lat="44.39507" lon="3.55552">
        <ele>725</ele>
        <time>2022-05-27T12:39:02Z</time>
      </trkpt>
      <trkpt lat="44.39506" lon="3.55551">
        <ele>725</ele>
        <time>2022-05-27T12:39:03Z</time>
      </trkpt>
      <trkpt lat="44.39505" lon="3.55551">
        <ele>725</ele>
        <time>2022-05-27T12:39:04Z</time>
      </trkpt>
      <trkpt lat="44.39504" lon="3.55551">
        <ele>725</ele>
        <time>2022-05-27T12:39:05Z</time>
      </trkpt>
      <trkpt lat="44.39503" lon="3.55552">
        <ele>725</ele>
        <time>2022-05-27T12:39:06Z</time>
      </trkpt>
      <trkpt lat="44.39502" lon="3.55552">
        <ele>725</ele>
        <time>2022-05-27T12:39:07Z</time>
      </trkpt>
      <trkpt lat="44.39501" lon="3.55553">
        <ele>725</ele>
        <time>2022-05-27T12:39:08Z</time>
      </trkpt>
      <trkpt lat="44.395" lon="3.55554">
        <ele>725</ele>
        <time>2022-05-27T12:39:09Z</time>
      </trkpt>
      <trkpt lat="44.395" lon="3.55555">
        <ele>725</ele>
        <time>2022-05-27T12:39:10Z</time>
      </trkpt>
      <trkpt lat="44.395" lon="3.55556">
        <ele>725</ele>
        <time>2022-05-27T12:39:11Z</time>
      </trkpt>
      <trkpt lat="44.39499" lon="3.55557">
        <ele>726</ele>
        <time>2022-05-27T12:39:12Z</time>
      </trkpt>
      <trkpt lat="44.39498" lon="3.55559">
        <ele>726</ele>
        <time>2022-05-27T12:39:13Z</time>
      </trkpt>
      <trkpt lat="44.39497" lon="3.5556">
        <ele>725</ele>
        <time>2022-05-27T12:39:14Z</time>
      </trkpt>
      <trkpt lat="44.39497" lon="3.55561">
        <ele>725</ele>
        <time>2022-05-27T12:39:15Z</time>
      </trkpt>
      <trkpt lat="44.39496" lon="3.55563">
        <ele>726</ele>
        <time>2022-05-27T12:39:16Z</time>
      </trkpt>
      <trkpt lat="44.39496" lon="3.55565">
        <ele>726</ele>
        <time>2022-05-27T12:39:17Z</time>
      </trkpt>
      <trkpt lat="44.39495" lon="3.55567">
        <ele>726</ele>
        <time>2022-05-27T12:39:18Z</time>
      </trkpt>
      <trkpt lat="44.39495" lon="3.55568">
        <ele>727</ele>
        <time>2022-05-27T12:39:19Z</time>
      </trkpt>
      <trkpt lat="44.39495" lon="3.5557">
        <ele>727</ele>
        <time>2022-05-27T12:39:20Z</time>
      </trkpt>
      <trkpt lat="44.39494" lon="3.55572">
        <ele>727</ele>
        <time>2022-05-27T12:39:21Z</time>
      </trkpt>
      <trkpt lat="44.39494" lon="3.55574">
        <ele>727</ele>
        <time>2022-05-27T12:39:22Z</time>
      </trkpt>
      <trkpt lat="44.39494" lon="3.55576">
        <ele>727</ele>
        <time>2022-05-27T12:39:23Z</time>
      </trkpt>
      <trkpt lat="44.39494" lon="3.55578">
        <ele>727</ele>
        <time>2022-05-27T12:39:24Z</time>
      </trkpt>
      <trkpt lat="44.39495" lon="3.5558">
        <ele>726</ele>
        <time>2022-05-27T12:39:25Z</time>
      </trkpt>
      <trkpt lat="44.39495" lon="3.55581">
        <ele>725</ele>
        <time>2022-05-27T12:39:26Z</time>
      </trkpt>
      <trkpt lat="44.39495" lon="3.55582">
        <ele>725</ele>
        <time>2022-05-27T12:39:27Z</time>
      </trkpt>
      <trkpt lat="44.39495" lon="3.55584">
        <ele>725</ele>
        <time>2022-05-27T12:39:28Z</time>
      </trkpt>
      <trkpt lat="44.39494" lon="3.55585">
        <ele>725</ele>
        <time>2022-05-27T12:39:29Z</time>
      </trkpt>
      <trkpt lat="44.39494" lon="3.55586">
        <ele>725</ele>
        <time>2022-05-27T12:39:30Z</time>
      </trkpt>
      <trkpt lat="44.39494" lon="3.55588">
        <ele>725</ele>
        <time>2022-05-27T12:39:31Z</time>
      </trkpt>
      <trkpt lat="44.39493" lon="3.5559">
        <ele>724</ele>
        <time>2022-05-27T12:39:32Z</time>
      </trkpt>
      <trkpt lat="44.39493" lon="3.55591">
        <ele>724</ele>
        <time>2022-05-27T12:39:33Z</time>
      </trkpt>
      <trkpt lat="44.39493" lon="3.55592">
        <ele>725</ele>
        <time>2022-05-27T12:39:34Z</time>
      </trkpt>
      <trkpt lat="44.39492" lon="3.55595">
        <ele>725</ele>
        <time>2022-05-27T12:39:35Z</time>
      </trkpt>
      <trkpt lat="44.39492" lon="3.55597">
        <ele>726</ele>
        <time>2022-05-27T12:39:36Z</time>
      </trkpt>
      <trkpt lat="44.39491" lon="3.55598">
        <ele>726</ele>
        <time>2022-05-27T12:39:37Z</time>
      </trkpt>
      <trkpt lat="44.39491" lon="3.556">
        <ele>726</ele>
        <time>2022-05-27T12:39:38Z</time>
      </trkpt>
      <trkpt lat="44.3949" lon="3.55602">
        <ele>726</ele>
        <time>2022-05-27T12:39:39Z</time>
      </trkpt>
      <trkpt lat="44.3949" lon="3.55604">
        <ele>726</ele>
        <time>2022-05-27T12:39:40Z</time>
      </trkpt>
      <trkpt lat="44.3949" lon="3.55604">
        <ele>725</ele>
        <time>2022-05-27T12:39:41Z</time>
      </trkpt>
      <trkpt lat="44.3949" lon="3.55605">
        <ele>725</ele>
        <time>2022-05-27T12:39:42Z</time>
      </trkpt>
      <trkpt lat="44.3949" lon="3.55607">
        <ele>725</ele>
        <time>2022-05-27T12:39:43Z</time>
      </trkpt>
      <trkpt lat="44.3949" lon="3.55609">
        <ele>725</ele>
        <time>2022-05-27T12:39:44Z</time>
      </trkpt>
      <trkpt lat="44.39489" lon="3.5561">
        <ele>725</ele>
        <time>2022-05-27T12:39:45Z</time>
      </trkpt>
      <trkpt lat="44.39489" lon="3.55612">
        <ele>726</ele>
        <time>2022-05-27T12:39:46Z</time>
      </trkpt>
      <trkpt lat="44.39489" lon="3.55614">
        <ele>726</ele>
        <time>2022-05-27T12:39:47Z</time>
      </trkpt>
      <trkpt lat="44.3949" lon="3.55615">
        <ele>726</ele>
        <time>2022-05-27T12:39:48Z</time>
      </trkpt>
      <trkpt lat="44.3949" lon="3.55618">
        <ele>726</ele>
        <time>2022-05-27T12:39:49Z</time>
      </trkpt>
      <trkpt lat="44.3949" lon="3.5562">
        <ele>725</ele>
        <time>2022-05-27T12:39:50Z</time>
      </trkpt>
      <trkpt lat="44.39491" lon="3.55621">
        <ele>725</ele>
        <time>2022-05-27T12:39:51Z</time>
      </trkpt>
      <trkpt lat="44.39491" lon="3.55624">
        <ele>725</ele>
        <time>2022-05-27T12:39:52Z</time>
      </trkpt>
      <trkpt lat="44.39491" lon="3.55626">
        <ele>724</ele>
        <time>2022-05-27T12:39:53Z</time>
      </trkpt>
      <trkpt lat="44.39491" lon="3.55628">
        <ele>724</ele>
        <time>2022-05-27T12:39:54Z</time>
      </trkpt>
      <trkpt lat="44.39491" lon="3.5563">
        <ele>723</ele>
        <time>2022-05-27T12:39:55Z</time>
      </trkpt>
      <trkpt lat="44.39492" lon="3.55632">
        <ele>723</ele>
        <time>2022-05-27T12:39:56Z</time>
      </trkpt>
      <trkpt lat="44.39492" lon="3.55634">
        <ele>723</ele>
        <time>2022-05-27T12:39:57Z</time>
      </trkpt>
      <trkpt lat="44.39492" lon="3.55635">
        <ele>722</ele>
        <time>2022-05-27T12:39:58Z</time>
      </trkpt>
      <trkpt lat="44.39493" lon="3.55637">
        <ele>721</ele>
        <time>2022-05-27T12:39:59Z</time>
      </trkpt>
      <trkpt lat="44.39494" lon="3.55639">
        <ele>720</ele>
        <time>2022-05-27T12:40:00Z</time>
      </trkpt>
      <trkpt lat="44.39494" lon="3.5564">
        <ele>719</ele>
        <time>2022-05-27T12:40:01Z</time>
      </trkpt>
      <trkpt lat="44.39495" lon="3.55642">
        <ele>719</ele>
        <time>2022-05-27T12:40:02Z</time>
      </trkpt>
      <trkpt lat="44.39496" lon="3.55643">
        <ele>719</ele>
        <time>2022-05-27T12:40:03Z</time>
      </trkpt>
      <trkpt lat="44.39497" lon="3.55645">
        <ele>719</ele>
        <time>2022-05-27T12:40:04Z</time>
      </trkpt>
      <trkpt lat="44.39497" lon="3.55647">
        <ele>719</ele>
        <time>2022-05-27T12:40:05Z</time>
      </trkpt>
      <trkpt lat="44.39499" lon="3.55649">
        <ele>718</ele>
        <time>2022-05-27T12:40:06Z</time>
      </trkpt>
      <trkpt lat="44.39499" lon="3.5565">
        <ele>718</ele>
        <time>2022-05-27T12:40:07Z</time>
      </trkpt>
      <trkpt lat="44.395" lon="3.55651">
        <ele>717</ele>
        <time>2022-05-27T12:40:08Z</time>
      </trkpt>
      <trkpt lat="44.395" lon="3.55653">
        <ele>717</ele>
        <time>2022-05-27T12:40:09Z</time>
      </trkpt>
      <trkpt lat="44.39499" lon="3.55655">
        <ele>717</ele>
        <time>2022-05-27T12:40:10Z</time>
      </trkpt>
      <trkpt lat="44.39499" lon="3.55656">
        <ele>717</ele>
        <time>2022-05-27T12:40:11Z</time>
      </trkpt>
      <trkpt lat="44.39499" lon="3.55658">
        <ele>717</ele>
        <time>2022-05-27T12:40:12Z</time>
      </trkpt>
      <trkpt lat="44.39499" lon="3.5566">
        <ele>717</ele>
        <time>2022-05-27T12:40:13Z</time>
      </trkpt>
      <trkpt lat="44.39498" lon="3.55661">
        <ele>717</ele>
        <time>2022-05-27T12:40:14Z</time>
      </trkpt>
      <trkpt lat="44.39497" lon="3.55662">
        <ele>717</ele>
        <time>2022-05-27T12:40:15Z</time>
      </trkpt>
      <trkpt lat="44.39496" lon="3.55663">
        <ele>716</ele>
        <time>2022-05-27T12:40:16Z</time>
      </trkpt>
      <trkpt lat="44.39496" lon="3.55665">
        <ele>716</ele>
        <time>2022-05-27T12:40:17Z</time>
      </trkpt>
      <trkpt lat="44.39495" lon="3.55667">
        <ele>716</ele>
        <time>2022-05-27T12:40:18Z</time>
      </trkpt>
      <trkpt lat="44.39495" lon="3.55668">
        <ele>715</ele>
        <time>2022-05-27T12:40:19Z</time>
      </trkpt>
      <trkpt lat="44.39495" lon="3.5567">
        <ele>714</ele>
        <time>2022-05-27T12:40:20Z</time>
      </trkpt>
      <trkpt lat="44.39495" lon="3.55671">
        <ele>714</ele>
        <time>2022-05-27T12:40:21Z</time>
      </trkpt>
      <trkpt lat="44.39496" lon="3.55672">
        <ele>713</ele>
        <time>2022-05-27T12:40:22Z</time>
      </trkpt>
      <trkpt lat="44.39495" lon="3.55675">
        <ele>713</ele>
        <time>2022-05-27T12:40:23Z</time>
      </trkpt>
      <trkpt lat="44.39496" lon="3.55677">
        <ele>712</ele>
        <time>2022-05-27T12:40:24Z</time>
      </trkpt>
      <trkpt lat="44.39496" lon="3.55678">
        <ele>712</ele>
        <time>2022-05-27T12:40:25Z</time>
      </trkpt>
      <trkpt lat="44.39497" lon="3.55678">
        <ele>711</ele>
        <time>2022-05-27T12:40:26Z</time>
      </trkpt>
      <trkpt lat="44.39497" lon="3.55679">
        <ele>711</ele>
        <time>2022-05-27T12:40:27Z</time>
      </trkpt>
      <trkpt lat="44.39498" lon="3.55678">
        <ele>711</ele>
        <time>2022-05-27T12:40:28Z</time>
      </trkpt>
      <trkpt lat="44.39499" lon="3.55678">
        <ele>711</ele>
        <time>2022-05-27T12:40:29Z</time>
      </trkpt>
      <trkpt lat="44.39499" lon="3.55678">
        <ele>710</ele>
        <time>2022-05-27T12:40:30Z</time>
      </trkpt>
      <trkpt lat="44.39499" lon="3.55678">
        <ele>710</ele>
        <time>2022-05-27T12:40:31Z</time>
      </trkpt>
      <trkpt lat="44.39499" lon="3.55678">
        <ele>710</ele>
        <time>2022-05-27T12:40:32Z</time>
      </trkpt>
      <trkpt lat="44.39499" lon="3.55678">
        <ele>710</ele>
        <time>2022-05-27T12:40:32Z</time>
      </trkpt>
      <trkpt lat="44.39499" lon="3.55678">
        <ele>710</ele>
        <time>2022-05-27T12:40:32Z</time>
      </trkpt>
      <trkpt lat="44.39499" lon="3.55686">
        <ele>711</ele>
        <time>2022-05-27T12:40:39Z</time>
      </trkpt>
      <trkpt lat="44.39498" lon="3.55687">
        <ele>710</ele>
        <time>2022-05-27T12:40:40Z</time>
      </trkpt>
      <trkpt lat="44.39498" lon="3.55689">
        <ele>710</ele>
        <time>2022-05-27T12:40:41Z</time>
      </trkpt>
      <trkpt lat="44.39497" lon="3.55691">
        <ele>710</ele>
        <time>2022-05-27T12:40:42Z</time>
      </trkpt>
      <trkpt lat="44.39497" lon="3.55692">
        <ele>710</ele>
        <time>2022-05-27T12:40:43Z</time>
      </trkpt>
      <trkpt lat="44.39496" lon="3.55694">
        <ele>710</ele>
        <time>2022-05-27T12:40:44Z</time>
      </trkpt>
      <trkpt lat="44.39496" lon="3.55696">
        <ele>709</ele>
        <time>2022-05-27T12:40:45Z</time>
      </trkpt>
      <trkpt lat="44.39496" lon="3.55697">
        <ele>709</ele>
        <time>2022-05-27T12:40:46Z</time>
      </trkpt>
      <trkpt lat="44.39496" lon="3.55699">
        <ele>709</ele>
        <time>2022-05-27T12:40:47Z</time>
      </trkpt>
      <trkpt lat="44.39496" lon="3.55701">
        <ele>709</ele>
        <time>2022-05-27T12:40:48Z</time>
      </trkpt>
      <trkpt lat="44.39495" lon="3.55702">
        <ele>709</ele>
        <time>2022-05-27T12:40:49Z</time>
      </trkpt>
      <trkpt lat="44.39494" lon="3.55704">
        <ele>709</ele>
        <time>2022-05-27T12:40:50Z</time>
      </trkpt>
      <trkpt lat="44.39493" lon="3.55705">
        <ele>709</ele>
        <time>2022-05-27T12:40:51Z</time>
      </trkpt>
      <trkpt lat="44.39492" lon="3.55707">
        <ele>710</ele>
        <time>2022-05-27T12:40:52Z</time>
      </trkpt>
      <trkpt lat="44.39491" lon="3.55709">
        <ele>710</ele>
        <time>2022-05-27T12:40:53Z</time>
      </trkpt>
      <trkpt lat="44.39489" lon="3.5571">
        <ele>710</ele>
        <time>2022-05-27T12:40:54Z</time>
      </trkpt>
      <trkpt lat="44.39488" lon="3.55711">
        <ele>710</ele>
        <time>2022-05-27T12:40:55Z</time>
      </trkpt>
      <trkpt lat="44.39488" lon="3.55713">
        <ele>710</ele>
        <time>2022-05-27T12:40:56Z</time>
      </trkpt>
      <trkpt lat="44.39486" lon="3.55714">
        <ele>710</ele>
        <time>2022-05-27T12:40:57Z</time>
      </trkpt>
      <trkpt lat="44.39486" lon="3.55715">
        <ele>709</ele>
        <time>2022-05-27T12:40:58Z</time>
      </trkpt>
      <trkpt lat="44.39484" lon="3.55716">
        <ele>710</ele>
        <time>2022-05-27T12:40:59Z</time>
      </trkpt>
      <trkpt lat="44.39483" lon="3.55718">
        <ele>709</ele>
        <time>2022-05-27T12:41:00Z</time>
      </trkpt>
      <trkpt lat="44.39482" lon="3.5572">
        <ele>710</ele>
        <time>2022-05-27T12:41:01Z</time>
      </trkpt>
      <trkpt lat="44.39481" lon="3.55721">
        <ele>709</ele>
        <time>2022-05-27T12:41:02Z</time>
      </trkpt>
      <trkpt lat="44.39479" lon="3.55722">
        <ele>709</ele>
        <time>2022-05-27T12:41:03Z</time>
      </trkpt>
      <trkpt lat="44.39478" lon="3.55723">
        <ele>708</ele>
        <time>2022-05-27T12:41:04Z</time>
      </trkpt>
      <trkpt lat="44.39477" lon="3.55725">
        <ele>708</ele>
        <time>2022-05-27T12:41:05Z</time>
      </trkpt>
      <trkpt lat="44.39476" lon="3.55726">
        <ele>708</ele>
        <time>2022-05-27T12:41:06Z</time>
      </trkpt>
      <trkpt lat="44.39475" lon="3.55728">
        <ele>708</ele>
        <time>2022-05-27T12:41:07Z</time>
      </trkpt>
      <trkpt lat="44.39474" lon="3.55729">
        <ele>708</ele>
        <time>2022-05-27T12:41:08Z</time>
      </trkpt>
      <trkpt lat="44.39473" lon="3.55731">
        <ele>708</ele>
        <time>2022-05-27T12:41:09Z</time>
      </trkpt>
      <trkpt lat="44.39472" lon="3.55732">
        <ele>707</ele>
        <time>2022-05-27T12:41:10Z</time>
      </trkpt>
      <trkpt lat="44.39471" lon="3.55734">
        <ele>708</ele>
        <time>2022-05-27T12:41:11Z</time>
      </trkpt>
      <trkpt lat="44.3947" lon="3.55735">
        <ele>708</ele>
        <time>2022-05-27T12:41:12Z</time>
      </trkpt>
      <trkpt lat="44.39469" lon="3.55737">
        <ele>708</ele>
        <time>2022-05-27T12:41:13Z</time>
      </trkpt>
      <trkpt lat="44.39468" lon="3.55738">
        <ele>708</ele>
        <time>2022-05-27T12:41:14Z</time>
      </trkpt>
      <trkpt lat="44.39467" lon="3.5574">
        <ele>708</ele>
        <time>2022-05-27T12:41:15Z</time>
      </trkpt>
      <trkpt lat="44.39466" lon="3.55742">
        <ele>709</ele>
        <time>2022-05-27T12:41:16Z</time>
      </trkpt>
      <trkpt lat="44.39465" lon="3.55744">
        <ele>708</ele>
        <time>2022-05-27T12:41:17Z</time>
      </trkpt>
      <trkpt lat="44.39463" lon="3.55745">
        <ele>708</ele>
        <time>2022-05-27T12:41:18Z</time>
      </trkpt>
      <trkpt lat="44.39462" lon="3.55747">
        <ele>707</ele>
        <time>2022-05-27T12:41:19Z</time>
      </trkpt>
      <trkpt lat="44.3946" lon="3.55749">
        <ele>707</ele>
        <time>2022-05-27T12:41:20Z</time>
      </trkpt>
      <trkpt lat="44.39459" lon="3.5575">
        <ele>707</ele>
        <time>2022-05-27T12:41:21Z</time>
      </trkpt>
      <trkpt lat="44.39458" lon="3.55752">
        <ele>707</ele>
        <time>2022-05-27T12:41:22Z</time>
      </trkpt>
      <trkpt lat="44.39457" lon="3.55753">
        <ele>707</ele>
        <time>2022-05-27T12:41:23Z</time>
      </trkpt>
      <trkpt lat="44.39456" lon="3.55754">
        <ele>706</ele>
        <time>2022-05-27T12:41:24Z</time>
      </trkpt>
      <trkpt lat="44.39455" lon="3.55754">
        <ele>706</ele>
        <time>2022-05-27T12:41:25Z</time>
      </trkpt>
      <trkpt lat="44.39454" lon="3.55755">
        <ele>706</ele>
        <time>2022-05-27T12:41:26Z</time>
      </trkpt>
      <trkpt lat="44.39453" lon="3.55756">
        <ele>705</ele>
        <time>2022-05-27T12:41:27Z</time>
      </trkpt>
      <trkpt lat="44.39452" lon="3.55757">
        <ele>705</ele>
        <time>2022-05-27T12:41:28Z</time>
      </trkpt>
      <trkpt lat="44.39451" lon="3.55758">
        <ele>704</ele>
        <time>2022-05-27T12:41:29Z</time>
      </trkpt>
      <trkpt lat="44.3945" lon="3.5576">
        <ele>704</ele>
        <time>2022-05-27T12:41:30Z</time>
      </trkpt>
      <trkpt lat="44.39449" lon="3.55761">
        <ele>705</ele>
        <time>2022-05-27T12:41:31Z</time>
      </trkpt>
      <trkpt lat="44.39449" lon="3.55762">
        <ele>705</ele>
        <time>2022-05-27T12:41:32Z</time>
      </trkpt>
      <trkpt lat="44.39447" lon="3.55763">
        <ele>704</ele>
        <time>2022-05-27T12:41:33Z</time>
      </trkpt>
      <trkpt lat="44.39446" lon="3.55764">
        <ele>704</ele>
        <time>2022-05-27T12:41:34Z</time>
      </trkpt>
      <trkpt lat="44.39445" lon="3.55765">
        <ele>704</ele>
        <time>2022-05-27T12:41:35Z</time>
      </trkpt>
      <trkpt lat="44.39444" lon="3.55766">
        <ele>703</ele>
        <time>2022-05-27T12:41:36Z</time>
      </trkpt>
      <trkpt lat="44.39442" lon="3.55766">
        <ele>703</ele>
        <time>2022-05-27T12:41:37Z</time>
      </trkpt>
      <trkpt lat="44.39441" lon="3.55767">
        <ele>702</ele>
        <time>2022-05-27T12:41:38Z</time>
      </trkpt>
      <trkpt lat="44.39439" lon="3.55769">
        <ele>703</ele>
        <time>2022-05-27T12:41:39Z</time>
      </trkpt>
      <trkpt lat="44.39439" lon="3.55769">
        <ele>703</ele>
        <time>2022-05-27T12:41:40Z</time>
      </trkpt>
      <trkpt lat="44.39438" lon="3.5577">
        <ele>703</ele>
        <time>2022-05-27T12:41:41Z</time>
      </trkpt>
      <trkpt lat="44.39436" lon="3.55771">
        <ele>702</ele>
        <time>2022-05-27T12:41:42Z</time>
      </trkpt>
      <trkpt lat="44.39435" lon="3.55773">
        <ele>702</ele>
        <time>2022-05-27T12:41:43Z</time>
      </trkpt>
      <trkpt lat="44.39435" lon="3.55774">
        <ele>701</ele>
        <time>2022-05-27T12:41:44Z</time>
      </trkpt>
      <trkpt lat="44.39434" lon="3.55775">
        <ele>701</ele>
        <time>2022-05-27T12:41:45Z</time>
      </trkpt>
      <trkpt lat="44.39433" lon="3.55776">
        <ele>701</ele>
        <time>2022-05-27T12:41:46Z</time>
      </trkpt>
      <trkpt lat="44.39432" lon="3.55777">
        <ele>701</ele>
        <time>2022-05-27T12:41:47Z</time>
      </trkpt>
      <trkpt lat="44.39431" lon="3.55778">
        <ele>701</ele>
        <time>2022-05-27T12:41:48Z</time>
      </trkpt>
      <trkpt lat="44.3943" lon="3.5578">
        <ele>700</ele>
        <time>2022-05-27T12:41:49Z</time>
      </trkpt>
      <trkpt lat="44.39429" lon="3.55781">
        <ele>700</ele>
        <time>2022-05-27T12:41:50Z</time>
      </trkpt>
      <trkpt lat="44.39428" lon="3.55782">
        <ele>700</ele>
        <time>2022-05-27T12:41:51Z</time>
      </trkpt>
      <trkpt lat="44.39427" lon="3.55783">
        <ele>700</ele>
        <time>2022-05-27T12:41:52Z</time>
      </trkpt>
      <trkpt lat="44.39426" lon="3.55784">
        <ele>699</ele>
        <time>2022-05-27T12:41:53Z</time>
      </trkpt>
      <trkpt lat="44.39425" lon="3.55784">
        <ele>698</ele>
        <time>2022-05-27T12:41:54Z</time>
      </trkpt>
      <trkpt lat="44.39423" lon="3.55785">
        <ele>699</ele>
        <time>2022-05-27T12:41:55Z</time>
      </trkpt>
      <trkpt lat="44.39422" lon="3.55785">
        <ele>699</ele>
        <time>2022-05-27T12:41:56Z</time>
      </trkpt>
      <trkpt lat="44.39421" lon="3.55785">
        <ele>699</ele>
        <time>2022-05-27T12:41:57Z</time>
      </trkpt>
      <trkpt lat="44.3942" lon="3.55786">
        <ele>699</ele>
        <time>2022-05-27T12:41:58Z</time>
      </trkpt>
      <trkpt lat="44.39419" lon="3.55786">
        <ele>699</ele>
        <time>2022-05-27T12:41:59Z</time>
      </trkpt>
      <trkpt lat="44.39418" lon="3.55787">
        <ele>699</ele>
        <time>2022-05-27T12:42:00Z</time>
      </trkpt>
      <trkpt lat="44.39417" lon="3.55787">
        <ele>699</ele>
        <time>2022-05-27T12:42:01Z</time>
      </trkpt>
      <trkpt lat="44.39417" lon="3.55787">
        <ele>699</ele>
        <time>2022-05-27T12:42:02Z</time>
      </trkpt>
      <trkpt lat="44.39415" lon="3.55786">
        <ele>699</ele>
        <time>2022-05-27T12:42:03Z</time>
      </trkpt>
      <trkpt lat="44.39414" lon="3.55786">
        <ele>698</ele>
        <time>2022-05-27T12:42:04Z</time>
      </trkpt>
      <trkpt lat="44.39412" lon="3.55786">
        <ele>698</ele>
        <time>2022-05-27T12:42:05Z</time>
      </trkpt>
      <trkpt lat="44.3941" lon="3.55786">
        <ele>698</ele>
        <time>2022-05-27T12:42:06Z</time>
      </trkpt>
      <trkpt lat="44.39408" lon="3.55786">
        <ele>698</ele>
        <time>2022-05-27T12:42:07Z</time>
      </trkpt>
      <trkpt lat="44.39407" lon="3.55786">
        <ele>698</ele>
        <time>2022-05-27T12:42:08Z</time>
      </trkpt>
      <trkpt lat="44.39405" lon="3.55787">
        <ele>697</ele>
        <time>2022-05-27T12:42:09Z</time>
      </trkpt>
      <trkpt lat="44.39404" lon="3.55787">
        <ele>696</ele>
        <time>2022-05-27T12:42:10Z</time>
      </trkpt>
      <trkpt lat="44.39402" lon="3.55787">
        <ele>696</ele>
        <time>2022-05-27T12:42:11Z</time>
      </trkpt>
      <trkpt lat="44.39401" lon="3.55787">
        <ele>696</ele>
        <time>2022-05-27T12:42:12Z</time>
      </trkpt>
      <trkpt lat="44.394" lon="3.55786">
        <ele>696</ele>
        <time>2022-05-27T12:42:13Z</time>
      </trkpt>
      <trkpt lat="44.39398" lon="3.55786">
        <ele>695</ele>
        <time>2022-05-27T12:42:14Z</time>
      </trkpt>
      <trkpt lat="44.39397" lon="3.55786">
        <ele>696</ele>
        <time>2022-05-27T12:42:15Z</time>
      </trkpt>
      <trkpt lat="44.39396" lon="3.55786">
        <ele>696</ele>
        <time>2022-05-27T12:42:16Z</time>
      </trkpt>
      <trkpt lat="44.39394" lon="3.55786">
        <ele>696</ele>
        <time>2022-05-27T12:42:17Z</time>
      </trkpt>
      <trkpt lat="44.39392" lon="3.55786">
        <ele>696</ele>
        <time>2022-05-27T12:42:18Z</time>
      </trkpt>
      <trkpt lat="44.39391" lon="3.55785">
        <ele>696</ele>
        <time>2022-05-27T12:42:19Z</time>
      </trkpt>
      <trkpt lat="44.3939" lon="3.55785">
        <ele>696</ele>
        <time>2022-05-27T12:42:20Z</time>
      </trkpt>
      <trkpt lat="44.39389" lon="3.55785">
        <ele>697</ele>
        <time>2022-05-27T12:42:21Z</time>
      </trkpt>
      <trkpt lat="44.39388" lon="3.55785">
        <ele>698</ele>
        <time>2022-05-27T12:42:22Z</time>
      </trkpt>
      <trkpt lat="44.39387" lon="3.55785">
        <ele>698</ele>
        <time>2022-05-27T12:42:23Z</time>
      </trkpt>
      <trkpt lat="44.39386" lon="3.55785">
        <ele>698</ele>
        <time>2022-05-27T12:42:24Z</time>
      </trkpt>
      <trkpt lat="44.39385" lon="3.55785">
        <ele>698</ele>
        <time>2022-05-27T12:42:25Z</time>
      </trkpt>
      <trkpt lat="44.39383" lon="3.55786">
        <ele>698</ele>
        <time>2022-05-27T12:42:26Z</time>
      </trkpt>
      <trkpt lat="44.39381" lon="3.55786">
        <ele>698</ele>
        <time>2022-05-27T12:42:27Z</time>
      </trkpt>
      <trkpt lat="44.3938" lon="3.55786">
        <ele>698</ele>
        <time>2022-05-27T12:42:28Z</time>
      </trkpt>
      <trkpt lat="44.39378" lon="3.55787">
        <ele>698</ele>
        <time>2022-05-27T12:42:29Z</time>
      </trkpt>
      <trkpt lat="44.39376" lon="3.55787">
        <ele>698</ele>
        <time>2022-05-27T12:42:30Z</time>
      </trkpt>
      <trkpt lat="44.39375" lon="3.55787">
        <ele>698</ele>
        <time>2022-05-27T12:42:31Z</time>
      </trkpt>
      <trkpt lat="44.39373" lon="3.55788">
        <ele>698</ele>
        <time>2022-05-27T12:42:32Z</time>
      </trkpt>
      <trkpt lat="44.39372" lon="3.55788">
        <ele>697</ele>
        <time>2022-05-27T12:42:33Z</time>
      </trkpt>
      <trkpt lat="44.39371" lon="3.55788">
        <ele>697</ele>
        <time>2022-05-27T12:42:34Z</time>
      </trkpt>
      <trkpt lat="44.3937" lon="3.55788">
        <ele>697</ele>
        <time>2022-05-27T12:42:35Z</time>
      </trkpt>
      <trkpt lat="44.39368" lon="3.55788">
        <ele>697</ele>
        <time>2022-05-27T12:42:36Z</time>
      </trkpt>
      <trkpt lat="44.39367" lon="3.55788">
        <ele>697</ele>
        <time>2022-05-27T12:42:37Z</time>
      </trkpt>
      <trkpt lat="44.39366" lon="3.55788">
        <ele>698</ele>
        <time>2022-05-27T12:42:38Z</time>
      </trkpt>
      <trkpt lat="44.39364" lon="3.55788">
        <ele>698</ele>
        <time>2022-05-27T12:42:39Z</time>
      </trkpt>
      <trkpt lat="44.39363" lon="3.55788">
        <ele>698</ele>
        <time>2022-05-27T12:42:40Z</time>
      </trkpt>
      <trkpt lat="44.39361" lon="3.55787">
        <ele>699</ele>
        <time>2022-05-27T12:42:41Z</time>
      </trkpt>
      <trkpt lat="44.3936" lon="3.55787">
        <ele>698</ele>
        <time>2022-05-27T12:42:42Z</time>
      </trkpt>
      <trkpt lat="44.39359" lon="3.55787">
        <ele>698</ele>
        <time>2022-05-27T12:42:43Z</time>
      </trkpt>
      <trkpt lat="44.39358" lon="3.55787">
        <ele>698</ele>
        <time>2022-05-27T12:42:44Z</time>
      </trkpt>
      <trkpt lat="44.39357" lon="3.55786">
        <ele>698</ele>
        <time>2022-05-27T12:42:45Z</time>
      </trkpt>
      <trkpt lat="44.39356" lon="3.55785">
        <ele>698</ele>
        <time>2022-05-27T12:42:46Z</time>
      </trkpt>
      <trkpt lat="44.39355" lon="3.55785">
        <ele>698</ele>
        <time>2022-05-27T12:42:47Z</time>
      </trkpt>
      <trkpt lat="44.39354" lon="3.55785">
        <ele>698</ele>
        <time>2022-05-27T12:42:48Z</time>
      </trkpt>
      <trkpt lat="44.39352" lon="3.55785">
        <ele>699</ele>
        <time>2022-05-27T12:42:49Z</time>
      </trkpt>
      <trkpt lat="44.39351" lon="3.55784">
        <ele>699</ele>
        <time>2022-05-27T12:42:50Z</time>
      </trkpt>
      <trkpt lat="44.3935" lon="3.55784">
        <ele>700</ele>
        <time>2022-05-27T12:42:51Z</time>
      </trkpt>
      <trkpt lat="44.39349" lon="3.55784">
        <ele>700</ele>
        <time>2022-05-27T12:42:52Z</time>
      </trkpt>
      <trkpt lat="44.39348" lon="3.55783">
        <ele>699</ele>
        <time>2022-05-27T12:42:53Z</time>
      </trkpt>
      <trkpt lat="44.39346" lon="3.55783">
        <ele>699</ele>
        <time>2022-05-27T12:42:54Z</time>
      </trkpt>
      <trkpt lat="44.39345" lon="3.55782">
        <ele>699</ele>
        <time>2022-05-27T12:42:55Z</time>
      </trkpt>
      <trkpt lat="44.39344" lon="3.55781">
        <ele>699</ele>
        <time>2022-05-27T12:42:56Z</time>
      </trkpt>
      <trkpt lat="44.39343" lon="3.55781">
        <ele>699</ele>
        <time>2022-05-27T12:42:57Z</time>
      </trkpt>
      <trkpt lat="44.39341" lon="3.55781">
        <ele>698</ele>
        <time>2022-05-27T12:42:58Z</time>
      </trkpt>
      <trkpt lat="44.3934" lon="3.5578">
        <ele>698</ele>
        <time>2022-05-27T12:42:59Z</time>
      </trkpt>
      <trkpt lat="44.39338" lon="3.5578">
        <ele>698</ele>
        <time>2022-05-27T12:43:00Z</time>
      </trkpt>
      <trkpt lat="44.39337" lon="3.55779">
        <ele>698</ele>
        <time>2022-05-27T12:43:01Z</time>
      </trkpt>
      <trkpt lat="44.39336" lon="3.55778">
        <ele>698</ele>
        <time>2022-05-27T12:43:02Z</time>
      </trkpt>
      <trkpt lat="44.39335" lon="3.55777">
        <ele>698</ele>
        <time>2022-05-27T12:43:03Z</time>
      </trkpt>
      <trkpt lat="44.39333" lon="3.55776">
        <ele>699</ele>
        <time>2022-05-27T12:43:04Z</time>
      </trkpt>
      <trkpt lat="44.39332" lon="3.55776">
        <ele>699</ele>
        <time>2022-05-27T12:43:05Z</time>
      </trkpt>
      <trkpt lat="44.3933" lon="3.55776">
        <ele>699</ele>
        <time>2022-05-27T12:43:06Z</time>
      </trkpt>
      <trkpt lat="44.39329" lon="3.55775">
        <ele>699</ele>
        <time>2022-05-27T12:43:07Z</time>
      </trkpt>
      <trkpt lat="44.39328" lon="3.55774">
        <ele>700</ele>
        <time>2022-05-27T12:43:08Z</time>
      </trkpt>
      <trkpt lat="44.39327" lon="3.55773">
        <ele>699</ele>
        <time>2022-05-27T12:43:09Z</time>
      </trkpt>
      <trkpt lat="44.39325" lon="3.55771">
        <ele>700</ele>
        <time>2022-05-27T12:43:10Z</time>
      </trkpt>
      <trkpt lat="44.39324" lon="3.55771">
        <ele>700</ele>
        <time>2022-05-27T12:43:11Z</time>
      </trkpt>
      <trkpt lat="44.39323" lon="3.55769">
        <ele>701</ele>
        <time>2022-05-27T12:43:12Z</time>
      </trkpt>
      <trkpt lat="44.39322" lon="3.55769">
        <ele>700</ele>
        <time>2022-05-27T12:43:13Z</time>
      </trkpt>
      <trkpt lat="44.39321" lon="3.55768">
        <ele>701</ele>
        <time>2022-05-27T12:43:14Z</time>
      </trkpt>
      <trkpt lat="44.3932" lon="3.55767">
        <ele>701</ele>
        <time>2022-05-27T12:43:15Z</time>
      </trkpt>
      <trkpt lat="44.39319" lon="3.55765">
        <ele>701</ele>
        <time>2022-05-27T12:43:16Z</time>
      </trkpt>
      <trkpt lat="44.39317" lon="3.55764">
        <ele>702</ele>
        <time>2022-05-27T12:43:17Z</time>
      </trkpt>
      <trkpt lat="44.39316" lon="3.55763">
        <ele>701</ele>
        <time>2022-05-27T12:43:18Z</time>
      </trkpt>
      <trkpt lat="44.39315" lon="3.55762">
        <ele>702</ele>
        <time>2022-05-27T12:43:19Z</time>
      </trkpt>
      <trkpt lat="44.39314" lon="3.55762">
        <ele>702</ele>
        <time>2022-05-27T12:43:20Z</time>
      </trkpt>
      <trkpt lat="44.39313" lon="3.55761">
        <ele>702</ele>
        <time>2022-05-27T12:43:21Z</time>
      </trkpt>
      <trkpt lat="44.39311" lon="3.5576">
        <ele>702</ele>
        <time>2022-05-27T12:43:22Z</time>
      </trkpt>
      <trkpt lat="44.3931" lon="3.55759">
        <ele>702</ele>
        <time>2022-05-27T12:43:23Z</time>
      </trkpt>
      <trkpt lat="44.39309" lon="3.55758">
        <ele>701</ele>
        <time>2022-05-27T12:43:24Z</time>
      </trkpt>
      <trkpt lat="44.39308" lon="3.55757">
        <ele>701</ele>
        <time>2022-05-27T12:43:25Z</time>
      </trkpt>
      <trkpt lat="44.39307" lon="3.55756">
        <ele>702</ele>
        <time>2022-05-27T12:43:26Z</time>
      </trkpt>
      <trkpt lat="44.39306" lon="3.55756">
        <ele>701</ele>
        <time>2022-05-27T12:43:27Z</time>
      </trkpt>
      <trkpt lat="44.39305" lon="3.55755">
        <ele>701</ele>
        <time>2022-05-27T12:43:28Z</time>
      </trkpt>
      <trkpt lat="44.39304" lon="3.55754">
        <ele>701</ele>
        <time>2022-05-27T12:43:29Z</time>
      </trkpt>
      <trkpt lat="44.39303" lon="3.55753">
        <ele>701</ele>
        <time>2022-05-27T12:43:30Z</time>
      </trkpt>
      <trkpt lat="44.39302" lon="3.55753">
        <ele>701</ele>
        <time>2022-05-27T12:43:31Z</time>
      </trkpt>
      <trkpt lat="44.39301" lon="3.55751">
        <ele>701</ele>
        <time>2022-05-27T12:43:32Z</time>
      </trkpt>
      <trkpt lat="44.39301" lon="3.5575">
        <ele>701</ele>
        <time>2022-05-27T12:43:33Z</time>
      </trkpt>
      <trkpt lat="44.39299" lon="3.55751">
        <ele>701</ele>
        <time>2022-05-27T12:43:34Z</time>
      </trkpt>
      <trkpt lat="44.39298" lon="3.5575">
        <ele>701</ele>
        <time>2022-05-27T12:43:35Z</time>
      </trkpt>
      <trkpt lat="44.39297" lon="3.55749">
        <ele>701</ele>
        <time>2022-05-27T12:43:36Z</time>
      </trkpt>
      <trkpt lat="44.39296" lon="3.55749">
        <ele>701</ele>
        <time>2022-05-27T12:43:37Z</time>
      </trkpt>
      <trkpt lat="44.39295" lon="3.55749">
        <ele>701</ele>
        <time>2022-05-27T12:43:38Z</time>
      </trkpt>
      <trkpt lat="44.39294" lon="3.55749">
        <ele>701</ele>
        <time>2022-05-27T12:43:39Z</time>
      </trkpt>
      <trkpt lat="44.39293" lon="3.55749">
        <ele>702</ele>
        <time>2022-05-27T12:43:40Z</time>
      </trkpt>
      <trkpt lat="44.39291" lon="3.5575">
        <ele>702</ele>
        <time>2022-05-27T12:43:41Z</time>
      </trkpt>
      <trkpt lat="44.3929" lon="3.5575">
        <ele>702</ele>
        <time>2022-05-27T12:43:42Z</time>
      </trkpt>
      <trkpt lat="44.39289" lon="3.5575">
        <ele>703</ele>
        <time>2022-05-27T12:43:43Z</time>
      </trkpt>
      <trkpt lat="44.39287" lon="3.5575">
        <ele>703</ele>
        <time>2022-05-27T12:43:44Z</time>
      </trkpt>
      <trkpt lat="44.39285" lon="3.5575">
        <ele>703</ele>
        <time>2022-05-27T12:43:45Z</time>
      </trkpt>
      <trkpt lat="44.39284" lon="3.55749">
        <ele>703</ele>
        <time>2022-05-27T12:43:46Z</time>
      </trkpt>
      <trkpt lat="44.39283" lon="3.55748">
        <ele>703</ele>
        <time>2022-05-27T12:43:47Z</time>
      </trkpt>
      <trkpt lat="44.39282" lon="3.55748">
        <ele>704</ele>
        <time>2022-05-27T12:43:48Z</time>
      </trkpt>
      <trkpt lat="44.3928" lon="3.55748">
        <ele>704</ele>
        <time>2022-05-27T12:43:49Z</time>
      </trkpt>
      <trkpt lat="44.39278" lon="3.55748">
        <ele>703</ele>
        <time>2022-05-27T12:43:50Z</time>
      </trkpt>
      <trkpt lat="44.39277" lon="3.55748">
        <ele>703</ele>
        <time>2022-05-27T12:43:51Z</time>
      </trkpt>
      <trkpt lat="44.39275" lon="3.55747">
        <ele>704</ele>
        <time>2022-05-27T12:43:52Z</time>
      </trkpt>
      <trkpt lat="44.39274" lon="3.55747">
        <ele>703</ele>
        <time>2022-05-27T12:43:53Z</time>
      </trkpt>
      <trkpt lat="44.39273" lon="3.55747">
        <ele>703</ele>
        <time>2022-05-27T12:43:54Z</time>
      </trkpt>
      <trkpt lat="44.39272" lon="3.55747">
        <ele>703</ele>
        <time>2022-05-27T12:43:55Z</time>
      </trkpt>
      <trkpt lat="44.39271" lon="3.55748">
        <ele>703</ele>
        <time>2022-05-27T12:43:56Z</time>
      </trkpt>
      <trkpt lat="44.3927" lon="3.55747">
        <ele>703</ele>
        <time>2022-05-27T12:43:57Z</time>
      </trkpt>
      <trkpt lat="44.39269" lon="3.55747">
        <ele>703</ele>
        <time>2022-05-27T12:43:58Z</time>
      </trkpt>
      <trkpt lat="44.39269" lon="3.55747">
        <ele>703</ele>
        <time>2022-05-27T12:43:59Z</time>
      </trkpt>
      <trkpt lat="44.39267" lon="3.55747">
        <ele>703</ele>
        <time>2022-05-27T12:44:00Z</time>
      </trkpt>
      <trkpt lat="44.39266" lon="3.55747">
        <ele>703</ele>
        <time>2022-05-27T12:44:01Z</time>
      </trkpt>
      <trkpt lat="44.39264" lon="3.55747">
        <ele>703</ele>
        <time>2022-05-27T12:44:02Z</time>
      </trkpt>
      <trkpt lat="44.39263" lon="3.55745">
        <ele>704</ele>
        <time>2022-05-27T12:44:03Z</time>
      </trkpt>
      <trkpt lat="44.39262" lon="3.55745">
        <ele>703</ele>
        <time>2022-05-27T12:44:04Z</time>
      </trkpt>
      <trkpt lat="44.39261" lon="3.55745">
        <ele>703</ele>
        <time>2022-05-27T12:44:05Z</time>
      </trkpt>
      <trkpt lat="44.39259" lon="3.55746">
        <ele>703</ele>
        <time>2022-05-27T12:44:06Z</time>
      </trkpt>
      <trkpt lat="44.39258" lon="3.55747">
        <ele>703</ele>
        <time>2022-05-27T12:44:07Z</time>
      </trkpt>
      <trkpt lat="44.39256" lon="3.55747">
        <ele>702</ele>
        <time>2022-05-27T12:44:08Z</time>
      </trkpt>
      <trkpt lat="44.39255" lon="3.55747">
        <ele>702</ele>
        <time>2022-05-27T12:44:09Z</time>
      </trkpt>
      <trkpt lat="44.39254" lon="3.55746">
        <ele>701</ele>
        <time>2022-05-27T12:44:10Z</time>
      </trkpt>
      <trkpt lat="44.39252" lon="3.55745">
        <ele>701</ele>
        <time>2022-05-27T12:44:11Z</time>
      </trkpt>
      <trkpt lat="44.3925" lon="3.55744">
        <ele>701</ele>
        <time>2022-05-27T12:44:12Z</time>
      </trkpt>
      <trkpt lat="44.39248" lon="3.55744">
        <ele>700</ele>
        <time>2022-05-27T12:44:13Z</time>
      </trkpt>
      <trkpt lat="44.39246" lon="3.55745">
        <ele>700</ele>
        <time>2022-05-27T12:44:14Z</time>
      </trkpt>
      <trkpt lat="44.39244" lon="3.55745">
        <ele>700</ele>
        <time>2022-05-27T12:44:15Z</time>
      </trkpt>
      <trkpt lat="44.39242" lon="3.55746">
        <ele>700</ele>
        <time>2022-05-27T12:44:16Z</time>
      </trkpt>
      <trkpt lat="44.39241" lon="3.55745">
        <ele>699</ele>
        <time>2022-05-27T12:44:17Z</time>
      </trkpt>
      <trkpt lat="44.39239" lon="3.55746">
        <ele>699</ele>
        <time>2022-05-27T12:44:18Z</time>
      </trkpt>
      <trkpt lat="44.39238" lon="3.55746">
        <ele>699</ele>
        <time>2022-05-27T12:44:19Z</time>
      </trkpt>
      <trkpt lat="44.39237" lon="3.55747">
        <ele>700</ele>
        <time>2022-05-27T12:44:20Z</time>
      </trkpt>
      <trkpt lat="44.39235" lon="3.55747">
        <ele>700</ele>
        <time>2022-05-27T12:44:21Z</time>
      </trkpt>
      <trkpt lat="44.39233" lon="3.55748">
        <ele>700</ele>
        <time>2022-05-27T12:44:22Z</time>
      </trkpt>
      <trkpt lat="44.39232" lon="3.55748">
        <ele>700</ele>
        <time>2022-05-27T12:44:23Z</time>
      </trkpt>
      <trkpt lat="44.39231" lon="3.55749">
        <ele>699</ele>
        <time>2022-05-27T12:44:24Z</time>
      </trkpt>
      <trkpt lat="44.3923" lon="3.55749">
        <ele>699</ele>
        <time>2022-05-27T12:44:25Z</time>
      </trkpt>
      <trkpt lat="44.39229" lon="3.55749">
        <ele>699</ele>
        <time>2022-05-27T12:44:26Z</time>
      </trkpt>
      <trkpt lat="44.39228" lon="3.55749">
        <ele>699</ele>
        <time>2022-05-27T12:44:27Z</time>
      </trkpt>
      <trkpt lat="44.39227" lon="3.55749">
        <ele>698</ele>
        <time>2022-05-27T12:44:29Z</time>
      </trkpt>
      <trkpt lat="44.39225" lon="3.55747">
        <ele>698</ele>
        <time>2022-05-27T12:44:30Z</time>
      </trkpt>
      <trkpt lat="44.39224" lon="3.55746">
        <ele>698</ele>
        <time>2022-05-27T12:44:31Z</time>
      </trkpt>
      <trkpt lat="44.39222" lon="3.55745">
        <ele>697</ele>
        <time>2022-05-27T12:44:32Z</time>
      </trkpt>
      <trkpt lat="44.39221" lon="3.55745">
        <ele>697</ele>
        <time>2022-05-27T12:44:33Z</time>
      </trkpt>
      <trkpt lat="44.39219" lon="3.55743">
        <ele>697</ele>
        <time>2022-05-27T12:44:34Z</time>
      </trkpt>
      <trkpt lat="44.39218" lon="3.55743">
        <ele>697</ele>
        <time>2022-05-27T12:44:35Z</time>
      </trkpt>
      <trkpt lat="44.39218" lon="3.55741">
        <ele>697</ele>
        <time>2022-05-27T12:44:36Z</time>
      </trkpt>
      <trkpt lat="44.39217" lon="3.5574">
        <ele>697</ele>
        <time>2022-05-27T12:44:37Z</time>
      </trkpt>
      <trkpt lat="44.39217" lon="3.55738">
        <ele>697</ele>
        <time>2022-05-27T12:44:38Z</time>
      </trkpt>
      <trkpt lat="44.39217" lon="3.55736">
        <ele>696</ele>
        <time>2022-05-27T12:44:39Z</time>
      </trkpt>
      <trkpt lat="44.39217" lon="3.55734">
        <ele>696</ele>
        <time>2022-05-27T12:44:40Z</time>
      </trkpt>
      <trkpt lat="44.39217" lon="3.55733">
        <ele>696</ele>
        <time>2022-05-27T12:44:41Z</time>
      </trkpt>
      <trkpt lat="44.39217" lon="3.55732">
        <ele>696</ele>
        <time>2022-05-27T12:44:42Z</time>
      </trkpt>
      <trkpt lat="44.39217" lon="3.5573">
        <ele>697</ele>
        <time>2022-05-27T12:44:43Z</time>
      </trkpt>
      <trkpt lat="44.39217" lon="3.55728">
        <ele>697</ele>
        <time>2022-05-27T12:44:44Z</time>
      </trkpt>
      <trkpt lat="44.39217" lon="3.55727">
        <ele>697</ele>
        <time>2022-05-27T12:44:45Z</time>
      </trkpt>
      <trkpt lat="44.39217" lon="3.55725">
        <ele>696</ele>
        <time>2022-05-27T12:44:46Z</time>
      </trkpt>
      <trkpt lat="44.39217" lon="3.55724">
        <ele>697</ele>
        <time>2022-05-27T12:44:47Z</time>
      </trkpt>
      <trkpt lat="44.39216" lon="3.55723">
        <ele>697</ele>
        <time>2022-05-27T12:44:48Z</time>
      </trkpt>
      <trkpt lat="44.39215" lon="3.55722">
        <ele>697</ele>
        <time>2022-05-27T12:44:49Z</time>
      </trkpt>
      <trkpt lat="44.39215" lon="3.5572">
        <ele>697</ele>
        <time>2022-05-27T12:44:50Z</time>
      </trkpt>
      <trkpt lat="44.39214" lon="3.5572">
        <ele>697</ele>
        <time>2022-05-27T12:44:51Z</time>
      </trkpt>
      <trkpt lat="44.39214" lon="3.55719">
        <ele>697</ele>
        <time>2022-05-27T12:44:52Z</time>
      </trkpt>
      <trkpt lat="44.39213" lon="3.55717">
        <ele>698</ele>
        <time>2022-05-27T12:44:53Z</time>
      </trkpt>
      <trkpt lat="44.39212" lon="3.55716">
        <ele>698</ele>
        <time>2022-05-27T12:44:54Z</time>
      </trkpt>
      <trkpt lat="44.39212" lon="3.55714">
        <ele>697</ele>
        <time>2022-05-27T12:44:55Z</time>
      </trkpt>
      <trkpt lat="44.39211" lon="3.55713">
        <ele>697</ele>
        <time>2022-05-27T12:44:56Z</time>
      </trkpt>
      <trkpt lat="44.39211" lon="3.55711">
        <ele>697</ele>
        <time>2022-05-27T12:44:57Z</time>
      </trkpt>
      <trkpt lat="44.3921" lon="3.5571">
        <ele>697</ele>
        <time>2022-05-27T12:44:58Z</time>
      </trkpt>
      <trkpt lat="44.3921" lon="3.55709">
        <ele>697</ele>
        <time>2022-05-27T12:44:59Z</time>
      </trkpt>
      <trkpt lat="44.39209" lon="3.55708">
        <ele>697</ele>
        <time>2022-05-27T12:45:00Z</time>
      </trkpt>
      <trkpt lat="44.39208" lon="3.55708">
        <ele>697</ele>
        <time>2022-05-27T12:45:01Z</time>
      </trkpt>
      <trkpt lat="44.39207" lon="3.55706">
        <ele>696</ele>
        <time>2022-05-27T12:45:02Z</time>
      </trkpt>
      <trkpt lat="44.39205" lon="3.55706">
        <ele>696</ele>
        <time>2022-05-27T12:45:03Z</time>
      </trkpt>
      <trkpt lat="44.39205" lon="3.55706">
        <ele>695</ele>
        <time>2022-05-27T12:45:04Z</time>
      </trkpt>
      <trkpt lat="44.39205" lon="3.55706">
        <ele>696</ele>
        <time>2022-05-27T12:45:05Z</time>
      </trkpt>
      <trkpt lat="44.39205" lon="3.55706">
        <ele>696</ele>
        <time>2022-05-27T12:45:06Z</time>
      </trkpt>
      <trkpt lat="44.39205" lon="3.55706">
        <ele>696</ele>
        <time>2022-05-27T12:45:06Z</time>
      </trkpt>
      <trkpt lat="44.39205" lon="3.55706">
        <ele>696</ele>
        <time>2022-05-27T12:45:06Z</time>
      </trkpt>
      <trkpt lat="44.39199" lon="3.55698">
        <ele>691</ele>
        <time>2022-05-27T12:46:33Z</time>
      </trkpt>
      <trkpt lat="44.39198" lon="3.55697">
        <ele>691</ele>
        <time>2022-05-27T12:46:34Z</time>
      </trkpt>
      <trkpt lat="44.39198" lon="3.55696">
        <ele>691</ele>
        <time>2022-05-27T12:46:35Z</time>
      </trkpt>
      <trkpt lat="44.39196" lon="3.55695">
        <ele>691</ele>
        <time>2022-05-27T12:46:36Z</time>
      </trkpt>
      <trkpt lat="44.39195" lon="3.55694">
        <ele>691</ele>
        <time>2022-05-27T12:46:37Z</time>
      </trkpt>
      <trkpt lat="44.39194" lon="3.55693">
        <ele>691</ele>
        <time>2022-05-27T12:46:38Z</time>
      </trkpt>
      <trkpt lat="44.39193" lon="3.55692">
        <ele>691</ele>
        <time>2022-05-27T12:46:39Z</time>
      </trkpt>
      <trkpt lat="44.39191" lon="3.55692">
        <ele>691</ele>
        <time>2022-05-27T12:46:40Z</time>
      </trkpt>
      <trkpt lat="44.3919" lon="3.5569">
        <ele>691</ele>
        <time>2022-05-27T12:46:41Z</time>
      </trkpt>
      <trkpt lat="44.39189" lon="3.55689">
        <ele>692</ele>
        <time>2022-05-27T12:46:42Z</time>
      </trkpt>
      <trkpt lat="44.39188" lon="3.55688">
        <ele>691</ele>
        <time>2022-05-27T12:46:43Z</time>
      </trkpt>
      <trkpt lat="44.39187" lon="3.55687">
        <ele>692</ele>
        <time>2022-05-27T12:46:44Z</time>
      </trkpt>
      <trkpt lat="44.39185" lon="3.55686">
        <ele>692</ele>
        <time>2022-05-27T12:46:45Z</time>
      </trkpt>
      <trkpt lat="44.39184" lon="3.55684">
        <ele>693</ele>
        <time>2022-05-27T12:46:46Z</time>
      </trkpt>
      <trkpt lat="44.39183" lon="3.55683">
        <ele>693</ele>
        <time>2022-05-27T12:46:47Z</time>
      </trkpt>
      <trkpt lat="44.39183" lon="3.55682">
        <ele>693</ele>
        <time>2022-05-27T12:46:48Z</time>
      </trkpt>
      <trkpt lat="44.39182" lon="3.55681">
        <ele>693</ele>
        <time>2022-05-27T12:46:49Z</time>
      </trkpt>
      <trkpt lat="44.3918" lon="3.55681">
        <ele>693</ele>
        <time>2022-05-27T12:46:50Z</time>
      </trkpt>
      <trkpt lat="44.39179" lon="3.5568">
        <ele>693</ele>
        <time>2022-05-27T12:46:51Z</time>
      </trkpt>
      <trkpt lat="44.39178" lon="3.5568">
        <ele>693</ele>
        <time>2022-05-27T12:46:52Z</time>
      </trkpt>
      <trkpt lat="44.39177" lon="3.55679">
        <ele>693</ele>
        <time>2022-05-27T12:46:53Z</time>
      </trkpt>
      <trkpt lat="44.39176" lon="3.55677">
        <ele>693</ele>
        <time>2022-05-27T12:46:54Z</time>
      </trkpt>
      <trkpt lat="44.39176" lon="3.55676">
        <ele>693</ele>
        <time>2022-05-27T12:46:55Z</time>
      </trkpt>
      <trkpt lat="44.39175" lon="3.55676">
        <ele>693</ele>
        <time>2022-05-27T12:46:56Z</time>
      </trkpt>
      <trkpt lat="44.39174" lon="3.55675">
        <ele>693</ele>
        <time>2022-05-27T12:46:57Z</time>
      </trkpt>
      <trkpt lat="44.39173" lon="3.55675">
        <ele>692</ele>
        <time>2022-05-27T12:46:58Z</time>
      </trkpt>
      <trkpt lat="44.39172" lon="3.55674">
        <ele>692</ele>
        <time>2022-05-27T12:46:59Z</time>
      </trkpt>
      <trkpt lat="44.3917" lon="3.55673">
        <ele>691</ele>
        <time>2022-05-27T12:47:00Z</time>
      </trkpt>
      <trkpt lat="44.39169" lon="3.55673">
        <ele>691</ele>
        <time>2022-05-27T12:47:01Z</time>
      </trkpt>
      <trkpt lat="44.39167" lon="3.55672">
        <ele>691</ele>
        <time>2022-05-27T12:47:02Z</time>
      </trkpt>
      <trkpt lat="44.39165" lon="3.55671">
        <ele>691</ele>
        <time>2022-05-27T12:47:03Z</time>
      </trkpt>
      <trkpt lat="44.39164" lon="3.55671">
        <ele>691</ele>
        <time>2022-05-27T12:47:04Z</time>
      </trkpt>
      <trkpt lat="44.39163" lon="3.5567">
        <ele>691</ele>
        <time>2022-05-27T12:47:05Z</time>
      </trkpt>
      <trkpt lat="44.39162" lon="3.55669">
        <ele>690</ele>
        <time>2022-05-27T12:47:06Z</time>
      </trkpt>
      <trkpt lat="44.39161" lon="3.5567">
        <ele>691</ele>
        <time>2022-05-27T12:47:07Z</time>
      </trkpt>
      <trkpt lat="44.3916" lon="3.55669">
        <ele>691</ele>
        <time>2022-05-27T12:47:08Z</time>
      </trkpt>
      <trkpt lat="44.39159" lon="3.55669">
        <ele>691</ele>
        <time>2022-05-27T12:47:09Z</time>
      </trkpt>
      <trkpt lat="44.39158" lon="3.55669">
        <ele>691</ele>
        <time>2022-05-27T12:47:10Z</time>
      </trkpt>
      <trkpt lat="44.39156" lon="3.55668">
        <ele>691</ele>
        <time>2022-05-27T12:47:11Z</time>
      </trkpt>
      <trkpt lat="44.39156" lon="3.55668">
        <ele>691</ele>
        <time>2022-05-27T12:47:12Z</time>
      </trkpt>
      <trkpt lat="44.39155" lon="3.55667">
        <ele>691</ele>
        <time>2022-05-27T12:47:13Z</time>
      </trkpt>
      <trkpt lat="44.39154" lon="3.55667">
        <ele>691</ele>
        <time>2022-05-27T12:47:14Z</time>
      </trkpt>
      <trkpt lat="44.39153" lon="3.55667">
        <ele>691</ele>
        <time>2022-05-27T12:47:15Z</time>
      </trkpt>
      <trkpt lat="44.39151" lon="3.55666">
        <ele>691</ele>
        <time>2022-05-27T12:47:16Z</time>
      </trkpt>
      <trkpt lat="44.3915" lon="3.55665">
        <ele>691</ele>
        <time>2022-05-27T12:47:17Z</time>
      </trkpt>
      <trkpt lat="44.39149" lon="3.55664">
        <ele>691</ele>
        <time>2022-05-27T12:47:18Z</time>
      </trkpt>
      <trkpt lat="44.39148" lon="3.55664">
        <ele>691</ele>
        <time>2022-05-27T12:47:19Z</time>
      </trkpt>
      <trkpt lat="44.39147" lon="3.55664">
        <ele>691</ele>
        <time>2022-05-27T12:47:20Z</time>
      </trkpt>
      <trkpt lat="44.39146" lon="3.55664">
        <ele>691</ele>
        <time>2022-05-27T12:47:21Z</time>
      </trkpt>
      <trkpt lat="44.39144" lon="3.55664">
        <ele>691</ele>
        <time>2022-05-27T12:47:22Z</time>
      </trkpt>
      <trkpt lat="44.39142" lon="3.55664">
        <ele>691</ele>
        <time>2022-05-27T12:47:23Z</time>
      </trkpt>
      <trkpt lat="44.3914" lon="3.55663">
        <ele>690</ele>
        <time>2022-05-27T12:47:24Z</time>
      </trkpt>
      <trkpt lat="44.39138" lon="3.55663">
        <ele>690</ele>
        <time>2022-05-27T12:47:25Z</time>
      </trkpt>
      <trkpt lat="44.39137" lon="3.55663">
        <ele>690</ele>
        <time>2022-05-27T12:47:26Z</time>
      </trkpt>
      <trkpt lat="44.39135" lon="3.55663">
        <ele>691</ele>
        <time>2022-05-27T12:47:27Z</time>
      </trkpt>
      <trkpt lat="44.39134" lon="3.55664">
        <ele>690</ele>
        <time>2022-05-27T12:47:28Z</time>
      </trkpt>
      <trkpt lat="44.39132" lon="3.55664">
        <ele>690</ele>
        <time>2022-05-27T12:47:29Z</time>
      </trkpt>
      <trkpt lat="44.39131" lon="3.55665">
        <ele>690</ele>
        <time>2022-05-27T12:47:30Z</time>
      </trkpt>
      <trkpt lat="44.3913" lon="3.55666">
        <ele>689</ele>
        <time>2022-05-27T12:47:31Z</time>
      </trkpt>
      <trkpt lat="44.39129" lon="3.55667">
        <ele>689</ele>
        <time>2022-05-27T12:47:32Z</time>
      </trkpt>
      <trkpt lat="44.39127" lon="3.55667">
        <ele>688</ele>
        <time>2022-05-27T12:47:33Z</time>
      </trkpt>
      <trkpt lat="44.39125" lon="3.55668">
        <ele>689</ele>
        <time>2022-05-27T12:47:34Z</time>
      </trkpt>
      <trkpt lat="44.39123" lon="3.55669">
        <ele>689</ele>
        <time>2022-05-27T12:47:35Z</time>
      </trkpt>
      <trkpt lat="44.39121" lon="3.5567">
        <ele>689</ele>
        <time>2022-05-27T12:47:36Z</time>
      </trkpt>
      <trkpt lat="44.3912" lon="3.5567">
        <ele>689</ele>
        <time>2022-05-27T12:47:37Z</time>
      </trkpt>
      <trkpt lat="44.39118" lon="3.5567">
        <ele>688</ele>
        <time>2022-05-27T12:47:38Z</time>
      </trkpt>
      <trkpt lat="44.39116" lon="3.55671">
        <ele>688</ele>
        <time>2022-05-27T12:47:39Z</time>
      </trkpt>
      <trkpt lat="44.39115" lon="3.55671">
        <ele>688</ele>
        <time>2022-05-27T12:47:40Z</time>
      </trkpt>
      <trkpt lat="44.39114" lon="3.55672">
        <ele>688</ele>
        <time>2022-05-27T12:47:41Z</time>
      </trkpt>
      <trkpt lat="44.39112" lon="3.55672">
        <ele>688</ele>
        <time>2022-05-27T12:47:42Z</time>
      </trkpt>
      <trkpt lat="44.39111" lon="3.55672">
        <ele>687</ele>
        <time>2022-05-27T12:47:43Z</time>
      </trkpt>
      <trkpt lat="44.39109" lon="3.55673">
        <ele>687</ele>
        <time>2022-05-27T12:47:44Z</time>
      </trkpt>
      <trkpt lat="44.39108" lon="3.55673">
        <ele>687</ele>
        <time>2022-05-27T12:47:45Z</time>
      </trkpt>
      <trkpt lat="44.39107" lon="3.55673">
        <ele>687</ele>
        <time>2022-05-27T12:47:46Z</time>
      </trkpt>
      <trkpt lat="44.39105" lon="3.55673">
        <ele>687</ele>
        <time>2022-05-27T12:47:47Z</time>
      </trkpt>
      <trkpt lat="44.39104" lon="3.55672">
        <ele>687</ele>
        <time>2022-05-27T12:47:48Z</time>
      </trkpt>
      <trkpt lat="44.39103" lon="3.55671">
        <ele>687</ele>
        <time>2022-05-27T12:47:49Z</time>
      </trkpt>
      <trkpt lat="44.39101" lon="3.5567">
        <ele>686</ele>
        <time>2022-05-27T12:47:50Z</time>
      </trkpt>
      <trkpt lat="44.391" lon="3.5567">
        <ele>686</ele>
        <time>2022-05-27T12:47:51Z</time>
      </trkpt>
      <trkpt lat="44.39098" lon="3.55669">
        <ele>686</ele>
        <time>2022-05-27T12:47:52Z</time>
      </trkpt>
      <trkpt lat="44.39098" lon="3.55669">
        <ele>686</ele>
        <time>2022-05-27T12:47:53Z</time>
      </trkpt>
      <trkpt lat="44.39097" lon="3.55669">
        <ele>686</ele>
        <time>2022-05-27T12:47:54Z</time>
      </trkpt>
      <trkpt lat="44.39095" lon="3.55668">
        <ele>686</ele>
        <time>2022-05-27T12:47:55Z</time>
      </trkpt>
      <trkpt lat="44.39095" lon="3.55667">
        <ele>685</ele>
        <time>2022-05-27T12:47:56Z</time>
      </trkpt>
      <trkpt lat="44.39094" lon="3.55666">
        <ele>685</ele>
        <time>2022-05-27T12:47:57Z</time>
      </trkpt>
      <trkpt lat="44.39093" lon="3.55665">
        <ele>685</ele>
        <time>2022-05-27T12:47:58Z</time>
      </trkpt>
      <trkpt lat="44.39092" lon="3.55665">
        <ele>685</ele>
        <time>2022-05-27T12:47:59Z</time>
      </trkpt>
      <trkpt lat="44.39091" lon="3.55664">
        <ele>684</ele>
        <time>2022-05-27T12:48:00Z</time>
      </trkpt>
      <trkpt lat="44.3909" lon="3.55664">
        <ele>683</ele>
        <time>2022-05-27T12:48:01Z</time>
      </trkpt>
      <trkpt lat="44.39089" lon="3.55664">
        <ele>683</ele>
        <time>2022-05-27T12:48:02Z</time>
      </trkpt>
      <trkpt lat="44.39088" lon="3.55663">
        <ele>684</ele>
        <time>2022-05-27T12:48:03Z</time>
      </trkpt>
      <trkpt lat="44.39087" lon="3.55663">
        <ele>684</ele>
        <time>2022-05-27T12:48:04Z</time>
      </trkpt>
      <trkpt lat="44.39086" lon="3.55662">
        <ele>683</ele>
        <time>2022-05-27T12:48:05Z</time>
      </trkpt>
      <trkpt lat="44.39085" lon="3.55661">
        <ele>682</ele>
        <time>2022-05-27T12:48:06Z</time>
      </trkpt>
      <trkpt lat="44.39083" lon="3.55661">
        <ele>682</ele>
        <time>2022-05-27T12:48:07Z</time>
      </trkpt>
      <trkpt lat="44.39082" lon="3.55661">
        <ele>682</ele>
        <time>2022-05-27T12:48:08Z</time>
      </trkpt>
      <trkpt lat="44.3908" lon="3.55661">
        <ele>681</ele>
        <time>2022-05-27T12:48:09Z</time>
      </trkpt>
      <trkpt lat="44.39079" lon="3.55661">
        <ele>682</ele>
        <time>2022-05-27T12:48:10Z</time>
      </trkpt>
      <trkpt lat="44.39078" lon="3.5566">
        <ele>681</ele>
        <time>2022-05-27T12:48:11Z</time>
      </trkpt>
      <trkpt lat="44.39077" lon="3.5566">
        <ele>681</ele>
        <time>2022-05-27T12:48:12Z</time>
      </trkpt>
      <trkpt lat="44.39076" lon="3.55659">
        <ele>681</ele>
        <time>2022-05-27T12:48:13Z</time>
      </trkpt>
      <trkpt lat="44.39075" lon="3.55658">
        <ele>681</ele>
        <time>2022-05-27T12:48:14Z</time>
      </trkpt>
      <trkpt lat="44.39074" lon="3.55657">
        <ele>681</ele>
        <time>2022-05-27T12:48:15Z</time>
      </trkpt>
      <trkpt lat="44.39072" lon="3.55657">
        <ele>681</ele>
        <time>2022-05-27T12:48:16Z</time>
      </trkpt>
      <trkpt lat="44.39071" lon="3.55655">
        <ele>681</ele>
        <time>2022-05-27T12:48:17Z</time>
      </trkpt>
      <trkpt lat="44.3907" lon="3.55654">
        <ele>681</ele>
        <time>2022-05-27T12:48:18Z</time>
      </trkpt>
      <trkpt lat="44.39069" lon="3.55653">
        <ele>682</ele>
        <time>2022-05-27T12:48:19Z</time>
      </trkpt>
      <trkpt lat="44.39068" lon="3.55652">
        <ele>681</ele>
        <time>2022-05-27T12:48:20Z</time>
      </trkpt>
      <trkpt lat="44.39066" lon="3.55652">
        <ele>681</ele>
        <time>2022-05-27T12:48:21Z</time>
      </trkpt>
      <trkpt lat="44.39065" lon="3.5565">
        <ele>682</ele>
        <time>2022-05-27T12:48:22Z</time>
      </trkpt>
      <trkpt lat="44.39063" lon="3.55649">
        <ele>681</ele>
        <time>2022-05-27T12:48:23Z</time>
      </trkpt>
      <trkpt lat="44.39061" lon="3.55648">
        <ele>681</ele>
        <time>2022-05-27T12:48:24Z</time>
      </trkpt>
      <trkpt lat="44.39059" lon="3.55647">
        <ele>681</ele>
        <time>2022-05-27T12:48:25Z</time>
      </trkpt>
      <trkpt lat="44.39058" lon="3.55646">
        <ele>681</ele>
        <time>2022-05-27T12:48:26Z</time>
      </trkpt>
      <trkpt lat="44.39057" lon="3.55645">
        <ele>681</ele>
        <time>2022-05-27T12:48:27Z</time>
      </trkpt>
      <trkpt lat="44.39055" lon="3.55644">
        <ele>681</ele>
        <time>2022-05-27T12:48:28Z</time>
      </trkpt>
      <trkpt lat="44.39054" lon="3.55644">
        <ele>681</ele>
        <time>2022-05-27T12:48:29Z</time>
      </trkpt>
      <trkpt lat="44.39052" lon="3.55643">
        <ele>681</ele>
        <time>2022-05-27T12:48:30Z</time>
      </trkpt>
      <trkpt lat="44.39051" lon="3.55642">
        <ele>681</ele>
        <time>2022-05-27T12:48:31Z</time>
      </trkpt>
      <trkpt lat="44.3905" lon="3.55642">
        <ele>681</ele>
        <time>2022-05-27T12:48:32Z</time>
      </trkpt>
      <trkpt lat="44.39048" lon="3.55641">
        <ele>682</ele>
        <time>2022-05-27T12:48:33Z</time>
      </trkpt>
      <trkpt lat="44.39047" lon="3.5564">
        <ele>682</ele>
        <time>2022-05-27T12:48:34Z</time>
      </trkpt>
      <trkpt lat="44.39046" lon="3.55639">
        <ele>681</ele>
        <time>2022-05-27T12:48:35Z</time>
      </trkpt>
      <trkpt lat="44.39045" lon="3.55639">
        <ele>682</ele>
        <time>2022-05-27T12:48:36Z</time>
      </trkpt>
      <trkpt lat="44.39044" lon="3.55639">
        <ele>682</ele>
        <time>2022-05-27T12:48:37Z</time>
      </trkpt>
      <trkpt lat="44.39043" lon="3.55639">
        <ele>682</ele>
        <time>2022-05-27T12:48:38Z</time>
      </trkpt>
      <trkpt lat="44.39042" lon="3.55638">
        <ele>682</ele>
        <time>2022-05-27T12:48:39Z</time>
      </trkpt>
      <trkpt lat="44.39041" lon="3.55637">
        <ele>681</ele>
        <time>2022-05-27T12:48:40Z</time>
      </trkpt>
      <trkpt lat="44.3904" lon="3.55637">
        <ele>681</ele>
        <time>2022-05-27T12:48:41Z</time>
      </trkpt>
      <trkpt lat="44.39038" lon="3.55637">
        <ele>681</ele>
        <time>2022-05-27T12:48:42Z</time>
      </trkpt>
      <trkpt lat="44.39037" lon="3.55637">
        <ele>681</ele>
        <time>2022-05-27T12:48:43Z</time>
      </trkpt>
      <trkpt lat="44.39035" lon="3.55637">
        <ele>680</ele>
        <time>2022-05-27T12:48:44Z</time>
      </trkpt>
      <trkpt lat="44.39033" lon="3.55637">
        <ele>680</ele>
        <time>2022-05-27T12:48:45Z</time>
      </trkpt>
      <trkpt lat="44.39032" lon="3.55637">
        <ele>680</ele>
        <time>2022-05-27T12:48:46Z</time>
      </trkpt>
      <trkpt lat="44.39031" lon="3.55638">
        <ele>680</ele>
        <time>2022-05-27T12:48:47Z</time>
      </trkpt>
      <trkpt lat="44.3903" lon="3.55638">
        <ele>680</ele>
        <time>2022-05-27T12:48:48Z</time>
      </trkpt>
      <trkpt lat="44.39029" lon="3.55637">
        <ele>679</ele>
        <time>2022-05-27T12:48:49Z</time>
      </trkpt>
      <trkpt lat="44.39027" lon="3.55637">
        <ele>679</ele>
        <time>2022-05-27T12:48:50Z</time>
      </trkpt>
      <trkpt lat="44.39026" lon="3.55637">
        <ele>679</ele>
        <time>2022-05-27T12:48:51Z</time>
      </trkpt>
      <trkpt lat="44.39025" lon="3.55637">
        <ele>678</ele>
        <time>2022-05-27T12:48:52Z</time>
      </trkpt>
      <trkpt lat="44.39024" lon="3.55638">
        <ele>678</ele>
        <time>2022-05-27T12:48:53Z</time>
      </trkpt>
      <trkpt lat="44.39022" lon="3.55638">
        <ele>677</ele>
        <time>2022-05-27T12:48:54Z</time>
      </trkpt>
      <trkpt lat="44.3902" lon="3.55638">
        <ele>677</ele>
        <time>2022-05-27T12:48:55Z</time>
      </trkpt>
      <trkpt lat="44.39018" lon="3.55638">
        <ele>677</ele>
        <time>2022-05-27T12:48:56Z</time>
      </trkpt>
      <trkpt lat="44.39017" lon="3.55638">
        <ele>678</ele>
        <time>2022-05-27T12:48:57Z</time>
      </trkpt>
      <trkpt lat="44.39016" lon="3.55638">
        <ele>678</ele>
        <time>2022-05-27T12:48:58Z</time>
      </trkpt>
      <trkpt lat="44.39014" lon="3.55638">
        <ele>677</ele>
        <time>2022-05-27T12:48:59Z</time>
      </trkpt>
      <trkpt lat="44.39013" lon="3.55637">
        <ele>677</ele>
        <time>2022-05-27T12:49:00Z</time>
      </trkpt>
      <trkpt lat="44.39011" lon="3.55637">
        <ele>677</ele>
        <time>2022-05-27T12:49:01Z</time>
      </trkpt>
      <trkpt lat="44.39011" lon="3.55637">
        <ele>677</ele>
        <time>2022-05-27T12:49:02Z</time>
      </trkpt>
      <trkpt lat="44.39009" lon="3.55636">
        <ele>677</ele>
        <time>2022-05-27T12:49:03Z</time>
      </trkpt>
      <trkpt lat="44.39007" lon="3.55636">
        <ele>677</ele>
        <time>2022-05-27T12:49:04Z</time>
      </trkpt>
      <trkpt lat="44.39006" lon="3.55635">
        <ele>676</ele>
        <time>2022-05-27T12:49:05Z</time>
      </trkpt>
      <trkpt lat="44.39005" lon="3.55635">
        <ele>676</ele>
        <time>2022-05-27T12:49:06Z</time>
      </trkpt>
      <trkpt lat="44.39004" lon="3.55635">
        <ele>675</ele>
        <time>2022-05-27T12:49:07Z</time>
      </trkpt>
      <trkpt lat="44.39003" lon="3.55635">
        <ele>675</ele>
        <time>2022-05-27T12:49:08Z</time>
      </trkpt>
      <trkpt lat="44.39002" lon="3.55635">
        <ele>675</ele>
        <time>2022-05-27T12:49:09Z</time>
      </trkpt>
      <trkpt lat="44.39" lon="3.55635">
        <ele>675</ele>
        <time>2022-05-27T12:49:10Z</time>
      </trkpt>
      <trkpt lat="44.38999" lon="3.55634">
        <ele>675</ele>
        <time>2022-05-27T12:49:11Z</time>
      </trkpt>
      <trkpt lat="44.38998" lon="3.55635">
        <ele>675</ele>
        <time>2022-05-27T12:49:12Z</time>
      </trkpt>
      <trkpt lat="44.38997" lon="3.55635">
        <ele>674</ele>
        <time>2022-05-27T12:49:13Z</time>
      </trkpt>
      <trkpt lat="44.38996" lon="3.55634">
        <ele>674</ele>
        <time>2022-05-27T12:49:14Z</time>
      </trkpt>
      <trkpt lat="44.38995" lon="3.55633">
        <ele>674</ele>
        <time>2022-05-27T12:49:15Z</time>
      </trkpt>
      <trkpt lat="44.38994" lon="3.55633">
        <ele>674</ele>
        <time>2022-05-27T12:49:16Z</time>
      </trkpt>
      <trkpt lat="44.38992" lon="3.55633">
        <ele>673</ele>
        <time>2022-05-27T12:49:17Z</time>
      </trkpt>
      <trkpt lat="44.3899" lon="3.55633">
        <ele>673</ele>
        <time>2022-05-27T12:49:18Z</time>
      </trkpt>
      <trkpt lat="44.38989" lon="3.55633">
        <ele>672</ele>
        <time>2022-05-27T12:49:19Z</time>
      </trkpt>
      <trkpt lat="44.38987" lon="3.55633">
        <ele>672</ele>
        <time>2022-05-27T12:49:20Z</time>
      </trkpt>
      <trkpt lat="44.38985" lon="3.55632">
        <ele>672</ele>
        <time>2022-05-27T12:49:21Z</time>
      </trkpt>
      <trkpt lat="44.38984" lon="3.55632">
        <ele>671</ele>
        <time>2022-05-27T12:49:22Z</time>
      </trkpt>
      <trkpt lat="44.38982" lon="3.55632">
        <ele>671</ele>
        <time>2022-05-27T12:49:23Z</time>
      </trkpt>
      <trkpt lat="44.38981" lon="3.55632">
        <ele>671</ele>
        <time>2022-05-27T12:49:24Z</time>
      </trkpt>
      <trkpt lat="44.3898" lon="3.55631">
        <ele>670</ele>
        <time>2022-05-27T12:49:25Z</time>
      </trkpt>
      <trkpt lat="44.38978" lon="3.55631">
        <ele>670</ele>
        <time>2022-05-27T12:49:26Z</time>
      </trkpt>
      <trkpt lat="44.38977" lon="3.55631">
        <ele>670</ele>
        <time>2022-05-27T12:49:27Z</time>
      </trkpt>
      <trkpt lat="44.38975" lon="3.5563">
        <ele>670</ele>
        <time>2022-05-27T12:49:28Z</time>
      </trkpt>
      <trkpt lat="44.38974" lon="3.5563">
        <ele>669</ele>
        <time>2022-05-27T12:49:29Z</time>
      </trkpt>
      <trkpt lat="44.38972" lon="3.55631">
        <ele>669</ele>
        <time>2022-05-27T12:49:30Z</time>
      </trkpt>
      <trkpt lat="44.3897" lon="3.55631">
        <ele>669</ele>
        <time>2022-05-27T12:49:31Z</time>
      </trkpt>
      <trkpt lat="44.38969" lon="3.55631">
        <ele>669</ele>
        <time>2022-05-27T12:49:32Z</time>
      </trkpt>
      <trkpt lat="44.38968" lon="3.55631">
        <ele>669</ele>
        <time>2022-05-27T12:49:33Z</time>
      </trkpt>
      <trkpt lat="44.38967" lon="3.55631">
        <ele>669</ele>
        <time>2022-05-27T12:49:34Z</time>
      </trkpt>
      <trkpt lat="44.38965" lon="3.55632">
        <ele>669</ele>
        <time>2022-05-27T12:49:35Z</time>
      </trkpt>
      <trkpt lat="44.38964" lon="3.55632">
        <ele>669</ele>
        <time>2022-05-27T12:49:36Z</time>
      </trkpt>
      <trkpt lat="44.38963" lon="3.55633">
        <ele>669</ele>
        <time>2022-05-27T12:49:37Z</time>
      </trkpt>
      <trkpt lat="44.38961" lon="3.55633">
        <ele>669</ele>
        <time>2022-05-27T12:49:38Z</time>
      </trkpt>
      <trkpt lat="44.3896" lon="3.55633">
        <ele>668</ele>
        <time>2022-05-27T12:49:39Z</time>
      </trkpt>
      <trkpt lat="44.38959" lon="3.55633">
        <ele>669</ele>
        <time>2022-05-27T12:49:40Z</time>
      </trkpt>
      <trkpt lat="44.38958" lon="3.55633">
        <ele>668</ele>
        <time>2022-05-27T12:49:41Z</time>
      </trkpt>
      <trkpt lat="44.38957" lon="3.55633">
        <ele>668</ele>
        <time>2022-05-27T12:49:42Z</time>
      </trkpt>
      <trkpt lat="44.38956" lon="3.55633">
        <ele>668</ele>
        <time>2022-05-27T12:49:43Z</time>
      </trkpt>
      <trkpt lat="44.38954" lon="3.55634">
        <ele>667</ele>
        <time>2022-05-27T12:49:44Z</time>
      </trkpt>
      <trkpt lat="44.38953" lon="3.55634">
        <ele>667</ele>
        <time>2022-05-27T12:49:45Z</time>
      </trkpt>
      <trkpt lat="44.38951" lon="3.55633">
        <ele>667</ele>
        <time>2022-05-27T12:49:46Z</time>
      </trkpt>
      <trkpt lat="44.38949" lon="3.55632">
        <ele>666</ele>
        <time>2022-05-27T12:49:47Z</time>
      </trkpt>
      <trkpt lat="44.38947" lon="3.55632">
        <ele>666</ele>
        <time>2022-05-27T12:49:48Z</time>
      </trkpt>
      <trkpt lat="44.38946" lon="3.55631">
        <ele>665</ele>
        <time>2022-05-27T12:49:49Z</time>
      </trkpt>
      <trkpt lat="44.38944" lon="3.55631">
        <ele>665</ele>
        <time>2022-05-27T12:49:50Z</time>
      </trkpt>
      <trkpt lat="44.38942" lon="3.55631">
        <ele>665</ele>
        <time>2022-05-27T12:49:51Z</time>
      </trkpt>
      <trkpt lat="44.38941" lon="3.5563">
        <ele>664</ele>
        <time>2022-05-27T12:49:52Z</time>
      </trkpt>
      <trkpt lat="44.38939" lon="3.55629">
        <ele>663</ele>
        <time>2022-05-27T12:49:53Z</time>
      </trkpt>
      <trkpt lat="44.38938" lon="3.55629">
        <ele>663</ele>
        <time>2022-05-27T12:49:54Z</time>
      </trkpt>
      <trkpt lat="44.38936" lon="3.55628">
        <ele>663</ele>
        <time>2022-05-27T12:49:55Z</time>
      </trkpt>
      <trkpt lat="44.38935" lon="3.55628">
        <ele>663</ele>
        <time>2022-05-27T12:49:56Z</time>
      </trkpt>
      <trkpt lat="44.38933" lon="3.55627">
        <ele>663</ele>
        <time>2022-05-27T12:49:57Z</time>
      </trkpt>
      <trkpt lat="44.38932" lon="3.55627">
        <ele>663</ele>
        <time>2022-05-27T12:49:58Z</time>
      </trkpt>
      <trkpt lat="44.38931" lon="3.55626">
        <ele>663</ele>
        <time>2022-05-27T12:49:59Z</time>
      </trkpt>
      <trkpt lat="44.3893" lon="3.55625">
        <ele>662</ele>
        <time>2022-05-27T12:50:00Z</time>
      </trkpt>
      <trkpt lat="44.38929" lon="3.55625">
        <ele>662</ele>
        <time>2022-05-27T12:50:01Z</time>
      </trkpt>
      <trkpt lat="44.38928" lon="3.55624">
        <ele>662</ele>
        <time>2022-05-27T12:50:02Z</time>
      </trkpt>
      <trkpt lat="44.38927" lon="3.55623">
        <ele>661</ele>
        <time>2022-05-27T12:50:03Z</time>
      </trkpt>
      <trkpt lat="44.38925" lon="3.55623">
        <ele>660</ele>
        <time>2022-05-27T12:50:04Z</time>
      </trkpt>
      <trkpt lat="44.38924" lon="3.55625">
        <ele>660</ele>
        <time>2022-05-27T12:50:05Z</time>
      </trkpt>
      <trkpt lat="44.38923" lon="3.55626">
        <ele>660</ele>
        <time>2022-05-27T12:50:06Z</time>
      </trkpt>
      <trkpt lat="44.38922" lon="3.55627">
        <ele>660</ele>
        <time>2022-05-27T12:50:07Z</time>
      </trkpt>
      <trkpt lat="44.38922" lon="3.55629">
        <ele>659</ele>
        <time>2022-05-27T12:50:08Z</time>
      </trkpt>
      <trkpt lat="44.38923" lon="3.5563">
        <ele>659</ele>
        <time>2022-05-27T12:50:09Z</time>
      </trkpt>
      <trkpt lat="44.38923" lon="3.55632">
        <ele>659</ele>
        <time>2022-05-27T12:50:10Z</time>
      </trkpt>
      <trkpt lat="44.38923" lon="3.55634">
        <ele>659</ele>
        <time>2022-05-27T12:50:11Z</time>
      </trkpt>
      <trkpt lat="44.38924" lon="3.55635">
        <ele>659</ele>
        <time>2022-05-27T12:50:12Z</time>
      </trkpt>
      <trkpt lat="44.38926" lon="3.55637">
        <ele>659</ele>
        <time>2022-05-27T12:50:13Z</time>
      </trkpt>
      <trkpt lat="44.38927" lon="3.55638">
        <ele>659</ele>
        <time>2022-05-27T12:50:14Z</time>
      </trkpt>
      <trkpt lat="44.38928" lon="3.55639">
        <ele>659</ele>
        <time>2022-05-27T12:50:15Z</time>
      </trkpt>
      <trkpt lat="44.38929" lon="3.5564">
        <ele>658</ele>
        <time>2022-05-27T12:50:16Z</time>
      </trkpt>
      <trkpt lat="44.38931" lon="3.55641">
        <ele>658</ele>
        <time>2022-05-27T12:50:17Z</time>
      </trkpt>
      <trkpt lat="44.38932" lon="3.55642">
        <ele>657</ele>
        <time>2022-05-27T12:50:18Z</time>
      </trkpt>
      <trkpt lat="44.38934" lon="3.55643">
        <ele>657</ele>
        <time>2022-05-27T12:50:19Z</time>
      </trkpt>
      <trkpt lat="44.38935" lon="3.55643">
        <ele>657</ele>
        <time>2022-05-27T12:50:20Z</time>
      </trkpt>
      <trkpt lat="44.38937" lon="3.55643">
        <ele>657</ele>
        <time>2022-05-27T12:50:21Z</time>
      </trkpt>
      <trkpt lat="44.38938" lon="3.55644">
        <ele>657</ele>
        <time>2022-05-27T12:50:22Z</time>
      </trkpt>
      <trkpt lat="44.38939" lon="3.55645">
        <ele>657</ele>
        <time>2022-05-27T12:50:23Z</time>
      </trkpt>
      <trkpt lat="44.3894" lon="3.55646">
        <ele>657</ele>
        <time>2022-05-27T12:50:24Z</time>
      </trkpt>
      <trkpt lat="44.38941" lon="3.55646">
        <ele>657</ele>
        <time>2022-05-27T12:50:25Z</time>
      </trkpt>
      <trkpt lat="44.38943" lon="3.55647">
        <ele>657</ele>
        <time>2022-05-27T12:50:26Z</time>
      </trkpt>
      <trkpt lat="44.38944" lon="3.55647">
        <ele>656</ele>
        <time>2022-05-27T12:50:27Z</time>
      </trkpt>
      <trkpt lat="44.38945" lon="3.55647">
        <ele>656</ele>
        <time>2022-05-27T12:50:28Z</time>
      </trkpt>
      <trkpt lat="44.38947" lon="3.55648">
        <ele>656</ele>
        <time>2022-05-27T12:50:29Z</time>
      </trkpt>
      <trkpt lat="44.38948" lon="3.55648">
        <ele>656</ele>
        <time>2022-05-27T12:50:30Z</time>
      </trkpt>
      <trkpt lat="44.3895" lon="3.55648">
        <ele>656</ele>
        <time>2022-05-27T12:50:31Z</time>
      </trkpt>
      <trkpt lat="44.38951" lon="3.55648">
        <ele>657</ele>
        <time>2022-05-27T12:50:32Z</time>
      </trkpt>
      <trkpt lat="44.38952" lon="3.55648">
        <ele>657</ele>
        <time>2022-05-27T12:50:33Z</time>
      </trkpt>
      <trkpt lat="44.38954" lon="3.55649">
        <ele>657</ele>
        <time>2022-05-27T12:50:34Z</time>
      </trkpt>
      <trkpt lat="44.38955" lon="3.55649">
        <ele>657</ele>
        <time>2022-05-27T12:50:35Z</time>
      </trkpt>
      <trkpt lat="44.38957" lon="3.55649">
        <ele>657</ele>
        <time>2022-05-27T12:50:36Z</time>
      </trkpt>
      <trkpt lat="44.38958" lon="3.5565">
        <ele>657</ele>
        <time>2022-05-27T12:50:37Z</time>
      </trkpt>
      <trkpt lat="44.3896" lon="3.55651">
        <ele>657</ele>
        <time>2022-05-27T12:50:38Z</time>
      </trkpt>
      <trkpt lat="44.38962" lon="3.55651">
        <ele>656</ele>
        <time>2022-05-27T12:50:39Z</time>
      </trkpt>
      <trkpt lat="44.38963" lon="3.55651">
        <ele>656</ele>
        <time>2022-05-27T12:50:40Z</time>
      </trkpt>
      <trkpt lat="44.38964" lon="3.55652">
        <ele>655</ele>
        <time>2022-05-27T12:50:41Z</time>
      </trkpt>
      <trkpt lat="44.38966" lon="3.55652">
        <ele>656</ele>
        <time>2022-05-27T12:50:42Z</time>
      </trkpt>
      <trkpt lat="44.38967" lon="3.55653">
        <ele>656</ele>
        <time>2022-05-27T12:50:43Z</time>
      </trkpt>
      <trkpt lat="44.38968" lon="3.55653">
        <ele>655</ele>
        <time>2022-05-27T12:50:44Z</time>
      </trkpt>
      <trkpt lat="44.3897" lon="3.55653">
        <ele>655</ele>
        <time>2022-05-27T12:50:45Z</time>
      </trkpt>
      <trkpt lat="44.38971" lon="3.55653">
        <ele>655</ele>
        <time>2022-05-27T12:50:46Z</time>
      </trkpt>
      <trkpt lat="44.38972" lon="3.55654">
        <ele>654</ele>
        <time>2022-05-27T12:50:47Z</time>
      </trkpt>
      <trkpt lat="44.38973" lon="3.55654">
        <ele>654</ele>
        <time>2022-05-27T12:50:48Z</time>
      </trkpt>
      <trkpt lat="44.38975" lon="3.55655">
        <ele>653</ele>
        <time>2022-05-27T12:50:49Z</time>
      </trkpt>
      <trkpt lat="44.38976" lon="3.55655">
        <ele>653</ele>
        <time>2022-05-27T12:50:50Z</time>
      </trkpt>
      <trkpt lat="44.38977" lon="3.55655">
        <ele>652</ele>
        <time>2022-05-27T12:50:51Z</time>
      </trkpt>
      <trkpt lat="44.38979" lon="3.55655">
        <ele>652</ele>
        <time>2022-05-27T12:50:52Z</time>
      </trkpt>
      <trkpt lat="44.3898" lon="3.55656">
        <ele>652</ele>
        <time>2022-05-27T12:50:53Z</time>
      </trkpt>
      <trkpt lat="44.38982" lon="3.55656">
        <ele>652</ele>
        <time>2022-05-27T12:50:54Z</time>
      </trkpt>
      <trkpt lat="44.38983" lon="3.55656">
        <ele>651</ele>
        <time>2022-05-27T12:50:55Z</time>
      </trkpt>
      <trkpt lat="44.38984" lon="3.55656">
        <ele>651</ele>
        <time>2022-05-27T12:50:56Z</time>
      </trkpt>
      <trkpt lat="44.38986" lon="3.55657">
        <ele>651</ele>
        <time>2022-05-27T12:50:57Z</time>
      </trkpt>
      <trkpt lat="44.38987" lon="3.55657">
        <ele>651</ele>
        <time>2022-05-27T12:50:58Z</time>
      </trkpt>
      <trkpt lat="44.38989" lon="3.55658">
        <ele>651</ele>
        <time>2022-05-27T12:50:59Z</time>
      </trkpt>
      <trkpt lat="44.3899" lon="3.55658">
        <ele>651</ele>
        <time>2022-05-27T12:51:00Z</time>
      </trkpt>
      <trkpt lat="44.38991" lon="3.55658">
        <ele>650</ele>
        <time>2022-05-27T12:51:01Z</time>
      </trkpt>
      <trkpt lat="44.38992" lon="3.55658">
        <ele>650</ele>
        <time>2022-05-27T12:51:02Z</time>
      </trkpt>
      <trkpt lat="44.38994" lon="3.55659">
        <ele>649</ele>
        <time>2022-05-27T12:51:03Z</time>
      </trkpt>
      <trkpt lat="44.38995" lon="3.55659">
        <ele>649</ele>
        <time>2022-05-27T12:51:04Z</time>
      </trkpt>
      <trkpt lat="44.38996" lon="3.5566">
        <ele>649</ele>
        <time>2022-05-27T12:51:05Z</time>
      </trkpt>
      <trkpt lat="44.38997" lon="3.55661">
        <ele>649</ele>
        <time>2022-05-27T12:51:06Z</time>
      </trkpt>
      <trkpt lat="44.38998" lon="3.55661">
        <ele>649</ele>
        <time>2022-05-27T12:51:07Z</time>
      </trkpt>
      <trkpt lat="44.38999" lon="3.55662">
        <ele>648</ele>
        <time>2022-05-27T12:51:08Z</time>
      </trkpt>
      <trkpt lat="44.39" lon="3.55662">
        <ele>648</ele>
        <time>2022-05-27T12:51:09Z</time>
      </trkpt>
      <trkpt lat="44.39001" lon="3.55663">
        <ele>647</ele>
        <time>2022-05-27T12:51:10Z</time>
      </trkpt>
      <trkpt lat="44.39002" lon="3.55665">
        <ele>647</ele>
        <time>2022-05-27T12:51:11Z</time>
      </trkpt>
      <trkpt lat="44.39003" lon="3.55666">
        <ele>647</ele>
        <time>2022-05-27T12:51:12Z</time>
      </trkpt>
      <trkpt lat="44.39004" lon="3.55667">
        <ele>647</ele>
        <time>2022-05-27T12:51:13Z</time>
      </trkpt>
      <trkpt lat="44.39005" lon="3.55667">
        <ele>647</ele>
        <time>2022-05-27T12:51:14Z</time>
      </trkpt>
      <trkpt lat="44.39007" lon="3.55668">
        <ele>647</ele>
        <time>2022-05-27T12:51:15Z</time>
      </trkpt>
      <trkpt lat="44.39008" lon="3.55668">
        <ele>646</ele>
        <time>2022-05-27T12:51:16Z</time>
      </trkpt>
      <trkpt lat="44.3901" lon="3.55668">
        <ele>646</ele>
        <time>2022-05-27T12:51:17Z</time>
      </trkpt>
      <trkpt lat="44.39011" lon="3.55668">
        <ele>646</ele>
        <time>2022-05-27T12:51:18Z</time>
      </trkpt>
      <trkpt lat="44.39013" lon="3.55669">
        <ele>646</ele>
        <time>2022-05-27T12:51:19Z</time>
      </trkpt>
      <trkpt lat="44.39014" lon="3.55669">
        <ele>646</ele>
        <time>2022-05-27T12:51:20Z</time>
      </trkpt>
      <trkpt lat="44.39015" lon="3.55669">
        <ele>645</ele>
        <time>2022-05-27T12:51:21Z</time>
      </trkpt>
      <trkpt lat="44.39016" lon="3.55669">
        <ele>645</ele>
        <time>2022-05-27T12:51:22Z</time>
      </trkpt>
      <trkpt lat="44.39018" lon="3.5567">
        <ele>645</ele>
        <time>2022-05-27T12:51:23Z</time>
      </trkpt>
      <trkpt lat="44.39018" lon="3.5567">
        <ele>645</ele>
        <time>2022-05-27T12:51:24Z</time>
      </trkpt>
      <trkpt lat="44.39019" lon="3.55671">
        <ele>645</ele>
        <time>2022-05-27T12:51:25Z</time>
      </trkpt>
      <trkpt lat="44.39019" lon="3.55671">
        <ele>645</ele>
        <time>2022-05-27T12:51:26Z</time>
      </trkpt>
      <trkpt lat="44.39019" lon="3.55671">
        <ele>645</ele>
        <time>2022-05-27T12:51:27Z</time>
      </trkpt>
      <trkpt lat="44.39019" lon="3.55672">
        <ele>645</ele>
        <time>2022-05-27T12:51:28Z</time>
      </trkpt>
      <trkpt lat="44.39018" lon="3.55671">
        <ele>645</ele>
        <time>2022-05-27T12:51:29Z</time>
      </trkpt>
      <trkpt lat="44.39018" lon="3.55671">
        <ele>645</ele>
        <time>2022-05-27T12:51:30Z</time>
      </trkpt>
      <trkpt lat="44.39018" lon="3.5567">
        <ele>645</ele>
        <time>2022-05-27T12:51:31Z</time>
      </trkpt>
      <trkpt lat="44.39017" lon="3.55669">
        <ele>645</ele>
        <time>2022-05-27T12:51:32Z</time>
      </trkpt>
      <trkpt lat="44.39016" lon="3.55668">
        <ele>645</ele>
        <time>2022-05-27T12:51:33Z</time>
      </trkpt>
      <trkpt lat="44.39016" lon="3.55668">
        <ele>645</ele>
        <time>2022-05-27T12:51:34Z</time>
      </trkpt>
      <trkpt lat="44.39015" lon="3.55667">
        <ele>645</ele>
        <time>2022-05-27T12:51:35Z</time>
      </trkpt>
      <trkpt lat="44.39013" lon="3.55667">
        <ele>645</ele>
        <time>2022-05-27T12:51:36Z</time>
      </trkpt>
      <trkpt lat="44.39012" lon="3.55667">
        <ele>645</ele>
        <time>2022-05-27T12:51:37Z</time>
      </trkpt>
      <trkpt lat="44.39011" lon="3.55666">
        <ele>645</ele>
        <time>2022-05-27T12:51:38Z</time>
      </trkpt>
      <trkpt lat="44.3901" lon="3.55666">
        <ele>646</ele>
        <time>2022-05-27T12:51:39Z</time>
      </trkpt>
      <trkpt lat="44.39009" lon="3.55665">
        <ele>645</ele>
        <time>2022-05-27T12:51:40Z</time>
      </trkpt>
      <trkpt lat="44.39008" lon="3.55665">
        <ele>645</ele>
        <time>2022-05-27T12:51:41Z</time>
      </trkpt>
      <trkpt lat="44.39006" lon="3.55665">
        <ele>644</ele>
        <time>2022-05-27T12:51:42Z</time>
      </trkpt>
      <trkpt lat="44.39005" lon="3.55665">
        <ele>644</ele>
        <time>2022-05-27T12:51:43Z</time>
      </trkpt>
      <trkpt lat="44.39003" lon="3.55664">
        <ele>644</ele>
        <time>2022-05-27T12:51:44Z</time>
      </trkpt>
      <trkpt lat="44.39002" lon="3.55664">
        <ele>644</ele>
        <time>2022-05-27T12:51:45Z</time>
      </trkpt>
      <trkpt lat="44.39001" lon="3.55664">
        <ele>644</ele>
        <time>2022-05-27T12:51:46Z</time>
      </trkpt>
      <trkpt lat="44.39" lon="3.55663">
        <ele>644</ele>
        <time>2022-05-27T12:51:47Z</time>
      </trkpt>
      <trkpt lat="44.38999" lon="3.55664">
        <ele>645</ele>
        <time>2022-05-27T12:51:48Z</time>
      </trkpt>
      <trkpt lat="44.38997" lon="3.55664">
        <ele>645</ele>
        <time>2022-05-27T12:51:49Z</time>
      </trkpt>
      <trkpt lat="44.38996" lon="3.55665">
        <ele>645</ele>
        <time>2022-05-27T12:51:50Z</time>
      </trkpt>
      <trkpt lat="44.38994" lon="3.55665">
        <ele>646</ele>
        <time>2022-05-27T12:51:51Z</time>
      </trkpt>
      <trkpt lat="44.38992" lon="3.55666">
        <ele>646</ele>
        <time>2022-05-27T12:51:52Z</time>
      </trkpt>
      <trkpt lat="44.38991" lon="3.55666">
        <ele>645</ele>
        <time>2022-05-27T12:51:53Z</time>
      </trkpt>
      <trkpt lat="44.38989" lon="3.55666">
        <ele>646</ele>
        <time>2022-05-27T12:51:54Z</time>
      </trkpt>
      <trkpt lat="44.38988" lon="3.55665">
        <ele>646</ele>
        <time>2022-05-27T12:51:55Z</time>
      </trkpt>
      <trkpt lat="44.38987" lon="3.55665">
        <ele>646</ele>
        <time>2022-05-27T12:51:56Z</time>
      </trkpt>
      <trkpt lat="44.38986" lon="3.55665">
        <ele>646</ele>
        <time>2022-05-27T12:51:57Z</time>
      </trkpt>
      <trkpt lat="44.38985" lon="3.55665">
        <ele>645</ele>
        <time>2022-05-27T12:51:58Z</time>
      </trkpt>
      <trkpt lat="44.38983" lon="3.55666">
        <ele>645</ele>
        <time>2022-05-27T12:51:59Z</time>
      </trkpt>
      <trkpt lat="44.38982" lon="3.55666">
        <ele>645</ele>
        <time>2022-05-27T12:52:00Z</time>
      </trkpt>
      <trkpt lat="44.3898" lon="3.55667">
        <ele>645</ele>
        <time>2022-05-27T12:52:01Z</time>
      </trkpt>
      <trkpt lat="44.38979" lon="3.55667">
        <ele>645</ele>
        <time>2022-05-27T12:52:02Z</time>
      </trkpt>
      <trkpt lat="44.38977" lon="3.55667">
        <ele>645</ele>
        <time>2022-05-27T12:52:03Z</time>
      </trkpt>
      <trkpt lat="44.38976" lon="3.55667">
        <ele>645</ele>
        <time>2022-05-27T12:52:04Z</time>
      </trkpt>
      <trkpt lat="44.38976" lon="3.55666">
        <ele>645</ele>
        <time>2022-05-27T12:52:05Z</time>
      </trkpt>
      <trkpt lat="44.38975" lon="3.55666">
        <ele>644</ele>
        <time>2022-05-27T12:52:06Z</time>
      </trkpt>
      <trkpt lat="44.38974" lon="3.55666">
        <ele>644</ele>
        <time>2022-05-27T12:52:07Z</time>
      </trkpt>
      <trkpt lat="44.38973" lon="3.55666">
        <ele>644</ele>
        <time>2022-05-27T12:52:08Z</time>
      </trkpt>
      <trkpt lat="44.38971" lon="3.55665">
        <ele>644</ele>
        <time>2022-05-27T12:52:09Z</time>
      </trkpt>
      <trkpt lat="44.3897" lon="3.55665">
        <ele>644</ele>
        <time>2022-05-27T12:52:10Z</time>
      </trkpt>
      <trkpt lat="44.38969" lon="3.55665">
        <ele>644</ele>
        <time>2022-05-27T12:52:11Z</time>
      </trkpt>
      <trkpt lat="44.38968" lon="3.55666">
        <ele>644</ele>
        <time>2022-05-27T12:52:12Z</time>
      </trkpt>
      <trkpt lat="44.38966" lon="3.55667">
        <ele>644</ele>
        <time>2022-05-27T12:52:13Z</time>
      </trkpt>
      <trkpt lat="44.38965" lon="3.55667">
        <ele>645</ele>
        <time>2022-05-27T12:52:14Z</time>
      </trkpt>
      <trkpt lat="44.38965" lon="3.55667">
        <ele>645</ele>
        <time>2022-05-27T12:52:15Z</time>
      </trkpt>
      <trkpt lat="44.38963" lon="3.55667">
        <ele>644</ele>
        <time>2022-05-27T12:52:16Z</time>
      </trkpt>
      <trkpt lat="44.38962" lon="3.55667">
        <ele>644</ele>
        <time>2022-05-27T12:52:17Z</time>
      </trkpt>
      <trkpt lat="44.3896" lon="3.55668">
        <ele>644</ele>
        <time>2022-05-27T12:52:18Z</time>
      </trkpt>
      <trkpt lat="44.38958" lon="3.55669">
        <ele>644</ele>
        <time>2022-05-27T12:52:19Z</time>
      </trkpt>
      <trkpt lat="44.38957" lon="3.55671">
        <ele>644</ele>
        <time>2022-05-27T12:52:20Z</time>
      </trkpt>
      <trkpt lat="44.38956" lon="3.55672">
        <ele>644</ele>
        <time>2022-05-27T12:52:21Z</time>
      </trkpt>
      <trkpt lat="44.38955" lon="3.55674">
        <ele>644</ele>
        <time>2022-05-27T12:52:22Z</time>
      </trkpt>
      <trkpt lat="44.38953" lon="3.55675">
        <ele>644</ele>
        <time>2022-05-27T12:52:23Z</time>
      </trkpt>
      <trkpt lat="44.38952" lon="3.55676">
        <ele>645</ele>
        <time>2022-05-27T12:52:24Z</time>
      </trkpt>
      <trkpt lat="44.38951" lon="3.55677">
        <ele>645</ele>
        <time>2022-05-27T12:52:25Z</time>
      </trkpt>
      <trkpt lat="44.3895" lon="3.55678">
        <ele>645</ele>
        <time>2022-05-27T12:52:26Z</time>
      </trkpt>
      <trkpt lat="44.38948" lon="3.55678">
        <ele>646</ele>
        <time>2022-05-27T12:52:27Z</time>
      </trkpt>
      <trkpt lat="44.38947" lon="3.55679">
        <ele>645</ele>
        <time>2022-05-27T12:52:28Z</time>
      </trkpt>
      <trkpt lat="44.38946" lon="3.55681">
        <ele>645</ele>
        <time>2022-05-27T12:52:29Z</time>
      </trkpt>
      <trkpt lat="44.38945" lon="3.55682">
        <ele>645</ele>
        <time>2022-05-27T12:52:30Z</time>
      </trkpt>
      <trkpt lat="44.38944" lon="3.55683">
        <ele>646</ele>
        <time>2022-05-27T12:52:31Z</time>
      </trkpt>
      <trkpt lat="44.38943" lon="3.55683">
        <ele>645</ele>
        <time>2022-05-27T12:52:32Z</time>
      </trkpt>
      <trkpt lat="44.38942" lon="3.55684">
        <ele>646</ele>
        <time>2022-05-27T12:52:33Z</time>
      </trkpt>
      <trkpt lat="44.38941" lon="3.55684">
        <ele>645</ele>
        <time>2022-05-27T12:52:34Z</time>
      </trkpt>
      <trkpt lat="44.3894" lon="3.55683">
        <ele>646</ele>
        <time>2022-05-27T12:52:35Z</time>
      </trkpt>
      <trkpt lat="44.38939" lon="3.55683">
        <ele>645</ele>
        <time>2022-05-27T12:52:36Z</time>
      </trkpt>
      <trkpt lat="44.38937" lon="3.55683">
        <ele>645</ele>
        <time>2022-05-27T12:52:37Z</time>
      </trkpt>
      <trkpt lat="44.38936" lon="3.55682">
        <ele>644</ele>
        <time>2022-05-27T12:52:38Z</time>
      </trkpt>
      <trkpt lat="44.38934" lon="3.55682">
        <ele>644</ele>
        <time>2022-05-27T12:52:39Z</time>
      </trkpt>
      <trkpt lat="44.38933" lon="3.55682">
        <ele>643</ele>
        <time>2022-05-27T12:52:40Z</time>
      </trkpt>
      <trkpt lat="44.38931" lon="3.55682">
        <ele>644</ele>
        <time>2022-05-27T12:52:41Z</time>
      </trkpt>
      <trkpt lat="44.38929" lon="3.55682">
        <ele>644</ele>
        <time>2022-05-27T12:52:42Z</time>
      </trkpt>
      <trkpt lat="44.38929" lon="3.55683">
        <ele>645</ele>
        <time>2022-05-27T12:52:43Z</time>
      </trkpt>
      <trkpt lat="44.38928" lon="3.55683">
        <ele>645</ele>
        <time>2022-05-27T12:52:44Z</time>
      </trkpt>
      <trkpt lat="44.38927" lon="3.55682">
        <ele>645</ele>
        <time>2022-05-27T12:52:45Z</time>
      </trkpt>
      <trkpt lat="44.38925" lon="3.55681">
        <ele>644</ele>
        <time>2022-05-27T12:52:46Z</time>
      </trkpt>
      <trkpt lat="44.38924" lon="3.55681">
        <ele>644</ele>
        <time>2022-05-27T12:52:47Z</time>
      </trkpt>
      <trkpt lat="44.38923" lon="3.5568">
        <ele>644</ele>
        <time>2022-05-27T12:52:48Z</time>
      </trkpt>
      <trkpt lat="44.38922" lon="3.5568">
        <ele>644</ele>
        <time>2022-05-27T12:52:49Z</time>
      </trkpt>
      <trkpt lat="44.3892" lon="3.55679">
        <ele>644</ele>
        <time>2022-05-27T12:52:50Z</time>
      </trkpt>
      <trkpt lat="44.38919" lon="3.55679">
        <ele>644</ele>
        <time>2022-05-27T12:52:51Z</time>
      </trkpt>
      <trkpt lat="44.38918" lon="3.55678">
        <ele>644</ele>
        <time>2022-05-27T12:52:52Z</time>
      </trkpt>
      <trkpt lat="44.38916" lon="3.55678">
        <ele>644</ele>
        <time>2022-05-27T12:52:53Z</time>
      </trkpt>
      <trkpt lat="44.38915" lon="3.55678">
        <ele>644</ele>
        <time>2022-05-27T12:52:54Z</time>
      </trkpt>
      <trkpt lat="44.38914" lon="3.55677">
        <ele>645</ele>
        <time>2022-05-27T12:52:55Z</time>
      </trkpt>
      <trkpt lat="44.38913" lon="3.55677">
        <ele>645</ele>
        <time>2022-05-27T12:52:56Z</time>
      </trkpt>
      <trkpt lat="44.38912" lon="3.55676">
        <ele>645</ele>
        <time>2022-05-27T12:52:57Z</time>
      </trkpt>
      <trkpt lat="44.38911" lon="3.55676">
        <ele>646</ele>
        <time>2022-05-27T12:52:58Z</time>
      </trkpt>
      <trkpt lat="44.38909" lon="3.55676">
        <ele>645</ele>
        <time>2022-05-27T12:52:59Z</time>
      </trkpt>
      <trkpt lat="44.38908" lon="3.55675">
        <ele>645</ele>
        <time>2022-05-27T12:53:00Z</time>
      </trkpt>
      <trkpt lat="44.38907" lon="3.55675">
        <ele>646</ele>
        <time>2022-05-27T12:53:01Z</time>
      </trkpt>
      <trkpt lat="44.38907" lon="3.55675">
        <ele>646</ele>
        <time>2022-05-27T12:53:02Z</time>
      </trkpt>
      <trkpt lat="44.38905" lon="3.55675">
        <ele>646</ele>
        <time>2022-05-27T12:53:03Z</time>
      </trkpt>
      <trkpt lat="44.38904" lon="3.55674">
        <ele>646</ele>
        <time>2022-05-27T12:53:04Z</time>
      </trkpt>
      <trkpt lat="44.38903" lon="3.55673">
        <ele>647</ele>
        <time>2022-05-27T12:53:05Z</time>
      </trkpt>
      <trkpt lat="44.38902" lon="3.55672">
        <ele>646</ele>
        <time>2022-05-27T12:53:06Z</time>
      </trkpt>
      <trkpt lat="44.38901" lon="3.55672">
        <ele>646</ele>
        <time>2022-05-27T12:53:07Z</time>
      </trkpt>
      <trkpt lat="44.389" lon="3.55672">
        <ele>646</ele>
        <time>2022-05-27T12:53:08Z</time>
      </trkpt>
      <trkpt lat="44.38898" lon="3.55672">
        <ele>645</ele>
        <time>2022-05-27T12:53:09Z</time>
      </trkpt>
      <trkpt lat="44.38897" lon="3.55671">
        <ele>645</ele>
        <time>2022-05-27T12:53:10Z</time>
      </trkpt>
      <trkpt lat="44.38896" lon="3.55671">
        <ele>645</ele>
        <time>2022-05-27T12:53:11Z</time>
      </trkpt>
      <trkpt lat="44.38895" lon="3.5567">
        <ele>645</ele>
        <time>2022-05-27T12:53:12Z</time>
      </trkpt>
      <trkpt lat="44.38894" lon="3.55669">
        <ele>646</ele>
        <time>2022-05-27T12:53:13Z</time>
      </trkpt>
      <trkpt lat="44.38892" lon="3.55669">
        <ele>645</ele>
        <time>2022-05-27T12:53:14Z</time>
      </trkpt>
      <trkpt lat="44.38891" lon="3.55668">
        <ele>645</ele>
        <time>2022-05-27T12:53:15Z</time>
      </trkpt>
      <trkpt lat="44.3889" lon="3.55668">
        <ele>644</ele>
        <time>2022-05-27T12:53:16Z</time>
      </trkpt>
      <trkpt lat="44.38888" lon="3.55668">
        <ele>644</ele>
        <time>2022-05-27T12:53:17Z</time>
      </trkpt>
      <trkpt lat="44.38886" lon="3.55667">
        <ele>644</ele>
        <time>2022-05-27T12:53:18Z</time>
      </trkpt>
      <trkpt lat="44.38885" lon="3.55667">
        <ele>644</ele>
        <time>2022-05-27T12:53:19Z</time>
      </trkpt>
      <trkpt lat="44.38884" lon="3.55667">
        <ele>644</ele>
        <time>2022-05-27T12:53:20Z</time>
      </trkpt>
      <trkpt lat="44.38882" lon="3.55667">
        <ele>643</ele>
        <time>2022-05-27T12:53:21Z</time>
      </trkpt>
      <trkpt lat="44.38881" lon="3.55667">
        <ele>643</ele>
        <time>2022-05-27T12:53:22Z</time>
      </trkpt>
      <trkpt lat="44.3888" lon="3.55666">
        <ele>643</ele>
        <time>2022-05-27T12:53:23Z</time>
      </trkpt>
      <trkpt lat="44.38879" lon="3.55665">
        <ele>643</ele>
        <time>2022-05-27T12:53:24Z</time>
      </trkpt>
      <trkpt lat="44.38878" lon="3.55664">
        <ele>644</ele>
        <time>2022-05-27T12:53:25Z</time>
      </trkpt>
      <trkpt lat="44.38876" lon="3.55664">
        <ele>644</ele>
        <time>2022-05-27T12:53:26Z</time>
      </trkpt>
      <trkpt lat="44.38875" lon="3.55664">
        <ele>643</ele>
        <time>2022-05-27T12:53:27Z</time>
      </trkpt>
      <trkpt lat="44.38873" lon="3.55664">
        <ele>643</ele>
        <time>2022-05-27T12:53:28Z</time>
      </trkpt>
      <trkpt lat="44.38873" lon="3.55665">
        <ele>644</ele>
        <time>2022-05-27T12:53:29Z</time>
      </trkpt>
      <trkpt lat="44.38871" lon="3.55665">
        <ele>644</ele>
        <time>2022-05-27T12:53:30Z</time>
      </trkpt>
      <trkpt lat="44.3887" lon="3.55665">
        <ele>644</ele>
        <time>2022-05-27T12:53:31Z</time>
      </trkpt>
      <trkpt lat="44.38869" lon="3.55665">
        <ele>644</ele>
        <time>2022-05-27T12:53:32Z</time>
      </trkpt>
      <trkpt lat="44.38868" lon="3.55665">
        <ele>644</ele>
        <time>2022-05-27T12:53:33Z</time>
      </trkpt>
      <trkpt lat="44.38867" lon="3.55665">
        <ele>644</ele>
        <time>2022-05-27T12:53:34Z</time>
      </trkpt>
      <trkpt lat="44.38867" lon="3.55665">
        <ele>644</ele>
        <time>2022-05-27T12:53:35Z</time>
      </trkpt>
      <trkpt lat="44.38867" lon="3.55665">
        <ele>644</ele>
        <time>2022-05-27T12:53:36Z</time>
      </trkpt>
      <trkpt lat="44.38865" lon="3.55666">
        <ele>645</ele>
        <time>2022-05-27T12:53:37Z</time>
      </trkpt>
      <trkpt lat="44.38865" lon="3.55667">
        <ele>645</ele>
        <time>2022-05-27T12:53:38Z</time>
      </trkpt>
      <trkpt lat="44.38863" lon="3.55669">
        <ele>644</ele>
        <time>2022-05-27T12:53:39Z</time>
      </trkpt>
      <trkpt lat="44.38862" lon="3.5567">
        <ele>645</ele>
        <time>2022-05-27T12:53:40Z</time>
      </trkpt>
      <trkpt lat="44.38861" lon="3.55672">
        <ele>644</ele>
        <time>2022-05-27T12:53:41Z</time>
      </trkpt>
      <trkpt lat="44.3886" lon="3.55673">
        <ele>644</ele>
        <time>2022-05-27T12:53:42Z</time>
      </trkpt>
      <trkpt lat="44.38859" lon="3.55674">
        <ele>644</ele>
        <time>2022-05-27T12:53:43Z</time>
      </trkpt>
      <trkpt lat="44.38858" lon="3.55675">
        <ele>643</ele>
        <time>2022-05-27T12:53:44Z</time>
      </trkpt>
      <trkpt lat="44.38857" lon="3.55676">
        <ele>643</ele>
        <time>2022-05-27T12:53:45Z</time>
      </trkpt>
      <trkpt lat="44.38857" lon="3.55677">
        <ele>643</ele>
        <time>2022-05-27T12:53:46Z</time>
      </trkpt>
      <trkpt lat="44.38856" lon="3.55678">
        <ele>642</ele>
        <time>2022-05-27T12:53:47Z</time>
      </trkpt>
      <trkpt lat="44.38855" lon="3.55678">
        <ele>641</ele>
        <time>2022-05-27T12:53:48Z</time>
      </trkpt>
      <trkpt lat="44.38855" lon="3.55678">
        <ele>641</ele>
        <time>2022-05-27T12:53:49Z</time>
      </trkpt>
      <trkpt lat="44.38855" lon="3.55678">
        <ele>641</ele>
        <time>2022-05-27T12:53:49Z</time>
      </trkpt>
      <trkpt lat="44.38855" lon="3.55678">
        <ele>641</ele>
        <time>2022-05-27T12:53:49Z</time>
      </trkpt>
      <trkpt lat="44.3885" lon="3.55686">
        <ele>639</ele>
        <time>2022-05-27T12:53:58Z</time>
      </trkpt>
      <trkpt lat="44.3885" lon="3.55687">
        <ele>640</ele>
        <time>2022-05-27T12:53:59Z</time>
      </trkpt>
      <trkpt lat="44.3885" lon="3.55688">
        <ele>640</ele>
        <time>2022-05-27T12:54:00Z</time>
      </trkpt>
      <trkpt lat="44.38849" lon="3.55689">
        <ele>640</ele>
        <time>2022-05-27T12:54:01Z</time>
      </trkpt>
      <trkpt lat="44.38849" lon="3.5569">
        <ele>639</ele>
        <time>2022-05-27T12:54:02Z</time>
      </trkpt>
      <trkpt lat="44.38847" lon="3.55691">
        <ele>639</ele>
        <time>2022-05-27T12:54:03Z</time>
      </trkpt>
      <trkpt lat="44.38846" lon="3.55692">
        <ele>639</ele>
        <time>2022-05-27T12:54:04Z</time>
      </trkpt>
      <trkpt lat="44.38845" lon="3.55693">
        <ele>639</ele>
        <time>2022-05-27T12:54:05Z</time>
      </trkpt>
      <trkpt lat="44.38845" lon="3.55694">
        <ele>639</ele>
        <time>2022-05-27T12:54:06Z</time>
      </trkpt>
      <trkpt lat="44.38844" lon="3.55694">
        <ele>638</ele>
        <time>2022-05-27T12:54:07Z</time>
      </trkpt>
      <trkpt lat="44.38842" lon="3.55695">
        <ele>638</ele>
        <time>2022-05-27T12:54:08Z</time>
      </trkpt>
      <trkpt lat="44.3884" lon="3.55695">
        <ele>637</ele>
        <time>2022-05-27T12:54:09Z</time>
      </trkpt>
      <trkpt lat="44.38839" lon="3.55696">
        <ele>636</ele>
        <time>2022-05-27T12:54:10Z</time>
      </trkpt>
      <trkpt lat="44.38839" lon="3.55696">
        <ele>636</ele>
        <time>2022-05-27T12:54:11Z</time>
      </trkpt>
      <trkpt lat="44.38838" lon="3.55696">
        <ele>636</ele>
        <time>2022-05-27T12:54:12Z</time>
      </trkpt>
      <trkpt lat="44.38837" lon="3.55696">
        <ele>636</ele>
        <time>2022-05-27T12:54:13Z</time>
      </trkpt>
      <trkpt lat="44.38837" lon="3.55696">
        <ele>637</ele>
        <time>2022-05-27T12:54:14Z</time>
      </trkpt>
      <trkpt lat="44.38835" lon="3.55696">
        <ele>637</ele>
        <time>2022-05-27T12:54:15Z</time>
      </trkpt>
      <trkpt lat="44.38834" lon="3.55697">
        <ele>636</ele>
        <time>2022-05-27T12:54:16Z</time>
      </trkpt>
      <trkpt lat="44.38833" lon="3.55698">
        <ele>636</ele>
        <time>2022-05-27T12:54:17Z</time>
      </trkpt>
      <trkpt lat="44.38833" lon="3.55698">
        <ele>636</ele>
        <time>2022-05-27T12:54:18Z</time>
      </trkpt>
      <trkpt lat="44.38833" lon="3.55698">
        <ele>635</ele>
        <time>2022-05-27T12:54:19Z</time>
      </trkpt>
      <trkpt lat="44.38833" lon="3.55699">
        <ele>633</ele>
        <time>2022-05-27T12:54:20Z</time>
      </trkpt>
      <trkpt lat="44.38833" lon="3.55699">
        <ele>633</ele>
        <time>2022-05-27T12:54:20Z</time>
      </trkpt>
      <trkpt lat="44.38833" lon="3.55699">
        <ele>633</ele>
        <time>2022-05-27T12:54:20Z</time>
      </trkpt>
      <trkpt lat="44.38829" lon="3.55701">
        <ele>630</ele>
        <time>2022-05-27T12:54:52Z</time>
      </trkpt>
      <trkpt lat="44.38829" lon="3.55701">
        <ele>630</ele>
        <time>2022-05-27T12:54:53Z</time>
      </trkpt>
      <trkpt lat="44.38829" lon="3.55702">
        <ele>630</ele>
        <time>2022-05-27T12:54:54Z</time>
      </trkpt>
      <trkpt lat="44.38829" lon="3.55702">
        <ele>630</ele>
        <time>2022-05-27T12:54:54Z</time>
      </trkpt>
      <trkpt lat="44.38829" lon="3.55702">
        <ele>630</ele>
        <time>2022-05-27T12:54:54Z</time>
      </trkpt>
      <trkpt lat="44.38813" lon="3.55713">
        <ele>636</ele>
        <time>2022-05-27T12:56:26Z</time>
      </trkpt>
      <trkpt lat="44.38812" lon="3.55714">
        <ele>636</ele>
        <time>2022-05-27T12:56:27Z</time>
      </trkpt>
      <trkpt lat="44.38812" lon="3.55715">
        <ele>636</ele>
        <time>2022-05-27T12:56:28Z</time>
      </trkpt>
      <trkpt lat="44.38812" lon="3.55716">
        <ele>636</ele>
        <time>2022-05-27T12:56:29Z</time>
      </trkpt>
      <trkpt lat="44.38812" lon="3.55717">
        <ele>636</ele>
        <time>2022-05-27T12:56:30Z</time>
      </trkpt>
      <trkpt lat="44.38811" lon="3.55718">
        <ele>635</ele>
        <time>2022-05-27T12:56:31Z</time>
      </trkpt>
      <trkpt lat="44.3881" lon="3.55719">
        <ele>635</ele>
        <time>2022-05-27T12:56:32Z</time>
      </trkpt>
      <trkpt lat="44.38809" lon="3.55719">
        <ele>635</ele>
        <time>2022-05-27T12:56:33Z</time>
      </trkpt>
      <trkpt lat="44.38808" lon="3.5572">
        <ele>635</ele>
        <time>2022-05-27T12:56:34Z</time>
      </trkpt>
      <trkpt lat="44.38808" lon="3.55721">
        <ele>635</ele>
        <time>2022-05-27T12:56:35Z</time>
      </trkpt>
      <trkpt lat="44.38807" lon="3.55721">
        <ele>634</ele>
        <time>2022-05-27T12:56:36Z</time>
      </trkpt>
      <trkpt lat="44.38807" lon="3.55721">
        <ele>634</ele>
        <time>2022-05-27T12:56:37Z</time>
      </trkpt>
      <trkpt lat="44.38806" lon="3.55721">
        <ele>633</ele>
        <time>2022-05-27T12:56:38Z</time>
      </trkpt>
      <trkpt lat="44.38805" lon="3.55722">
        <ele>632</ele>
        <time>2022-05-27T12:56:39Z</time>
      </trkpt>
      <trkpt lat="44.38804" lon="3.55723">
        <ele>632</ele>
        <time>2022-05-27T12:56:40Z</time>
      </trkpt>
      <trkpt lat="44.38803" lon="3.55725">
        <ele>631</ele>
        <time>2022-05-27T12:56:41Z</time>
      </trkpt>
      <trkpt lat="44.38802" lon="3.55725">
        <ele>630</ele>
        <time>2022-05-27T12:56:42Z</time>
      </trkpt>
      <trkpt lat="44.38802" lon="3.55726">
        <ele>630</ele>
        <time>2022-05-27T12:56:43Z</time>
      </trkpt>
      <trkpt lat="44.38802" lon="3.55727">
        <ele>630</ele>
        <time>2022-05-27T12:56:44Z</time>
      </trkpt>
      <trkpt lat="44.38801" lon="3.55728">
        <ele>629</ele>
        <time>2022-05-27T12:56:45Z</time>
      </trkpt>
      <trkpt lat="44.388" lon="3.55728">
        <ele>628</ele>
        <time>2022-05-27T12:56:46Z</time>
      </trkpt>
      <trkpt lat="44.38799" lon="3.55729">
        <ele>628</ele>
        <time>2022-05-27T12:56:47Z</time>
      </trkpt>
      <trkpt lat="44.38798" lon="3.55729">
        <ele>627</ele>
        <time>2022-05-27T12:56:48Z</time>
      </trkpt>
      <trkpt lat="44.38797" lon="3.5573">
        <ele>626</ele>
        <time>2022-05-27T12:56:49Z</time>
      </trkpt>
      <trkpt lat="44.38796" lon="3.5573">
        <ele>625</ele>
        <time>2022-05-27T12:56:50Z</time>
      </trkpt>
      <trkpt lat="44.38796" lon="3.55731">
        <ele>625</ele>
        <time>2022-05-27T12:56:51Z</time>
      </trkpt>
      <trkpt lat="44.38795" lon="3.55731">
        <ele>625</ele>
        <time>2022-05-27T12:56:52Z</time>
      </trkpt>
      <trkpt lat="44.38794" lon="3.55732">
        <ele>625</ele>
        <time>2022-05-27T12:56:53Z</time>
      </trkpt>
      <trkpt lat="44.38793" lon="3.55732">
        <ele>625</ele>
        <time>2022-05-27T12:56:54Z</time>
      </trkpt>
      <trkpt lat="44.38792" lon="3.55733">
        <ele>625</ele>
        <time>2022-05-27T12:56:55Z</time>
      </trkpt>
      <trkpt lat="44.38792" lon="3.55734">
        <ele>625</ele>
        <time>2022-05-27T12:56:56Z</time>
      </trkpt>
      <trkpt lat="44.38791" lon="3.55735">
        <ele>625</ele>
        <time>2022-05-27T12:56:57Z</time>
      </trkpt>
      <trkpt lat="44.3879" lon="3.55736">
        <ele>625</ele>
        <time>2022-05-27T12:56:58Z</time>
      </trkpt>
      <trkpt lat="44.38789" lon="3.55737">
        <ele>624</ele>
        <time>2022-05-27T12:56:59Z</time>
      </trkpt>
      <trkpt lat="44.38789" lon="3.55737">
        <ele>625</ele>
        <time>2022-05-27T12:57:00Z</time>
      </trkpt>
      <trkpt lat="44.38788" lon="3.55739">
        <ele>624</ele>
        <time>2022-05-27T12:57:01Z</time>
      </trkpt>
      <trkpt lat="44.38788" lon="3.5574">
        <ele>624</ele>
        <time>2022-05-27T12:57:02Z</time>
      </trkpt>
      <trkpt lat="44.38787" lon="3.55741">
        <ele>624</ele>
        <time>2022-05-27T12:57:03Z</time>
      </trkpt>
      <trkpt lat="44.38787" lon="3.55741">
        <ele>624</ele>
        <time>2022-05-27T12:57:04Z</time>
      </trkpt>
      <trkpt lat="44.38787" lon="3.55741">
        <ele>624</ele>
        <time>2022-05-27T12:57:05Z</time>
      </trkpt>
      <trkpt lat="44.38787" lon="3.55741">
        <ele>624</ele>
        <time>2022-05-27T12:57:06Z</time>
      </trkpt>
      <trkpt lat="44.38787" lon="3.55741">
        <ele>624</ele>
        <time>2022-05-27T12:57:07Z</time>
      </trkpt>
      <trkpt lat="44.38787" lon="3.55741">
        <ele>624</ele>
        <time>2022-05-27T12:57:07Z</time>
      </trkpt>
      <trkpt lat="44.38787" lon="3.55741">
        <ele>624</ele>
        <time>2022-05-27T12:57:07Z</time>
      </trkpt>
      <trkpt lat="44.38788" lon="3.55746">
        <ele>627</ele>
        <time>2022-05-27T12:57:56Z</time>
      </trkpt>
      <trkpt lat="44.38788" lon="3.55746">
        <ele>627</ele>
        <time>2022-05-27T12:57:57Z</time>
      </trkpt>
      <trkpt lat="44.38788" lon="3.55747">
        <ele>626</ele>
        <time>2022-05-27T12:57:58Z</time>
      </trkpt>
      <trkpt lat="44.38788" lon="3.55747">
        <ele>626</ele>
        <time>2022-05-27T12:57:58Z</time>
      </trkpt>
      <trkpt lat="44.38788" lon="3.55747">
        <ele>626</ele>
        <time>2022-05-27T12:57:58Z</time>
      </trkpt>
      <trkpt lat="44.38784" lon="3.55748">
        <ele>625</ele>
        <time>2022-05-27T12:58:35Z</time>
      </trkpt>
      <trkpt lat="44.38783" lon="3.55747">
        <ele>626</ele>
        <time>2022-05-27T12:58:36Z</time>
      </trkpt>
      <trkpt lat="44.38782" lon="3.55748">
        <ele>626</ele>
        <time>2022-05-27T12:58:37Z</time>
      </trkpt>
      <trkpt lat="44.38781" lon="3.55747">
        <ele>626</ele>
        <time>2022-05-27T12:58:38Z</time>
      </trkpt>
      <trkpt lat="44.38781" lon="3.55748">
        <ele>625</ele>
        <time>2022-05-27T12:58:39Z</time>
      </trkpt>
      <trkpt lat="44.3878" lon="3.55749">
        <ele>625</ele>
        <time>2022-05-27T12:58:40Z</time>
      </trkpt>
      <trkpt lat="44.38779" lon="3.55749">
        <ele>624</ele>
        <time>2022-05-27T12:58:41Z</time>
      </trkpt>
      <trkpt lat="44.38778" lon="3.55749">
        <ele>624</ele>
        <time>2022-05-27T12:58:42Z</time>
      </trkpt>
      <trkpt lat="44.38777" lon="3.55749">
        <ele>624</ele>
        <time>2022-05-27T12:58:43Z</time>
      </trkpt>
      <trkpt lat="44.38776" lon="3.55749">
        <ele>624</ele>
        <time>2022-05-27T12:58:44Z</time>
      </trkpt>
      <trkpt lat="44.38775" lon="3.55749">
        <ele>624</ele>
        <time>2022-05-27T12:58:45Z</time>
      </trkpt>
      <trkpt lat="44.38774" lon="3.55749">
        <ele>624</ele>
        <time>2022-05-27T12:58:46Z</time>
      </trkpt>
      <trkpt lat="44.38773" lon="3.55749">
        <ele>624</ele>
        <time>2022-05-27T12:58:47Z</time>
      </trkpt>
      <trkpt lat="44.38771" lon="3.55749">
        <ele>624</ele>
        <time>2022-05-27T12:58:48Z</time>
      </trkpt>
      <trkpt lat="44.38771" lon="3.55749">
        <ele>624</ele>
        <time>2022-05-27T12:58:49Z</time>
      </trkpt>
      <trkpt lat="44.3877" lon="3.55749">
        <ele>623</ele>
        <time>2022-05-27T12:58:50Z</time>
      </trkpt>
      <trkpt lat="44.38769" lon="3.55748">
        <ele>623</ele>
        <time>2022-05-27T12:58:51Z</time>
      </trkpt>
      <trkpt lat="44.38768" lon="3.55748">
        <ele>623</ele>
        <time>2022-05-27T12:58:52Z</time>
      </trkpt>
      <trkpt lat="44.38767" lon="3.55748">
        <ele>623</ele>
        <time>2022-05-27T12:58:53Z</time>
      </trkpt>
      <trkpt lat="44.38766" lon="3.55748">
        <ele>623</ele>
        <time>2022-05-27T12:58:54Z</time>
      </trkpt>
      <trkpt lat="44.38765" lon="3.55746">
        <ele>623</ele>
        <time>2022-05-27T12:58:55Z</time>
      </trkpt>
      <trkpt lat="44.38764" lon="3.55746">
        <ele>624</ele>
        <time>2022-05-27T12:58:56Z</time>
      </trkpt>
      <trkpt lat="44.38764" lon="3.55745">
        <ele>623</ele>
        <time>2022-05-27T12:58:57Z</time>
      </trkpt>
      <trkpt lat="44.38763" lon="3.55745">
        <ele>623</ele>
        <time>2022-05-27T12:58:58Z</time>
      </trkpt>
      <trkpt lat="44.38762" lon="3.55745">
        <ele>624</ele>
        <time>2022-05-27T12:58:59Z</time>
      </trkpt>
      <trkpt lat="44.38762" lon="3.55745">
        <ele>625</ele>
        <time>2022-05-27T12:59:00Z</time>
      </trkpt>
      <trkpt lat="44.38761" lon="3.55744">
        <ele>625</ele>
        <time>2022-05-27T12:59:01Z</time>
      </trkpt>
      <trkpt lat="44.3876" lon="3.55743">
        <ele>625</ele>
        <time>2022-05-27T12:59:02Z</time>
      </trkpt>
      <trkpt lat="44.3876" lon="3.55742">
        <ele>625</ele>
        <time>2022-05-27T12:59:03Z</time>
      </trkpt>
      <trkpt lat="44.3876" lon="3.5574">
        <ele>624</ele>
        <time>2022-05-27T12:59:04Z</time>
      </trkpt>
      <trkpt lat="44.3876" lon="3.5574">
        <ele>624</ele>
        <time>2022-05-27T12:59:05Z</time>
      </trkpt>
      <trkpt lat="44.38759" lon="3.5574">
        <ele>624</ele>
        <time>2022-05-27T12:59:06Z</time>
      </trkpt>
      <trkpt lat="44.38759" lon="3.5574">
        <ele>624</ele>
        <time>2022-05-27T12:59:07Z</time>
      </trkpt>
      <trkpt lat="44.38759" lon="3.5574">
        <ele>624</ele>
        <time>2022-05-27T12:59:08Z</time>
      </trkpt>
      <trkpt lat="44.38759" lon="3.5574">
        <ele>624</ele>
        <time>2022-05-27T12:59:09Z</time>
      </trkpt>
      <trkpt lat="44.38759" lon="3.5574">
        <ele>624</ele>
        <time>2022-05-27T12:59:10Z</time>
      </trkpt>
      <trkpt lat="44.38758" lon="3.55737">
        <ele>625</ele>
        <time>2022-05-27T12:59:11Z</time>
      </trkpt>
      <trkpt lat="44.38757" lon="3.55737">
        <ele>625</ele>
        <time>2022-05-27T12:59:12Z</time>
      </trkpt>
      <trkpt lat="44.38756" lon="3.55736">
        <ele>625</ele>
        <time>2022-05-27T12:59:13Z</time>
      </trkpt>
      <trkpt lat="44.38755" lon="3.55735">
        <ele>625</ele>
        <time>2022-05-27T12:59:14Z</time>
      </trkpt>
      <trkpt lat="44.38755" lon="3.55733">
        <ele>625</ele>
        <time>2022-05-27T12:59:15Z</time>
      </trkpt>
      <trkpt lat="44.38754" lon="3.55732">
        <ele>625</ele>
        <time>2022-05-27T12:59:16Z</time>
      </trkpt>
      <trkpt lat="44.38753" lon="3.55731">
        <ele>625</ele>
        <time>2022-05-27T12:59:17Z</time>
      </trkpt>
      <trkpt lat="44.38752" lon="3.5573">
        <ele>625</ele>
        <time>2022-05-27T12:59:18Z</time>
      </trkpt>
      <trkpt lat="44.38752" lon="3.55729">
        <ele>625</ele>
        <time>2022-05-27T12:59:19Z</time>
      </trkpt>
      <trkpt lat="44.38751" lon="3.55728">
        <ele>625</ele>
        <time>2022-05-27T12:59:20Z</time>
      </trkpt>
      <trkpt lat="44.3875" lon="3.55726">
        <ele>625</ele>
        <time>2022-05-27T12:59:21Z</time>
      </trkpt>
      <trkpt lat="44.38749" lon="3.55725">
        <ele>625</ele>
        <time>2022-05-27T12:59:22Z</time>
      </trkpt>
      <trkpt lat="44.38748" lon="3.55724">
        <ele>625</ele>
        <time>2022-05-27T12:59:23Z</time>
      </trkpt>
      <trkpt lat="44.38747" lon="3.55723">
        <ele>626</ele>
        <time>2022-05-27T12:59:24Z</time>
      </trkpt>
      <trkpt lat="44.38746" lon="3.55721">
        <ele>626</ele>
        <time>2022-05-27T12:59:25Z</time>
      </trkpt>
      <trkpt lat="44.38745" lon="3.5572">
        <ele>626</ele>
        <time>2022-05-27T12:59:26Z</time>
      </trkpt>
      <trkpt lat="44.38744" lon="3.55719">
        <ele>626</ele>
        <time>2022-05-27T12:59:27Z</time>
      </trkpt>
      <trkpt lat="44.38743" lon="3.55718">
        <ele>626</ele>
        <time>2022-05-27T12:59:28Z</time>
      </trkpt>
      <trkpt lat="44.38742" lon="3.55717">
        <ele>626</ele>
        <time>2022-05-27T12:59:29Z</time>
      </trkpt>
      <trkpt lat="44.38741" lon="3.55717">
        <ele>626</ele>
        <time>2022-05-27T12:59:30Z</time>
      </trkpt>
      <trkpt lat="44.3874" lon="3.55716">
        <ele>626</ele>
        <time>2022-05-27T12:59:31Z</time>
      </trkpt>
      <trkpt lat="44.38739" lon="3.55715">
        <ele>625</ele>
        <time>2022-05-27T12:59:32Z</time>
      </trkpt>
      <trkpt lat="44.38738" lon="3.55715">
        <ele>626</ele>
        <time>2022-05-27T12:59:33Z</time>
      </trkpt>
      <trkpt lat="44.38738" lon="3.55714">
        <ele>627</ele>
        <time>2022-05-27T12:59:34Z</time>
      </trkpt>
      <trkpt lat="44.38737" lon="3.55713">
        <ele>627</ele>
        <time>2022-05-27T12:59:35Z</time>
      </trkpt>
      <trkpt lat="44.38736" lon="3.55712">
        <ele>627</ele>
        <time>2022-05-27T12:59:36Z</time>
      </trkpt>
      <trkpt lat="44.38735" lon="3.55711">
        <ele>627</ele>
        <time>2022-05-27T12:59:37Z</time>
      </trkpt>
      <trkpt lat="44.38734" lon="3.5571">
        <ele>628</ele>
        <time>2022-05-27T12:59:38Z</time>
      </trkpt>
      <trkpt lat="44.38733" lon="3.55708">
        <ele>628</ele>
        <time>2022-05-27T12:59:39Z</time>
      </trkpt>
      <trkpt lat="44.38732" lon="3.55708">
        <ele>628</ele>
        <time>2022-05-27T12:59:40Z</time>
      </trkpt>
      <trkpt lat="44.38731" lon="3.55708">
        <ele>628</ele>
        <time>2022-05-27T12:59:41Z</time>
      </trkpt>
      <trkpt lat="44.3873" lon="3.55707">
        <ele>628</ele>
        <time>2022-05-27T12:59:42Z</time>
      </trkpt>
      <trkpt lat="44.3873" lon="3.55706">
        <ele>628</ele>
        <time>2022-05-27T12:59:43Z</time>
      </trkpt>
      <trkpt lat="44.38728" lon="3.55705">
        <ele>628</ele>
        <time>2022-05-27T12:59:44Z</time>
      </trkpt>
      <trkpt lat="44.38727" lon="3.55703">
        <ele>628</ele>
        <time>2022-05-27T12:59:45Z</time>
      </trkpt>
      <trkpt lat="44.38726" lon="3.55702">
        <ele>628</ele>
        <time>2022-05-27T12:59:46Z</time>
      </trkpt>
      <trkpt lat="44.38725" lon="3.557">
        <ele>629</ele>
        <time>2022-05-27T12:59:47Z</time>
      </trkpt>
      <trkpt lat="44.38724" lon="3.55699">
        <ele>629</ele>
        <time>2022-05-27T12:59:48Z</time>
      </trkpt>
      <trkpt lat="44.38723" lon="3.55698">
        <ele>630</ele>
        <time>2022-05-27T12:59:49Z</time>
      </trkpt>
      <trkpt lat="44.38722" lon="3.55697">
        <ele>630</ele>
        <time>2022-05-27T12:59:50Z</time>
      </trkpt>
      <trkpt lat="44.38721" lon="3.55696">
        <ele>630</ele>
        <time>2022-05-27T12:59:51Z</time>
      </trkpt>
      <trkpt lat="44.38719" lon="3.55694">
        <ele>630</ele>
        <time>2022-05-27T12:59:52Z</time>
      </trkpt>
      <trkpt lat="44.38718" lon="3.55694">
        <ele>630</ele>
        <time>2022-05-27T12:59:53Z</time>
      </trkpt>
      <trkpt lat="44.38718" lon="3.55694">
        <ele>630</ele>
        <time>2022-05-27T12:59:54Z</time>
      </trkpt>
      <trkpt lat="44.38717" lon="3.55693">
        <ele>630</ele>
        <time>2022-05-27T12:59:55Z</time>
      </trkpt>
      <trkpt lat="44.38716" lon="3.55692">
        <ele>629</ele>
        <time>2022-05-27T12:59:56Z</time>
      </trkpt>
      <trkpt lat="44.38716" lon="3.55691">
        <ele>629</ele>
        <time>2022-05-27T12:59:57Z</time>
      </trkpt>
      <trkpt lat="44.38715" lon="3.5569">
        <ele>629</ele>
        <time>2022-05-27T12:59:58Z</time>
      </trkpt>
      <trkpt lat="44.38714" lon="3.55689">
        <ele>629</ele>
        <time>2022-05-27T12:59:59Z</time>
      </trkpt>
      <trkpt lat="44.38714" lon="3.55688">
        <ele>629</ele>
        <time>2022-05-27T13:00:00Z</time>
      </trkpt>
      <trkpt lat="44.38715" lon="3.55687">
        <ele>630</ele>
        <time>2022-05-27T13:00:01Z</time>
      </trkpt>
      <trkpt lat="44.38713" lon="3.55684">
        <ele>629</ele>
        <time>2022-05-27T13:00:02Z</time>
      </trkpt>
      <trkpt lat="44.38712" lon="3.55683">
        <ele>629</ele>
        <time>2022-05-27T13:00:03Z</time>
      </trkpt>
      <trkpt lat="44.38712" lon="3.55682">
        <ele>629</ele>
        <time>2022-05-27T13:00:04Z</time>
      </trkpt>
      <trkpt lat="44.38712" lon="3.55682">
        <ele>629</ele>
        <time>2022-05-27T13:00:05Z</time>
      </trkpt>
      <trkpt lat="44.38711" lon="3.55682">
        <ele>630</ele>
        <time>2022-05-27T13:00:06Z</time>
      </trkpt>
      <trkpt lat="44.38709" lon="3.5568">
        <ele>631</ele>
        <time>2022-05-27T13:00:07Z</time>
      </trkpt>
      <trkpt lat="44.38707" lon="3.55678">
        <ele>630</ele>
        <time>2022-05-27T13:00:08Z</time>
      </trkpt>
      <trkpt lat="44.38706" lon="3.55677">
        <ele>630</ele>
        <time>2022-05-27T13:00:09Z</time>
      </trkpt>
      <trkpt lat="44.38705" lon="3.55676">
        <ele>631</ele>
        <time>2022-05-27T13:00:10Z</time>
      </trkpt>
      <trkpt lat="44.38704" lon="3.55674">
        <ele>631</ele>
        <time>2022-05-27T13:00:11Z</time>
      </trkpt>
      <trkpt lat="44.38704" lon="3.55673">
        <ele>632</ele>
        <time>2022-05-27T13:00:12Z</time>
      </trkpt>
      <trkpt lat="44.38703" lon="3.55672">
        <ele>632</ele>
        <time>2022-05-27T13:00:13Z</time>
      </trkpt>
      <trkpt lat="44.38702" lon="3.55671">
        <ele>632</ele>
        <time>2022-05-27T13:00:14Z</time>
      </trkpt>
      <trkpt lat="44.38701" lon="3.55669">
        <ele>630</ele>
        <time>2022-05-27T13:00:15Z</time>
      </trkpt>
      <trkpt lat="44.38699" lon="3.55669">
        <ele>630</ele>
        <time>2022-05-27T13:00:16Z</time>
      </trkpt>
      <trkpt lat="44.38699" lon="3.55667">
        <ele>630</ele>
        <time>2022-05-27T13:00:17Z</time>
      </trkpt>
      <trkpt lat="44.38698" lon="3.55668">
        <ele>630</ele>
        <time>2022-05-27T13:00:18Z</time>
      </trkpt>
      <trkpt lat="44.38697" lon="3.55667">
        <ele>631</ele>
        <time>2022-05-27T13:00:19Z</time>
      </trkpt>
      <trkpt lat="44.38695" lon="3.55664">
        <ele>630</ele>
        <time>2022-05-27T13:00:20Z</time>
      </trkpt>
      <trkpt lat="44.38694" lon="3.55662">
        <ele>629</ele>
        <time>2022-05-27T13:00:21Z</time>
      </trkpt>
      <trkpt lat="44.38693" lon="3.5566">
        <ele>629</ele>
        <time>2022-05-27T13:00:22Z</time>
      </trkpt>
      <trkpt lat="44.38692" lon="3.55659">
        <ele>629</ele>
        <time>2022-05-27T13:00:23Z</time>
      </trkpt>
      <trkpt lat="44.38691" lon="3.55657">
        <ele>629</ele>
        <time>2022-05-27T13:00:24Z</time>
      </trkpt>
      <trkpt lat="44.38691" lon="3.55656">
        <ele>629</ele>
        <time>2022-05-27T13:00:25Z</time>
      </trkpt>
      <trkpt lat="44.38691" lon="3.55655">
        <ele>628</ele>
        <time>2022-05-27T13:00:26Z</time>
      </trkpt>
      <trkpt lat="44.38689" lon="3.55653">
        <ele>627</ele>
        <time>2022-05-27T13:00:27Z</time>
      </trkpt>
      <trkpt lat="44.38688" lon="3.55651">
        <ele>627</ele>
        <time>2022-05-27T13:00:28Z</time>
      </trkpt>
      <trkpt lat="44.38687" lon="3.55651">
        <ele>627</ele>
        <time>2022-05-27T13:00:29Z</time>
      </trkpt>
      <trkpt lat="44.38686" lon="3.5565">
        <ele>627</ele>
        <time>2022-05-27T13:00:30Z</time>
      </trkpt>
      <trkpt lat="44.38685" lon="3.55648">
        <ele>628</ele>
        <time>2022-05-27T13:00:31Z</time>
      </trkpt>
      <trkpt lat="44.38685" lon="3.55647">
        <ele>628</ele>
        <time>2022-05-27T13:00:32Z</time>
      </trkpt>
      <trkpt lat="44.38683" lon="3.55647">
        <ele>628</ele>
        <time>2022-05-27T13:00:33Z</time>
      </trkpt>
      <trkpt lat="44.38683" lon="3.55646">
        <ele>628</ele>
        <time>2022-05-27T13:00:34Z</time>
      </trkpt>
      <trkpt lat="44.38682" lon="3.55645">
        <ele>628</ele>
        <time>2022-05-27T13:00:35Z</time>
      </trkpt>
      <trkpt lat="44.38681" lon="3.55644">
        <ele>628</ele>
        <time>2022-05-27T13:00:36Z</time>
      </trkpt>
      <trkpt lat="44.3868" lon="3.55644">
        <ele>628</ele>
        <time>2022-05-27T13:00:37Z</time>
      </trkpt>
      <trkpt lat="44.38679" lon="3.55643">
        <ele>628</ele>
        <time>2022-05-27T13:00:38Z</time>
      </trkpt>
      <trkpt lat="44.38678" lon="3.55641">
        <ele>628</ele>
        <time>2022-05-27T13:00:39Z</time>
      </trkpt>
      <trkpt lat="44.38678" lon="3.5564">
        <ele>627</ele>
        <time>2022-05-27T13:00:40Z</time>
      </trkpt>
      <trkpt lat="44.38677" lon="3.55639">
        <ele>627</ele>
        <time>2022-05-27T13:00:41Z</time>
      </trkpt>
      <trkpt lat="44.38677" lon="3.55637">
        <ele>628</ele>
        <time>2022-05-27T13:00:42Z</time>
      </trkpt>
      <trkpt lat="44.38676" lon="3.55636">
        <ele>628</ele>
        <time>2022-05-27T13:00:43Z</time>
      </trkpt>
      <trkpt lat="44.38676" lon="3.55634">
        <ele>628</ele>
        <time>2022-05-27T13:00:44Z</time>
      </trkpt>
      <trkpt lat="44.38675" lon="3.55632">
        <ele>628</ele>
        <time>2022-05-27T13:00:45Z</time>
      </trkpt>
      <trkpt lat="44.38674" lon="3.5563">
        <ele>628</ele>
        <time>2022-05-27T13:00:46Z</time>
      </trkpt>
      <trkpt lat="44.38673" lon="3.55629">
        <ele>628</ele>
        <time>2022-05-27T13:00:47Z</time>
      </trkpt>
      <trkpt lat="44.38672" lon="3.55628">
        <ele>627</ele>
        <time>2022-05-27T13:00:48Z</time>
      </trkpt>
      <trkpt lat="44.38672" lon="3.55627">
        <ele>628</ele>
        <time>2022-05-27T13:00:49Z</time>
      </trkpt>
      <trkpt lat="44.38671" lon="3.55626">
        <ele>628</ele>
        <time>2022-05-27T13:00:50Z</time>
      </trkpt>
      <trkpt lat="44.3867" lon="3.55624">
        <ele>628</ele>
        <time>2022-05-27T13:00:51Z</time>
      </trkpt>
      <trkpt lat="44.38669" lon="3.55624">
        <ele>628</ele>
        <time>2022-05-27T13:00:52Z</time>
      </trkpt>
      <trkpt lat="44.38668" lon="3.55623">
        <ele>628</ele>
        <time>2022-05-27T13:00:53Z</time>
      </trkpt>
      <trkpt lat="44.38667" lon="3.55622">
        <ele>627</ele>
        <time>2022-05-27T13:00:54Z</time>
      </trkpt>
      <trkpt lat="44.38666" lon="3.55622">
        <ele>627</ele>
        <time>2022-05-27T13:00:55Z</time>
      </trkpt>
      <trkpt lat="44.38664" lon="3.55621">
        <ele>627</ele>
        <time>2022-05-27T13:00:56Z</time>
      </trkpt>
      <trkpt lat="44.38665" lon="3.55621">
        <ele>627</ele>
        <time>2022-05-27T13:00:57Z</time>
      </trkpt>
      <trkpt lat="44.38664" lon="3.5562">
        <ele>627</ele>
        <time>2022-05-27T13:00:58Z</time>
      </trkpt>
      <trkpt lat="44.38663" lon="3.55619">
        <ele>627</ele>
        <time>2022-05-27T13:00:59Z</time>
      </trkpt>
      <trkpt lat="44.38663" lon="3.55617">
        <ele>626</ele>
        <time>2022-05-27T13:01:00Z</time>
      </trkpt>
      <trkpt lat="44.38662" lon="3.55617">
        <ele>628</ele>
        <time>2022-05-27T13:01:01Z</time>
      </trkpt>
      <trkpt lat="44.3866" lon="3.55616">
        <ele>629</ele>
        <time>2022-05-27T13:01:02Z</time>
      </trkpt>
      <trkpt lat="44.38658" lon="3.55614">
        <ele>628</ele>
        <time>2022-05-27T13:01:03Z</time>
      </trkpt>
      <trkpt lat="44.38657" lon="3.55614">
        <ele>628</ele>
        <time>2022-05-27T13:01:04Z</time>
      </trkpt>
      <trkpt lat="44.38657" lon="3.55613">
        <ele>627</ele>
        <time>2022-05-27T13:01:05Z</time>
      </trkpt>
      <trkpt lat="44.38656" lon="3.55612">
        <ele>628</ele>
        <time>2022-05-27T13:01:06Z</time>
      </trkpt>
      <trkpt lat="44.38655" lon="3.55611">
        <ele>629</ele>
        <time>2022-05-27T13:01:07Z</time>
      </trkpt>
      <trkpt lat="44.38654" lon="3.5561">
        <ele>629</ele>
        <time>2022-05-27T13:01:08Z</time>
      </trkpt>
      <trkpt lat="44.38651" lon="3.55608">
        <ele>629</ele>
        <time>2022-05-27T13:01:09Z</time>
      </trkpt>
      <trkpt lat="44.38649" lon="3.55606">
        <ele>629</ele>
        <time>2022-05-27T13:01:10Z</time>
      </trkpt>
      <trkpt lat="44.38648" lon="3.55605">
        <ele>629</ele>
        <time>2022-05-27T13:01:11Z</time>
      </trkpt>
      <trkpt lat="44.38647" lon="3.55603">
        <ele>629</ele>
        <time>2022-05-27T13:01:12Z</time>
      </trkpt>
      <trkpt lat="44.38646" lon="3.55602">
        <ele>630</ele>
        <time>2022-05-27T13:01:13Z</time>
      </trkpt>
      <trkpt lat="44.38646" lon="3.55601">
        <ele>631</ele>
        <time>2022-05-27T13:01:14Z</time>
      </trkpt>
      <trkpt lat="44.38645" lon="3.55599">
        <ele>631</ele>
        <time>2022-05-27T13:01:15Z</time>
      </trkpt>
      <trkpt lat="44.38644" lon="3.55598">
        <ele>630</ele>
        <time>2022-05-27T13:01:16Z</time>
      </trkpt>
      <trkpt lat="44.38643" lon="3.55597">
        <ele>630</ele>
        <time>2022-05-27T13:01:17Z</time>
      </trkpt>
      <trkpt lat="44.38642" lon="3.55596">
        <ele>630</ele>
        <time>2022-05-27T13:01:18Z</time>
      </trkpt>
      <trkpt lat="44.38642" lon="3.55595">
        <ele>629</ele>
        <time>2022-05-27T13:01:19Z</time>
      </trkpt>
      <trkpt lat="44.38641" lon="3.55595">
        <ele>629</ele>
        <time>2022-05-27T13:01:20Z</time>
      </trkpt>
      <trkpt lat="44.3864" lon="3.55594">
        <ele>629</ele>
        <time>2022-05-27T13:01:21Z</time>
      </trkpt>
      <trkpt lat="44.38638" lon="3.55593">
        <ele>629</ele>
        <time>2022-05-27T13:01:22Z</time>
      </trkpt>
      <trkpt lat="44.38637" lon="3.55591">
        <ele>629</ele>
        <time>2022-05-27T13:01:23Z</time>
      </trkpt>
      <trkpt lat="44.38636" lon="3.55589">
        <ele>629</ele>
        <time>2022-05-27T13:01:24Z</time>
      </trkpt>
      <trkpt lat="44.38635" lon="3.55588">
        <ele>629</ele>
        <time>2022-05-27T13:01:25Z</time>
      </trkpt>
      <trkpt lat="44.38634" lon="3.55586">
        <ele>629</ele>
        <time>2022-05-27T13:01:26Z</time>
      </trkpt>
      <trkpt lat="44.38633" lon="3.55585">
        <ele>630</ele>
        <time>2022-05-27T13:01:27Z</time>
      </trkpt>
      <trkpt lat="44.38631" lon="3.55583">
        <ele>629</ele>
        <time>2022-05-27T13:01:28Z</time>
      </trkpt>
      <trkpt lat="44.3863" lon="3.55582">
        <ele>629</ele>
        <time>2022-05-27T13:01:29Z</time>
      </trkpt>
      <trkpt lat="44.3863" lon="3.55582">
        <ele>628</ele>
        <time>2022-05-27T13:01:30Z</time>
      </trkpt>
      <trkpt lat="44.38629" lon="3.55581">
        <ele>628</ele>
        <time>2022-05-27T13:01:31Z</time>
      </trkpt>
      <trkpt lat="44.38628" lon="3.5558">
        <ele>628</ele>
        <time>2022-05-27T13:01:32Z</time>
      </trkpt>
      <trkpt lat="44.38627" lon="3.55579">
        <ele>627</ele>
        <time>2022-05-27T13:01:33Z</time>
      </trkpt>
      <trkpt lat="44.38627" lon="3.55578">
        <ele>627</ele>
        <time>2022-05-27T13:01:34Z</time>
      </trkpt>
      <trkpt lat="44.38625" lon="3.55576">
        <ele>627</ele>
        <time>2022-05-27T13:01:35Z</time>
      </trkpt>
      <trkpt lat="44.38625" lon="3.55575">
        <ele>627</ele>
        <time>2022-05-27T13:01:36Z</time>
      </trkpt>
      <trkpt lat="44.38624" lon="3.55574">
        <ele>627</ele>
        <time>2022-05-27T13:01:37Z</time>
      </trkpt>
      <trkpt lat="44.38624" lon="3.55573">
        <ele>627</ele>
        <time>2022-05-27T13:01:38Z</time>
      </trkpt>
      <trkpt lat="44.38623" lon="3.55572">
        <ele>627</ele>
        <time>2022-05-27T13:01:39Z</time>
      </trkpt>
      <trkpt lat="44.38622" lon="3.55571">
        <ele>627</ele>
        <time>2022-05-27T13:01:40Z</time>
      </trkpt>
      <trkpt lat="44.38621" lon="3.55569">
        <ele>626</ele>
        <time>2022-05-27T13:01:41Z</time>
      </trkpt>
      <trkpt lat="44.3862" lon="3.55568">
        <ele>626</ele>
        <time>2022-05-27T13:01:42Z</time>
      </trkpt>
      <trkpt lat="44.3862" lon="3.55567">
        <ele>626</ele>
        <time>2022-05-27T13:01:43Z</time>
      </trkpt>
      <trkpt lat="44.3862" lon="3.55567">
        <ele>626</ele>
        <time>2022-05-27T13:01:44Z</time>
      </trkpt>
      <trkpt lat="44.38619" lon="3.55566">
        <ele>627</ele>
        <time>2022-05-27T13:01:45Z</time>
      </trkpt>
      <trkpt lat="44.38618" lon="3.55565">
        <ele>626</ele>
        <time>2022-05-27T13:01:46Z</time>
      </trkpt>
      <trkpt lat="44.38617" lon="3.55564">
        <ele>626</ele>
        <time>2022-05-27T13:01:47Z</time>
      </trkpt>
      <trkpt lat="44.38615" lon="3.55563">
        <ele>626</ele>
        <time>2022-05-27T13:01:48Z</time>
      </trkpt>
      <trkpt lat="44.38614" lon="3.55561">
        <ele>626</ele>
        <time>2022-05-27T13:01:49Z</time>
      </trkpt>
      <trkpt lat="44.38614" lon="3.55561">
        <ele>626</ele>
        <time>2022-05-27T13:01:50Z</time>
      </trkpt>
      <trkpt lat="44.38613" lon="3.5556">
        <ele>627</ele>
        <time>2022-05-27T13:01:51Z</time>
      </trkpt>
      <trkpt lat="44.38612" lon="3.55558">
        <ele>627</ele>
        <time>2022-05-27T13:01:52Z</time>
      </trkpt>
      <trkpt lat="44.38611" lon="3.55556">
        <ele>627</ele>
        <time>2022-05-27T13:01:53Z</time>
      </trkpt>
      <trkpt lat="44.3861" lon="3.55555">
        <ele>627</ele>
        <time>2022-05-27T13:01:54Z</time>
      </trkpt>
      <trkpt lat="44.3861" lon="3.55553">
        <ele>626</ele>
        <time>2022-05-27T13:01:55Z</time>
      </trkpt>
      <trkpt lat="44.38609" lon="3.55553">
        <ele>627</ele>
        <time>2022-05-27T13:01:56Z</time>
      </trkpt>
      <trkpt lat="44.38608" lon="3.55552">
        <ele>628</ele>
        <time>2022-05-27T13:01:57Z</time>
      </trkpt>
      <trkpt lat="44.38606" lon="3.55551">
        <ele>627</ele>
        <time>2022-05-27T13:01:58Z</time>
      </trkpt>
      <trkpt lat="44.38605" lon="3.5555">
        <ele>627</ele>
        <time>2022-05-27T13:01:59Z</time>
      </trkpt>
      <trkpt lat="44.38603" lon="3.5555">
        <ele>628</ele>
        <time>2022-05-27T13:02:00Z</time>
      </trkpt>
      <trkpt lat="44.38602" lon="3.55548">
        <ele>628</ele>
        <time>2022-05-27T13:02:01Z</time>
      </trkpt>
      <trkpt lat="44.38601" lon="3.55548">
        <ele>629</ele>
        <time>2022-05-27T13:02:02Z</time>
      </trkpt>
      <trkpt lat="44.38599" lon="3.55547">
        <ele>629</ele>
        <time>2022-05-27T13:02:03Z</time>
      </trkpt>
      <trkpt lat="44.38598" lon="3.55545">
        <ele>629</ele>
        <time>2022-05-27T13:02:04Z</time>
      </trkpt>
      <trkpt lat="44.38597" lon="3.55544">
        <ele>628</ele>
        <time>2022-05-27T13:02:05Z</time>
      </trkpt>
      <trkpt lat="44.38596" lon="3.55543">
        <ele>628</ele>
        <time>2022-05-27T13:02:06Z</time>
      </trkpt>
      <trkpt lat="44.38594" lon="3.55543">
        <ele>628</ele>
        <time>2022-05-27T13:02:07Z</time>
      </trkpt>
      <trkpt lat="44.38594" lon="3.55542">
        <ele>629</ele>
        <time>2022-05-27T13:02:08Z</time>
      </trkpt>
      <trkpt lat="44.38593" lon="3.55542">
        <ele>629</ele>
        <time>2022-05-27T13:02:09Z</time>
      </trkpt>
      <trkpt lat="44.38591" lon="3.5554">
        <ele>629</ele>
        <time>2022-05-27T13:02:10Z</time>
      </trkpt>
      <trkpt lat="44.3859" lon="3.5554">
        <ele>629</ele>
        <time>2022-05-27T13:02:11Z</time>
      </trkpt>
      <trkpt lat="44.38589" lon="3.55539">
        <ele>629</ele>
        <time>2022-05-27T13:02:12Z</time>
      </trkpt>
      <trkpt lat="44.38588" lon="3.55537">
        <ele>628</ele>
        <time>2022-05-27T13:02:13Z</time>
      </trkpt>
      <trkpt lat="44.38587" lon="3.55537">
        <ele>629</ele>
        <time>2022-05-27T13:02:14Z</time>
      </trkpt>
      <trkpt lat="44.38586" lon="3.55535">
        <ele>629</ele>
        <time>2022-05-27T13:02:15Z</time>
      </trkpt>
      <trkpt lat="44.38585" lon="3.55534">
        <ele>629</ele>
        <time>2022-05-27T13:02:16Z</time>
      </trkpt>
      <trkpt lat="44.38585" lon="3.55533">
        <ele>629</ele>
        <time>2022-05-27T13:02:17Z</time>
      </trkpt>
      <trkpt lat="44.38583" lon="3.55532">
        <ele>629</ele>
        <time>2022-05-27T13:02:18Z</time>
      </trkpt>
      <trkpt lat="44.38582" lon="3.55531">
        <ele>630</ele>
        <time>2022-05-27T13:02:19Z</time>
      </trkpt>
      <trkpt lat="44.38581" lon="3.55531">
        <ele>629</ele>
        <time>2022-05-27T13:02:20Z</time>
      </trkpt>
      <trkpt lat="44.3858" lon="3.5553">
        <ele>630</ele>
        <time>2022-05-27T13:02:21Z</time>
      </trkpt>
      <trkpt lat="44.38578" lon="3.55529">
        <ele>629</ele>
        <time>2022-05-27T13:02:22Z</time>
      </trkpt>
      <trkpt lat="44.38577" lon="3.55528">
        <ele>629</ele>
        <time>2022-05-27T13:02:23Z</time>
      </trkpt>
      <trkpt lat="44.38576" lon="3.55527">
        <ele>628</ele>
        <time>2022-05-27T13:02:24Z</time>
      </trkpt>
      <trkpt lat="44.38575" lon="3.55527">
        <ele>628</ele>
        <time>2022-05-27T13:02:25Z</time>
      </trkpt>
      <trkpt lat="44.38574" lon="3.55527">
        <ele>629</ele>
        <time>2022-05-27T13:02:26Z</time>
      </trkpt>
      <trkpt lat="44.38573" lon="3.55527">
        <ele>629</ele>
        <time>2022-05-27T13:02:27Z</time>
      </trkpt>
      <trkpt lat="44.38571" lon="3.55526">
        <ele>629</ele>
        <time>2022-05-27T13:02:28Z</time>
      </trkpt>
      <trkpt lat="44.38569" lon="3.55526">
        <ele>628</ele>
        <time>2022-05-27T13:02:29Z</time>
      </trkpt>
      <trkpt lat="44.38567" lon="3.55525">
        <ele>627</ele>
        <time>2022-05-27T13:02:30Z</time>
      </trkpt>
      <trkpt lat="44.38565" lon="3.55524">
        <ele>627</ele>
        <time>2022-05-27T13:02:31Z</time>
      </trkpt>
      <trkpt lat="44.38564" lon="3.55524">
        <ele>626</ele>
        <time>2022-05-27T13:02:32Z</time>
      </trkpt>
      <trkpt lat="44.38562" lon="3.55524">
        <ele>626</ele>
        <time>2022-05-27T13:02:33Z</time>
      </trkpt>
      <trkpt lat="44.3856" lon="3.55525">
        <ele>626</ele>
        <time>2022-05-27T13:02:34Z</time>
      </trkpt>
      <trkpt lat="44.38558" lon="3.55525">
        <ele>624</ele>
        <time>2022-05-27T13:02:35Z</time>
      </trkpt>
      <trkpt lat="44.38558" lon="3.55525">
        <ele>624</ele>
        <time>2022-05-27T13:02:36Z</time>
      </trkpt>
      <trkpt lat="44.38557" lon="3.55525">
        <ele>624</ele>
        <time>2022-05-27T13:02:37Z</time>
      </trkpt>
      <trkpt lat="44.38557" lon="3.55525">
        <ele>623</ele>
        <time>2022-05-27T13:02:38Z</time>
      </trkpt>
      <trkpt lat="44.38556" lon="3.55525">
        <ele>624</ele>
        <time>2022-05-27T13:02:39Z</time>
      </trkpt>
      <trkpt lat="44.38555" lon="3.55523">
        <ele>625</ele>
        <time>2022-05-27T13:02:40Z</time>
      </trkpt>
      <trkpt lat="44.38554" lon="3.55522">
        <ele>624</ele>
        <time>2022-05-27T13:02:41Z</time>
      </trkpt>
      <trkpt lat="44.38554" lon="3.55522">
        <ele>623</ele>
        <time>2022-05-27T13:02:42Z</time>
      </trkpt>
      <trkpt lat="44.38554" lon="3.55522">
        <ele>622</ele>
        <time>2022-05-27T13:02:43Z</time>
      </trkpt>
      <trkpt lat="44.38554" lon="3.55522">
        <ele>622</ele>
        <time>2022-05-27T13:02:44Z</time>
      </trkpt>
      <trkpt lat="44.38553" lon="3.55522">
        <ele>624</ele>
        <time>2022-05-27T13:02:45Z</time>
      </trkpt>
      <trkpt lat="44.38552" lon="3.55522">
        <ele>624</ele>
        <time>2022-05-27T13:02:46Z</time>
      </trkpt>
      <trkpt lat="44.38551" lon="3.55521">
        <ele>623</ele>
        <time>2022-05-27T13:02:47Z</time>
      </trkpt>
      <trkpt lat="44.3855" lon="3.55521">
        <ele>624</ele>
        <time>2022-05-27T13:02:48Z</time>
      </trkpt>
      <trkpt lat="44.38549" lon="3.5552">
        <ele>623</ele>
        <time>2022-05-27T13:02:49Z</time>
      </trkpt>
      <trkpt lat="44.38549" lon="3.5552">
        <ele>623</ele>
        <time>2022-05-27T13:02:50Z</time>
      </trkpt>
      <trkpt lat="44.38546" lon="3.5552">
        <ele>624</ele>
        <time>2022-05-27T13:02:51Z</time>
      </trkpt>
      <trkpt lat="44.38545" lon="3.5552">
        <ele>624</ele>
        <time>2022-05-27T13:02:52Z</time>
      </trkpt>
      <trkpt lat="44.38543" lon="3.5552">
        <ele>624</ele>
        <time>2022-05-27T13:02:53Z</time>
      </trkpt>
      <trkpt lat="44.38542" lon="3.55519">
        <ele>623</ele>
        <time>2022-05-27T13:02:54Z</time>
      </trkpt>
      <trkpt lat="44.38541" lon="3.55519">
        <ele>623</ele>
        <time>2022-05-27T13:02:55Z</time>
      </trkpt>
      <trkpt lat="44.3854" lon="3.55519">
        <ele>623</ele>
        <time>2022-05-27T13:02:56Z</time>
      </trkpt>
      <trkpt lat="44.38539" lon="3.5552">
        <ele>623</ele>
        <time>2022-05-27T13:02:57Z</time>
      </trkpt>
      <trkpt lat="44.38537" lon="3.5552">
        <ele>623</ele>
        <time>2022-05-27T13:02:58Z</time>
      </trkpt>
      <trkpt lat="44.38535" lon="3.55518">
        <ele>622</ele>
        <time>2022-05-27T13:02:59Z</time>
      </trkpt>
      <trkpt lat="44.38534" lon="3.55517">
        <ele>622</ele>
        <time>2022-05-27T13:03:00Z</time>
      </trkpt>
      <trkpt lat="44.38533" lon="3.55517">
        <ele>622</ele>
        <time>2022-05-27T13:03:01Z</time>
      </trkpt>
      <trkpt lat="44.38532" lon="3.55517">
        <ele>621</ele>
        <time>2022-05-27T13:03:02Z</time>
      </trkpt>
      <trkpt lat="44.3853" lon="3.55519">
        <ele>621</ele>
        <time>2022-05-27T13:03:03Z</time>
      </trkpt>
      <trkpt lat="44.3853" lon="3.55519">
        <ele>622</ele>
        <time>2022-05-27T13:03:04Z</time>
      </trkpt>
      <trkpt lat="44.38529" lon="3.55518">
        <ele>621</ele>
        <time>2022-05-27T13:03:05Z</time>
      </trkpt>
      <trkpt lat="44.38528" lon="3.55518">
        <ele>621</ele>
        <time>2022-05-27T13:03:06Z</time>
      </trkpt>
      <trkpt lat="44.38527" lon="3.55518">
        <ele>620</ele>
        <time>2022-05-27T13:03:07Z</time>
      </trkpt>
      <trkpt lat="44.38526" lon="3.55518">
        <ele>619</ele>
        <time>2022-05-27T13:03:08Z</time>
      </trkpt>
      <trkpt lat="44.38525" lon="3.55519">
        <ele>619</ele>
        <time>2022-05-27T13:03:09Z</time>
      </trkpt>
      <trkpt lat="44.38525" lon="3.55518">
        <ele>619</ele>
        <time>2022-05-27T13:03:10Z</time>
      </trkpt>
      <trkpt lat="44.38523" lon="3.55518">
        <ele>619</ele>
        <time>2022-05-27T13:03:11Z</time>
      </trkpt>
      <trkpt lat="44.38522" lon="3.55516">
        <ele>618</ele>
        <time>2022-05-27T13:03:12Z</time>
      </trkpt>
      <trkpt lat="44.38521" lon="3.55514">
        <ele>617</ele>
        <time>2022-05-27T13:03:13Z</time>
      </trkpt>
      <trkpt lat="44.3852" lon="3.55513">
        <ele>617</ele>
        <time>2022-05-27T13:03:14Z</time>
      </trkpt>
      <trkpt lat="44.38519" lon="3.55513">
        <ele>617</ele>
        <time>2022-05-27T13:03:15Z</time>
      </trkpt>
      <trkpt lat="44.38518" lon="3.55512">
        <ele>617</ele>
        <time>2022-05-27T13:03:16Z</time>
      </trkpt>
      <trkpt lat="44.38516" lon="3.55512">
        <ele>617</ele>
        <time>2022-05-27T13:03:17Z</time>
      </trkpt>
      <trkpt lat="44.38514" lon="3.55512">
        <ele>617</ele>
        <time>2022-05-27T13:03:18Z</time>
      </trkpt>
      <trkpt lat="44.38513" lon="3.55513">
        <ele>617</ele>
        <time>2022-05-27T13:03:19Z</time>
      </trkpt>
      <trkpt lat="44.38512" lon="3.55512">
        <ele>616</ele>
        <time>2022-05-27T13:03:20Z</time>
      </trkpt>
      <trkpt lat="44.38511" lon="3.55513">
        <ele>617</ele>
        <time>2022-05-27T13:03:21Z</time>
      </trkpt>
      <trkpt lat="44.3851" lon="3.55513">
        <ele>617</ele>
        <time>2022-05-27T13:03:22Z</time>
      </trkpt>
      <trkpt lat="44.38509" lon="3.55513">
        <ele>618</ele>
        <time>2022-05-27T13:03:23Z</time>
      </trkpt>
      <trkpt lat="44.38506" lon="3.55513">
        <ele>617</ele>
        <time>2022-05-27T13:03:24Z</time>
      </trkpt>
      <trkpt lat="44.38505" lon="3.55512">
        <ele>617</ele>
        <time>2022-05-27T13:03:25Z</time>
      </trkpt>
      <trkpt lat="44.38504" lon="3.55512">
        <ele>616</ele>
        <time>2022-05-27T13:03:26Z</time>
      </trkpt>
      <trkpt lat="44.38503" lon="3.55512">
        <ele>616</ele>
        <time>2022-05-27T13:03:27Z</time>
      </trkpt>
      <trkpt lat="44.38502" lon="3.55511">
        <ele>617</ele>
        <time>2022-05-27T13:03:28Z</time>
      </trkpt>
      <trkpt lat="44.385" lon="3.55511">
        <ele>618</ele>
        <time>2022-05-27T13:03:29Z</time>
      </trkpt>
      <trkpt lat="44.38499" lon="3.5551">
        <ele>617</ele>
        <time>2022-05-27T13:03:30Z</time>
      </trkpt>
      <trkpt lat="44.38497" lon="3.55509">
        <ele>616</ele>
        <time>2022-05-27T13:03:31Z</time>
      </trkpt>
      <trkpt lat="44.38495" lon="3.55509">
        <ele>616</ele>
        <time>2022-05-27T13:03:32Z</time>
      </trkpt>
      <trkpt lat="44.38495" lon="3.55509">
        <ele>615</ele>
        <time>2022-05-27T13:03:33Z</time>
      </trkpt>
      <trkpt lat="44.38495" lon="3.55508">
        <ele>616</ele>
        <time>2022-05-27T13:03:34Z</time>
      </trkpt>
      <trkpt lat="44.38494" lon="3.55508">
        <ele>617</ele>
        <time>2022-05-27T13:03:35Z</time>
      </trkpt>
      <trkpt lat="44.38492" lon="3.55507">
        <ele>616</ele>
        <time>2022-05-27T13:03:36Z</time>
      </trkpt>
      <trkpt lat="44.38491" lon="3.55506">
        <ele>616</ele>
        <time>2022-05-27T13:03:37Z</time>
      </trkpt>
      <trkpt lat="44.38489" lon="3.55506">
        <ele>616</ele>
        <time>2022-05-27T13:03:38Z</time>
      </trkpt>
      <trkpt lat="44.38488" lon="3.55505">
        <ele>615</ele>
        <time>2022-05-27T13:03:39Z</time>
      </trkpt>
      <trkpt lat="44.38487" lon="3.55505">
        <ele>617</ele>
        <time>2022-05-27T13:03:40Z</time>
      </trkpt>
      <trkpt lat="44.38486" lon="3.55503">
        <ele>618</ele>
        <time>2022-05-27T13:03:41Z</time>
      </trkpt>
      <trkpt lat="44.38484" lon="3.55503">
        <ele>618</ele>
        <time>2022-05-27T13:03:42Z</time>
      </trkpt>
      <trkpt lat="44.38483" lon="3.55503">
        <ele>617</ele>
        <time>2022-05-27T13:03:43Z</time>
      </trkpt>
      <trkpt lat="44.38482" lon="3.55502">
        <ele>618</ele>
        <time>2022-05-27T13:03:44Z</time>
      </trkpt>
      <trkpt lat="44.38481" lon="3.55502">
        <ele>618</ele>
        <time>2022-05-27T13:03:45Z</time>
      </trkpt>
      <trkpt lat="44.38481" lon="3.55501">
        <ele>619</ele>
        <time>2022-05-27T13:03:46Z</time>
      </trkpt>
      <trkpt lat="44.38482" lon="3.55501">
        <ele>619</ele>
        <time>2022-05-27T13:03:47Z</time>
      </trkpt>
      <trkpt lat="44.3848" lon="3.555">
        <ele>618</ele>
        <time>2022-05-27T13:03:48Z</time>
      </trkpt>
      <trkpt lat="44.38479" lon="3.555">
        <ele>617</ele>
        <time>2022-05-27T13:03:49Z</time>
      </trkpt>
      <trkpt lat="44.38477" lon="3.555">
        <ele>617</ele>
        <time>2022-05-27T13:03:50Z</time>
      </trkpt>
      <trkpt lat="44.38475" lon="3.55498">
        <ele>617</ele>
        <time>2022-05-27T13:03:51Z</time>
      </trkpt>
      <trkpt lat="44.38474" lon="3.55497">
        <ele>616</ele>
        <time>2022-05-27T13:03:52Z</time>
      </trkpt>
      <trkpt lat="44.38472" lon="3.55497">
        <ele>616</ele>
        <time>2022-05-27T13:03:53Z</time>
      </trkpt>
      <trkpt lat="44.38471" lon="3.55496">
        <ele>616</ele>
        <time>2022-05-27T13:03:54Z</time>
      </trkpt>
      <trkpt lat="44.38469" lon="3.55496">
        <ele>616</ele>
        <time>2022-05-27T13:03:55Z</time>
      </trkpt>
      <trkpt lat="44.38468" lon="3.55495">
        <ele>616</ele>
        <time>2022-05-27T13:03:56Z</time>
      </trkpt>
      <trkpt lat="44.38467" lon="3.55495">
        <ele>617</ele>
        <time>2022-05-27T13:03:57Z</time>
      </trkpt>
      <trkpt lat="44.38467" lon="3.55494">
        <ele>618</ele>
        <time>2022-05-27T13:03:58Z</time>
      </trkpt>
      <trkpt lat="44.38466" lon="3.55493">
        <ele>620</ele>
        <time>2022-05-27T13:03:59Z</time>
      </trkpt>
      <trkpt lat="44.38466" lon="3.55493">
        <ele>621</ele>
        <time>2022-05-27T13:04:00Z</time>
      </trkpt>
      <trkpt lat="44.38464" lon="3.55493">
        <ele>621</ele>
        <time>2022-05-27T13:04:01Z</time>
      </trkpt>
      <trkpt lat="44.38463" lon="3.55493">
        <ele>620</ele>
        <time>2022-05-27T13:04:02Z</time>
      </trkpt>
      <trkpt lat="44.38462" lon="3.55493">
        <ele>620</ele>
        <time>2022-05-27T13:04:03Z</time>
      </trkpt>
      <trkpt lat="44.38461" lon="3.55494">
        <ele>620</ele>
        <time>2022-05-27T13:04:04Z</time>
      </trkpt>
      <trkpt lat="44.38461" lon="3.55494">
        <ele>620</ele>
        <time>2022-05-27T13:04:05Z</time>
      </trkpt>
      <trkpt lat="44.38459" lon="3.55494">
        <ele>620</ele>
        <time>2022-05-27T13:04:06Z</time>
      </trkpt>
      <trkpt lat="44.38457" lon="3.55493">
        <ele>620</ele>
        <time>2022-05-27T13:04:07Z</time>
      </trkpt>
      <trkpt lat="44.38455" lon="3.55492">
        <ele>620</ele>
        <time>2022-05-27T13:04:08Z</time>
      </trkpt>
      <trkpt lat="44.38453" lon="3.55492">
        <ele>619</ele>
        <time>2022-05-27T13:04:09Z</time>
      </trkpt>
      <trkpt lat="44.38452" lon="3.55491">
        <ele>620</ele>
        <time>2022-05-27T13:04:10Z</time>
      </trkpt>
      <trkpt lat="44.38451" lon="3.55491">
        <ele>620</ele>
        <time>2022-05-27T13:04:11Z</time>
      </trkpt>
      <trkpt lat="44.3845" lon="3.5549">
        <ele>620</ele>
        <time>2022-05-27T13:04:12Z</time>
      </trkpt>
      <trkpt lat="44.38448" lon="3.55489">
        <ele>620</ele>
        <time>2022-05-27T13:04:13Z</time>
      </trkpt>
      <trkpt lat="44.38447" lon="3.55488">
        <ele>620</ele>
        <time>2022-05-27T13:04:14Z</time>
      </trkpt>
      <trkpt lat="44.38446" lon="3.55488">
        <ele>621</ele>
        <time>2022-05-27T13:04:15Z</time>
      </trkpt>
      <trkpt lat="44.38445" lon="3.55485">
        <ele>620</ele>
        <time>2022-05-27T13:04:16Z</time>
      </trkpt>
      <trkpt lat="44.38444" lon="3.55483">
        <ele>621</ele>
        <time>2022-05-27T13:04:17Z</time>
      </trkpt>
      <trkpt lat="44.38443" lon="3.55481">
        <ele>621</ele>
        <time>2022-05-27T13:04:18Z</time>
      </trkpt>
      <trkpt lat="44.38443" lon="3.55479">
        <ele>620</ele>
        <time>2022-05-27T13:04:19Z</time>
      </trkpt>
      <trkpt lat="44.38442" lon="3.55477">
        <ele>620</ele>
        <time>2022-05-27T13:04:20Z</time>
      </trkpt>
      <trkpt lat="44.38442" lon="3.55476">
        <ele>620</ele>
        <time>2022-05-27T13:04:21Z</time>
      </trkpt>
      <trkpt lat="44.38441" lon="3.55475">
        <ele>621</ele>
        <time>2022-05-27T13:04:22Z</time>
      </trkpt>
      <trkpt lat="44.38441" lon="3.55473">
        <ele>622</ele>
        <time>2022-05-27T13:04:23Z</time>
      </trkpt>
      <trkpt lat="44.3844" lon="3.55471">
        <ele>623</ele>
        <time>2022-05-27T13:04:24Z</time>
      </trkpt>
      <trkpt lat="44.38438" lon="3.55468">
        <ele>622</ele>
        <time>2022-05-27T13:04:25Z</time>
      </trkpt>
      <trkpt lat="44.38437" lon="3.55466">
        <ele>620</ele>
        <time>2022-05-27T13:04:26Z</time>
      </trkpt>
      <trkpt lat="44.38436" lon="3.55465">
        <ele>620</ele>
        <time>2022-05-27T13:04:27Z</time>
      </trkpt>
      <trkpt lat="44.38435" lon="3.55464">
        <ele>619</ele>
        <time>2022-05-27T13:04:28Z</time>
      </trkpt>
      <trkpt lat="44.38434" lon="3.55463">
        <ele>620</ele>
        <time>2022-05-27T13:04:29Z</time>
      </trkpt>
      <trkpt lat="44.38434" lon="3.55462">
        <ele>621</ele>
        <time>2022-05-27T13:04:30Z</time>
      </trkpt>
      <trkpt lat="44.38432" lon="3.5546">
        <ele>620</ele>
        <time>2022-05-27T13:04:31Z</time>
      </trkpt>
      <trkpt lat="44.3843" lon="3.55459">
        <ele>620</ele>
        <time>2022-05-27T13:04:32Z</time>
      </trkpt>
      <trkpt lat="44.38429" lon="3.55458">
        <ele>620</ele>
        <time>2022-05-27T13:04:33Z</time>
      </trkpt>
      <trkpt lat="44.38428" lon="3.55457">
        <ele>619</ele>
        <time>2022-05-27T13:04:34Z</time>
      </trkpt>
      <trkpt lat="44.38428" lon="3.55456">
        <ele>620</ele>
        <time>2022-05-27T13:04:35Z</time>
      </trkpt>
      <trkpt lat="44.38427" lon="3.55455">
        <ele>620</ele>
        <time>2022-05-27T13:04:36Z</time>
      </trkpt>
      <trkpt lat="44.38426" lon="3.55455">
        <ele>619</ele>
        <time>2022-05-27T13:04:37Z</time>
      </trkpt>
      <trkpt lat="44.38425" lon="3.55453">
        <ele>619</ele>
        <time>2022-05-27T13:04:38Z</time>
      </trkpt>
      <trkpt lat="44.38424" lon="3.55452">
        <ele>618</ele>
        <time>2022-05-27T13:04:39Z</time>
      </trkpt>
      <trkpt lat="44.38423" lon="3.55451">
        <ele>617</ele>
        <time>2022-05-27T13:04:40Z</time>
      </trkpt>
      <trkpt lat="44.38422" lon="3.5545">
        <ele>616</ele>
        <time>2022-05-27T13:04:41Z</time>
      </trkpt>
      <trkpt lat="44.38421" lon="3.55448">
        <ele>615</ele>
        <time>2022-05-27T13:04:42Z</time>
      </trkpt>
      <trkpt lat="44.38421" lon="3.55446">
        <ele>615</ele>
        <time>2022-05-27T13:04:43Z</time>
      </trkpt>
      <trkpt lat="44.38419" lon="3.55445">
        <ele>615</ele>
        <time>2022-05-27T13:04:44Z</time>
      </trkpt>
      <trkpt lat="44.38419" lon="3.55444">
        <ele>615</ele>
        <time>2022-05-27T13:04:45Z</time>
      </trkpt>
      <trkpt lat="44.38417" lon="3.55443">
        <ele>614</ele>
        <time>2022-05-27T13:04:46Z</time>
      </trkpt>
      <trkpt lat="44.38416" lon="3.55442">
        <ele>614</ele>
        <time>2022-05-27T13:04:47Z</time>
      </trkpt>
      <trkpt lat="44.38416" lon="3.5544">
        <ele>614</ele>
        <time>2022-05-27T13:04:48Z</time>
      </trkpt>
      <trkpt lat="44.38416" lon="3.55439">
        <ele>614</ele>
        <time>2022-05-27T13:04:49Z</time>
      </trkpt>
      <trkpt lat="44.38415" lon="3.55437">
        <ele>614</ele>
        <time>2022-05-27T13:04:50Z</time>
      </trkpt>
      <trkpt lat="44.38414" lon="3.55436">
        <ele>613</ele>
        <time>2022-05-27T13:04:51Z</time>
      </trkpt>
      <trkpt lat="44.38414" lon="3.55435">
        <ele>613</ele>
        <time>2022-05-27T13:04:52Z</time>
      </trkpt>
      <trkpt lat="44.38413" lon="3.55433">
        <ele>614</ele>
        <time>2022-05-27T13:04:53Z</time>
      </trkpt>
      <trkpt lat="44.38413" lon="3.55432">
        <ele>614</ele>
        <time>2022-05-27T13:04:54Z</time>
      </trkpt>
      <trkpt lat="44.38412" lon="3.55431">
        <ele>614</ele>
        <time>2022-05-27T13:04:55Z</time>
      </trkpt>
      <trkpt lat="44.38412" lon="3.5543">
        <ele>615</ele>
        <time>2022-05-27T13:04:56Z</time>
      </trkpt>
      <trkpt lat="44.38411" lon="3.55429">
        <ele>614</ele>
        <time>2022-05-27T13:04:57Z</time>
      </trkpt>
      <trkpt lat="44.38409" lon="3.55427">
        <ele>614</ele>
        <time>2022-05-27T13:04:58Z</time>
      </trkpt>
      <trkpt lat="44.38408" lon="3.55426">
        <ele>613</ele>
        <time>2022-05-27T13:04:59Z</time>
      </trkpt>
      <trkpt lat="44.38407" lon="3.55426">
        <ele>612</ele>
        <time>2022-05-27T13:05:00Z</time>
      </trkpt>
      <trkpt lat="44.38406" lon="3.55425">
        <ele>612</ele>
        <time>2022-05-27T13:05:01Z</time>
      </trkpt>
      <trkpt lat="44.38405" lon="3.55424">
        <ele>612</ele>
        <time>2022-05-27T13:05:02Z</time>
      </trkpt>
      <trkpt lat="44.38404" lon="3.55424">
        <ele>612</ele>
        <time>2022-05-27T13:05:03Z</time>
      </trkpt>
      <trkpt lat="44.38403" lon="3.55424">
        <ele>612</ele>
        <time>2022-05-27T13:05:04Z</time>
      </trkpt>
      <trkpt lat="44.38402" lon="3.55423">
        <ele>612</ele>
        <time>2022-05-27T13:05:05Z</time>
      </trkpt>
      <trkpt lat="44.38401" lon="3.55422">
        <ele>613</ele>
        <time>2022-05-27T13:05:06Z</time>
      </trkpt>
      <trkpt lat="44.384" lon="3.55422">
        <ele>613</ele>
        <time>2022-05-27T13:05:07Z</time>
      </trkpt>
      <trkpt lat="44.38399" lon="3.55422">
        <ele>613</ele>
        <time>2022-05-27T13:05:08Z</time>
      </trkpt>
      <trkpt lat="44.38398" lon="3.55421">
        <ele>613</ele>
        <time>2022-05-27T13:05:09Z</time>
      </trkpt>
      <trkpt lat="44.38398" lon="3.55421">
        <ele>613</ele>
        <time>2022-05-27T13:05:10Z</time>
      </trkpt>
      <trkpt lat="44.38397" lon="3.55421">
        <ele>613</ele>
        <time>2022-05-27T13:05:11Z</time>
      </trkpt>
      <trkpt lat="44.38395" lon="3.55421">
        <ele>613</ele>
        <time>2022-05-27T13:05:12Z</time>
      </trkpt>
      <trkpt lat="44.38394" lon="3.5542">
        <ele>613</ele>
        <time>2022-05-27T13:05:13Z</time>
      </trkpt>
      <trkpt lat="44.38393" lon="3.5542">
        <ele>613</ele>
        <time>2022-05-27T13:05:14Z</time>
      </trkpt>
      <trkpt lat="44.38392" lon="3.55419">
        <ele>613</ele>
        <time>2022-05-27T13:05:15Z</time>
      </trkpt>
      <trkpt lat="44.3839" lon="3.55419">
        <ele>613</ele>
        <time>2022-05-27T13:05:16Z</time>
      </trkpt>
      <trkpt lat="44.38389" lon="3.55419">
        <ele>613</ele>
        <time>2022-05-27T13:05:17Z</time>
      </trkpt>
      <trkpt lat="44.38388" lon="3.55419">
        <ele>612</ele>
        <time>2022-05-27T13:05:18Z</time>
      </trkpt>
      <trkpt lat="44.38387" lon="3.55418">
        <ele>613</ele>
        <time>2022-05-27T13:05:19Z</time>
      </trkpt>
      <trkpt lat="44.38386" lon="3.55419">
        <ele>613</ele>
        <time>2022-05-27T13:05:20Z</time>
      </trkpt>
      <trkpt lat="44.38385" lon="3.55419">
        <ele>613</ele>
        <time>2022-05-27T13:05:21Z</time>
      </trkpt>
      <trkpt lat="44.38384" lon="3.55419">
        <ele>613</ele>
        <time>2022-05-27T13:05:22Z</time>
      </trkpt>
      <trkpt lat="44.38383" lon="3.55419">
        <ele>613</ele>
        <time>2022-05-27T13:05:23Z</time>
      </trkpt>
      <trkpt lat="44.38382" lon="3.55418">
        <ele>612</ele>
        <time>2022-05-27T13:05:24Z</time>
      </trkpt>
      <trkpt lat="44.38381" lon="3.55418">
        <ele>613</ele>
        <time>2022-05-27T13:05:25Z</time>
      </trkpt>
      <trkpt lat="44.3838" lon="3.55418">
        <ele>612</ele>
        <time>2022-05-27T13:05:26Z</time>
      </trkpt>
      <trkpt lat="44.38379" lon="3.55418">
        <ele>612</ele>
        <time>2022-05-27T13:05:27Z</time>
      </trkpt>
      <trkpt lat="44.38377" lon="3.55417">
        <ele>613</ele>
        <time>2022-05-27T13:05:28Z</time>
      </trkpt>
      <trkpt lat="44.38376" lon="3.55417">
        <ele>613</ele>
        <time>2022-05-27T13:05:29Z</time>
      </trkpt>
      <trkpt lat="44.38375" lon="3.55417">
        <ele>613</ele>
        <time>2022-05-27T13:05:30Z</time>
      </trkpt>
      <trkpt lat="44.38374" lon="3.55416">
        <ele>613</ele>
        <time>2022-05-27T13:05:31Z</time>
      </trkpt>
      <trkpt lat="44.38373" lon="3.55416">
        <ele>613</ele>
        <time>2022-05-27T13:05:32Z</time>
      </trkpt>
      <trkpt lat="44.38372" lon="3.55416">
        <ele>613</ele>
        <time>2022-05-27T13:05:33Z</time>
      </trkpt>
      <trkpt lat="44.38371" lon="3.55416">
        <ele>614</ele>
        <time>2022-05-27T13:05:34Z</time>
      </trkpt>
      <trkpt lat="44.38369" lon="3.55416">
        <ele>614</ele>
        <time>2022-05-27T13:05:35Z</time>
      </trkpt>
      <trkpt lat="44.38368" lon="3.55415">
        <ele>614</ele>
        <time>2022-05-27T13:05:36Z</time>
      </trkpt>
      <trkpt lat="44.38367" lon="3.55415">
        <ele>614</ele>
        <time>2022-05-27T13:05:37Z</time>
      </trkpt>
      <trkpt lat="44.38366" lon="3.55415">
        <ele>615</ele>
        <time>2022-05-27T13:05:38Z</time>
      </trkpt>
      <trkpt lat="44.38365" lon="3.55415">
        <ele>615</ele>
        <time>2022-05-27T13:05:39Z</time>
      </trkpt>
      <trkpt lat="44.38364" lon="3.55414">
        <ele>615</ele>
        <time>2022-05-27T13:05:40Z</time>
      </trkpt>
      <trkpt lat="44.38363" lon="3.55414">
        <ele>616</ele>
        <time>2022-05-27T13:05:41Z</time>
      </trkpt>
      <trkpt lat="44.38362" lon="3.55414">
        <ele>616</ele>
        <time>2022-05-27T13:05:42Z</time>
      </trkpt>
      <trkpt lat="44.38361" lon="3.55414">
        <ele>616</ele>
        <time>2022-05-27T13:05:43Z</time>
      </trkpt>
      <trkpt lat="44.38359" lon="3.55414">
        <ele>616</ele>
        <time>2022-05-27T13:05:44Z</time>
      </trkpt>
      <trkpt lat="44.38358" lon="3.55414">
        <ele>616</ele>
        <time>2022-05-27T13:05:45Z</time>
      </trkpt>
      <trkpt lat="44.38356" lon="3.55414">
        <ele>616</ele>
        <time>2022-05-27T13:05:46Z</time>
      </trkpt>
      <trkpt lat="44.38356" lon="3.55413">
        <ele>616</ele>
        <time>2022-05-27T13:05:47Z</time>
      </trkpt>
      <trkpt lat="44.38355" lon="3.55413">
        <ele>615</ele>
        <time>2022-05-27T13:05:48Z</time>
      </trkpt>
      <trkpt lat="44.38353" lon="3.55413">
        <ele>616</ele>
        <time>2022-05-27T13:05:49Z</time>
      </trkpt>
      <trkpt lat="44.38352" lon="3.55412">
        <ele>615</ele>
        <time>2022-05-27T13:05:50Z</time>
      </trkpt>
      <trkpt lat="44.3835" lon="3.55412">
        <ele>616</ele>
        <time>2022-05-27T13:05:51Z</time>
      </trkpt>
      <trkpt lat="44.38349" lon="3.55412">
        <ele>616</ele>
        <time>2022-05-27T13:05:52Z</time>
      </trkpt>
      <trkpt lat="44.38348" lon="3.55412">
        <ele>616</ele>
        <time>2022-05-27T13:05:53Z</time>
      </trkpt>
      <trkpt lat="44.38346" lon="3.55412">
        <ele>616</ele>
        <time>2022-05-27T13:05:54Z</time>
      </trkpt>
      <trkpt lat="44.38345" lon="3.55413">
        <ele>616</ele>
        <time>2022-05-27T13:05:55Z</time>
      </trkpt>
      <trkpt lat="44.38344" lon="3.55412">
        <ele>616</ele>
        <time>2022-05-27T13:05:56Z</time>
      </trkpt>
      <trkpt lat="44.38343" lon="3.55412">
        <ele>616</ele>
        <time>2022-05-27T13:05:57Z</time>
      </trkpt>
      <trkpt lat="44.38342" lon="3.55411">
        <ele>616</ele>
        <time>2022-05-27T13:05:58Z</time>
      </trkpt>
      <trkpt lat="44.38341" lon="3.55411">
        <ele>615</ele>
        <time>2022-05-27T13:05:59Z</time>
      </trkpt>
      <trkpt lat="44.3834" lon="3.55411">
        <ele>615</ele>
        <time>2022-05-27T13:06:00Z</time>
      </trkpt>
      <trkpt lat="44.38339" lon="3.55411">
        <ele>616</ele>
        <time>2022-05-27T13:06:01Z</time>
      </trkpt>
      <trkpt lat="44.38337" lon="3.55411">
        <ele>616</ele>
        <time>2022-05-27T13:06:02Z</time>
      </trkpt>
      <trkpt lat="44.38336" lon="3.55411">
        <ele>616</ele>
        <time>2022-05-27T13:06:03Z</time>
      </trkpt>
      <trkpt lat="44.38335" lon="3.55411">
        <ele>616</ele>
        <time>2022-05-27T13:06:04Z</time>
      </trkpt>
      <trkpt lat="44.38334" lon="3.5541">
        <ele>616</ele>
        <time>2022-05-27T13:06:05Z</time>
      </trkpt>
      <trkpt lat="44.38333" lon="3.5541">
        <ele>615</ele>
        <time>2022-05-27T13:06:06Z</time>
      </trkpt>
      <trkpt lat="44.38332" lon="3.55411">
        <ele>615</ele>
        <time>2022-05-27T13:06:07Z</time>
      </trkpt>
      <trkpt lat="44.38331" lon="3.55411">
        <ele>616</ele>
        <time>2022-05-27T13:06:08Z</time>
      </trkpt>
      <trkpt lat="44.3833" lon="3.55411">
        <ele>616</ele>
        <time>2022-05-27T13:06:09Z</time>
      </trkpt>
      <trkpt lat="44.38328" lon="3.55411">
        <ele>617</ele>
        <time>2022-05-27T13:06:10Z</time>
      </trkpt>
      <trkpt lat="44.38326" lon="3.55412">
        <ele>617</ele>
        <time>2022-05-27T13:06:11Z</time>
      </trkpt>
      <trkpt lat="44.38325" lon="3.55412">
        <ele>617</ele>
        <time>2022-05-27T13:06:12Z</time>
      </trkpt>
      <trkpt lat="44.38324" lon="3.55412">
        <ele>617</ele>
        <time>2022-05-27T13:06:13Z</time>
      </trkpt>
      <trkpt lat="44.38323" lon="3.55412">
        <ele>617</ele>
        <time>2022-05-27T13:06:14Z</time>
      </trkpt>
      <trkpt lat="44.38322" lon="3.55412">
        <ele>617</ele>
        <time>2022-05-27T13:06:15Z</time>
      </trkpt>
      <trkpt lat="44.3832" lon="3.55412">
        <ele>617</ele>
        <time>2022-05-27T13:06:16Z</time>
      </trkpt>
      <trkpt lat="44.38318" lon="3.55412">
        <ele>617</ele>
        <time>2022-05-27T13:06:17Z</time>
      </trkpt>
      <trkpt lat="44.38317" lon="3.55412">
        <ele>617</ele>
        <time>2022-05-27T13:06:18Z</time>
      </trkpt>
      <trkpt lat="44.38316" lon="3.55411">
        <ele>617</ele>
        <time>2022-05-27T13:06:19Z</time>
      </trkpt>
      <trkpt lat="44.38314" lon="3.55411">
        <ele>617</ele>
        <time>2022-05-27T13:06:20Z</time>
      </trkpt>
      <trkpt lat="44.38313" lon="3.5541">
        <ele>617</ele>
        <time>2022-05-27T13:06:21Z</time>
      </trkpt>
      <trkpt lat="44.38311" lon="3.55411">
        <ele>617</ele>
        <time>2022-05-27T13:06:22Z</time>
      </trkpt>
      <trkpt lat="44.38309" lon="3.5541">
        <ele>617</ele>
        <time>2022-05-27T13:06:23Z</time>
      </trkpt>
      <trkpt lat="44.38308" lon="3.55409">
        <ele>617</ele>
        <time>2022-05-27T13:06:24Z</time>
      </trkpt>
      <trkpt lat="44.38306" lon="3.55409">
        <ele>617</ele>
        <time>2022-05-27T13:06:25Z</time>
      </trkpt>
      <trkpt lat="44.38305" lon="3.55408">
        <ele>617</ele>
        <time>2022-05-27T13:06:26Z</time>
      </trkpt>
      <trkpt lat="44.38304" lon="3.55409">
        <ele>617</ele>
        <time>2022-05-27T13:06:27Z</time>
      </trkpt>
      <trkpt lat="44.38303" lon="3.55408">
        <ele>617</ele>
        <time>2022-05-27T13:06:28Z</time>
      </trkpt>
      <trkpt lat="44.38302" lon="3.55407">
        <ele>617</ele>
        <time>2022-05-27T13:06:29Z</time>
      </trkpt>
      <trkpt lat="44.383" lon="3.55406">
        <ele>617</ele>
        <time>2022-05-27T13:06:30Z</time>
      </trkpt>
      <trkpt lat="44.38298" lon="3.55405">
        <ele>617</ele>
        <time>2022-05-27T13:06:31Z</time>
      </trkpt>
      <trkpt lat="44.38297" lon="3.55404">
        <ele>617</ele>
        <time>2022-05-27T13:06:32Z</time>
      </trkpt>
      <trkpt lat="44.38295" lon="3.55403">
        <ele>616</ele>
        <time>2022-05-27T13:06:33Z</time>
      </trkpt>
      <trkpt lat="44.38294" lon="3.55402">
        <ele>616</ele>
        <time>2022-05-27T13:06:34Z</time>
      </trkpt>
      <trkpt lat="44.38293" lon="3.55401">
        <ele>616</ele>
        <time>2022-05-27T13:06:35Z</time>
      </trkpt>
      <trkpt lat="44.38291" lon="3.55401">
        <ele>616</ele>
        <time>2022-05-27T13:06:36Z</time>
      </trkpt>
      <trkpt lat="44.38289" lon="3.554">
        <ele>616</ele>
        <time>2022-05-27T13:06:37Z</time>
      </trkpt>
      <trkpt lat="44.38288" lon="3.55399">
        <ele>616</ele>
        <time>2022-05-27T13:06:38Z</time>
      </trkpt>
      <trkpt lat="44.38287" lon="3.55398">
        <ele>617</ele>
        <time>2022-05-27T13:06:39Z</time>
      </trkpt>
      <trkpt lat="44.38285" lon="3.55397">
        <ele>617</ele>
        <time>2022-05-27T13:06:40Z</time>
      </trkpt>
      <trkpt lat="44.38284" lon="3.55396">
        <ele>617</ele>
        <time>2022-05-27T13:06:41Z</time>
      </trkpt>
      <trkpt lat="44.38283" lon="3.55396">
        <ele>617</ele>
        <time>2022-05-27T13:06:42Z</time>
      </trkpt>
      <trkpt lat="44.38282" lon="3.55395">
        <ele>617</ele>
        <time>2022-05-27T13:06:43Z</time>
      </trkpt>
      <trkpt lat="44.38281" lon="3.55394">
        <ele>617</ele>
        <time>2022-05-27T13:06:44Z</time>
      </trkpt>
      <trkpt lat="44.3828" lon="3.55393">
        <ele>617</ele>
        <time>2022-05-27T13:06:45Z</time>
      </trkpt>
      <trkpt lat="44.38279" lon="3.55392">
        <ele>618</ele>
        <time>2022-05-27T13:06:46Z</time>
      </trkpt>
      <trkpt lat="44.38278" lon="3.55391">
        <ele>617</ele>
        <time>2022-05-27T13:06:47Z</time>
      </trkpt>
      <trkpt lat="44.38277" lon="3.5539">
        <ele>617</ele>
        <time>2022-05-27T13:06:48Z</time>
      </trkpt>
      <trkpt lat="44.38276" lon="3.55389">
        <ele>617</ele>
        <time>2022-05-27T13:06:49Z</time>
      </trkpt>
      <trkpt lat="44.38274" lon="3.55388">
        <ele>617</ele>
        <time>2022-05-27T13:06:50Z</time>
      </trkpt>
      <trkpt lat="44.38273" lon="3.55387">
        <ele>617</ele>
        <time>2022-05-27T13:06:51Z</time>
      </trkpt>
      <trkpt lat="44.38272" lon="3.55387">
        <ele>617</ele>
        <time>2022-05-27T13:06:52Z</time>
      </trkpt>
      <trkpt lat="44.38271" lon="3.55385">
        <ele>617</ele>
        <time>2022-05-27T13:06:53Z</time>
      </trkpt>
      <trkpt lat="44.38269" lon="3.55384">
        <ele>617</ele>
        <time>2022-05-27T13:06:54Z</time>
      </trkpt>
      <trkpt lat="44.38268" lon="3.55383">
        <ele>616</ele>
        <time>2022-05-27T13:06:55Z</time>
      </trkpt>
      <trkpt lat="44.38268" lon="3.55381">
        <ele>616</ele>
        <time>2022-05-27T13:06:56Z</time>
      </trkpt>
      <trkpt lat="44.38266" lon="3.5538">
        <ele>615</ele>
        <time>2022-05-27T13:06:57Z</time>
      </trkpt>
      <trkpt lat="44.38265" lon="3.55379">
        <ele>615</ele>
        <time>2022-05-27T13:06:58Z</time>
      </trkpt>
      <trkpt lat="44.38264" lon="3.55378">
        <ele>615</ele>
        <time>2022-05-27T13:06:59Z</time>
      </trkpt>
      <trkpt lat="44.38263" lon="3.55377">
        <ele>615</ele>
        <time>2022-05-27T13:07:00Z</time>
      </trkpt>
      <trkpt lat="44.38262" lon="3.55376">
        <ele>615</ele>
        <time>2022-05-27T13:07:01Z</time>
      </trkpt>
      <trkpt lat="44.38261" lon="3.55375">
        <ele>614</ele>
        <time>2022-05-27T13:07:02Z</time>
      </trkpt>
      <trkpt lat="44.3826" lon="3.55374">
        <ele>614</ele>
        <time>2022-05-27T13:07:03Z</time>
      </trkpt>
      <trkpt lat="44.38259" lon="3.55373">
        <ele>614</ele>
        <time>2022-05-27T13:07:04Z</time>
      </trkpt>
      <trkpt lat="44.38258" lon="3.55372">
        <ele>614</ele>
        <time>2022-05-27T13:07:05Z</time>
      </trkpt>
      <trkpt lat="44.38257" lon="3.55371">
        <ele>613</ele>
        <time>2022-05-27T13:07:06Z</time>
      </trkpt>
      <trkpt lat="44.38256" lon="3.5537">
        <ele>613</ele>
        <time>2022-05-27T13:07:07Z</time>
      </trkpt>
      <trkpt lat="44.38255" lon="3.55369">
        <ele>613</ele>
        <time>2022-05-27T13:07:08Z</time>
      </trkpt>
      <trkpt lat="44.38255" lon="3.55369">
        <ele>613</ele>
        <time>2022-05-27T13:07:09Z</time>
      </trkpt>
      <trkpt lat="44.38254" lon="3.55368">
        <ele>613</ele>
        <time>2022-05-27T13:07:10Z</time>
      </trkpt>
      <trkpt lat="44.38253" lon="3.55367">
        <ele>613</ele>
        <time>2022-05-27T13:07:11Z</time>
      </trkpt>
      <trkpt lat="44.38252" lon="3.55366">
        <ele>613</ele>
        <time>2022-05-27T13:07:12Z</time>
      </trkpt>
      <trkpt lat="44.38251" lon="3.55365">
        <ele>613</ele>
        <time>2022-05-27T13:07:13Z</time>
      </trkpt>
      <trkpt lat="44.3825" lon="3.55364">
        <ele>613</ele>
        <time>2022-05-27T13:07:14Z</time>
      </trkpt>
      <trkpt lat="44.3825" lon="3.55362">
        <ele>613</ele>
        <time>2022-05-27T13:07:15Z</time>
      </trkpt>
      <trkpt lat="44.38248" lon="3.55361">
        <ele>612</ele>
        <time>2022-05-27T13:07:16Z</time>
      </trkpt>
      <trkpt lat="44.38248" lon="3.5536">
        <ele>612</ele>
        <time>2022-05-27T13:07:17Z</time>
      </trkpt>
      <trkpt lat="44.38247" lon="3.55359">
        <ele>612</ele>
        <time>2022-05-27T13:07:18Z</time>
      </trkpt>
      <trkpt lat="44.38246" lon="3.55358">
        <ele>612</ele>
        <time>2022-05-27T13:07:19Z</time>
      </trkpt>
      <trkpt lat="44.38245" lon="3.55356">
        <ele>612</ele>
        <time>2022-05-27T13:07:20Z</time>
      </trkpt>
      <trkpt lat="44.38245" lon="3.55355">
        <ele>611</ele>
        <time>2022-05-27T13:07:21Z</time>
      </trkpt>
      <trkpt lat="44.38243" lon="3.55353">
        <ele>611</ele>
        <time>2022-05-27T13:07:22Z</time>
      </trkpt>
      <trkpt lat="44.38242" lon="3.55352">
        <ele>611</ele>
        <time>2022-05-27T13:07:23Z</time>
      </trkpt>
      <trkpt lat="44.38242" lon="3.55351">
        <ele>611</ele>
        <time>2022-05-27T13:07:24Z</time>
      </trkpt>
      <trkpt lat="44.3824" lon="3.5535">
        <ele>611</ele>
        <time>2022-05-27T13:07:25Z</time>
      </trkpt>
      <trkpt lat="44.38239" lon="3.55349">
        <ele>611</ele>
        <time>2022-05-27T13:07:26Z</time>
      </trkpt>
      <trkpt lat="44.38238" lon="3.55348">
        <ele>611</ele>
        <time>2022-05-27T13:07:27Z</time>
      </trkpt>
      <trkpt lat="44.38237" lon="3.55347">
        <ele>611</ele>
        <time>2022-05-27T13:07:28Z</time>
      </trkpt>
      <trkpt lat="44.38235" lon="3.55347">
        <ele>612</ele>
        <time>2022-05-27T13:07:29Z</time>
      </trkpt>
      <trkpt lat="44.38234" lon="3.55346">
        <ele>612</ele>
        <time>2022-05-27T13:07:30Z</time>
      </trkpt>
      <trkpt lat="44.38233" lon="3.55345">
        <ele>611</ele>
        <time>2022-05-27T13:07:31Z</time>
      </trkpt>
      <trkpt lat="44.38232" lon="3.55344">
        <ele>611</ele>
        <time>2022-05-27T13:07:32Z</time>
      </trkpt>
      <trkpt lat="44.38231" lon="3.55343">
        <ele>612</ele>
        <time>2022-05-27T13:07:33Z</time>
      </trkpt>
      <trkpt lat="44.38231" lon="3.55342">
        <ele>612</ele>
        <time>2022-05-27T13:07:34Z</time>
      </trkpt>
      <trkpt lat="44.38229" lon="3.5534">
        <ele>611</ele>
        <time>2022-05-27T13:07:35Z</time>
      </trkpt>
      <trkpt lat="44.38228" lon="3.5534">
        <ele>611</ele>
        <time>2022-05-27T13:07:36Z</time>
      </trkpt>
      <trkpt lat="44.38228" lon="3.55339">
        <ele>611</ele>
        <time>2022-05-27T13:07:37Z</time>
      </trkpt>
      <trkpt lat="44.38226" lon="3.55338">
        <ele>611</ele>
        <time>2022-05-27T13:07:38Z</time>
      </trkpt>
      <trkpt lat="44.38225" lon="3.55338">
        <ele>611</ele>
        <time>2022-05-27T13:07:39Z</time>
      </trkpt>
      <trkpt lat="44.38224" lon="3.55336">
        <ele>610</ele>
        <time>2022-05-27T13:07:40Z</time>
      </trkpt>
      <trkpt lat="44.38223" lon="3.55335">
        <ele>610</ele>
        <time>2022-05-27T13:07:41Z</time>
      </trkpt>
      <trkpt lat="44.38222" lon="3.55334">
        <ele>609</ele>
        <time>2022-05-27T13:07:42Z</time>
      </trkpt>
      <trkpt lat="44.38221" lon="3.55333">
        <ele>609</ele>
        <time>2022-05-27T13:07:43Z</time>
      </trkpt>
      <trkpt lat="44.3822" lon="3.55331">
        <ele>609</ele>
        <time>2022-05-27T13:07:44Z</time>
      </trkpt>
      <trkpt lat="44.38219" lon="3.5533">
        <ele>609</ele>
        <time>2022-05-27T13:07:45Z</time>
      </trkpt>
      <trkpt lat="44.38217" lon="3.55329">
        <ele>608</ele>
        <time>2022-05-27T13:07:46Z</time>
      </trkpt>
      <trkpt lat="44.38216" lon="3.55328">
        <ele>608</ele>
        <time>2022-05-27T13:07:47Z</time>
      </trkpt>
      <trkpt lat="44.38216" lon="3.55326">
        <ele>608</ele>
        <time>2022-05-27T13:07:48Z</time>
      </trkpt>
      <trkpt lat="44.38215" lon="3.55325">
        <ele>607</ele>
        <time>2022-05-27T13:07:49Z</time>
      </trkpt>
      <trkpt lat="44.38214" lon="3.55325">
        <ele>608</ele>
        <time>2022-05-27T13:07:50Z</time>
      </trkpt>
      <trkpt lat="44.38213" lon="3.55323">
        <ele>607</ele>
        <time>2022-05-27T13:07:51Z</time>
      </trkpt>
      <trkpt lat="44.38211" lon="3.55322">
        <ele>608</ele>
        <time>2022-05-27T13:07:52Z</time>
      </trkpt>
      <trkpt lat="44.38211" lon="3.55321">
        <ele>608</ele>
        <time>2022-05-27T13:07:53Z</time>
      </trkpt>
      <trkpt lat="44.3821" lon="3.5532">
        <ele>608</ele>
        <time>2022-05-27T13:07:54Z</time>
      </trkpt>
      <trkpt lat="44.38209" lon="3.55319">
        <ele>608</ele>
        <time>2022-05-27T13:07:55Z</time>
      </trkpt>
      <trkpt lat="44.38208" lon="3.55318">
        <ele>608</ele>
        <time>2022-05-27T13:07:56Z</time>
      </trkpt>
      <trkpt lat="44.38207" lon="3.55316">
        <ele>608</ele>
        <time>2022-05-27T13:07:57Z</time>
      </trkpt>
      <trkpt lat="44.38206" lon="3.55314">
        <ele>608</ele>
        <time>2022-05-27T13:07:58Z</time>
      </trkpt>
      <trkpt lat="44.38205" lon="3.55313">
        <ele>607</ele>
        <time>2022-05-27T13:07:59Z</time>
      </trkpt>
      <trkpt lat="44.38203" lon="3.55312">
        <ele>607</ele>
        <time>2022-05-27T13:08:00Z</time>
      </trkpt>
      <trkpt lat="44.38202" lon="3.55311">
        <ele>608</ele>
        <time>2022-05-27T13:08:01Z</time>
      </trkpt>
      <trkpt lat="44.38201" lon="3.5531">
        <ele>608</ele>
        <time>2022-05-27T13:08:02Z</time>
      </trkpt>
      <trkpt lat="44.382" lon="3.55309">
        <ele>608</ele>
        <time>2022-05-27T13:08:03Z</time>
      </trkpt>
      <trkpt lat="44.382" lon="3.55309">
        <ele>608</ele>
        <time>2022-05-27T13:08:04Z</time>
      </trkpt>
      <trkpt lat="44.38199" lon="3.55307">
        <ele>608</ele>
        <time>2022-05-27T13:08:05Z</time>
      </trkpt>
      <trkpt lat="44.38199" lon="3.55306">
        <ele>608</ele>
        <time>2022-05-27T13:08:06Z</time>
      </trkpt>
      <trkpt lat="44.38197" lon="3.55305">
        <ele>608</ele>
        <time>2022-05-27T13:08:07Z</time>
      </trkpt>
      <trkpt lat="44.38196" lon="3.55304">
        <ele>607</ele>
        <time>2022-05-27T13:08:08Z</time>
      </trkpt>
      <trkpt lat="44.38196" lon="3.55303">
        <ele>607</ele>
        <time>2022-05-27T13:08:09Z</time>
      </trkpt>
      <trkpt lat="44.38195" lon="3.55302">
        <ele>606</ele>
        <time>2022-05-27T13:08:10Z</time>
      </trkpt>
      <trkpt lat="44.38194" lon="3.553">
        <ele>606</ele>
        <time>2022-05-27T13:08:11Z</time>
      </trkpt>
      <trkpt lat="44.38193" lon="3.55299">
        <ele>606</ele>
        <time>2022-05-27T13:08:12Z</time>
      </trkpt>
      <trkpt lat="44.38192" lon="3.55297">
        <ele>606</ele>
        <time>2022-05-27T13:08:13Z</time>
      </trkpt>
      <trkpt lat="44.38191" lon="3.55297">
        <ele>606</ele>
        <time>2022-05-27T13:08:14Z</time>
      </trkpt>
      <trkpt lat="44.3819" lon="3.55295">
        <ele>606</ele>
        <time>2022-05-27T13:08:15Z</time>
      </trkpt>
      <trkpt lat="44.38189" lon="3.55294">
        <ele>606</ele>
        <time>2022-05-27T13:08:16Z</time>
      </trkpt>
      <trkpt lat="44.38189" lon="3.55293">
        <ele>606</ele>
        <time>2022-05-27T13:08:17Z</time>
      </trkpt>
      <trkpt lat="44.38188" lon="3.55292">
        <ele>606</ele>
        <time>2022-05-27T13:08:18Z</time>
      </trkpt>
      <trkpt lat="44.38187" lon="3.55291">
        <ele>607</ele>
        <time>2022-05-27T13:08:19Z</time>
      </trkpt>
      <trkpt lat="44.38187" lon="3.5529">
        <ele>606</ele>
        <time>2022-05-27T13:08:20Z</time>
      </trkpt>
      <trkpt lat="44.38186" lon="3.55289">
        <ele>606</ele>
        <time>2022-05-27T13:08:21Z</time>
      </trkpt>
      <trkpt lat="44.38185" lon="3.55288">
        <ele>606</ele>
        <time>2022-05-27T13:08:22Z</time>
      </trkpt>
      <trkpt lat="44.38185" lon="3.55286">
        <ele>606</ele>
        <time>2022-05-27T13:08:23Z</time>
      </trkpt>
      <trkpt lat="44.38184" lon="3.55285">
        <ele>606</ele>
        <time>2022-05-27T13:08:24Z</time>
      </trkpt>
      <trkpt lat="44.38182" lon="3.55285">
        <ele>606</ele>
        <time>2022-05-27T13:08:25Z</time>
      </trkpt>
      <trkpt lat="44.38182" lon="3.55284">
        <ele>606</ele>
        <time>2022-05-27T13:08:26Z</time>
      </trkpt>
      <trkpt lat="44.38181" lon="3.55283">
        <ele>606</ele>
        <time>2022-05-27T13:08:27Z</time>
      </trkpt>
      <trkpt lat="44.3818" lon="3.55282">
        <ele>606</ele>
        <time>2022-05-27T13:08:28Z</time>
      </trkpt>
      <trkpt lat="44.38179" lon="3.55282">
        <ele>606</ele>
        <time>2022-05-27T13:08:29Z</time>
      </trkpt>
      <trkpt lat="44.38178" lon="3.55282">
        <ele>606</ele>
        <time>2022-05-27T13:08:30Z</time>
      </trkpt>
      <trkpt lat="44.38177" lon="3.55281">
        <ele>607</ele>
        <time>2022-05-27T13:08:31Z</time>
      </trkpt>
      <trkpt lat="44.38176" lon="3.55281">
        <ele>607</ele>
        <time>2022-05-27T13:08:32Z</time>
      </trkpt>
      <trkpt lat="44.38176" lon="3.55281">
        <ele>607</ele>
        <time>2022-05-27T13:08:33Z</time>
      </trkpt>
      <trkpt lat="44.38175" lon="3.55281">
        <ele>606</ele>
        <time>2022-05-27T13:08:34Z</time>
      </trkpt>
      <trkpt lat="44.38174" lon="3.5528">
        <ele>606</ele>
        <time>2022-05-27T13:08:35Z</time>
      </trkpt>
      <trkpt lat="44.38173" lon="3.55279">
        <ele>606</ele>
        <time>2022-05-27T13:08:36Z</time>
      </trkpt>
      <trkpt lat="44.38172" lon="3.55278">
        <ele>606</ele>
        <time>2022-05-27T13:08:37Z</time>
      </trkpt>
      <trkpt lat="44.38171" lon="3.55277">
        <ele>605</ele>
        <time>2022-05-27T13:08:38Z</time>
      </trkpt>
      <trkpt lat="44.3817" lon="3.55276">
        <ele>605</ele>
        <time>2022-05-27T13:08:39Z</time>
      </trkpt>
      <trkpt lat="44.38169" lon="3.55276">
        <ele>605</ele>
        <time>2022-05-27T13:08:40Z</time>
      </trkpt>
      <trkpt lat="44.38168" lon="3.55275">
        <ele>604</ele>
        <time>2022-05-27T13:08:41Z</time>
      </trkpt>
      <trkpt lat="44.38167" lon="3.55274">
        <ele>605</ele>
        <time>2022-05-27T13:08:42Z</time>
      </trkpt>
      <trkpt lat="44.38166" lon="3.55273">
        <ele>605</ele>
        <time>2022-05-27T13:08:43Z</time>
      </trkpt>
      <trkpt lat="44.38165" lon="3.55273">
        <ele>605</ele>
        <time>2022-05-27T13:08:44Z</time>
      </trkpt>
      <trkpt lat="44.38164" lon="3.55272">
        <ele>605</ele>
        <time>2022-05-27T13:08:45Z</time>
      </trkpt>
      <trkpt lat="44.38162" lon="3.55271">
        <ele>604</ele>
        <time>2022-05-27T13:08:46Z</time>
      </trkpt>
      <trkpt lat="44.38162" lon="3.5527">
        <ele>604</ele>
        <time>2022-05-27T13:08:47Z</time>
      </trkpt>
      <trkpt lat="44.3816" lon="3.5527">
        <ele>604</ele>
        <time>2022-05-27T13:08:48Z</time>
      </trkpt>
      <trkpt lat="44.38159" lon="3.55269">
        <ele>604</ele>
        <time>2022-05-27T13:08:49Z</time>
      </trkpt>
      <trkpt lat="44.38158" lon="3.55268">
        <ele>603</ele>
        <time>2022-05-27T13:08:50Z</time>
      </trkpt>
      <trkpt lat="44.38158" lon="3.55268">
        <ele>603</ele>
        <time>2022-05-27T13:08:51Z</time>
      </trkpt>
      <trkpt lat="44.38157" lon="3.55267">
        <ele>603</ele>
        <time>2022-05-27T13:08:52Z</time>
      </trkpt>
      <trkpt lat="44.38156" lon="3.55266">
        <ele>604</ele>
        <time>2022-05-27T13:08:53Z</time>
      </trkpt>
      <trkpt lat="44.38156" lon="3.55266">
        <ele>604</ele>
        <time>2022-05-27T13:08:54Z</time>
      </trkpt>
      <trkpt lat="44.38155" lon="3.55265">
        <ele>604</ele>
        <time>2022-05-27T13:08:55Z</time>
      </trkpt>
      <trkpt lat="44.38154" lon="3.55264">
        <ele>604</ele>
        <time>2022-05-27T13:08:56Z</time>
      </trkpt>
      <trkpt lat="44.38152" lon="3.55263">
        <ele>604</ele>
        <time>2022-05-27T13:08:57Z</time>
      </trkpt>
      <trkpt lat="44.38151" lon="3.55262">
        <ele>604</ele>
        <time>2022-05-27T13:08:58Z</time>
      </trkpt>
      <trkpt lat="44.3815" lon="3.55261">
        <ele>604</ele>
        <time>2022-05-27T13:08:59Z</time>
      </trkpt>
      <trkpt lat="44.38149" lon="3.55259">
        <ele>603</ele>
        <time>2022-05-27T13:09:00Z</time>
      </trkpt>
      <trkpt lat="44.38147" lon="3.55258">
        <ele>603</ele>
        <time>2022-05-27T13:09:01Z</time>
      </trkpt>
      <trkpt lat="44.38146" lon="3.55257">
        <ele>603</ele>
        <time>2022-05-27T13:09:02Z</time>
      </trkpt>
      <trkpt lat="44.38145" lon="3.55256">
        <ele>603</ele>
        <time>2022-05-27T13:09:03Z</time>
      </trkpt>
      <trkpt lat="44.38144" lon="3.55255">
        <ele>602</ele>
        <time>2022-05-27T13:09:04Z</time>
      </trkpt>
      <trkpt lat="44.38143" lon="3.55254">
        <ele>603</ele>
        <time>2022-05-27T13:09:05Z</time>
      </trkpt>
      <trkpt lat="44.38142" lon="3.55253">
        <ele>602</ele>
        <time>2022-05-27T13:09:06Z</time>
      </trkpt>
      <trkpt lat="44.3814" lon="3.55252">
        <ele>602</ele>
        <time>2022-05-27T13:09:07Z</time>
      </trkpt>
      <trkpt lat="44.38139" lon="3.55251">
        <ele>602</ele>
        <time>2022-05-27T13:09:08Z</time>
      </trkpt>
      <trkpt lat="44.38138" lon="3.5525">
        <ele>602</ele>
        <time>2022-05-27T13:09:09Z</time>
      </trkpt>
      <trkpt lat="44.38137" lon="3.55249">
        <ele>602</ele>
        <time>2022-05-27T13:09:10Z</time>
      </trkpt>
      <trkpt lat="44.38136" lon="3.55248">
        <ele>602</ele>
        <time>2022-05-27T13:09:11Z</time>
      </trkpt>
      <trkpt lat="44.38135" lon="3.55247">
        <ele>602</ele>
        <time>2022-05-27T13:09:12Z</time>
      </trkpt>
      <trkpt lat="44.38134" lon="3.55246">
        <ele>601</ele>
        <time>2022-05-27T13:09:13Z</time>
      </trkpt>
      <trkpt lat="44.38133" lon="3.55246">
        <ele>601</ele>
        <time>2022-05-27T13:09:14Z</time>
      </trkpt>
      <trkpt lat="44.38132" lon="3.55246">
        <ele>602</ele>
        <time>2022-05-27T13:09:15Z</time>
      </trkpt>
      <trkpt lat="44.38131" lon="3.55245">
        <ele>602</ele>
        <time>2022-05-27T13:09:16Z</time>
      </trkpt>
      <trkpt lat="44.3813" lon="3.55245">
        <ele>602</ele>
        <time>2022-05-27T13:09:17Z</time>
      </trkpt>
      <trkpt lat="44.38129" lon="3.55244">
        <ele>601</ele>
        <time>2022-05-27T13:09:18Z</time>
      </trkpt>
      <trkpt lat="44.38128" lon="3.55244">
        <ele>601</ele>
        <time>2022-05-27T13:09:19Z</time>
      </trkpt>
      <trkpt lat="44.38127" lon="3.55243">
        <ele>601</ele>
        <time>2022-05-27T13:09:20Z</time>
      </trkpt>
      <trkpt lat="44.38126" lon="3.55243">
        <ele>601</ele>
        <time>2022-05-27T13:09:21Z</time>
      </trkpt>
      <trkpt lat="44.38125" lon="3.55243">
        <ele>601</ele>
        <time>2022-05-27T13:09:22Z</time>
      </trkpt>
      <trkpt lat="44.38123" lon="3.55242">
        <ele>601</ele>
        <time>2022-05-27T13:09:23Z</time>
      </trkpt>
      <trkpt lat="44.38123" lon="3.55241">
        <ele>600</ele>
        <time>2022-05-27T13:09:24Z</time>
      </trkpt>
      <trkpt lat="44.38121" lon="3.5524">
        <ele>600</ele>
        <time>2022-05-27T13:09:25Z</time>
      </trkpt>
      <trkpt lat="44.3812" lon="3.5524">
        <ele>600</ele>
        <time>2022-05-27T13:09:26Z</time>
      </trkpt>
      <trkpt lat="44.38119" lon="3.55239">
        <ele>600</ele>
        <time>2022-05-27T13:09:27Z</time>
      </trkpt>
      <trkpt lat="44.38118" lon="3.55238">
        <ele>600</ele>
        <time>2022-05-27T13:09:28Z</time>
      </trkpt>
      <trkpt lat="44.38117" lon="3.55238">
        <ele>600</ele>
        <time>2022-05-27T13:09:29Z</time>
      </trkpt>
      <trkpt lat="44.38115" lon="3.55237">
        <ele>600</ele>
        <time>2022-05-27T13:09:30Z</time>
      </trkpt>
      <trkpt lat="44.38114" lon="3.55236">
        <ele>600</ele>
        <time>2022-05-27T13:09:31Z</time>
      </trkpt>
      <trkpt lat="44.38113" lon="3.55235">
        <ele>600</ele>
        <time>2022-05-27T13:09:32Z</time>
      </trkpt>
      <trkpt lat="44.38111" lon="3.55234">
        <ele>600</ele>
        <time>2022-05-27T13:09:33Z</time>
      </trkpt>
      <trkpt lat="44.3811" lon="3.55234">
        <ele>600</ele>
        <time>2022-05-27T13:09:34Z</time>
      </trkpt>
      <trkpt lat="44.38108" lon="3.55232">
        <ele>600</ele>
        <time>2022-05-27T13:09:35Z</time>
      </trkpt>
      <trkpt lat="44.38107" lon="3.55231">
        <ele>600</ele>
        <time>2022-05-27T13:09:36Z</time>
      </trkpt>
      <trkpt lat="44.38105" lon="3.55229">
        <ele>600</ele>
        <time>2022-05-27T13:09:37Z</time>
      </trkpt>
      <trkpt lat="44.38104" lon="3.55228">
        <ele>600</ele>
        <time>2022-05-27T13:09:38Z</time>
      </trkpt>
      <trkpt lat="44.38102" lon="3.55229">
        <ele>600</ele>
        <time>2022-05-27T13:09:39Z</time>
      </trkpt>
      <trkpt lat="44.38101" lon="3.55228">
        <ele>600</ele>
        <time>2022-05-27T13:09:40Z</time>
      </trkpt>
      <trkpt lat="44.381" lon="3.55227">
        <ele>599</ele>
        <time>2022-05-27T13:09:41Z</time>
      </trkpt>
      <trkpt lat="44.38098" lon="3.55227">
        <ele>599</ele>
        <time>2022-05-27T13:09:42Z</time>
      </trkpt>
      <trkpt lat="44.38097" lon="3.55226">
        <ele>600</ele>
        <time>2022-05-27T13:09:43Z</time>
      </trkpt>
      <trkpt lat="44.38096" lon="3.55226">
        <ele>600</ele>
        <time>2022-05-27T13:09:44Z</time>
      </trkpt>
      <trkpt lat="44.38095" lon="3.55226">
        <ele>600</ele>
        <time>2022-05-27T13:09:45Z</time>
      </trkpt>
      <trkpt lat="44.38094" lon="3.55226">
        <ele>600</ele>
        <time>2022-05-27T13:09:46Z</time>
      </trkpt>
      <trkpt lat="44.38092" lon="3.55225">
        <ele>600</ele>
        <time>2022-05-27T13:09:47Z</time>
      </trkpt>
      <trkpt lat="44.38091" lon="3.55224">
        <ele>600</ele>
        <time>2022-05-27T13:09:48Z</time>
      </trkpt>
      <trkpt lat="44.38091" lon="3.55223">
        <ele>599</ele>
        <time>2022-05-27T13:09:49Z</time>
      </trkpt>
      <trkpt lat="44.38089" lon="3.55222">
        <ele>599</ele>
        <time>2022-05-27T13:09:50Z</time>
      </trkpt>
      <trkpt lat="44.38088" lon="3.55222">
        <ele>599</ele>
        <time>2022-05-27T13:09:51Z</time>
      </trkpt>
      <trkpt lat="44.38087" lon="3.55221">
        <ele>599</ele>
        <time>2022-05-27T13:09:52Z</time>
      </trkpt>
      <trkpt lat="44.38086" lon="3.55221">
        <ele>599</ele>
        <time>2022-05-27T13:09:53Z</time>
      </trkpt>
      <trkpt lat="44.38085" lon="3.55221">
        <ele>598</ele>
        <time>2022-05-27T13:09:54Z</time>
      </trkpt>
      <trkpt lat="44.38084" lon="3.55221">
        <ele>598</ele>
        <time>2022-05-27T13:09:55Z</time>
      </trkpt>
      <trkpt lat="44.38083" lon="3.55221">
        <ele>598</ele>
        <time>2022-05-27T13:09:56Z</time>
      </trkpt>
      <trkpt lat="44.38081" lon="3.5522">
        <ele>599</ele>
        <time>2022-05-27T13:09:57Z</time>
      </trkpt>
      <trkpt lat="44.3808" lon="3.55219">
        <ele>598</ele>
        <time>2022-05-27T13:09:58Z</time>
      </trkpt>
      <trkpt lat="44.38079" lon="3.55218">
        <ele>598</ele>
        <time>2022-05-27T13:09:59Z</time>
      </trkpt>
      <trkpt lat="44.38078" lon="3.55219">
        <ele>599</ele>
        <time>2022-05-27T13:10:00Z</time>
      </trkpt>
      <trkpt lat="44.38077" lon="3.55218">
        <ele>598</ele>
        <time>2022-05-27T13:10:01Z</time>
      </trkpt>
      <trkpt lat="44.38076" lon="3.55218">
        <ele>598</ele>
        <time>2022-05-27T13:10:02Z</time>
      </trkpt>
      <trkpt lat="44.38075" lon="3.55218">
        <ele>598</ele>
        <time>2022-05-27T13:10:03Z</time>
      </trkpt>
      <trkpt lat="44.38073" lon="3.55218">
        <ele>598</ele>
        <time>2022-05-27T13:10:04Z</time>
      </trkpt>
      <trkpt lat="44.38072" lon="3.55218">
        <ele>598</ele>
        <time>2022-05-27T13:10:05Z</time>
      </trkpt>
      <trkpt lat="44.3807" lon="3.55218">
        <ele>598</ele>
        <time>2022-05-27T13:10:06Z</time>
      </trkpt>
      <trkpt lat="44.38068" lon="3.55218">
        <ele>599</ele>
        <time>2022-05-27T13:10:07Z</time>
      </trkpt>
      <trkpt lat="44.38067" lon="3.55218">
        <ele>599</ele>
        <time>2022-05-27T13:10:08Z</time>
      </trkpt>
      <trkpt lat="44.38065" lon="3.55218">
        <ele>599</ele>
        <time>2022-05-27T13:10:09Z</time>
      </trkpt>
      <trkpt lat="44.38063" lon="3.55219">
        <ele>599</ele>
        <time>2022-05-27T13:10:10Z</time>
      </trkpt>
      <trkpt lat="44.38062" lon="3.55219">
        <ele>598</ele>
        <time>2022-05-27T13:10:11Z</time>
      </trkpt>
      <trkpt lat="44.3806" lon="3.55219">
        <ele>599</ele>
        <time>2022-05-27T13:10:12Z</time>
      </trkpt>
      <trkpt lat="44.38059" lon="3.5522">
        <ele>599</ele>
        <time>2022-05-27T13:10:13Z</time>
      </trkpt>
      <trkpt lat="44.38057" lon="3.5522">
        <ele>599</ele>
        <time>2022-05-27T13:10:14Z</time>
      </trkpt>
      <trkpt lat="44.38055" lon="3.55221">
        <ele>599</ele>
        <time>2022-05-27T13:10:15Z</time>
      </trkpt>
      <trkpt lat="44.38054" lon="3.55221">
        <ele>599</ele>
        <time>2022-05-27T13:10:16Z</time>
      </trkpt>
      <trkpt lat="44.38053" lon="3.5522">
        <ele>599</ele>
        <time>2022-05-27T13:10:17Z</time>
      </trkpt>
      <trkpt lat="44.38052" lon="3.5522">
        <ele>599</ele>
        <time>2022-05-27T13:10:18Z</time>
      </trkpt>
      <trkpt lat="44.38051" lon="3.5522">
        <ele>599</ele>
        <time>2022-05-27T13:10:19Z</time>
      </trkpt>
      <trkpt lat="44.3805" lon="3.5522">
        <ele>599</ele>
        <time>2022-05-27T13:10:20Z</time>
      </trkpt>
      <trkpt lat="44.38049" lon="3.55219">
        <ele>599</ele>
        <time>2022-05-27T13:10:21Z</time>
      </trkpt>
      <trkpt lat="44.38047" lon="3.55218">
        <ele>598</ele>
        <time>2022-05-27T13:10:22Z</time>
      </trkpt>
      <trkpt lat="44.38046" lon="3.55218">
        <ele>598</ele>
        <time>2022-05-27T13:10:23Z</time>
      </trkpt>
      <trkpt lat="44.38045" lon="3.55219">
        <ele>598</ele>
        <time>2022-05-27T13:10:24Z</time>
      </trkpt>
      <trkpt lat="44.38044" lon="3.55218">
        <ele>598</ele>
        <time>2022-05-27T13:10:25Z</time>
      </trkpt>
      <trkpt lat="44.38043" lon="3.55217">
        <ele>597</ele>
        <time>2022-05-27T13:10:26Z</time>
      </trkpt>
      <trkpt lat="44.38042" lon="3.55216">
        <ele>597</ele>
        <time>2022-05-27T13:10:27Z</time>
      </trkpt>
      <trkpt lat="44.38041" lon="3.55215">
        <ele>596</ele>
        <time>2022-05-27T13:10:28Z</time>
      </trkpt>
      <trkpt lat="44.38039" lon="3.55215">
        <ele>595</ele>
        <time>2022-05-27T13:10:29Z</time>
      </trkpt>
      <trkpt lat="44.38038" lon="3.55214">
        <ele>595</ele>
        <time>2022-05-27T13:10:30Z</time>
      </trkpt>
      <trkpt lat="44.38036" lon="3.55213">
        <ele>595</ele>
        <time>2022-05-27T13:10:31Z</time>
      </trkpt>
      <trkpt lat="44.38034" lon="3.55212">
        <ele>595</ele>
        <time>2022-05-27T13:10:32Z</time>
      </trkpt>
      <trkpt lat="44.38033" lon="3.55211">
        <ele>595</ele>
        <time>2022-05-27T13:10:33Z</time>
      </trkpt>
      <trkpt lat="44.38031" lon="3.5521">
        <ele>594</ele>
        <time>2022-05-27T13:10:34Z</time>
      </trkpt>
      <trkpt lat="44.38029" lon="3.55209">
        <ele>594</ele>
        <time>2022-05-27T13:10:35Z</time>
      </trkpt>
      <trkpt lat="44.38028" lon="3.55209">
        <ele>594</ele>
        <time>2022-05-27T13:10:36Z</time>
      </trkpt>
      <trkpt lat="44.38026" lon="3.55208">
        <ele>594</ele>
        <time>2022-05-27T13:10:37Z</time>
      </trkpt>
      <trkpt lat="44.38025" lon="3.55208">
        <ele>593</ele>
        <time>2022-05-27T13:10:38Z</time>
      </trkpt>
      <trkpt lat="44.38023" lon="3.55206">
        <ele>594</ele>
        <time>2022-05-27T13:10:39Z</time>
      </trkpt>
      <trkpt lat="44.38022" lon="3.55206">
        <ele>594</ele>
        <time>2022-05-27T13:10:40Z</time>
      </trkpt>
      <trkpt lat="44.38019" lon="3.55205">
        <ele>593</ele>
        <time>2022-05-27T13:10:41Z</time>
      </trkpt>
      <trkpt lat="44.38018" lon="3.55203">
        <ele>594</ele>
        <time>2022-05-27T13:10:42Z</time>
      </trkpt>
      <trkpt lat="44.38017" lon="3.55201">
        <ele>594</ele>
        <time>2022-05-27T13:10:43Z</time>
      </trkpt>
      <trkpt lat="44.38016" lon="3.552">
        <ele>594</ele>
        <time>2022-05-27T13:10:44Z</time>
      </trkpt>
      <trkpt lat="44.38015" lon="3.55198">
        <ele>594</ele>
        <time>2022-05-27T13:10:45Z</time>
      </trkpt>
      <trkpt lat="44.38014" lon="3.55196">
        <ele>594</ele>
        <time>2022-05-27T13:10:46Z</time>
      </trkpt>
      <trkpt lat="44.38012" lon="3.55194">
        <ele>593</ele>
        <time>2022-05-27T13:10:47Z</time>
      </trkpt>
      <trkpt lat="44.3801" lon="3.55193">
        <ele>593</ele>
        <time>2022-05-27T13:10:48Z</time>
      </trkpt>
      <trkpt lat="44.38009" lon="3.55191">
        <ele>593</ele>
        <time>2022-05-27T13:10:49Z</time>
      </trkpt>
      <trkpt lat="44.38008" lon="3.5519">
        <ele>593</ele>
        <time>2022-05-27T13:10:50Z</time>
      </trkpt>
      <trkpt lat="44.38007" lon="3.55189">
        <ele>593</ele>
        <time>2022-05-27T13:10:51Z</time>
      </trkpt>
      <trkpt lat="44.38006" lon="3.55188">
        <ele>594</ele>
        <time>2022-05-27T13:10:52Z</time>
      </trkpt>
      <trkpt lat="44.38005" lon="3.55186">
        <ele>594</ele>
        <time>2022-05-27T13:10:53Z</time>
      </trkpt>
      <trkpt lat="44.38005" lon="3.55185">
        <ele>594</ele>
        <time>2022-05-27T13:10:54Z</time>
      </trkpt>
      <trkpt lat="44.38004" lon="3.55183">
        <ele>593</ele>
        <time>2022-05-27T13:10:55Z</time>
      </trkpt>
      <trkpt lat="44.38004" lon="3.55181">
        <ele>593</ele>
        <time>2022-05-27T13:10:56Z</time>
      </trkpt>
      <trkpt lat="44.38004" lon="3.55179">
        <ele>593</ele>
        <time>2022-05-27T13:10:57Z</time>
      </trkpt>
      <trkpt lat="44.38002" lon="3.55177">
        <ele>592</ele>
        <time>2022-05-27T13:10:58Z</time>
      </trkpt>
      <trkpt lat="44.38001" lon="3.55175">
        <ele>592</ele>
        <time>2022-05-27T13:10:59Z</time>
      </trkpt>
      <trkpt lat="44.38" lon="3.55174">
        <ele>592</ele>
        <time>2022-05-27T13:11:00Z</time>
      </trkpt>
      <trkpt lat="44.37999" lon="3.55173">
        <ele>592</ele>
        <time>2022-05-27T13:11:01Z</time>
      </trkpt>
      <trkpt lat="44.37997" lon="3.55171">
        <ele>592</ele>
        <time>2022-05-27T13:11:02Z</time>
      </trkpt>
      <trkpt lat="44.37996" lon="3.55169">
        <ele>592</ele>
        <time>2022-05-27T13:11:03Z</time>
      </trkpt>
      <trkpt lat="44.37995" lon="3.55167">
        <ele>592</ele>
        <time>2022-05-27T13:11:04Z</time>
      </trkpt>
      <trkpt lat="44.37994" lon="3.55166">
        <ele>592</ele>
        <time>2022-05-27T13:11:05Z</time>
      </trkpt>
      <trkpt lat="44.37993" lon="3.55165">
        <ele>592</ele>
        <time>2022-05-27T13:11:06Z</time>
      </trkpt>
      <trkpt lat="44.37993" lon="3.55164">
        <ele>592</ele>
        <time>2022-05-27T13:11:07Z</time>
      </trkpt>
      <trkpt lat="44.37991" lon="3.55162">
        <ele>592</ele>
        <time>2022-05-27T13:11:08Z</time>
      </trkpt>
      <trkpt lat="44.3799" lon="3.5516">
        <ele>592</ele>
        <time>2022-05-27T13:11:09Z</time>
      </trkpt>
      <trkpt lat="44.37989" lon="3.55158">
        <ele>591</ele>
        <time>2022-05-27T13:11:10Z</time>
      </trkpt>
      <trkpt lat="44.37988" lon="3.55156">
        <ele>590</ele>
        <time>2022-05-27T13:11:11Z</time>
      </trkpt>
      <trkpt lat="44.37987" lon="3.55154">
        <ele>590</ele>
        <time>2022-05-27T13:11:12Z</time>
      </trkpt>
      <trkpt lat="44.37986" lon="3.55152">
        <ele>590</ele>
        <time>2022-05-27T13:11:13Z</time>
      </trkpt>
      <trkpt lat="44.37985" lon="3.55151">
        <ele>589</ele>
        <time>2022-05-27T13:11:14Z</time>
      </trkpt>
      <trkpt lat="44.37985" lon="3.55149">
        <ele>589</ele>
        <time>2022-05-27T13:11:15Z</time>
      </trkpt>
      <trkpt lat="44.37984" lon="3.55148">
        <ele>589</ele>
        <time>2022-05-27T13:11:16Z</time>
      </trkpt>
      <trkpt lat="44.37983" lon="3.55146">
        <ele>589</ele>
        <time>2022-05-27T13:11:17Z</time>
      </trkpt>
      <trkpt lat="44.37983" lon="3.55145">
        <ele>589</ele>
        <time>2022-05-27T13:11:18Z</time>
      </trkpt>
      <trkpt lat="44.37981" lon="3.55142">
        <ele>589</ele>
        <time>2022-05-27T13:11:19Z</time>
      </trkpt>
      <trkpt lat="44.3798" lon="3.5514">
        <ele>589</ele>
        <time>2022-05-27T13:11:20Z</time>
      </trkpt>
      <trkpt lat="44.3798" lon="3.55138">
        <ele>589</ele>
        <time>2022-05-27T13:11:21Z</time>
      </trkpt>
      <trkpt lat="44.37979" lon="3.55137">
        <ele>589</ele>
        <time>2022-05-27T13:11:22Z</time>
      </trkpt>
      <trkpt lat="44.37978" lon="3.55135">
        <ele>589</ele>
        <time>2022-05-27T13:11:23Z</time>
      </trkpt>
      <trkpt lat="44.37977" lon="3.55134">
        <ele>589</ele>
        <time>2022-05-27T13:11:24Z</time>
      </trkpt>
      <trkpt lat="44.37976" lon="3.55132">
        <ele>588</ele>
        <time>2022-05-27T13:11:25Z</time>
      </trkpt>
      <trkpt lat="44.37975" lon="3.5513">
        <ele>588</ele>
        <time>2022-05-27T13:11:26Z</time>
      </trkpt>
      <trkpt lat="44.37974" lon="3.55128">
        <ele>587</ele>
        <time>2022-05-27T13:11:27Z</time>
      </trkpt>
      <trkpt lat="44.37973" lon="3.55125">
        <ele>586</ele>
        <time>2022-05-27T13:11:28Z</time>
      </trkpt>
      <trkpt lat="44.37972" lon="3.55123">
        <ele>585</ele>
        <time>2022-05-27T13:11:29Z</time>
      </trkpt>
      <trkpt lat="44.37971" lon="3.55121">
        <ele>585</ele>
        <time>2022-05-27T13:11:30Z</time>
      </trkpt>
      <trkpt lat="44.3797" lon="3.55119">
        <ele>584</ele>
        <time>2022-05-27T13:11:31Z</time>
      </trkpt>
      <trkpt lat="44.3797" lon="3.55117">
        <ele>584</ele>
        <time>2022-05-27T13:11:32Z</time>
      </trkpt>
      <trkpt lat="44.37969" lon="3.55115">
        <ele>584</ele>
        <time>2022-05-27T13:11:33Z</time>
      </trkpt>
      <trkpt lat="44.37968" lon="3.55113">
        <ele>584</ele>
        <time>2022-05-27T13:11:34Z</time>
      </trkpt>
      <trkpt lat="44.37967" lon="3.55112">
        <ele>584</ele>
        <time>2022-05-27T13:11:35Z</time>
      </trkpt>
      <trkpt lat="44.37966" lon="3.5511">
        <ele>584</ele>
        <time>2022-05-27T13:11:36Z</time>
      </trkpt>
      <trkpt lat="44.37965" lon="3.55108">
        <ele>584</ele>
        <time>2022-05-27T13:11:37Z</time>
      </trkpt>
      <trkpt lat="44.37964" lon="3.55107">
        <ele>583</ele>
        <time>2022-05-27T13:11:38Z</time>
      </trkpt>
      <trkpt lat="44.37963" lon="3.55106">
        <ele>584</ele>
        <time>2022-05-27T13:11:39Z</time>
      </trkpt>
      <trkpt lat="44.37962" lon="3.55104">
        <ele>584</ele>
        <time>2022-05-27T13:11:40Z</time>
      </trkpt>
      <trkpt lat="44.37961" lon="3.55103">
        <ele>584</ele>
        <time>2022-05-27T13:11:41Z</time>
      </trkpt>
      <trkpt lat="44.3796" lon="3.55102">
        <ele>584</ele>
        <time>2022-05-27T13:11:42Z</time>
      </trkpt>
      <trkpt lat="44.37959" lon="3.55101">
        <ele>585</ele>
        <time>2022-05-27T13:11:43Z</time>
      </trkpt>
      <trkpt lat="44.37958" lon="3.551">
        <ele>585</ele>
        <time>2022-05-27T13:11:44Z</time>
      </trkpt>
      <trkpt lat="44.37957" lon="3.55099">
        <ele>585</ele>
        <time>2022-05-27T13:11:45Z</time>
      </trkpt>
      <trkpt lat="44.37956" lon="3.55098">
        <ele>586</ele>
        <time>2022-05-27T13:11:46Z</time>
      </trkpt>
      <trkpt lat="44.37955" lon="3.55097">
        <ele>586</ele>
        <time>2022-05-27T13:11:47Z</time>
      </trkpt>
      <trkpt lat="44.37954" lon="3.55096">
        <ele>586</ele>
        <time>2022-05-27T13:11:48Z</time>
      </trkpt>
      <trkpt lat="44.37953" lon="3.55094">
        <ele>587</ele>
        <time>2022-05-27T13:11:49Z</time>
      </trkpt>
      <trkpt lat="44.37952" lon="3.55093">
        <ele>587</ele>
        <time>2022-05-27T13:11:50Z</time>
      </trkpt>
      <trkpt lat="44.37951" lon="3.55092">
        <ele>586</ele>
        <time>2022-05-27T13:11:51Z</time>
      </trkpt>
      <trkpt lat="44.3795" lon="3.55091">
        <ele>587</ele>
        <time>2022-05-27T13:11:52Z</time>
      </trkpt>
      <trkpt lat="44.37949" lon="3.5509">
        <ele>587</ele>
        <time>2022-05-27T13:11:53Z</time>
      </trkpt>
      <trkpt lat="44.37948" lon="3.55089">
        <ele>587</ele>
        <time>2022-05-27T13:11:54Z</time>
      </trkpt>
      <trkpt lat="44.37948" lon="3.55088">
        <ele>587</ele>
        <time>2022-05-27T13:11:55Z</time>
      </trkpt>
      <trkpt lat="44.37947" lon="3.55087">
        <ele>587</ele>
        <time>2022-05-27T13:11:56Z</time>
      </trkpt>
      <trkpt lat="44.37946" lon="3.55086">
        <ele>587</ele>
        <time>2022-05-27T13:11:57Z</time>
      </trkpt>
      <trkpt lat="44.37946" lon="3.55085">
        <ele>588</ele>
        <time>2022-05-27T13:11:58Z</time>
      </trkpt>
      <trkpt lat="44.37945" lon="3.55085">
        <ele>588</ele>
        <time>2022-05-27T13:11:59Z</time>
      </trkpt>
      <trkpt lat="44.37945" lon="3.55084">
        <ele>587</ele>
        <time>2022-05-27T13:12:00Z</time>
      </trkpt>
      <trkpt lat="44.37944" lon="3.55082">
        <ele>587</ele>
        <time>2022-05-27T13:12:01Z</time>
      </trkpt>
      <trkpt lat="44.37944" lon="3.55081">
        <ele>586</ele>
        <time>2022-05-27T13:12:02Z</time>
      </trkpt>
      <trkpt lat="44.37943" lon="3.55081">
        <ele>586</ele>
        <time>2022-05-27T13:12:03Z</time>
      </trkpt>
      <trkpt lat="44.37942" lon="3.5508">
        <ele>586</ele>
        <time>2022-05-27T13:12:04Z</time>
      </trkpt>
      <trkpt lat="44.37941" lon="3.55079">
        <ele>586</ele>
        <time>2022-05-27T13:12:05Z</time>
      </trkpt>
      <trkpt lat="44.3794" lon="3.55078">
        <ele>586</ele>
        <time>2022-05-27T13:12:06Z</time>
      </trkpt>
      <trkpt lat="44.3794" lon="3.55078">
        <ele>586</ele>
        <time>2022-05-27T13:12:07Z</time>
      </trkpt>
      <trkpt lat="44.37939" lon="3.55077">
        <ele>587</ele>
        <time>2022-05-27T13:12:08Z</time>
      </trkpt>
      <trkpt lat="44.37939" lon="3.55076">
        <ele>587</ele>
        <time>2022-05-27T13:12:09Z</time>
      </trkpt>
      <trkpt lat="44.37938" lon="3.55076">
        <ele>587</ele>
        <time>2022-05-27T13:12:10Z</time>
      </trkpt>
      <trkpt lat="44.37938" lon="3.55076">
        <ele>587</ele>
        <time>2022-05-27T13:12:11Z</time>
      </trkpt>
      <trkpt lat="44.37936" lon="3.55075">
        <ele>587</ele>
        <time>2022-05-27T13:12:12Z</time>
      </trkpt>
      <trkpt lat="44.37936" lon="3.55074">
        <ele>587</ele>
        <time>2022-05-27T13:12:13Z</time>
      </trkpt>
      <trkpt lat="44.37935" lon="3.55074">
        <ele>586</ele>
        <time>2022-05-27T13:12:14Z</time>
      </trkpt>
      <trkpt lat="44.37935" lon="3.55072">
        <ele>586</ele>
        <time>2022-05-27T13:12:15Z</time>
      </trkpt>
      <trkpt lat="44.37935" lon="3.55072">
        <ele>586</ele>
        <time>2022-05-27T13:12:16Z</time>
      </trkpt>
      <trkpt lat="44.37935" lon="3.55071">
        <ele>586</ele>
        <time>2022-05-27T13:12:17Z</time>
      </trkpt>
      <trkpt lat="44.37935" lon="3.55071">
        <ele>586</ele>
        <time>2022-05-27T13:12:18Z</time>
      </trkpt>
      <trkpt lat="44.37935" lon="3.55071">
        <ele>586</ele>
        <time>2022-05-27T13:12:18Z</time>
      </trkpt>
      <trkpt lat="44.37935" lon="3.55071">
        <ele>586</ele>
        <time>2022-05-27T13:12:18Z</time>
      </trkpt>
      <trkpt lat="44.37933" lon="3.55068">
        <ele>584</ele>
        <time>2022-05-27T13:12:24Z</time>
      </trkpt>
      <trkpt lat="44.37933" lon="3.55068">
        <ele>583</ele>
        <time>2022-05-27T13:12:25Z</time>
      </trkpt>
      <trkpt lat="44.37932" lon="3.55067">
        <ele>583</ele>
        <time>2022-05-27T13:12:26Z</time>
      </trkpt>
      <trkpt lat="44.37931" lon="3.55067">
        <ele>583</ele>
        <time>2022-05-27T13:12:27Z</time>
      </trkpt>
      <trkpt lat="44.37931" lon="3.55066">
        <ele>582</ele>
        <time>2022-05-27T13:12:28Z</time>
      </trkpt>
      <trkpt lat="44.37931" lon="3.55066">
        <ele>582</ele>
        <time>2022-05-27T13:12:29Z</time>
      </trkpt>
      <trkpt lat="44.37931" lon="3.55066">
        <ele>582</ele>
        <time>2022-05-27T13:12:29Z</time>
      </trkpt>
      <trkpt lat="44.37931" lon="3.55066">
        <ele>582</ele>
        <time>2022-05-27T13:12:29Z</time>
      </trkpt>
      <trkpt lat="44.37929" lon="3.55051">
        <ele>570</ele>
        <time>2022-05-27T13:22:19Z</time>
      </trkpt>
      <trkpt lat="44.37929" lon="3.55051">
        <ele>570</ele>
        <time>2022-05-27T13:22:20Z</time>
      </trkpt>
      <trkpt lat="44.37928" lon="3.5505">
        <ele>571</ele>
        <time>2022-05-27T13:22:21Z</time>
      </trkpt>
      <trkpt lat="44.37927" lon="3.5505">
        <ele>571</ele>
        <time>2022-05-27T13:22:22Z</time>
      </trkpt>
      <trkpt lat="44.37926" lon="3.55049">
        <ele>572</ele>
        <time>2022-05-27T13:22:23Z</time>
      </trkpt>
      <trkpt lat="44.37925" lon="3.5505">
        <ele>572</ele>
        <time>2022-05-27T13:22:24Z</time>
      </trkpt>
      <trkpt lat="44.37924" lon="3.5505">
        <ele>572</ele>
        <time>2022-05-27T13:22:25Z</time>
      </trkpt>
      <trkpt lat="44.37922" lon="3.5505">
        <ele>573</ele>
        <time>2022-05-27T13:22:26Z</time>
      </trkpt>
      <trkpt lat="44.37921" lon="3.55051">
        <ele>573</ele>
        <time>2022-05-27T13:22:27Z</time>
      </trkpt>
      <trkpt lat="44.3792" lon="3.55051">
        <ele>573</ele>
        <time>2022-05-27T13:22:28Z</time>
      </trkpt>
      <trkpt lat="44.37919" lon="3.55051">
        <ele>573</ele>
        <time>2022-05-27T13:22:29Z</time>
      </trkpt>
      <trkpt lat="44.37918" lon="3.55051">
        <ele>573</ele>
        <time>2022-05-27T13:22:30Z</time>
      </trkpt>
      <trkpt lat="44.37917" lon="3.55051">
        <ele>573</ele>
        <time>2022-05-27T13:22:31Z</time>
      </trkpt>
      <trkpt lat="44.37916" lon="3.55051">
        <ele>573</ele>
        <time>2022-05-27T13:22:32Z</time>
      </trkpt>
      <trkpt lat="44.37914" lon="3.55051">
        <ele>574</ele>
        <time>2022-05-27T13:22:33Z</time>
      </trkpt>
      <trkpt lat="44.37914" lon="3.55051">
        <ele>574</ele>
        <time>2022-05-27T13:22:34Z</time>
      </trkpt>
      <trkpt lat="44.37913" lon="3.5505">
        <ele>574</ele>
        <time>2022-05-27T13:22:35Z</time>
      </trkpt>
      <trkpt lat="44.37912" lon="3.5505">
        <ele>574</ele>
        <time>2022-05-27T13:22:36Z</time>
      </trkpt>
      <trkpt lat="44.37911" lon="3.55049">
        <ele>574</ele>
        <time>2022-05-27T13:22:37Z</time>
      </trkpt>
      <trkpt lat="44.3791" lon="3.55049">
        <ele>575</ele>
        <time>2022-05-27T13:22:38Z</time>
      </trkpt>
      <trkpt lat="44.37909" lon="3.55048">
        <ele>575</ele>
        <time>2022-05-27T13:22:39Z</time>
      </trkpt>
      <trkpt lat="44.37907" lon="3.55048">
        <ele>575</ele>
        <time>2022-05-27T13:22:40Z</time>
      </trkpt>
      <trkpt lat="44.37906" lon="3.55049">
        <ele>576</ele>
        <time>2022-05-27T13:22:41Z</time>
      </trkpt>
      <trkpt lat="44.37904" lon="3.55048">
        <ele>576</ele>
        <time>2022-05-27T13:22:42Z</time>
      </trkpt>
      <trkpt lat="44.37904" lon="3.55049">
        <ele>576</ele>
        <time>2022-05-27T13:22:43Z</time>
      </trkpt>
      <trkpt lat="44.37902" lon="3.55049">
        <ele>576</ele>
        <time>2022-05-27T13:22:44Z</time>
      </trkpt>
      <trkpt lat="44.37901" lon="3.55049">
        <ele>576</ele>
        <time>2022-05-27T13:22:45Z</time>
      </trkpt>
      <trkpt lat="44.379" lon="3.5505">
        <ele>576</ele>
        <time>2022-05-27T13:22:46Z</time>
      </trkpt>
      <trkpt lat="44.37898" lon="3.55051">
        <ele>576</ele>
        <time>2022-05-27T13:22:47Z</time>
      </trkpt>
      <trkpt lat="44.37898" lon="3.55051">
        <ele>576</ele>
        <time>2022-05-27T13:22:48Z</time>
      </trkpt>
      <trkpt lat="44.37896" lon="3.55051">
        <ele>576</ele>
        <time>2022-05-27T13:22:49Z</time>
      </trkpt>
      <trkpt lat="44.37895" lon="3.55051">
        <ele>576</ele>
        <time>2022-05-27T13:22:50Z</time>
      </trkpt>
      <trkpt lat="44.37894" lon="3.5505">
        <ele>576</ele>
        <time>2022-05-27T13:22:51Z</time>
      </trkpt>
      <trkpt lat="44.37893" lon="3.5505">
        <ele>576</ele>
        <time>2022-05-27T13:22:52Z</time>
      </trkpt>
      <trkpt lat="44.37891" lon="3.5505">
        <ele>575</ele>
        <time>2022-05-27T13:22:53Z</time>
      </trkpt>
      <trkpt lat="44.3789" lon="3.5505">
        <ele>575</ele>
        <time>2022-05-27T13:22:54Z</time>
      </trkpt>
      <trkpt lat="44.37889" lon="3.5505">
        <ele>575</ele>
        <time>2022-05-27T13:22:55Z</time>
      </trkpt>
      <trkpt lat="44.37888" lon="3.5505">
        <ele>575</ele>
        <time>2022-05-27T13:22:56Z</time>
      </trkpt>
      <trkpt lat="44.37886" lon="3.55051">
        <ele>575</ele>
        <time>2022-05-27T13:22:57Z</time>
      </trkpt>
      <trkpt lat="44.37885" lon="3.55051">
        <ele>574</ele>
        <time>2022-05-27T13:22:58Z</time>
      </trkpt>
      <trkpt lat="44.37884" lon="3.55051">
        <ele>574</ele>
        <time>2022-05-27T13:22:59Z</time>
      </trkpt>
      <trkpt lat="44.37883" lon="3.55051">
        <ele>574</ele>
        <time>2022-05-27T13:23:00Z</time>
      </trkpt>
      <trkpt lat="44.37881" lon="3.55051">
        <ele>573</ele>
        <time>2022-05-27T13:23:01Z</time>
      </trkpt>
      <trkpt lat="44.3788" lon="3.55052">
        <ele>574</ele>
        <time>2022-05-27T13:23:02Z</time>
      </trkpt>
      <trkpt lat="44.37878" lon="3.55051">
        <ele>573</ele>
        <time>2022-05-27T13:23:03Z</time>
      </trkpt>
      <trkpt lat="44.37877" lon="3.55052">
        <ele>573</ele>
        <time>2022-05-27T13:23:04Z</time>
      </trkpt>
      <trkpt lat="44.37874" lon="3.55052">
        <ele>572</ele>
        <time>2022-05-27T13:23:05Z</time>
      </trkpt>
      <trkpt lat="44.37872" lon="3.55052">
        <ele>571</ele>
        <time>2022-05-27T13:23:06Z</time>
      </trkpt>
      <trkpt lat="44.3787" lon="3.55052">
        <ele>571</ele>
        <time>2022-05-27T13:23:07Z</time>
      </trkpt>
      <trkpt lat="44.37868" lon="3.55052">
        <ele>572</ele>
        <time>2022-05-27T13:23:08Z</time>
      </trkpt>
      <trkpt lat="44.37866" lon="3.55052">
        <ele>572</ele>
        <time>2022-05-27T13:23:09Z</time>
      </trkpt>
      <trkpt lat="44.37864" lon="3.55052">
        <ele>571</ele>
        <time>2022-05-27T13:23:10Z</time>
      </trkpt>
      <trkpt lat="44.37862" lon="3.55052">
        <ele>571</ele>
        <time>2022-05-27T13:23:11Z</time>
      </trkpt>
      <trkpt lat="44.3786" lon="3.55052">
        <ele>571</ele>
        <time>2022-05-27T13:23:12Z</time>
      </trkpt>
      <trkpt lat="44.37858" lon="3.55052">
        <ele>572</ele>
        <time>2022-05-27T13:23:13Z</time>
      </trkpt>
      <trkpt lat="44.37856" lon="3.55051">
        <ele>572</ele>
        <time>2022-05-27T13:23:14Z</time>
      </trkpt>
      <trkpt lat="44.37855" lon="3.55052">
        <ele>572</ele>
        <time>2022-05-27T13:23:15Z</time>
      </trkpt>
      <trkpt lat="44.37854" lon="3.55052">
        <ele>572</ele>
        <time>2022-05-27T13:23:16Z</time>
      </trkpt>
      <trkpt lat="44.37853" lon="3.55052">
        <ele>572</ele>
        <time>2022-05-27T13:23:17Z</time>
      </trkpt>
      <trkpt lat="44.37852" lon="3.55052">
        <ele>572</ele>
        <time>2022-05-27T13:23:18Z</time>
      </trkpt>
      <trkpt lat="44.37851" lon="3.55052">
        <ele>572</ele>
        <time>2022-05-27T13:23:19Z</time>
      </trkpt>
      <trkpt lat="44.3785" lon="3.55052">
        <ele>572</ele>
        <time>2022-05-27T13:23:20Z</time>
      </trkpt>
      <trkpt lat="44.37849" lon="3.55052">
        <ele>572</ele>
        <time>2022-05-27T13:23:21Z</time>
      </trkpt>
      <trkpt lat="44.37848" lon="3.55052">
        <ele>572</ele>
        <time>2022-05-27T13:23:22Z</time>
      </trkpt>
      <trkpt lat="44.37847" lon="3.55053">
        <ele>572</ele>
        <time>2022-05-27T13:23:23Z</time>
      </trkpt>
      <trkpt lat="44.37845" lon="3.55053">
        <ele>572</ele>
        <time>2022-05-27T13:23:24Z</time>
      </trkpt>
      <trkpt lat="44.37844" lon="3.55052">
        <ele>572</ele>
        <time>2022-05-27T13:23:25Z</time>
      </trkpt>
      <trkpt lat="44.37842" lon="3.55052">
        <ele>572</ele>
        <time>2022-05-27T13:23:26Z</time>
      </trkpt>
      <trkpt lat="44.3784" lon="3.55052">
        <ele>572</ele>
        <time>2022-05-27T13:23:27Z</time>
      </trkpt>
      <trkpt lat="44.37839" lon="3.55052">
        <ele>572</ele>
        <time>2022-05-27T13:23:28Z</time>
      </trkpt>
      <trkpt lat="44.37838" lon="3.55052">
        <ele>572</ele>
        <time>2022-05-27T13:23:29Z</time>
      </trkpt>
      <trkpt lat="44.37837" lon="3.55052">
        <ele>572</ele>
        <time>2022-05-27T13:23:30Z</time>
      </trkpt>
      <trkpt lat="44.37835" lon="3.55051">
        <ele>572</ele>
        <time>2022-05-27T13:23:31Z</time>
      </trkpt>
      <trkpt lat="44.37835" lon="3.55051">
        <ele>572</ele>
        <time>2022-05-27T13:23:32Z</time>
      </trkpt>
      <trkpt lat="44.37833" lon="3.55051">
        <ele>572</ele>
        <time>2022-05-27T13:23:33Z</time>
      </trkpt>
      <trkpt lat="44.37833" lon="3.55051">
        <ele>572</ele>
        <time>2022-05-27T13:23:34Z</time>
      </trkpt>
      <trkpt lat="44.37832" lon="3.55049">
        <ele>573</ele>
        <time>2022-05-27T13:23:35Z</time>
      </trkpt>
      <trkpt lat="44.37831" lon="3.55049">
        <ele>573</ele>
        <time>2022-05-27T13:23:36Z</time>
      </trkpt>
      <trkpt lat="44.3783" lon="3.55048">
        <ele>573</ele>
        <time>2022-05-27T13:23:37Z</time>
      </trkpt>
      <trkpt lat="44.37829" lon="3.55047">
        <ele>573</ele>
        <time>2022-05-27T13:23:38Z</time>
      </trkpt>
      <trkpt lat="44.37828" lon="3.55046">
        <ele>573</ele>
        <time>2022-05-27T13:23:39Z</time>
      </trkpt>
      <trkpt lat="44.37827" lon="3.55045">
        <ele>573</ele>
        <time>2022-05-27T13:23:40Z</time>
      </trkpt>
      <trkpt lat="44.37826" lon="3.55045">
        <ele>573</ele>
        <time>2022-05-27T13:23:41Z</time>
      </trkpt>
      <trkpt lat="44.37825" lon="3.55043">
        <ele>573</ele>
        <time>2022-05-27T13:23:42Z</time>
      </trkpt>
      <trkpt lat="44.37824" lon="3.55042">
        <ele>574</ele>
        <time>2022-05-27T13:23:43Z</time>
      </trkpt>
      <trkpt lat="44.37823" lon="3.55041">
        <ele>574</ele>
        <time>2022-05-27T13:23:44Z</time>
      </trkpt>
      <trkpt lat="44.37822" lon="3.55039">
        <ele>574</ele>
        <time>2022-05-27T13:23:45Z</time>
      </trkpt>
      <trkpt lat="44.3782" lon="3.55038">
        <ele>574</ele>
        <time>2022-05-27T13:23:46Z</time>
      </trkpt>
      <trkpt lat="44.3782" lon="3.55038">
        <ele>574</ele>
        <time>2022-05-27T13:23:47Z</time>
      </trkpt>
      <trkpt lat="44.37819" lon="3.55037">
        <ele>574</ele>
        <time>2022-05-27T13:23:48Z</time>
      </trkpt>
      <trkpt lat="44.37818" lon="3.55035">
        <ele>575</ele>
        <time>2022-05-27T13:23:49Z</time>
      </trkpt>
      <trkpt lat="44.37818" lon="3.55034">
        <ele>575</ele>
        <time>2022-05-27T13:23:50Z</time>
      </trkpt>
      <trkpt lat="44.37817" lon="3.55033">
        <ele>575</ele>
        <time>2022-05-27T13:23:51Z</time>
      </trkpt>
      <trkpt lat="44.37817" lon="3.55032">
        <ele>575</ele>
        <time>2022-05-27T13:23:52Z</time>
      </trkpt>
      <trkpt lat="44.37816" lon="3.5503">
        <ele>574</ele>
        <time>2022-05-27T13:23:53Z</time>
      </trkpt>
      <trkpt lat="44.37814" lon="3.55029">
        <ele>574</ele>
        <time>2022-05-27T13:23:54Z</time>
      </trkpt>
      <trkpt lat="44.37813" lon="3.55028">
        <ele>574</ele>
        <time>2022-05-27T13:23:55Z</time>
      </trkpt>
      <trkpt lat="44.37812" lon="3.55027">
        <ele>574</ele>
        <time>2022-05-27T13:23:56Z</time>
      </trkpt>
      <trkpt lat="44.37811" lon="3.55025">
        <ele>574</ele>
        <time>2022-05-27T13:23:57Z</time>
      </trkpt>
      <trkpt lat="44.37811" lon="3.55024">
        <ele>575</ele>
        <time>2022-05-27T13:23:58Z</time>
      </trkpt>
      <trkpt lat="44.3781" lon="3.55023">
        <ele>575</ele>
        <time>2022-05-27T13:23:59Z</time>
      </trkpt>
      <trkpt lat="44.37809" lon="3.55023">
        <ele>574</ele>
        <time>2022-05-27T13:24:00Z</time>
      </trkpt>
      <trkpt lat="44.37808" lon="3.55022">
        <ele>574</ele>
        <time>2022-05-27T13:24:01Z</time>
      </trkpt>
      <trkpt lat="44.37807" lon="3.55021">
        <ele>574</ele>
        <time>2022-05-27T13:24:02Z</time>
      </trkpt>
      <trkpt lat="44.37806" lon="3.5502">
        <ele>574</ele>
        <time>2022-05-27T13:24:03Z</time>
      </trkpt>
      <trkpt lat="44.37804" lon="3.5502">
        <ele>574</ele>
        <time>2022-05-27T13:24:04Z</time>
      </trkpt>
      <trkpt lat="44.37803" lon="3.55019">
        <ele>574</ele>
        <time>2022-05-27T13:24:05Z</time>
      </trkpt>
      <trkpt lat="44.37801" lon="3.55019">
        <ele>574</ele>
        <time>2022-05-27T13:24:06Z</time>
      </trkpt>
      <trkpt lat="44.378" lon="3.55018">
        <ele>574</ele>
        <time>2022-05-27T13:24:07Z</time>
      </trkpt>
      <trkpt lat="44.37798" lon="3.55018">
        <ele>574</ele>
        <time>2022-05-27T13:24:08Z</time>
      </trkpt>
      <trkpt lat="44.37797" lon="3.55018">
        <ele>574</ele>
        <time>2022-05-27T13:24:09Z</time>
      </trkpt>
      <trkpt lat="44.37796" lon="3.55017">
        <ele>574</ele>
        <time>2022-05-27T13:24:10Z</time>
      </trkpt>
      <trkpt lat="44.37795" lon="3.55018">
        <ele>573</ele>
        <time>2022-05-27T13:24:11Z</time>
      </trkpt>
      <trkpt lat="44.37793" lon="3.55018">
        <ele>573</ele>
        <time>2022-05-27T13:24:12Z</time>
      </trkpt>
      <trkpt lat="44.37792" lon="3.55018">
        <ele>572</ele>
        <time>2022-05-27T13:24:13Z</time>
      </trkpt>
      <trkpt lat="44.3779" lon="3.55018">
        <ele>572</ele>
        <time>2022-05-27T13:24:14Z</time>
      </trkpt>
      <trkpt lat="44.37789" lon="3.55018">
        <ele>571</ele>
        <time>2022-05-27T13:24:15Z</time>
      </trkpt>
      <trkpt lat="44.37788" lon="3.55017">
        <ele>571</ele>
        <time>2022-05-27T13:24:16Z</time>
      </trkpt>
      <trkpt lat="44.37786" lon="3.55017">
        <ele>571</ele>
        <time>2022-05-27T13:24:17Z</time>
      </trkpt>
      <trkpt lat="44.37785" lon="3.55016">
        <ele>571</ele>
        <time>2022-05-27T13:24:18Z</time>
      </trkpt>
      <trkpt lat="44.37783" lon="3.55016">
        <ele>572</ele>
        <time>2022-05-27T13:24:19Z</time>
      </trkpt>
      <trkpt lat="44.37782" lon="3.55015">
        <ele>572</ele>
        <time>2022-05-27T13:24:20Z</time>
      </trkpt>
      <trkpt lat="44.37781" lon="3.55014">
        <ele>572</ele>
        <time>2022-05-27T13:24:21Z</time>
      </trkpt>
      <trkpt lat="44.3778" lon="3.55013">
        <ele>571</ele>
        <time>2022-05-27T13:24:22Z</time>
      </trkpt>
      <trkpt lat="44.37779" lon="3.55012">
        <ele>571</ele>
        <time>2022-05-27T13:24:23Z</time>
      </trkpt>
      <trkpt lat="44.37779" lon="3.55012">
        <ele>571</ele>
        <time>2022-05-27T13:24:24Z</time>
      </trkpt>
      <trkpt lat="44.37778" lon="3.55011">
        <ele>571</ele>
        <time>2022-05-27T13:24:25Z</time>
      </trkpt>
      <trkpt lat="44.37776" lon="3.55011">
        <ele>571</ele>
        <time>2022-05-27T13:24:26Z</time>
      </trkpt>
      <trkpt lat="44.37775" lon="3.5501">
        <ele>571</ele>
        <time>2022-05-27T13:24:27Z</time>
      </trkpt>
      <trkpt lat="44.37774" lon="3.55009">
        <ele>571</ele>
        <time>2022-05-27T13:24:28Z</time>
      </trkpt>
      <trkpt lat="44.37773" lon="3.55008">
        <ele>571</ele>
        <time>2022-05-27T13:24:29Z</time>
      </trkpt>
      <trkpt lat="44.37771" lon="3.55006">
        <ele>571</ele>
        <time>2022-05-27T13:24:30Z</time>
      </trkpt>
      <trkpt lat="44.3777" lon="3.55005">
        <ele>571</ele>
        <time>2022-05-27T13:24:31Z</time>
      </trkpt>
      <trkpt lat="44.37769" lon="3.55004">
        <ele>571</ele>
        <time>2022-05-27T13:24:32Z</time>
      </trkpt>
      <trkpt lat="44.37768" lon="3.55003">
        <ele>571</ele>
        <time>2022-05-27T13:24:33Z</time>
      </trkpt>
      <trkpt lat="44.37767" lon="3.55002">
        <ele>571</ele>
        <time>2022-05-27T13:24:34Z</time>
      </trkpt>
      <trkpt lat="44.37766" lon="3.55001">
        <ele>571</ele>
        <time>2022-05-27T13:24:35Z</time>
      </trkpt>
      <trkpt lat="44.37766" lon="3.55">
        <ele>570</ele>
        <time>2022-05-27T13:24:36Z</time>
      </trkpt>
      <trkpt lat="44.37764" lon="3.54999">
        <ele>571</ele>
        <time>2022-05-27T13:24:37Z</time>
      </trkpt>
      <trkpt lat="44.37764" lon="3.54997">
        <ele>570</ele>
        <time>2022-05-27T13:24:38Z</time>
      </trkpt>
      <trkpt lat="44.37763" lon="3.54996">
        <ele>570</ele>
        <time>2022-05-27T13:24:39Z</time>
      </trkpt>
      <trkpt lat="44.37762" lon="3.54994">
        <ele>570</ele>
        <time>2022-05-27T13:24:40Z</time>
      </trkpt>
      <trkpt lat="44.37761" lon="3.54993">
        <ele>570</ele>
        <time>2022-05-27T13:24:41Z</time>
      </trkpt>
      <trkpt lat="44.37759" lon="3.54991">
        <ele>570</ele>
        <time>2022-05-27T13:24:42Z</time>
      </trkpt>
      <trkpt lat="44.37759" lon="3.54989">
        <ele>570</ele>
        <time>2022-05-27T13:24:43Z</time>
      </trkpt>
      <trkpt lat="44.37758" lon="3.54988">
        <ele>571</ele>
        <time>2022-05-27T13:24:44Z</time>
      </trkpt>
      <trkpt lat="44.37757" lon="3.54986">
        <ele>571</ele>
        <time>2022-05-27T13:24:45Z</time>
      </trkpt>
      <trkpt lat="44.37756" lon="3.54984">
        <ele>571</ele>
        <time>2022-05-27T13:24:46Z</time>
      </trkpt>
      <trkpt lat="44.37755" lon="3.54982">
        <ele>572</ele>
        <time>2022-05-27T13:24:47Z</time>
      </trkpt>
      <trkpt lat="44.37754" lon="3.5498">
        <ele>572</ele>
        <time>2022-05-27T13:24:48Z</time>
      </trkpt>
      <trkpt lat="44.37753" lon="3.54979">
        <ele>573</ele>
        <time>2022-05-27T13:24:49Z</time>
      </trkpt>
      <trkpt lat="44.37752" lon="3.54977">
        <ele>574</ele>
        <time>2022-05-27T13:24:50Z</time>
      </trkpt>
      <trkpt lat="44.37751" lon="3.54976">
        <ele>574</ele>
        <time>2022-05-27T13:24:51Z</time>
      </trkpt>
      <trkpt lat="44.3775" lon="3.54975">
        <ele>573</ele>
        <time>2022-05-27T13:24:52Z</time>
      </trkpt>
      <trkpt lat="44.3775" lon="3.54974">
        <ele>572</ele>
        <time>2022-05-27T13:24:53Z</time>
      </trkpt>
      <trkpt lat="44.37748" lon="3.54973">
        <ele>572</ele>
        <time>2022-05-27T13:24:54Z</time>
      </trkpt>
      <trkpt lat="44.37748" lon="3.54972">
        <ele>571</ele>
        <time>2022-05-27T13:24:55Z</time>
      </trkpt>
      <trkpt lat="44.37746" lon="3.54971">
        <ele>571</ele>
        <time>2022-05-27T13:24:56Z</time>
      </trkpt>
      <trkpt lat="44.37746" lon="3.54969">
        <ele>571</ele>
        <time>2022-05-27T13:24:57Z</time>
      </trkpt>
      <trkpt lat="44.37745" lon="3.54969">
        <ele>571</ele>
        <time>2022-05-27T13:24:58Z</time>
      </trkpt>
      <trkpt lat="44.37745" lon="3.54968">
        <ele>571</ele>
        <time>2022-05-27T13:24:59Z</time>
      </trkpt>
      <trkpt lat="44.37744" lon="3.54966">
        <ele>571</ele>
        <time>2022-05-27T13:25:00Z</time>
      </trkpt>
      <trkpt lat="44.37743" lon="3.54965">
        <ele>571</ele>
        <time>2022-05-27T13:25:01Z</time>
      </trkpt>
      <trkpt lat="44.37743" lon="3.54964">
        <ele>570</ele>
        <time>2022-05-27T13:25:02Z</time>
      </trkpt>
      <trkpt lat="44.37742" lon="3.54963">
        <ele>570</ele>
        <time>2022-05-27T13:25:03Z</time>
      </trkpt>
      <trkpt lat="44.37741" lon="3.54962">
        <ele>570</ele>
        <time>2022-05-27T13:25:04Z</time>
      </trkpt>
      <trkpt lat="44.3774" lon="3.54961">
        <ele>570</ele>
        <time>2022-05-27T13:25:05Z</time>
      </trkpt>
      <trkpt lat="44.3774" lon="3.5496">
        <ele>570</ele>
        <time>2022-05-27T13:25:06Z</time>
      </trkpt>
      <trkpt lat="44.37739" lon="3.54958">
        <ele>570</ele>
        <time>2022-05-27T13:25:07Z</time>
      </trkpt>
      <trkpt lat="44.37738" lon="3.54956">
        <ele>570</ele>
        <time>2022-05-27T13:25:08Z</time>
      </trkpt>
      <trkpt lat="44.37737" lon="3.54954">
        <ele>570</ele>
        <time>2022-05-27T13:25:09Z</time>
      </trkpt>
      <trkpt lat="44.37737" lon="3.54953">
        <ele>570</ele>
        <time>2022-05-27T13:25:10Z</time>
      </trkpt>
      <trkpt lat="44.37737" lon="3.54953">
        <ele>569</ele>
        <time>2022-05-27T13:25:11Z</time>
      </trkpt>
      <trkpt lat="44.37736" lon="3.54952">
        <ele>570</ele>
        <time>2022-05-27T13:25:12Z</time>
      </trkpt>
      <trkpt lat="44.37736" lon="3.54952">
        <ele>570</ele>
        <time>2022-05-27T13:25:13Z</time>
      </trkpt>
      <trkpt lat="44.37736" lon="3.54952">
        <ele>570</ele>
        <time>2022-05-27T13:25:14Z</time>
      </trkpt>
      <trkpt lat="44.37736" lon="3.54952">
        <ele>570</ele>
        <time>2022-05-27T13:25:14Z</time>
      </trkpt>
      <trkpt lat="44.37736" lon="3.54952">
        <ele>570</ele>
        <time>2022-05-27T13:25:14Z</time>
      </trkpt>
      <trkpt lat="44.37732" lon="3.54944">
        <ele>573</ele>
        <time>2022-05-27T13:25:36Z</time>
      </trkpt>
      <trkpt lat="44.37732" lon="3.54943">
        <ele>573</ele>
        <time>2022-05-27T13:25:37Z</time>
      </trkpt>
      <trkpt lat="44.37731" lon="3.54942">
        <ele>572</ele>
        <time>2022-05-27T13:25:38Z</time>
      </trkpt>
      <trkpt lat="44.3773" lon="3.54942">
        <ele>572</ele>
        <time>2022-05-27T13:25:39Z</time>
      </trkpt>
      <trkpt lat="44.3773" lon="3.5494">
        <ele>573</ele>
        <time>2022-05-27T13:25:40Z</time>
      </trkpt>
      <trkpt lat="44.37729" lon="3.54939">
        <ele>573</ele>
        <time>2022-05-27T13:25:41Z</time>
      </trkpt>
      <trkpt lat="44.37729" lon="3.54938">
        <ele>573</ele>
        <time>2022-05-27T13:25:42Z</time>
      </trkpt>
      <trkpt lat="44.37727" lon="3.54937">
        <ele>573</ele>
        <time>2022-05-27T13:25:43Z</time>
      </trkpt>
      <trkpt lat="44.37727" lon="3.54936">
        <ele>573</ele>
        <time>2022-05-27T13:25:44Z</time>
      </trkpt>
      <trkpt lat="44.37726" lon="3.54935">
        <ele>572</ele>
        <time>2022-05-27T13:25:45Z</time>
      </trkpt>
      <trkpt lat="44.37725" lon="3.54934">
        <ele>573</ele>
        <time>2022-05-27T13:25:46Z</time>
      </trkpt>
      <trkpt lat="44.37725" lon="3.54934">
        <ele>573</ele>
        <time>2022-05-27T13:25:47Z</time>
      </trkpt>
      <trkpt lat="44.37724" lon="3.54933">
        <ele>573</ele>
        <time>2022-05-27T13:25:48Z</time>
      </trkpt>
      <trkpt lat="44.37723" lon="3.54932">
        <ele>573</ele>
        <time>2022-05-27T13:25:49Z</time>
      </trkpt>
      <trkpt lat="44.37722" lon="3.54931">
        <ele>573</ele>
        <time>2022-05-27T13:25:50Z</time>
      </trkpt>
      <trkpt lat="44.37722" lon="3.5493">
        <ele>573</ele>
        <time>2022-05-27T13:25:51Z</time>
      </trkpt>
      <trkpt lat="44.37722" lon="3.54929">
        <ele>573</ele>
        <time>2022-05-27T13:25:52Z</time>
      </trkpt>
      <trkpt lat="44.37721" lon="3.54927">
        <ele>572</ele>
        <time>2022-05-27T13:25:53Z</time>
      </trkpt>
      <trkpt lat="44.3772" lon="3.54926">
        <ele>572</ele>
        <time>2022-05-27T13:25:54Z</time>
      </trkpt>
      <trkpt lat="44.37719" lon="3.54924">
        <ele>572</ele>
        <time>2022-05-27T13:25:55Z</time>
      </trkpt>
      <trkpt lat="44.37719" lon="3.54923">
        <ele>572</ele>
        <time>2022-05-27T13:25:56Z</time>
      </trkpt>
      <trkpt lat="44.37719" lon="3.54922">
        <ele>572</ele>
        <time>2022-05-27T13:25:57Z</time>
      </trkpt>
      <trkpt lat="44.37719" lon="3.5492">
        <ele>571</ele>
        <time>2022-05-27T13:25:58Z</time>
      </trkpt>
      <trkpt lat="44.37718" lon="3.54918">
        <ele>572</ele>
        <time>2022-05-27T13:25:59Z</time>
      </trkpt>
      <trkpt lat="44.37718" lon="3.54916">
        <ele>571</ele>
        <time>2022-05-27T13:26:00Z</time>
      </trkpt>
      <trkpt lat="44.37718" lon="3.54915">
        <ele>570</ele>
        <time>2022-05-27T13:26:01Z</time>
      </trkpt>
      <trkpt lat="44.37717" lon="3.54913">
        <ele>570</ele>
        <time>2022-05-27T13:26:02Z</time>
      </trkpt>
      <trkpt lat="44.37717" lon="3.54912">
        <ele>570</ele>
        <time>2022-05-27T13:26:03Z</time>
      </trkpt>
      <trkpt lat="44.37717" lon="3.54909">
        <ele>570</ele>
        <time>2022-05-27T13:26:04Z</time>
      </trkpt>
      <trkpt lat="44.37717" lon="3.54907">
        <ele>570</ele>
        <time>2022-05-27T13:26:05Z</time>
      </trkpt>
      <trkpt lat="44.37717" lon="3.54905">
        <ele>570</ele>
        <time>2022-05-27T13:26:06Z</time>
      </trkpt>
      <trkpt lat="44.37717" lon="3.54904">
        <ele>570</ele>
        <time>2022-05-27T13:26:07Z</time>
      </trkpt>
      <trkpt lat="44.37717" lon="3.54902">
        <ele>570</ele>
        <time>2022-05-27T13:26:08Z</time>
      </trkpt>
      <trkpt lat="44.37716" lon="3.54899">
        <ele>570</ele>
        <time>2022-05-27T13:26:09Z</time>
      </trkpt>
      <trkpt lat="44.37716" lon="3.54898">
        <ele>570</ele>
        <time>2022-05-27T13:26:10Z</time>
      </trkpt>
      <trkpt lat="44.37716" lon="3.54896">
        <ele>571</ele>
        <time>2022-05-27T13:26:11Z</time>
      </trkpt>
      <trkpt lat="44.37715" lon="3.54895">
        <ele>571</ele>
        <time>2022-05-27T13:26:12Z</time>
      </trkpt>
      <trkpt lat="44.37714" lon="3.54894">
        <ele>571</ele>
        <time>2022-05-27T13:26:13Z</time>
      </trkpt>
      <trkpt lat="44.37714" lon="3.54892">
        <ele>571</ele>
        <time>2022-05-27T13:26:14Z</time>
      </trkpt>
      <trkpt lat="44.37714" lon="3.54891">
        <ele>571</ele>
        <time>2022-05-27T13:26:15Z</time>
      </trkpt>
      <trkpt lat="44.37713" lon="3.54889">
        <ele>571</ele>
        <time>2022-05-27T13:26:16Z</time>
      </trkpt>
      <trkpt lat="44.37713" lon="3.54887">
        <ele>571</ele>
        <time>2022-05-27T13:26:17Z</time>
      </trkpt>
      <trkpt lat="44.37713" lon="3.54885">
        <ele>572</ele>
        <time>2022-05-27T13:26:18Z</time>
      </trkpt>
      <trkpt lat="44.37713" lon="3.54884">
        <ele>571</ele>
        <time>2022-05-27T13:26:19Z</time>
      </trkpt>
      <trkpt lat="44.37713" lon="3.54882">
        <ele>572</ele>
        <time>2022-05-27T13:26:20Z</time>
      </trkpt>
      <trkpt lat="44.37712" lon="3.5488">
        <ele>571</ele>
        <time>2022-05-27T13:26:21Z</time>
      </trkpt>
      <trkpt lat="44.37712" lon="3.54878">
        <ele>572</ele>
        <time>2022-05-27T13:26:22Z</time>
      </trkpt>
      <trkpt lat="44.37712" lon="3.54877">
        <ele>573</ele>
        <time>2022-05-27T13:26:23Z</time>
      </trkpt>
      <trkpt lat="44.37712" lon="3.54876">
        <ele>573</ele>
        <time>2022-05-27T13:26:24Z</time>
      </trkpt>
      <trkpt lat="44.37712" lon="3.54874">
        <ele>573</ele>
        <time>2022-05-27T13:26:25Z</time>
      </trkpt>
      <trkpt lat="44.37712" lon="3.54872">
        <ele>573</ele>
        <time>2022-05-27T13:26:26Z</time>
      </trkpt>
      <trkpt lat="44.37711" lon="3.54871">
        <ele>574</ele>
        <time>2022-05-27T13:26:27Z</time>
      </trkpt>
      <trkpt lat="44.37712" lon="3.54869">
        <ele>574</ele>
        <time>2022-05-27T13:26:28Z</time>
      </trkpt>
      <trkpt lat="44.37711" lon="3.54868">
        <ele>573</ele>
        <time>2022-05-27T13:26:29Z</time>
      </trkpt>
      <trkpt lat="44.37711" lon="3.54867">
        <ele>573</ele>
        <time>2022-05-27T13:26:30Z</time>
      </trkpt>
      <trkpt lat="44.3771" lon="3.54866">
        <ele>573</ele>
        <time>2022-05-27T13:26:31Z</time>
      </trkpt>
      <trkpt lat="44.3771" lon="3.54864">
        <ele>573</ele>
        <time>2022-05-27T13:26:32Z</time>
      </trkpt>
      <trkpt lat="44.37709" lon="3.54863">
        <ele>573</ele>
        <time>2022-05-27T13:26:33Z</time>
      </trkpt>
      <trkpt lat="44.37709" lon="3.54861">
        <ele>572</ele>
        <time>2022-05-27T13:26:34Z</time>
      </trkpt>
      <trkpt lat="44.37708" lon="3.5486">
        <ele>571</ele>
        <time>2022-05-27T13:26:35Z</time>
      </trkpt>
      <trkpt lat="44.37708" lon="3.54859">
        <ele>572</ele>
        <time>2022-05-27T13:26:36Z</time>
      </trkpt>
      <trkpt lat="44.37708" lon="3.54858">
        <ele>571</ele>
        <time>2022-05-27T13:26:37Z</time>
      </trkpt>
      <trkpt lat="44.37708" lon="3.54856">
        <ele>571</ele>
        <time>2022-05-27T13:26:38Z</time>
      </trkpt>
      <trkpt lat="44.37708" lon="3.54855">
        <ele>571</ele>
        <time>2022-05-27T13:26:39Z</time>
      </trkpt>
      <trkpt lat="44.37707" lon="3.54853">
        <ele>571</ele>
        <time>2022-05-27T13:26:40Z</time>
      </trkpt>
      <trkpt lat="44.37707" lon="3.54851">
        <ele>571</ele>
        <time>2022-05-27T13:26:41Z</time>
      </trkpt>
      <trkpt lat="44.37706" lon="3.5485">
        <ele>571</ele>
        <time>2022-05-27T13:26:42Z</time>
      </trkpt>
      <trkpt lat="44.37706" lon="3.54849">
        <ele>571</ele>
        <time>2022-05-27T13:26:43Z</time>
      </trkpt>
      <trkpt lat="44.37705" lon="3.54847">
        <ele>570</ele>
        <time>2022-05-27T13:26:44Z</time>
      </trkpt>
      <trkpt lat="44.37705" lon="3.54844">
        <ele>569</ele>
        <time>2022-05-27T13:26:45Z</time>
      </trkpt>
      <trkpt lat="44.37704" lon="3.54843">
        <ele>569</ele>
        <time>2022-05-27T13:26:46Z</time>
      </trkpt>
      <trkpt lat="44.37704" lon="3.54841">
        <ele>569</ele>
        <time>2022-05-27T13:26:47Z</time>
      </trkpt>
      <trkpt lat="44.37703" lon="3.54839">
        <ele>568</ele>
        <time>2022-05-27T13:26:48Z</time>
      </trkpt>
      <trkpt lat="44.37703" lon="3.54837">
        <ele>568</ele>
        <time>2022-05-27T13:26:49Z</time>
      </trkpt>
      <trkpt lat="44.37703" lon="3.54835">
        <ele>568</ele>
        <time>2022-05-27T13:26:50Z</time>
      </trkpt>
      <trkpt lat="44.37703" lon="3.54833">
        <ele>567</ele>
        <time>2022-05-27T13:26:51Z</time>
      </trkpt>
      <trkpt lat="44.37702" lon="3.54831">
        <ele>567</ele>
        <time>2022-05-27T13:26:52Z</time>
      </trkpt>
      <trkpt lat="44.37702" lon="3.5483">
        <ele>566</ele>
        <time>2022-05-27T13:26:53Z</time>
      </trkpt>
      <trkpt lat="44.37702" lon="3.54827">
        <ele>566</ele>
        <time>2022-05-27T13:26:54Z</time>
      </trkpt>
      <trkpt lat="44.37702" lon="3.54826">
        <ele>566</ele>
        <time>2022-05-27T13:26:55Z</time>
      </trkpt>
      <trkpt lat="44.37701" lon="3.54824">
        <ele>566</ele>
        <time>2022-05-27T13:26:56Z</time>
      </trkpt>
      <trkpt lat="44.37701" lon="3.54822">
        <ele>566</ele>
        <time>2022-05-27T13:26:57Z</time>
      </trkpt>
      <trkpt lat="44.377" lon="3.5482">
        <ele>566</ele>
        <time>2022-05-27T13:26:58Z</time>
      </trkpt>
      <trkpt lat="44.37699" lon="3.54818">
        <ele>566</ele>
        <time>2022-05-27T13:26:59Z</time>
      </trkpt>
      <trkpt lat="44.37698" lon="3.54816">
        <ele>566</ele>
        <time>2022-05-27T13:27:00Z</time>
      </trkpt>
      <trkpt lat="44.37698" lon="3.54815">
        <ele>566</ele>
        <time>2022-05-27T13:27:01Z</time>
      </trkpt>
      <trkpt lat="44.37697" lon="3.54813">
        <ele>566</ele>
        <time>2022-05-27T13:27:02Z</time>
      </trkpt>
      <trkpt lat="44.37696" lon="3.54811">
        <ele>566</ele>
        <time>2022-05-27T13:27:03Z</time>
      </trkpt>
      <trkpt lat="44.37696" lon="3.5481">
        <ele>566</ele>
        <time>2022-05-27T13:27:04Z</time>
      </trkpt>
      <trkpt lat="44.37696" lon="3.54808">
        <ele>567</ele>
        <time>2022-05-27T13:27:05Z</time>
      </trkpt>
      <trkpt lat="44.37695" lon="3.54806">
        <ele>567</ele>
        <time>2022-05-27T13:27:06Z</time>
      </trkpt>
      <trkpt lat="44.37695" lon="3.54805">
        <ele>568</ele>
        <time>2022-05-27T13:27:07Z</time>
      </trkpt>
      <trkpt lat="44.37694" lon="3.54803">
        <ele>568</ele>
        <time>2022-05-27T13:27:08Z</time>
      </trkpt>
      <trkpt lat="44.37693" lon="3.54802">
        <ele>568</ele>
        <time>2022-05-27T13:27:09Z</time>
      </trkpt>
      <trkpt lat="44.37693" lon="3.54801">
        <ele>568</ele>
        <time>2022-05-27T13:27:10Z</time>
      </trkpt>
      <trkpt lat="44.37693" lon="3.548">
        <ele>568</ele>
        <time>2022-05-27T13:27:11Z</time>
      </trkpt>
      <trkpt lat="44.37692" lon="3.54797">
        <ele>568</ele>
        <time>2022-05-27T13:27:12Z</time>
      </trkpt>
      <trkpt lat="44.37692" lon="3.54795">
        <ele>567</ele>
        <time>2022-05-27T13:27:13Z</time>
      </trkpt>
      <trkpt lat="44.37691" lon="3.54793">
        <ele>567</ele>
        <time>2022-05-27T13:27:14Z</time>
      </trkpt>
      <trkpt lat="44.37691" lon="3.54791">
        <ele>567</ele>
        <time>2022-05-27T13:27:15Z</time>
      </trkpt>
      <trkpt lat="44.37691" lon="3.54789">
        <ele>567</ele>
        <time>2022-05-27T13:27:16Z</time>
      </trkpt>
      <trkpt lat="44.3769" lon="3.54787">
        <ele>567</ele>
        <time>2022-05-27T13:27:17Z</time>
      </trkpt>
      <trkpt lat="44.3769" lon="3.54784">
        <ele>567</ele>
        <time>2022-05-27T13:27:18Z</time>
      </trkpt>
      <trkpt lat="44.3769" lon="3.54782">
        <ele>568</ele>
        <time>2022-05-27T13:27:19Z</time>
      </trkpt>
      <trkpt lat="44.3769" lon="3.5478">
        <ele>568</ele>
        <time>2022-05-27T13:27:20Z</time>
      </trkpt>
      <trkpt lat="44.3769" lon="3.54778">
        <ele>567</ele>
        <time>2022-05-27T13:27:21Z</time>
      </trkpt>
      <trkpt lat="44.3769" lon="3.54776">
        <ele>567</ele>
        <time>2022-05-27T13:27:22Z</time>
      </trkpt>
      <trkpt lat="44.3769" lon="3.54774">
        <ele>567</ele>
        <time>2022-05-27T13:27:23Z</time>
      </trkpt>
      <trkpt lat="44.37689" lon="3.54772">
        <ele>567</ele>
        <time>2022-05-27T13:27:24Z</time>
      </trkpt>
      <trkpt lat="44.37688" lon="3.5477">
        <ele>567</ele>
        <time>2022-05-27T13:27:25Z</time>
      </trkpt>
      <trkpt lat="44.37688" lon="3.54768">
        <ele>567</ele>
        <time>2022-05-27T13:27:26Z</time>
      </trkpt>
      <trkpt lat="44.37687" lon="3.54765">
        <ele>567</ele>
        <time>2022-05-27T13:27:27Z</time>
      </trkpt>
      <trkpt lat="44.37687" lon="3.54763">
        <ele>566</ele>
        <time>2022-05-27T13:27:28Z</time>
      </trkpt>
      <trkpt lat="44.37687" lon="3.54761">
        <ele>566</ele>
        <time>2022-05-27T13:27:29Z</time>
      </trkpt>
      <trkpt lat="44.37686" lon="3.54759">
        <ele>565</ele>
        <time>2022-05-27T13:27:30Z</time>
      </trkpt>
      <trkpt lat="44.37686" lon="3.54758">
        <ele>565</ele>
        <time>2022-05-27T13:27:31Z</time>
      </trkpt>
      <trkpt lat="44.37686" lon="3.54757">
        <ele>565</ele>
        <time>2022-05-27T13:27:32Z</time>
      </trkpt>
      <trkpt lat="44.37685" lon="3.54755">
        <ele>564</ele>
        <time>2022-05-27T13:27:33Z</time>
      </trkpt>
      <trkpt lat="44.37685" lon="3.54754">
        <ele>564</ele>
        <time>2022-05-27T13:27:34Z</time>
      </trkpt>
      <trkpt lat="44.37685" lon="3.54752">
        <ele>563</ele>
        <time>2022-05-27T13:27:35Z</time>
      </trkpt>
      <trkpt lat="44.37684" lon="3.54751">
        <ele>563</ele>
        <time>2022-05-27T13:27:36Z</time>
      </trkpt>
      <trkpt lat="44.37684" lon="3.54749">
        <ele>564</ele>
        <time>2022-05-27T13:27:37Z</time>
      </trkpt>
      <trkpt lat="44.37684" lon="3.54747">
        <ele>564</ele>
        <time>2022-05-27T13:27:38Z</time>
      </trkpt>
      <trkpt lat="44.37684" lon="3.54746">
        <ele>564</ele>
        <time>2022-05-27T13:27:39Z</time>
      </trkpt>
      <trkpt lat="44.37683" lon="3.54744">
        <ele>564</ele>
        <time>2022-05-27T13:27:40Z</time>
      </trkpt>
      <trkpt lat="44.37683" lon="3.54742">
        <ele>564</ele>
        <time>2022-05-27T13:27:41Z</time>
      </trkpt>
      <trkpt lat="44.37682" lon="3.5474">
        <ele>564</ele>
        <time>2022-05-27T13:27:42Z</time>
      </trkpt>
      <trkpt lat="44.37682" lon="3.54739">
        <ele>564</ele>
        <time>2022-05-27T13:27:43Z</time>
      </trkpt>
      <trkpt lat="44.37682" lon="3.54737">
        <ele>564</ele>
        <time>2022-05-27T13:27:44Z</time>
      </trkpt>
      <trkpt lat="44.37682" lon="3.54735">
        <ele>565</ele>
        <time>2022-05-27T13:27:45Z</time>
      </trkpt>
      <trkpt lat="44.37682" lon="3.54734">
        <ele>564</ele>
        <time>2022-05-27T13:27:46Z</time>
      </trkpt>
      <trkpt lat="44.37681" lon="3.54732">
        <ele>565</ele>
        <time>2022-05-27T13:27:47Z</time>
      </trkpt>
      <trkpt lat="44.37681" lon="3.5473">
        <ele>565</ele>
        <time>2022-05-27T13:27:48Z</time>
      </trkpt>
      <trkpt lat="44.37682" lon="3.54728">
        <ele>565</ele>
        <time>2022-05-27T13:27:49Z</time>
      </trkpt>
      <trkpt lat="44.37682" lon="3.54726">
        <ele>566</ele>
        <time>2022-05-27T13:27:50Z</time>
      </trkpt>
      <trkpt lat="44.37681" lon="3.54724">
        <ele>566</ele>
        <time>2022-05-27T13:27:51Z</time>
      </trkpt>
      <trkpt lat="44.3768" lon="3.54722">
        <ele>566</ele>
        <time>2022-05-27T13:27:52Z</time>
      </trkpt>
      <trkpt lat="44.3768" lon="3.5472">
        <ele>566</ele>
        <time>2022-05-27T13:27:53Z</time>
      </trkpt>
      <trkpt lat="44.37679" lon="3.54718">
        <ele>566</ele>
        <time>2022-05-27T13:27:54Z</time>
      </trkpt>
      <trkpt lat="44.37679" lon="3.54716">
        <ele>567</ele>
        <time>2022-05-27T13:27:55Z</time>
      </trkpt>
      <trkpt lat="44.37678" lon="3.54714">
        <ele>566</ele>
        <time>2022-05-27T13:27:56Z</time>
      </trkpt>
      <trkpt lat="44.37678" lon="3.54713">
        <ele>566</ele>
        <time>2022-05-27T13:27:57Z</time>
      </trkpt>
      <trkpt lat="44.37677" lon="3.54711">
        <ele>567</ele>
        <time>2022-05-27T13:27:58Z</time>
      </trkpt>
      <trkpt lat="44.37677" lon="3.5471">
        <ele>567</ele>
        <time>2022-05-27T13:27:59Z</time>
      </trkpt>
      <trkpt lat="44.37676" lon="3.54709">
        <ele>566</ele>
        <time>2022-05-27T13:28:00Z</time>
      </trkpt>
      <trkpt lat="44.37676" lon="3.54707">
        <ele>566</ele>
        <time>2022-05-27T13:28:01Z</time>
      </trkpt>
      <trkpt lat="44.37676" lon="3.54706">
        <ele>567</ele>
        <time>2022-05-27T13:28:02Z</time>
      </trkpt>
      <trkpt lat="44.37676" lon="3.54705">
        <ele>567</ele>
        <time>2022-05-27T13:28:03Z</time>
      </trkpt>
      <trkpt lat="44.37676" lon="3.54703">
        <ele>568</ele>
        <time>2022-05-27T13:28:04Z</time>
      </trkpt>
      <trkpt lat="44.37675" lon="3.54702">
        <ele>568</ele>
        <time>2022-05-27T13:28:05Z</time>
      </trkpt>
      <trkpt lat="44.37675" lon="3.54701">
        <ele>568</ele>
        <time>2022-05-27T13:28:06Z</time>
      </trkpt>
      <trkpt lat="44.37674" lon="3.54699">
        <ele>569</ele>
        <time>2022-05-27T13:28:07Z</time>
      </trkpt>
      <trkpt lat="44.37674" lon="3.54698">
        <ele>569</ele>
        <time>2022-05-27T13:28:08Z</time>
      </trkpt>
      <trkpt lat="44.37673" lon="3.54696">
        <ele>569</ele>
        <time>2022-05-27T13:28:09Z</time>
      </trkpt>
      <trkpt lat="44.37671" lon="3.54695">
        <ele>569</ele>
        <time>2022-05-27T13:28:10Z</time>
      </trkpt>
      <trkpt lat="44.37671" lon="3.54694">
        <ele>569</ele>
        <time>2022-05-27T13:28:11Z</time>
      </trkpt>
      <trkpt lat="44.3767" lon="3.54692">
        <ele>569</ele>
        <time>2022-05-27T13:28:12Z</time>
      </trkpt>
      <trkpt lat="44.3767" lon="3.54691">
        <ele>569</ele>
        <time>2022-05-27T13:28:13Z</time>
      </trkpt>
      <trkpt lat="44.37669" lon="3.54689">
        <ele>569</ele>
        <time>2022-05-27T13:28:14Z</time>
      </trkpt>
      <trkpt lat="44.37669" lon="3.54688">
        <ele>569</ele>
        <time>2022-05-27T13:28:15Z</time>
      </trkpt>
      <trkpt lat="44.37668" lon="3.54686">
        <ele>569</ele>
        <time>2022-05-27T13:28:16Z</time>
      </trkpt>
      <trkpt lat="44.37667" lon="3.54684">
        <ele>569</ele>
        <time>2022-05-27T13:28:17Z</time>
      </trkpt>
      <trkpt lat="44.37666" lon="3.54682">
        <ele>569</ele>
        <time>2022-05-27T13:28:18Z</time>
      </trkpt>
      <trkpt lat="44.37666" lon="3.54681">
        <ele>569</ele>
        <time>2022-05-27T13:28:19Z</time>
      </trkpt>
      <trkpt lat="44.37665" lon="3.54679">
        <ele>569</ele>
        <time>2022-05-27T13:28:20Z</time>
      </trkpt>
      <trkpt lat="44.37664" lon="3.54678">
        <ele>569</ele>
        <time>2022-05-27T13:28:21Z</time>
      </trkpt>
      <trkpt lat="44.37664" lon="3.54676">
        <ele>568</ele>
        <time>2022-05-27T13:28:22Z</time>
      </trkpt>
      <trkpt lat="44.37663" lon="3.54675">
        <ele>569</ele>
        <time>2022-05-27T13:28:23Z</time>
      </trkpt>
      <trkpt lat="44.37663" lon="3.54674">
        <ele>569</ele>
        <time>2022-05-27T13:28:24Z</time>
      </trkpt>
      <trkpt lat="44.37662" lon="3.54671">
        <ele>570</ele>
        <time>2022-05-27T13:28:25Z</time>
      </trkpt>
      <trkpt lat="44.37661" lon="3.5467">
        <ele>570</ele>
        <time>2022-05-27T13:28:26Z</time>
      </trkpt>
      <trkpt lat="44.3766" lon="3.54668">
        <ele>569</ele>
        <time>2022-05-27T13:28:27Z</time>
      </trkpt>
      <trkpt lat="44.3766" lon="3.54666">
        <ele>569</ele>
        <time>2022-05-27T13:28:28Z</time>
      </trkpt>
      <trkpt lat="44.37658" lon="3.54665">
        <ele>569</ele>
        <time>2022-05-27T13:28:29Z</time>
      </trkpt>
      <trkpt lat="44.37657" lon="3.54664">
        <ele>568</ele>
        <time>2022-05-27T13:28:30Z</time>
      </trkpt>
      <trkpt lat="44.37656" lon="3.54662">
        <ele>568</ele>
        <time>2022-05-27T13:28:31Z</time>
      </trkpt>
      <trkpt lat="44.37655" lon="3.5466">
        <ele>568</ele>
        <time>2022-05-27T13:28:32Z</time>
      </trkpt>
      <trkpt lat="44.37654" lon="3.54659">
        <ele>568</ele>
        <time>2022-05-27T13:28:33Z</time>
      </trkpt>
      <trkpt lat="44.37653" lon="3.54656">
        <ele>568</ele>
        <time>2022-05-27T13:28:34Z</time>
      </trkpt>
      <trkpt lat="44.37653" lon="3.54654">
        <ele>567</ele>
        <time>2022-05-27T13:28:35Z</time>
      </trkpt>
      <trkpt lat="44.37652" lon="3.54652">
        <ele>566</ele>
        <time>2022-05-27T13:28:36Z</time>
      </trkpt>
      <trkpt lat="44.37651" lon="3.5465">
        <ele>566</ele>
        <time>2022-05-27T13:28:37Z</time>
      </trkpt>
      <trkpt lat="44.3765" lon="3.54648">
        <ele>566</ele>
        <time>2022-05-27T13:28:38Z</time>
      </trkpt>
      <trkpt lat="44.3765" lon="3.54647">
        <ele>566</ele>
        <time>2022-05-27T13:28:39Z</time>
      </trkpt>
      <trkpt lat="44.37649" lon="3.54645">
        <ele>565</ele>
        <time>2022-05-27T13:28:40Z</time>
      </trkpt>
      <trkpt lat="44.37648" lon="3.54643">
        <ele>565</ele>
        <time>2022-05-27T13:28:41Z</time>
      </trkpt>
      <trkpt lat="44.37648" lon="3.54642">
        <ele>565</ele>
        <time>2022-05-27T13:28:42Z</time>
      </trkpt>
      <trkpt lat="44.37647" lon="3.5464">
        <ele>565</ele>
        <time>2022-05-27T13:28:43Z</time>
      </trkpt>
      <trkpt lat="44.37646" lon="3.54638">
        <ele>566</ele>
        <time>2022-05-27T13:28:44Z</time>
      </trkpt>
      <trkpt lat="44.37645" lon="3.54636">
        <ele>567</ele>
        <time>2022-05-27T13:28:45Z</time>
      </trkpt>
      <trkpt lat="44.37644" lon="3.54634">
        <ele>566</ele>
        <time>2022-05-27T13:28:46Z</time>
      </trkpt>
      <trkpt lat="44.37643" lon="3.54632">
        <ele>566</ele>
        <time>2022-05-27T13:28:47Z</time>
      </trkpt>
      <trkpt lat="44.37642" lon="3.5463">
        <ele>566</ele>
        <time>2022-05-27T13:28:48Z</time>
      </trkpt>
      <trkpt lat="44.37642" lon="3.54628">
        <ele>566</ele>
        <time>2022-05-27T13:28:49Z</time>
      </trkpt>
      <trkpt lat="44.37642" lon="3.54627">
        <ele>566</ele>
        <time>2022-05-27T13:28:50Z</time>
      </trkpt>
      <trkpt lat="44.37641" lon="3.54625">
        <ele>566</ele>
        <time>2022-05-27T13:28:51Z</time>
      </trkpt>
      <trkpt lat="44.3764" lon="3.54624">
        <ele>567</ele>
        <time>2022-05-27T13:28:52Z</time>
      </trkpt>
      <trkpt lat="44.3764" lon="3.54623">
        <ele>566</ele>
        <time>2022-05-27T13:28:53Z</time>
      </trkpt>
      <trkpt lat="44.37639" lon="3.54621">
        <ele>567</ele>
        <time>2022-05-27T13:28:54Z</time>
      </trkpt>
      <trkpt lat="44.37639" lon="3.5462">
        <ele>567</ele>
        <time>2022-05-27T13:28:55Z</time>
      </trkpt>
      <trkpt lat="44.37638" lon="3.54619">
        <ele>567</ele>
        <time>2022-05-27T13:28:56Z</time>
      </trkpt>
      <trkpt lat="44.37637" lon="3.54618">
        <ele>568</ele>
        <time>2022-05-27T13:28:57Z</time>
      </trkpt>
      <trkpt lat="44.37636" lon="3.54616">
        <ele>568</ele>
        <time>2022-05-27T13:28:58Z</time>
      </trkpt>
      <trkpt lat="44.37636" lon="3.54615">
        <ele>568</ele>
        <time>2022-05-27T13:28:59Z</time>
      </trkpt>
      <trkpt lat="44.37635" lon="3.54613">
        <ele>568</ele>
        <time>2022-05-27T13:29:00Z</time>
      </trkpt>
      <trkpt lat="44.37635" lon="3.54612">
        <ele>567</ele>
        <time>2022-05-27T13:29:01Z</time>
      </trkpt>
      <trkpt lat="44.37634" lon="3.54611">
        <ele>567</ele>
        <time>2022-05-27T13:29:02Z</time>
      </trkpt>
      <trkpt lat="44.37634" lon="3.54609">
        <ele>567</ele>
        <time>2022-05-27T13:29:03Z</time>
      </trkpt>
      <trkpt lat="44.37635" lon="3.54608">
        <ele>567</ele>
        <time>2022-05-27T13:29:04Z</time>
      </trkpt>
      <trkpt lat="44.37634" lon="3.54606">
        <ele>568</ele>
        <time>2022-05-27T13:29:05Z</time>
      </trkpt>
      <trkpt lat="44.37634" lon="3.54604">
        <ele>568</ele>
        <time>2022-05-27T13:29:06Z</time>
      </trkpt>
      <trkpt lat="44.37632" lon="3.54602">
        <ele>567</ele>
        <time>2022-05-27T13:29:07Z</time>
      </trkpt>
      <trkpt lat="44.37632" lon="3.546">
        <ele>567</ele>
        <time>2022-05-27T13:29:08Z</time>
      </trkpt>
      <trkpt lat="44.37631" lon="3.54599">
        <ele>567</ele>
        <time>2022-05-27T13:29:09Z</time>
      </trkpt>
      <trkpt lat="44.3763" lon="3.54598">
        <ele>568</ele>
        <time>2022-05-27T13:29:10Z</time>
      </trkpt>
      <trkpt lat="44.37629" lon="3.54597">
        <ele>567</ele>
        <time>2022-05-27T13:29:11Z</time>
      </trkpt>
      <trkpt lat="44.37629" lon="3.54596">
        <ele>567</ele>
        <time>2022-05-27T13:29:12Z</time>
      </trkpt>
      <trkpt lat="44.37628" lon="3.54595">
        <ele>567</ele>
        <time>2022-05-27T13:29:13Z</time>
      </trkpt>
      <trkpt lat="44.37627" lon="3.54594">
        <ele>567</ele>
        <time>2022-05-27T13:29:14Z</time>
      </trkpt>
      <trkpt lat="44.37626" lon="3.54592">
        <ele>567</ele>
        <time>2022-05-27T13:29:15Z</time>
      </trkpt>
      <trkpt lat="44.37625" lon="3.5459">
        <ele>567</ele>
        <time>2022-05-27T13:29:16Z</time>
      </trkpt>
      <trkpt lat="44.37624" lon="3.54589">
        <ele>567</ele>
        <time>2022-05-27T13:29:17Z</time>
      </trkpt>
      <trkpt lat="44.37624" lon="3.54587">
        <ele>567</ele>
        <time>2022-05-27T13:29:18Z</time>
      </trkpt>
      <trkpt lat="44.37624" lon="3.54585">
        <ele>566</ele>
        <time>2022-05-27T13:29:19Z</time>
      </trkpt>
      <trkpt lat="44.37623" lon="3.54584">
        <ele>567</ele>
        <time>2022-05-27T13:29:20Z</time>
      </trkpt>
      <trkpt lat="44.37623" lon="3.54583">
        <ele>566</ele>
        <time>2022-05-27T13:29:21Z</time>
      </trkpt>
      <trkpt lat="44.37623" lon="3.54581">
        <ele>567</ele>
        <time>2022-05-27T13:29:22Z</time>
      </trkpt>
      <trkpt lat="44.37621" lon="3.54579">
        <ele>566</ele>
        <time>2022-05-27T13:29:23Z</time>
      </trkpt>
      <trkpt lat="44.3762" lon="3.54577">
        <ele>566</ele>
        <time>2022-05-27T13:29:24Z</time>
      </trkpt>
      <trkpt lat="44.37618" lon="3.54575">
        <ele>566</ele>
        <time>2022-05-27T13:29:25Z</time>
      </trkpt>
      <trkpt lat="44.37617" lon="3.54574">
        <ele>566</ele>
        <time>2022-05-27T13:29:26Z</time>
      </trkpt>
      <trkpt lat="44.37616" lon="3.54572">
        <ele>565</ele>
        <time>2022-05-27T13:29:27Z</time>
      </trkpt>
      <trkpt lat="44.37614" lon="3.5457">
        <ele>565</ele>
        <time>2022-05-27T13:29:28Z</time>
      </trkpt>
      <trkpt lat="44.37613" lon="3.54568">
        <ele>566</ele>
        <time>2022-05-27T13:29:29Z</time>
      </trkpt>
      <trkpt lat="44.37613" lon="3.54567">
        <ele>566</ele>
        <time>2022-05-27T13:29:30Z</time>
      </trkpt>
      <trkpt lat="44.37612" lon="3.54566">
        <ele>566</ele>
        <time>2022-05-27T13:29:31Z</time>
      </trkpt>
      <trkpt lat="44.37611" lon="3.54564">
        <ele>566</ele>
        <time>2022-05-27T13:29:32Z</time>
      </trkpt>
      <trkpt lat="44.37609" lon="3.54563">
        <ele>566</ele>
        <time>2022-05-27T13:29:33Z</time>
      </trkpt>
      <trkpt lat="44.37608" lon="3.54561">
        <ele>567</ele>
        <time>2022-05-27T13:29:34Z</time>
      </trkpt>
      <trkpt lat="44.37607" lon="3.5456">
        <ele>568</ele>
        <time>2022-05-27T13:29:35Z</time>
      </trkpt>
      <trkpt lat="44.37606" lon="3.54559">
        <ele>569</ele>
        <time>2022-05-27T13:29:36Z</time>
      </trkpt>
      <trkpt lat="44.37606" lon="3.54558">
        <ele>569</ele>
        <time>2022-05-27T13:29:37Z</time>
      </trkpt>
      <trkpt lat="44.37605" lon="3.54556">
        <ele>569</ele>
        <time>2022-05-27T13:29:38Z</time>
      </trkpt>
      <trkpt lat="44.37605" lon="3.54555">
        <ele>569</ele>
        <time>2022-05-27T13:29:39Z</time>
      </trkpt>
      <trkpt lat="44.37604" lon="3.54553">
        <ele>569</ele>
        <time>2022-05-27T13:29:40Z</time>
      </trkpt>
      <trkpt lat="44.37603" lon="3.54551">
        <ele>569</ele>
        <time>2022-05-27T13:29:41Z</time>
      </trkpt>
      <trkpt lat="44.37602" lon="3.5455">
        <ele>569</ele>
        <time>2022-05-27T13:29:42Z</time>
      </trkpt>
      <trkpt lat="44.37602" lon="3.54548">
        <ele>570</ele>
        <time>2022-05-27T13:29:43Z</time>
      </trkpt>
      <trkpt lat="44.37601" lon="3.54546">
        <ele>570</ele>
        <time>2022-05-27T13:29:44Z</time>
      </trkpt>
      <trkpt lat="44.376" lon="3.54545">
        <ele>570</ele>
        <time>2022-05-27T13:29:45Z</time>
      </trkpt>
      <trkpt lat="44.37599" lon="3.54544">
        <ele>570</ele>
        <time>2022-05-27T13:29:46Z</time>
      </trkpt>
      <trkpt lat="44.37598" lon="3.54542">
        <ele>571</ele>
        <time>2022-05-27T13:29:47Z</time>
      </trkpt>
      <trkpt lat="44.37598" lon="3.54541">
        <ele>570</ele>
        <time>2022-05-27T13:29:48Z</time>
      </trkpt>
      <trkpt lat="44.37597" lon="3.5454">
        <ele>571</ele>
        <time>2022-05-27T13:29:49Z</time>
      </trkpt>
      <trkpt lat="44.37597" lon="3.54539">
        <ele>571</ele>
        <time>2022-05-27T13:29:50Z</time>
      </trkpt>
      <trkpt lat="44.37596" lon="3.54537">
        <ele>571</ele>
        <time>2022-05-27T13:29:51Z</time>
      </trkpt>
      <trkpt lat="44.37595" lon="3.54536">
        <ele>571</ele>
        <time>2022-05-27T13:29:52Z</time>
      </trkpt>
      <trkpt lat="44.37595" lon="3.54534">
        <ele>572</ele>
        <time>2022-05-27T13:29:53Z</time>
      </trkpt>
      <trkpt lat="44.37594" lon="3.54533">
        <ele>572</ele>
        <time>2022-05-27T13:29:54Z</time>
      </trkpt>
      <trkpt lat="44.37593" lon="3.54531">
        <ele>572</ele>
        <time>2022-05-27T13:29:55Z</time>
      </trkpt>
      <trkpt lat="44.37592" lon="3.54529">
        <ele>572</ele>
        <time>2022-05-27T13:29:56Z</time>
      </trkpt>
      <trkpt lat="44.37592" lon="3.54527">
        <ele>572</ele>
        <time>2022-05-27T13:29:57Z</time>
      </trkpt>
      <trkpt lat="44.37591" lon="3.54525">
        <ele>573</ele>
        <time>2022-05-27T13:29:58Z</time>
      </trkpt>
      <trkpt lat="44.37591" lon="3.54524">
        <ele>574</ele>
        <time>2022-05-27T13:29:59Z</time>
      </trkpt>
      <trkpt lat="44.3759" lon="3.54522">
        <ele>574</ele>
        <time>2022-05-27T13:30:00Z</time>
      </trkpt>
      <trkpt lat="44.3759" lon="3.54521">
        <ele>573</ele>
        <time>2022-05-27T13:30:01Z</time>
      </trkpt>
      <trkpt lat="44.37589" lon="3.54519">
        <ele>572</ele>
        <time>2022-05-27T13:30:02Z</time>
      </trkpt>
      <trkpt lat="44.37588" lon="3.54517">
        <ele>571</ele>
        <time>2022-05-27T13:30:03Z</time>
      </trkpt>
      <trkpt lat="44.37587" lon="3.54515">
        <ele>570</ele>
        <time>2022-05-27T13:30:04Z</time>
      </trkpt>
      <trkpt lat="44.37586" lon="3.54513">
        <ele>569</ele>
        <time>2022-05-27T13:30:05Z</time>
      </trkpt>
      <trkpt lat="44.37585" lon="3.54511">
        <ele>569</ele>
        <time>2022-05-27T13:30:06Z</time>
      </trkpt>
      <trkpt lat="44.37585" lon="3.54509">
        <ele>568</ele>
        <time>2022-05-27T13:30:07Z</time>
      </trkpt>
      <trkpt lat="44.37584" lon="3.54507">
        <ele>569</ele>
        <time>2022-05-27T13:30:08Z</time>
      </trkpt>
      <trkpt lat="44.37584" lon="3.54505">
        <ele>568</ele>
        <time>2022-05-27T13:30:09Z</time>
      </trkpt>
      <trkpt lat="44.37583" lon="3.54503">
        <ele>568</ele>
        <time>2022-05-27T13:30:10Z</time>
      </trkpt>
      <trkpt lat="44.37582" lon="3.54502">
        <ele>569</ele>
        <time>2022-05-27T13:30:11Z</time>
      </trkpt>
      <trkpt lat="44.37582" lon="3.545">
        <ele>569</ele>
        <time>2022-05-27T13:30:12Z</time>
      </trkpt>
      <trkpt lat="44.37581" lon="3.54498">
        <ele>570</ele>
        <time>2022-05-27T13:30:13Z</time>
      </trkpt>
      <trkpt lat="44.37581" lon="3.54496">
        <ele>570</ele>
        <time>2022-05-27T13:30:14Z</time>
      </trkpt>
      <trkpt lat="44.3758" lon="3.54494">
        <ele>570</ele>
        <time>2022-05-27T13:30:15Z</time>
      </trkpt>
      <trkpt lat="44.37579" lon="3.54493">
        <ele>570</ele>
        <time>2022-05-27T13:30:16Z</time>
      </trkpt>
      <trkpt lat="44.37579" lon="3.54491">
        <ele>570</ele>
        <time>2022-05-27T13:30:17Z</time>
      </trkpt>
      <trkpt lat="44.37578" lon="3.54489">
        <ele>570</ele>
        <time>2022-05-27T13:30:18Z</time>
      </trkpt>
      <trkpt lat="44.37578" lon="3.54488">
        <ele>570</ele>
        <time>2022-05-27T13:30:19Z</time>
      </trkpt>
      <trkpt lat="44.37578" lon="3.54488">
        <ele>570</ele>
        <time>2022-05-27T13:30:20Z</time>
      </trkpt>
      <trkpt lat="44.37578" lon="3.54487">
        <ele>570</ele>
        <time>2022-05-27T13:30:21Z</time>
      </trkpt>
      <trkpt lat="44.37577" lon="3.54485">
        <ele>570</ele>
        <time>2022-05-27T13:30:22Z</time>
      </trkpt>
      <trkpt lat="44.37577" lon="3.54484">
        <ele>570</ele>
        <time>2022-05-27T13:30:23Z</time>
      </trkpt>
      <trkpt lat="44.37576" lon="3.54482">
        <ele>570</ele>
        <time>2022-05-27T13:30:24Z</time>
      </trkpt>
      <trkpt lat="44.37576" lon="3.5448">
        <ele>570</ele>
        <time>2022-05-27T13:30:25Z</time>
      </trkpt>
      <trkpt lat="44.37576" lon="3.54478">
        <ele>569</ele>
        <time>2022-05-27T13:30:26Z</time>
      </trkpt>
      <trkpt lat="44.37576" lon="3.54477">
        <ele>569</ele>
        <time>2022-05-27T13:30:27Z</time>
      </trkpt>
      <trkpt lat="44.37576" lon="3.54475">
        <ele>569</ele>
        <time>2022-05-27T13:30:28Z</time>
      </trkpt>
      <trkpt lat="44.37576" lon="3.54474">
        <ele>569</ele>
        <time>2022-05-27T13:30:29Z</time>
      </trkpt>
      <trkpt lat="44.37575" lon="3.54472">
        <ele>568</ele>
        <time>2022-05-27T13:30:30Z</time>
      </trkpt>
      <trkpt lat="44.37574" lon="3.54471">
        <ele>568</ele>
        <time>2022-05-27T13:30:31Z</time>
      </trkpt>
      <trkpt lat="44.37573" lon="3.54469">
        <ele>568</ele>
        <time>2022-05-27T13:30:32Z</time>
      </trkpt>
      <trkpt lat="44.37573" lon="3.54467">
        <ele>568</ele>
        <time>2022-05-27T13:30:34Z</time>
      </trkpt>
      <trkpt lat="44.37572" lon="3.54466">
        <ele>568</ele>
        <time>2022-05-27T13:30:35Z</time>
      </trkpt>
      <trkpt lat="44.37571" lon="3.54464">
        <ele>567</ele>
        <time>2022-05-27T13:30:36Z</time>
      </trkpt>
      <trkpt lat="44.37571" lon="3.54463">
        <ele>567</ele>
        <time>2022-05-27T13:30:37Z</time>
      </trkpt>
      <trkpt lat="44.3757" lon="3.54461">
        <ele>567</ele>
        <time>2022-05-27T13:30:38Z</time>
      </trkpt>
      <trkpt lat="44.37569" lon="3.5446">
        <ele>567</ele>
        <time>2022-05-27T13:30:39Z</time>
      </trkpt>
      <trkpt lat="44.37569" lon="3.54459">
        <ele>567</ele>
        <time>2022-05-27T13:30:40Z</time>
      </trkpt>
      <trkpt lat="44.37568" lon="3.54456">
        <ele>567</ele>
        <time>2022-05-27T13:30:41Z</time>
      </trkpt>
      <trkpt lat="44.37567" lon="3.54454">
        <ele>567</ele>
        <time>2022-05-27T13:30:42Z</time>
      </trkpt>
      <trkpt lat="44.37566" lon="3.54452">
        <ele>568</ele>
        <time>2022-05-27T13:30:43Z</time>
      </trkpt>
      <trkpt lat="44.37565" lon="3.5445">
        <ele>568</ele>
        <time>2022-05-27T13:30:44Z</time>
      </trkpt>
      <trkpt lat="44.37564" lon="3.54447">
        <ele>567</ele>
        <time>2022-05-27T13:30:45Z</time>
      </trkpt>
      <trkpt lat="44.37563" lon="3.54445">
        <ele>567</ele>
        <time>2022-05-27T13:30:46Z</time>
      </trkpt>
      <trkpt lat="44.37562" lon="3.54443">
        <ele>566</ele>
        <time>2022-05-27T13:30:47Z</time>
      </trkpt>
      <trkpt lat="44.37561" lon="3.54441">
        <ele>566</ele>
        <time>2022-05-27T13:30:48Z</time>
      </trkpt>
      <trkpt lat="44.3756" lon="3.54439">
        <ele>566</ele>
        <time>2022-05-27T13:30:49Z</time>
      </trkpt>
      <trkpt lat="44.3756" lon="3.54437">
        <ele>566</ele>
        <time>2022-05-27T13:30:50Z</time>
      </trkpt>
      <trkpt lat="44.37559" lon="3.54435">
        <ele>566</ele>
        <time>2022-05-27T13:30:51Z</time>
      </trkpt>
      <trkpt lat="44.37558" lon="3.54433">
        <ele>566</ele>
        <time>2022-05-27T13:30:52Z</time>
      </trkpt>
      <trkpt lat="44.37558" lon="3.54431">
        <ele>566</ele>
        <time>2022-05-27T13:30:53Z</time>
      </trkpt>
      <trkpt lat="44.37557" lon="3.54429">
        <ele>565</ele>
        <time>2022-05-27T13:30:54Z</time>
      </trkpt>
      <trkpt lat="44.37557" lon="3.54427">
        <ele>565</ele>
        <time>2022-05-27T13:30:55Z</time>
      </trkpt>
      <trkpt lat="44.37556" lon="3.54425">
        <ele>565</ele>
        <time>2022-05-27T13:30:56Z</time>
      </trkpt>
      <trkpt lat="44.37555" lon="3.54424">
        <ele>566</ele>
        <time>2022-05-27T13:30:57Z</time>
      </trkpt>
      <trkpt lat="44.37555" lon="3.54422">
        <ele>565</ele>
        <time>2022-05-27T13:30:58Z</time>
      </trkpt>
      <trkpt lat="44.37554" lon="3.54421">
        <ele>564</ele>
        <time>2022-05-27T13:30:59Z</time>
      </trkpt>
      <trkpt lat="44.37553" lon="3.54419">
        <ele>564</ele>
        <time>2022-05-27T13:31:00Z</time>
      </trkpt>
      <trkpt lat="44.37552" lon="3.54418">
        <ele>563</ele>
        <time>2022-05-27T13:31:01Z</time>
      </trkpt>
      <trkpt lat="44.3755" lon="3.54416">
        <ele>564</ele>
        <time>2022-05-27T13:31:02Z</time>
      </trkpt>
      <trkpt lat="44.3755" lon="3.54415">
        <ele>564</ele>
        <time>2022-05-27T13:31:03Z</time>
      </trkpt>
      <trkpt lat="44.37548" lon="3.54413">
        <ele>564</ele>
        <time>2022-05-27T13:31:04Z</time>
      </trkpt>
      <trkpt lat="44.37547" lon="3.54412">
        <ele>564</ele>
        <time>2022-05-27T13:31:05Z</time>
      </trkpt>
      <trkpt lat="44.37547" lon="3.5441">
        <ele>564</ele>
        <time>2022-05-27T13:31:06Z</time>
      </trkpt>
      <trkpt lat="44.37546" lon="3.54408">
        <ele>564</ele>
        <time>2022-05-27T13:31:07Z</time>
      </trkpt>
      <trkpt lat="44.37546" lon="3.54407">
        <ele>565</ele>
        <time>2022-05-27T13:31:08Z</time>
      </trkpt>
      <trkpt lat="44.37545" lon="3.54406">
        <ele>565</ele>
        <time>2022-05-27T13:31:09Z</time>
      </trkpt>
      <trkpt lat="44.37545" lon="3.54404">
        <ele>564</ele>
        <time>2022-05-27T13:31:10Z</time>
      </trkpt>
      <trkpt lat="44.37544" lon="3.54403">
        <ele>564</ele>
        <time>2022-05-27T13:31:11Z</time>
      </trkpt>
      <trkpt lat="44.37544" lon="3.544">
        <ele>564</ele>
        <time>2022-05-27T13:31:12Z</time>
      </trkpt>
      <trkpt lat="44.37542" lon="3.54399">
        <ele>564</ele>
        <time>2022-05-27T13:31:13Z</time>
      </trkpt>
      <trkpt lat="44.37542" lon="3.54397">
        <ele>564</ele>
        <time>2022-05-27T13:31:14Z</time>
      </trkpt>
      <trkpt lat="44.37541" lon="3.54395">
        <ele>563</ele>
        <time>2022-05-27T13:31:15Z</time>
      </trkpt>
      <trkpt lat="44.3754" lon="3.54394">
        <ele>563</ele>
        <time>2022-05-27T13:31:16Z</time>
      </trkpt>
      <trkpt lat="44.3754" lon="3.54392">
        <ele>562</ele>
        <time>2022-05-27T13:31:17Z</time>
      </trkpt>
      <trkpt lat="44.37539" lon="3.54391">
        <ele>562</ele>
        <time>2022-05-27T13:31:18Z</time>
      </trkpt>
      <trkpt lat="44.37537" lon="3.54389">
        <ele>562</ele>
        <time>2022-05-27T13:31:19Z</time>
      </trkpt>
      <trkpt lat="44.37537" lon="3.54387">
        <ele>562</ele>
        <time>2022-05-27T13:31:20Z</time>
      </trkpt>
      <trkpt lat="44.37536" lon="3.54386">
        <ele>562</ele>
        <time>2022-05-27T13:31:21Z</time>
      </trkpt>
      <trkpt lat="44.37536" lon="3.54384">
        <ele>562</ele>
        <time>2022-05-27T13:31:22Z</time>
      </trkpt>
      <trkpt lat="44.37535" lon="3.54382">
        <ele>563</ele>
        <time>2022-05-27T13:31:23Z</time>
      </trkpt>
      <trkpt lat="44.37535" lon="3.54381">
        <ele>563</ele>
        <time>2022-05-27T13:31:24Z</time>
      </trkpt>
      <trkpt lat="44.37534" lon="3.54379">
        <ele>564</ele>
        <time>2022-05-27T13:31:25Z</time>
      </trkpt>
      <trkpt lat="44.37534" lon="3.54377">
        <ele>564</ele>
        <time>2022-05-27T13:31:26Z</time>
      </trkpt>
      <trkpt lat="44.37533" lon="3.54375">
        <ele>565</ele>
        <time>2022-05-27T13:31:27Z</time>
      </trkpt>
      <trkpt lat="44.37532" lon="3.54373">
        <ele>565</ele>
        <time>2022-05-27T13:31:28Z</time>
      </trkpt>
      <trkpt lat="44.37532" lon="3.54371">
        <ele>565</ele>
        <time>2022-05-27T13:31:29Z</time>
      </trkpt>
      <trkpt lat="44.37531" lon="3.5437">
        <ele>566</ele>
        <time>2022-05-27T13:31:30Z</time>
      </trkpt>
      <trkpt lat="44.37531" lon="3.54369">
        <ele>566</ele>
        <time>2022-05-27T13:31:31Z</time>
      </trkpt>
      <trkpt lat="44.3753" lon="3.54367">
        <ele>566</ele>
        <time>2022-05-27T13:31:32Z</time>
      </trkpt>
      <trkpt lat="44.37529" lon="3.54365">
        <ele>565</ele>
        <time>2022-05-27T13:31:33Z</time>
      </trkpt>
      <trkpt lat="44.37529" lon="3.54363">
        <ele>565</ele>
        <time>2022-05-27T13:31:34Z</time>
      </trkpt>
      <trkpt lat="44.37528" lon="3.54361">
        <ele>566</ele>
        <time>2022-05-27T13:31:35Z</time>
      </trkpt>
      <trkpt lat="44.37528" lon="3.5436">
        <ele>566</ele>
        <time>2022-05-27T13:31:36Z</time>
      </trkpt>
      <trkpt lat="44.37527" lon="3.54358">
        <ele>566</ele>
        <time>2022-05-27T13:31:37Z</time>
      </trkpt>
      <trkpt lat="44.37526" lon="3.54356">
        <ele>566</ele>
        <time>2022-05-27T13:31:38Z</time>
      </trkpt>
      <trkpt lat="44.37526" lon="3.54354">
        <ele>566</ele>
        <time>2022-05-27T13:31:39Z</time>
      </trkpt>
      <trkpt lat="44.37525" lon="3.54353">
        <ele>565</ele>
        <time>2022-05-27T13:31:40Z</time>
      </trkpt>
      <trkpt lat="44.37524" lon="3.54351">
        <ele>565</ele>
        <time>2022-05-27T13:31:41Z</time>
      </trkpt>
      <trkpt lat="44.37523" lon="3.5435">
        <ele>566</ele>
        <time>2022-05-27T13:31:42Z</time>
      </trkpt>
      <trkpt lat="44.37523" lon="3.54349">
        <ele>567</ele>
        <time>2022-05-27T13:31:43Z</time>
      </trkpt>
      <trkpt lat="44.37521" lon="3.54348">
        <ele>567</ele>
        <time>2022-05-27T13:31:44Z</time>
      </trkpt>
      <trkpt lat="44.37521" lon="3.54346">
        <ele>568</ele>
        <time>2022-05-27T13:31:45Z</time>
      </trkpt>
      <trkpt lat="44.37521" lon="3.54344">
        <ele>567</ele>
        <time>2022-05-27T13:31:46Z</time>
      </trkpt>
      <trkpt lat="44.3752" lon="3.54342">
        <ele>568</ele>
        <time>2022-05-27T13:31:47Z</time>
      </trkpt>
      <trkpt lat="44.37519" lon="3.5434">
        <ele>568</ele>
        <time>2022-05-27T13:31:48Z</time>
      </trkpt>
      <trkpt lat="44.37518" lon="3.54339">
        <ele>567</ele>
        <time>2022-05-27T13:31:49Z</time>
      </trkpt>
      <trkpt lat="44.37517" lon="3.54337">
        <ele>567</ele>
        <time>2022-05-27T13:31:50Z</time>
      </trkpt>
      <trkpt lat="44.37517" lon="3.54336">
        <ele>568</ele>
        <time>2022-05-27T13:31:51Z</time>
      </trkpt>
      <trkpt lat="44.37516" lon="3.54335">
        <ele>567</ele>
        <time>2022-05-27T13:31:52Z</time>
      </trkpt>
      <trkpt lat="44.37515" lon="3.54334">
        <ele>567</ele>
        <time>2022-05-27T13:31:53Z</time>
      </trkpt>
      <trkpt lat="44.37514" lon="3.54332">
        <ele>568</ele>
        <time>2022-05-27T13:31:54Z</time>
      </trkpt>
      <trkpt lat="44.37513" lon="3.5433">
        <ele>568</ele>
        <time>2022-05-27T13:31:55Z</time>
      </trkpt>
      <trkpt lat="44.37513" lon="3.54327">
        <ele>568</ele>
        <time>2022-05-27T13:31:56Z</time>
      </trkpt>
      <trkpt lat="44.37511" lon="3.54325">
        <ele>568</ele>
        <time>2022-05-27T13:31:57Z</time>
      </trkpt>
      <trkpt lat="44.37511" lon="3.54324">
        <ele>567</ele>
        <time>2022-05-27T13:31:58Z</time>
      </trkpt>
      <trkpt lat="44.3751" lon="3.54322">
        <ele>567</ele>
        <time>2022-05-27T13:31:59Z</time>
      </trkpt>
      <trkpt lat="44.3751" lon="3.5432">
        <ele>568</ele>
        <time>2022-05-27T13:32:00Z</time>
      </trkpt>
      <trkpt lat="44.37509" lon="3.54319">
        <ele>568</ele>
        <time>2022-05-27T13:32:01Z</time>
      </trkpt>
      <trkpt lat="44.37508" lon="3.54317">
        <ele>568</ele>
        <time>2022-05-27T13:32:02Z</time>
      </trkpt>
      <trkpt lat="44.37508" lon="3.54315">
        <ele>568</ele>
        <time>2022-05-27T13:32:03Z</time>
      </trkpt>
      <trkpt lat="44.37507" lon="3.54314">
        <ele>568</ele>
        <time>2022-05-27T13:32:04Z</time>
      </trkpt>
      <trkpt lat="44.37507" lon="3.54312">
        <ele>568</ele>
        <time>2022-05-27T13:32:05Z</time>
      </trkpt>
      <trkpt lat="44.37506" lon="3.54311">
        <ele>568</ele>
        <time>2022-05-27T13:32:06Z</time>
      </trkpt>
      <trkpt lat="44.37505" lon="3.54309">
        <ele>568</ele>
        <time>2022-05-27T13:32:07Z</time>
      </trkpt>
      <trkpt lat="44.37504" lon="3.54308">
        <ele>567</ele>
        <time>2022-05-27T13:32:08Z</time>
      </trkpt>
      <trkpt lat="44.37503" lon="3.54306">
        <ele>567</ele>
        <time>2022-05-27T13:32:09Z</time>
      </trkpt>
      <trkpt lat="44.37502" lon="3.54305">
        <ele>567</ele>
        <time>2022-05-27T13:32:10Z</time>
      </trkpt>
      <trkpt lat="44.37502" lon="3.54303">
        <ele>567</ele>
        <time>2022-05-27T13:32:11Z</time>
      </trkpt>
      <trkpt lat="44.37501" lon="3.54302">
        <ele>568</ele>
        <time>2022-05-27T13:32:12Z</time>
      </trkpt>
      <trkpt lat="44.375" lon="3.543">
        <ele>568</ele>
        <time>2022-05-27T13:32:13Z</time>
      </trkpt>
      <trkpt lat="44.37499" lon="3.54299">
        <ele>568</ele>
        <time>2022-05-27T13:32:14Z</time>
      </trkpt>
      <trkpt lat="44.37499" lon="3.54297">
        <ele>569</ele>
        <time>2022-05-27T13:32:15Z</time>
      </trkpt>
      <trkpt lat="44.37498" lon="3.54295">
        <ele>568</ele>
        <time>2022-05-27T13:32:16Z</time>
      </trkpt>
      <trkpt lat="44.37497" lon="3.54293">
        <ele>568</ele>
        <time>2022-05-27T13:32:17Z</time>
      </trkpt>
      <trkpt lat="44.37496" lon="3.54292">
        <ele>568</ele>
        <time>2022-05-27T13:32:18Z</time>
      </trkpt>
      <trkpt lat="44.37495" lon="3.54291">
        <ele>567</ele>
        <time>2022-05-27T13:32:19Z</time>
      </trkpt>
      <trkpt lat="44.37494" lon="3.54289">
        <ele>567</ele>
        <time>2022-05-27T13:32:20Z</time>
      </trkpt>
      <trkpt lat="44.37493" lon="3.54288">
        <ele>567</ele>
        <time>2022-05-27T13:32:21Z</time>
      </trkpt>
      <trkpt lat="44.37492" lon="3.54286">
        <ele>567</ele>
        <time>2022-05-27T13:32:22Z</time>
      </trkpt>
      <trkpt lat="44.37491" lon="3.54285">
        <ele>567</ele>
        <time>2022-05-27T13:32:23Z</time>
      </trkpt>
      <trkpt lat="44.3749" lon="3.54283">
        <ele>567</ele>
        <time>2022-05-27T13:32:24Z</time>
      </trkpt>
      <trkpt lat="44.37489" lon="3.54282">
        <ele>567</ele>
        <time>2022-05-27T13:32:25Z</time>
      </trkpt>
      <trkpt lat="44.37489" lon="3.5428">
        <ele>566</ele>
        <time>2022-05-27T13:32:26Z</time>
      </trkpt>
      <trkpt lat="44.37487" lon="3.54279">
        <ele>566</ele>
        <time>2022-05-27T13:32:27Z</time>
      </trkpt>
      <trkpt lat="44.37487" lon="3.54277">
        <ele>566</ele>
        <time>2022-05-27T13:32:28Z</time>
      </trkpt>
      <trkpt lat="44.37486" lon="3.54275">
        <ele>566</ele>
        <time>2022-05-27T13:32:29Z</time>
      </trkpt>
      <trkpt lat="44.37485" lon="3.54273">
        <ele>566</ele>
        <time>2022-05-27T13:32:30Z</time>
      </trkpt>
      <trkpt lat="44.37483" lon="3.54272">
        <ele>566</ele>
        <time>2022-05-27T13:32:31Z</time>
      </trkpt>
      <trkpt lat="44.37483" lon="3.5427">
        <ele>566</ele>
        <time>2022-05-27T13:32:32Z</time>
      </trkpt>
      <trkpt lat="44.37482" lon="3.54269">
        <ele>566</ele>
        <time>2022-05-27T13:32:33Z</time>
      </trkpt>
      <trkpt lat="44.37481" lon="3.54268">
        <ele>566</ele>
        <time>2022-05-27T13:32:34Z</time>
      </trkpt>
      <trkpt lat="44.3748" lon="3.54266">
        <ele>566</ele>
        <time>2022-05-27T13:32:35Z</time>
      </trkpt>
      <trkpt lat="44.37479" lon="3.54265">
        <ele>566</ele>
        <time>2022-05-27T13:32:36Z</time>
      </trkpt>
      <trkpt lat="44.37478" lon="3.54263">
        <ele>566</ele>
        <time>2022-05-27T13:32:37Z</time>
      </trkpt>
      <trkpt lat="44.37478" lon="3.54262">
        <ele>567</ele>
        <time>2022-05-27T13:32:38Z</time>
      </trkpt>
      <trkpt lat="44.37477" lon="3.5426">
        <ele>567</ele>
        <time>2022-05-27T13:32:39Z</time>
      </trkpt>
      <trkpt lat="44.37476" lon="3.54259">
        <ele>567</ele>
        <time>2022-05-27T13:32:40Z</time>
      </trkpt>
      <trkpt lat="44.37475" lon="3.54257">
        <ele>566</ele>
        <time>2022-05-27T13:32:41Z</time>
      </trkpt>
      <trkpt lat="44.37474" lon="3.54256">
        <ele>566</ele>
        <time>2022-05-27T13:32:42Z</time>
      </trkpt>
      <trkpt lat="44.37472" lon="3.54255">
        <ele>567</ele>
        <time>2022-05-27T13:32:43Z</time>
      </trkpt>
      <trkpt lat="44.37471" lon="3.54254">
        <ele>567</ele>
        <time>2022-05-27T13:32:44Z</time>
      </trkpt>
      <trkpt lat="44.3747" lon="3.54252">
        <ele>567</ele>
        <time>2022-05-27T13:32:45Z</time>
      </trkpt>
      <trkpt lat="44.3747" lon="3.5425">
        <ele>567</ele>
        <time>2022-05-27T13:32:46Z</time>
      </trkpt>
      <trkpt lat="44.37469" lon="3.54249">
        <ele>568</ele>
        <time>2022-05-27T13:32:47Z</time>
      </trkpt>
      <trkpt lat="44.37468" lon="3.54247">
        <ele>568</ele>
        <time>2022-05-27T13:32:48Z</time>
      </trkpt>
      <trkpt lat="44.37467" lon="3.54246">
        <ele>569</ele>
        <time>2022-05-27T13:32:49Z</time>
      </trkpt>
      <trkpt lat="44.37466" lon="3.54245">
        <ele>569</ele>
        <time>2022-05-27T13:32:50Z</time>
      </trkpt>
      <trkpt lat="44.37465" lon="3.54244">
        <ele>569</ele>
        <time>2022-05-27T13:32:51Z</time>
      </trkpt>
      <trkpt lat="44.37464" lon="3.54242">
        <ele>569</ele>
        <time>2022-05-27T13:32:52Z</time>
      </trkpt>
      <trkpt lat="44.37462" lon="3.54241">
        <ele>570</ele>
        <time>2022-05-27T13:32:53Z</time>
      </trkpt>
      <trkpt lat="44.37461" lon="3.54241">
        <ele>570</ele>
        <time>2022-05-27T13:32:54Z</time>
      </trkpt>
      <trkpt lat="44.3746" lon="3.5424">
        <ele>570</ele>
        <time>2022-05-27T13:32:55Z</time>
      </trkpt>
      <trkpt lat="44.37459" lon="3.54238">
        <ele>570</ele>
        <time>2022-05-27T13:32:56Z</time>
      </trkpt>
      <trkpt lat="44.37459" lon="3.54237">
        <ele>571</ele>
        <time>2022-05-27T13:32:57Z</time>
      </trkpt>
      <trkpt lat="44.37458" lon="3.54237">
        <ele>572</ele>
        <time>2022-05-27T13:32:58Z</time>
      </trkpt>
      <trkpt lat="44.37458" lon="3.54237">
        <ele>573</ele>
        <time>2022-05-27T13:32:59Z</time>
      </trkpt>
      <trkpt lat="44.37457" lon="3.54236">
        <ele>572</ele>
        <time>2022-05-27T13:33:00Z</time>
      </trkpt>
      <trkpt lat="44.37455" lon="3.54234">
        <ele>572</ele>
        <time>2022-05-27T13:33:01Z</time>
      </trkpt>
      <trkpt lat="44.37454" lon="3.54232">
        <ele>572</ele>
        <time>2022-05-27T13:33:02Z</time>
      </trkpt>
      <trkpt lat="44.37453" lon="3.5423">
        <ele>572</ele>
        <time>2022-05-27T13:33:03Z</time>
      </trkpt>
      <trkpt lat="44.37452" lon="3.54228">
        <ele>571</ele>
        <time>2022-05-27T13:33:04Z</time>
      </trkpt>
      <trkpt lat="44.37451" lon="3.54226">
        <ele>571</ele>
        <time>2022-05-27T13:33:05Z</time>
      </trkpt>
      <trkpt lat="44.3745" lon="3.54224">
        <ele>570</ele>
        <time>2022-05-27T13:33:06Z</time>
      </trkpt>
      <trkpt lat="44.37449" lon="3.54223">
        <ele>570</ele>
        <time>2022-05-27T13:33:07Z</time>
      </trkpt>
      <trkpt lat="44.37449" lon="3.54221">
        <ele>570</ele>
        <time>2022-05-27T13:33:08Z</time>
      </trkpt>
      <trkpt lat="44.37447" lon="3.54219">
        <ele>570</ele>
        <time>2022-05-27T13:33:09Z</time>
      </trkpt>
      <trkpt lat="44.37447" lon="3.54218">
        <ele>570</ele>
        <time>2022-05-27T13:33:10Z</time>
      </trkpt>
      <trkpt lat="44.37446" lon="3.54217">
        <ele>570</ele>
        <time>2022-05-27T13:33:11Z</time>
      </trkpt>
      <trkpt lat="44.37445" lon="3.54216">
        <ele>570</ele>
        <time>2022-05-27T13:33:12Z</time>
      </trkpt>
      <trkpt lat="44.37444" lon="3.54215">
        <ele>570</ele>
        <time>2022-05-27T13:33:13Z</time>
      </trkpt>
      <trkpt lat="44.37442" lon="3.54213">
        <ele>571</ele>
        <time>2022-05-27T13:33:14Z</time>
      </trkpt>
      <trkpt lat="44.37441" lon="3.54212">
        <ele>571</ele>
        <time>2022-05-27T13:33:15Z</time>
      </trkpt>
      <trkpt lat="44.3744" lon="3.54211">
        <ele>570</ele>
        <time>2022-05-27T13:33:16Z</time>
      </trkpt>
      <trkpt lat="44.37439" lon="3.5421">
        <ele>571</ele>
        <time>2022-05-27T13:33:17Z</time>
      </trkpt>
      <trkpt lat="44.37438" lon="3.54208">
        <ele>571</ele>
        <time>2022-05-27T13:33:18Z</time>
      </trkpt>
      <trkpt lat="44.37437" lon="3.54207">
        <ele>571</ele>
        <time>2022-05-27T13:33:19Z</time>
      </trkpt>
      <trkpt lat="44.37437" lon="3.54206">
        <ele>571</ele>
        <time>2022-05-27T13:33:20Z</time>
      </trkpt>
      <trkpt lat="44.37436" lon="3.54204">
        <ele>572</ele>
        <time>2022-05-27T13:33:21Z</time>
      </trkpt>
      <trkpt lat="44.37435" lon="3.54203">
        <ele>572</ele>
        <time>2022-05-27T13:33:22Z</time>
      </trkpt>
      <trkpt lat="44.37434" lon="3.54202">
        <ele>571</ele>
        <time>2022-05-27T13:33:23Z</time>
      </trkpt>
      <trkpt lat="44.37433" lon="3.542">
        <ele>571</ele>
        <time>2022-05-27T13:33:24Z</time>
      </trkpt>
      <trkpt lat="44.37433" lon="3.542">
        <ele>572</ele>
        <time>2022-05-27T13:33:25Z</time>
      </trkpt>
      <trkpt lat="44.37431" lon="3.54199">
        <ele>572</ele>
        <time>2022-05-27T13:33:26Z</time>
      </trkpt>
      <trkpt lat="44.37431" lon="3.54198">
        <ele>572</ele>
        <time>2022-05-27T13:33:27Z</time>
      </trkpt>
      <trkpt lat="44.37431" lon="3.54197">
        <ele>571</ele>
        <time>2022-05-27T13:33:28Z</time>
      </trkpt>
      <trkpt lat="44.3743" lon="3.54197">
        <ele>571</ele>
        <time>2022-05-27T13:33:29Z</time>
      </trkpt>
      <trkpt lat="44.37429" lon="3.54196">
        <ele>572</ele>
        <time>2022-05-27T13:33:30Z</time>
      </trkpt>
      <trkpt lat="44.37428" lon="3.54195">
        <ele>573</ele>
        <time>2022-05-27T13:33:31Z</time>
      </trkpt>
      <trkpt lat="44.37427" lon="3.54194">
        <ele>573</ele>
        <time>2022-05-27T13:33:32Z</time>
      </trkpt>
      <trkpt lat="44.37426" lon="3.54192">
        <ele>573</ele>
        <time>2022-05-27T13:33:33Z</time>
      </trkpt>
      <trkpt lat="44.37425" lon="3.5419">
        <ele>574</ele>
        <time>2022-05-27T13:33:34Z</time>
      </trkpt>
      <trkpt lat="44.37423" lon="3.54188">
        <ele>573</ele>
        <time>2022-05-27T13:33:35Z</time>
      </trkpt>
      <trkpt lat="44.37421" lon="3.54186">
        <ele>573</ele>
        <time>2022-05-27T13:33:36Z</time>
      </trkpt>
      <trkpt lat="44.3742" lon="3.54185">
        <ele>573</ele>
        <time>2022-05-27T13:33:37Z</time>
      </trkpt>
      <trkpt lat="44.37418" lon="3.54183">
        <ele>572</ele>
        <time>2022-05-27T13:33:38Z</time>
      </trkpt>
      <trkpt lat="44.37417" lon="3.54182">
        <ele>572</ele>
        <time>2022-05-27T13:33:39Z</time>
      </trkpt>
      <trkpt lat="44.37417" lon="3.54181">
        <ele>572</ele>
        <time>2022-05-27T13:33:40Z</time>
      </trkpt>
      <trkpt lat="44.37415" lon="3.54179">
        <ele>571</ele>
        <time>2022-05-27T13:33:41Z</time>
      </trkpt>
      <trkpt lat="44.37414" lon="3.54178">
        <ele>572</ele>
        <time>2022-05-27T13:33:42Z</time>
      </trkpt>
      <trkpt lat="44.37413" lon="3.54176">
        <ele>572</ele>
        <time>2022-05-27T13:33:43Z</time>
      </trkpt>
      <trkpt lat="44.37413" lon="3.54174">
        <ele>571</ele>
        <time>2022-05-27T13:33:44Z</time>
      </trkpt>
      <trkpt lat="44.37412" lon="3.54172">
        <ele>571</ele>
        <time>2022-05-27T13:33:45Z</time>
      </trkpt>
      <trkpt lat="44.3741" lon="3.5417">
        <ele>571</ele>
        <time>2022-05-27T13:33:46Z</time>
      </trkpt>
      <trkpt lat="44.37408" lon="3.54169">
        <ele>571</ele>
        <time>2022-05-27T13:33:47Z</time>
      </trkpt>
      <trkpt lat="44.37407" lon="3.54167">
        <ele>570</ele>
        <time>2022-05-27T13:33:48Z</time>
      </trkpt>
      <trkpt lat="44.37406" lon="3.54165">
        <ele>569</ele>
        <time>2022-05-27T13:33:49Z</time>
      </trkpt>
      <trkpt lat="44.37405" lon="3.54163">
        <ele>569</ele>
        <time>2022-05-27T13:33:50Z</time>
      </trkpt>
      <trkpt lat="44.37404" lon="3.54162">
        <ele>568</ele>
        <time>2022-05-27T13:33:51Z</time>
      </trkpt>
      <trkpt lat="44.37402" lon="3.5416">
        <ele>568</ele>
        <time>2022-05-27T13:33:52Z</time>
      </trkpt>
      <trkpt lat="44.37401" lon="3.54158">
        <ele>568</ele>
        <time>2022-05-27T13:33:53Z</time>
      </trkpt>
      <trkpt lat="44.374" lon="3.54157">
        <ele>567</ele>
        <time>2022-05-27T13:33:54Z</time>
      </trkpt>
      <trkpt lat="44.37399" lon="3.54155">
        <ele>567</ele>
        <time>2022-05-27T13:33:55Z</time>
      </trkpt>
      <trkpt lat="44.37397" lon="3.54153">
        <ele>567</ele>
        <time>2022-05-27T13:33:56Z</time>
      </trkpt>
      <trkpt lat="44.37397" lon="3.54152">
        <ele>567</ele>
        <time>2022-05-27T13:33:57Z</time>
      </trkpt>
      <trkpt lat="44.37396" lon="3.5415">
        <ele>567</ele>
        <time>2022-05-27T13:33:58Z</time>
      </trkpt>
      <trkpt lat="44.37395" lon="3.54149">
        <ele>567</ele>
        <time>2022-05-27T13:33:59Z</time>
      </trkpt>
      <trkpt lat="44.37394" lon="3.54147">
        <ele>568</ele>
        <time>2022-05-27T13:34:00Z</time>
      </trkpt>
      <trkpt lat="44.37393" lon="3.54145">
        <ele>568</ele>
        <time>2022-05-27T13:34:01Z</time>
      </trkpt>
      <trkpt lat="44.37392" lon="3.54144">
        <ele>567</ele>
        <time>2022-05-27T13:34:02Z</time>
      </trkpt>
      <trkpt lat="44.37391" lon="3.54142">
        <ele>568</ele>
        <time>2022-05-27T13:34:03Z</time>
      </trkpt>
      <trkpt lat="44.3739" lon="3.5414">
        <ele>568</ele>
        <time>2022-05-27T13:34:04Z</time>
      </trkpt>
      <trkpt lat="44.37389" lon="3.54138">
        <ele>569</ele>
        <time>2022-05-27T13:34:05Z</time>
      </trkpt>
      <trkpt lat="44.37388" lon="3.54137">
        <ele>569</ele>
        <time>2022-05-27T13:34:06Z</time>
      </trkpt>
      <trkpt lat="44.37387" lon="3.54135">
        <ele>569</ele>
        <time>2022-05-27T13:34:07Z</time>
      </trkpt>
      <trkpt lat="44.37386" lon="3.54133">
        <ele>569</ele>
        <time>2022-05-27T13:34:08Z</time>
      </trkpt>
      <trkpt lat="44.37385" lon="3.54132">
        <ele>569</ele>
        <time>2022-05-27T13:34:09Z</time>
      </trkpt>
      <trkpt lat="44.37384" lon="3.5413">
        <ele>570</ele>
        <time>2022-05-27T13:34:10Z</time>
      </trkpt>
      <trkpt lat="44.37384" lon="3.54129">
        <ele>570</ele>
        <time>2022-05-27T13:34:11Z</time>
      </trkpt>
      <trkpt lat="44.37383" lon="3.54127">
        <ele>570</ele>
        <time>2022-05-27T13:34:12Z</time>
      </trkpt>
      <trkpt lat="44.37381" lon="3.54126">
        <ele>570</ele>
        <time>2022-05-27T13:34:13Z</time>
      </trkpt>
      <trkpt lat="44.3738" lon="3.54124">
        <ele>570</ele>
        <time>2022-05-27T13:34:14Z</time>
      </trkpt>
      <trkpt lat="44.37379" lon="3.54123">
        <ele>570</ele>
        <time>2022-05-27T13:34:15Z</time>
      </trkpt>
      <trkpt lat="44.37378" lon="3.54121">
        <ele>570</ele>
        <time>2022-05-27T13:34:16Z</time>
      </trkpt>
      <trkpt lat="44.37377" lon="3.5412">
        <ele>570</ele>
        <time>2022-05-27T13:34:17Z</time>
      </trkpt>
      <trkpt lat="44.37376" lon="3.54118">
        <ele>570</ele>
        <time>2022-05-27T13:34:18Z</time>
      </trkpt>
      <trkpt lat="44.37375" lon="3.54116">
        <ele>570</ele>
        <time>2022-05-27T13:34:19Z</time>
      </trkpt>
      <trkpt lat="44.37374" lon="3.54115">
        <ele>570</ele>
        <time>2022-05-27T13:34:20Z</time>
      </trkpt>
      <trkpt lat="44.37373" lon="3.54114">
        <ele>570</ele>
        <time>2022-05-27T13:34:21Z</time>
      </trkpt>
      <trkpt lat="44.37372" lon="3.54113">
        <ele>570</ele>
        <time>2022-05-27T13:34:22Z</time>
      </trkpt>
      <trkpt lat="44.37372" lon="3.54111">
        <ele>570</ele>
        <time>2022-05-27T13:34:23Z</time>
      </trkpt>
      <trkpt lat="44.37371" lon="3.54109">
        <ele>569</ele>
        <time>2022-05-27T13:34:24Z</time>
      </trkpt>
      <trkpt lat="44.3737" lon="3.54108">
        <ele>569</ele>
        <time>2022-05-27T13:34:25Z</time>
      </trkpt>
      <trkpt lat="44.37369" lon="3.54107">
        <ele>569</ele>
        <time>2022-05-27T13:34:26Z</time>
      </trkpt>
      <trkpt lat="44.37368" lon="3.54106">
        <ele>569</ele>
        <time>2022-05-27T13:34:27Z</time>
      </trkpt>
      <trkpt lat="44.37367" lon="3.54105">
        <ele>569</ele>
        <time>2022-05-27T13:34:28Z</time>
      </trkpt>
      <trkpt lat="44.37366" lon="3.54104">
        <ele>570</ele>
        <time>2022-05-27T13:34:29Z</time>
      </trkpt>
      <trkpt lat="44.37365" lon="3.54103">
        <ele>571</ele>
        <time>2022-05-27T13:34:30Z</time>
      </trkpt>
      <trkpt lat="44.37364" lon="3.54102">
        <ele>571</ele>
        <time>2022-05-27T13:34:31Z</time>
      </trkpt>
      <trkpt lat="44.37363" lon="3.54101">
        <ele>571</ele>
        <time>2022-05-27T13:34:32Z</time>
      </trkpt>
      <trkpt lat="44.37362" lon="3.54099">
        <ele>571</ele>
        <time>2022-05-27T13:34:33Z</time>
      </trkpt>
      <trkpt lat="44.37362" lon="3.54098">
        <ele>571</ele>
        <time>2022-05-27T13:34:34Z</time>
      </trkpt>
      <trkpt lat="44.3736" lon="3.54097">
        <ele>571</ele>
        <time>2022-05-27T13:34:35Z</time>
      </trkpt>
      <trkpt lat="44.37359" lon="3.54096">
        <ele>572</ele>
        <time>2022-05-27T13:34:36Z</time>
      </trkpt>
      <trkpt lat="44.37358" lon="3.54095">
        <ele>571</ele>
        <time>2022-05-27T13:34:37Z</time>
      </trkpt>
      <trkpt lat="44.37357" lon="3.54093">
        <ele>571</ele>
        <time>2022-05-27T13:34:38Z</time>
      </trkpt>
      <trkpt lat="44.37356" lon="3.54092">
        <ele>571</ele>
        <time>2022-05-27T13:34:39Z</time>
      </trkpt>
      <trkpt lat="44.37355" lon="3.54091">
        <ele>571</ele>
        <time>2022-05-27T13:34:40Z</time>
      </trkpt>
      <trkpt lat="44.37354" lon="3.5409">
        <ele>570</ele>
        <time>2022-05-27T13:34:41Z</time>
      </trkpt>
      <trkpt lat="44.37353" lon="3.54089">
        <ele>570</ele>
        <time>2022-05-27T13:34:42Z</time>
      </trkpt>
      <trkpt lat="44.37352" lon="3.54088">
        <ele>571</ele>
        <time>2022-05-27T13:34:43Z</time>
      </trkpt>
      <trkpt lat="44.37351" lon="3.54087">
        <ele>571</ele>
        <time>2022-05-27T13:34:44Z</time>
      </trkpt>
      <trkpt lat="44.37349" lon="3.54086">
        <ele>571</ele>
        <time>2022-05-27T13:34:45Z</time>
      </trkpt>
      <trkpt lat="44.37349" lon="3.54085">
        <ele>571</ele>
        <time>2022-05-27T13:34:46Z</time>
      </trkpt>
      <trkpt lat="44.37347" lon="3.54084">
        <ele>571</ele>
        <time>2022-05-27T13:34:47Z</time>
      </trkpt>
      <trkpt lat="44.37347" lon="3.54083">
        <ele>571</ele>
        <time>2022-05-27T13:34:48Z</time>
      </trkpt>
      <trkpt lat="44.37346" lon="3.54082">
        <ele>570</ele>
        <time>2022-05-27T13:34:49Z</time>
      </trkpt>
      <trkpt lat="44.37346" lon="3.54081">
        <ele>570</ele>
        <time>2022-05-27T13:34:50Z</time>
      </trkpt>
      <trkpt lat="44.37344" lon="3.54081">
        <ele>570</ele>
        <time>2022-05-27T13:34:51Z</time>
      </trkpt>
      <trkpt lat="44.37343" lon="3.5408">
        <ele>571</ele>
        <time>2022-05-27T13:34:52Z</time>
      </trkpt>
      <trkpt lat="44.37342" lon="3.54079">
        <ele>570</ele>
        <time>2022-05-27T13:34:53Z</time>
      </trkpt>
      <trkpt lat="44.37341" lon="3.54078">
        <ele>570</ele>
        <time>2022-05-27T13:34:54Z</time>
      </trkpt>
      <trkpt lat="44.3734" lon="3.54077">
        <ele>570</ele>
        <time>2022-05-27T13:34:55Z</time>
      </trkpt>
      <trkpt lat="44.37339" lon="3.54076">
        <ele>570</ele>
        <time>2022-05-27T13:34:56Z</time>
      </trkpt>
      <trkpt lat="44.37338" lon="3.54075">
        <ele>570</ele>
        <time>2022-05-27T13:34:57Z</time>
      </trkpt>
      <trkpt lat="44.37337" lon="3.54074">
        <ele>570</ele>
        <time>2022-05-27T13:34:58Z</time>
      </trkpt>
      <trkpt lat="44.37335" lon="3.54073">
        <ele>570</ele>
        <time>2022-05-27T13:34:59Z</time>
      </trkpt>
      <trkpt lat="44.37334" lon="3.54073">
        <ele>570</ele>
        <time>2022-05-27T13:35:00Z</time>
      </trkpt>
      <trkpt lat="44.37334" lon="3.54073">
        <ele>570</ele>
        <time>2022-05-27T13:35:00Z</time>
      </trkpt>
      <trkpt lat="44.37331" lon="3.54071">
        <ele>569</ele>
        <time>2022-05-27T13:35:02Z</time>
      </trkpt>
      <trkpt lat="44.3733" lon="3.5407">
        <ele>569</ele>
        <time>2022-05-27T13:35:03Z</time>
      </trkpt>
      <trkpt lat="44.37329" lon="3.54069">
        <ele>569</ele>
        <time>2022-05-27T13:35:04Z</time>
      </trkpt>
      <trkpt lat="44.37328" lon="3.54068">
        <ele>570</ele>
        <time>2022-05-27T13:35:05Z</time>
      </trkpt>
      <trkpt lat="44.37326" lon="3.54067">
        <ele>570</ele>
        <time>2022-05-27T13:35:06Z</time>
      </trkpt>
      <trkpt lat="44.37325" lon="3.54066">
        <ele>570</ele>
        <time>2022-05-27T13:35:07Z</time>
      </trkpt>
      <trkpt lat="44.37324" lon="3.54065">
        <ele>570</ele>
        <time>2022-05-27T13:35:08Z</time>
      </trkpt>
      <trkpt lat="44.37323" lon="3.54065">
        <ele>570</ele>
        <time>2022-05-27T13:35:09Z</time>
      </trkpt>
      <trkpt lat="44.37322" lon="3.54064">
        <ele>570</ele>
        <time>2022-05-27T13:35:10Z</time>
      </trkpt>
      <trkpt lat="44.37321" lon="3.54062">
        <ele>570</ele>
        <time>2022-05-27T13:35:11Z</time>
      </trkpt>
      <trkpt lat="44.3732" lon="3.54061">
        <ele>570</ele>
        <time>2022-05-27T13:35:12Z</time>
      </trkpt>
      <trkpt lat="44.37318" lon="3.5406">
        <ele>570</ele>
        <time>2022-05-27T13:35:13Z</time>
      </trkpt>
      <trkpt lat="44.37317" lon="3.54058">
        <ele>569</ele>
        <time>2022-05-27T13:35:14Z</time>
      </trkpt>
      <trkpt lat="44.37315" lon="3.54057">
        <ele>569</ele>
        <time>2022-05-27T13:35:15Z</time>
      </trkpt>
      <trkpt lat="44.37314" lon="3.54056">
        <ele>569</ele>
        <time>2022-05-27T13:35:16Z</time>
      </trkpt>
      <trkpt lat="44.37313" lon="3.54055">
        <ele>569</ele>
        <time>2022-05-27T13:35:17Z</time>
      </trkpt>
      <trkpt lat="44.37312" lon="3.54054">
        <ele>569</ele>
        <time>2022-05-27T13:35:18Z</time>
      </trkpt>
      <trkpt lat="44.3731" lon="3.54053">
        <ele>569</ele>
        <time>2022-05-27T13:35:19Z</time>
      </trkpt>
      <trkpt lat="44.37309" lon="3.54051">
        <ele>568</ele>
        <time>2022-05-27T13:35:20Z</time>
      </trkpt>
      <trkpt lat="44.37308" lon="3.5405">
        <ele>568</ele>
        <time>2022-05-27T13:35:21Z</time>
      </trkpt>
      <trkpt lat="44.37307" lon="3.54049">
        <ele>568</ele>
        <time>2022-05-27T13:35:22Z</time>
      </trkpt>
      <trkpt lat="44.37305" lon="3.54049">
        <ele>567</ele>
        <time>2022-05-27T13:35:23Z</time>
      </trkpt>
      <trkpt lat="44.37304" lon="3.54048">
        <ele>567</ele>
        <time>2022-05-27T13:35:24Z</time>
      </trkpt>
      <trkpt lat="44.37302" lon="3.54047">
        <ele>567</ele>
        <time>2022-05-27T13:35:25Z</time>
      </trkpt>
      <trkpt lat="44.37301" lon="3.54046">
        <ele>566</ele>
        <time>2022-05-27T13:35:26Z</time>
      </trkpt>
      <trkpt lat="44.373" lon="3.54045">
        <ele>566</ele>
        <time>2022-05-27T13:35:27Z</time>
      </trkpt>
      <trkpt lat="44.37299" lon="3.54044">
        <ele>567</ele>
        <time>2022-05-27T13:35:28Z</time>
      </trkpt>
      <trkpt lat="44.37299" lon="3.54043">
        <ele>568</ele>
        <time>2022-05-27T13:35:29Z</time>
      </trkpt>
      <trkpt lat="44.37297" lon="3.54042">
        <ele>566</ele>
        <time>2022-05-27T13:35:30Z</time>
      </trkpt>
      <trkpt lat="44.37296" lon="3.54041">
        <ele>566</ele>
        <time>2022-05-27T13:35:31Z</time>
      </trkpt>
      <trkpt lat="44.37294" lon="3.5404">
        <ele>565</ele>
        <time>2022-05-27T13:35:32Z</time>
      </trkpt>
      <trkpt lat="44.37293" lon="3.5404">
        <ele>565</ele>
        <time>2022-05-27T13:35:33Z</time>
      </trkpt>
      <trkpt lat="44.37291" lon="3.54039">
        <ele>565</ele>
        <time>2022-05-27T13:35:34Z</time>
      </trkpt>
      <trkpt lat="44.3729" lon="3.54038">
        <ele>565</ele>
        <time>2022-05-27T13:35:35Z</time>
      </trkpt>
      <trkpt lat="44.37288" lon="3.54037">
        <ele>564</ele>
        <time>2022-05-27T13:35:36Z</time>
      </trkpt>
      <trkpt lat="44.37287" lon="3.54037">
        <ele>564</ele>
        <time>2022-05-27T13:35:37Z</time>
      </trkpt>
      <trkpt lat="44.37286" lon="3.54035">
        <ele>563</ele>
        <time>2022-05-27T13:35:38Z</time>
      </trkpt>
      <trkpt lat="44.37285" lon="3.54034">
        <ele>563</ele>
        <time>2022-05-27T13:35:39Z</time>
      </trkpt>
      <trkpt lat="44.37283" lon="3.54033">
        <ele>563</ele>
        <time>2022-05-27T13:35:40Z</time>
      </trkpt>
      <trkpt lat="44.37281" lon="3.54032">
        <ele>563</ele>
        <time>2022-05-27T13:35:41Z</time>
      </trkpt>
      <trkpt lat="44.3728" lon="3.54031">
        <ele>563</ele>
        <time>2022-05-27T13:35:42Z</time>
      </trkpt>
      <trkpt lat="44.37279" lon="3.5403">
        <ele>564</ele>
        <time>2022-05-27T13:35:43Z</time>
      </trkpt>
      <trkpt lat="44.37278" lon="3.54029">
        <ele>564</ele>
        <time>2022-05-27T13:35:44Z</time>
      </trkpt>
      <trkpt lat="44.37276" lon="3.54029">
        <ele>564</ele>
        <time>2022-05-27T13:35:45Z</time>
      </trkpt>
      <trkpt lat="44.37275" lon="3.54028">
        <ele>564</ele>
        <time>2022-05-27T13:35:46Z</time>
      </trkpt>
      <trkpt lat="44.37273" lon="3.54027">
        <ele>564</ele>
        <time>2022-05-27T13:35:47Z</time>
      </trkpt>
      <trkpt lat="44.37272" lon="3.54027">
        <ele>564</ele>
        <time>2022-05-27T13:35:48Z</time>
      </trkpt>
      <trkpt lat="44.37272" lon="3.54026">
        <ele>563</ele>
        <time>2022-05-27T13:35:49Z</time>
      </trkpt>
      <trkpt lat="44.37271" lon="3.54025">
        <ele>563</ele>
        <time>2022-05-27T13:35:50Z</time>
      </trkpt>
      <trkpt lat="44.3727" lon="3.54024">
        <ele>564</ele>
        <time>2022-05-27T13:35:51Z</time>
      </trkpt>
      <trkpt lat="44.37269" lon="3.54023">
        <ele>564</ele>
        <time>2022-05-27T13:35:52Z</time>
      </trkpt>
      <trkpt lat="44.37269" lon="3.54022">
        <ele>564</ele>
        <time>2022-05-27T13:35:53Z</time>
      </trkpt>
      <trkpt lat="44.37268" lon="3.54021">
        <ele>564</ele>
        <time>2022-05-27T13:35:54Z</time>
      </trkpt>
      <trkpt lat="44.37267" lon="3.5402">
        <ele>564</ele>
        <time>2022-05-27T13:35:55Z</time>
      </trkpt>
      <trkpt lat="44.37265" lon="3.54019">
        <ele>564</ele>
        <time>2022-05-27T13:35:56Z</time>
      </trkpt>
      <trkpt lat="44.37264" lon="3.54018">
        <ele>564</ele>
        <time>2022-05-27T13:35:57Z</time>
      </trkpt>
      <trkpt lat="44.37264" lon="3.54016">
        <ele>565</ele>
        <time>2022-05-27T13:35:58Z</time>
      </trkpt>
      <trkpt lat="44.37263" lon="3.54016">
        <ele>565</ele>
        <time>2022-05-27T13:35:59Z</time>
      </trkpt>
      <trkpt lat="44.37262" lon="3.54015">
        <ele>564</ele>
        <time>2022-05-27T13:36:00Z</time>
      </trkpt>
      <trkpt lat="44.37261" lon="3.54014">
        <ele>564</ele>
        <time>2022-05-27T13:36:01Z</time>
      </trkpt>
      <trkpt lat="44.37259" lon="3.54014">
        <ele>565</ele>
        <time>2022-05-27T13:36:02Z</time>
      </trkpt>
      <trkpt lat="44.37258" lon="3.54013">
        <ele>565</ele>
        <time>2022-05-27T13:36:03Z</time>
      </trkpt>
      <trkpt lat="44.37256" lon="3.54012">
        <ele>565</ele>
        <time>2022-05-27T13:36:04Z</time>
      </trkpt>
      <trkpt lat="44.37254" lon="3.54011">
        <ele>565</ele>
        <time>2022-05-27T13:36:05Z</time>
      </trkpt>
      <trkpt lat="44.37252" lon="3.5401">
        <ele>564</ele>
        <time>2022-05-27T13:36:06Z</time>
      </trkpt>
      <trkpt lat="44.37251" lon="3.54009">
        <ele>564</ele>
        <time>2022-05-27T13:36:07Z</time>
      </trkpt>
      <trkpt lat="44.3725" lon="3.54007">
        <ele>565</ele>
        <time>2022-05-27T13:36:08Z</time>
      </trkpt>
      <trkpt lat="44.37248" lon="3.54006">
        <ele>565</ele>
        <time>2022-05-27T13:36:09Z</time>
      </trkpt>
      <trkpt lat="44.37247" lon="3.54006">
        <ele>565</ele>
        <time>2022-05-27T13:36:10Z</time>
      </trkpt>
      <trkpt lat="44.37246" lon="3.54005">
        <ele>565</ele>
        <time>2022-05-27T13:36:11Z</time>
      </trkpt>
      <trkpt lat="44.37244" lon="3.54004">
        <ele>565</ele>
        <time>2022-05-27T13:36:12Z</time>
      </trkpt>
      <trkpt lat="44.37243" lon="3.54003">
        <ele>565</ele>
        <time>2022-05-27T13:36:13Z</time>
      </trkpt>
      <trkpt lat="44.37241" lon="3.54003">
        <ele>565</ele>
        <time>2022-05-27T13:36:14Z</time>
      </trkpt>
      <trkpt lat="44.3724" lon="3.54003">
        <ele>566</ele>
        <time>2022-05-27T13:36:15Z</time>
      </trkpt>
      <trkpt lat="44.37239" lon="3.54001">
        <ele>566</ele>
        <time>2022-05-27T13:36:16Z</time>
      </trkpt>
      <trkpt lat="44.37238" lon="3.54">
        <ele>566</ele>
        <time>2022-05-27T13:36:17Z</time>
      </trkpt>
      <trkpt lat="44.37236" lon="3.53999">
        <ele>567</ele>
        <time>2022-05-27T13:36:18Z</time>
      </trkpt>
      <trkpt lat="44.37235" lon="3.53998">
        <ele>567</ele>
        <time>2022-05-27T13:36:19Z</time>
      </trkpt>
      <trkpt lat="44.37234" lon="3.53996">
        <ele>567</ele>
        <time>2022-05-27T13:36:20Z</time>
      </trkpt>
      <trkpt lat="44.37233" lon="3.53995">
        <ele>566</ele>
        <time>2022-05-27T13:36:21Z</time>
      </trkpt>
      <trkpt lat="44.37232" lon="3.53994">
        <ele>566</ele>
        <time>2022-05-27T13:36:22Z</time>
      </trkpt>
      <trkpt lat="44.37231" lon="3.53993">
        <ele>566</ele>
        <time>2022-05-27T13:36:23Z</time>
      </trkpt>
      <trkpt lat="44.3723" lon="3.53992">
        <ele>566</ele>
        <time>2022-05-27T13:36:24Z</time>
      </trkpt>
      <trkpt lat="44.37228" lon="3.53991">
        <ele>566</ele>
        <time>2022-05-27T13:36:25Z</time>
      </trkpt>
      <trkpt lat="44.37227" lon="3.5399">
        <ele>566</ele>
        <time>2022-05-27T13:36:26Z</time>
      </trkpt>
      <trkpt lat="44.37226" lon="3.53989">
        <ele>566</ele>
        <time>2022-05-27T13:36:27Z</time>
      </trkpt>
      <trkpt lat="44.37225" lon="3.53988">
        <ele>566</ele>
        <time>2022-05-27T13:36:28Z</time>
      </trkpt>
      <trkpt lat="44.37223" lon="3.53987">
        <ele>567</ele>
        <time>2022-05-27T13:36:29Z</time>
      </trkpt>
      <trkpt lat="44.37222" lon="3.53986">
        <ele>566</ele>
        <time>2022-05-27T13:36:30Z</time>
      </trkpt>
      <trkpt lat="44.37221" lon="3.53985">
        <ele>566</ele>
        <time>2022-05-27T13:36:31Z</time>
      </trkpt>
      <trkpt lat="44.37219" lon="3.53985">
        <ele>565</ele>
        <time>2022-05-27T13:36:32Z</time>
      </trkpt>
      <trkpt lat="44.37219" lon="3.53985">
        <ele>566</ele>
        <time>2022-05-27T13:36:33Z</time>
      </trkpt>
      <trkpt lat="44.37217" lon="3.53984">
        <ele>566</ele>
        <time>2022-05-27T13:36:34Z</time>
      </trkpt>
      <trkpt lat="44.37216" lon="3.53984">
        <ele>565</ele>
        <time>2022-05-27T13:36:35Z</time>
      </trkpt>
      <trkpt lat="44.37215" lon="3.53983">
        <ele>565</ele>
        <time>2022-05-27T13:36:36Z</time>
      </trkpt>
      <trkpt lat="44.37214" lon="3.53982">
        <ele>565</ele>
        <time>2022-05-27T13:36:37Z</time>
      </trkpt>
      <trkpt lat="44.37212" lon="3.53981">
        <ele>565</ele>
        <time>2022-05-27T13:36:38Z</time>
      </trkpt>
      <trkpt lat="44.37211" lon="3.5398">
        <ele>566</ele>
        <time>2022-05-27T13:36:39Z</time>
      </trkpt>
      <trkpt lat="44.3721" lon="3.5398">
        <ele>566</ele>
        <time>2022-05-27T13:36:40Z</time>
      </trkpt>
      <trkpt lat="44.37209" lon="3.53979">
        <ele>567</ele>
        <time>2022-05-27T13:36:41Z</time>
      </trkpt>
      <trkpt lat="44.37208" lon="3.53978">
        <ele>566</ele>
        <time>2022-05-27T13:36:42Z</time>
      </trkpt>
      <trkpt lat="44.37207" lon="3.53977">
        <ele>566</ele>
        <time>2022-05-27T13:36:43Z</time>
      </trkpt>
      <trkpt lat="44.37206" lon="3.53977">
        <ele>567</ele>
        <time>2022-05-27T13:36:44Z</time>
      </trkpt>
      <trkpt lat="44.37204" lon="3.53976">
        <ele>567</ele>
        <time>2022-05-27T13:36:45Z</time>
      </trkpt>
      <trkpt lat="44.37203" lon="3.53976">
        <ele>567</ele>
        <time>2022-05-27T13:36:46Z</time>
      </trkpt>
      <trkpt lat="44.37203" lon="3.53975">
        <ele>566</ele>
        <time>2022-05-27T13:36:47Z</time>
      </trkpt>
      <trkpt lat="44.37202" lon="3.53974">
        <ele>566</ele>
        <time>2022-05-27T13:36:48Z</time>
      </trkpt>
      <trkpt lat="44.37201" lon="3.53973">
        <ele>566</ele>
        <time>2022-05-27T13:36:49Z</time>
      </trkpt>
      <trkpt lat="44.372" lon="3.53972">
        <ele>566</ele>
        <time>2022-05-27T13:36:50Z</time>
      </trkpt>
      <trkpt lat="44.37199" lon="3.53972">
        <ele>566</ele>
        <time>2022-05-27T13:36:51Z</time>
      </trkpt>
      <trkpt lat="44.37198" lon="3.53971">
        <ele>566</ele>
        <time>2022-05-27T13:36:52Z</time>
      </trkpt>
      <trkpt lat="44.37197" lon="3.5397">
        <ele>567</ele>
        <time>2022-05-27T13:36:53Z</time>
      </trkpt>
      <trkpt lat="44.37196" lon="3.5397">
        <ele>567</ele>
        <time>2022-05-27T13:36:54Z</time>
      </trkpt>
      <trkpt lat="44.37194" lon="3.53969">
        <ele>567</ele>
        <time>2022-05-27T13:36:55Z</time>
      </trkpt>
      <trkpt lat="44.37193" lon="3.53968">
        <ele>567</ele>
        <time>2022-05-27T13:36:56Z</time>
      </trkpt>
      <trkpt lat="44.37191" lon="3.53967">
        <ele>567</ele>
        <time>2022-05-27T13:36:57Z</time>
      </trkpt>
      <trkpt lat="44.37191" lon="3.53967">
        <ele>568</ele>
        <time>2022-05-27T13:36:58Z</time>
      </trkpt>
      <trkpt lat="44.3719" lon="3.53967">
        <ele>570</ele>
        <time>2022-05-27T13:36:59Z</time>
      </trkpt>
      <trkpt lat="44.37189" lon="3.53966">
        <ele>570</ele>
        <time>2022-05-27T13:37:00Z</time>
      </trkpt>
      <trkpt lat="44.37188" lon="3.53965">
        <ele>570</ele>
        <time>2022-05-27T13:37:01Z</time>
      </trkpt>
      <trkpt lat="44.37186" lon="3.53964">
        <ele>569</ele>
        <time>2022-05-27T13:37:02Z</time>
      </trkpt>
      <trkpt lat="44.37185" lon="3.53963">
        <ele>570</ele>
        <time>2022-05-27T13:37:03Z</time>
      </trkpt>
      <trkpt lat="44.37184" lon="3.53963">
        <ele>570</ele>
        <time>2022-05-27T13:37:04Z</time>
      </trkpt>
      <trkpt lat="44.37183" lon="3.53962">
        <ele>570</ele>
        <time>2022-05-27T13:37:05Z</time>
      </trkpt>
      <trkpt lat="44.37183" lon="3.53962">
        <ele>570</ele>
        <time>2022-05-27T13:37:06Z</time>
      </trkpt>
      <trkpt lat="44.37182" lon="3.53961">
        <ele>570</ele>
        <time>2022-05-27T13:37:07Z</time>
      </trkpt>
      <trkpt lat="44.37181" lon="3.5396">
        <ele>571</ele>
        <time>2022-05-27T13:37:08Z</time>
      </trkpt>
      <trkpt lat="44.37179" lon="3.5396">
        <ele>571</ele>
        <time>2022-05-27T13:37:09Z</time>
      </trkpt>
      <trkpt lat="44.37177" lon="3.53959">
        <ele>570</ele>
        <time>2022-05-27T13:37:10Z</time>
      </trkpt>
      <trkpt lat="44.37176" lon="3.53958">
        <ele>570</ele>
        <time>2022-05-27T13:37:11Z</time>
      </trkpt>
      <trkpt lat="44.37174" lon="3.53958">
        <ele>570</ele>
        <time>2022-05-27T13:37:12Z</time>
      </trkpt>
      <trkpt lat="44.37174" lon="3.53957">
        <ele>570</ele>
        <time>2022-05-27T13:37:13Z</time>
      </trkpt>
      <trkpt lat="44.37173" lon="3.53957">
        <ele>570</ele>
        <time>2022-05-27T13:37:14Z</time>
      </trkpt>
      <trkpt lat="44.37171" lon="3.53957">
        <ele>570</ele>
        <time>2022-05-27T13:37:15Z</time>
      </trkpt>
      <trkpt lat="44.37171" lon="3.53957">
        <ele>570</ele>
        <time>2022-05-27T13:37:16Z</time>
      </trkpt>
      <trkpt lat="44.3717" lon="3.53957">
        <ele>570</ele>
        <time>2022-05-27T13:37:17Z</time>
      </trkpt>
      <trkpt lat="44.3717" lon="3.53957">
        <ele>570</ele>
        <time>2022-05-27T13:37:18Z</time>
      </trkpt>
      <trkpt lat="44.37169" lon="3.53956">
        <ele>570</ele>
        <time>2022-05-27T13:37:19Z</time>
      </trkpt>
      <trkpt lat="44.37168" lon="3.53956">
        <ele>569</ele>
        <time>2022-05-27T13:37:20Z</time>
      </trkpt>
      <trkpt lat="44.37167" lon="3.53956">
        <ele>569</ele>
        <time>2022-05-27T13:37:21Z</time>
      </trkpt>
      <trkpt lat="44.37167" lon="3.53956">
        <ele>569</ele>
        <time>2022-05-27T13:37:22Z</time>
      </trkpt>
      <trkpt lat="44.37166" lon="3.53956">
        <ele>569</ele>
        <time>2022-05-27T13:37:23Z</time>
      </trkpt>
      <trkpt lat="44.37165" lon="3.53956">
        <ele>569</ele>
        <time>2022-05-27T13:37:24Z</time>
      </trkpt>
      <trkpt lat="44.37163" lon="3.53957">
        <ele>569</ele>
        <time>2022-05-27T13:37:25Z</time>
      </trkpt>
      <trkpt lat="44.37163" lon="3.53957">
        <ele>568</ele>
        <time>2022-05-27T13:37:26Z</time>
      </trkpt>
      <trkpt lat="44.37162" lon="3.53957">
        <ele>569</ele>
        <time>2022-05-27T13:37:27Z</time>
      </trkpt>
      <trkpt lat="44.37162" lon="3.53956">
        <ele>569</ele>
        <time>2022-05-27T13:37:28Z</time>
      </trkpt>
      <trkpt lat="44.37162" lon="3.53956">
        <ele>569</ele>
        <time>2022-05-27T13:37:29Z</time>
      </trkpt>
      <trkpt lat="44.37162" lon="3.53956">
        <ele>569</ele>
        <time>2022-05-27T13:37:29Z</time>
      </trkpt>
      <trkpt lat="44.37162" lon="3.53956">
        <ele>569</ele>
        <time>2022-05-27T13:37:29Z</time>
      </trkpt>
      <trkpt lat="44.37164" lon="3.53953">
        <ele>572</ele>
        <time>2022-05-27T13:37:46Z</time>
      </trkpt>
      <trkpt lat="44.37163" lon="3.53952">
        <ele>572</ele>
        <time>2022-05-27T13:37:47Z</time>
      </trkpt>
      <trkpt lat="44.37162" lon="3.53951">
        <ele>572</ele>
        <time>2022-05-27T13:37:48Z</time>
      </trkpt>
      <trkpt lat="44.37162" lon="3.5395">
        <ele>572</ele>
        <time>2022-05-27T13:37:49Z</time>
      </trkpt>
      <trkpt lat="44.37161" lon="3.5395">
        <ele>572</ele>
        <time>2022-05-27T13:37:50Z</time>
      </trkpt>
      <trkpt lat="44.3716" lon="3.53949">
        <ele>572</ele>
        <time>2022-05-27T13:37:51Z</time>
      </trkpt>
      <trkpt lat="44.37159" lon="3.53949">
        <ele>572</ele>
        <time>2022-05-27T13:37:52Z</time>
      </trkpt>
      <trkpt lat="44.37157" lon="3.53948">
        <ele>572</ele>
        <time>2022-05-27T13:37:53Z</time>
      </trkpt>
      <trkpt lat="44.37157" lon="3.53948">
        <ele>572</ele>
        <time>2022-05-27T13:37:54Z</time>
      </trkpt>
      <trkpt lat="44.37156" lon="3.53948">
        <ele>571</ele>
        <time>2022-05-27T13:37:55Z</time>
      </trkpt>
      <trkpt lat="44.37154" lon="3.53947">
        <ele>571</ele>
        <time>2022-05-27T13:37:56Z</time>
      </trkpt>
      <trkpt lat="44.37152" lon="3.53946">
        <ele>571</ele>
        <time>2022-05-27T13:37:57Z</time>
      </trkpt>
      <trkpt lat="44.37151" lon="3.53945">
        <ele>571</ele>
        <time>2022-05-27T13:37:58Z</time>
      </trkpt>
      <trkpt lat="44.3715" lon="3.53945">
        <ele>571</ele>
        <time>2022-05-27T13:37:59Z</time>
      </trkpt>
      <trkpt lat="44.37149" lon="3.53945">
        <ele>571</ele>
        <time>2022-05-27T13:38:00Z</time>
      </trkpt>
      <trkpt lat="44.37147" lon="3.53944">
        <ele>571</ele>
        <time>2022-05-27T13:38:01Z</time>
      </trkpt>
      <trkpt lat="44.37146" lon="3.53943">
        <ele>572</ele>
        <time>2022-05-27T13:38:02Z</time>
      </trkpt>
      <trkpt lat="44.37145" lon="3.53942">
        <ele>572</ele>
        <time>2022-05-27T13:38:03Z</time>
      </trkpt>
      <trkpt lat="44.37143" lon="3.53942">
        <ele>572</ele>
        <time>2022-05-27T13:38:04Z</time>
      </trkpt>
      <trkpt lat="44.37142" lon="3.53941">
        <ele>573</ele>
        <time>2022-05-27T13:38:05Z</time>
      </trkpt>
      <trkpt lat="44.3714" lon="3.5394">
        <ele>572</ele>
        <time>2022-05-27T13:38:06Z</time>
      </trkpt>
      <trkpt lat="44.37139" lon="3.5394">
        <ele>572</ele>
        <time>2022-05-27T13:38:07Z</time>
      </trkpt>
      <trkpt lat="44.37138" lon="3.53939">
        <ele>571</ele>
        <time>2022-05-27T13:38:08Z</time>
      </trkpt>
      <trkpt lat="44.37138" lon="3.53939">
        <ele>571</ele>
        <time>2022-05-27T13:38:09Z</time>
      </trkpt>
      <trkpt lat="44.37137" lon="3.53938">
        <ele>571</ele>
        <time>2022-05-27T13:38:10Z</time>
      </trkpt>
      <trkpt lat="44.37136" lon="3.53937">
        <ele>570</ele>
        <time>2022-05-27T13:38:11Z</time>
      </trkpt>
      <trkpt lat="44.37135" lon="3.53936">
        <ele>570</ele>
        <time>2022-05-27T13:38:12Z</time>
      </trkpt>
      <trkpt lat="44.37133" lon="3.53935">
        <ele>570</ele>
        <time>2022-05-27T13:38:13Z</time>
      </trkpt>
      <trkpt lat="44.37131" lon="3.53935">
        <ele>570</ele>
        <time>2022-05-27T13:38:14Z</time>
      </trkpt>
      <trkpt lat="44.3713" lon="3.53935">
        <ele>571</ele>
        <time>2022-05-27T13:38:15Z</time>
      </trkpt>
      <trkpt lat="44.37128" lon="3.53934">
        <ele>572</ele>
        <time>2022-05-27T13:38:16Z</time>
      </trkpt>
      <trkpt lat="44.37127" lon="3.53934">
        <ele>572</ele>
        <time>2022-05-27T13:38:17Z</time>
      </trkpt>
      <trkpt lat="44.37125" lon="3.53933">
        <ele>572</ele>
        <time>2022-05-27T13:38:18Z</time>
      </trkpt>
      <trkpt lat="44.37124" lon="3.53933">
        <ele>572</ele>
        <time>2022-05-27T13:38:19Z</time>
      </trkpt>
      <trkpt lat="44.37123" lon="3.53933">
        <ele>572</ele>
        <time>2022-05-27T13:38:20Z</time>
      </trkpt>
      <trkpt lat="44.37121" lon="3.53932">
        <ele>572</ele>
        <time>2022-05-27T13:38:21Z</time>
      </trkpt>
      <trkpt lat="44.3712" lon="3.53932">
        <ele>572</ele>
        <time>2022-05-27T13:38:22Z</time>
      </trkpt>
      <trkpt lat="44.37118" lon="3.53931">
        <ele>571</ele>
        <time>2022-05-27T13:38:23Z</time>
      </trkpt>
      <trkpt lat="44.37117" lon="3.5393">
        <ele>572</ele>
        <time>2022-05-27T13:38:24Z</time>
      </trkpt>
      <trkpt lat="44.37116" lon="3.53929">
        <ele>571</ele>
        <time>2022-05-27T13:38:25Z</time>
      </trkpt>
      <trkpt lat="44.37114" lon="3.53929">
        <ele>572</ele>
        <time>2022-05-27T13:38:26Z</time>
      </trkpt>
      <trkpt lat="44.37113" lon="3.53928">
        <ele>571</ele>
        <time>2022-05-27T13:38:27Z</time>
      </trkpt>
      <trkpt lat="44.37112" lon="3.53927">
        <ele>571</ele>
        <time>2022-05-27T13:38:28Z</time>
      </trkpt>
      <trkpt lat="44.37111" lon="3.53927">
        <ele>571</ele>
        <time>2022-05-27T13:38:29Z</time>
      </trkpt>
      <trkpt lat="44.37109" lon="3.53926">
        <ele>572</ele>
        <time>2022-05-27T13:38:30Z</time>
      </trkpt>
      <trkpt lat="44.37108" lon="3.53925">
        <ele>572</ele>
        <time>2022-05-27T13:38:31Z</time>
      </trkpt>
      <trkpt lat="44.37107" lon="3.53924">
        <ele>572</ele>
        <time>2022-05-27T13:38:32Z</time>
      </trkpt>
      <trkpt lat="44.37106" lon="3.53924">
        <ele>572</ele>
        <time>2022-05-27T13:38:33Z</time>
      </trkpt>
      <trkpt lat="44.37104" lon="3.53923">
        <ele>573</ele>
        <time>2022-05-27T13:38:34Z</time>
      </trkpt>
      <trkpt lat="44.37103" lon="3.53923">
        <ele>573</ele>
        <time>2022-05-27T13:38:35Z</time>
      </trkpt>
      <trkpt lat="44.37102" lon="3.53922">
        <ele>573</ele>
        <time>2022-05-27T13:38:36Z</time>
      </trkpt>
      <trkpt lat="44.37101" lon="3.53921">
        <ele>574</ele>
        <time>2022-05-27T13:38:37Z</time>
      </trkpt>
      <trkpt lat="44.371" lon="3.53921">
        <ele>575</ele>
        <time>2022-05-27T13:38:38Z</time>
      </trkpt>
      <trkpt lat="44.37098" lon="3.5392">
        <ele>575</ele>
        <time>2022-05-27T13:38:39Z</time>
      </trkpt>
      <trkpt lat="44.37098" lon="3.53919">
        <ele>576</ele>
        <time>2022-05-27T13:38:40Z</time>
      </trkpt>
      <trkpt lat="44.37096" lon="3.53918">
        <ele>576</ele>
        <time>2022-05-27T13:38:41Z</time>
      </trkpt>
      <trkpt lat="44.37096" lon="3.53916">
        <ele>576</ele>
        <time>2022-05-27T13:38:42Z</time>
      </trkpt>
      <trkpt lat="44.37095" lon="3.53915">
        <ele>577</ele>
        <time>2022-05-27T13:38:43Z</time>
      </trkpt>
      <trkpt lat="44.37095" lon="3.53914">
        <ele>577</ele>
        <time>2022-05-27T13:38:44Z</time>
      </trkpt>
      <trkpt lat="44.37093" lon="3.53913">
        <ele>577</ele>
        <time>2022-05-27T13:38:45Z</time>
      </trkpt>
      <trkpt lat="44.37093" lon="3.53912">
        <ele>578</ele>
        <time>2022-05-27T13:38:46Z</time>
      </trkpt>
      <trkpt lat="44.37092" lon="3.5391">
        <ele>578</ele>
        <time>2022-05-27T13:38:47Z</time>
      </trkpt>
      <trkpt lat="44.37091" lon="3.53908">
        <ele>578</ele>
        <time>2022-05-27T13:38:48Z</time>
      </trkpt>
      <trkpt lat="44.3709" lon="3.53907">
        <ele>578</ele>
        <time>2022-05-27T13:38:49Z</time>
      </trkpt>
      <trkpt lat="44.3709" lon="3.53905">
        <ele>578</ele>
        <time>2022-05-27T13:38:50Z</time>
      </trkpt>
      <trkpt lat="44.37089" lon="3.53903">
        <ele>578</ele>
        <time>2022-05-27T13:38:51Z</time>
      </trkpt>
      <trkpt lat="44.37088" lon="3.53902">
        <ele>578</ele>
        <time>2022-05-27T13:38:52Z</time>
      </trkpt>
      <trkpt lat="44.37088" lon="3.53901">
        <ele>578</ele>
        <time>2022-05-27T13:38:53Z</time>
      </trkpt>
      <trkpt lat="44.37087" lon="3.53899">
        <ele>578</ele>
        <time>2022-05-27T13:38:54Z</time>
      </trkpt>
      <trkpt lat="44.37087" lon="3.53898">
        <ele>578</ele>
        <time>2022-05-27T13:38:55Z</time>
      </trkpt>
      <trkpt lat="44.37087" lon="3.53896">
        <ele>579</ele>
        <time>2022-05-27T13:38:56Z</time>
      </trkpt>
      <trkpt lat="44.37086" lon="3.53894">
        <ele>579</ele>
        <time>2022-05-27T13:38:57Z</time>
      </trkpt>
      <trkpt lat="44.37085" lon="3.53892">
        <ele>580</ele>
        <time>2022-05-27T13:38:58Z</time>
      </trkpt>
      <trkpt lat="44.37084" lon="3.53891">
        <ele>580</ele>
        <time>2022-05-27T13:38:59Z</time>
      </trkpt>
      <trkpt lat="44.37084" lon="3.53889">
        <ele>580</ele>
        <time>2022-05-27T13:39:00Z</time>
      </trkpt>
      <trkpt lat="44.37083" lon="3.53888">
        <ele>580</ele>
        <time>2022-05-27T13:39:01Z</time>
      </trkpt>
      <trkpt lat="44.37083" lon="3.53886">
        <ele>580</ele>
        <time>2022-05-27T13:39:02Z</time>
      </trkpt>
      <trkpt lat="44.37082" lon="3.53884">
        <ele>581</ele>
        <time>2022-05-27T13:39:03Z</time>
      </trkpt>
      <trkpt lat="44.37082" lon="3.53883">
        <ele>581</ele>
        <time>2022-05-27T13:39:04Z</time>
      </trkpt>
      <trkpt lat="44.37082" lon="3.53881">
        <ele>581</ele>
        <time>2022-05-27T13:39:05Z</time>
      </trkpt>
      <trkpt lat="44.37081" lon="3.53879">
        <ele>582</ele>
        <time>2022-05-27T13:39:06Z</time>
      </trkpt>
      <trkpt lat="44.3708" lon="3.53877">
        <ele>581</ele>
        <time>2022-05-27T13:39:07Z</time>
      </trkpt>
      <trkpt lat="44.3708" lon="3.53876">
        <ele>581</ele>
        <time>2022-05-27T13:39:08Z</time>
      </trkpt>
      <trkpt lat="44.3708" lon="3.53874">
        <ele>581</ele>
        <time>2022-05-27T13:39:09Z</time>
      </trkpt>
      <trkpt lat="44.37079" lon="3.53873">
        <ele>582</ele>
        <time>2022-05-27T13:39:10Z</time>
      </trkpt>
      <trkpt lat="44.37079" lon="3.53872">
        <ele>582</ele>
        <time>2022-05-27T13:39:11Z</time>
      </trkpt>
      <trkpt lat="44.37079" lon="3.5387">
        <ele>582</ele>
        <time>2022-05-27T13:39:12Z</time>
      </trkpt>
      <trkpt lat="44.37079" lon="3.53869">
        <ele>582</ele>
        <time>2022-05-27T13:39:13Z</time>
      </trkpt>
      <trkpt lat="44.37078" lon="3.53867">
        <ele>582</ele>
        <time>2022-05-27T13:39:14Z</time>
      </trkpt>
      <trkpt lat="44.37077" lon="3.53865">
        <ele>582</ele>
        <time>2022-05-27T13:39:15Z</time>
      </trkpt>
      <trkpt lat="44.37077" lon="3.53863">
        <ele>581</ele>
        <time>2022-05-27T13:39:16Z</time>
      </trkpt>
      <trkpt lat="44.37076" lon="3.53861">
        <ele>581</ele>
        <time>2022-05-27T13:39:17Z</time>
      </trkpt>
      <trkpt lat="44.37075" lon="3.53859">
        <ele>581</ele>
        <time>2022-05-27T13:39:18Z</time>
      </trkpt>
      <trkpt lat="44.37075" lon="3.53857">
        <ele>582</ele>
        <time>2022-05-27T13:39:19Z</time>
      </trkpt>
      <trkpt lat="44.37075" lon="3.53855">
        <ele>582</ele>
        <time>2022-05-27T13:39:20Z</time>
      </trkpt>
      <trkpt lat="44.37074" lon="3.53853">
        <ele>583</ele>
        <time>2022-05-27T13:39:21Z</time>
      </trkpt>
      <trkpt lat="44.37074" lon="3.53852">
        <ele>583</ele>
        <time>2022-05-27T13:39:22Z</time>
      </trkpt>
      <trkpt lat="44.37073" lon="3.5385">
        <ele>583</ele>
        <time>2022-05-27T13:39:23Z</time>
      </trkpt>
      <trkpt lat="44.37073" lon="3.53849">
        <ele>583</ele>
        <time>2022-05-27T13:39:24Z</time>
      </trkpt>
      <trkpt lat="44.37073" lon="3.53847">
        <ele>583</ele>
        <time>2022-05-27T13:39:25Z</time>
      </trkpt>
      <trkpt lat="44.37072" lon="3.53846">
        <ele>583</ele>
        <time>2022-05-27T13:39:26Z</time>
      </trkpt>
      <trkpt lat="44.37072" lon="3.53845">
        <ele>582</ele>
        <time>2022-05-27T13:39:27Z</time>
      </trkpt>
      <trkpt lat="44.37071" lon="3.53843">
        <ele>583</ele>
        <time>2022-05-27T13:39:28Z</time>
      </trkpt>
      <trkpt lat="44.37071" lon="3.53842">
        <ele>582</ele>
        <time>2022-05-27T13:39:29Z</time>
      </trkpt>
      <trkpt lat="44.3707" lon="3.5384">
        <ele>583</ele>
        <time>2022-05-27T13:39:30Z</time>
      </trkpt>
      <trkpt lat="44.37069" lon="3.53838">
        <ele>584</ele>
        <time>2022-05-27T13:39:31Z</time>
      </trkpt>
      <trkpt lat="44.37069" lon="3.53837">
        <ele>584</ele>
        <time>2022-05-27T13:39:32Z</time>
      </trkpt>
      <trkpt lat="44.37068" lon="3.53835">
        <ele>583</ele>
        <time>2022-05-27T13:39:33Z</time>
      </trkpt>
      <trkpt lat="44.37067" lon="3.53833">
        <ele>583</ele>
        <time>2022-05-27T13:39:34Z</time>
      </trkpt>
      <trkpt lat="44.37066" lon="3.53831">
        <ele>583</ele>
        <time>2022-05-27T13:39:35Z</time>
      </trkpt>
      <trkpt lat="44.37066" lon="3.5383">
        <ele>583</ele>
        <time>2022-05-27T13:39:36Z</time>
      </trkpt>
      <trkpt lat="44.37064" lon="3.53828">
        <ele>582</ele>
        <time>2022-05-27T13:39:37Z</time>
      </trkpt>
      <trkpt lat="44.37064" lon="3.53827">
        <ele>583</ele>
        <time>2022-05-27T13:39:38Z</time>
      </trkpt>
      <trkpt lat="44.37063" lon="3.53825">
        <ele>583</ele>
        <time>2022-05-27T13:39:39Z</time>
      </trkpt>
      <trkpt lat="44.37062" lon="3.53824">
        <ele>583</ele>
        <time>2022-05-27T13:39:40Z</time>
      </trkpt>
      <trkpt lat="44.37061" lon="3.53822">
        <ele>583</ele>
        <time>2022-05-27T13:39:41Z</time>
      </trkpt>
      <trkpt lat="44.37061" lon="3.5382">
        <ele>583</ele>
        <time>2022-05-27T13:39:42Z</time>
      </trkpt>
      <trkpt lat="44.3706" lon="3.53819">
        <ele>582</ele>
        <time>2022-05-27T13:39:43Z</time>
      </trkpt>
      <trkpt lat="44.37059" lon="3.53817">
        <ele>582</ele>
        <time>2022-05-27T13:39:44Z</time>
      </trkpt>
      <trkpt lat="44.37058" lon="3.53815">
        <ele>582</ele>
        <time>2022-05-27T13:39:45Z</time>
      </trkpt>
      <trkpt lat="44.37057" lon="3.53813">
        <ele>582</ele>
        <time>2022-05-27T13:39:46Z</time>
      </trkpt>
      <trkpt lat="44.37056" lon="3.53811">
        <ele>582</ele>
        <time>2022-05-27T13:39:47Z</time>
      </trkpt>
      <trkpt lat="44.37055" lon="3.5381">
        <ele>582</ele>
        <time>2022-05-27T13:39:48Z</time>
      </trkpt>
      <trkpt lat="44.37054" lon="3.53808">
        <ele>583</ele>
        <time>2022-05-27T13:39:49Z</time>
      </trkpt>
      <trkpt lat="44.37053" lon="3.53807">
        <ele>582</ele>
        <time>2022-05-27T13:39:50Z</time>
      </trkpt>
      <trkpt lat="44.37053" lon="3.53805">
        <ele>583</ele>
        <time>2022-05-27T13:39:51Z</time>
      </trkpt>
      <trkpt lat="44.37052" lon="3.53804">
        <ele>584</ele>
        <time>2022-05-27T13:39:52Z</time>
      </trkpt>
      <trkpt lat="44.37051" lon="3.53803">
        <ele>584</ele>
        <time>2022-05-27T13:39:53Z</time>
      </trkpt>
      <trkpt lat="44.3705" lon="3.53802">
        <ele>584</ele>
        <time>2022-05-27T13:39:54Z</time>
      </trkpt>
      <trkpt lat="44.3705" lon="3.53801">
        <ele>583</ele>
        <time>2022-05-27T13:39:55Z</time>
      </trkpt>
      <trkpt lat="44.37048" lon="3.538">
        <ele>583</ele>
        <time>2022-05-27T13:39:56Z</time>
      </trkpt>
      <trkpt lat="44.37047" lon="3.53799">
        <ele>583</ele>
        <time>2022-05-27T13:39:57Z</time>
      </trkpt>
      <trkpt lat="44.37046" lon="3.53799">
        <ele>583</ele>
        <time>2022-05-27T13:39:58Z</time>
      </trkpt>
      <trkpt lat="44.37045" lon="3.53798">
        <ele>584</ele>
        <time>2022-05-27T13:39:59Z</time>
      </trkpt>
      <trkpt lat="44.37043" lon="3.53797">
        <ele>584</ele>
        <time>2022-05-27T13:40:00Z</time>
      </trkpt>
      <trkpt lat="44.37043" lon="3.53797">
        <ele>583</ele>
        <time>2022-05-27T13:40:01Z</time>
      </trkpt>
      <trkpt lat="44.37042" lon="3.53796">
        <ele>583</ele>
        <time>2022-05-27T13:40:02Z</time>
      </trkpt>
      <trkpt lat="44.3704" lon="3.53796">
        <ele>583</ele>
        <time>2022-05-27T13:40:03Z</time>
      </trkpt>
      <trkpt lat="44.3704" lon="3.53795">
        <ele>583</ele>
        <time>2022-05-27T13:40:04Z</time>
      </trkpt>
      <trkpt lat="44.37038" lon="3.53794">
        <ele>583</ele>
        <time>2022-05-27T13:40:05Z</time>
      </trkpt>
      <trkpt lat="44.37037" lon="3.53793">
        <ele>582</ele>
        <time>2022-05-27T13:40:06Z</time>
      </trkpt>
      <trkpt lat="44.37037" lon="3.53792">
        <ele>582</ele>
        <time>2022-05-27T13:40:07Z</time>
      </trkpt>
      <trkpt lat="44.37035" lon="3.5379">
        <ele>583</ele>
        <time>2022-05-27T13:40:08Z</time>
      </trkpt>
      <trkpt lat="44.37035" lon="3.53791">
        <ele>583</ele>
        <time>2022-05-27T13:40:09Z</time>
      </trkpt>
      <trkpt lat="44.37035" lon="3.53791">
        <ele>583</ele>
        <time>2022-05-27T13:40:10Z</time>
      </trkpt>
      <trkpt lat="44.37035" lon="3.53792">
        <ele>583</ele>
        <time>2022-05-27T13:40:11Z</time>
      </trkpt>
      <trkpt lat="44.37034" lon="3.53792">
        <ele>582</ele>
        <time>2022-05-27T13:40:12Z</time>
      </trkpt>
      <trkpt lat="44.37034" lon="3.53792">
        <ele>582</ele>
        <time>2022-05-27T13:40:13Z</time>
      </trkpt>
      <trkpt lat="44.37034" lon="3.53792">
        <ele>582</ele>
        <time>2022-05-27T13:40:13Z</time>
      </trkpt>
      <trkpt lat="44.37034" lon="3.53792">
        <ele>582</ele>
        <time>2022-05-27T13:40:13Z</time>
      </trkpt>
      <trkpt lat="44.37036" lon="3.53787">
        <ele>583</ele>
        <time>2022-05-27T13:42:50Z</time>
      </trkpt>
      <trkpt lat="44.37036" lon="3.53785">
        <ele>583</ele>
        <time>2022-05-27T13:42:51Z</time>
      </trkpt>
      <trkpt lat="44.37035" lon="3.53784">
        <ele>583</ele>
        <time>2022-05-27T13:42:52Z</time>
      </trkpt>
      <trkpt lat="44.37035" lon="3.53782">
        <ele>583</ele>
        <time>2022-05-27T13:42:53Z</time>
      </trkpt>
      <trkpt lat="44.37034" lon="3.53781">
        <ele>583</ele>
        <time>2022-05-27T13:42:54Z</time>
      </trkpt>
      <trkpt lat="44.37034" lon="3.5378">
        <ele>583</ele>
        <time>2022-05-27T13:42:55Z</time>
      </trkpt>
      <trkpt lat="44.37033" lon="3.53779">
        <ele>583</ele>
        <time>2022-05-27T13:42:56Z</time>
      </trkpt>
      <trkpt lat="44.37032" lon="3.53777">
        <ele>583</ele>
        <time>2022-05-27T13:42:57Z</time>
      </trkpt>
      <trkpt lat="44.37032" lon="3.53776">
        <ele>583</ele>
        <time>2022-05-27T13:42:58Z</time>
      </trkpt>
      <trkpt lat="44.37031" lon="3.53775">
        <ele>583</ele>
        <time>2022-05-27T13:42:59Z</time>
      </trkpt>
      <trkpt lat="44.37031" lon="3.53774">
        <ele>583</ele>
        <time>2022-05-27T13:43:00Z</time>
      </trkpt>
      <trkpt lat="44.3703" lon="3.53773">
        <ele>583</ele>
        <time>2022-05-27T13:43:01Z</time>
      </trkpt>
      <trkpt lat="44.3703" lon="3.53772">
        <ele>582</ele>
        <time>2022-05-27T13:43:02Z</time>
      </trkpt>
      <trkpt lat="44.3703" lon="3.53771">
        <ele>581</ele>
        <time>2022-05-27T13:43:03Z</time>
      </trkpt>
      <trkpt lat="44.37029" lon="3.5377">
        <ele>581</ele>
        <time>2022-05-27T13:43:04Z</time>
      </trkpt>
      <trkpt lat="44.37029" lon="3.5377">
        <ele>581</ele>
        <time>2022-05-27T13:43:05Z</time>
      </trkpt>
      <trkpt lat="44.37029" lon="3.5377">
        <ele>580</ele>
        <time>2022-05-27T13:43:06Z</time>
      </trkpt>
      <trkpt lat="44.3703" lon="3.53769">
        <ele>580</ele>
        <time>2022-05-27T13:43:07Z</time>
      </trkpt>
      <trkpt lat="44.3703" lon="3.53769">
        <ele>580</ele>
        <time>2022-05-27T13:43:07Z</time>
      </trkpt>
      <trkpt lat="44.3703" lon="3.53769">
        <ele>580</ele>
        <time>2022-05-27T13:43:07Z</time>
      </trkpt>
      <trkpt lat="44.37029" lon="3.53768">
        <ele>583</ele>
        <time>2022-05-27T13:43:55Z</time>
      </trkpt>
      <trkpt lat="44.37028" lon="3.53768">
        <ele>583</ele>
        <time>2022-05-27T13:43:56Z</time>
      </trkpt>
      <trkpt lat="44.37027" lon="3.53768">
        <ele>584</ele>
        <time>2022-05-27T13:43:57Z</time>
      </trkpt>
      <trkpt lat="44.37027" lon="3.53768">
        <ele>583</ele>
        <time>2022-05-27T13:43:58Z</time>
      </trkpt>
      <trkpt lat="44.37027" lon="3.53768">
        <ele>583</ele>
        <time>2022-05-27T13:43:59Z</time>
      </trkpt>
      <trkpt lat="44.37027" lon="3.53768">
        <ele>583</ele>
        <time>2022-05-27T13:43:59Z</time>
      </trkpt>
      <trkpt lat="44.37027" lon="3.53768">
        <ele>583</ele>
        <time>2022-05-27T13:43:59Z</time>
      </trkpt>
      <trkpt lat="44.37022" lon="3.53768">
        <ele>580</ele>
        <time>2022-05-27T13:44:54Z</time>
      </trkpt>
      <trkpt lat="44.37021" lon="3.53766">
        <ele>580</ele>
        <time>2022-05-27T13:44:55Z</time>
      </trkpt>
      <trkpt lat="44.37021" lon="3.53765">
        <ele>580</ele>
        <time>2022-05-27T13:44:56Z</time>
      </trkpt>
      <trkpt lat="44.37021" lon="3.53763">
        <ele>580</ele>
        <time>2022-05-27T13:44:57Z</time>
      </trkpt>
      <trkpt lat="44.3702" lon="3.53761">
        <ele>580</ele>
        <time>2022-05-27T13:44:58Z</time>
      </trkpt>
      <trkpt lat="44.37019" lon="3.53759">
        <ele>580</ele>
        <time>2022-05-27T13:44:59Z</time>
      </trkpt>
      <trkpt lat="44.37018" lon="3.53757">
        <ele>581</ele>
        <time>2022-05-27T13:45:00Z</time>
      </trkpt>
      <trkpt lat="44.37018" lon="3.53755">
        <ele>581</ele>
        <time>2022-05-27T13:45:01Z</time>
      </trkpt>
      <trkpt lat="44.37017" lon="3.53753">
        <ele>580</ele>
        <time>2022-05-27T13:45:02Z</time>
      </trkpt>
      <trkpt lat="44.37017" lon="3.53751">
        <ele>580</ele>
        <time>2022-05-27T13:45:03Z</time>
      </trkpt>
      <trkpt lat="44.37016" lon="3.5375">
        <ele>581</ele>
        <time>2022-05-27T13:45:04Z</time>
      </trkpt>
      <trkpt lat="44.37016" lon="3.53749">
        <ele>581</ele>
        <time>2022-05-27T13:45:05Z</time>
      </trkpt>
      <trkpt lat="44.37016" lon="3.53747">
        <ele>580</ele>
        <time>2022-05-27T13:45:06Z</time>
      </trkpt>
      <trkpt lat="44.37016" lon="3.53746">
        <ele>580</ele>
        <time>2022-05-27T13:45:07Z</time>
      </trkpt>
      <trkpt lat="44.37015" lon="3.53745">
        <ele>580</ele>
        <time>2022-05-27T13:45:08Z</time>
      </trkpt>
      <trkpt lat="44.37015" lon="3.53743">
        <ele>580</ele>
        <time>2022-05-27T13:45:09Z</time>
      </trkpt>
      <trkpt lat="44.37015" lon="3.53741">
        <ele>581</ele>
        <time>2022-05-27T13:45:10Z</time>
      </trkpt>
      <trkpt lat="44.37014" lon="3.53739">
        <ele>581</ele>
        <time>2022-05-27T13:45:11Z</time>
      </trkpt>
      <trkpt lat="44.37014" lon="3.53737">
        <ele>581</ele>
        <time>2022-05-27T13:45:12Z</time>
      </trkpt>
      <trkpt lat="44.37013" lon="3.53736">
        <ele>581</ele>
        <time>2022-05-27T13:45:13Z</time>
      </trkpt>
      <trkpt lat="44.37013" lon="3.53735">
        <ele>580</ele>
        <time>2022-05-27T13:45:14Z</time>
      </trkpt>
      <trkpt lat="44.37013" lon="3.53733">
        <ele>581</ele>
        <time>2022-05-27T13:45:15Z</time>
      </trkpt>
      <trkpt lat="44.37012" lon="3.53732">
        <ele>580</ele>
        <time>2022-05-27T13:45:16Z</time>
      </trkpt>
      <trkpt lat="44.37011" lon="3.53731">
        <ele>581</ele>
        <time>2022-05-27T13:45:17Z</time>
      </trkpt>
      <trkpt lat="44.3701" lon="3.53729">
        <ele>581</ele>
        <time>2022-05-27T13:45:18Z</time>
      </trkpt>
      <trkpt lat="44.37009" lon="3.53728">
        <ele>581</ele>
        <time>2022-05-27T13:45:19Z</time>
      </trkpt>
      <trkpt lat="44.37009" lon="3.53726">
        <ele>581</ele>
        <time>2022-05-27T13:45:20Z</time>
      </trkpt>
      <trkpt lat="44.37008" lon="3.53725">
        <ele>582</ele>
        <time>2022-05-27T13:45:21Z</time>
      </trkpt>
      <trkpt lat="44.37007" lon="3.53723">
        <ele>582</ele>
        <time>2022-05-27T13:45:22Z</time>
      </trkpt>
      <trkpt lat="44.37007" lon="3.53722">
        <ele>582</ele>
        <time>2022-05-27T13:45:23Z</time>
      </trkpt>
      <trkpt lat="44.37007" lon="3.53721">
        <ele>582</ele>
        <time>2022-05-27T13:45:24Z</time>
      </trkpt>
      <trkpt lat="44.37006" lon="3.53719">
        <ele>582</ele>
        <time>2022-05-27T13:45:25Z</time>
      </trkpt>
      <trkpt lat="44.37006" lon="3.53718">
        <ele>582</ele>
        <time>2022-05-27T13:45:26Z</time>
      </trkpt>
      <trkpt lat="44.37005" lon="3.53718">
        <ele>582</ele>
        <time>2022-05-27T13:45:27Z</time>
      </trkpt>
      <trkpt lat="44.37005" lon="3.53716">
        <ele>582</ele>
        <time>2022-05-27T13:45:28Z</time>
      </trkpt>
      <trkpt lat="44.37004" lon="3.53715">
        <ele>582</ele>
        <time>2022-05-27T13:45:29Z</time>
      </trkpt>
      <trkpt lat="44.37001" lon="3.53713">
        <ele>581</ele>
        <time>2022-05-27T13:45:30Z</time>
      </trkpt>
      <trkpt lat="44.37" lon="3.53713">
        <ele>582</ele>
        <time>2022-05-27T13:45:31Z</time>
      </trkpt>
      <trkpt lat="44.37" lon="3.53713">
        <ele>582</ele>
        <time>2022-05-27T13:45:32Z</time>
      </trkpt>
      <trkpt lat="44.36999" lon="3.53713">
        <ele>582</ele>
        <time>2022-05-27T13:45:33Z</time>
      </trkpt>
      <trkpt lat="44.36998" lon="3.53713">
        <ele>583</ele>
        <time>2022-05-27T13:45:34Z</time>
      </trkpt>
      <trkpt lat="44.36998" lon="3.53712">
        <ele>583</ele>
        <time>2022-05-27T13:45:35Z</time>
      </trkpt>
      <trkpt lat="44.36998" lon="3.53711">
        <ele>584</ele>
        <time>2022-05-27T13:45:36Z</time>
      </trkpt>
      <trkpt lat="44.36999" lon="3.53709">
        <ele>583</ele>
        <time>2022-05-27T13:45:37Z</time>
      </trkpt>
      <trkpt lat="44.36999" lon="3.53708">
        <ele>584</ele>
        <time>2022-05-27T13:45:38Z</time>
      </trkpt>
      <trkpt lat="44.36999" lon="3.53706">
        <ele>584</ele>
        <time>2022-05-27T13:45:39Z</time>
      </trkpt>
      <trkpt lat="44.37" lon="3.53705">
        <ele>585</ele>
        <time>2022-05-27T13:45:40Z</time>
      </trkpt>
      <trkpt lat="44.37" lon="3.53703">
        <ele>585</ele>
        <time>2022-05-27T13:45:41Z</time>
      </trkpt>
      <trkpt lat="44.37" lon="3.53702">
        <ele>586</ele>
        <time>2022-05-27T13:45:42Z</time>
      </trkpt>
      <trkpt lat="44.37001" lon="3.53701">
        <ele>586</ele>
        <time>2022-05-27T13:45:43Z</time>
      </trkpt>
      <trkpt lat="44.37001" lon="3.537">
        <ele>587</ele>
        <time>2022-05-27T13:45:44Z</time>
      </trkpt>
      <trkpt lat="44.37001" lon="3.53699">
        <ele>587</ele>
        <time>2022-05-27T13:45:45Z</time>
      </trkpt>
      <trkpt lat="44.37002" lon="3.53699">
        <ele>587</ele>
        <time>2022-05-27T13:45:46Z</time>
      </trkpt>
      <trkpt lat="44.37002" lon="3.53698">
        <ele>587</ele>
        <time>2022-05-27T13:45:47Z</time>
      </trkpt>
      <trkpt lat="44.37002" lon="3.53698">
        <ele>587</ele>
        <time>2022-05-27T13:45:48Z</time>
      </trkpt>
      <trkpt lat="44.37003" lon="3.53697">
        <ele>587</ele>
        <time>2022-05-27T13:45:49Z</time>
      </trkpt>
      <trkpt lat="44.37004" lon="3.53696">
        <ele>587</ele>
        <time>2022-05-27T13:45:50Z</time>
      </trkpt>
      <trkpt lat="44.37002" lon="3.53695">
        <ele>587</ele>
        <time>2022-05-27T13:45:51Z</time>
      </trkpt>
      <trkpt lat="44.37001" lon="3.53693">
        <ele>586</ele>
        <time>2022-05-27T13:45:52Z</time>
      </trkpt>
      <trkpt lat="44.37001" lon="3.53692">
        <ele>586</ele>
        <time>2022-05-27T13:45:53Z</time>
      </trkpt>
      <trkpt lat="44.37001" lon="3.53689">
        <ele>585</ele>
        <time>2022-05-27T13:45:54Z</time>
      </trkpt>
      <trkpt lat="44.37001" lon="3.53687">
        <ele>585</ele>
        <time>2022-05-27T13:45:55Z</time>
      </trkpt>
      <trkpt lat="44.37002" lon="3.53685">
        <ele>584</ele>
        <time>2022-05-27T13:45:56Z</time>
      </trkpt>
      <trkpt lat="44.37003" lon="3.53683">
        <ele>585</ele>
        <time>2022-05-27T13:45:57Z</time>
      </trkpt>
      <trkpt lat="44.37003" lon="3.53682">
        <ele>585</ele>
        <time>2022-05-27T13:45:58Z</time>
      </trkpt>
      <trkpt lat="44.37002" lon="3.53679">
        <ele>586</ele>
        <time>2022-05-27T13:45:59Z</time>
      </trkpt>
      <trkpt lat="44.37002" lon="3.53677">
        <ele>587</ele>
        <time>2022-05-27T13:46:00Z</time>
      </trkpt>
      <trkpt lat="44.37002" lon="3.53674">
        <ele>587</ele>
        <time>2022-05-27T13:46:01Z</time>
      </trkpt>
      <trkpt lat="44.37003" lon="3.53672">
        <ele>588</ele>
        <time>2022-05-27T13:46:02Z</time>
      </trkpt>
      <trkpt lat="44.37003" lon="3.5367">
        <ele>588</ele>
        <time>2022-05-27T13:46:03Z</time>
      </trkpt>
      <trkpt lat="44.37002" lon="3.53669">
        <ele>588</ele>
        <time>2022-05-27T13:46:04Z</time>
      </trkpt>
      <trkpt lat="44.37002" lon="3.53667">
        <ele>588</ele>
        <time>2022-05-27T13:46:05Z</time>
      </trkpt>
      <trkpt lat="44.37003" lon="3.53666">
        <ele>588</ele>
        <time>2022-05-27T13:46:06Z</time>
      </trkpt>
      <trkpt lat="44.37003" lon="3.53665">
        <ele>588</ele>
        <time>2022-05-27T13:46:07Z</time>
      </trkpt>
      <trkpt lat="44.37003" lon="3.53663">
        <ele>589</ele>
        <time>2022-05-27T13:46:08Z</time>
      </trkpt>
      <trkpt lat="44.37001" lon="3.53662">
        <ele>589</ele>
        <time>2022-05-27T13:46:09Z</time>
      </trkpt>
      <trkpt lat="44.37001" lon="3.53661">
        <ele>589</ele>
        <time>2022-05-27T13:46:10Z</time>
      </trkpt>
      <trkpt lat="44.37" lon="3.53661">
        <ele>589</ele>
        <time>2022-05-27T13:46:11Z</time>
      </trkpt>
      <trkpt lat="44.37" lon="3.53659">
        <ele>588</ele>
        <time>2022-05-27T13:46:12Z</time>
      </trkpt>
      <trkpt lat="44.37" lon="3.53657">
        <ele>588</ele>
        <time>2022-05-27T13:46:13Z</time>
      </trkpt>
      <trkpt lat="44.37" lon="3.53654">
        <ele>588</ele>
        <time>2022-05-27T13:46:14Z</time>
      </trkpt>
      <trkpt lat="44.37001" lon="3.53652">
        <ele>589</ele>
        <time>2022-05-27T13:46:15Z</time>
      </trkpt>
      <trkpt lat="44.37001" lon="3.53649">
        <ele>589</ele>
        <time>2022-05-27T13:46:16Z</time>
      </trkpt>
      <trkpt lat="44.37003" lon="3.53646">
        <ele>589</ele>
        <time>2022-05-27T13:46:17Z</time>
      </trkpt>
      <trkpt lat="44.37003" lon="3.53644">
        <ele>589</ele>
        <time>2022-05-27T13:46:18Z</time>
      </trkpt>
      <trkpt lat="44.37003" lon="3.53641">
        <ele>590</ele>
        <time>2022-05-27T13:46:19Z</time>
      </trkpt>
      <trkpt lat="44.37003" lon="3.53639">
        <ele>591</ele>
        <time>2022-05-27T13:46:20Z</time>
      </trkpt>
      <trkpt lat="44.37002" lon="3.53638">
        <ele>591</ele>
        <time>2022-05-27T13:46:21Z</time>
      </trkpt>
      <trkpt lat="44.37001" lon="3.53636">
        <ele>591</ele>
        <time>2022-05-27T13:46:22Z</time>
      </trkpt>
      <trkpt lat="44.37001" lon="3.53636">
        <ele>591</ele>
        <time>2022-05-27T13:46:23Z</time>
      </trkpt>
      <trkpt lat="44.37001" lon="3.53636">
        <ele>591</ele>
        <time>2022-05-27T13:46:24Z</time>
      </trkpt>
      <trkpt lat="44.37001" lon="3.53636">
        <ele>591</ele>
        <time>2022-05-27T13:46:24Z</time>
      </trkpt>
      <trkpt lat="44.37001" lon="3.53636">
        <ele>591</ele>
        <time>2022-05-27T13:46:24Z</time>
      </trkpt>
      <trkpt lat="44.37003" lon="3.53619">
        <ele>586</ele>
        <time>2022-05-27T13:47:03Z</time>
      </trkpt>
      <trkpt lat="44.37004" lon="3.53617">
        <ele>587</ele>
        <time>2022-05-27T13:47:04Z</time>
      </trkpt>
      <trkpt lat="44.37004" lon="3.53615">
        <ele>587</ele>
        <time>2022-05-27T13:47:05Z</time>
      </trkpt>
      <trkpt lat="44.37004" lon="3.53613">
        <ele>586</ele>
        <time>2022-05-27T13:47:06Z</time>
      </trkpt>
      <trkpt lat="44.37005" lon="3.53612">
        <ele>586</ele>
        <time>2022-05-27T13:47:07Z</time>
      </trkpt>
      <trkpt lat="44.37005" lon="3.5361">
        <ele>585</ele>
        <time>2022-05-27T13:47:08Z</time>
      </trkpt>
      <trkpt lat="44.37005" lon="3.53607">
        <ele>585</ele>
        <time>2022-05-27T13:47:09Z</time>
      </trkpt>
      <trkpt lat="44.37006" lon="3.53606">
        <ele>584</ele>
        <time>2022-05-27T13:47:10Z</time>
      </trkpt>
      <trkpt lat="44.37006" lon="3.53604">
        <ele>584</ele>
        <time>2022-05-27T13:47:11Z</time>
      </trkpt>
      <trkpt lat="44.37006" lon="3.53602">
        <ele>584</ele>
        <time>2022-05-27T13:47:12Z</time>
      </trkpt>
      <trkpt lat="44.37006" lon="3.536">
        <ele>584</ele>
        <time>2022-05-27T13:47:13Z</time>
      </trkpt>
      <trkpt lat="44.37006" lon="3.53598">
        <ele>584</ele>
        <time>2022-05-27T13:47:14Z</time>
      </trkpt>
      <trkpt lat="44.37006" lon="3.53597">
        <ele>584</ele>
        <time>2022-05-27T13:47:15Z</time>
      </trkpt>
      <trkpt lat="44.37006" lon="3.53595">
        <ele>584</ele>
        <time>2022-05-27T13:47:16Z</time>
      </trkpt>
      <trkpt lat="44.37006" lon="3.53593">
        <ele>585</ele>
        <time>2022-05-27T13:47:17Z</time>
      </trkpt>
      <trkpt lat="44.37007" lon="3.53592">
        <ele>584</ele>
        <time>2022-05-27T13:47:18Z</time>
      </trkpt>
      <trkpt lat="44.37008" lon="3.5359">
        <ele>584</ele>
        <time>2022-05-27T13:47:19Z</time>
      </trkpt>
      <trkpt lat="44.37008" lon="3.53588">
        <ele>584</ele>
        <time>2022-05-27T13:47:20Z</time>
      </trkpt>
      <trkpt lat="44.37008" lon="3.53587">
        <ele>583</ele>
        <time>2022-05-27T13:47:21Z</time>
      </trkpt>
      <trkpt lat="44.37009" lon="3.53585">
        <ele>584</ele>
        <time>2022-05-27T13:47:22Z</time>
      </trkpt>
      <trkpt lat="44.37009" lon="3.53583">
        <ele>584</ele>
        <time>2022-05-27T13:47:23Z</time>
      </trkpt>
      <trkpt lat="44.37009" lon="3.53582">
        <ele>585</ele>
        <time>2022-05-27T13:47:24Z</time>
      </trkpt>
      <trkpt lat="44.37009" lon="3.5358">
        <ele>585</ele>
        <time>2022-05-27T13:47:25Z</time>
      </trkpt>
      <trkpt lat="44.37009" lon="3.53579">
        <ele>585</ele>
        <time>2022-05-27T13:47:26Z</time>
      </trkpt>
      <trkpt lat="44.37009" lon="3.53577">
        <ele>584</ele>
        <time>2022-05-27T13:47:27Z</time>
      </trkpt>
      <trkpt lat="44.3701" lon="3.53576">
        <ele>584</ele>
        <time>2022-05-27T13:47:28Z</time>
      </trkpt>
      <trkpt lat="44.37011" lon="3.53574">
        <ele>585</ele>
        <time>2022-05-27T13:47:29Z</time>
      </trkpt>
      <trkpt lat="44.37013" lon="3.53572">
        <ele>585</ele>
        <time>2022-05-27T13:47:30Z</time>
      </trkpt>
      <trkpt lat="44.37014" lon="3.5357">
        <ele>585</ele>
        <time>2022-05-27T13:47:31Z</time>
      </trkpt>
      <trkpt lat="44.37015" lon="3.53568">
        <ele>585</ele>
        <time>2022-05-27T13:47:32Z</time>
      </trkpt>
      <trkpt lat="44.37015" lon="3.53567">
        <ele>584</ele>
        <time>2022-05-27T13:47:33Z</time>
      </trkpt>
      <trkpt lat="44.37016" lon="3.53565">
        <ele>584</ele>
        <time>2022-05-27T13:47:34Z</time>
      </trkpt>
      <trkpt lat="44.37016" lon="3.53564">
        <ele>583</ele>
        <time>2022-05-27T13:47:35Z</time>
      </trkpt>
      <trkpt lat="44.37016" lon="3.53562">
        <ele>583</ele>
        <time>2022-05-27T13:47:36Z</time>
      </trkpt>
      <trkpt lat="44.37017" lon="3.5356">
        <ele>583</ele>
        <time>2022-05-27T13:47:37Z</time>
      </trkpt>
      <trkpt lat="44.37018" lon="3.53559">
        <ele>582</ele>
        <time>2022-05-27T13:47:38Z</time>
      </trkpt>
      <trkpt lat="44.3702" lon="3.53558">
        <ele>582</ele>
        <time>2022-05-27T13:47:39Z</time>
      </trkpt>
      <trkpt lat="44.37021" lon="3.53557">
        <ele>582</ele>
        <time>2022-05-27T13:47:40Z</time>
      </trkpt>
      <trkpt lat="44.37022" lon="3.53555">
        <ele>583</ele>
        <time>2022-05-27T13:47:41Z</time>
      </trkpt>
      <trkpt lat="44.37022" lon="3.53554">
        <ele>583</ele>
        <time>2022-05-27T13:47:42Z</time>
      </trkpt>
      <trkpt lat="44.37022" lon="3.53551">
        <ele>583</ele>
        <time>2022-05-27T13:47:43Z</time>
      </trkpt>
      <trkpt lat="44.37022" lon="3.5355">
        <ele>583</ele>
        <time>2022-05-27T13:47:44Z</time>
      </trkpt>
      <trkpt lat="44.37023" lon="3.53548">
        <ele>584</ele>
        <time>2022-05-27T13:47:45Z</time>
      </trkpt>
      <trkpt lat="44.37023" lon="3.53546">
        <ele>584</ele>
        <time>2022-05-27T13:47:46Z</time>
      </trkpt>
      <trkpt lat="44.37024" lon="3.53544">
        <ele>585</ele>
        <time>2022-05-27T13:47:47Z</time>
      </trkpt>
      <trkpt lat="44.37024" lon="3.53542">
        <ele>585</ele>
        <time>2022-05-27T13:47:48Z</time>
      </trkpt>
      <trkpt lat="44.37024" lon="3.53541">
        <ele>585</ele>
        <time>2022-05-27T13:47:49Z</time>
      </trkpt>
      <trkpt lat="44.37025" lon="3.53539">
        <ele>586</ele>
        <time>2022-05-27T13:47:50Z</time>
      </trkpt>
      <trkpt lat="44.37026" lon="3.53537">
        <ele>586</ele>
        <time>2022-05-27T13:47:51Z</time>
      </trkpt>
      <trkpt lat="44.37026" lon="3.53535">
        <ele>585</ele>
        <time>2022-05-27T13:47:52Z</time>
      </trkpt>
      <trkpt lat="44.37026" lon="3.53533">
        <ele>586</ele>
        <time>2022-05-27T13:47:53Z</time>
      </trkpt>
      <trkpt lat="44.37027" lon="3.5353">
        <ele>586</ele>
        <time>2022-05-27T13:47:54Z</time>
      </trkpt>
      <trkpt lat="44.37027" lon="3.53528">
        <ele>586</ele>
        <time>2022-05-27T13:47:55Z</time>
      </trkpt>
      <trkpt lat="44.37027" lon="3.53526">
        <ele>587</ele>
        <time>2022-05-27T13:47:56Z</time>
      </trkpt>
      <trkpt lat="44.37027" lon="3.53524">
        <ele>586</ele>
        <time>2022-05-27T13:47:57Z</time>
      </trkpt>
      <trkpt lat="44.37027" lon="3.53521">
        <ele>587</ele>
        <time>2022-05-27T13:47:58Z</time>
      </trkpt>
      <trkpt lat="44.37028" lon="3.53519">
        <ele>586</ele>
        <time>2022-05-27T13:47:59Z</time>
      </trkpt>
      <trkpt lat="44.37028" lon="3.53517">
        <ele>586</ele>
        <time>2022-05-27T13:48:00Z</time>
      </trkpt>
      <trkpt lat="44.37028" lon="3.53516">
        <ele>587</ele>
        <time>2022-05-27T13:48:01Z</time>
      </trkpt>
      <trkpt lat="44.37028" lon="3.53514">
        <ele>587</ele>
        <time>2022-05-27T13:48:02Z</time>
      </trkpt>
      <trkpt lat="44.37029" lon="3.53512">
        <ele>587</ele>
        <time>2022-05-27T13:48:03Z</time>
      </trkpt>
      <trkpt lat="44.37029" lon="3.5351">
        <ele>587</ele>
        <time>2022-05-27T13:48:04Z</time>
      </trkpt>
      <trkpt lat="44.37028" lon="3.53508">
        <ele>587</ele>
        <time>2022-05-27T13:48:05Z</time>
      </trkpt>
      <trkpt lat="44.37028" lon="3.53506">
        <ele>587</ele>
        <time>2022-05-27T13:48:06Z</time>
      </trkpt>
      <trkpt lat="44.37029" lon="3.53504">
        <ele>587</ele>
        <time>2022-05-27T13:48:07Z</time>
      </trkpt>
      <trkpt lat="44.37029" lon="3.53503">
        <ele>588</ele>
        <time>2022-05-27T13:48:08Z</time>
      </trkpt>
      <trkpt lat="44.3703" lon="3.53503">
        <ele>587</ele>
        <time>2022-05-27T13:48:09Z</time>
      </trkpt>
      <trkpt lat="44.37029" lon="3.53502">
        <ele>587</ele>
        <time>2022-05-27T13:48:10Z</time>
      </trkpt>
      <trkpt lat="44.37029" lon="3.53502">
        <ele>587</ele>
        <time>2022-05-27T13:48:11Z</time>
      </trkpt>
      <trkpt lat="44.3703" lon="3.53502">
        <ele>587</ele>
        <time>2022-05-27T13:48:12Z</time>
      </trkpt>
      <trkpt lat="44.37032" lon="3.53503">
        <ele>586</ele>
        <time>2022-05-27T13:48:13Z</time>
      </trkpt>
      <trkpt lat="44.37032" lon="3.53503">
        <ele>586</ele>
        <time>2022-05-27T13:48:14Z</time>
      </trkpt>
      <trkpt lat="44.37033" lon="3.53503">
        <ele>586</ele>
        <time>2022-05-27T13:48:15Z</time>
      </trkpt>
      <trkpt lat="44.37034" lon="3.53503">
        <ele>586</ele>
        <time>2022-05-27T13:48:16Z</time>
      </trkpt>
      <trkpt lat="44.37034" lon="3.53503">
        <ele>585</ele>
        <time>2022-05-27T13:48:17Z</time>
      </trkpt>
      <trkpt lat="44.37035" lon="3.53503">
        <ele>586</ele>
        <time>2022-05-27T13:48:18Z</time>
      </trkpt>
      <trkpt lat="44.37037" lon="3.53502">
        <ele>586</ele>
        <time>2022-05-27T13:48:19Z</time>
      </trkpt>
      <trkpt lat="44.37038" lon="3.53502">
        <ele>587</ele>
        <time>2022-05-27T13:48:20Z</time>
      </trkpt>
      <trkpt lat="44.37038" lon="3.53503">
        <ele>587</ele>
        <time>2022-05-27T13:48:21Z</time>
      </trkpt>
      <trkpt lat="44.3704" lon="3.53503">
        <ele>587</ele>
        <time>2022-05-27T13:48:22Z</time>
      </trkpt>
      <trkpt lat="44.37041" lon="3.53504">
        <ele>587</ele>
        <time>2022-05-27T13:48:23Z</time>
      </trkpt>
      <trkpt lat="44.37042" lon="3.53504">
        <ele>587</ele>
        <time>2022-05-27T13:48:24Z</time>
      </trkpt>
      <trkpt lat="44.37043" lon="3.53504">
        <ele>588</ele>
        <time>2022-05-27T13:48:25Z</time>
      </trkpt>
      <trkpt lat="44.37044" lon="3.53504">
        <ele>588</ele>
        <time>2022-05-27T13:48:26Z</time>
      </trkpt>
      <trkpt lat="44.37045" lon="3.53505">
        <ele>588</ele>
        <time>2022-05-27T13:48:27Z</time>
      </trkpt>
      <trkpt lat="44.37046" lon="3.53505">
        <ele>589</ele>
        <time>2022-05-27T13:48:28Z</time>
      </trkpt>
      <trkpt lat="44.37048" lon="3.53506">
        <ele>589</ele>
        <time>2022-05-27T13:48:29Z</time>
      </trkpt>
      <trkpt lat="44.37049" lon="3.53506">
        <ele>590</ele>
        <time>2022-05-27T13:48:30Z</time>
      </trkpt>
      <trkpt lat="44.3705" lon="3.53506">
        <ele>590</ele>
        <time>2022-05-27T13:48:31Z</time>
      </trkpt>
      <trkpt lat="44.37051" lon="3.53507">
        <ele>590</ele>
        <time>2022-05-27T13:48:32Z</time>
      </trkpt>
      <trkpt lat="44.37052" lon="3.53508">
        <ele>590</ele>
        <time>2022-05-27T13:48:33Z</time>
      </trkpt>
      <trkpt lat="44.37053" lon="3.53508">
        <ele>590</ele>
        <time>2022-05-27T13:48:34Z</time>
      </trkpt>
      <trkpt lat="44.37055" lon="3.53509">
        <ele>590</ele>
        <time>2022-05-27T13:48:35Z</time>
      </trkpt>
      <trkpt lat="44.37056" lon="3.53509">
        <ele>590</ele>
        <time>2022-05-27T13:48:36Z</time>
      </trkpt>
      <trkpt lat="44.37058" lon="3.5351">
        <ele>590</ele>
        <time>2022-05-27T13:48:37Z</time>
      </trkpt>
      <trkpt lat="44.37059" lon="3.53511">
        <ele>589</ele>
        <time>2022-05-27T13:48:38Z</time>
      </trkpt>
      <trkpt lat="44.3706" lon="3.53511">
        <ele>590</ele>
        <time>2022-05-27T13:48:39Z</time>
      </trkpt>
      <trkpt lat="44.37061" lon="3.53512">
        <ele>590</ele>
        <time>2022-05-27T13:48:40Z</time>
      </trkpt>
      <trkpt lat="44.37062" lon="3.53513">
        <ele>590</ele>
        <time>2022-05-27T13:48:41Z</time>
      </trkpt>
      <trkpt lat="44.37063" lon="3.53514">
        <ele>590</ele>
        <time>2022-05-27T13:48:42Z</time>
      </trkpt>
      <trkpt lat="44.37063" lon="3.53514">
        <ele>590</ele>
        <time>2022-05-27T13:48:43Z</time>
      </trkpt>
      <trkpt lat="44.37064" lon="3.53515">
        <ele>590</ele>
        <time>2022-05-27T13:48:44Z</time>
      </trkpt>
      <trkpt lat="44.37065" lon="3.53516">
        <ele>590</ele>
        <time>2022-05-27T13:48:45Z</time>
      </trkpt>
      <trkpt lat="44.37066" lon="3.53516">
        <ele>589</ele>
        <time>2022-05-27T13:48:46Z</time>
      </trkpt>
      <trkpt lat="44.37066" lon="3.53517">
        <ele>588</ele>
        <time>2022-05-27T13:48:47Z</time>
      </trkpt>
      <trkpt lat="44.37067" lon="3.53517">
        <ele>588</ele>
        <time>2022-05-27T13:48:48Z</time>
      </trkpt>
      <trkpt lat="44.37068" lon="3.53516">
        <ele>587</ele>
        <time>2022-05-27T13:48:49Z</time>
      </trkpt>
      <trkpt lat="44.37068" lon="3.53516">
        <ele>587</ele>
        <time>2022-05-27T13:48:50Z</time>
      </trkpt>
      <trkpt lat="44.37068" lon="3.53516">
        <ele>587</ele>
        <time>2022-05-27T13:48:51Z</time>
      </trkpt>
      <trkpt lat="44.37068" lon="3.53516">
        <ele>587</ele>
        <time>2022-05-27T13:48:51Z</time>
      </trkpt>
      <trkpt lat="44.37068" lon="3.53516">
        <ele>587</ele>
        <time>2022-05-27T13:48:51Z</time>
      </trkpt>
      <trkpt lat="44.37072" lon="3.53517">
        <ele>587</ele>
        <time>2022-05-27T13:49:02Z</time>
      </trkpt>
      <trkpt lat="44.37071" lon="3.53517">
        <ele>587</ele>
        <time>2022-05-27T13:49:03Z</time>
      </trkpt>
      <trkpt lat="44.37071" lon="3.53517">
        <ele>587</ele>
        <time>2022-05-27T13:49:04Z</time>
      </trkpt>
      <trkpt lat="44.37071" lon="3.53518">
        <ele>587</ele>
        <time>2022-05-27T13:49:05Z</time>
      </trkpt>
      <trkpt lat="44.37071" lon="3.53518">
        <ele>587</ele>
        <time>2022-05-27T13:49:06Z</time>
      </trkpt>
      <trkpt lat="44.37071" lon="3.53518">
        <ele>587</ele>
        <time>2022-05-27T13:49:07Z</time>
      </trkpt>
      <trkpt lat="44.37071" lon="3.53518">
        <ele>587</ele>
        <time>2022-05-27T13:49:08Z</time>
      </trkpt>
      <trkpt lat="44.37071" lon="3.53516">
        <ele>586</ele>
        <time>2022-05-27T13:49:09Z</time>
      </trkpt>
      <trkpt lat="44.37071" lon="3.53516">
        <ele>586</ele>
        <time>2022-05-27T13:49:10Z</time>
      </trkpt>
      <trkpt lat="44.37072" lon="3.53517">
        <ele>585</ele>
        <time>2022-05-27T13:49:11Z</time>
      </trkpt>
      <trkpt lat="44.37072" lon="3.53517">
        <ele>585</ele>
        <time>2022-05-27T13:49:11Z</time>
      </trkpt>
      <trkpt lat="44.37072" lon="3.53517">
        <ele>585</ele>
        <time>2022-05-27T13:49:11Z</time>
      </trkpt>
      <trkpt lat="44.37069" lon="3.53518">
        <ele>590</ele>
        <time>2022-05-27T14:08:30Z</time>
      </trkpt>
      <trkpt lat="44.3707" lon="3.53518">
        <ele>590</ele>
        <time>2022-05-27T14:08:31Z</time>
      </trkpt>
      <trkpt lat="44.37071" lon="3.53517">
        <ele>590</ele>
        <time>2022-05-27T14:08:32Z</time>
      </trkpt>
      <trkpt lat="44.37071" lon="3.53515">
        <ele>589</ele>
        <time>2022-05-27T14:08:33Z</time>
      </trkpt>
      <trkpt lat="44.37071" lon="3.53513">
        <ele>589</ele>
        <time>2022-05-27T14:08:34Z</time>
      </trkpt>
      <trkpt lat="44.37071" lon="3.53512">
        <ele>588</ele>
        <time>2022-05-27T14:08:35Z</time>
      </trkpt>
      <trkpt lat="44.37071" lon="3.53511">
        <ele>589</ele>
        <time>2022-05-27T14:08:36Z</time>
      </trkpt>
      <trkpt lat="44.3707" lon="3.5351">
        <ele>588</ele>
        <time>2022-05-27T14:08:37Z</time>
      </trkpt>
      <trkpt lat="44.37069" lon="3.53509">
        <ele>588</ele>
        <time>2022-05-27T14:08:38Z</time>
      </trkpt>
      <trkpt lat="44.37069" lon="3.53508">
        <ele>588</ele>
        <time>2022-05-27T14:08:39Z</time>
      </trkpt>
      <trkpt lat="44.37068" lon="3.53508">
        <ele>589</ele>
        <time>2022-05-27T14:08:40Z</time>
      </trkpt>
      <trkpt lat="44.37067" lon="3.53507">
        <ele>588</ele>
        <time>2022-05-27T14:08:41Z</time>
      </trkpt>
      <trkpt lat="44.37066" lon="3.53507">
        <ele>588</ele>
        <time>2022-05-27T14:08:42Z</time>
      </trkpt>
      <trkpt lat="44.37066" lon="3.53507">
        <ele>588</ele>
        <time>2022-05-27T14:08:43Z</time>
      </trkpt>
      <trkpt lat="44.37065" lon="3.53507">
        <ele>588</ele>
        <time>2022-05-27T14:08:44Z</time>
      </trkpt>
      <trkpt lat="44.37065" lon="3.53506">
        <ele>588</ele>
        <time>2022-05-27T14:08:45Z</time>
      </trkpt>
      <trkpt lat="44.37065" lon="3.53506">
        <ele>588</ele>
        <time>2022-05-27T14:08:46Z</time>
      </trkpt>
      <trkpt lat="44.37065" lon="3.53506">
        <ele>588</ele>
        <time>2022-05-27T14:08:47Z</time>
      </trkpt>
      <trkpt lat="44.37065" lon="3.53506">
        <ele>588</ele>
        <time>2022-05-27T14:08:48Z</time>
      </trkpt>
      <trkpt lat="44.37066" lon="3.53504">
        <ele>590</ele>
        <time>2022-05-27T14:08:49Z</time>
      </trkpt>
      <trkpt lat="44.37065" lon="3.53504">
        <ele>590</ele>
        <time>2022-05-27T14:08:50Z</time>
      </trkpt>
      <trkpt lat="44.37065" lon="3.53504">
        <ele>589</ele>
        <time>2022-05-27T14:08:51Z</time>
      </trkpt>
      <trkpt lat="44.37066" lon="3.53504">
        <ele>589</ele>
        <time>2022-05-27T14:08:52Z</time>
      </trkpt>
      <trkpt lat="44.37066" lon="3.53504">
        <ele>589</ele>
        <time>2022-05-27T14:08:53Z</time>
      </trkpt>
      <trkpt lat="44.37066" lon="3.53504">
        <ele>588</ele>
        <time>2022-05-27T14:08:54Z</time>
      </trkpt>
      <trkpt lat="44.37065" lon="3.53504">
        <ele>588</ele>
        <time>2022-05-27T14:08:55Z</time>
      </trkpt>
      <trkpt lat="44.37065" lon="3.53503">
        <ele>588</ele>
        <time>2022-05-27T14:08:56Z</time>
      </trkpt>
      <trkpt lat="44.37064" lon="3.53503">
        <ele>587</ele>
        <time>2022-05-27T14:08:57Z</time>
      </trkpt>
      <trkpt lat="44.37064" lon="3.53502">
        <ele>587</ele>
        <time>2022-05-27T14:08:58Z</time>
      </trkpt>
      <trkpt lat="44.37063" lon="3.53502">
        <ele>587</ele>
        <time>2022-05-27T14:08:59Z</time>
      </trkpt>
      <trkpt lat="44.37062" lon="3.53502">
        <ele>587</ele>
        <time>2022-05-27T14:09:00Z</time>
      </trkpt>
      <trkpt lat="44.37061" lon="3.53501">
        <ele>587</ele>
        <time>2022-05-27T14:09:01Z</time>
      </trkpt>
      <trkpt lat="44.37061" lon="3.535">
        <ele>587</ele>
        <time>2022-05-27T14:09:02Z</time>
      </trkpt>
      <trkpt lat="44.37059" lon="3.535">
        <ele>587</ele>
        <time>2022-05-27T14:09:03Z</time>
      </trkpt>
      <trkpt lat="44.37058" lon="3.53499">
        <ele>587</ele>
        <time>2022-05-27T14:09:04Z</time>
      </trkpt>
      <trkpt lat="44.37057" lon="3.53498">
        <ele>587</ele>
        <time>2022-05-27T14:09:05Z</time>
      </trkpt>
      <trkpt lat="44.37056" lon="3.53497">
        <ele>588</ele>
        <time>2022-05-27T14:09:06Z</time>
      </trkpt>
      <trkpt lat="44.37056" lon="3.53496">
        <ele>587</ele>
        <time>2022-05-27T14:09:07Z</time>
      </trkpt>
      <trkpt lat="44.37056" lon="3.53495">
        <ele>587</ele>
        <time>2022-05-27T14:09:08Z</time>
      </trkpt>
      <trkpt lat="44.37055" lon="3.53495">
        <ele>587</ele>
        <time>2022-05-27T14:09:09Z</time>
      </trkpt>
      <trkpt lat="44.37054" lon="3.53494">
        <ele>587</ele>
        <time>2022-05-27T14:09:10Z</time>
      </trkpt>
      <trkpt lat="44.37054" lon="3.53493">
        <ele>587</ele>
        <time>2022-05-27T14:09:11Z</time>
      </trkpt>
      <trkpt lat="44.37054" lon="3.53492">
        <ele>587</ele>
        <time>2022-05-27T14:09:12Z</time>
      </trkpt>
      <trkpt lat="44.37053" lon="3.53492">
        <ele>588</ele>
        <time>2022-05-27T14:09:13Z</time>
      </trkpt>
      <trkpt lat="44.37053" lon="3.53491">
        <ele>588</ele>
        <time>2022-05-27T14:09:14Z</time>
      </trkpt>
      <trkpt lat="44.37052" lon="3.53491">
        <ele>588</ele>
        <time>2022-05-27T14:09:15Z</time>
      </trkpt>
      <trkpt lat="44.37051" lon="3.5349">
        <ele>588</ele>
        <time>2022-05-27T14:09:16Z</time>
      </trkpt>
      <trkpt lat="44.37051" lon="3.53489">
        <ele>588</ele>
        <time>2022-05-27T14:09:17Z</time>
      </trkpt>
      <trkpt lat="44.3705" lon="3.53489">
        <ele>587</ele>
        <time>2022-05-27T14:09:18Z</time>
      </trkpt>
      <trkpt lat="44.3705" lon="3.53489">
        <ele>586</ele>
        <time>2022-05-27T14:09:19Z</time>
      </trkpt>
      <trkpt lat="44.37049" lon="3.53488">
        <ele>586</ele>
        <time>2022-05-27T14:09:20Z</time>
      </trkpt>
      <trkpt lat="44.37049" lon="3.53487">
        <ele>586</ele>
        <time>2022-05-27T14:09:21Z</time>
      </trkpt>
      <trkpt lat="44.37048" lon="3.53487">
        <ele>585</ele>
        <time>2022-05-27T14:09:22Z</time>
      </trkpt>
      <trkpt lat="44.37048" lon="3.53487">
        <ele>585</ele>
        <time>2022-05-27T14:09:23Z</time>
      </trkpt>
      <trkpt lat="44.37048" lon="3.53487">
        <ele>585</ele>
        <time>2022-05-27T14:09:24Z</time>
      </trkpt>
      <trkpt lat="44.37048" lon="3.53487">
        <ele>585</ele>
        <time>2022-05-27T14:09:25Z</time>
      </trkpt>
      <trkpt lat="44.37048" lon="3.53487">
        <ele>585</ele>
        <time>2022-05-27T14:09:26Z</time>
      </trkpt>
      <trkpt lat="44.37048" lon="3.53486">
        <ele>586</ele>
        <time>2022-05-27T14:09:27Z</time>
      </trkpt>
      <trkpt lat="44.37049" lon="3.53485">
        <ele>586</ele>
        <time>2022-05-27T14:09:28Z</time>
      </trkpt>
      <trkpt lat="44.37049" lon="3.53485">
        <ele>585</ele>
        <time>2022-05-27T14:09:29Z</time>
      </trkpt>
      <trkpt lat="44.37049" lon="3.53485">
        <ele>584</ele>
        <time>2022-05-27T14:09:30Z</time>
      </trkpt>
      <trkpt lat="44.37049" lon="3.53486">
        <ele>583</ele>
        <time>2022-05-27T14:09:31Z</time>
      </trkpt>
      <trkpt lat="44.37049" lon="3.53486">
        <ele>583</ele>
        <time>2022-05-27T14:09:31Z</time>
      </trkpt>
      <trkpt lat="44.37049" lon="3.53486">
        <ele>583</ele>
        <time>2022-05-27T14:09:31Z</time>
      </trkpt>
      <trkpt lat="44.37042" lon="3.53487">
        <ele>579</ele>
        <time>2022-05-27T14:10:03Z</time>
      </trkpt>
      <trkpt lat="44.37041" lon="3.53486">
        <ele>579</ele>
        <time>2022-05-27T14:10:04Z</time>
      </trkpt>
      <trkpt lat="44.37041" lon="3.53484">
        <ele>578</ele>
        <time>2022-05-27T14:10:05Z</time>
      </trkpt>
      <trkpt lat="44.3704" lon="3.53482">
        <ele>577</ele>
        <time>2022-05-27T14:10:06Z</time>
      </trkpt>
      <trkpt lat="44.3704" lon="3.5348">
        <ele>578</ele>
        <time>2022-05-27T14:10:07Z</time>
      </trkpt>
      <trkpt lat="44.3704" lon="3.53479">
        <ele>578</ele>
        <time>2022-05-27T14:10:08Z</time>
      </trkpt>
      <trkpt lat="44.3704" lon="3.53478">
        <ele>579</ele>
        <time>2022-05-27T14:10:09Z</time>
      </trkpt>
      <trkpt lat="44.3704" lon="3.53476">
        <ele>578</ele>
        <time>2022-05-27T14:10:10Z</time>
      </trkpt>
      <trkpt lat="44.3704" lon="3.53475">
        <ele>579</ele>
        <time>2022-05-27T14:10:11Z</time>
      </trkpt>
      <trkpt lat="44.3704" lon="3.53473">
        <ele>580</ele>
        <time>2022-05-27T14:10:12Z</time>
      </trkpt>
      <trkpt lat="44.37041" lon="3.53472">
        <ele>580</ele>
        <time>2022-05-27T14:10:13Z</time>
      </trkpt>
      <trkpt lat="44.37041" lon="3.53472">
        <ele>580</ele>
        <time>2022-05-27T14:10:14Z</time>
      </trkpt>
      <trkpt lat="44.37041" lon="3.53471">
        <ele>581</ele>
        <time>2022-05-27T14:10:15Z</time>
      </trkpt>
      <trkpt lat="44.37041" lon="3.5347">
        <ele>581</ele>
        <time>2022-05-27T14:10:16Z</time>
      </trkpt>
      <trkpt lat="44.37041" lon="3.53468">
        <ele>581</ele>
        <time>2022-05-27T14:10:17Z</time>
      </trkpt>
      <trkpt lat="44.37042" lon="3.53467">
        <ele>581</ele>
        <time>2022-05-27T14:10:18Z</time>
      </trkpt>
      <trkpt lat="44.37042" lon="3.53466">
        <ele>581</ele>
        <time>2022-05-27T14:10:19Z</time>
      </trkpt>
      <trkpt lat="44.37043" lon="3.53465">
        <ele>582</ele>
        <time>2022-05-27T14:10:20Z</time>
      </trkpt>
      <trkpt lat="44.37043" lon="3.53464">
        <ele>582</ele>
        <time>2022-05-27T14:10:21Z</time>
      </trkpt>
      <trkpt lat="44.37043" lon="3.53463">
        <ele>582</ele>
        <time>2022-05-27T14:10:22Z</time>
      </trkpt>
      <trkpt lat="44.37043" lon="3.53461">
        <ele>582</ele>
        <time>2022-05-27T14:10:23Z</time>
      </trkpt>
      <trkpt lat="44.37044" lon="3.5346">
        <ele>582</ele>
        <time>2022-05-27T14:10:24Z</time>
      </trkpt>
      <trkpt lat="44.37044" lon="3.53459">
        <ele>581</ele>
        <time>2022-05-27T14:10:25Z</time>
      </trkpt>
      <trkpt lat="44.37044" lon="3.53457">
        <ele>582</ele>
        <time>2022-05-27T14:10:26Z</time>
      </trkpt>
      <trkpt lat="44.37045" lon="3.53456">
        <ele>582</ele>
        <time>2022-05-27T14:10:27Z</time>
      </trkpt>
      <trkpt lat="44.37045" lon="3.53454">
        <ele>582</ele>
        <time>2022-05-27T14:10:28Z</time>
      </trkpt>
      <trkpt lat="44.37046" lon="3.53453">
        <ele>582</ele>
        <time>2022-05-27T14:10:29Z</time>
      </trkpt>
      <trkpt lat="44.37046" lon="3.53452">
        <ele>583</ele>
        <time>2022-05-27T14:10:30Z</time>
      </trkpt>
      <trkpt lat="44.37047" lon="3.53451">
        <ele>583</ele>
        <time>2022-05-27T14:10:31Z</time>
      </trkpt>
      <trkpt lat="44.37048" lon="3.5345">
        <ele>583</ele>
        <time>2022-05-27T14:10:32Z</time>
      </trkpt>
      <trkpt lat="44.37048" lon="3.53449">
        <ele>582</ele>
        <time>2022-05-27T14:10:33Z</time>
      </trkpt>
      <trkpt lat="44.37049" lon="3.53448">
        <ele>583</ele>
        <time>2022-05-27T14:10:34Z</time>
      </trkpt>
      <trkpt lat="44.37049" lon="3.53447">
        <ele>583</ele>
        <time>2022-05-27T14:10:35Z</time>
      </trkpt>
      <trkpt lat="44.3705" lon="3.53446">
        <ele>583</ele>
        <time>2022-05-27T14:10:36Z</time>
      </trkpt>
      <trkpt lat="44.37051" lon="3.53445">
        <ele>583</ele>
        <time>2022-05-27T14:10:37Z</time>
      </trkpt>
      <trkpt lat="44.37052" lon="3.53444">
        <ele>583</ele>
        <time>2022-05-27T14:10:38Z</time>
      </trkpt>
      <trkpt lat="44.37052" lon="3.53443">
        <ele>582</ele>
        <time>2022-05-27T14:10:39Z</time>
      </trkpt>
      <trkpt lat="44.37053" lon="3.53443">
        <ele>582</ele>
        <time>2022-05-27T14:10:40Z</time>
      </trkpt>
      <trkpt lat="44.37054" lon="3.53442">
        <ele>582</ele>
        <time>2022-05-27T14:10:41Z</time>
      </trkpt>
      <trkpt lat="44.37054" lon="3.53441">
        <ele>581</ele>
        <time>2022-05-27T14:10:42Z</time>
      </trkpt>
      <trkpt lat="44.37055" lon="3.53439">
        <ele>581</ele>
        <time>2022-05-27T14:10:43Z</time>
      </trkpt>
      <trkpt lat="44.37055" lon="3.53438">
        <ele>580</ele>
        <time>2022-05-27T14:10:44Z</time>
      </trkpt>
      <trkpt lat="44.37056" lon="3.53438">
        <ele>580</ele>
        <time>2022-05-27T14:10:45Z</time>
      </trkpt>
      <trkpt lat="44.37057" lon="3.53437">
        <ele>580</ele>
        <time>2022-05-27T14:10:46Z</time>
      </trkpt>
      <trkpt lat="44.37058" lon="3.53437">
        <ele>581</ele>
        <time>2022-05-27T14:10:47Z</time>
      </trkpt>
      <trkpt lat="44.37058" lon="3.53436">
        <ele>581</ele>
        <time>2022-05-27T14:10:48Z</time>
      </trkpt>
      <trkpt lat="44.37059" lon="3.53435">
        <ele>581</ele>
        <time>2022-05-27T14:10:49Z</time>
      </trkpt>
      <trkpt lat="44.37061" lon="3.53435">
        <ele>581</ele>
        <time>2022-05-27T14:10:50Z</time>
      </trkpt>
      <trkpt lat="44.37061" lon="3.53434">
        <ele>581</ele>
        <time>2022-05-27T14:10:51Z</time>
      </trkpt>
      <trkpt lat="44.37063" lon="3.53434">
        <ele>581</ele>
        <time>2022-05-27T14:10:52Z</time>
      </trkpt>
      <trkpt lat="44.37063" lon="3.53433">
        <ele>581</ele>
        <time>2022-05-27T14:10:53Z</time>
      </trkpt>
      <trkpt lat="44.37064" lon="3.53432">
        <ele>581</ele>
        <time>2022-05-27T14:10:54Z</time>
      </trkpt>
      <trkpt lat="44.37064" lon="3.5343">
        <ele>581</ele>
        <time>2022-05-27T14:10:55Z</time>
      </trkpt>
      <trkpt lat="44.37065" lon="3.5343">
        <ele>582</ele>
        <time>2022-05-27T14:10:56Z</time>
      </trkpt>
      <trkpt lat="44.37066" lon="3.53429">
        <ele>582</ele>
        <time>2022-05-27T14:10:57Z</time>
      </trkpt>
      <trkpt lat="44.37067" lon="3.53428">
        <ele>582</ele>
        <time>2022-05-27T14:10:58Z</time>
      </trkpt>
      <trkpt lat="44.37067" lon="3.53427">
        <ele>582</ele>
        <time>2022-05-27T14:10:59Z</time>
      </trkpt>
      <trkpt lat="44.37068" lon="3.53427">
        <ele>582</ele>
        <time>2022-05-27T14:11:00Z</time>
      </trkpt>
      <trkpt lat="44.37069" lon="3.53425">
        <ele>582</ele>
        <time>2022-05-27T14:11:01Z</time>
      </trkpt>
      <trkpt lat="44.37071" lon="3.53424">
        <ele>583</ele>
        <time>2022-05-27T14:11:02Z</time>
      </trkpt>
      <trkpt lat="44.37072" lon="3.53423">
        <ele>583</ele>
        <time>2022-05-27T14:11:03Z</time>
      </trkpt>
      <trkpt lat="44.37073" lon="3.53421">
        <ele>583</ele>
        <time>2022-05-27T14:11:04Z</time>
      </trkpt>
      <trkpt lat="44.37074" lon="3.53419">
        <ele>583</ele>
        <time>2022-05-27T14:11:05Z</time>
      </trkpt>
      <trkpt lat="44.37074" lon="3.53419">
        <ele>583</ele>
        <time>2022-05-27T14:11:06Z</time>
      </trkpt>
      <trkpt lat="44.37075" lon="3.53419">
        <ele>583</ele>
        <time>2022-05-27T14:11:07Z</time>
      </trkpt>
      <trkpt lat="44.37075" lon="3.53418">
        <ele>583</ele>
        <time>2022-05-27T14:11:08Z</time>
      </trkpt>
      <trkpt lat="44.37076" lon="3.53417">
        <ele>584</ele>
        <time>2022-05-27T14:11:09Z</time>
      </trkpt>
      <trkpt lat="44.37077" lon="3.53417">
        <ele>584</ele>
        <time>2022-05-27T14:11:10Z</time>
      </trkpt>
      <trkpt lat="44.37077" lon="3.53417">
        <ele>584</ele>
        <time>2022-05-27T14:11:11Z</time>
      </trkpt>
      <trkpt lat="44.37076" lon="3.53417">
        <ele>584</ele>
        <time>2022-05-27T14:11:12Z</time>
      </trkpt>
      <trkpt lat="44.37076" lon="3.53417">
        <ele>584</ele>
        <time>2022-05-27T14:11:13Z</time>
      </trkpt>
      <trkpt lat="44.37076" lon="3.53415">
        <ele>582</ele>
        <time>2022-05-27T14:11:14Z</time>
      </trkpt>
      <trkpt lat="44.37077" lon="3.53414">
        <ele>583</ele>
        <time>2022-05-27T14:11:15Z</time>
      </trkpt>
      <trkpt lat="44.37078" lon="3.53413">
        <ele>583</ele>
        <time>2022-05-27T14:11:16Z</time>
      </trkpt>
      <trkpt lat="44.37079" lon="3.53412">
        <ele>583</ele>
        <time>2022-05-27T14:11:17Z</time>
      </trkpt>
      <trkpt lat="44.37079" lon="3.53411">
        <ele>582</ele>
        <time>2022-05-27T14:11:18Z</time>
      </trkpt>
      <trkpt lat="44.3708" lon="3.5341">
        <ele>582</ele>
        <time>2022-05-27T14:11:19Z</time>
      </trkpt>
      <trkpt lat="44.37081" lon="3.53409">
        <ele>581</ele>
        <time>2022-05-27T14:11:20Z</time>
      </trkpt>
      <trkpt lat="44.37082" lon="3.53408">
        <ele>581</ele>
        <time>2022-05-27T14:11:21Z</time>
      </trkpt>
      <trkpt lat="44.37083" lon="3.53407">
        <ele>581</ele>
        <time>2022-05-27T14:11:22Z</time>
      </trkpt>
      <trkpt lat="44.37083" lon="3.53407">
        <ele>581</ele>
        <time>2022-05-27T14:11:23Z</time>
      </trkpt>
      <trkpt lat="44.37084" lon="3.53406">
        <ele>581</ele>
        <time>2022-05-27T14:11:24Z</time>
      </trkpt>
      <trkpt lat="44.37086" lon="3.53405">
        <ele>581</ele>
        <time>2022-05-27T14:11:25Z</time>
      </trkpt>
      <trkpt lat="44.37087" lon="3.53404">
        <ele>581</ele>
        <time>2022-05-27T14:11:26Z</time>
      </trkpt>
      <trkpt lat="44.37088" lon="3.53403">
        <ele>582</ele>
        <time>2022-05-27T14:11:27Z</time>
      </trkpt>
      <trkpt lat="44.37089" lon="3.53402">
        <ele>582</ele>
        <time>2022-05-27T14:11:28Z</time>
      </trkpt>
      <trkpt lat="44.3709" lon="3.53401">
        <ele>582</ele>
        <time>2022-05-27T14:11:29Z</time>
      </trkpt>
      <trkpt lat="44.37091" lon="3.53401">
        <ele>582</ele>
        <time>2022-05-27T14:11:30Z</time>
      </trkpt>
      <trkpt lat="44.37091" lon="3.534">
        <ele>583</ele>
        <time>2022-05-27T14:11:31Z</time>
      </trkpt>
      <trkpt lat="44.37092" lon="3.53399">
        <ele>583</ele>
        <time>2022-05-27T14:11:32Z</time>
      </trkpt>
      <trkpt lat="44.37093" lon="3.53398">
        <ele>583</ele>
        <time>2022-05-27T14:11:33Z</time>
      </trkpt>
      <trkpt lat="44.37093" lon="3.53397">
        <ele>583</ele>
        <time>2022-05-27T14:11:34Z</time>
      </trkpt>
      <trkpt lat="44.37095" lon="3.53396">
        <ele>583</ele>
        <time>2022-05-27T14:11:35Z</time>
      </trkpt>
      <trkpt lat="44.37095" lon="3.53395">
        <ele>583</ele>
        <time>2022-05-27T14:11:36Z</time>
      </trkpt>
      <trkpt lat="44.37096" lon="3.53394">
        <ele>582</ele>
        <time>2022-05-27T14:11:37Z</time>
      </trkpt>
      <trkpt lat="44.37096" lon="3.53394">
        <ele>582</ele>
        <time>2022-05-27T14:11:38Z</time>
      </trkpt>
      <trkpt lat="44.37097" lon="3.53393">
        <ele>582</ele>
        <time>2022-05-27T14:11:39Z</time>
      </trkpt>
      <trkpt lat="44.37098" lon="3.53392">
        <ele>581</ele>
        <time>2022-05-27T14:11:40Z</time>
      </trkpt>
      <trkpt lat="44.37099" lon="3.53391">
        <ele>581</ele>
        <time>2022-05-27T14:11:41Z</time>
      </trkpt>
      <trkpt lat="44.371" lon="3.53391">
        <ele>580</ele>
        <time>2022-05-27T14:11:42Z</time>
      </trkpt>
      <trkpt lat="44.37101" lon="3.5339">
        <ele>580</ele>
        <time>2022-05-27T14:11:43Z</time>
      </trkpt>
      <trkpt lat="44.37102" lon="3.5339">
        <ele>579</ele>
        <time>2022-05-27T14:11:44Z</time>
      </trkpt>
      <trkpt lat="44.37102" lon="3.53389">
        <ele>579</ele>
        <time>2022-05-27T14:11:45Z</time>
      </trkpt>
      <trkpt lat="44.37103" lon="3.53389">
        <ele>579</ele>
        <time>2022-05-27T14:11:46Z</time>
      </trkpt>
      <trkpt lat="44.37104" lon="3.53388">
        <ele>579</ele>
        <time>2022-05-27T14:11:47Z</time>
      </trkpt>
      <trkpt lat="44.37104" lon="3.53388">
        <ele>579</ele>
        <time>2022-05-27T14:11:48Z</time>
      </trkpt>
      <trkpt lat="44.37105" lon="3.53387">
        <ele>578</ele>
        <time>2022-05-27T14:11:49Z</time>
      </trkpt>
      <trkpt lat="44.37106" lon="3.53386">
        <ele>578</ele>
        <time>2022-05-27T14:11:50Z</time>
      </trkpt>
      <trkpt lat="44.37106" lon="3.53386">
        <ele>577</ele>
        <time>2022-05-27T14:11:51Z</time>
      </trkpt>
      <trkpt lat="44.37107" lon="3.53385">
        <ele>577</ele>
        <time>2022-05-27T14:11:52Z</time>
      </trkpt>
      <trkpt lat="44.37108" lon="3.53383">
        <ele>577</ele>
        <time>2022-05-27T14:11:53Z</time>
      </trkpt>
      <trkpt lat="44.37109" lon="3.53381">
        <ele>577</ele>
        <time>2022-05-27T14:11:54Z</time>
      </trkpt>
      <trkpt lat="44.37109" lon="3.53379">
        <ele>577</ele>
        <time>2022-05-27T14:11:55Z</time>
      </trkpt>
      <trkpt lat="44.3711" lon="3.53378">
        <ele>577</ele>
        <time>2022-05-27T14:11:56Z</time>
      </trkpt>
      <trkpt lat="44.37111" lon="3.53377">
        <ele>577</ele>
        <time>2022-05-27T14:11:57Z</time>
      </trkpt>
      <trkpt lat="44.37112" lon="3.53375">
        <ele>577</ele>
        <time>2022-05-27T14:11:58Z</time>
      </trkpt>
      <trkpt lat="44.37112" lon="3.53374">
        <ele>577</ele>
        <time>2022-05-27T14:11:59Z</time>
      </trkpt>
      <trkpt lat="44.37114" lon="3.53373">
        <ele>576</ele>
        <time>2022-05-27T14:12:00Z</time>
      </trkpt>
      <trkpt lat="44.37115" lon="3.53373">
        <ele>576</ele>
        <time>2022-05-27T14:12:01Z</time>
      </trkpt>
      <trkpt lat="44.37117" lon="3.53372">
        <ele>576</ele>
        <time>2022-05-27T14:12:02Z</time>
      </trkpt>
      <trkpt lat="44.37118" lon="3.53372">
        <ele>575</ele>
        <time>2022-05-27T14:12:03Z</time>
      </trkpt>
      <trkpt lat="44.37119" lon="3.53371">
        <ele>575</ele>
        <time>2022-05-27T14:12:04Z</time>
      </trkpt>
      <trkpt lat="44.37121" lon="3.5337">
        <ele>575</ele>
        <time>2022-05-27T14:12:05Z</time>
      </trkpt>
      <trkpt lat="44.37124" lon="3.5337">
        <ele>574</ele>
        <time>2022-05-27T14:12:06Z</time>
      </trkpt>
      <trkpt lat="44.37125" lon="3.5337">
        <ele>573</ele>
        <time>2022-05-27T14:12:07Z</time>
      </trkpt>
      <trkpt lat="44.37126" lon="3.53369">
        <ele>573</ele>
        <time>2022-05-27T14:12:08Z</time>
      </trkpt>
      <trkpt lat="44.37127" lon="3.53369">
        <ele>572</ele>
        <time>2022-05-27T14:12:09Z</time>
      </trkpt>
      <trkpt lat="44.37128" lon="3.53368">
        <ele>571</ele>
        <time>2022-05-27T14:12:10Z</time>
      </trkpt>
      <trkpt lat="44.37129" lon="3.53368">
        <ele>571</ele>
        <time>2022-05-27T14:12:11Z</time>
      </trkpt>
      <trkpt lat="44.37131" lon="3.53367">
        <ele>571</ele>
        <time>2022-05-27T14:12:12Z</time>
      </trkpt>
      <trkpt lat="44.37132" lon="3.53367">
        <ele>571</ele>
        <time>2022-05-27T14:12:13Z</time>
      </trkpt>
      <trkpt lat="44.37133" lon="3.53366">
        <ele>571</ele>
        <time>2022-05-27T14:12:14Z</time>
      </trkpt>
      <trkpt lat="44.37134" lon="3.53365">
        <ele>570</ele>
        <time>2022-05-27T14:12:15Z</time>
      </trkpt>
      <trkpt lat="44.37135" lon="3.53364">
        <ele>570</ele>
        <time>2022-05-27T14:12:16Z</time>
      </trkpt>
      <trkpt lat="44.37137" lon="3.53363">
        <ele>569</ele>
        <time>2022-05-27T14:12:17Z</time>
      </trkpt>
      <trkpt lat="44.37137" lon="3.53362">
        <ele>569</ele>
        <time>2022-05-27T14:12:18Z</time>
      </trkpt>
      <trkpt lat="44.37138" lon="3.53362">
        <ele>570</ele>
        <time>2022-05-27T14:12:19Z</time>
      </trkpt>
      <trkpt lat="44.37139" lon="3.53362">
        <ele>570</ele>
        <time>2022-05-27T14:12:20Z</time>
      </trkpt>
      <trkpt lat="44.3714" lon="3.53361">
        <ele>570</ele>
        <time>2022-05-27T14:12:21Z</time>
      </trkpt>
      <trkpt lat="44.37141" lon="3.53361">
        <ele>570</ele>
        <time>2022-05-27T14:12:22Z</time>
      </trkpt>
      <trkpt lat="44.37143" lon="3.53361">
        <ele>569</ele>
        <time>2022-05-27T14:12:23Z</time>
      </trkpt>
      <trkpt lat="44.37145" lon="3.5336">
        <ele>569</ele>
        <time>2022-05-27T14:12:24Z</time>
      </trkpt>
      <trkpt lat="44.37145" lon="3.53359">
        <ele>569</ele>
        <time>2022-05-27T14:12:25Z</time>
      </trkpt>
      <trkpt lat="44.37146" lon="3.53358">
        <ele>569</ele>
        <time>2022-05-27T14:12:26Z</time>
      </trkpt>
      <trkpt lat="44.37147" lon="3.53357">
        <ele>569</ele>
        <time>2022-05-27T14:12:27Z</time>
      </trkpt>
      <trkpt lat="44.37148" lon="3.53357">
        <ele>570</ele>
        <time>2022-05-27T14:12:28Z</time>
      </trkpt>
      <trkpt lat="44.37149" lon="3.53356">
        <ele>569</ele>
        <time>2022-05-27T14:12:29Z</time>
      </trkpt>
      <trkpt lat="44.37149" lon="3.53354">
        <ele>569</ele>
        <time>2022-05-27T14:12:30Z</time>
      </trkpt>
      <trkpt lat="44.3715" lon="3.53352">
        <ele>568</ele>
        <time>2022-05-27T14:12:31Z</time>
      </trkpt>
      <trkpt lat="44.3715" lon="3.53351">
        <ele>568</ele>
        <time>2022-05-27T14:12:32Z</time>
      </trkpt>
      <trkpt lat="44.37151" lon="3.5335">
        <ele>568</ele>
        <time>2022-05-27T14:12:33Z</time>
      </trkpt>
      <trkpt lat="44.37152" lon="3.53349">
        <ele>569</ele>
        <time>2022-05-27T14:12:34Z</time>
      </trkpt>
      <trkpt lat="44.37154" lon="3.53348">
        <ele>570</ele>
        <time>2022-05-27T14:12:35Z</time>
      </trkpt>
      <trkpt lat="44.37155" lon="3.53347">
        <ele>570</ele>
        <time>2022-05-27T14:12:36Z</time>
      </trkpt>
      <trkpt lat="44.37156" lon="3.53346">
        <ele>571</ele>
        <time>2022-05-27T14:12:37Z</time>
      </trkpt>
      <trkpt lat="44.37156" lon="3.53345">
        <ele>571</ele>
        <time>2022-05-27T14:12:38Z</time>
      </trkpt>
      <trkpt lat="44.37157" lon="3.53343">
        <ele>572</ele>
        <time>2022-05-27T14:12:39Z</time>
      </trkpt>
      <trkpt lat="44.37159" lon="3.53342">
        <ele>572</ele>
        <time>2022-05-27T14:12:40Z</time>
      </trkpt>
      <trkpt lat="44.37159" lon="3.53341">
        <ele>572</ele>
        <time>2022-05-27T14:12:41Z</time>
      </trkpt>
      <trkpt lat="44.3716" lon="3.5334">
        <ele>573</ele>
        <time>2022-05-27T14:12:42Z</time>
      </trkpt>
      <trkpt lat="44.37161" lon="3.53339">
        <ele>574</ele>
        <time>2022-05-27T14:12:43Z</time>
      </trkpt>
      <trkpt lat="44.37162" lon="3.53338">
        <ele>574</ele>
        <time>2022-05-27T14:12:44Z</time>
      </trkpt>
      <trkpt lat="44.37162" lon="3.53338">
        <ele>574</ele>
        <time>2022-05-27T14:12:45Z</time>
      </trkpt>
      <trkpt lat="44.37163" lon="3.53337">
        <ele>574</ele>
        <time>2022-05-27T14:12:46Z</time>
      </trkpt>
      <trkpt lat="44.37164" lon="3.53336">
        <ele>575</ele>
        <time>2022-05-27T14:12:47Z</time>
      </trkpt>
      <trkpt lat="44.37164" lon="3.53335">
        <ele>575</ele>
        <time>2022-05-27T14:12:48Z</time>
      </trkpt>
      <trkpt lat="44.37166" lon="3.53334">
        <ele>576</ele>
        <time>2022-05-27T14:12:49Z</time>
      </trkpt>
      <trkpt lat="44.37166" lon="3.53333">
        <ele>576</ele>
        <time>2022-05-27T14:12:50Z</time>
      </trkpt>
      <trkpt lat="44.37167" lon="3.53332">
        <ele>577</ele>
        <time>2022-05-27T14:12:51Z</time>
      </trkpt>
      <trkpt lat="44.37168" lon="3.53331">
        <ele>577</ele>
        <time>2022-05-27T14:12:52Z</time>
      </trkpt>
      <trkpt lat="44.37169" lon="3.5333">
        <ele>578</ele>
        <time>2022-05-27T14:12:53Z</time>
      </trkpt>
      <trkpt lat="44.3717" lon="3.53329">
        <ele>578</ele>
        <time>2022-05-27T14:12:54Z</time>
      </trkpt>
      <trkpt lat="44.37171" lon="3.53327">
        <ele>578</ele>
        <time>2022-05-27T14:12:55Z</time>
      </trkpt>
      <trkpt lat="44.37172" lon="3.53325">
        <ele>579</ele>
        <time>2022-05-27T14:12:56Z</time>
      </trkpt>
      <trkpt lat="44.37173" lon="3.53324">
        <ele>579</ele>
        <time>2022-05-27T14:12:57Z</time>
      </trkpt>
      <trkpt lat="44.37174" lon="3.53323">
        <ele>579</ele>
        <time>2022-05-27T14:12:58Z</time>
      </trkpt>
      <trkpt lat="44.37174" lon="3.53321">
        <ele>579</ele>
        <time>2022-05-27T14:12:59Z</time>
      </trkpt>
      <trkpt lat="44.37175" lon="3.5332">
        <ele>579</ele>
        <time>2022-05-27T14:13:00Z</time>
      </trkpt>
      <trkpt lat="44.37175" lon="3.53319">
        <ele>579</ele>
        <time>2022-05-27T14:13:01Z</time>
      </trkpt>
      <trkpt lat="44.37176" lon="3.53317">
        <ele>579</ele>
        <time>2022-05-27T14:13:02Z</time>
      </trkpt>
      <trkpt lat="44.37176" lon="3.53315">
        <ele>580</ele>
        <time>2022-05-27T14:13:03Z</time>
      </trkpt>
      <trkpt lat="44.37177" lon="3.53313">
        <ele>580</ele>
        <time>2022-05-27T14:13:04Z</time>
      </trkpt>
      <trkpt lat="44.37177" lon="3.53312">
        <ele>581</ele>
        <time>2022-05-27T14:13:05Z</time>
      </trkpt>
      <trkpt lat="44.37178" lon="3.5331">
        <ele>581</ele>
        <time>2022-05-27T14:13:06Z</time>
      </trkpt>
      <trkpt lat="44.37179" lon="3.53309">
        <ele>581</ele>
        <time>2022-05-27T14:13:07Z</time>
      </trkpt>
      <trkpt lat="44.37179" lon="3.53308">
        <ele>580</ele>
        <time>2022-05-27T14:13:08Z</time>
      </trkpt>
      <trkpt lat="44.3718" lon="3.53306">
        <ele>580</ele>
        <time>2022-05-27T14:13:09Z</time>
      </trkpt>
      <trkpt lat="44.37181" lon="3.53305">
        <ele>581</ele>
        <time>2022-05-27T14:13:10Z</time>
      </trkpt>
      <trkpt lat="44.37182" lon="3.53303">
        <ele>580</ele>
        <time>2022-05-27T14:13:11Z</time>
      </trkpt>
      <trkpt lat="44.37182" lon="3.53301">
        <ele>580</ele>
        <time>2022-05-27T14:13:12Z</time>
      </trkpt>
      <trkpt lat="44.37183" lon="3.533">
        <ele>580</ele>
        <time>2022-05-27T14:13:13Z</time>
      </trkpt>
      <trkpt lat="44.37184" lon="3.53298">
        <ele>580</ele>
        <time>2022-05-27T14:13:14Z</time>
      </trkpt>
      <trkpt lat="44.37185" lon="3.53297">
        <ele>579</ele>
        <time>2022-05-27T14:13:15Z</time>
      </trkpt>
      <trkpt lat="44.37186" lon="3.53297">
        <ele>578</ele>
        <time>2022-05-27T14:13:16Z</time>
      </trkpt>
      <trkpt lat="44.37188" lon="3.53296">
        <ele>577</ele>
        <time>2022-05-27T14:13:17Z</time>
      </trkpt>
      <trkpt lat="44.37189" lon="3.53295">
        <ele>577</ele>
        <time>2022-05-27T14:13:18Z</time>
      </trkpt>
      <trkpt lat="44.37191" lon="3.53294">
        <ele>577</ele>
        <time>2022-05-27T14:13:19Z</time>
      </trkpt>
      <trkpt lat="44.37192" lon="3.53293">
        <ele>577</ele>
        <time>2022-05-27T14:13:20Z</time>
      </trkpt>
      <trkpt lat="44.37193" lon="3.53292">
        <ele>577</ele>
        <time>2022-05-27T14:13:21Z</time>
      </trkpt>
      <trkpt lat="44.37194" lon="3.53291">
        <ele>577</ele>
        <time>2022-05-27T14:13:22Z</time>
      </trkpt>
      <trkpt lat="44.37195" lon="3.5329">
        <ele>578</ele>
        <time>2022-05-27T14:13:23Z</time>
      </trkpt>
      <trkpt lat="44.37196" lon="3.53288">
        <ele>578</ele>
        <time>2022-05-27T14:13:24Z</time>
      </trkpt>
      <trkpt lat="44.37197" lon="3.53287">
        <ele>578</ele>
        <time>2022-05-27T14:13:25Z</time>
      </trkpt>
      <trkpt lat="44.37198" lon="3.53286">
        <ele>579</ele>
        <time>2022-05-27T14:13:26Z</time>
      </trkpt>
      <trkpt lat="44.37199" lon="3.53284">
        <ele>579</ele>
        <time>2022-05-27T14:13:27Z</time>
      </trkpt>
      <trkpt lat="44.372" lon="3.53283">
        <ele>579</ele>
        <time>2022-05-27T14:13:28Z</time>
      </trkpt>
      <trkpt lat="44.372" lon="3.53281">
        <ele>579</ele>
        <time>2022-05-27T14:13:29Z</time>
      </trkpt>
      <trkpt lat="44.37201" lon="3.5328">
        <ele>580</ele>
        <time>2022-05-27T14:13:30Z</time>
      </trkpt>
      <trkpt lat="44.37201" lon="3.53278">
        <ele>580</ele>
        <time>2022-05-27T14:13:31Z</time>
      </trkpt>
      <trkpt lat="44.37202" lon="3.53276">
        <ele>580</ele>
        <time>2022-05-27T14:13:32Z</time>
      </trkpt>
      <trkpt lat="44.37203" lon="3.53274">
        <ele>580</ele>
        <time>2022-05-27T14:13:33Z</time>
      </trkpt>
      <trkpt lat="44.37203" lon="3.53273">
        <ele>580</ele>
        <time>2022-05-27T14:13:34Z</time>
      </trkpt>
      <trkpt lat="44.37203" lon="3.53271">
        <ele>580</ele>
        <time>2022-05-27T14:13:35Z</time>
      </trkpt>
      <trkpt lat="44.37204" lon="3.53269">
        <ele>579</ele>
        <time>2022-05-27T14:13:36Z</time>
      </trkpt>
      <trkpt lat="44.37204" lon="3.53268">
        <ele>580</ele>
        <time>2022-05-27T14:13:37Z</time>
      </trkpt>
      <trkpt lat="44.37204" lon="3.53266">
        <ele>580</ele>
        <time>2022-05-27T14:13:38Z</time>
      </trkpt>
      <trkpt lat="44.37205" lon="3.53265">
        <ele>579</ele>
        <time>2022-05-27T14:13:39Z</time>
      </trkpt>
      <trkpt lat="44.37205" lon="3.53263">
        <ele>579</ele>
        <time>2022-05-27T14:13:40Z</time>
      </trkpt>
      <trkpt lat="44.37206" lon="3.53261">
        <ele>578</ele>
        <time>2022-05-27T14:13:41Z</time>
      </trkpt>
      <trkpt lat="44.37206" lon="3.5326">
        <ele>578</ele>
        <time>2022-05-27T14:13:42Z</time>
      </trkpt>
      <trkpt lat="44.37206" lon="3.53258">
        <ele>578</ele>
        <time>2022-05-27T14:13:43Z</time>
      </trkpt>
      <trkpt lat="44.37207" lon="3.53256">
        <ele>578</ele>
        <time>2022-05-27T14:13:44Z</time>
      </trkpt>
      <trkpt lat="44.37207" lon="3.53255">
        <ele>577</ele>
        <time>2022-05-27T14:13:45Z</time>
      </trkpt>
      <trkpt lat="44.37207" lon="3.53252">
        <ele>577</ele>
        <time>2022-05-27T14:13:46Z</time>
      </trkpt>
      <trkpt lat="44.37208" lon="3.53251">
        <ele>577</ele>
        <time>2022-05-27T14:13:47Z</time>
      </trkpt>
      <trkpt lat="44.37208" lon="3.53249">
        <ele>577</ele>
        <time>2022-05-27T14:13:48Z</time>
      </trkpt>
      <trkpt lat="44.37209" lon="3.53247">
        <ele>577</ele>
        <time>2022-05-27T14:13:49Z</time>
      </trkpt>
      <trkpt lat="44.37209" lon="3.53245">
        <ele>576</ele>
        <time>2022-05-27T14:13:50Z</time>
      </trkpt>
      <trkpt lat="44.37209" lon="3.53243">
        <ele>576</ele>
        <time>2022-05-27T14:13:51Z</time>
      </trkpt>
      <trkpt lat="44.3721" lon="3.53241">
        <ele>575</ele>
        <time>2022-05-27T14:13:52Z</time>
      </trkpt>
      <trkpt lat="44.3721" lon="3.53239">
        <ele>575</ele>
        <time>2022-05-27T14:13:53Z</time>
      </trkpt>
      <trkpt lat="44.3721" lon="3.53237">
        <ele>575</ele>
        <time>2022-05-27T14:13:54Z</time>
      </trkpt>
      <trkpt lat="44.37211" lon="3.53235">
        <ele>575</ele>
        <time>2022-05-27T14:13:55Z</time>
      </trkpt>
      <trkpt lat="44.37211" lon="3.53233">
        <ele>575</ele>
        <time>2022-05-27T14:13:56Z</time>
      </trkpt>
      <trkpt lat="44.37211" lon="3.53231">
        <ele>575</ele>
        <time>2022-05-27T14:13:57Z</time>
      </trkpt>
      <trkpt lat="44.37211" lon="3.5323">
        <ele>574</ele>
        <time>2022-05-27T14:13:58Z</time>
      </trkpt>
      <trkpt lat="44.37212" lon="3.53228">
        <ele>574</ele>
        <time>2022-05-27T14:13:59Z</time>
      </trkpt>
      <trkpt lat="44.37212" lon="3.53226">
        <ele>574</ele>
        <time>2022-05-27T14:14:00Z</time>
      </trkpt>
      <trkpt lat="44.37212" lon="3.53224">
        <ele>574</ele>
        <time>2022-05-27T14:14:01Z</time>
      </trkpt>
      <trkpt lat="44.37212" lon="3.53223">
        <ele>574</ele>
        <time>2022-05-27T14:14:02Z</time>
      </trkpt>
      <trkpt lat="44.37213" lon="3.53221">
        <ele>573</ele>
        <time>2022-05-27T14:14:03Z</time>
      </trkpt>
      <trkpt lat="44.37213" lon="3.5322">
        <ele>573</ele>
        <time>2022-05-27T14:14:04Z</time>
      </trkpt>
      <trkpt lat="44.37212" lon="3.53218">
        <ele>573</ele>
        <time>2022-05-27T14:14:05Z</time>
      </trkpt>
      <trkpt lat="44.37212" lon="3.53216">
        <ele>573</ele>
        <time>2022-05-27T14:14:06Z</time>
      </trkpt>
      <trkpt lat="44.37212" lon="3.53214">
        <ele>573</ele>
        <time>2022-05-27T14:14:07Z</time>
      </trkpt>
      <trkpt lat="44.37212" lon="3.53212">
        <ele>573</ele>
        <time>2022-05-27T14:14:08Z</time>
      </trkpt>
      <trkpt lat="44.37212" lon="3.5321">
        <ele>572</ele>
        <time>2022-05-27T14:14:09Z</time>
      </trkpt>
      <trkpt lat="44.37212" lon="3.53208">
        <ele>573</ele>
        <time>2022-05-27T14:14:10Z</time>
      </trkpt>
      <trkpt lat="44.37212" lon="3.53206">
        <ele>572</ele>
        <time>2022-05-27T14:14:11Z</time>
      </trkpt>
      <trkpt lat="44.37212" lon="3.53204">
        <ele>572</ele>
        <time>2022-05-27T14:14:12Z</time>
      </trkpt>
      <trkpt lat="44.37212" lon="3.53202">
        <ele>572</ele>
        <time>2022-05-27T14:14:13Z</time>
      </trkpt>
      <trkpt lat="44.37212" lon="3.532">
        <ele>572</ele>
        <time>2022-05-27T14:14:14Z</time>
      </trkpt>
      <trkpt lat="44.37212" lon="3.53199">
        <ele>572</ele>
        <time>2022-05-27T14:14:15Z</time>
      </trkpt>
      <trkpt lat="44.37212" lon="3.53197">
        <ele>572</ele>
        <time>2022-05-27T14:14:16Z</time>
      </trkpt>
      <trkpt lat="44.37212" lon="3.53195">
        <ele>572</ele>
        <time>2022-05-27T14:14:17Z</time>
      </trkpt>
      <trkpt lat="44.37212" lon="3.53194">
        <ele>571</ele>
        <time>2022-05-27T14:14:18Z</time>
      </trkpt>
      <trkpt lat="44.37211" lon="3.53192">
        <ele>571</ele>
        <time>2022-05-27T14:14:19Z</time>
      </trkpt>
      <trkpt lat="44.37211" lon="3.5319">
        <ele>571</ele>
        <time>2022-05-27T14:14:20Z</time>
      </trkpt>
      <trkpt lat="44.37212" lon="3.53188">
        <ele>571</ele>
        <time>2022-05-27T14:14:21Z</time>
      </trkpt>
      <trkpt lat="44.37212" lon="3.53186">
        <ele>571</ele>
        <time>2022-05-27T14:14:22Z</time>
      </trkpt>
      <trkpt lat="44.37212" lon="3.53185">
        <ele>571</ele>
        <time>2022-05-27T14:14:23Z</time>
      </trkpt>
      <trkpt lat="44.37212" lon="3.53183">
        <ele>571</ele>
        <time>2022-05-27T14:14:24Z</time>
      </trkpt>
      <trkpt lat="44.37212" lon="3.53181">
        <ele>571</ele>
        <time>2022-05-27T14:14:25Z</time>
      </trkpt>
      <trkpt lat="44.37212" lon="3.53179">
        <ele>571</ele>
        <time>2022-05-27T14:14:26Z</time>
      </trkpt>
      <trkpt lat="44.37212" lon="3.53177">
        <ele>571</ele>
        <time>2022-05-27T14:14:27Z</time>
      </trkpt>
      <trkpt lat="44.37212" lon="3.53175">
        <ele>571</ele>
        <time>2022-05-27T14:14:28Z</time>
      </trkpt>
      <trkpt lat="44.37212" lon="3.53174">
        <ele>570</ele>
        <time>2022-05-27T14:14:29Z</time>
      </trkpt>
      <trkpt lat="44.37212" lon="3.53173">
        <ele>571</ele>
        <time>2022-05-27T14:14:30Z</time>
      </trkpt>
      <trkpt lat="44.37212" lon="3.5317">
        <ele>571</ele>
        <time>2022-05-27T14:14:31Z</time>
      </trkpt>
      <trkpt lat="44.37211" lon="3.53168">
        <ele>570</ele>
        <time>2022-05-27T14:14:32Z</time>
      </trkpt>
      <trkpt lat="44.37211" lon="3.53167">
        <ele>570</ele>
        <time>2022-05-27T14:14:33Z</time>
      </trkpt>
      <trkpt lat="44.37211" lon="3.53165">
        <ele>570</ele>
        <time>2022-05-27T14:14:34Z</time>
      </trkpt>
      <trkpt lat="44.37211" lon="3.53164">
        <ele>569</ele>
        <time>2022-05-27T14:14:35Z</time>
      </trkpt>
      <trkpt lat="44.37211" lon="3.53162">
        <ele>569</ele>
        <time>2022-05-27T14:14:36Z</time>
      </trkpt>
      <trkpt lat="44.37211" lon="3.53161">
        <ele>569</ele>
        <time>2022-05-27T14:14:37Z</time>
      </trkpt>
      <trkpt lat="44.37211" lon="3.53159">
        <ele>570</ele>
        <time>2022-05-27T14:14:38Z</time>
      </trkpt>
      <trkpt lat="44.37211" lon="3.53157">
        <ele>570</ele>
        <time>2022-05-27T14:14:39Z</time>
      </trkpt>
      <trkpt lat="44.37211" lon="3.53156">
        <ele>570</ele>
        <time>2022-05-27T14:14:40Z</time>
      </trkpt>
      <trkpt lat="44.37211" lon="3.53154">
        <ele>570</ele>
        <time>2022-05-27T14:14:41Z</time>
      </trkpt>
      <trkpt lat="44.37211" lon="3.53152">
        <ele>569</ele>
        <time>2022-05-27T14:14:42Z</time>
      </trkpt>
      <trkpt lat="44.37211" lon="3.5315">
        <ele>569</ele>
        <time>2022-05-27T14:14:43Z</time>
      </trkpt>
      <trkpt lat="44.37211" lon="3.53148">
        <ele>569</ele>
        <time>2022-05-27T14:14:44Z</time>
      </trkpt>
      <trkpt lat="44.3721" lon="3.53146">
        <ele>569</ele>
        <time>2022-05-27T14:14:45Z</time>
      </trkpt>
      <trkpt lat="44.3721" lon="3.53145">
        <ele>569</ele>
        <time>2022-05-27T14:14:46Z</time>
      </trkpt>
      <trkpt lat="44.3721" lon="3.53144">
        <ele>568</ele>
        <time>2022-05-27T14:14:47Z</time>
      </trkpt>
      <trkpt lat="44.37211" lon="3.53142">
        <ele>568</ele>
        <time>2022-05-27T14:14:48Z</time>
      </trkpt>
      <trkpt lat="44.37211" lon="3.5314">
        <ele>568</ele>
        <time>2022-05-27T14:14:49Z</time>
      </trkpt>
      <trkpt lat="44.37211" lon="3.53138">
        <ele>568</ele>
        <time>2022-05-27T14:14:50Z</time>
      </trkpt>
      <trkpt lat="44.37211" lon="3.53136">
        <ele>569</ele>
        <time>2022-05-27T14:14:51Z</time>
      </trkpt>
      <trkpt lat="44.37211" lon="3.53134">
        <ele>568</ele>
        <time>2022-05-27T14:14:52Z</time>
      </trkpt>
      <trkpt lat="44.37211" lon="3.53132">
        <ele>569</ele>
        <time>2022-05-27T14:14:53Z</time>
      </trkpt>
      <trkpt lat="44.37212" lon="3.53131">
        <ele>569</ele>
        <time>2022-05-27T14:14:54Z</time>
      </trkpt>
      <trkpt lat="44.37212" lon="3.53129">
        <ele>569</ele>
        <time>2022-05-27T14:14:55Z</time>
      </trkpt>
      <trkpt lat="44.37212" lon="3.53128">
        <ele>569</ele>
        <time>2022-05-27T14:14:56Z</time>
      </trkpt>
      <trkpt lat="44.37212" lon="3.53126">
        <ele>568</ele>
        <time>2022-05-27T14:14:57Z</time>
      </trkpt>
      <trkpt lat="44.37213" lon="3.53125">
        <ele>568</ele>
        <time>2022-05-27T14:14:58Z</time>
      </trkpt>
      <trkpt lat="44.37213" lon="3.53123">
        <ele>568</ele>
        <time>2022-05-27T14:14:59Z</time>
      </trkpt>
      <trkpt lat="44.37214" lon="3.53121">
        <ele>568</ele>
        <time>2022-05-27T14:15:00Z</time>
      </trkpt>
      <trkpt lat="44.37214" lon="3.53119">
        <ele>567</ele>
        <time>2022-05-27T14:15:01Z</time>
      </trkpt>
      <trkpt lat="44.37214" lon="3.53117">
        <ele>567</ele>
        <time>2022-05-27T14:15:02Z</time>
      </trkpt>
      <trkpt lat="44.37214" lon="3.53115">
        <ele>567</ele>
        <time>2022-05-27T14:15:03Z</time>
      </trkpt>
      <trkpt lat="44.37214" lon="3.53113">
        <ele>567</ele>
        <time>2022-05-27T14:15:04Z</time>
      </trkpt>
      <trkpt lat="44.37214" lon="3.53111">
        <ele>567</ele>
        <time>2022-05-27T14:15:05Z</time>
      </trkpt>
      <trkpt lat="44.37214" lon="3.53109">
        <ele>567</ele>
        <time>2022-05-27T14:15:06Z</time>
      </trkpt>
      <trkpt lat="44.37215" lon="3.53107">
        <ele>567</ele>
        <time>2022-05-27T14:15:07Z</time>
      </trkpt>
      <trkpt lat="44.37215" lon="3.53105">
        <ele>567</ele>
        <time>2022-05-27T14:15:08Z</time>
      </trkpt>
      <trkpt lat="44.37215" lon="3.53105">
        <ele>566</ele>
        <time>2022-05-27T14:15:09Z</time>
      </trkpt>
      <trkpt lat="44.37216" lon="3.53103">
        <ele>566</ele>
        <time>2022-05-27T14:15:10Z</time>
      </trkpt>
      <trkpt lat="44.37216" lon="3.53102">
        <ele>565</ele>
        <time>2022-05-27T14:15:11Z</time>
      </trkpt>
      <trkpt lat="44.37217" lon="3.531">
        <ele>565</ele>
        <time>2022-05-27T14:15:12Z</time>
      </trkpt>
      <trkpt lat="44.37217" lon="3.53099">
        <ele>564</ele>
        <time>2022-05-27T14:15:13Z</time>
      </trkpt>
      <trkpt lat="44.37217" lon="3.53097">
        <ele>564</ele>
        <time>2022-05-27T14:15:14Z</time>
      </trkpt>
      <trkpt lat="44.37217" lon="3.53096">
        <ele>564</ele>
        <time>2022-05-27T14:15:15Z</time>
      </trkpt>
      <trkpt lat="44.37217" lon="3.53094">
        <ele>563</ele>
        <time>2022-05-27T14:15:16Z</time>
      </trkpt>
      <trkpt lat="44.37217" lon="3.53092">
        <ele>563</ele>
        <time>2022-05-27T14:15:17Z</time>
      </trkpt>
      <trkpt lat="44.37217" lon="3.53091">
        <ele>563</ele>
        <time>2022-05-27T14:15:18Z</time>
      </trkpt>
      <trkpt lat="44.37217" lon="3.53089">
        <ele>562</ele>
        <time>2022-05-27T14:15:19Z</time>
      </trkpt>
      <trkpt lat="44.37217" lon="3.53088">
        <ele>563</ele>
        <time>2022-05-27T14:15:20Z</time>
      </trkpt>
      <trkpt lat="44.37217" lon="3.53086">
        <ele>563</ele>
        <time>2022-05-27T14:15:21Z</time>
      </trkpt>
      <trkpt lat="44.37217" lon="3.53085">
        <ele>564</ele>
        <time>2022-05-27T14:15:22Z</time>
      </trkpt>
      <trkpt lat="44.37218" lon="3.53083">
        <ele>563</ele>
        <time>2022-05-27T14:15:23Z</time>
      </trkpt>
      <trkpt lat="44.37218" lon="3.53082">
        <ele>563</ele>
        <time>2022-05-27T14:15:24Z</time>
      </trkpt>
      <trkpt lat="44.37218" lon="3.5308">
        <ele>563</ele>
        <time>2022-05-27T14:15:25Z</time>
      </trkpt>
      <trkpt lat="44.37218" lon="3.53079">
        <ele>563</ele>
        <time>2022-05-27T14:15:26Z</time>
      </trkpt>
      <trkpt lat="44.37219" lon="3.53077">
        <ele>564</ele>
        <time>2022-05-27T14:15:27Z</time>
      </trkpt>
      <trkpt lat="44.37219" lon="3.53076">
        <ele>564</ele>
        <time>2022-05-27T14:15:28Z</time>
      </trkpt>
      <trkpt lat="44.37219" lon="3.53074">
        <ele>564</ele>
        <time>2022-05-27T14:15:29Z</time>
      </trkpt>
      <trkpt lat="44.3722" lon="3.53072">
        <ele>565</ele>
        <time>2022-05-27T14:15:30Z</time>
      </trkpt>
      <trkpt lat="44.3722" lon="3.5307">
        <ele>565</ele>
        <time>2022-05-27T14:15:31Z</time>
      </trkpt>
      <trkpt lat="44.37221" lon="3.53069">
        <ele>565</ele>
        <time>2022-05-27T14:15:32Z</time>
      </trkpt>
      <trkpt lat="44.37221" lon="3.53067">
        <ele>565</ele>
        <time>2022-05-27T14:15:33Z</time>
      </trkpt>
      <trkpt lat="44.37222" lon="3.53065">
        <ele>565</ele>
        <time>2022-05-27T14:15:34Z</time>
      </trkpt>
      <trkpt lat="44.37222" lon="3.53063">
        <ele>565</ele>
        <time>2022-05-27T14:15:35Z</time>
      </trkpt>
      <trkpt lat="44.37223" lon="3.53061">
        <ele>564</ele>
        <time>2022-05-27T14:15:36Z</time>
      </trkpt>
      <trkpt lat="44.37223" lon="3.5306">
        <ele>563</ele>
        <time>2022-05-27T14:15:37Z</time>
      </trkpt>
      <trkpt lat="44.37224" lon="3.53058">
        <ele>564</ele>
        <time>2022-05-27T14:15:38Z</time>
      </trkpt>
      <trkpt lat="44.37224" lon="3.53055">
        <ele>564</ele>
        <time>2022-05-27T14:15:39Z</time>
      </trkpt>
      <trkpt lat="44.37224" lon="3.53053">
        <ele>564</ele>
        <time>2022-05-27T14:15:40Z</time>
      </trkpt>
      <trkpt lat="44.37224" lon="3.53051">
        <ele>564</ele>
        <time>2022-05-27T14:15:41Z</time>
      </trkpt>
      <trkpt lat="44.37225" lon="3.53049">
        <ele>565</ele>
        <time>2022-05-27T14:15:42Z</time>
      </trkpt>
      <trkpt lat="44.37225" lon="3.53047">
        <ele>565</ele>
        <time>2022-05-27T14:15:43Z</time>
      </trkpt>
      <trkpt lat="44.37225" lon="3.53045">
        <ele>565</ele>
        <time>2022-05-27T14:15:44Z</time>
      </trkpt>
      <trkpt lat="44.37226" lon="3.53043">
        <ele>565</ele>
        <time>2022-05-27T14:15:45Z</time>
      </trkpt>
      <trkpt lat="44.37227" lon="3.53041">
        <ele>564</ele>
        <time>2022-05-27T14:15:46Z</time>
      </trkpt>
      <trkpt lat="44.37227" lon="3.5304">
        <ele>565</ele>
        <time>2022-05-27T14:15:47Z</time>
      </trkpt>
      <trkpt lat="44.37227" lon="3.53038">
        <ele>565</ele>
        <time>2022-05-27T14:15:48Z</time>
      </trkpt>
      <trkpt lat="44.37227" lon="3.53036">
        <ele>565</ele>
        <time>2022-05-27T14:15:49Z</time>
      </trkpt>
      <trkpt lat="44.37227" lon="3.53034">
        <ele>565</ele>
        <time>2022-05-27T14:15:50Z</time>
      </trkpt>
      <trkpt lat="44.37228" lon="3.53032">
        <ele>564</ele>
        <time>2022-05-27T14:15:51Z</time>
      </trkpt>
      <trkpt lat="44.37228" lon="3.5303">
        <ele>564</ele>
        <time>2022-05-27T14:15:52Z</time>
      </trkpt>
      <trkpt lat="44.37228" lon="3.53028">
        <ele>564</ele>
        <time>2022-05-27T14:15:53Z</time>
      </trkpt>
      <trkpt lat="44.37228" lon="3.53026">
        <ele>564</ele>
        <time>2022-05-27T14:15:54Z</time>
      </trkpt>
      <trkpt lat="44.37229" lon="3.53024">
        <ele>564</ele>
        <time>2022-05-27T14:15:55Z</time>
      </trkpt>
      <trkpt lat="44.37229" lon="3.53023">
        <ele>564</ele>
        <time>2022-05-27T14:15:56Z</time>
      </trkpt>
      <trkpt lat="44.3723" lon="3.53022">
        <ele>564</ele>
        <time>2022-05-27T14:15:57Z</time>
      </trkpt>
      <trkpt lat="44.3723" lon="3.5302">
        <ele>563</ele>
        <time>2022-05-27T14:15:58Z</time>
      </trkpt>
      <trkpt lat="44.3723" lon="3.53019">
        <ele>563</ele>
        <time>2022-05-27T14:15:59Z</time>
      </trkpt>
      <trkpt lat="44.3723" lon="3.53017">
        <ele>563</ele>
        <time>2022-05-27T14:16:00Z</time>
      </trkpt>
      <trkpt lat="44.37231" lon="3.53015">
        <ele>563</ele>
        <time>2022-05-27T14:16:01Z</time>
      </trkpt>
      <trkpt lat="44.37232" lon="3.53013">
        <ele>563</ele>
        <time>2022-05-27T14:16:02Z</time>
      </trkpt>
      <trkpt lat="44.37232" lon="3.53012">
        <ele>563</ele>
        <time>2022-05-27T14:16:03Z</time>
      </trkpt>
      <trkpt lat="44.37232" lon="3.5301">
        <ele>563</ele>
        <time>2022-05-27T14:16:04Z</time>
      </trkpt>
      <trkpt lat="44.37232" lon="3.53008">
        <ele>562</ele>
        <time>2022-05-27T14:16:05Z</time>
      </trkpt>
      <trkpt lat="44.37232" lon="3.53006">
        <ele>562</ele>
        <time>2022-05-27T14:16:06Z</time>
      </trkpt>
      <trkpt lat="44.37232" lon="3.53004">
        <ele>562</ele>
        <time>2022-05-27T14:16:07Z</time>
      </trkpt>
      <trkpt lat="44.37233" lon="3.53002">
        <ele>562</ele>
        <time>2022-05-27T14:16:08Z</time>
      </trkpt>
      <trkpt lat="44.37233" lon="3.53">
        <ele>561</ele>
        <time>2022-05-27T14:16:09Z</time>
      </trkpt>
      <trkpt lat="44.37233" lon="3.52998">
        <ele>561</ele>
        <time>2022-05-27T14:16:10Z</time>
      </trkpt>
      <trkpt lat="44.37233" lon="3.52997">
        <ele>561</ele>
        <time>2022-05-27T14:16:11Z</time>
      </trkpt>
      <trkpt lat="44.37234" lon="3.52995">
        <ele>562</ele>
        <time>2022-05-27T14:16:12Z</time>
      </trkpt>
      <trkpt lat="44.37234" lon="3.52994">
        <ele>562</ele>
        <time>2022-05-27T14:16:13Z</time>
      </trkpt>
      <trkpt lat="44.37234" lon="3.52993">
        <ele>561</ele>
        <time>2022-05-27T14:16:14Z</time>
      </trkpt>
      <trkpt lat="44.37234" lon="3.52991">
        <ele>561</ele>
        <time>2022-05-27T14:16:15Z</time>
      </trkpt>
      <trkpt lat="44.37235" lon="3.5299">
        <ele>560</ele>
        <time>2022-05-27T14:16:16Z</time>
      </trkpt>
      <trkpt lat="44.37235" lon="3.52988">
        <ele>560</ele>
        <time>2022-05-27T14:16:17Z</time>
      </trkpt>
      <trkpt lat="44.37236" lon="3.52987">
        <ele>560</ele>
        <time>2022-05-27T14:16:18Z</time>
      </trkpt>
      <trkpt lat="44.37236" lon="3.52986">
        <ele>559</ele>
        <time>2022-05-27T14:16:19Z</time>
      </trkpt>
      <trkpt lat="44.37237" lon="3.52984">
        <ele>559</ele>
        <time>2022-05-27T14:16:20Z</time>
      </trkpt>
      <trkpt lat="44.37238" lon="3.52983">
        <ele>559</ele>
        <time>2022-05-27T14:16:21Z</time>
      </trkpt>
      <trkpt lat="44.37238" lon="3.52981">
        <ele>559</ele>
        <time>2022-05-27T14:16:22Z</time>
      </trkpt>
      <trkpt lat="44.37239" lon="3.52979">
        <ele>559</ele>
        <time>2022-05-27T14:16:23Z</time>
      </trkpt>
      <trkpt lat="44.3724" lon="3.52977">
        <ele>559</ele>
        <time>2022-05-27T14:16:24Z</time>
      </trkpt>
      <trkpt lat="44.3724" lon="3.52975">
        <ele>559</ele>
        <time>2022-05-27T14:16:25Z</time>
      </trkpt>
      <trkpt lat="44.37241" lon="3.52973">
        <ele>559</ele>
        <time>2022-05-27T14:16:26Z</time>
      </trkpt>
      <trkpt lat="44.37241" lon="3.52971">
        <ele>559</ele>
        <time>2022-05-27T14:16:27Z</time>
      </trkpt>
      <trkpt lat="44.37242" lon="3.52969">
        <ele>558</ele>
        <time>2022-05-27T14:16:28Z</time>
      </trkpt>
      <trkpt lat="44.37242" lon="3.52967">
        <ele>557</ele>
        <time>2022-05-27T14:16:29Z</time>
      </trkpt>
      <trkpt lat="44.37243" lon="3.52964">
        <ele>557</ele>
        <time>2022-05-27T14:16:30Z</time>
      </trkpt>
      <trkpt lat="44.37243" lon="3.52962">
        <ele>556</ele>
        <time>2022-05-27T14:16:31Z</time>
      </trkpt>
      <trkpt lat="44.37243" lon="3.52959">
        <ele>556</ele>
        <time>2022-05-27T14:16:32Z</time>
      </trkpt>
      <trkpt lat="44.37244" lon="3.52957">
        <ele>555</ele>
        <time>2022-05-27T14:16:33Z</time>
      </trkpt>
      <trkpt lat="44.37244" lon="3.52956">
        <ele>555</ele>
        <time>2022-05-27T14:16:34Z</time>
      </trkpt>
      <trkpt lat="44.37245" lon="3.52954">
        <ele>554</ele>
        <time>2022-05-27T14:16:35Z</time>
      </trkpt>
      <trkpt lat="44.37245" lon="3.52952">
        <ele>554</ele>
        <time>2022-05-27T14:16:36Z</time>
      </trkpt>
      <trkpt lat="44.37246" lon="3.5295">
        <ele>554</ele>
        <time>2022-05-27T14:16:37Z</time>
      </trkpt>
      <trkpt lat="44.37246" lon="3.52949">
        <ele>553</ele>
        <time>2022-05-27T14:16:38Z</time>
      </trkpt>
      <trkpt lat="44.37247" lon="3.52948">
        <ele>552</ele>
        <time>2022-05-27T14:16:39Z</time>
      </trkpt>
      <trkpt lat="44.37247" lon="3.52946">
        <ele>552</ele>
        <time>2022-05-27T14:16:40Z</time>
      </trkpt>
      <trkpt lat="44.37247" lon="3.52945">
        <ele>553</ele>
        <time>2022-05-27T14:16:41Z</time>
      </trkpt>
      <trkpt lat="44.37247" lon="3.52943">
        <ele>553</ele>
        <time>2022-05-27T14:16:42Z</time>
      </trkpt>
      <trkpt lat="44.37248" lon="3.52942">
        <ele>553</ele>
        <time>2022-05-27T14:16:43Z</time>
      </trkpt>
      <trkpt lat="44.37248" lon="3.5294">
        <ele>554</ele>
        <time>2022-05-27T14:16:44Z</time>
      </trkpt>
      <trkpt lat="44.37248" lon="3.52938">
        <ele>554</ele>
        <time>2022-05-27T14:16:45Z</time>
      </trkpt>
      <trkpt lat="44.37249" lon="3.52936">
        <ele>554</ele>
        <time>2022-05-27T14:16:46Z</time>
      </trkpt>
      <trkpt lat="44.37249" lon="3.52935">
        <ele>554</ele>
        <time>2022-05-27T14:16:47Z</time>
      </trkpt>
      <trkpt lat="44.3725" lon="3.52932">
        <ele>555</ele>
        <time>2022-05-27T14:16:48Z</time>
      </trkpt>
      <trkpt lat="44.3725" lon="3.52931">
        <ele>555</ele>
        <time>2022-05-27T14:16:49Z</time>
      </trkpt>
      <trkpt lat="44.3725" lon="3.52929">
        <ele>556</ele>
        <time>2022-05-27T14:16:50Z</time>
      </trkpt>
      <trkpt lat="44.37251" lon="3.52927">
        <ele>556</ele>
        <time>2022-05-27T14:16:51Z</time>
      </trkpt>
      <trkpt lat="44.37251" lon="3.52926">
        <ele>556</ele>
        <time>2022-05-27T14:16:52Z</time>
      </trkpt>
      <trkpt lat="44.37252" lon="3.52924">
        <ele>555</ele>
        <time>2022-05-27T14:16:53Z</time>
      </trkpt>
      <trkpt lat="44.37252" lon="3.52923">
        <ele>555</ele>
        <time>2022-05-27T14:16:54Z</time>
      </trkpt>
      <trkpt lat="44.37252" lon="3.52921">
        <ele>554</ele>
        <time>2022-05-27T14:16:55Z</time>
      </trkpt>
      <trkpt lat="44.37253" lon="3.5292">
        <ele>555</ele>
        <time>2022-05-27T14:16:56Z</time>
      </trkpt>
      <trkpt lat="44.37253" lon="3.52918">
        <ele>554</ele>
        <time>2022-05-27T14:16:57Z</time>
      </trkpt>
      <trkpt lat="44.37253" lon="3.52917">
        <ele>554</ele>
        <time>2022-05-27T14:16:58Z</time>
      </trkpt>
      <trkpt lat="44.37254" lon="3.52915">
        <ele>554</ele>
        <time>2022-05-27T14:16:59Z</time>
      </trkpt>
      <trkpt lat="44.37254" lon="3.52913">
        <ele>554</ele>
        <time>2022-05-27T14:17:00Z</time>
      </trkpt>
      <trkpt lat="44.37254" lon="3.52912">
        <ele>555</ele>
        <time>2022-05-27T14:17:01Z</time>
      </trkpt>
      <trkpt lat="44.37254" lon="3.5291">
        <ele>554</ele>
        <time>2022-05-27T14:17:02Z</time>
      </trkpt>
      <trkpt lat="44.37255" lon="3.52908">
        <ele>555</ele>
        <time>2022-05-27T14:17:03Z</time>
      </trkpt>
      <trkpt lat="44.37255" lon="3.52907">
        <ele>554</ele>
        <time>2022-05-27T14:17:04Z</time>
      </trkpt>
      <trkpt lat="44.37256" lon="3.52905">
        <ele>555</ele>
        <time>2022-05-27T14:17:05Z</time>
      </trkpt>
      <trkpt lat="44.37256" lon="3.52904">
        <ele>555</ele>
        <time>2022-05-27T14:17:06Z</time>
      </trkpt>
      <trkpt lat="44.37257" lon="3.52902">
        <ele>554</ele>
        <time>2022-05-27T14:17:07Z</time>
      </trkpt>
      <trkpt lat="44.37258" lon="3.529">
        <ele>554</ele>
        <time>2022-05-27T14:17:08Z</time>
      </trkpt>
      <trkpt lat="44.37258" lon="3.52898">
        <ele>554</ele>
        <time>2022-05-27T14:17:09Z</time>
      </trkpt>
      <trkpt lat="44.37259" lon="3.52897">
        <ele>555</ele>
        <time>2022-05-27T14:17:10Z</time>
      </trkpt>
      <trkpt lat="44.37259" lon="3.52895">
        <ele>554</ele>
        <time>2022-05-27T14:17:11Z</time>
      </trkpt>
      <trkpt lat="44.37259" lon="3.52893">
        <ele>555</ele>
        <time>2022-05-27T14:17:12Z</time>
      </trkpt>
      <trkpt lat="44.37259" lon="3.52892">
        <ele>555</ele>
        <time>2022-05-27T14:17:13Z</time>
      </trkpt>
      <trkpt lat="44.3726" lon="3.5289">
        <ele>555</ele>
        <time>2022-05-27T14:17:14Z</time>
      </trkpt>
      <trkpt lat="44.3726" lon="3.52888">
        <ele>556</ele>
        <time>2022-05-27T14:17:15Z</time>
      </trkpt>
      <trkpt lat="44.37259" lon="3.52886">
        <ele>556</ele>
        <time>2022-05-27T14:17:16Z</time>
      </trkpt>
      <trkpt lat="44.37259" lon="3.52884">
        <ele>557</ele>
        <time>2022-05-27T14:17:17Z</time>
      </trkpt>
      <trkpt lat="44.37259" lon="3.52883">
        <ele>557</ele>
        <time>2022-05-27T14:17:18Z</time>
      </trkpt>
      <trkpt lat="44.37259" lon="3.52881">
        <ele>558</ele>
        <time>2022-05-27T14:17:19Z</time>
      </trkpt>
      <trkpt lat="44.37258" lon="3.5288">
        <ele>558</ele>
        <time>2022-05-27T14:17:20Z</time>
      </trkpt>
      <trkpt lat="44.37257" lon="3.52878">
        <ele>559</ele>
        <time>2022-05-27T14:17:21Z</time>
      </trkpt>
      <trkpt lat="44.37256" lon="3.52877">
        <ele>560</ele>
        <time>2022-05-27T14:17:22Z</time>
      </trkpt>
      <trkpt lat="44.37256" lon="3.52876">
        <ele>560</ele>
        <time>2022-05-27T14:17:23Z</time>
      </trkpt>
      <trkpt lat="44.37255" lon="3.52874">
        <ele>561</ele>
        <time>2022-05-27T14:17:24Z</time>
      </trkpt>
      <trkpt lat="44.37254" lon="3.52872">
        <ele>561</ele>
        <time>2022-05-27T14:17:25Z</time>
      </trkpt>
      <trkpt lat="44.37254" lon="3.5287">
        <ele>560</ele>
        <time>2022-05-27T14:17:26Z</time>
      </trkpt>
      <trkpt lat="44.37253" lon="3.52869">
        <ele>560</ele>
        <time>2022-05-27T14:17:27Z</time>
      </trkpt>
      <trkpt lat="44.37252" lon="3.52868">
        <ele>560</ele>
        <time>2022-05-27T14:17:28Z</time>
      </trkpt>
      <trkpt lat="44.37252" lon="3.52866">
        <ele>560</ele>
        <time>2022-05-27T14:17:29Z</time>
      </trkpt>
      <trkpt lat="44.37251" lon="3.52865">
        <ele>560</ele>
        <time>2022-05-27T14:17:30Z</time>
      </trkpt>
      <trkpt lat="44.37251" lon="3.52863">
        <ele>559</ele>
        <time>2022-05-27T14:17:31Z</time>
      </trkpt>
      <trkpt lat="44.37249" lon="3.52861">
        <ele>559</ele>
        <time>2022-05-27T14:17:32Z</time>
      </trkpt>
      <trkpt lat="44.37249" lon="3.52859">
        <ele>560</ele>
        <time>2022-05-27T14:17:33Z</time>
      </trkpt>
      <trkpt lat="44.37248" lon="3.52858">
        <ele>560</ele>
        <time>2022-05-27T14:17:34Z</time>
      </trkpt>
      <trkpt lat="44.37247" lon="3.52856">
        <ele>560</ele>
        <time>2022-05-27T14:17:35Z</time>
      </trkpt>
      <trkpt lat="44.37246" lon="3.52854">
        <ele>559</ele>
        <time>2022-05-27T14:17:36Z</time>
      </trkpt>
      <trkpt lat="44.37246" lon="3.52852">
        <ele>559</ele>
        <time>2022-05-27T14:17:37Z</time>
      </trkpt>
      <trkpt lat="44.37245" lon="3.52851">
        <ele>559</ele>
        <time>2022-05-27T14:17:38Z</time>
      </trkpt>
      <trkpt lat="44.37245" lon="3.52849">
        <ele>558</ele>
        <time>2022-05-27T14:17:39Z</time>
      </trkpt>
      <trkpt lat="44.37244" lon="3.52848">
        <ele>558</ele>
        <time>2022-05-27T14:17:40Z</time>
      </trkpt>
      <trkpt lat="44.37244" lon="3.52847">
        <ele>558</ele>
        <time>2022-05-27T14:17:41Z</time>
      </trkpt>
      <trkpt lat="44.37244" lon="3.52845">
        <ele>558</ele>
        <time>2022-05-27T14:17:42Z</time>
      </trkpt>
      <trkpt lat="44.37243" lon="3.52844">
        <ele>558</ele>
        <time>2022-05-27T14:17:43Z</time>
      </trkpt>
      <trkpt lat="44.37243" lon="3.52842">
        <ele>558</ele>
        <time>2022-05-27T14:17:44Z</time>
      </trkpt>
      <trkpt lat="44.37242" lon="3.5284">
        <ele>558</ele>
        <time>2022-05-27T14:17:45Z</time>
      </trkpt>
      <trkpt lat="44.37241" lon="3.52839">
        <ele>557</ele>
        <time>2022-05-27T14:17:46Z</time>
      </trkpt>
      <trkpt lat="44.37241" lon="3.52838">
        <ele>557</ele>
        <time>2022-05-27T14:17:47Z</time>
      </trkpt>
      <trkpt lat="44.37241" lon="3.52836">
        <ele>557</ele>
        <time>2022-05-27T14:17:48Z</time>
      </trkpt>
      <trkpt lat="44.3724" lon="3.52835">
        <ele>556</ele>
        <time>2022-05-27T14:17:49Z</time>
      </trkpt>
      <trkpt lat="44.3724" lon="3.52832">
        <ele>556</ele>
        <time>2022-05-27T14:17:50Z</time>
      </trkpt>
      <trkpt lat="44.3724" lon="3.52831">
        <ele>556</ele>
        <time>2022-05-27T14:17:51Z</time>
      </trkpt>
      <trkpt lat="44.37239" lon="3.52828">
        <ele>556</ele>
        <time>2022-05-27T14:17:52Z</time>
      </trkpt>
      <trkpt lat="44.37239" lon="3.52827">
        <ele>555</ele>
        <time>2022-05-27T14:17:53Z</time>
      </trkpt>
      <trkpt lat="44.37239" lon="3.52824">
        <ele>555</ele>
        <time>2022-05-27T14:17:54Z</time>
      </trkpt>
      <trkpt lat="44.37238" lon="3.52822">
        <ele>555</ele>
        <time>2022-05-27T14:17:55Z</time>
      </trkpt>
      <trkpt lat="44.37238" lon="3.5282">
        <ele>556</ele>
        <time>2022-05-27T14:17:56Z</time>
      </trkpt>
      <trkpt lat="44.37238" lon="3.52817">
        <ele>556</ele>
        <time>2022-05-27T14:17:57Z</time>
      </trkpt>
      <trkpt lat="44.37238" lon="3.52816">
        <ele>557</ele>
        <time>2022-05-27T14:17:58Z</time>
      </trkpt>
      <trkpt lat="44.37237" lon="3.52814">
        <ele>557</ele>
        <time>2022-05-27T14:17:59Z</time>
      </trkpt>
      <trkpt lat="44.37237" lon="3.52812">
        <ele>558</ele>
        <time>2022-05-27T14:18:00Z</time>
      </trkpt>
      <trkpt lat="44.37237" lon="3.5281">
        <ele>558</ele>
        <time>2022-05-27T14:18:01Z</time>
      </trkpt>
      <trkpt lat="44.37237" lon="3.52809">
        <ele>559</ele>
        <time>2022-05-27T14:18:02Z</time>
      </trkpt>
      <trkpt lat="44.37236" lon="3.52808">
        <ele>559</ele>
        <time>2022-05-27T14:18:03Z</time>
      </trkpt>
      <trkpt lat="44.37236" lon="3.52806">
        <ele>559</ele>
        <time>2022-05-27T14:18:04Z</time>
      </trkpt>
      <trkpt lat="44.37236" lon="3.52804">
        <ele>559</ele>
        <time>2022-05-27T14:18:05Z</time>
      </trkpt>
      <trkpt lat="44.37236" lon="3.52802">
        <ele>559</ele>
        <time>2022-05-27T14:18:06Z</time>
      </trkpt>
      <trkpt lat="44.37236" lon="3.52799">
        <ele>559</ele>
        <time>2022-05-27T14:18:07Z</time>
      </trkpt>
      <trkpt lat="44.37236" lon="3.52797">
        <ele>558</ele>
        <time>2022-05-27T14:18:08Z</time>
      </trkpt>
      <trkpt lat="44.37236" lon="3.52795">
        <ele>558</ele>
        <time>2022-05-27T14:18:09Z</time>
      </trkpt>
      <trkpt lat="44.37236" lon="3.52794">
        <ele>557</ele>
        <time>2022-05-27T14:18:10Z</time>
      </trkpt>
      <trkpt lat="44.37237" lon="3.52792">
        <ele>557</ele>
        <time>2022-05-27T14:18:11Z</time>
      </trkpt>
      <trkpt lat="44.37238" lon="3.52791">
        <ele>557</ele>
        <time>2022-05-27T14:18:12Z</time>
      </trkpt>
      <trkpt lat="44.37238" lon="3.5279">
        <ele>557</ele>
        <time>2022-05-27T14:18:13Z</time>
      </trkpt>
      <trkpt lat="44.37239" lon="3.52788">
        <ele>557</ele>
        <time>2022-05-27T14:18:14Z</time>
      </trkpt>
      <trkpt lat="44.37239" lon="3.52787">
        <ele>557</ele>
        <time>2022-05-27T14:18:15Z</time>
      </trkpt>
      <trkpt lat="44.3724" lon="3.52786">
        <ele>558</ele>
        <time>2022-05-27T14:18:16Z</time>
      </trkpt>
      <trkpt lat="44.37241" lon="3.52785">
        <ele>558</ele>
        <time>2022-05-27T14:18:17Z</time>
      </trkpt>
      <trkpt lat="44.37241" lon="3.52783">
        <ele>558</ele>
        <time>2022-05-27T14:18:18Z</time>
      </trkpt>
      <trkpt lat="44.37242" lon="3.52782">
        <ele>558</ele>
        <time>2022-05-27T14:18:19Z</time>
      </trkpt>
      <trkpt lat="44.37243" lon="3.52781">
        <ele>558</ele>
        <time>2022-05-27T14:18:20Z</time>
      </trkpt>
      <trkpt lat="44.37244" lon="3.52779">
        <ele>558</ele>
        <time>2022-05-27T14:18:21Z</time>
      </trkpt>
      <trkpt lat="44.37244" lon="3.52778">
        <ele>557</ele>
        <time>2022-05-27T14:18:22Z</time>
      </trkpt>
      <trkpt lat="44.37245" lon="3.52777">
        <ele>557</ele>
        <time>2022-05-27T14:18:23Z</time>
      </trkpt>
      <trkpt lat="44.37246" lon="3.52776">
        <ele>557</ele>
        <time>2022-05-27T14:18:24Z</time>
      </trkpt>
      <trkpt lat="44.37247" lon="3.52774">
        <ele>556</ele>
        <time>2022-05-27T14:18:25Z</time>
      </trkpt>
      <trkpt lat="44.37248" lon="3.52773">
        <ele>555</ele>
        <time>2022-05-27T14:18:26Z</time>
      </trkpt>
      <trkpt lat="44.37249" lon="3.52772">
        <ele>555</ele>
        <time>2022-05-27T14:18:27Z</time>
      </trkpt>
      <trkpt lat="44.3725" lon="3.52771">
        <ele>554</ele>
        <time>2022-05-27T14:18:28Z</time>
      </trkpt>
      <trkpt lat="44.37251" lon="3.5277">
        <ele>554</ele>
        <time>2022-05-27T14:18:29Z</time>
      </trkpt>
      <trkpt lat="44.37252" lon="3.52769">
        <ele>554</ele>
        <time>2022-05-27T14:18:30Z</time>
      </trkpt>
      <trkpt lat="44.37254" lon="3.52768">
        <ele>554</ele>
        <time>2022-05-27T14:18:31Z</time>
      </trkpt>
      <trkpt lat="44.37255" lon="3.52767">
        <ele>554</ele>
        <time>2022-05-27T14:18:32Z</time>
      </trkpt>
      <trkpt lat="44.37256" lon="3.52767">
        <ele>554</ele>
        <time>2022-05-27T14:18:33Z</time>
      </trkpt>
      <trkpt lat="44.37256" lon="3.52766">
        <ele>554</ele>
        <time>2022-05-27T14:18:34Z</time>
      </trkpt>
      <trkpt lat="44.37257" lon="3.52766">
        <ele>553</ele>
        <time>2022-05-27T14:18:35Z</time>
      </trkpt>
      <trkpt lat="44.37258" lon="3.52765">
        <ele>553</ele>
        <time>2022-05-27T14:18:36Z</time>
      </trkpt>
      <trkpt lat="44.37259" lon="3.52765">
        <ele>553</ele>
        <time>2022-05-27T14:18:37Z</time>
      </trkpt>
      <trkpt lat="44.3726" lon="3.52765">
        <ele>553</ele>
        <time>2022-05-27T14:18:38Z</time>
      </trkpt>
      <trkpt lat="44.37262" lon="3.52764">
        <ele>553</ele>
        <time>2022-05-27T14:18:39Z</time>
      </trkpt>
      <trkpt lat="44.37263" lon="3.52764">
        <ele>552</ele>
        <time>2022-05-27T14:18:40Z</time>
      </trkpt>
      <trkpt lat="44.37264" lon="3.52763">
        <ele>552</ele>
        <time>2022-05-27T14:18:41Z</time>
      </trkpt>
      <trkpt lat="44.37265" lon="3.52762">
        <ele>552</ele>
        <time>2022-05-27T14:18:42Z</time>
      </trkpt>
      <trkpt lat="44.37267" lon="3.52761">
        <ele>552</ele>
        <time>2022-05-27T14:18:43Z</time>
      </trkpt>
      <trkpt lat="44.37267" lon="3.5276">
        <ele>553</ele>
        <time>2022-05-27T14:18:44Z</time>
      </trkpt>
      <trkpt lat="44.37268" lon="3.52759">
        <ele>553</ele>
        <time>2022-05-27T14:18:45Z</time>
      </trkpt>
      <trkpt lat="44.3727" lon="3.52759">
        <ele>553</ele>
        <time>2022-05-27T14:18:46Z</time>
      </trkpt>
      <trkpt lat="44.37271" lon="3.52758">
        <ele>552</ele>
        <time>2022-05-27T14:18:47Z</time>
      </trkpt>
      <trkpt lat="44.37272" lon="3.52757">
        <ele>553</ele>
        <time>2022-05-27T14:18:48Z</time>
      </trkpt>
      <trkpt lat="44.37273" lon="3.52757">
        <ele>553</ele>
        <time>2022-05-27T14:18:49Z</time>
      </trkpt>
      <trkpt lat="44.37274" lon="3.52756">
        <ele>554</ele>
        <time>2022-05-27T14:18:50Z</time>
      </trkpt>
      <trkpt lat="44.37275" lon="3.52756">
        <ele>554</ele>
        <time>2022-05-27T14:18:51Z</time>
      </trkpt>
      <trkpt lat="44.37275" lon="3.52755">
        <ele>554</ele>
        <time>2022-05-27T14:18:52Z</time>
      </trkpt>
      <trkpt lat="44.37276" lon="3.52754">
        <ele>554</ele>
        <time>2022-05-27T14:18:53Z</time>
      </trkpt>
      <trkpt lat="44.37276" lon="3.52753">
        <ele>554</ele>
        <time>2022-05-27T14:18:54Z</time>
      </trkpt>
      <trkpt lat="44.37277" lon="3.52753">
        <ele>555</ele>
        <time>2022-05-27T14:18:55Z</time>
      </trkpt>
      <trkpt lat="44.37277" lon="3.52752">
        <ele>555</ele>
        <time>2022-05-27T14:18:56Z</time>
      </trkpt>
      <trkpt lat="44.37278" lon="3.52752">
        <ele>555</ele>
        <time>2022-05-27T14:18:57Z</time>
      </trkpt>
      <trkpt lat="44.37279" lon="3.52751">
        <ele>556</ele>
        <time>2022-05-27T14:18:58Z</time>
      </trkpt>
      <trkpt lat="44.37281" lon="3.52749">
        <ele>555</ele>
        <time>2022-05-27T14:18:59Z</time>
      </trkpt>
      <trkpt lat="44.37282" lon="3.52748">
        <ele>555</ele>
        <time>2022-05-27T14:19:00Z</time>
      </trkpt>
      <trkpt lat="44.37283" lon="3.52747">
        <ele>555</ele>
        <time>2022-05-27T14:19:01Z</time>
      </trkpt>
      <trkpt lat="44.37285" lon="3.52746">
        <ele>555</ele>
        <time>2022-05-27T14:19:02Z</time>
      </trkpt>
      <trkpt lat="44.37286" lon="3.52745">
        <ele>555</ele>
        <time>2022-05-27T14:19:03Z</time>
      </trkpt>
      <trkpt lat="44.37287" lon="3.52744">
        <ele>554</ele>
        <time>2022-05-27T14:19:04Z</time>
      </trkpt>
      <trkpt lat="44.37289" lon="3.52744">
        <ele>554</ele>
        <time>2022-05-27T14:19:05Z</time>
      </trkpt>
      <trkpt lat="44.3729" lon="3.52743">
        <ele>554</ele>
        <time>2022-05-27T14:19:06Z</time>
      </trkpt>
      <trkpt lat="44.37291" lon="3.52742">
        <ele>554</ele>
        <time>2022-05-27T14:19:07Z</time>
      </trkpt>
      <trkpt lat="44.37293" lon="3.52741">
        <ele>554</ele>
        <time>2022-05-27T14:19:08Z</time>
      </trkpt>
      <trkpt lat="44.37294" lon="3.52741">
        <ele>554</ele>
        <time>2022-05-27T14:19:09Z</time>
      </trkpt>
      <trkpt lat="44.37295" lon="3.5274">
        <ele>554</ele>
        <time>2022-05-27T14:19:10Z</time>
      </trkpt>
      <trkpt lat="44.37297" lon="3.52739">
        <ele>555</ele>
        <time>2022-05-27T14:19:11Z</time>
      </trkpt>
      <trkpt lat="44.37298" lon="3.52738">
        <ele>555</ele>
        <time>2022-05-27T14:19:12Z</time>
      </trkpt>
      <trkpt lat="44.37299" lon="3.52736">
        <ele>555</ele>
        <time>2022-05-27T14:19:13Z</time>
      </trkpt>
      <trkpt lat="44.373" lon="3.52735">
        <ele>555</ele>
        <time>2022-05-27T14:19:14Z</time>
      </trkpt>
      <trkpt lat="44.37301" lon="3.52733">
        <ele>555</ele>
        <time>2022-05-27T14:19:15Z</time>
      </trkpt>
      <trkpt lat="44.37302" lon="3.52731">
        <ele>556</ele>
        <time>2022-05-27T14:19:16Z</time>
      </trkpt>
      <trkpt lat="44.37303" lon="3.5273">
        <ele>556</ele>
        <time>2022-05-27T14:19:17Z</time>
      </trkpt>
      <trkpt lat="44.37304" lon="3.52729">
        <ele>556</ele>
        <time>2022-05-27T14:19:18Z</time>
      </trkpt>
      <trkpt lat="44.37306" lon="3.52727">
        <ele>556</ele>
        <time>2022-05-27T14:19:19Z</time>
      </trkpt>
      <trkpt lat="44.37307" lon="3.52726">
        <ele>556</ele>
        <time>2022-05-27T14:19:20Z</time>
      </trkpt>
      <trkpt lat="44.37308" lon="3.52725">
        <ele>556</ele>
        <time>2022-05-27T14:19:21Z</time>
      </trkpt>
      <trkpt lat="44.37309" lon="3.52724">
        <ele>556</ele>
        <time>2022-05-27T14:19:22Z</time>
      </trkpt>
      <trkpt lat="44.3731" lon="3.52724">
        <ele>557</ele>
        <time>2022-05-27T14:19:23Z</time>
      </trkpt>
      <trkpt lat="44.37311" lon="3.52723">
        <ele>557</ele>
        <time>2022-05-27T14:19:24Z</time>
      </trkpt>
      <trkpt lat="44.37312" lon="3.52722">
        <ele>557</ele>
        <time>2022-05-27T14:19:25Z</time>
      </trkpt>
      <trkpt lat="44.37313" lon="3.5272">
        <ele>558</ele>
        <time>2022-05-27T14:19:26Z</time>
      </trkpt>
      <trkpt lat="44.37314" lon="3.52719">
        <ele>558</ele>
        <time>2022-05-27T14:19:27Z</time>
      </trkpt>
      <trkpt lat="44.37315" lon="3.52718">
        <ele>558</ele>
        <time>2022-05-27T14:19:28Z</time>
      </trkpt>
      <trkpt lat="44.37316" lon="3.52717">
        <ele>558</ele>
        <time>2022-05-27T14:19:29Z</time>
      </trkpt>
      <trkpt lat="44.37318" lon="3.52715">
        <ele>558</ele>
        <time>2022-05-27T14:19:30Z</time>
      </trkpt>
      <trkpt lat="44.37319" lon="3.52714">
        <ele>558</ele>
        <time>2022-05-27T14:19:31Z</time>
      </trkpt>
      <trkpt lat="44.3732" lon="3.52713">
        <ele>558</ele>
        <time>2022-05-27T14:19:32Z</time>
      </trkpt>
      <trkpt lat="44.37322" lon="3.52712">
        <ele>558</ele>
        <time>2022-05-27T14:19:33Z</time>
      </trkpt>
      <trkpt lat="44.37323" lon="3.52711">
        <ele>558</ele>
        <time>2022-05-27T14:19:34Z</time>
      </trkpt>
      <trkpt lat="44.37325" lon="3.5271">
        <ele>558</ele>
        <time>2022-05-27T14:19:35Z</time>
      </trkpt>
      <trkpt lat="44.37326" lon="3.52709">
        <ele>558</ele>
        <time>2022-05-27T14:19:36Z</time>
      </trkpt>
      <trkpt lat="44.37327" lon="3.52708">
        <ele>557</ele>
        <time>2022-05-27T14:19:37Z</time>
      </trkpt>
      <trkpt lat="44.37328" lon="3.52706">
        <ele>557</ele>
        <time>2022-05-27T14:19:38Z</time>
      </trkpt>
      <trkpt lat="44.37329" lon="3.52705">
        <ele>557</ele>
        <time>2022-05-27T14:19:39Z</time>
      </trkpt>
      <trkpt lat="44.3733" lon="3.52704">
        <ele>556</ele>
        <time>2022-05-27T14:19:40Z</time>
      </trkpt>
      <trkpt lat="44.37331" lon="3.52703">
        <ele>556</ele>
        <time>2022-05-27T14:19:41Z</time>
      </trkpt>
      <trkpt lat="44.37332" lon="3.52702">
        <ele>556</ele>
        <time>2022-05-27T14:19:42Z</time>
      </trkpt>
      <trkpt lat="44.37333" lon="3.52701">
        <ele>555</ele>
        <time>2022-05-27T14:19:43Z</time>
      </trkpt>
      <trkpt lat="44.37334" lon="3.527">
        <ele>555</ele>
        <time>2022-05-27T14:19:44Z</time>
      </trkpt>
      <trkpt lat="44.37335" lon="3.52699">
        <ele>555</ele>
        <time>2022-05-27T14:19:45Z</time>
      </trkpt>
      <trkpt lat="44.37336" lon="3.52698">
        <ele>555</ele>
        <time>2022-05-27T14:19:46Z</time>
      </trkpt>
      <trkpt lat="44.37338" lon="3.52697">
        <ele>556</ele>
        <time>2022-05-27T14:19:47Z</time>
      </trkpt>
      <trkpt lat="44.37339" lon="3.52695">
        <ele>555</ele>
        <time>2022-05-27T14:19:48Z</time>
      </trkpt>
      <trkpt lat="44.3734" lon="3.52694">
        <ele>555</ele>
        <time>2022-05-27T14:19:49Z</time>
      </trkpt>
      <trkpt lat="44.37341" lon="3.52693">
        <ele>555</ele>
        <time>2022-05-27T14:19:50Z</time>
      </trkpt>
      <trkpt lat="44.37342" lon="3.52692">
        <ele>555</ele>
        <time>2022-05-27T14:19:51Z</time>
      </trkpt>
      <trkpt lat="44.37343" lon="3.52691">
        <ele>555</ele>
        <time>2022-05-27T14:19:52Z</time>
      </trkpt>
      <trkpt lat="44.37344" lon="3.52689">
        <ele>555</ele>
        <time>2022-05-27T14:19:53Z</time>
      </trkpt>
      <trkpt lat="44.37345" lon="3.52688">
        <ele>555</ele>
        <time>2022-05-27T14:19:54Z</time>
      </trkpt>
      <trkpt lat="44.37346" lon="3.52686">
        <ele>556</ele>
        <time>2022-05-27T14:19:55Z</time>
      </trkpt>
      <trkpt lat="44.37347" lon="3.52684">
        <ele>556</ele>
        <time>2022-05-27T14:19:56Z</time>
      </trkpt>
      <trkpt lat="44.37348" lon="3.52683">
        <ele>556</ele>
        <time>2022-05-27T14:19:57Z</time>
      </trkpt>
      <trkpt lat="44.37349" lon="3.52681">
        <ele>556</ele>
        <time>2022-05-27T14:19:58Z</time>
      </trkpt>
      <trkpt lat="44.37351" lon="3.52679">
        <ele>556</ele>
        <time>2022-05-27T14:19:59Z</time>
      </trkpt>
      <trkpt lat="44.37351" lon="3.52678">
        <ele>556</ele>
        <time>2022-05-27T14:20:00Z</time>
      </trkpt>
      <trkpt lat="44.37352" lon="3.52677">
        <ele>556</ele>
        <time>2022-05-27T14:20:01Z</time>
      </trkpt>
      <trkpt lat="44.37353" lon="3.52675">
        <ele>555</ele>
        <time>2022-05-27T14:20:02Z</time>
      </trkpt>
      <trkpt lat="44.37354" lon="3.52674">
        <ele>556</ele>
        <time>2022-05-27T14:20:03Z</time>
      </trkpt>
      <trkpt lat="44.37355" lon="3.52672">
        <ele>556</ele>
        <time>2022-05-27T14:20:04Z</time>
      </trkpt>
      <trkpt lat="44.37356" lon="3.52671">
        <ele>556</ele>
        <time>2022-05-27T14:20:05Z</time>
      </trkpt>
      <trkpt lat="44.37357" lon="3.52669">
        <ele>556</ele>
        <time>2022-05-27T14:20:06Z</time>
      </trkpt>
      <trkpt lat="44.37358" lon="3.52667">
        <ele>556</ele>
        <time>2022-05-27T14:20:07Z</time>
      </trkpt>
      <trkpt lat="44.37358" lon="3.52666">
        <ele>556</ele>
        <time>2022-05-27T14:20:08Z</time>
      </trkpt>
      <trkpt lat="44.37359" lon="3.52664">
        <ele>556</ele>
        <time>2022-05-27T14:20:09Z</time>
      </trkpt>
      <trkpt lat="44.3736" lon="3.52662">
        <ele>555</ele>
        <time>2022-05-27T14:20:10Z</time>
      </trkpt>
      <trkpt lat="44.37361" lon="3.5266">
        <ele>555</ele>
        <time>2022-05-27T14:20:11Z</time>
      </trkpt>
      <trkpt lat="44.37362" lon="3.52659">
        <ele>555</ele>
        <time>2022-05-27T14:20:12Z</time>
      </trkpt>
      <trkpt lat="44.37363" lon="3.52658">
        <ele>556</ele>
        <time>2022-05-27T14:20:13Z</time>
      </trkpt>
      <trkpt lat="44.37363" lon="3.52656">
        <ele>556</ele>
        <time>2022-05-27T14:20:14Z</time>
      </trkpt>
      <trkpt lat="44.37364" lon="3.52655">
        <ele>556</ele>
        <time>2022-05-27T14:20:15Z</time>
      </trkpt>
      <trkpt lat="44.37365" lon="3.52653">
        <ele>556</ele>
        <time>2022-05-27T14:20:16Z</time>
      </trkpt>
      <trkpt lat="44.37366" lon="3.52652">
        <ele>555</ele>
        <time>2022-05-27T14:20:17Z</time>
      </trkpt>
      <trkpt lat="44.37367" lon="3.5265">
        <ele>555</ele>
        <time>2022-05-27T14:20:18Z</time>
      </trkpt>
      <trkpt lat="44.37368" lon="3.52649">
        <ele>555</ele>
        <time>2022-05-27T14:20:19Z</time>
      </trkpt>
      <trkpt lat="44.3737" lon="3.52647">
        <ele>555</ele>
        <time>2022-05-27T14:20:20Z</time>
      </trkpt>
      <trkpt lat="44.37371" lon="3.52646">
        <ele>555</ele>
        <time>2022-05-27T14:20:21Z</time>
      </trkpt>
      <trkpt lat="44.37372" lon="3.52645">
        <ele>555</ele>
        <time>2022-05-27T14:20:22Z</time>
      </trkpt>
      <trkpt lat="44.37373" lon="3.52644">
        <ele>556</ele>
        <time>2022-05-27T14:20:23Z</time>
      </trkpt>
      <trkpt lat="44.37375" lon="3.52642">
        <ele>557</ele>
        <time>2022-05-27T14:20:24Z</time>
      </trkpt>
      <trkpt lat="44.37376" lon="3.52641">
        <ele>557</ele>
        <time>2022-05-27T14:20:25Z</time>
      </trkpt>
      <trkpt lat="44.37377" lon="3.5264">
        <ele>556</ele>
        <time>2022-05-27T14:20:26Z</time>
      </trkpt>
      <trkpt lat="44.37378" lon="3.52637">
        <ele>557</ele>
        <time>2022-05-27T14:20:27Z</time>
      </trkpt>
      <trkpt lat="44.37379" lon="3.52636">
        <ele>557</ele>
        <time>2022-05-27T14:20:28Z</time>
      </trkpt>
      <trkpt lat="44.3738" lon="3.52634">
        <ele>557</ele>
        <time>2022-05-27T14:20:29Z</time>
      </trkpt>
      <trkpt lat="44.37381" lon="3.52633">
        <ele>556</ele>
        <time>2022-05-27T14:20:30Z</time>
      </trkpt>
      <trkpt lat="44.37382" lon="3.52631">
        <ele>557</ele>
        <time>2022-05-27T14:20:32Z</time>
      </trkpt>
      <trkpt lat="44.37383" lon="3.5263">
        <ele>557</ele>
        <time>2022-05-27T14:20:32Z</time>
      </trkpt>
      <trkpt lat="44.37384" lon="3.52628">
        <ele>557</ele>
        <time>2022-05-27T14:20:34Z</time>
      </trkpt>
      <trkpt lat="44.37384" lon="3.52628">
        <ele>556</ele>
        <time>2022-05-27T14:20:35Z</time>
      </trkpt>
      <trkpt lat="44.37386" lon="3.52626">
        <ele>556</ele>
        <time>2022-05-27T14:20:36Z</time>
      </trkpt>
      <trkpt lat="44.37387" lon="3.52625">
        <ele>556</ele>
        <time>2022-05-27T14:20:37Z</time>
      </trkpt>
      <trkpt lat="44.37388" lon="3.52624">
        <ele>556</ele>
        <time>2022-05-27T14:20:38Z</time>
      </trkpt>
      <trkpt lat="44.37389" lon="3.52622">
        <ele>556</ele>
        <time>2022-05-27T14:20:39Z</time>
      </trkpt>
      <trkpt lat="44.37389" lon="3.52621">
        <ele>556</ele>
        <time>2022-05-27T14:20:40Z</time>
      </trkpt>
      <trkpt lat="44.3739" lon="3.5262">
        <ele>556</ele>
        <time>2022-05-27T14:20:41Z</time>
      </trkpt>
      <trkpt lat="44.37391" lon="3.52619">
        <ele>556</ele>
        <time>2022-05-27T14:20:42Z</time>
      </trkpt>
      <trkpt lat="44.37392" lon="3.52619">
        <ele>556</ele>
        <time>2022-05-27T14:20:43Z</time>
      </trkpt>
      <trkpt lat="44.37394" lon="3.52618">
        <ele>555</ele>
        <time>2022-05-27T14:20:44Z</time>
      </trkpt>
      <trkpt lat="44.37395" lon="3.52617">
        <ele>555</ele>
        <time>2022-05-27T14:20:45Z</time>
      </trkpt>
      <trkpt lat="44.37396" lon="3.52616">
        <ele>556</ele>
        <time>2022-05-27T14:20:46Z</time>
      </trkpt>
      <trkpt lat="44.37396" lon="3.52615">
        <ele>555</ele>
        <time>2022-05-27T14:20:47Z</time>
      </trkpt>
      <trkpt lat="44.37397" lon="3.52614">
        <ele>555</ele>
        <time>2022-05-27T14:20:48Z</time>
      </trkpt>
      <trkpt lat="44.37398" lon="3.52613">
        <ele>555</ele>
        <time>2022-05-27T14:20:49Z</time>
      </trkpt>
      <trkpt lat="44.37399" lon="3.52613">
        <ele>555</ele>
        <time>2022-05-27T14:20:50Z</time>
      </trkpt>
      <trkpt lat="44.374" lon="3.52611">
        <ele>555</ele>
        <time>2022-05-27T14:20:51Z</time>
      </trkpt>
      <trkpt lat="44.37401" lon="3.5261">
        <ele>555</ele>
        <time>2022-05-27T14:20:52Z</time>
      </trkpt>
      <trkpt lat="44.37402" lon="3.52609">
        <ele>555</ele>
        <time>2022-05-27T14:20:53Z</time>
      </trkpt>
      <trkpt lat="44.37403" lon="3.52608">
        <ele>554</ele>
        <time>2022-05-27T14:20:54Z</time>
      </trkpt>
      <trkpt lat="44.37404" lon="3.52607">
        <ele>554</ele>
        <time>2022-05-27T14:20:55Z</time>
      </trkpt>
      <trkpt lat="44.37404" lon="3.52607">
        <ele>554</ele>
        <time>2022-05-27T14:20:56Z</time>
      </trkpt>
      <trkpt lat="44.37405" lon="3.52606">
        <ele>554</ele>
        <time>2022-05-27T14:20:57Z</time>
      </trkpt>
      <trkpt lat="44.37406" lon="3.52605">
        <ele>554</ele>
        <time>2022-05-27T14:20:58Z</time>
      </trkpt>
      <trkpt lat="44.37406" lon="3.52604">
        <ele>555</ele>
        <time>2022-05-27T14:20:59Z</time>
      </trkpt>
      <trkpt lat="44.37407" lon="3.52603">
        <ele>555</ele>
        <time>2022-05-27T14:21:00Z</time>
      </trkpt>
      <trkpt lat="44.37407" lon="3.52602">
        <ele>555</ele>
        <time>2022-05-27T14:21:01Z</time>
      </trkpt>
      <trkpt lat="44.37408" lon="3.52601">
        <ele>555</ele>
        <time>2022-05-27T14:21:02Z</time>
      </trkpt>
      <trkpt lat="44.37409" lon="3.526">
        <ele>555</ele>
        <time>2022-05-27T14:21:03Z</time>
      </trkpt>
      <trkpt lat="44.3741" lon="3.52599">
        <ele>554</ele>
        <time>2022-05-27T14:21:04Z</time>
      </trkpt>
      <trkpt lat="44.3741" lon="3.52599">
        <ele>554</ele>
        <time>2022-05-27T14:21:05Z</time>
      </trkpt>
      <trkpt lat="44.3741" lon="3.52598">
        <ele>554</ele>
        <time>2022-05-27T14:21:06Z</time>
      </trkpt>
      <trkpt lat="44.37412" lon="3.52597">
        <ele>553</ele>
        <time>2022-05-27T14:21:07Z</time>
      </trkpt>
      <trkpt lat="44.37412" lon="3.52596">
        <ele>553</ele>
        <time>2022-05-27T14:21:08Z</time>
      </trkpt>
      <trkpt lat="44.37413" lon="3.52596">
        <ele>552</ele>
        <time>2022-05-27T14:21:09Z</time>
      </trkpt>
      <trkpt lat="44.37414" lon="3.52596">
        <ele>553</ele>
        <time>2022-05-27T14:21:10Z</time>
      </trkpt>
      <trkpt lat="44.37415" lon="3.52596">
        <ele>552</ele>
        <time>2022-05-27T14:21:11Z</time>
      </trkpt>
      <trkpt lat="44.37416" lon="3.52597">
        <ele>552</ele>
        <time>2022-05-27T14:21:12Z</time>
      </trkpt>
      <trkpt lat="44.37417" lon="3.52598">
        <ele>552</ele>
        <time>2022-05-27T14:21:13Z</time>
      </trkpt>
      <trkpt lat="44.37418" lon="3.52598">
        <ele>552</ele>
        <time>2022-05-27T14:21:14Z</time>
      </trkpt>
      <trkpt lat="44.37419" lon="3.52599">
        <ele>552</ele>
        <time>2022-05-27T14:21:15Z</time>
      </trkpt>
      <trkpt lat="44.3742" lon="3.526">
        <ele>552</ele>
        <time>2022-05-27T14:21:16Z</time>
      </trkpt>
      <trkpt lat="44.3742" lon="3.526">
        <ele>552</ele>
        <time>2022-05-27T14:21:17Z</time>
      </trkpt>
      <trkpt lat="44.37421" lon="3.52601">
        <ele>552</ele>
        <time>2022-05-27T14:21:18Z</time>
      </trkpt>
      <trkpt lat="44.37422" lon="3.526">
        <ele>552</ele>
        <time>2022-05-27T14:21:19Z</time>
      </trkpt>
      <trkpt lat="44.37422" lon="3.52601">
        <ele>551</ele>
        <time>2022-05-27T14:21:20Z</time>
      </trkpt>
      <trkpt lat="44.37423" lon="3.52601">
        <ele>551</ele>
        <time>2022-05-27T14:21:21Z</time>
      </trkpt>
      <trkpt lat="44.37423" lon="3.52602">
        <ele>551</ele>
        <time>2022-05-27T14:21:22Z</time>
      </trkpt>
      <trkpt lat="44.37423" lon="3.52603">
        <ele>551</ele>
        <time>2022-05-27T14:21:23Z</time>
      </trkpt>
      <trkpt lat="44.37423" lon="3.52604">
        <ele>550</ele>
        <time>2022-05-27T14:21:24Z</time>
      </trkpt>
      <trkpt lat="44.37423" lon="3.52605">
        <ele>551</ele>
        <time>2022-05-27T14:21:25Z</time>
      </trkpt>
      <trkpt lat="44.37423" lon="3.52606">
        <ele>550</ele>
        <time>2022-05-27T14:21:26Z</time>
      </trkpt>
      <trkpt lat="44.37423" lon="3.52607">
        <ele>550</ele>
        <time>2022-05-27T14:21:27Z</time>
      </trkpt>
      <trkpt lat="44.37422" lon="3.52608">
        <ele>550</ele>
        <time>2022-05-27T14:21:28Z</time>
      </trkpt>
      <trkpt lat="44.37422" lon="3.52609">
        <ele>550</ele>
        <time>2022-05-27T14:21:29Z</time>
      </trkpt>
      <trkpt lat="44.37423" lon="3.5261">
        <ele>550</ele>
        <time>2022-05-27T14:21:30Z</time>
      </trkpt>
      <trkpt lat="44.37423" lon="3.52612">
        <ele>550</ele>
        <time>2022-05-27T14:21:31Z</time>
      </trkpt>
      <trkpt lat="44.37423" lon="3.52613">
        <ele>550</ele>
        <time>2022-05-27T14:21:32Z</time>
      </trkpt>
      <trkpt lat="44.37423" lon="3.52614">
        <ele>550</ele>
        <time>2022-05-27T14:21:33Z</time>
      </trkpt>
      <trkpt lat="44.37424" lon="3.52615">
        <ele>550</ele>
        <time>2022-05-27T14:21:34Z</time>
      </trkpt>
      <trkpt lat="44.37425" lon="3.52616">
        <ele>550</ele>
        <time>2022-05-27T14:21:35Z</time>
      </trkpt>
      <trkpt lat="44.37425" lon="3.52617">
        <ele>550</ele>
        <time>2022-05-27T14:21:36Z</time>
      </trkpt>
      <trkpt lat="44.37425" lon="3.52618">
        <ele>551</ele>
        <time>2022-05-27T14:21:37Z</time>
      </trkpt>
      <trkpt lat="44.37426" lon="3.52619">
        <ele>551</ele>
        <time>2022-05-27T14:21:38Z</time>
      </trkpt>
      <trkpt lat="44.37426" lon="3.5262">
        <ele>551</ele>
        <time>2022-05-27T14:21:39Z</time>
      </trkpt>
      <trkpt lat="44.37427" lon="3.52621">
        <ele>551</ele>
        <time>2022-05-27T14:21:40Z</time>
      </trkpt>
      <trkpt lat="44.37428" lon="3.52622">
        <ele>552</ele>
        <time>2022-05-27T14:21:41Z</time>
      </trkpt>
      <trkpt lat="44.37428" lon="3.52623">
        <ele>552</ele>
        <time>2022-05-27T14:21:42Z</time>
      </trkpt>
      <trkpt lat="44.37428" lon="3.52623">
        <ele>552</ele>
        <time>2022-05-27T14:21:43Z</time>
      </trkpt>
      <trkpt lat="44.37428" lon="3.52624">
        <ele>552</ele>
        <time>2022-05-27T14:21:44Z</time>
      </trkpt>
      <trkpt lat="44.37429" lon="3.52625">
        <ele>551</ele>
        <time>2022-05-27T14:21:45Z</time>
      </trkpt>
      <trkpt lat="44.3743" lon="3.52626">
        <ele>551</ele>
        <time>2022-05-27T14:21:46Z</time>
      </trkpt>
      <trkpt lat="44.3743" lon="3.52627">
        <ele>551</ele>
        <time>2022-05-27T14:21:47Z</time>
      </trkpt>
      <trkpt lat="44.3743" lon="3.52627">
        <ele>552</ele>
        <time>2022-05-27T14:21:48Z</time>
      </trkpt>
      <trkpt lat="44.3743" lon="3.52627">
        <ele>552</ele>
        <time>2022-05-27T14:21:49Z</time>
      </trkpt>
      <trkpt lat="44.3743" lon="3.52626">
        <ele>551</ele>
        <time>2022-05-27T14:21:50Z</time>
      </trkpt>
      <trkpt lat="44.3743" lon="3.52626">
        <ele>551</ele>
        <time>2022-05-27T14:21:51Z</time>
      </trkpt>
      <trkpt lat="44.3743" lon="3.52626">
        <ele>551</ele>
        <time>2022-05-27T14:21:52Z</time>
      </trkpt>
      <trkpt lat="44.3743" lon="3.52626">
        <ele>551</ele>
        <time>2022-05-27T14:21:53Z</time>
      </trkpt>
      <trkpt lat="44.3743" lon="3.52626">
        <ele>551</ele>
        <time>2022-05-27T14:21:54Z</time>
      </trkpt>
      <trkpt lat="44.3743" lon="3.52626">
        <ele>551</ele>
        <time>2022-05-27T14:21:54Z</time>
      </trkpt>
      <trkpt lat="44.3743" lon="3.52626">
        <ele>551</ele>
        <time>2022-05-27T14:21:54Z</time>
      </trkpt>
    </trkseg>
  </trk>
</gpx>